<?xml version="1.0" encoding="UTF-8"?>
<TrainingCenterDatabase xmlns="http://www.garmin.com/xmlschemas/TrainingCenterDatabase/v2" xmlns:xsi="http://www.w3.org/2001/XMLSchema-instance" xsi:schemaLocation="http://www.garmin.com/xmlschemas/TrainingCenterDatabase/v2 http://www.garmin.com/xmlschemas/TrainingCenterDatabasev2.xsd">
  <Activities>
    <Activity Sport="Other">
      <Id>2021-07-17T08:46:02.000Z</Id>
      <Lap StartTime="2021-07-17T08:46:02.000Z">
        <TotalTimeSeconds>50293</TotalTimeSeconds>
        <DistanceMeters>24270</DistanceMeters>
        <Track>
          <Trackpoint>
            <Time>2021-07-17T08:46:02.000Z</Time>
            <Position>
              <LatitudeDegrees>42.7283151447772979736328125</LatitudeDegrees>
              <LongitudeDegrees>-0.26896144263446331024169921875</LongitudeDegrees>
            </Position>
            <AltitudeMeters>1226.5999755859375</AltitudeMeters>
            <DistanceMeters>0</DistanceMeters>
          </Trackpoint>
          <Trackpoint>
            <Time>2021-07-17T08:46:03.000Z</Time>
            <Position>
              <LatitudeDegrees>42.7283102832734584808349609375</LatitudeDegrees>
              <LongitudeDegrees>-0.268972925841808319091796875</LongitudeDegrees>
            </Position>
            <AltitudeMeters>1226.5999755859375</AltitudeMeters>
            <DistanceMeters>1.0834712445257</DistanceMeters>
          </Trackpoint>
          <Trackpoint>
            <Time>2021-07-17T08:46:04.000Z</Time>
            <Position>
              <LatitudeDegrees>42.7283017337322235107421875</LatitudeDegrees>
              <LongitudeDegrees>-0.2689871750771999359130859375</LongitudeDegrees>
            </Position>
            <AltitudeMeters>1226.5999755859375</AltitudeMeters>
            <DistanceMeters>2.591973569309</DistanceMeters>
          </Trackpoint>
          <Trackpoint>
            <Time>2021-07-17T08:46:05.000Z</Time>
            <Position>
              <LatitudeDegrees>42.72829645313322544097900390625</LatitudeDegrees>
              <LongitudeDegrees>-0.2689982391893863677978515625</LongitudeDegrees>
            </Position>
            <AltitudeMeters>1226.5999755859375</AltitudeMeters>
            <DistanceMeters>3.6754448138346</DistanceMeters>
          </Trackpoint>
          <Trackpoint>
            <Time>2021-07-17T08:46:06.000Z</Time>
            <Position>
              <LatitudeDegrees>42.72829393856227397918701171875</LatitudeDegrees>
              <LongitudeDegrees>-0.26900611817836761474609375</LongitudeDegrees>
            </Position>
            <AltitudeMeters>1226.5999755859375</AltitudeMeters>
            <DistanceMeters>4.3865596293613</DistanceMeters>
          </Trackpoint>
          <Trackpoint>
            <Time>2021-07-17T08:46:09.000Z</Time>
            <Position>
              <LatitudeDegrees>42.72829678840935230255126953125</LatitudeDegrees>
              <LongitudeDegrees>-0.269014500081539154052734375</LongitudeDegrees>
            </Position>
            <AltitudeMeters>1226.4000244140625</AltitudeMeters>
            <DistanceMeters>5.1467733443211</DistanceMeters>
          </Trackpoint>
          <Trackpoint>
            <Time>2021-07-17T08:46:11.000Z</Time>
            <Position>
              <LatitudeDegrees>42.72830215282738208770751953125</LatitudeDegrees>
              <LongitudeDegrees>-0.26901693083345890045166015625</LongitudeDegrees>
            </Position>
            <AltitudeMeters>1226.199951171875</AltitudeMeters>
            <DistanceMeters>5.7771092575721</DistanceMeters>
          </Trackpoint>
          <Trackpoint>
            <Time>2021-07-17T08:46:13.000Z</Time>
            <Position>
              <LatitudeDegrees>42.7283052541315555572509765625</LatitudeDegrees>
              <LongitudeDegrees>-0.26901542209088802337646484375</LongitudeDegrees>
            </Position>
            <AltitudeMeters>1226.199951171875</AltitudeMeters>
            <DistanceMeters>6.1451461397719</DistanceMeters>
          </Trackpoint>
          <Trackpoint>
            <Time>2021-07-17T08:46:14.000Z</Time>
            <Position>
              <LatitudeDegrees>42.72830399684607982635498046875</LatitudeDegrees>
              <LongitudeDegrees>-0.26901441626250743865966796875</LongitudeDegrees>
            </Position>
            <AltitudeMeters>1226.199951171875</AltitudeMeters>
            <DistanceMeters>6.3351995685119</DistanceMeters>
          </Trackpoint>
          <Trackpoint>
            <Time>2021-07-17T08:46:16.000Z</Time>
            <Position>
              <LatitudeDegrees>42.72830240428447723388671875</LatitudeDegrees>
              <LongitudeDegrees>-0.26901089586317539215087890625</LongitudeDegrees>
            </Position>
            <AltitudeMeters>1226.4000244140625</AltitudeMeters>
            <DistanceMeters>6.6643817632421</DistanceMeters>
          </Trackpoint>
          <Trackpoint>
            <Time>2021-07-17T08:46:18.000Z</Time>
            <Position>
              <LatitudeDegrees>42.72830215282738208770751953125</LatitudeDegrees>
              <LongitudeDegrees>-0.2690108120441436767578125</LongitudeDegrees>
            </Position>
            <AltitudeMeters>1226.4000244140625</AltitudeMeters>
            <DistanceMeters>6.6643817632421</DistanceMeters>
          </Trackpoint>
          <Trackpoint>
            <Time>2021-07-17T08:46:23.000Z</Time>
            <Position>
              <LatitudeDegrees>42.72830215282738208770751953125</LatitudeDegrees>
              <LongitudeDegrees>-0.2690108120441436767578125</LongitudeDegrees>
            </Position>
            <AltitudeMeters>1226.4000244140625</AltitudeMeters>
            <DistanceMeters>6.6643817632421</DistanceMeters>
          </Trackpoint>
          <Trackpoint>
            <Time>2021-07-17T08:46:25.000Z</Time>
            <Position>
              <LatitudeDegrees>42.72830215282738208770751953125</LatitudeDegrees>
              <LongitudeDegrees>-0.2690108120441436767578125</LongitudeDegrees>
            </Position>
            <AltitudeMeters>1226.4000244140625</AltitudeMeters>
            <DistanceMeters>6.6643817632421</DistanceMeters>
          </Trackpoint>
          <Trackpoint>
            <Time>2021-07-17T08:46:29.000Z</Time>
            <Position>
              <LatitudeDegrees>42.72830215282738208770751953125</LatitudeDegrees>
              <LongitudeDegrees>-0.26901273988187313079833984375</LongitudeDegrees>
            </Position>
            <AltitudeMeters>1226.4000244140625</AltitudeMeters>
            <DistanceMeters>6.8289728606073</DistanceMeters>
          </Trackpoint>
          <Trackpoint>
            <Time>2021-07-17T08:46:36.000Z</Time>
            <Position>
              <LatitudeDegrees>42.728300392627716064453125</LatitudeDegrees>
              <LongitudeDegrees>-0.26901818811893463134765625</LongitudeDegrees>
            </Position>
            <AltitudeMeters>1226.199951171875</AltitudeMeters>
            <DistanceMeters>7.3227461527027</DistanceMeters>
          </Trackpoint>
          <Trackpoint>
            <Time>2021-07-17T08:46:56.000Z</Time>
            <Position>
              <LatitudeDegrees>42.72833551280200481414794921875</LatitudeDegrees>
              <LongitudeDegrees>-0.26902891695499420166015625</LongitudeDegrees>
            </Position>
            <AltitudeMeters>1225.5999755859375</AltitudeMeters>
            <DistanceMeters>11.329674641876</DistanceMeters>
          </Trackpoint>
          <Trackpoint>
            <Time>2021-07-17T08:47:15.000Z</Time>
            <Position>
              <LatitudeDegrees>42.72830751724541187286376953125</LatitudeDegrees>
              <LongitudeDegrees>-0.26908147148787975311279296875</LongitudeDegrees>
            </Position>
            <AltitudeMeters>1225.5999755859375</AltitudeMeters>
            <DistanceMeters>16.637578042009</DistanceMeters>
          </Trackpoint>
          <Trackpoint>
            <Time>2021-07-17T08:47:18.000Z</Time>
            <Position>
              <LatitudeDegrees>42.72827398963272571563720703125</LatitudeDegrees>
              <LongitudeDegrees>-0.26911717839539051055908203125</LongitudeDegrees>
            </Position>
            <AltitudeMeters>1225.4000244140625</AltitudeMeters>
            <DistanceMeters>21.376544186234</DistanceMeters>
          </Trackpoint>
          <Trackpoint>
            <Time>2021-07-17T08:47:22.000Z</Time>
            <Position>
              <LatitudeDegrees>42.728233002126216888427734375</LatitudeDegrees>
              <LongitudeDegrees>-0.26915975846350193023681640625</LongitudeDegrees>
            </Position>
            <AltitudeMeters>1225</AltitudeMeters>
            <DistanceMeters>27.116031869604</DistanceMeters>
          </Trackpoint>
          <Trackpoint>
            <Time>2021-07-17T08:47:23.000Z</Time>
            <Position>
              <LatitudeDegrees>42.7282241173088550567626953125</LatitudeDegrees>
              <LongitudeDegrees>-0.26916847564280033111572265625</LongitudeDegrees>
            </Position>
            <AltitudeMeters>1224.800048828125</AltitudeMeters>
            <DistanceMeters>28.332967585576</DistanceMeters>
          </Trackpoint>
          <Trackpoint>
            <Time>2021-07-17T08:47:31.000Z</Time>
            <Position>
              <LatitudeDegrees>42.72815614007413387298583984375</LatitudeDegrees>
              <LongitudeDegrees>-0.2692453376948833465576171875</LongitudeDegrees>
            </Position>
            <AltitudeMeters>1223.800048828125</AltitudeMeters>
            <DistanceMeters>38.169035856005</DistanceMeters>
          </Trackpoint>
          <Trackpoint>
            <Time>2021-07-17T08:47:33.000Z</Time>
            <Position>
              <LatitudeDegrees>42.7281413041055202484130859375</LatitudeDegrees>
              <LongitudeDegrees>-0.26925547979772090911865234375</LongitudeDegrees>
            </Position>
            <AltitudeMeters>1223.800048828125</AltitudeMeters>
            <DistanceMeters>40.016566341766</DistanceMeters>
          </Trackpoint>
          <Trackpoint>
            <Time>2021-07-17T08:47:40.000Z</Time>
            <Position>
              <LatitudeDegrees>42.72808908484876155853271484375</LatitudeDegrees>
              <LongitudeDegrees>-0.26932136155664920806884765625</LongitudeDegrees>
            </Position>
            <AltitudeMeters>1222.4000244140625</AltitudeMeters>
            <DistanceMeters>47.94090553133</DistanceMeters>
          </Trackpoint>
          <Trackpoint>
            <Time>2021-07-17T08:47:45.000Z</Time>
            <Position>
              <LatitudeDegrees>42.7280509471893310546875</LatitudeDegrees>
              <LongitudeDegrees>-0.26935153640806674957275390625</LongitudeDegrees>
            </Position>
            <AltitudeMeters>1221.800048828125</AltitudeMeters>
            <DistanceMeters>52.851129976848</DistanceMeters>
          </Trackpoint>
          <Trackpoint>
            <Time>2021-07-17T08:47:51.000Z</Time>
            <Position>
              <LatitudeDegrees>42.72801482118666172027587890625</LatitudeDegrees>
              <LongitudeDegrees>-0.2693965472280979156494140625</LongitudeDegrees>
            </Position>
            <AltitudeMeters>1220.800048828125</AltitudeMeters>
            <DistanceMeters>58.301721825502</DistanceMeters>
          </Trackpoint>
          <Trackpoint>
            <Time>2021-07-17T08:47:53.000Z</Time>
            <Position>
              <LatitudeDegrees>42.72799260914325714111328125</LatitudeDegrees>
              <LongitudeDegrees>-0.269416831433773040771484375</LongitudeDegrees>
            </Position>
            <AltitudeMeters>1220.4000244140625</AltitudeMeters>
            <DistanceMeters>61.278045899173</DistanceMeters>
          </Trackpoint>
          <Trackpoint>
            <Time>2021-07-17T08:47:56.000Z</Time>
            <Position>
              <LatitudeDegrees>42.72797207348048686981201171875</LatitudeDegrees>
              <LongitudeDegrees>-0.26946402154862880706787109375</LongitudeDegrees>
            </Position>
            <AltitudeMeters>1219.4000244140625</AltitudeMeters>
            <DistanceMeters>65.763467876773</DistanceMeters>
          </Trackpoint>
          <Trackpoint>
            <Time>2021-07-17T08:48:07.000Z</Time>
            <Position>
              <LatitudeDegrees>42.727876603603363037109375</LatitudeDegrees>
              <LongitudeDegrees>-0.26956477202475070953369140625</LongitudeDegrees>
            </Position>
            <AltitudeMeters>1217.5999755859375</AltitudeMeters>
            <DistanceMeters>79.208320804758</DistanceMeters>
          </Trackpoint>
          <Trackpoint>
            <Time>2021-07-17T08:48:13.000Z</Time>
            <Position>
              <LatitudeDegrees>42.7278308384120464324951171875</LatitudeDegrees>
              <LongitudeDegrees>-0.26960751973092555999755859375</LongitudeDegrees>
            </Position>
            <AltitudeMeters>1217</AltitudeMeters>
            <DistanceMeters>85.385788170285</DistanceMeters>
          </Trackpoint>
          <Trackpoint>
            <Time>2021-07-17T08:48:17.000Z</Time>
            <Position>
              <LatitudeDegrees>42.72780460305511951446533203125</LatitudeDegrees>
              <LongitudeDegrees>-0.26965387165546417236328125</LongitudeDegrees>
            </Position>
            <AltitudeMeters>1216</AltitudeMeters>
            <DistanceMeters>90.169323861485</DistanceMeters>
          </Trackpoint>
          <Trackpoint>
            <Time>2021-07-17T08:48:30.000Z</Time>
            <Position>
              <LatitudeDegrees>42.72769932635128498077392578125</LatitudeDegrees>
              <LongitudeDegrees>-0.2698086015880107879638671875</LongitudeDegrees>
            </Position>
            <AltitudeMeters>1214.4000244140625</AltitudeMeters>
            <DistanceMeters>107.41294172859</DistanceMeters>
          </Trackpoint>
          <Trackpoint>
            <Time>2021-07-17T08:48:40.000Z</Time>
            <Position>
              <LatitudeDegrees>42.72763076238334178924560546875</LatitudeDegrees>
              <LongitudeDegrees>-0.2699227631092071533203125</LongitudeDegrees>
            </Position>
            <AltitudeMeters>1213.199951171875</AltitudeMeters>
            <DistanceMeters>119.46935664009</DistanceMeters>
          </Trackpoint>
          <Trackpoint>
            <Time>2021-07-17T08:48:50.000Z</Time>
            <Position>
              <LatitudeDegrees>42.72753797471523284912109375</LatitudeDegrees>
              <LongitudeDegrees>-0.270026363432407379150390625</LongitudeDegrees>
            </Position>
            <AltitudeMeters>1212.5999755859375</AltitudeMeters>
            <DistanceMeters>132.82593517754</DistanceMeters>
          </Trackpoint>
          <Trackpoint>
            <Time>2021-07-17T08:49:02.000Z</Time>
            <Position>
              <LatitudeDegrees>42.727421633899211883544921875</LatitudeDegrees>
              <LongitudeDegrees>-0.27014697901904582977294921875</LongitudeDegrees>
            </Position>
            <AltitudeMeters>1212.199951171875</AltitudeMeters>
            <DistanceMeters>149.10243304141</DistanceMeters>
          </Trackpoint>
          <Trackpoint>
            <Time>2021-07-17T08:49:07.000Z</Time>
            <Position>
              <LatitudeDegrees>42.72738466970622539520263671875</LatitudeDegrees>
              <LongitudeDegrees>-0.2702022157609462738037109375</LongitudeDegrees>
            </Position>
            <AltitudeMeters>1212</AltitudeMeters>
            <DistanceMeters>155.21228868777</DistanceMeters>
          </Trackpoint>
          <Trackpoint>
            <Time>2021-07-17T08:49:09.000Z</Time>
            <Position>
              <LatitudeDegrees>42.727366648614406585693359375</LatitudeDegrees>
              <LongitudeDegrees>-0.270223505795001983642578125</LongitudeDegrees>
            </Position>
            <AltitudeMeters>1211.800048828125</AltitudeMeters>
            <DistanceMeters>157.86964071172</DistanceMeters>
          </Trackpoint>
          <Trackpoint>
            <Time>2021-07-17T08:49:18.000Z</Time>
            <Position>
              <LatitudeDegrees>42.72726849652826786041259765625</LatitudeDegrees>
              <LongitudeDegrees>-0.2703222446143627166748046875</LongitudeDegrees>
            </Position>
            <AltitudeMeters>1210.800048828125</AltitudeMeters>
            <DistanceMeters>171.4531436465</DistanceMeters>
          </Trackpoint>
          <Trackpoint>
            <Time>2021-07-17T08:49:28.000Z</Time>
            <Position>
              <LatitudeDegrees>42.72717210464179515838623046875</LatitudeDegrees>
              <LongitudeDegrees>-0.270413272082805633544921875</LongitudeDegrees>
            </Position>
            <AltitudeMeters>1209.800048828125</AltitudeMeters>
            <DistanceMeters>184.51024298985</DistanceMeters>
          </Trackpoint>
          <Trackpoint>
            <Time>2021-07-17T08:49:31.000Z</Time>
            <Position>
              <LatitudeDegrees>42.7271492220461368560791015625</LatitudeDegrees>
              <LongitudeDegrees>-0.27043171226978302001953125</LongitudeDegrees>
            </Position>
            <AltitudeMeters>1209.5999755859375</AltitudeMeters>
            <DistanceMeters>187.46678049134</DistanceMeters>
          </Trackpoint>
          <Trackpoint>
            <Time>2021-07-17T08:49:35.000Z</Time>
            <Position>
              <LatitudeDegrees>42.72712290287017822265625</LatitudeDegrees>
              <LongitudeDegrees>-0.27047194540500640869140625</LongitudeDegrees>
            </Position>
            <AltitudeMeters>1209.199951171875</AltitudeMeters>
            <DistanceMeters>191.87298797108</DistanceMeters>
          </Trackpoint>
          <Trackpoint>
            <Time>2021-07-17T08:49:46.000Z</Time>
            <Position>
              <LatitudeDegrees>42.7270157821476459503173828125</LatitudeDegrees>
              <LongitudeDegrees>-0.27057277970016002655029296875</LongitudeDegrees>
            </Position>
            <AltitudeMeters>1208.4000244140625</AltitudeMeters>
            <DistanceMeters>206.36853379642</DistanceMeters>
          </Trackpoint>
          <Trackpoint>
            <Time>2021-07-17T08:49:48.000Z</Time>
            <Position>
              <LatitudeDegrees>42.72700077854096889495849609375</LatitudeDegrees>
              <LongitudeDegrees>-0.2705897949635982513427734375</LongitudeDegrees>
            </Position>
            <AltitudeMeters>1208.4000244140625</AltitudeMeters>
            <DistanceMeters>208.53963948333</DistanceMeters>
          </Trackpoint>
          <Trackpoint>
            <Time>2021-07-17T08:49:50.000Z</Time>
            <Position>
              <LatitudeDegrees>42.72698284126818180084228515625</LatitudeDegrees>
              <LongitudeDegrees>-0.2705965004861354827880859375</LongitudeDegrees>
            </Position>
            <AltitudeMeters>1208.4000244140625</AltitudeMeters>
            <DistanceMeters>210.60851749676</DistanceMeters>
          </Trackpoint>
          <Trackpoint>
            <Time>2021-07-17T08:49:54.000Z</Time>
            <Position>
              <LatitudeDegrees>42.726942859590053558349609375</LatitudeDegrees>
              <LongitudeDegrees>-0.2706085704267024993896484375</LongitudeDegrees>
            </Position>
            <AltitudeMeters>1208.4000244140625</AltitudeMeters>
            <DistanceMeters>215.16583862008</DistanceMeters>
          </Trackpoint>
          <Trackpoint>
            <Time>2021-07-17T08:49:56.000Z</Time>
            <Position>
              <LatitudeDegrees>42.7269353158771991729736328125</LatitudeDegrees>
              <LongitudeDegrees>-0.27060898952186107635498046875</LongitudeDegrees>
            </Position>
            <AltitudeMeters>1208.4000244140625</AltitudeMeters>
            <DistanceMeters>216.00509183731</DistanceMeters>
          </Trackpoint>
          <Trackpoint>
            <Time>2021-07-17T08:50:00.000Z</Time>
            <Position>
              <LatitudeDegrees>42.72693489678204059600830078125</LatitudeDegrees>
              <LongitudeDegrees>-0.2706109173595905303955078125</LongitudeDegrees>
            </Position>
            <AltitudeMeters>1208.4000244140625</AltitudeMeters>
            <DistanceMeters>216.16968293467</DistanceMeters>
          </Trackpoint>
          <Trackpoint>
            <Time>2021-07-17T08:50:06.000Z</Time>
            <Position>
              <LatitudeDegrees>42.72692835889756679534912109375</LatitudeDegrees>
              <LongitudeDegrees>-0.270607061684131622314453125</LongitudeDegrees>
            </Position>
            <AltitudeMeters>1208.4000244140625</AltitudeMeters>
            <DistanceMeters>216.96473346834</DistanceMeters>
          </Trackpoint>
          <Trackpoint>
            <Time>2021-07-17T08:50:09.000Z</Time>
            <Position>
              <LatitudeDegrees>42.7269239164888858795166015625</LatitudeDegrees>
              <LongitudeDegrees>-0.270611084997653961181640625</LongitudeDegrees>
            </Position>
            <AltitudeMeters>1208.4000244140625</AltitudeMeters>
            <DistanceMeters>217.56573518028</DistanceMeters>
          </Trackpoint>
          <Trackpoint>
            <Time>2021-07-17T08:50:26.000Z</Time>
            <Position>
              <LatitudeDegrees>42.72695325314998626708984375</LatitudeDegrees>
              <LongitudeDegrees>-0.270611084997653961181640625</LongitudeDegrees>
            </Position>
            <AltitudeMeters>1208.4000244140625</AltitudeMeters>
            <DistanceMeters>220.83001001611</DistanceMeters>
          </Trackpoint>
          <Trackpoint>
            <Time>2021-07-17T08:50:33.000Z</Time>
            <Position>
              <LatitudeDegrees>42.72704687900841236114501953125</LatitudeDegrees>
              <LongitudeDegrees>-0.27057445608079433441162109375</LongitudeDegrees>
            </Position>
            <AltitudeMeters>1208.4000244140625</AltitudeMeters>
            <DistanceMeters>231.67305365249</DistanceMeters>
          </Trackpoint>
          <Trackpoint>
            <Time>2021-07-17T08:50:42.000Z</Time>
            <Position>
              <LatitudeDegrees>42.727144025266170501708984375</LatitudeDegrees>
              <LongitudeDegrees>-0.2704999409615993499755859375</LongitudeDegrees>
            </Position>
            <AltitudeMeters>1209</AltitudeMeters>
            <DistanceMeters>244.08341157755</DistanceMeters>
          </Trackpoint>
          <Trackpoint>
            <Time>2021-07-17T08:50:44.000Z</Time>
            <Position>
              <LatitudeDegrees>42.7271760441362857818603515625</LatitudeDegrees>
              <LongitudeDegrees>-0.27047806419432163238525390625</LongitudeDegrees>
            </Position>
            <AltitudeMeters>1209.199951171875</AltitudeMeters>
            <DistanceMeters>248.07113832569</DistanceMeters>
          </Trackpoint>
          <Trackpoint>
            <Time>2021-07-17T08:50:52.000Z</Time>
            <Position>
              <LatitudeDegrees>42.727253325283527374267578125</LatitudeDegrees>
              <LongitudeDegrees>-0.2704228274524211883544921875</LongitudeDegrees>
            </Position>
            <AltitudeMeters>1209.800048828125</AltitudeMeters>
            <DistanceMeters>257.78619668847</DistanceMeters>
          </Trackpoint>
          <Trackpoint>
            <Time>2021-07-17T08:50:55.000Z</Time>
            <Position>
              <LatitudeDegrees>42.727284841239452362060546875</LatitudeDegrees>
              <LongitudeDegrees>-0.27040757238864898681640625</LongitudeDegrees>
            </Position>
            <AltitudeMeters>1210</AltitudeMeters>
            <DistanceMeters>261.50804263706</DistanceMeters>
          </Trackpoint>
          <Trackpoint>
            <Time>2021-07-17T08:50:57.000Z</Time>
            <Position>
              <LatitudeDegrees>42.72729850374162197113037109375</LatitudeDegrees>
              <LongitudeDegrees>-0.27038066647946834564208984375</LongitudeDegrees>
            </Position>
            <AltitudeMeters>1210.199951171875</AltitudeMeters>
            <DistanceMeters>264.18233142917</DistanceMeters>
          </Trackpoint>
          <Trackpoint>
            <Time>2021-07-17T08:50:59.000Z</Time>
            <Position>
              <LatitudeDegrees>42.72730403579771518707275390625</LatitudeDegrees>
              <LongitudeDegrees>-0.27035954408347606658935546875</LongitudeDegrees>
            </Position>
            <AltitudeMeters>1210.4000244140625</AltitudeMeters>
            <DistanceMeters>266.01514032186</DistanceMeters>
          </Trackpoint>
          <Trackpoint>
            <Time>2021-07-17T08:51:05.000Z</Time>
            <Position>
              <LatitudeDegrees>42.72738969884812831878662109375</LatitudeDegrees>
              <LongitudeDegrees>-0.270298607647418975830078125</LongitudeDegrees>
            </Position>
            <AltitudeMeters>1211</AltitudeMeters>
            <DistanceMeters>276.77290308676</DistanceMeters>
          </Trackpoint>
          <Trackpoint>
            <Time>2021-07-17T08:51:07.000Z</Time>
            <Position>
              <LatitudeDegrees>42.72741735912859439849853515625</LatitudeDegrees>
              <LongitudeDegrees>-0.27028075419366359710693359375</LongitudeDegrees>
            </Position>
            <AltitudeMeters>1211.199951171875</AltitudeMeters>
            <DistanceMeters>280.1806410912</DistanceMeters>
          </Trackpoint>
          <Trackpoint>
            <Time>2021-07-17T08:51:08.000Z</Time>
            <Position>
              <LatitudeDegrees>42.727425992488861083984375</LatitudeDegrees>
              <LongitudeDegrees>-0.2702699415385723114013671875</LongitudeDegrees>
            </Position>
            <AltitudeMeters>1211.4000244140625</AltitudeMeters>
            <DistanceMeters>281.48358175426</DistanceMeters>
          </Trackpoint>
          <Trackpoint>
            <Time>2021-07-17T08:51:10.000Z</Time>
            <Position>
              <LatitudeDegrees>42.72744007408618927001953125</LatitudeDegrees>
              <LongitudeDegrees>-0.27024672366678714752197265625</LongitudeDegrees>
            </Position>
            <AltitudeMeters>1211.5999755859375</AltitudeMeters>
            <DistanceMeters>283.94512218536</DistanceMeters>
          </Trackpoint>
          <Trackpoint>
            <Time>2021-07-17T08:51:12.000Z</Time>
            <Position>
              <LatitudeDegrees>42.72745189256966114044189453125</LatitudeDegrees>
              <LongitudeDegrees>-0.2702097594738006591796875</LongitudeDegrees>
            </Position>
            <AltitudeMeters>1212</AltitudeMeters>
            <DistanceMeters>287.23968617557</DistanceMeters>
          </Trackpoint>
          <Trackpoint>
            <Time>2021-07-17T08:51:15.000Z</Time>
            <Position>
              <LatitudeDegrees>42.727474607527256011962890625</LatitudeDegrees>
              <LongitudeDegrees>-0.270170532166957855224609375</LongitudeDegrees>
            </Position>
            <AltitudeMeters>1212.199951171875</AltitudeMeters>
            <DistanceMeters>291.32251866241</DistanceMeters>
          </Trackpoint>
          <Trackpoint>
            <Time>2021-07-17T08:51:18.000Z</Time>
            <Position>
              <LatitudeDegrees>42.72750419564545154571533203125</LatitudeDegrees>
              <LongitudeDegrees>-0.2701267786324024200439453125</LongitudeDegrees>
            </Position>
            <AltitudeMeters>1212.4000244140625</AltitudeMeters>
            <DistanceMeters>296.18376439306</DistanceMeters>
          </Trackpoint>
          <Trackpoint>
            <Time>2021-07-17T08:51:25.000Z</Time>
            <Position>
              <LatitudeDegrees>42.72760444320738315582275390625</LatitudeDegrees>
              <LongitudeDegrees>-0.2700273692607879638671875</LongitudeDegrees>
            </Position>
            <AltitudeMeters>1212.5999755859375</AltitudeMeters>
            <DistanceMeters>309.98784614885</DistanceMeters>
          </Trackpoint>
          <Trackpoint>
            <Time>2021-07-17T08:51:31.000Z</Time>
            <Position>
              <LatitudeDegrees>42.72765624336898326873779296875</LatitudeDegrees>
              <LongitudeDegrees>-0.26994430460035800933837890625</LongitudeDegrees>
            </Position>
            <AltitudeMeters>1213</AltitudeMeters>
            <DistanceMeters>318.89606212004</DistanceMeters>
          </Trackpoint>
          <Trackpoint>
            <Time>2021-07-17T08:51:33.000Z</Time>
            <Position>
              <LatitudeDegrees>42.72767166607081890106201171875</LatitudeDegrees>
              <LongitudeDegrees>-0.2699182368814945220947265625</LongitudeDegrees>
            </Position>
            <AltitudeMeters>1213.199951171875</AltitudeMeters>
            <DistanceMeters>321.63045479404</DistanceMeters>
          </Trackpoint>
          <Trackpoint>
            <Time>2021-07-17T08:51:40.000Z</Time>
            <Position>
              <LatitudeDegrees>42.72771240212023258209228515625</LatitudeDegrees>
              <LongitudeDegrees>-0.2698384411633014678955078125</LongitudeDegrees>
            </Position>
            <AltitudeMeters>1214</AltitudeMeters>
            <DistanceMeters>329.57527916864</DistanceMeters>
          </Trackpoint>
          <Trackpoint>
            <Time>2021-07-17T08:51:44.000Z</Time>
            <Position>
              <LatitudeDegrees>42.72773738019168376922607421875</LatitudeDegrees>
              <LongitudeDegrees>-0.26978421024978160858154296875</LongitudeDegrees>
            </Position>
            <AltitudeMeters>1214.5999755859375</AltitudeMeters>
            <DistanceMeters>334.80779211923</DistanceMeters>
          </Trackpoint>
          <Trackpoint>
            <Time>2021-07-17T08:51:47.000Z</Time>
            <Position>
              <LatitudeDegrees>42.7277587540447711944580078125</LatitudeDegrees>
              <LongitudeDegrees>-0.26975177228450775146484375</LongitudeDegrees>
            </Position>
            <AltitudeMeters>1215</AltitudeMeters>
            <DistanceMeters>338.37097713831</DistanceMeters>
          </Trackpoint>
          <Trackpoint>
            <Time>2021-07-17T08:51:57.000Z</Time>
            <Position>
              <LatitudeDegrees>42.72785179316997528076171875</LatitudeDegrees>
              <LongitudeDegrees>-0.26963618583977222442626953125</LongitudeDegrees>
            </Position>
            <AltitudeMeters>1216.4000244140625</AltitudeMeters>
            <DistanceMeters>352.39055786953</DistanceMeters>
          </Trackpoint>
          <Trackpoint>
            <Time>2021-07-17T08:52:01.000Z</Time>
            <Position>
              <LatitudeDegrees>42.7278806269168853759765625</LatitudeDegrees>
              <LongitudeDegrees>-0.26960098184645175933837890625</LongitudeDegrees>
            </Position>
            <AltitudeMeters>1217</AltitudeMeters>
            <DistanceMeters>356.7014623363</DistanceMeters>
          </Trackpoint>
          <Trackpoint>
            <Time>2021-07-17T08:52:02.000Z</Time>
            <Position>
              <LatitudeDegrees>42.7279062755405902862548828125</LatitudeDegrees>
              <LongitudeDegrees>-0.269586145877838134765625</LongitudeDegrees>
            </Position>
            <AltitudeMeters>1217.199951171875</AltitudeMeters>
            <DistanceMeters>359.80113995444</DistanceMeters>
          </Trackpoint>
          <Trackpoint>
            <Time>2021-07-17T08:52:05.000Z</Time>
            <Position>
              <LatitudeDegrees>42.72793720476329326629638671875</LatitudeDegrees>
              <LongitudeDegrees>-0.2695621736347675323486328125</LongitudeDegrees>
            </Position>
            <AltitudeMeters>1217.800048828125</AltitudeMeters>
            <DistanceMeters>363.7615998751</DistanceMeters>
          </Trackpoint>
          <Trackpoint>
            <Time>2021-07-17T08:52:07.000Z</Time>
            <Position>
              <LatitudeDegrees>42.72794927470386028289794921875</LatitudeDegrees>
              <LongitudeDegrees>-0.26953451335430145263671875</LongitudeDegrees>
            </Position>
            <AltitudeMeters>1218.199951171875</AltitudeMeters>
            <DistanceMeters>366.39162621642</DistanceMeters>
          </Trackpoint>
          <Trackpoint>
            <Time>2021-07-17T08:52:11.000Z</Time>
            <Position>
              <LatitudeDegrees>42.72798246704041957855224609375</LatitudeDegrees>
              <LongitudeDegrees>-0.269494615495204925537109375</LongitudeDegrees>
            </Position>
            <AltitudeMeters>1219</AltitudeMeters>
            <DistanceMeters>371.32020670519</DistanceMeters>
          </Trackpoint>
          <Trackpoint>
            <Time>2021-07-17T08:52:17.000Z</Time>
            <Position>
              <LatitudeDegrees>42.7280417270958423614501953125</LatitudeDegrees>
              <LongitudeDegrees>-0.2694267220795154571533203125</LongitudeDegrees>
            </Position>
            <AltitudeMeters>1220.199951171875</AltitudeMeters>
            <DistanceMeters>379.94096822223</DistanceMeters>
          </Trackpoint>
          <Trackpoint>
            <Time>2021-07-17T08:52:21.000Z</Time>
            <Position>
              <LatitudeDegrees>42.7280574850738048553466796875</LatitudeDegrees>
              <LongitudeDegrees>-0.26938162744045257568359375</LongitudeDegrees>
            </Position>
            <AltitudeMeters>1221</AltitudeMeters>
            <DistanceMeters>384.02380070907</DistanceMeters>
          </Trackpoint>
          <Trackpoint>
            <Time>2021-07-17T08:52:31.000Z</Time>
            <Position>
              <LatitudeDegrees>42.72815647535026073455810546875</LatitudeDegrees>
              <LongitudeDegrees>-0.2692738361656665802001953125</LongitudeDegrees>
            </Position>
            <AltitudeMeters>1223.199951171875</AltitudeMeters>
            <DistanceMeters>398.13262791513</DistanceMeters>
          </Trackpoint>
          <Trackpoint>
            <Time>2021-07-17T08:52:34.000Z</Time>
            <Position>
              <LatitudeDegrees>42.7281855605542659759521484375</LatitudeDegrees>
              <LongitudeDegrees>-0.26924810372292995452880859375</LongitudeDegrees>
            </Position>
            <AltitudeMeters>1223.4000244140625</AltitudeMeters>
            <DistanceMeters>401.99263130017</DistanceMeters>
          </Trackpoint>
          <Trackpoint>
            <Time>2021-07-17T08:52:36.000Z</Time>
            <Position>
              <LatitudeDegrees>42.72819905541837215423583984375</LatitudeDegrees>
              <LongitudeDegrees>-0.26922346092760562896728515625</LongitudeDegrees>
            </Position>
            <AltitudeMeters>1223.800048828125</AltitudeMeters>
            <DistanceMeters>404.50320760012</DistanceMeters>
          </Trackpoint>
          <Trackpoint>
            <Time>2021-07-17T08:52:38.000Z</Time>
            <Position>
              <LatitudeDegrees>42.7282335050404071807861328125</LatitudeDegrees>
              <LongitudeDegrees>-0.269202925264835357666015625</LongitudeDegrees>
            </Position>
            <AltitudeMeters>1223.800048828125</AltitudeMeters>
            <DistanceMeters>408.68762132547</DistanceMeters>
          </Trackpoint>
          <Trackpoint>
            <Time>2021-07-17T08:52:43.000Z</Time>
            <Position>
              <LatitudeDegrees>42.72826728411018848419189453125</LatitudeDegrees>
              <LongitudeDegrees>-0.2691444195806980133056640625</LongitudeDegrees>
            </Position>
            <AltitudeMeters>1224.800048828125</AltitudeMeters>
            <DistanceMeters>414.77081565635</DistanceMeters>
          </Trackpoint>
          <Trackpoint>
            <Time>2021-07-17T08:52:44.000Z</Time>
            <Position>
              <LatitudeDegrees>42.7282700501382350921630859375</LatitudeDegrees>
              <LongitudeDegrees>-0.26913486421108245849609375</LongitudeDegrees>
            </Position>
            <AltitudeMeters>1225</AltitudeMeters>
            <DistanceMeters>415.61006887358</DistanceMeters>
          </Trackpoint>
          <Trackpoint>
            <Time>2021-07-17T08:52:53.000Z</Time>
            <Position>
              <LatitudeDegrees>42.7283428050577640533447265625</LatitudeDegrees>
              <LongitudeDegrees>-0.26902078650891780853271484375</LongitudeDegrees>
            </Position>
            <AltitudeMeters>1225.5999755859375</AltitudeMeters>
            <DistanceMeters>427.96207970571</DistanceMeters>
          </Trackpoint>
          <Trackpoint>
            <Time>2021-07-17T08:53:01.000Z</Time>
            <Position>
              <LatitudeDegrees>42.7284014783799648284912109375</LatitudeDegrees>
              <LongitudeDegrees>-0.26891534216701984405517578125</LongitudeDegrees>
            </Position>
            <AltitudeMeters>1226</AltitudeMeters>
            <DistanceMeters>438.77677110686</DistanceMeters>
          </Trackpoint>
          <Trackpoint>
            <Time>2021-07-17T08:53:04.000Z</Time>
            <Position>
              <LatitudeDegrees>42.72842000238597393035888671875</LatitudeDegrees>
              <LongitudeDegrees>-0.26887745596468448638916015625</LongitudeDegrees>
            </Position>
            <AltitudeMeters>1226.199951171875</AltitudeMeters>
            <DistanceMeters>442.49619002816</DistanceMeters>
          </Trackpoint>
          <Trackpoint>
            <Time>2021-07-17T08:53:10.000Z</Time>
            <Position>
              <LatitudeDegrees>42.7284162305295467376708984375</LatitudeDegrees>
              <LongitudeDegrees>-0.2688839100301265716552734375</LongitudeDegrees>
            </Position>
            <AltitudeMeters>1226.199951171875</AltitudeMeters>
            <DistanceMeters>443.16813036941</DistanceMeters>
          </Trackpoint>
          <Trackpoint>
            <Time>2021-07-17T08:53:15.000Z</Time>
            <Position>
              <LatitudeDegrees>42.72838798351585865020751953125</LatitudeDegrees>
              <LongitudeDegrees>-0.2688775397837162017822265625</LongitudeDegrees>
            </Position>
            <AltitudeMeters>1226.5999755859375</AltitudeMeters>
            <DistanceMeters>446.354006375</DistanceMeters>
          </Trackpoint>
          <Trackpoint>
            <Time>2021-07-17T08:53:21.000Z</Time>
            <Position>
              <LatitudeDegrees>42.72838421165943145751953125</LatitudeDegrees>
              <LongitudeDegrees>-0.26887276209890842437744140625</LongitudeDegrees>
            </Position>
            <AltitudeMeters>1226.5999755859375</AltitudeMeters>
            <DistanceMeters>446.92416666122</DistanceMeters>
          </Trackpoint>
          <Trackpoint>
            <Time>2021-07-17T08:53:29.000Z</Time>
            <Position>
              <LatitudeDegrees>42.72838421165943145751953125</LatitudeDegrees>
              <LongitudeDegrees>-0.26887276209890842437744140625</LongitudeDegrees>
            </Position>
            <AltitudeMeters>1226.5999755859375</AltitudeMeters>
            <DistanceMeters>446.92416666122</DistanceMeters>
          </Trackpoint>
          <Trackpoint>
            <Time>2021-07-17T08:53:33.000Z</Time>
            <Position>
              <LatitudeDegrees>42.72838421165943145751953125</LatitudeDegrees>
              <LongitudeDegrees>-0.268872678279876708984375</LongitudeDegrees>
            </Position>
            <AltitudeMeters>1226.5999755859375</AltitudeMeters>
            <DistanceMeters>446.92416666122</DistanceMeters>
          </Trackpoint>
          <Trackpoint>
            <Time>2021-07-17T08:53:35.000Z</Time>
            <Position>
              <LatitudeDegrees>42.72838421165943145751953125</LatitudeDegrees>
              <LongitudeDegrees>-0.2688715048134326934814453125</LongitudeDegrees>
            </Position>
            <AltitudeMeters>1226.5999755859375</AltitudeMeters>
            <DistanceMeters>446.92416666122</DistanceMeters>
          </Trackpoint>
          <Trackpoint>
            <Time>2021-07-17T08:53:38.000Z</Time>
            <Position>
              <LatitudeDegrees>42.72838278673589229583740234375</LatitudeDegrees>
              <LongitudeDegrees>-0.26887091808021068572998046875</LongitudeDegrees>
            </Position>
            <AltitudeMeters>1226.800048828125</AltitudeMeters>
            <DistanceMeters>447.05855472947</DistanceMeters>
          </Trackpoint>
          <Trackpoint>
            <Time>2021-07-17T08:53:42.000Z</Time>
            <Position>
              <LatitudeDegrees>42.72838018834590911865234375</LatitudeDegrees>
              <LongitudeDegrees>-0.2688704989850521087646484375</LongitudeDegrees>
            </Position>
            <AltitudeMeters>1226.800048828125</AltitudeMeters>
            <DistanceMeters>447.32733086597</DistanceMeters>
          </Trackpoint>
          <Trackpoint>
            <Time>2021-07-17T08:53:50.000Z</Time>
            <Position>
              <LatitudeDegrees>42.72837557829916477203369140625</LatitudeDegrees>
              <LongitudeDegrees>-0.26886605657637119293212890625</LongitudeDegrees>
            </Position>
            <AltitudeMeters>1226.800048828125</AltitudeMeters>
            <DistanceMeters>447.95766677923</DistanceMeters>
          </Trackpoint>
          <Trackpoint>
            <Time>2021-07-17T08:53:56.000Z</Time>
            <Position>
              <LatitudeDegrees>42.7283714711666107177734375</LatitudeDegrees>
              <LongitudeDegrees>-0.26884158141911029815673828125</LongitudeDegrees>
            </Position>
            <AltitudeMeters>1227.199951171875</AltitudeMeters>
            <DistanceMeters>450.01121144622</DistanceMeters>
          </Trackpoint>
          <Trackpoint>
            <Time>2021-07-17T08:53:58.000Z</Time>
            <Position>
              <LatitudeDegrees>42.7283714711666107177734375</LatitudeDegrees>
              <LongitudeDegrees>-0.26882984675467014312744140625</LongitudeDegrees>
            </Position>
            <AltitudeMeters>1227.199951171875</AltitudeMeters>
            <DistanceMeters>450.97093421727</DistanceMeters>
          </Trackpoint>
          <Trackpoint>
            <Time>2021-07-17T08:54:00.000Z</Time>
            <Position>
              <LatitudeDegrees>42.728373147547245025634765625</LatitudeDegrees>
              <LongitudeDegrees>-0.26882112957537174224853515625</LongitudeDegrees>
            </Position>
            <AltitudeMeters>1227.199951171875</AltitudeMeters>
            <DistanceMeters>451.70700798167</DistanceMeters>
          </Trackpoint>
          <Trackpoint>
            <Time>2021-07-17T08:54:07.000Z</Time>
            <Position>
              <LatitudeDegrees>42.7283759973943233489990234375</LatitudeDegrees>
              <LongitudeDegrees>-0.26881174184381961822509765625</LongitudeDegrees>
            </Position>
            <AltitudeMeters>1227.199951171875</AltitudeMeters>
            <DistanceMeters>452.53543167142</DistanceMeters>
          </Trackpoint>
          <Trackpoint>
            <Time>2021-07-17T08:54:10.000Z</Time>
            <Position>
              <LatitudeDegrees>42.72837750613689422607421875</LatitudeDegrees>
              <LongitudeDegrees>-0.26880872435867786407470703125</LongitudeDegrees>
            </Position>
            <AltitudeMeters>1227.199951171875</AltitudeMeters>
            <DistanceMeters>452.83593252739</DistanceMeters>
          </Trackpoint>
          <Trackpoint>
            <Time>2021-07-17T08:54:14.000Z</Time>
            <Position>
              <LatitudeDegrees>42.7283796854317188262939453125</LatitudeDegrees>
              <LongitudeDegrees>-0.268808640539646148681640625</LongitudeDegrees>
            </Position>
            <AltitudeMeters>1227.199951171875</AltitudeMeters>
            <DistanceMeters>453.06869948953</DistanceMeters>
          </Trackpoint>
          <Trackpoint>
            <Time>2021-07-17T08:55:01.000Z</Time>
            <Position>
              <LatitudeDegrees>42.7284009754657745361328125</LatitudeDegrees>
              <LongitudeDegrees>-0.2688175253570079803466796875</LongitudeDegrees>
            </Position>
            <AltitudeMeters>1227</AltitudeMeters>
            <DistanceMeters>455.54669302905</DistanceMeters>
          </Trackpoint>
          <Trackpoint>
            <Time>2021-07-17T08:55:03.000Z</Time>
            <Position>
              <LatitudeDegrees>42.72839904762804508209228515625</LatitudeDegrees>
              <LongitudeDegrees>-0.2688175253570079803466796875</LongitudeDegrees>
            </Position>
            <AltitudeMeters>1227</AltitudeMeters>
            <DistanceMeters>455.77945999119</DistanceMeters>
          </Trackpoint>
          <Trackpoint>
            <Time>2021-07-17T08:55:06.000Z</Time>
            <Position>
              <LatitudeDegrees>42.7283961139619350433349609375</LatitudeDegrees>
              <LongitudeDegrees>-0.2688175253570079803466796875</LongitudeDegrees>
            </Position>
            <AltitudeMeters>1227</AltitudeMeters>
            <DistanceMeters>456.10864218592</DistanceMeters>
          </Trackpoint>
          <Trackpoint>
            <Time>2021-07-17T08:55:13.000Z</Time>
            <Position>
              <LatitudeDegrees>42.728421427309513092041015625</LatitudeDegrees>
              <LongitudeDegrees>-0.26877083815634250640869140625</LongitudeDegrees>
            </Position>
            <AltitudeMeters>1227.4000244140625</AltitudeMeters>
            <DistanceMeters>460.85141778908</DistanceMeters>
          </Trackpoint>
          <Trackpoint>
            <Time>2021-07-17T08:55:20.000Z</Time>
            <Position>
              <LatitudeDegrees>42.72847834043204784393310546875</LatitudeDegrees>
              <LongitudeDegrees>-0.2686643041670322418212890625</LongitudeDegrees>
            </Position>
            <AltitudeMeters>1228.199951171875</AltitudeMeters>
            <DistanceMeters>471.62134499044</DistanceMeters>
          </Trackpoint>
          <Trackpoint>
            <Time>2021-07-17T08:55:28.000Z</Time>
            <Position>
              <LatitudeDegrees>42.72855763323605060577392578125</LatitudeDegrees>
              <LongitudeDegrees>-0.26857964694499969482421875</LongitudeDegrees>
            </Position>
            <AltitudeMeters>1228.800048828125</AltitudeMeters>
            <DistanceMeters>482.83731552093</DistanceMeters>
          </Trackpoint>
          <Trackpoint>
            <Time>2021-07-17T08:55:31.000Z</Time>
            <Position>
              <LatitudeDegrees>42.7285788394510746002197265625</LatitudeDegrees>
              <LongitudeDegrees>-0.26854217983782291412353515625</LongitudeDegrees>
            </Position>
            <AltitudeMeters>1229.199951171875</AltitudeMeters>
            <DistanceMeters>486.70433072534</DistanceMeters>
          </Trackpoint>
          <Trackpoint>
            <Time>2021-07-17T08:55:33.000Z</Time>
            <Position>
              <LatitudeDegrees>42.72857196629047393798828125</LatitudeDegrees>
              <LongitudeDegrees>-0.26851586066186428070068359375</LongitudeDegrees>
            </Position>
            <AltitudeMeters>1229.5999755859375</AltitudeMeters>
            <DistanceMeters>488.98892788559</DistanceMeters>
          </Trackpoint>
          <Trackpoint>
            <Time>2021-07-17T08:55:34.000Z</Time>
            <Position>
              <LatitudeDegrees>42.7285610698163509368896484375</LatitudeDegrees>
              <LongitudeDegrees>-0.268508903682231903076171875</LongitudeDegrees>
            </Position>
            <AltitudeMeters>1229.800048828125</AltitudeMeters>
            <DistanceMeters>490.33280856809</DistanceMeters>
          </Trackpoint>
          <Trackpoint>
            <Time>2021-07-17T08:55:41.000Z</Time>
            <Position>
              <LatitudeDegrees>42.728470377624034881591796875</LatitudeDegrees>
              <LongitudeDegrees>-0.2684768848121166229248046875</LongitudeDegrees>
            </Position>
            <AltitudeMeters>1230.5999755859375</AltitudeMeters>
            <DistanceMeters>500.7615304788</DistanceMeters>
          </Trackpoint>
          <Trackpoint>
            <Time>2021-07-17T08:55:42.000Z</Time>
            <Position>
              <LatitudeDegrees>42.72845470346510410308837890625</LatitudeDegrees>
              <LongitudeDegrees>-0.26846808381378650665283203125</LongitudeDegrees>
            </Position>
            <AltitudeMeters>1230.4000244140625</AltitudeMeters>
            <DistanceMeters>502.64775690183</DistanceMeters>
          </Trackpoint>
          <Trackpoint>
            <Time>2021-07-17T08:55:45.000Z</Time>
            <Position>
              <LatitudeDegrees>42.7284205891191959381103515625</LatitudeDegrees>
              <LongitudeDegrees>-0.26845651678740978240966796875</LongitudeDegrees>
            </Position>
            <AltitudeMeters>1230.199951171875</AltitudeMeters>
            <DistanceMeters>506.56119652049</DistanceMeters>
          </Trackpoint>
          <Trackpoint>
            <Time>2021-07-17T08:55:50.000Z</Time>
            <Position>
              <LatitudeDegrees>42.72835579700767993927001953125</LatitudeDegrees>
              <LongitudeDegrees>-0.26842541992664337158203125</LongitudeDegrees>
            </Position>
            <AltitudeMeters>1230.4000244140625</AltitudeMeters>
            <DistanceMeters>514.20833814668</DistanceMeters>
          </Trackpoint>
          <Trackpoint>
            <Time>2021-07-17T08:55:54.000Z</Time>
            <Position>
              <LatitudeDegrees>42.7283124625682830810546875</LatitudeDegrees>
              <LongitudeDegrees>-0.26840128004550933837890625</LongitudeDegrees>
            </Position>
            <AltitudeMeters>1230.5999755859375</AltitudeMeters>
            <DistanceMeters>519.41923440999</DistanceMeters>
          </Trackpoint>
          <Trackpoint>
            <Time>2021-07-17T08:55:55.000Z</Time>
            <Position>
              <LatitudeDegrees>42.72830366156995296478271484375</LatitudeDegrees>
              <LongitudeDegrees>-0.268392227590084075927734375</LongitudeDegrees>
            </Position>
            <AltitudeMeters>1230.5999755859375</AltitudeMeters>
            <DistanceMeters>520.64356797961</DistanceMeters>
          </Trackpoint>
          <Trackpoint>
            <Time>2021-07-17T08:55:57.000Z</Time>
            <Position>
              <LatitudeDegrees>42.7282869815826416015625</LatitudeDegrees>
              <LongitudeDegrees>-0.2683719433844089508056640625</LongitudeDegrees>
            </Position>
            <AltitudeMeters>1230.800048828125</AltitudeMeters>
            <DistanceMeters>523.13065510396</DistanceMeters>
          </Trackpoint>
          <Trackpoint>
            <Time>2021-07-17T08:55:58.000Z</Time>
            <Position>
              <LatitudeDegrees>42.7282767556607723236083984375</LatitudeDegrees>
              <LongitudeDegrees>-0.2683638967573642730712890625</LongitudeDegrees>
            </Position>
            <AltitudeMeters>1230.800048828125</AltitudeMeters>
            <DistanceMeters>524.4439504252</DistanceMeters>
          </Trackpoint>
          <Trackpoint>
            <Time>2021-07-17T08:56:01.000Z</Time>
            <Position>
              <LatitudeDegrees>42.72824699990451335906982421875</LatitudeDegrees>
              <LongitudeDegrees>-0.26831871829926967620849609375</LongitudeDegrees>
            </Position>
            <AltitudeMeters>1230.800048828125</AltitudeMeters>
            <DistanceMeters>529.40540065535</DistanceMeters>
          </Trackpoint>
          <Trackpoint>
            <Time>2021-07-17T08:56:05.000Z</Time>
            <Position>
              <LatitudeDegrees>42.72821095772087574005126953125</LatitudeDegrees>
              <LongitudeDegrees>-0.2682866156101226806640625</LongitudeDegrees>
            </Position>
            <AltitudeMeters>1230.5999755859375</AltitudeMeters>
            <DistanceMeters>534.20024941483</DistanceMeters>
          </Trackpoint>
          <Trackpoint>
            <Time>2021-07-17T08:56:08.000Z</Time>
            <Position>
              <LatitudeDegrees>42.7281890809535980224609375</LatitudeDegrees>
              <LongitudeDegrees>-0.268249399960041046142578125</LongitudeDegrees>
            </Position>
            <AltitudeMeters>1230.800048828125</AltitudeMeters>
            <DistanceMeters>538.09750339408</DistanceMeters>
          </Trackpoint>
          <Trackpoint>
            <Time>2021-07-17T08:56:09.000Z</Time>
            <Position>
              <LatitudeDegrees>42.72818036377429962158203125</LatitudeDegrees>
              <LongitudeDegrees>-0.26823774911463260650634765625</LongitudeDegrees>
            </Position>
            <AltitudeMeters>1231</AltitudeMeters>
            <DistanceMeters>539.45807888666</DistanceMeters>
          </Trackpoint>
          <Trackpoint>
            <Time>2021-07-17T08:56:14.000Z</Time>
            <Position>
              <LatitudeDegrees>42.72814306430518627166748046875</LatitudeDegrees>
              <LongitudeDegrees>-0.268176980316638946533203125</LongitudeDegrees>
            </Position>
            <AltitudeMeters>1231.5999755859375</AltitudeMeters>
            <DistanceMeters>545.9331576452</DistanceMeters>
          </Trackpoint>
          <Trackpoint>
            <Time>2021-07-17T08:56:17.000Z</Time>
            <Position>
              <LatitudeDegrees>42.72812562994658946990966796875</LatitudeDegrees>
              <LongitudeDegrees>-0.26813850738108158111572265625</LongitudeDegrees>
            </Position>
            <AltitudeMeters>1232</AltitudeMeters>
            <DistanceMeters>549.62944032645</DistanceMeters>
          </Trackpoint>
          <Trackpoint>
            <Time>2021-07-17T08:56:21.000Z</Time>
            <Position>
              <LatitudeDegrees>42.72812026552855968475341796875</LatitudeDegrees>
              <LongitudeDegrees>-0.2680785767734050750732421875</LongitudeDegrees>
            </Position>
            <AltitudeMeters>1232.800048828125</AltitudeMeters>
            <DistanceMeters>554.56534411864</DistanceMeters>
          </Trackpoint>
          <Trackpoint>
            <Time>2021-07-17T08:56:26.000Z</Time>
            <Position>
              <LatitudeDegrees>42.7281327545642852783203125</LatitudeDegrees>
              <LongitudeDegrees>-0.26798763312399387359619140625</LongitudeDegrees>
            </Position>
            <AltitudeMeters>1234.199951171875</AltitudeMeters>
            <DistanceMeters>562.12937507765</DistanceMeters>
          </Trackpoint>
          <Trackpoint>
            <Time>2021-07-17T08:56:30.000Z</Time>
            <Position>
              <LatitudeDegrees>42.7281354367733001708984375</LatitudeDegrees>
              <LongitudeDegrees>-0.26791445910930633544921875</LongitudeDegrees>
            </Position>
            <AltitudeMeters>1235.4000244140625</AltitudeMeters>
            <DistanceMeters>568.11982779746</DistanceMeters>
          </Trackpoint>
          <Trackpoint>
            <Time>2021-07-17T08:56:37.000Z</Time>
            <Position>
              <LatitudeDegrees>42.7280859835445880889892578125</LatitudeDegrees>
              <LongitudeDegrees>-0.2678080089390277862548828125</LongitudeDegrees>
            </Position>
            <AltitudeMeters>1236</AltitudeMeters>
            <DistanceMeters>578.41784788667</DistanceMeters>
          </Trackpoint>
          <Trackpoint>
            <Time>2021-07-17T08:56:40.000Z</Time>
            <Position>
              <LatitudeDegrees>42.72805295884609222412109375</LatitudeDegrees>
              <LongitudeDegrees>-0.2677788399159908294677734375</LongitudeDegrees>
            </Position>
            <AltitudeMeters>1235.800048828125</AltitudeMeters>
            <DistanceMeters>582.7993935637</DistanceMeters>
          </Trackpoint>
          <Trackpoint>
            <Time>2021-07-17T08:56:43.000Z</Time>
            <Position>
              <LatitudeDegrees>42.7280343510210514068603515625</LatitudeDegrees>
              <LongitudeDegrees>-0.267747826874256134033203125</LongitudeDegrees>
            </Position>
            <AltitudeMeters>1235.800048828125</AltitudeMeters>
            <DistanceMeters>586.07333625394</DistanceMeters>
          </Trackpoint>
          <Trackpoint>
            <Time>2021-07-17T08:56:48.000Z</Time>
            <Position>
              <LatitudeDegrees>42.727968133985996246337890625</LatitudeDegrees>
              <LongitudeDegrees>-0.267692506313323974609375</LongitudeDegrees>
            </Position>
            <AltitudeMeters>1235.4000244140625</AltitudeMeters>
            <DistanceMeters>594.72024512104</DistanceMeters>
          </Trackpoint>
          <Trackpoint>
            <Time>2021-07-17T08:56:49.000Z</Time>
            <Position>
              <LatitudeDegrees>42.72796100936830043792724609375</LatitudeDegrees>
              <LongitudeDegrees>-0.26767616160213947296142578125</LongitudeDegrees>
            </Position>
            <AltitudeMeters>1235.800048828125</AltitudeMeters>
            <DistanceMeters>596.27008393011</DistanceMeters>
          </Trackpoint>
          <Trackpoint>
            <Time>2021-07-17T08:56:54.000Z</Time>
            <Position>
              <LatitudeDegrees>42.727928571403026580810546875</LatitudeDegrees>
              <LongitudeDegrees>-0.26760726235806941986083984375</LongitudeDegrees>
            </Position>
            <AltitudeMeters>1237</AltitudeMeters>
            <DistanceMeters>602.9612063329</DistanceMeters>
          </Trackpoint>
          <Trackpoint>
            <Time>2021-07-17T08:56:55.000Z</Time>
            <Position>
              <LatitudeDegrees>42.7279213629662990570068359375</LatitudeDegrees>
              <LongitudeDegrees>-0.2675914205610752105712890625</LongitudeDegrees>
            </Position>
            <AltitudeMeters>1237</AltitudeMeters>
            <DistanceMeters>604.48756137762</DistanceMeters>
          </Trackpoint>
          <Trackpoint>
            <Time>2021-07-17T08:56:56.000Z</Time>
            <Position>
              <LatitudeDegrees>42.72791541181504726409912109375</LatitudeDegrees>
              <LongitudeDegrees>-0.2675800211727619171142578125</LongitudeDegrees>
            </Position>
            <AltitudeMeters>1236.800048828125</AltitudeMeters>
            <DistanceMeters>605.63183454622</DistanceMeters>
          </Trackpoint>
          <Trackpoint>
            <Time>2021-07-17T08:56:57.000Z</Time>
            <Position>
              <LatitudeDegrees>42.7279072813689708709716796875</LatitudeDegrees>
              <LongitudeDegrees>-0.2675753273069858551025390625</LongitudeDegrees>
            </Position>
            <AltitudeMeters>1236.5999755859375</AltitudeMeters>
            <DistanceMeters>606.61479852292</DistanceMeters>
          </Trackpoint>
          <Trackpoint>
            <Time>2021-07-17T08:57:00.000Z</Time>
            <Position>
              <LatitudeDegrees>42.72790267132222652435302734375</LatitudeDegrees>
              <LongitudeDegrees>-0.2675344236195087432861328125</LongitudeDegrees>
            </Position>
            <AltitudeMeters>1237</AltitudeMeters>
            <DistanceMeters>609.99726904822</DistanceMeters>
          </Trackpoint>
          <Trackpoint>
            <Time>2021-07-17T08:57:04.000Z</Time>
            <Position>
              <LatitudeDegrees>42.72790065966546535491943359375</LatitudeDegrees>
              <LongitudeDegrees>-0.26747725903987884521484375</LongitudeDegrees>
            </Position>
            <AltitudeMeters>1237.800048828125</AltitudeMeters>
            <DistanceMeters>614.67679203423</DistanceMeters>
          </Trackpoint>
          <Trackpoint>
            <Time>2021-07-17T08:57:07.000Z</Time>
            <Position>
              <LatitudeDegrees>42.7278677187860012054443359375</LatitudeDegrees>
              <LongitudeDegrees>-0.267463512718677520751953125</LongitudeDegrees>
            </Position>
            <AltitudeMeters>1236.5999755859375</AltitudeMeters>
            <DistanceMeters>618.51333013565</DistanceMeters>
          </Trackpoint>
          <Trackpoint>
            <Time>2021-07-17T08:57:08.000Z</Time>
            <Position>
              <LatitudeDegrees>42.72785623557865619659423828125</LatitudeDegrees>
              <LongitudeDegrees>-0.26745689101517200469970703125</LongitudeDegrees>
            </Position>
            <AltitudeMeters>1236.199951171875</AltitudeMeters>
            <DistanceMeters>619.90345112283</DistanceMeters>
          </Trackpoint>
          <Trackpoint>
            <Time>2021-07-17T08:57:14.000Z</Time>
            <Position>
              <LatitudeDegrees>42.72783796302974224090576171875</LatitudeDegrees>
              <LongitudeDegrees>-0.2673915959894657135009765625</LongitudeDegrees>
            </Position>
            <AltitudeMeters>1237.4000244140625</AltitudeMeters>
            <DistanceMeters>625.61612967745</DistanceMeters>
          </Trackpoint>
          <Trackpoint>
            <Time>2021-07-17T08:57:16.000Z</Time>
            <Position>
              <LatitudeDegrees>42.7278415672481060028076171875</LatitudeDegrees>
              <LongitudeDegrees>-0.26736418716609477996826171875</LongitudeDegrees>
            </Position>
            <AltitudeMeters>1238.4000244140625</AltitudeMeters>
            <DistanceMeters>627.8928079329</DistanceMeters>
          </Trackpoint>
          <Trackpoint>
            <Time>2021-07-17T08:57:17.000Z</Time>
            <Position>
              <LatitudeDegrees>42.72784374654293060302734375</LatitudeDegrees>
              <LongitudeDegrees>-0.26734650135040283203125</LongitudeDegrees>
            </Position>
            <AltitudeMeters>1239</AltitudeMeters>
            <DistanceMeters>629.35880868108</DistanceMeters>
          </Trackpoint>
          <Trackpoint>
            <Time>2021-07-17T08:57:20.000Z</Time>
            <Position>
              <LatitudeDegrees>42.7278244681656360626220703125</LatitudeDegrees>
              <LongitudeDegrees>-0.2673077769577503204345703125</LongitudeDegrees>
            </Position>
            <AltitudeMeters>1239.800048828125</AltitudeMeters>
            <DistanceMeters>633.18356015525</DistanceMeters>
          </Trackpoint>
          <Trackpoint>
            <Time>2021-07-17T08:57:30.000Z</Time>
            <Position>
              <LatitudeDegrees>42.72777375765144824981689453125</LatitudeDegrees>
              <LongitudeDegrees>-0.267177186906337738037109375</LongitudeDegrees>
            </Position>
            <AltitudeMeters>1242.4000244140625</AltitudeMeters>
            <DistanceMeters>645.26130228181</DistanceMeters>
          </Trackpoint>
          <Trackpoint>
            <Time>2021-07-17T08:57:38.000Z</Time>
            <Position>
              <LatitudeDegrees>42.727721035480499267578125</LatitudeDegrees>
              <LongitudeDegrees>-0.26708674617111682891845703125</LongitudeDegrees>
            </Position>
            <AltitudeMeters>1244.5999755859375</AltitudeMeters>
            <DistanceMeters>654.70104774178</DistanceMeters>
          </Trackpoint>
          <Trackpoint>
            <Time>2021-07-17T08:57:43.000Z</Time>
            <Position>
              <LatitudeDegrees>42.72769220173358917236328125</LatitudeDegrees>
              <LongitudeDegrees>-0.26704064570367336273193359375</LongitudeDegrees>
            </Position>
            <AltitudeMeters>1246</AltitudeMeters>
            <DistanceMeters>659.65156564084</DistanceMeters>
          </Trackpoint>
          <Trackpoint>
            <Time>2021-07-17T08:57:46.000Z</Time>
            <Position>
              <LatitudeDegrees>42.7276647090911865234375</LatitudeDegrees>
              <LongitudeDegrees>-0.26702237315475940704345703125</LongitudeDegrees>
            </Position>
            <AltitudeMeters>1245.4000244140625</AltitudeMeters>
            <DistanceMeters>663.05665274017</DistanceMeters>
          </Trackpoint>
          <Trackpoint>
            <Time>2021-07-17T08:57:47.000Z</Time>
            <Position>
              <LatitudeDegrees>42.72765590809285640716552734375</LatitudeDegrees>
              <LongitudeDegrees>-0.267010889947414398193359375</LongitudeDegrees>
            </Position>
            <AltitudeMeters>1245.199951171875</AltitudeMeters>
            <DistanceMeters>664.41722823275</DistanceMeters>
          </Trackpoint>
          <Trackpoint>
            <Time>2021-07-17T08:57:53.000Z</Time>
            <Position>
              <LatitudeDegrees>42.72759740240871906280517578125</LatitudeDegrees>
              <LongitudeDegrees>-0.2669696509838104248046875</LongitudeDegrees>
            </Position>
            <AltitudeMeters>1243.199951171875</AltitudeMeters>
            <DistanceMeters>671.75092684261</DistanceMeters>
          </Trackpoint>
          <Trackpoint>
            <Time>2021-07-17T08:57:57.000Z</Time>
            <Position>
              <LatitudeDegrees>42.727564461529254913330078125</LatitudeDegrees>
              <LongitudeDegrees>-0.2669372968375682830810546875</LongitudeDegrees>
            </Position>
            <AltitudeMeters>1242.4000244140625</AltitudeMeters>
            <DistanceMeters>676.27244130892</DistanceMeters>
          </Trackpoint>
          <Trackpoint>
            <Time>2021-07-17T08:58:07.000Z</Time>
            <Position>
              <LatitudeDegrees>42.72747586481273174285888671875</LatitudeDegrees>
              <LongitudeDegrees>-0.26682171039283275604248046875</LongitudeDegrees>
            </Position>
            <AltitudeMeters>1246.4000244140625</AltitudeMeters>
            <DistanceMeters>689.93118866482</DistanceMeters>
          </Trackpoint>
          <Trackpoint>
            <Time>2021-07-17T08:58:16.000Z</Time>
            <Position>
              <LatitudeDegrees>42.727410905063152313232421875</LatitudeDegrees>
              <LongitudeDegrees>-0.26672867126762866973876953125</LongitudeDegrees>
            </Position>
            <AltitudeMeters>1251</AltitudeMeters>
            <DistanceMeters>700.4255115258</DistanceMeters>
          </Trackpoint>
          <Trackpoint>
            <Time>2021-07-17T08:58:21.000Z</Time>
            <Position>
              <LatitudeDegrees>42.72738835774362087249755859375</LatitudeDegrees>
              <LongitudeDegrees>-0.26667368598282337188720703125</LongitudeDegrees>
            </Position>
            <AltitudeMeters>1251</AltitudeMeters>
            <DistanceMeters>705.57364462072</DistanceMeters>
          </Trackpoint>
          <Trackpoint>
            <Time>2021-07-17T08:58:24.000Z</Time>
            <Position>
              <LatitudeDegrees>42.727369330823421478271484375</LatitudeDegrees>
              <LongitudeDegrees>-0.26664267294108867645263671875</LongitudeDegrees>
            </Position>
            <AltitudeMeters>1250.5999755859375</AltitudeMeters>
            <DistanceMeters>708.87642108065</DistanceMeters>
          </Trackpoint>
          <Trackpoint>
            <Time>2021-07-17T08:58:34.000Z</Time>
            <Position>
              <LatitudeDegrees>42.72729481570422649383544921875</LatitudeDegrees>
              <LongitudeDegrees>-0.2665282599627971649169921875</LongitudeDegrees>
            </Position>
            <AltitudeMeters>1250.4000244140625</AltitudeMeters>
            <DistanceMeters>721.37812348841</DistanceMeters>
          </Trackpoint>
          <Trackpoint>
            <Time>2021-07-17T08:58:44.000Z</Time>
            <Position>
              <LatitudeDegrees>42.7272115834057331085205078125</LatitudeDegrees>
              <LongitudeDegrees>-0.2664280124008655548095703125</LongitudeDegrees>
            </Position>
            <AltitudeMeters>1253</AltitudeMeters>
            <DistanceMeters>733.74766734687</DistanceMeters>
          </Trackpoint>
          <Trackpoint>
            <Time>2021-07-17T08:58:53.000Z</Time>
            <Position>
              <LatitudeDegrees>42.7271284349262714385986328125</LatitudeDegrees>
              <LongitudeDegrees>-0.2663312852382659912109375</LongitudeDegrees>
            </Position>
            <AltitudeMeters>1254.5999755859375</AltitudeMeters>
            <DistanceMeters>745.92110500933</DistanceMeters>
          </Trackpoint>
          <Trackpoint>
            <Time>2021-07-17T08:59:01.000Z</Time>
            <Position>
              <LatitudeDegrees>42.72706012241542339324951171875</LatitudeDegrees>
              <LongitudeDegrees>-0.26627068407833576202392578125</LongitudeDegrees>
            </Position>
            <AltitudeMeters>1256.5999755859375</AltitudeMeters>
            <DistanceMeters>754.99603185029</DistanceMeters>
          </Trackpoint>
          <Trackpoint>
            <Time>2021-07-17T08:59:09.000Z</Time>
            <Position>
              <LatitudeDegrees>42.72700178436934947967529296875</LatitudeDegrees>
              <LongitudeDegrees>-0.26618116535246372222900390625</LongitudeDegrees>
            </Position>
            <AltitudeMeters>1258.5999755859375</AltitudeMeters>
            <DistanceMeters>764.78055383447</DistanceMeters>
          </Trackpoint>
          <Trackpoint>
            <Time>2021-07-17T08:59:18.000Z</Time>
            <Position>
              <LatitudeDegrees>42.72694495506584644317626953125</LatitudeDegrees>
              <LongitudeDegrees>-0.2660845220088958740234375</LongitudeDegrees>
            </Position>
            <AltitudeMeters>1261.800048828125</AltitudeMeters>
            <DistanceMeters>774.90167962068</DistanceMeters>
          </Trackpoint>
          <Trackpoint>
            <Time>2021-07-17T08:59:27.000Z</Time>
            <Position>
              <LatitudeDegrees>42.726873457431793212890625</LatitudeDegrees>
              <LongitudeDegrees>-0.26598016731441020965576171875</LongitudeDegrees>
            </Position>
            <AltitudeMeters>1262.4000244140625</AltitudeMeters>
            <DistanceMeters>786.56908731873</DistanceMeters>
          </Trackpoint>
          <Trackpoint>
            <Time>2021-07-17T08:59:28.000Z</Time>
            <Position>
              <LatitudeDegrees>42.72687002085149288177490234375</LatitudeDegrees>
              <LongitudeDegrees>-0.2659686841070652008056640625</LongitudeDegrees>
            </Position>
            <AltitudeMeters>1262.5999755859375</AltitudeMeters>
            <DistanceMeters>787.58369498409</DistanceMeters>
          </Trackpoint>
          <Trackpoint>
            <Time>2021-07-17T08:59:30.000Z</Time>
            <Position>
              <LatitudeDegrees>42.7268568612635135650634765625</LatitudeDegrees>
              <LongitudeDegrees>-0.2659557759761810302734375</LongitudeDegrees>
            </Position>
            <AltitudeMeters>1262.4000244140625</AltitudeMeters>
            <DistanceMeters>789.39170153074</DistanceMeters>
          </Trackpoint>
          <Trackpoint>
            <Time>2021-07-17T08:59:33.000Z</Time>
            <Position>
              <LatitudeDegrees>42.7268407680094242095947265625</LatitudeDegrees>
              <LongitudeDegrees>-0.26593054644763469696044921875</LongitudeDegrees>
            </Position>
            <AltitudeMeters>1262.4000244140625</AltitudeMeters>
            <DistanceMeters>792.1227898015</DistanceMeters>
          </Trackpoint>
          <Trackpoint>
            <Time>2021-07-17T08:59:37.000Z</Time>
            <Position>
              <LatitudeDegrees>42.72679575718939304351806640625</LatitudeDegrees>
              <LongitudeDegrees>-0.26590305380523204803466796875</LongitudeDegrees>
            </Position>
            <AltitudeMeters>1262.4000244140625</AltitudeMeters>
            <DistanceMeters>797.61464334314</DistanceMeters>
          </Trackpoint>
          <Trackpoint>
            <Time>2021-07-17T08:59:40.000Z</Time>
            <Position>
              <LatitudeDegrees>42.726761139929294586181640625</LatitudeDegrees>
              <LongitudeDegrees>-0.265874303877353668212890625</LongitudeDegrees>
            </Position>
            <AltitudeMeters>1262.5999755859375</AltitudeMeters>
            <DistanceMeters>802.12816219849</DistanceMeters>
          </Trackpoint>
          <Trackpoint>
            <Time>2021-07-17T08:59:47.000Z</Time>
            <Position>
              <LatitudeDegrees>42.7266962639987468719482421875</LatitudeDegrees>
              <LongitudeDegrees>-0.26583784259855747222900390625</LongitudeDegrees>
            </Position>
            <AltitudeMeters>1263</AltitudeMeters>
            <DistanceMeters>809.94002859572</DistanceMeters>
          </Trackpoint>
          <Trackpoint>
            <Time>2021-07-17T08:59:55.000Z</Time>
            <Position>
              <LatitudeDegrees>42.72659710608422756195068359375</LatitudeDegrees>
              <LongitudeDegrees>-0.26581118814647197723388671875</LongitudeDegrees>
            </Position>
            <AltitudeMeters>1263.4000244140625</AltitudeMeters>
            <DistanceMeters>821.18976287534</DistanceMeters>
          </Trackpoint>
          <Trackpoint>
            <Time>2021-07-17T08:59:58.000Z</Time>
            <Position>
              <LatitudeDegrees>42.7265624888241291046142578125</LatitudeDegrees>
              <LongitudeDegrees>-0.26581772603094577789306640625</LongitudeDegrees>
            </Position>
            <AltitudeMeters>1262.800048828125</AltitudeMeters>
            <DistanceMeters>825.08005953756</DistanceMeters>
          </Trackpoint>
          <Trackpoint>
            <Time>2021-07-17T09:00:02.000Z</Time>
            <Position>
              <LatitudeDegrees>42.726533822715282440185546875</LatitudeDegrees>
              <LongitudeDegrees>-0.26580431498587131500244140625</LongitudeDegrees>
            </Position>
            <AltitudeMeters>1263.199951171875</AltitudeMeters>
            <DistanceMeters>828.45317327999</DistanceMeters>
          </Trackpoint>
          <Trackpoint>
            <Time>2021-07-17T09:00:06.000Z</Time>
            <Position>
              <LatitudeDegrees>42.726499624550342559814453125</LatitudeDegrees>
              <LongitudeDegrees>-0.2657943405210971832275390625</LongitudeDegrees>
            </Position>
            <AltitudeMeters>1263.4000244140625</AltitudeMeters>
            <DistanceMeters>832.34579042954</DistanceMeters>
          </Trackpoint>
          <Trackpoint>
            <Time>2021-07-17T09:00:09.000Z</Time>
            <Position>
              <LatitudeDegrees>42.726471461355686187744140625</LatitudeDegrees>
              <LongitudeDegrees>-0.26577833108603954315185546875</LongitudeDegrees>
            </Position>
            <AltitudeMeters>1263.800048828125</AltitudeMeters>
            <DistanceMeters>835.74291240194</DistanceMeters>
          </Trackpoint>
          <Trackpoint>
            <Time>2021-07-17T09:00:12.000Z</Time>
            <Position>
              <LatitudeDegrees>42.72643717937171459197998046875</LatitudeDegrees>
              <LongitudeDegrees>-0.2657675184309482574462890625</LongitudeDegrees>
            </Position>
            <AltitudeMeters>1264</AltitudeMeters>
            <DistanceMeters>839.65865879335</DistanceMeters>
          </Trackpoint>
          <Trackpoint>
            <Time>2021-07-17T09:00:17.000Z</Time>
            <Position>
              <LatitudeDegrees>42.726390995085239410400390625</LatitudeDegrees>
              <LongitudeDegrees>-0.26573759503662586212158203125</LongitudeDegrees>
            </Position>
            <AltitudeMeters>1264.800048828125</AltitudeMeters>
            <DistanceMeters>845.3523372558</DistanceMeters>
          </Trackpoint>
          <Trackpoint>
            <Time>2021-07-17T09:00:26.000Z</Time>
            <Position>
              <LatitudeDegrees>42.72631245665252208709716796875</LatitudeDegrees>
              <LongitudeDegrees>-0.26569618843495845794677734375</LongitudeDegrees>
            </Position>
            <AltitudeMeters>1265.800048828125</AltitudeMeters>
            <DistanceMeters>854.72680811834</DistanceMeters>
          </Trackpoint>
          <Trackpoint>
            <Time>2021-07-17T09:00:33.000Z</Time>
            <Position>
              <LatitudeDegrees>42.72624171338975429534912109375</LatitudeDegrees>
              <LongitudeDegrees>-0.26566836051642894744873046875</LongitudeDegrees>
            </Position>
            <AltitudeMeters>1266.4000244140625</AltitudeMeters>
            <DistanceMeters>862.92337866602</DistanceMeters>
          </Trackpoint>
          <Trackpoint>
            <Time>2021-07-17T09:00:34.000Z</Time>
            <Position>
              <LatitudeDegrees>42.726229391992092132568359375</LatitudeDegrees>
              <LongitudeDegrees>-0.265664756298065185546875</LongitudeDegrees>
            </Position>
            <AltitudeMeters>1266.4000244140625</AltitudeMeters>
            <DistanceMeters>864.33285261671</DistanceMeters>
          </Trackpoint>
          <Trackpoint>
            <Time>2021-07-17T09:00:39.000Z</Time>
            <Position>
              <LatitudeDegrees>42.7261779271066188812255859375</LatitudeDegrees>
              <LongitudeDegrees>-0.2656334079802036285400390625</LongitudeDegrees>
            </Position>
            <AltitudeMeters>1266.800048828125</AltitudeMeters>
            <DistanceMeters>870.60821422956</DistanceMeters>
          </Trackpoint>
          <Trackpoint>
            <Time>2021-07-17T09:00:45.000Z</Time>
            <Position>
              <LatitudeDegrees>42.7261239476501941680908203125</LatitudeDegrees>
              <LongitudeDegrees>-0.26560247875750064849853515625</LongitudeDegrees>
            </Position>
            <AltitudeMeters>1267.4000244140625</AltitudeMeters>
            <DistanceMeters>877.12568916947</DistanceMeters>
          </Trackpoint>
          <Trackpoint>
            <Time>2021-07-17T09:00:47.000Z</Time>
            <Position>
              <LatitudeDegrees>42.7260964550077915191650390625</LatitudeDegrees>
              <LongitudeDegrees>-0.26558906771242618560791015625</LongitudeDegrees>
            </Position>
            <AltitudeMeters>1267.5999755859375</AltitudeMeters>
            <DistanceMeters>880.37610290305</DistanceMeters>
          </Trackpoint>
          <Trackpoint>
            <Time>2021-07-17T09:00:56.000Z</Time>
            <Position>
              <LatitudeDegrees>42.72602864541113376617431640625</LatitudeDegrees>
              <LongitudeDegrees>-0.26549753732979297637939453125</LongitudeDegrees>
            </Position>
            <AltitudeMeters>1269.5999755859375</AltitudeMeters>
            <DistanceMeters>891.00466142779</DistanceMeters>
          </Trackpoint>
          <Trackpoint>
            <Time>2021-07-17T09:01:00.000Z</Time>
            <Position>
              <LatitudeDegrees>42.726000733673572540283203125</LatitudeDegrees>
              <LongitudeDegrees>-0.26544774882495403289794921875</LongitudeDegrees>
            </Position>
            <AltitudeMeters>1271.199951171875</AltitudeMeters>
            <DistanceMeters>896.12553459487</DistanceMeters>
          </Trackpoint>
          <Trackpoint>
            <Time>2021-07-17T09:01:02.000Z</Time>
            <Position>
              <LatitudeDegrees>42.72599880583584308624267578125</LatitudeDegrees>
              <LongitudeDegrees>-0.2654208429157733917236328125</LongitudeDegrees>
            </Position>
            <AltitudeMeters>1272.199951171875</AltitudeMeters>
            <DistanceMeters>898.33375588806</DistanceMeters>
          </Trackpoint>
          <Trackpoint>
            <Time>2021-07-17T09:01:04.000Z</Time>
            <Position>
              <LatitudeDegrees>42.725997380912303924560546875</LatitudeDegrees>
              <LongitudeDegrees>-0.26539041660726070404052734375</LongitudeDegrees>
            </Position>
            <AltitudeMeters>1273.4000244140625</AltitudeMeters>
            <DistanceMeters>900.82628323865</DistanceMeters>
          </Trackpoint>
          <Trackpoint>
            <Time>2021-07-17T09:01:05.000Z</Time>
            <Position>
              <LatitudeDegrees>42.7260012365877628326416015625</LatitudeDegrees>
              <LongitudeDegrees>-0.26537901721894741058349609375</LongitudeDegrees>
            </Position>
            <AltitudeMeters>1274</AltitudeMeters>
            <DistanceMeters>901.85415431225</DistanceMeters>
          </Trackpoint>
          <Trackpoint>
            <Time>2021-07-17T09:01:09.000Z</Time>
            <Position>
              <LatitudeDegrees>42.72603115998208522796630859375</LatitudeDegrees>
              <LongitudeDegrees>-0.2653356827795505523681640625</LongitudeDegrees>
            </Position>
            <AltitudeMeters>1276</AltitudeMeters>
            <DistanceMeters>906.71632873634</DistanceMeters>
          </Trackpoint>
          <Trackpoint>
            <Time>2021-07-17T09:01:13.000Z</Time>
            <Position>
              <LatitudeDegrees>42.72607038728892803192138671875</LatitudeDegrees>
              <LongitudeDegrees>-0.26532369665801525115966796875</LongitudeDegrees>
            </Position>
            <AltitudeMeters>1277.199951171875</AltitudeMeters>
            <DistanceMeters>911.19167336583</DistanceMeters>
          </Trackpoint>
          <Trackpoint>
            <Time>2021-07-17T09:01:15.000Z</Time>
            <Position>
              <LatitudeDegrees>42.72608949802815914154052734375</LatitudeDegrees>
              <LongitudeDegrees>-0.2653276361525058746337890625</LongitudeDegrees>
            </Position>
            <AltitudeMeters>1277.199951171875</AltitudeMeters>
            <DistanceMeters>913.34188245783</DistanceMeters>
          </Trackpoint>
          <Trackpoint>
            <Time>2021-07-17T09:01:21.000Z</Time>
            <Position>
              <LatitudeDegrees>42.7261390350759029388427734375</LatitudeDegrees>
              <LongitudeDegrees>-0.265359319746494293212890625</LongitudeDegrees>
            </Position>
            <AltitudeMeters>1276.5999755859375</AltitudeMeters>
            <DistanceMeters>919.43323568254</DistanceMeters>
          </Trackpoint>
          <Trackpoint>
            <Time>2021-07-17T09:01:22.000Z</Time>
            <Position>
              <LatitudeDegrees>42.7261474169790744781494140625</LatitudeDegrees>
              <LongitudeDegrees>-0.26536770164966583251953125</LongitudeDegrees>
            </Position>
            <AltitudeMeters>1276.4000244140625</AltitudeMeters>
            <DistanceMeters>920.58928555763</DistanceMeters>
          </Trackpoint>
          <Trackpoint>
            <Time>2021-07-17T09:01:31.000Z</Time>
            <Position>
              <LatitudeDegrees>42.72624380886554718017578125</LatitudeDegrees>
              <LongitudeDegrees>-0.26540198363363742828369140625</LongitudeDegrees>
            </Position>
            <AltitudeMeters>1276.5999755859375</AltitudeMeters>
            <DistanceMeters>931.67772642463</DistanceMeters>
          </Trackpoint>
          <Trackpoint>
            <Time>2021-07-17T09:01:38.000Z</Time>
            <Position>
              <LatitudeDegrees>42.7262878976762294769287109375</LatitudeDegrees>
              <LongitudeDegrees>-0.26547088287770748138427734375</LongitudeDegrees>
            </Position>
            <AltitudeMeters>1274</AltitudeMeters>
            <DistanceMeters>939.14805924343</DistanceMeters>
          </Trackpoint>
          <Trackpoint>
            <Time>2021-07-17T09:01:41.000Z</Time>
            <Position>
              <LatitudeDegrees>42.7263432182371616363525390625</LatitudeDegrees>
              <LongitudeDegrees>-0.2654667757451534271240234375</LongitudeDegrees>
            </Position>
            <AltitudeMeters>1274.800048828125</AltitudeMeters>
            <DistanceMeters>945.31382130737</DistanceMeters>
          </Trackpoint>
          <Trackpoint>
            <Time>2021-07-17T09:01:49.000Z</Time>
            <Position>
              <LatitudeDegrees>42.72642779164016246795654296875</LatitudeDegrees>
              <LongitudeDegrees>-0.26548563502728939056396484375</LongitudeDegrees>
            </Position>
            <AltitudeMeters>1275</AltitudeMeters>
            <DistanceMeters>954.85253454602</DistanceMeters>
          </Trackpoint>
          <Trackpoint>
            <Time>2021-07-17T09:01:53.000Z</Time>
            <Position>
              <LatitudeDegrees>42.72646911442279815673828125</LatitudeDegrees>
              <LongitudeDegrees>-0.26547507382929325103759765625</LongitudeDegrees>
            </Position>
            <AltitudeMeters>1276.199951171875</AltitudeMeters>
            <DistanceMeters>959.53302228268</DistanceMeters>
          </Trackpoint>
          <Trackpoint>
            <Time>2021-07-17T09:01:57.000Z</Time>
            <Position>
              <LatitudeDegrees>42.72650775499641895294189453125</LatitudeDegrees>
              <LongitudeDegrees>-0.2654164843261241912841796875</LongitudeDegrees>
            </Position>
            <AltitudeMeters>1279.800048828125</AltitudeMeters>
            <DistanceMeters>965.97103834959</DistanceMeters>
          </Trackpoint>
          <Trackpoint>
            <Time>2021-07-17T09:02:05.000Z</Time>
            <Position>
              <LatitudeDegrees>42.7264907397329807281494140625</LatitudeDegrees>
              <LongitudeDegrees>-0.26531011797487735748291015625</LongitudeDegrees>
            </Position>
            <AltitudeMeters>1284</AltitudeMeters>
            <DistanceMeters>974.87164847715</DistanceMeters>
          </Trackpoint>
          <Trackpoint>
            <Time>2021-07-17T09:02:07.000Z</Time>
            <Position>
              <LatitudeDegrees>42.7264820225536823272705078125</LatitudeDegrees>
              <LongitudeDegrees>-0.2652919292449951171875</LongitudeDegrees>
            </Position>
            <AltitudeMeters>1284.4000244140625</AltitudeMeters>
            <DistanceMeters>976.64434884735</DistanceMeters>
          </Trackpoint>
          <Trackpoint>
            <Time>2021-07-17T09:02:11.000Z</Time>
            <Position>
              <LatitudeDegrees>42.72644220851361751556396484375</LatitudeDegrees>
              <LongitudeDegrees>-0.26525907218456268310546875</LongitudeDegrees>
            </Position>
            <AltitudeMeters>1284.800048828125</AltitudeMeters>
            <DistanceMeters>981.82657301698</DistanceMeters>
          </Trackpoint>
          <Trackpoint>
            <Time>2021-07-17T09:02:19.000Z</Time>
            <Position>
              <LatitudeDegrees>42.72636190988123416900634765625</LatitudeDegrees>
              <LongitudeDegrees>-0.26521146297454833984375</LongitudeDegrees>
            </Position>
            <AltitudeMeters>1285.800048828125</AltitudeMeters>
            <DistanceMeters>991.57503569046</DistanceMeters>
          </Trackpoint>
          <Trackpoint>
            <Time>2021-07-17T09:02:21.000Z</Time>
            <Position>
              <LatitudeDegrees>42.72634346969425678253173828125</LatitudeDegrees>
              <LongitudeDegrees>-0.2652005665004253387451171875</LongitudeDegrees>
            </Position>
            <AltitudeMeters>1286</AltitudeMeters>
            <DistanceMeters>993.81371664727</DistanceMeters>
          </Trackpoint>
          <Trackpoint>
            <Time>2021-07-17T09:02:27.000Z</Time>
            <Position>
              <LatitudeDegrees>42.72629267536103725433349609375</LatitudeDegrees>
              <LongitudeDegrees>-0.26517299003899097442626953125</LongitudeDegrees>
            </Position>
            <AltitudeMeters>1286.4000244140625</AltitudeMeters>
            <DistanceMeters>999.90062092199</DistanceMeters>
          </Trackpoint>
          <Trackpoint>
            <Time>2021-07-17T09:02:36.000Z</Time>
            <Position>
              <LatitudeDegrees>42.72620298899710178375244140625</LatitudeDegrees>
              <LongitudeDegrees>-0.26512588374316692352294921875</LongitudeDegrees>
            </Position>
            <AltitudeMeters>1286.5999755859375</AltitudeMeters>
            <DistanceMeters>1010.6003082612</DistanceMeters>
          </Trackpoint>
          <Trackpoint>
            <Time>2021-07-17T09:02:38.000Z</Time>
            <Position>
              <LatitudeDegrees>42.7261846326291561126708984375</LatitudeDegrees>
              <LongitudeDegrees>-0.26510107330977916717529296875</LongitudeDegrees>
            </Position>
            <AltitudeMeters>1286.800048828125</AltitudeMeters>
            <DistanceMeters>1013.4794765743</DistanceMeters>
          </Trackpoint>
          <Trackpoint>
            <Time>2021-07-17T09:02:44.000Z</Time>
            <Position>
              <LatitudeDegrees>42.726124785840511322021484375</LatitudeDegrees>
              <LongitudeDegrees>-0.26509973220527172088623046875</LongitudeDegrees>
            </Position>
            <AltitudeMeters>1286</AltitudeMeters>
            <DistanceMeters>1020.1415202339</DistanceMeters>
          </Trackpoint>
          <Trackpoint>
            <Time>2021-07-17T09:02:51.000Z</Time>
            <Position>
              <LatitudeDegrees>42.7260592393577098846435546875</LatitudeDegrees>
              <LongitudeDegrees>-0.26503049768507480621337890625</LongitudeDegrees>
            </Position>
            <AltitudeMeters>1287.4000244140625</AltitudeMeters>
            <DistanceMeters>1029.3757506762</DistanceMeters>
          </Trackpoint>
          <Trackpoint>
            <Time>2021-07-17T09:02:58.000Z</Time>
            <Position>
              <LatitudeDegrees>42.72602948360145092010498046875</LatitudeDegrees>
              <LongitudeDegrees>-0.26496805250644683837890625</LongitudeDegrees>
            </Position>
            <AltitudeMeters>1289.5999755859375</AltitudeMeters>
            <DistanceMeters>1035.4611712447</DistanceMeters>
          </Trackpoint>
          <Trackpoint>
            <Time>2021-07-17T09:02:59.000Z</Time>
            <Position>
              <LatitudeDegrees>42.7260277234017848968505859375</LatitudeDegrees>
              <LongitudeDegrees>-0.26496394537389278411865234375</LongitudeDegrees>
            </Position>
            <AltitudeMeters>1289.800048828125</AltitudeMeters>
            <DistanceMeters>1035.8412781022</DistanceMeters>
          </Trackpoint>
          <Trackpoint>
            <Time>2021-07-17T09:03:01.000Z</Time>
            <Position>
              <LatitudeDegrees>42.7260230295360088348388671875</LatitudeDegrees>
              <LongitudeDegrees>-0.26495187543332576751708984375</LongitudeDegrees>
            </Position>
            <AltitudeMeters>1290.199951171875</AltitudeMeters>
            <DistanceMeters>1036.9575892368</DistanceMeters>
          </Trackpoint>
          <Trackpoint>
            <Time>2021-07-17T09:03:05.000Z</Time>
            <Position>
              <LatitudeDegrees>42.72602847777307033538818359375</LatitudeDegrees>
              <LongitudeDegrees>-0.2649139054119586944580078125</LongitudeDegrees>
            </Position>
            <AltitudeMeters>1291.800048828125</AltitudeMeters>
            <DistanceMeters>1040.1207086939</DistanceMeters>
          </Trackpoint>
          <Trackpoint>
            <Time>2021-07-17T09:03:09.000Z</Time>
            <Position>
              <LatitudeDegrees>42.726026885211467742919921875</LatitudeDegrees>
              <LongitudeDegrees>-0.26490711607038974761962890625</LongitudeDegrees>
            </Position>
            <AltitudeMeters>1292</AltitudeMeters>
            <DistanceMeters>1040.7064927027</DistanceMeters>
          </Trackpoint>
          <Trackpoint>
            <Time>2021-07-17T09:03:10.000Z</Time>
            <Position>
              <LatitudeDegrees>42.7260287292301654815673828125</LatitudeDegrees>
              <LongitudeDegrees>-0.26491641998291015625</LongitudeDegrees>
            </Position>
            <AltitudeMeters>1291.5999755859375</AltitudeMeters>
            <DistanceMeters>1041.5015432363</DistanceMeters>
          </Trackpoint>
          <Trackpoint>
            <Time>2021-07-17T09:03:12.000Z</Time>
            <Position>
              <LatitudeDegrees>42.726038284599781036376953125</LatitudeDegrees>
              <LongitudeDegrees>-0.2649326808750629425048828125</LongitudeDegrees>
            </Position>
            <AltitudeMeters>1291.199951171875</AltitudeMeters>
            <DistanceMeters>1043.2067366608</DistanceMeters>
          </Trackpoint>
          <Trackpoint>
            <Time>2021-07-17T09:03:15.000Z</Time>
            <Position>
              <LatitudeDegrees>42.726059742271900177001953125</LatitudeDegrees>
              <LongitudeDegrees>-0.2649212814867496490478515625</LongitudeDegrees>
            </Position>
            <AltitudeMeters>1291.800048828125</AltitudeMeters>
            <DistanceMeters>1045.7706975909</DistanceMeters>
          </Trackpoint>
          <Trackpoint>
            <Time>2021-07-17T09:03:18.000Z</Time>
            <Position>
              <LatitudeDegrees>42.72607273422181606292724609375</LatitudeDegrees>
              <LongitudeDegrees>-0.26493988931179046630859375</LongitudeDegrees>
            </Position>
            <AltitudeMeters>1291</AltitudeMeters>
            <DistanceMeters>1047.8699063239</DistanceMeters>
          </Trackpoint>
          <Trackpoint>
            <Time>2021-07-17T09:03:24.000Z</Time>
            <Position>
              <LatitudeDegrees>42.7260763384401798248291015625</LatitudeDegrees>
              <LongitudeDegrees>-0.26496511884033679962158203125</LongitudeDegrees>
            </Position>
            <AltitudeMeters>1290</AltitudeMeters>
            <DistanceMeters>1049.9712647848</DistanceMeters>
          </Trackpoint>
          <Trackpoint>
            <Time>2021-07-17T09:03:29.000Z</Time>
            <Position>
              <LatitudeDegrees>42.72606410086154937744140625</LatitudeDegrees>
              <LongitudeDegrees>-0.264995209872722625732421875</LongitudeDegrees>
            </Position>
            <AltitudeMeters>1288.800048828125</AltitudeMeters>
            <DistanceMeters>1052.7837986895</DistanceMeters>
          </Trackpoint>
          <Trackpoint>
            <Time>2021-07-17T09:03:33.000Z</Time>
            <Position>
              <LatitudeDegrees>42.7260743267834186553955078125</LatitudeDegrees>
              <LongitudeDegrees>-0.265066288411617279052734375</LongitudeDegrees>
            </Position>
            <AltitudeMeters>1286.4000244140625</AltitudeMeters>
            <DistanceMeters>1058.7052669898</DistanceMeters>
          </Trackpoint>
          <Trackpoint>
            <Time>2021-07-17T09:03:36.000Z</Time>
            <Position>
              <LatitudeDegrees>42.7260984666645526885986328125</LatitudeDegrees>
              <LongitudeDegrees>-0.26508598588407039642333984375</LongitudeDegrees>
            </Position>
            <AltitudeMeters>1286</AltitudeMeters>
            <DistanceMeters>1061.836826189</DistanceMeters>
          </Trackpoint>
          <Trackpoint>
            <Time>2021-07-17T09:03:41.000Z</Time>
            <Position>
              <LatitudeDegrees>42.72616124711930751800537109375</LatitudeDegrees>
              <LongitudeDegrees>-0.265104509890079498291015625</LongitudeDegrees>
            </Position>
            <AltitudeMeters>1286.4000244140625</AltitudeMeters>
            <DistanceMeters>1068.9859682825</DistanceMeters>
          </Trackpoint>
          <Trackpoint>
            <Time>2021-07-17T09:03:43.000Z</Time>
            <Position>
              <LatitudeDegrees>42.72617734037339687347412109375</LatitudeDegrees>
              <LongitudeDegrees>-0.26511515490710735321044921875</LongitudeDegrees>
            </Position>
            <AltitudeMeters>1286.199951171875</AltitudeMeters>
            <DistanceMeters>1070.9792654594</DistanceMeters>
          </Trackpoint>
          <Trackpoint>
            <Time>2021-07-17T09:03:48.000Z</Time>
            <Position>
              <LatitudeDegrees>42.72622930817306041717529296875</LatitudeDegrees>
              <LongitudeDegrees>-0.26512236334383487701416015625</LongitudeDegrees>
            </Position>
            <AltitudeMeters>1287.4000244140625</AltitudeMeters>
            <DistanceMeters>1076.7930057468</DistanceMeters>
          </Trackpoint>
          <Trackpoint>
            <Time>2021-07-17T09:03:55.000Z</Time>
            <Position>
              <LatitudeDegrees>42.72627071477472782135009765625</LatitudeDegrees>
              <LongitudeDegrees>-0.2651660330593585968017578125</LongitudeDegrees>
            </Position>
            <AltitudeMeters>1286.4000244140625</AltitudeMeters>
            <DistanceMeters>1082.6230321391</DistanceMeters>
          </Trackpoint>
          <Trackpoint>
            <Time>2021-07-17T09:03:56.000Z</Time>
            <Position>
              <LatitudeDegrees>42.72628043778240680694580078125</LatitudeDegrees>
              <LongitudeDegrees>-0.26516628451645374298095703125</LongitudeDegrees>
            </Position>
            <AltitudeMeters>1286.5999755859375</AltitudeMeters>
            <DistanceMeters>1083.7065033836</DistanceMeters>
          </Trackpoint>
          <Trackpoint>
            <Time>2021-07-17T09:03:58.000Z</Time>
            <Position>
              <LatitudeDegrees>42.72630013525485992431640625</LatitudeDegrees>
              <LongitudeDegrees>-0.26516360230743885040283203125</LongitudeDegrees>
            </Position>
            <AltitudeMeters>1287</AltitudeMeters>
            <DistanceMeters>1085.9106315847</DistanceMeters>
          </Trackpoint>
          <Trackpoint>
            <Time>2021-07-17T09:04:01.000Z</Time>
            <Position>
              <LatitudeDegrees>42.7263123728334903717041015625</LatitudeDegrees>
              <LongitudeDegrees>-0.26516117155551910400390625</LongitudeDegrees>
            </Position>
            <AltitudeMeters>1287.199951171875</AltitudeMeters>
            <DistanceMeters>1087.2876995036</DistanceMeters>
          </Trackpoint>
          <Trackpoint>
            <Time>2021-07-17T09:04:02.000Z</Time>
            <Position>
              <LatitudeDegrees>42.72631346248090267181396484375</LatitudeDegrees>
              <LongitudeDegrees>-0.2651579864323139190673828125</LongitudeDegrees>
            </Position>
            <AltitudeMeters>1287.4000244140625</AltitudeMeters>
            <DistanceMeters>1087.5882003596</DistanceMeters>
          </Trackpoint>
          <Trackpoint>
            <Time>2021-07-17T09:04:11.000Z</Time>
            <Position>
              <LatitudeDegrees>42.7263640053570270538330078125</LatitudeDegrees>
              <LongitudeDegrees>-0.2651422284543514251708984375</LongitudeDegrees>
            </Position>
            <AltitudeMeters>1288.800048828125</AltitudeMeters>
            <DistanceMeters>1093.3590687453</DistanceMeters>
          </Trackpoint>
          <Trackpoint>
            <Time>2021-07-17T09:04:17.000Z</Time>
            <Position>
              <LatitudeDegrees>42.726358138024806976318359375</LatitudeDegrees>
              <LongitudeDegrees>-0.2651435695588588714599609375</LongitudeDegrees>
            </Position>
            <AltitudeMeters>1288.5999755859375</AltitudeMeters>
            <DistanceMeters>1094.0174331348</DistanceMeters>
          </Trackpoint>
          <Trackpoint>
            <Time>2021-07-17T09:04:28.000Z</Time>
            <Position>
              <LatitudeDegrees>42.72637800313532352447509765625</LatitudeDegrees>
              <LongitudeDegrees>-0.26511481963098049163818359375</LongitudeDegrees>
            </Position>
            <AltitudeMeters>1290.199951171875</AltitudeMeters>
            <DistanceMeters>1097.2455453101</DistanceMeters>
          </Trackpoint>
          <Trackpoint>
            <Time>2021-07-17T09:04:33.000Z</Time>
            <Position>
              <LatitudeDegrees>42.72640147246420383453369140625</LatitudeDegrees>
              <LongitudeDegrees>-0.2651090361177921295166015625</LongitudeDegrees>
            </Position>
            <AltitudeMeters>1290.800048828125</AltitudeMeters>
            <DistanceMeters>1099.9011977163</DistanceMeters>
          </Trackpoint>
          <Trackpoint>
            <Time>2021-07-17T09:04:40.000Z</Time>
            <Position>
              <LatitudeDegrees>42.726510353386402130126953125</LatitudeDegrees>
              <LongitudeDegrees>-0.26511515490710735321044921875</LongitudeDegrees>
            </Position>
            <AltitudeMeters>1293.800048828125</AltitudeMeters>
            <DistanceMeters>1112.0304188547</DistanceMeters>
          </Trackpoint>
          <Trackpoint>
            <Time>2021-07-17T09:04:46.000Z</Time>
            <Position>
              <LatitudeDegrees>42.7265772409737110137939453125</LatitudeDegrees>
              <LongitudeDegrees>-0.26513242162764072418212890625</LongitudeDegrees>
            </Position>
            <AltitudeMeters>1295.199951171875</AltitudeMeters>
            <DistanceMeters>1119.6087620895</DistanceMeters>
          </Trackpoint>
          <Trackpoint>
            <Time>2021-07-17T09:04:49.000Z</Time>
            <Position>
              <LatitudeDegrees>42.72661102004349231719970703125</LatitudeDegrees>
              <LongitudeDegrees>-0.265122950077056884765625</LongitudeDegrees>
            </Position>
            <AltitudeMeters>1296.800048828125</AltitudeMeters>
            <DistanceMeters>1123.4476531737</DistanceMeters>
          </Trackpoint>
          <Trackpoint>
            <Time>2021-07-17T09:04:53.000Z</Time>
            <Position>
              <LatitudeDegrees>42.72665460593998432159423828125</LatitudeDegrees>
              <LongitudeDegrees>-0.26508464477956295013427734375</LongitudeDegrees>
            </Position>
            <AltitudeMeters>1300.199951171875</AltitudeMeters>
            <DistanceMeters>1129.2216502495</DistanceMeters>
          </Trackpoint>
          <Trackpoint>
            <Time>2021-07-17T09:04:54.000Z</Time>
            <Position>
              <LatitudeDegrees>42.7266597189009189605712890625</LatitudeDegrees>
              <LongitudeDegrees>-0.26507173664867877960205078125</LongitudeDegrees>
            </Position>
            <AltitudeMeters>1301</AltitudeMeters>
            <DistanceMeters>1130.4236536734</DistanceMeters>
          </Trackpoint>
          <Trackpoint>
            <Time>2021-07-17T09:04:56.000Z</Time>
            <Position>
              <LatitudeDegrees>42.72665577940642833709716796875</LatitudeDegrees>
              <LongitudeDegrees>-0.26504893787205219268798828125</LongitudeDegrees>
            </Position>
            <AltitudeMeters>1302.199951171875</AltitudeMeters>
            <DistanceMeters>1132.3383889126</DistanceMeters>
          </Trackpoint>
          <Trackpoint>
            <Time>2021-07-17T09:04:59.000Z</Time>
            <Position>
              <LatitudeDegrees>42.72663943469524383544921875</LatitudeDegrees>
              <LongitudeDegrees>-0.26501205749809741973876953125</LongitudeDegrees>
            </Position>
            <AltitudeMeters>1303.800048828125</AltitudeMeters>
            <DistanceMeters>1135.8607922163</DistanceMeters>
          </Trackpoint>
          <Trackpoint>
            <Time>2021-07-17T09:05:04.000Z</Time>
            <Position>
              <LatitudeDegrees>42.72660029120743274688720703125</LatitudeDegrees>
              <LongitudeDegrees>-0.26497467420995235443115234375</LongitudeDegrees>
            </Position>
            <AltitudeMeters>1303.5999755859375</AltitudeMeters>
            <DistanceMeters>1141.182288221</DistanceMeters>
          </Trackpoint>
          <Trackpoint>
            <Time>2021-07-17T09:05:06.000Z</Time>
            <Position>
              <LatitudeDegrees>42.72658319212496280670166015625</LatitudeDegrees>
              <LongitudeDegrees>-0.264959000051021575927734375</LongitudeDegrees>
            </Position>
            <AltitudeMeters>1303.5999755859375</AltitudeMeters>
            <DistanceMeters>1143.4787125379</DistanceMeters>
          </Trackpoint>
          <Trackpoint>
            <Time>2021-07-17T09:05:10.000Z</Time>
            <Position>
              <LatitudeDegrees>42.72653005085885524749755859375</LatitudeDegrees>
              <LongitudeDegrees>-0.26492103002965450286865234375</LongitudeDegrees>
            </Position>
            <AltitudeMeters>1303</AltitudeMeters>
            <DistanceMeters>1150.1583538239</DistanceMeters>
          </Trackpoint>
          <Trackpoint>
            <Time>2021-07-17T09:05:15.000Z</Time>
            <Position>
              <LatitudeDegrees>42.726486213505268096923828125</LatitudeDegrees>
              <LongitudeDegrees>-0.26490728370845317840576171875</LongitudeDegrees>
            </Position>
            <AltitudeMeters>1301.800048828125</AltitudeMeters>
            <DistanceMeters>1155.1650984957</DistanceMeters>
          </Trackpoint>
          <Trackpoint>
            <Time>2021-07-17T09:05:16.000Z</Time>
            <Position>
              <LatitudeDegrees>42.72648042999207973480224609375</LatitudeDegrees>
              <LongitudeDegrees>-0.2649139054119586944580078125</LongitudeDegrees>
            </Position>
            <AltitudeMeters>1301.199951171875</AltitudeMeters>
            <DistanceMeters>1156.0043517129</DistanceMeters>
          </Trackpoint>
          <Trackpoint>
            <Time>2021-07-17T09:05:17.000Z</Time>
            <Position>
              <LatitudeDegrees>42.726471461355686187744140625</LatitudeDegrees>
              <LongitudeDegrees>-0.2649226225912570953369140625</LongitudeDegrees>
            </Position>
            <AltitudeMeters>1300.4000244140625</AltitudeMeters>
            <DistanceMeters>1157.2286852825</DistanceMeters>
          </Trackpoint>
          <Trackpoint>
            <Time>2021-07-17T09:05:23.000Z</Time>
            <Position>
              <LatitudeDegrees>42.726476155221462249755859375</LatitudeDegrees>
              <LongitudeDegrees>-0.264912731945514678955078125</LongitudeDegrees>
            </Position>
            <AltitudeMeters>1301.199951171875</AltitudeMeters>
            <DistanceMeters>1158.1884080536</DistanceMeters>
          </Trackpoint>
          <Trackpoint>
            <Time>2021-07-17T09:05:24.000Z</Time>
            <Position>
              <LatitudeDegrees>42.726475484669208526611328125</LatitudeDegrees>
              <LongitudeDegrees>-0.26490979827940464019775390625</LongitudeDegrees>
            </Position>
            <AltitudeMeters>1301.199951171875</AltitudeMeters>
            <DistanceMeters>1158.4398251077</DistanceMeters>
          </Trackpoint>
          <Trackpoint>
            <Time>2021-07-17T09:05:30.000Z</Time>
            <Position>
              <LatitudeDegrees>42.7264334075152873992919921875</LatitudeDegrees>
              <LongitudeDegrees>-0.26487509720027446746826171875</LongitudeDegrees>
            </Position>
            <AltitudeMeters>1301.199951171875</AltitudeMeters>
            <DistanceMeters>1163.9152112853</DistanceMeters>
          </Trackpoint>
          <Trackpoint>
            <Time>2021-07-17T09:05:37.000Z</Time>
            <Position>
              <LatitudeDegrees>42.72637255489826202392578125</LatitudeDegrees>
              <LongitudeDegrees>-0.26481977663934230804443359375</LongitudeDegrees>
            </Position>
            <AltitudeMeters>1302</AltitudeMeters>
            <DistanceMeters>1172.0592834535</DistanceMeters>
          </Trackpoint>
          <Trackpoint>
            <Time>2021-07-17T09:05:42.000Z</Time>
            <Position>
              <LatitudeDegrees>42.7263358421623706817626953125</LatitudeDegrees>
              <LongitudeDegrees>-0.26478557847440242767333984375</LongitudeDegrees>
            </Position>
            <AltitudeMeters>1302.5999755859375</AltitudeMeters>
            <DistanceMeters>1177.0116250837</DistanceMeters>
          </Trackpoint>
          <Trackpoint>
            <Time>2021-07-17T09:05:43.000Z</Time>
            <Position>
              <LatitudeDegrees>42.72632335312664508819580078125</LatitudeDegrees>
              <LongitudeDegrees>-0.26478230953216552734375</LongitudeDegrees>
            </Position>
            <AltitudeMeters>1302.4000244140625</AltitudeMeters>
            <DistanceMeters>1178.4274912393</DistanceMeters>
          </Trackpoint>
          <Trackpoint>
            <Time>2021-07-17T09:05:44.000Z</Time>
            <Position>
              <LatitudeDegrees>42.72631354629993438720703125</LatitudeDegrees>
              <LongitudeDegrees>-0.26477686129510402679443359375</LongitudeDegrees>
            </Position>
            <AltitudeMeters>1302.199951171875</AltitudeMeters>
            <DistanceMeters>1179.6067417523</DistanceMeters>
          </Trackpoint>
          <Trackpoint>
            <Time>2021-07-17T09:05:46.000Z</Time>
            <Position>
              <LatitudeDegrees>42.726302482187747955322265625</LatitudeDegrees>
              <LongitudeDegrees>-0.2647640369832515716552734375</LongitudeDegrees>
            </Position>
            <AltitudeMeters>1302.4000244140625</AltitudeMeters>
            <DistanceMeters>1181.2221958965</DistanceMeters>
          </Trackpoint>
          <Trackpoint>
            <Time>2021-07-17T09:05:48.000Z</Time>
            <Position>
              <LatitudeDegrees>42.72628915496170520782470703125</LatitudeDegrees>
              <LongitudeDegrees>-0.26475372724235057830810546875</LongitudeDegrees>
            </Position>
            <AltitudeMeters>1302.4000244140625</AltitudeMeters>
            <DistanceMeters>1182.927389321</DistanceMeters>
          </Trackpoint>
          <Trackpoint>
            <Time>2021-07-17T09:05:54.000Z</Time>
            <Position>
              <LatitudeDegrees>42.72624338977038860321044921875</LatitudeDegrees>
              <LongitudeDegrees>-0.26471324265003204345703125</LongitudeDegrees>
            </Position>
            <AltitudeMeters>1302.800048828125</AltitudeMeters>
            <DistanceMeters>1189.0031569683</DistanceMeters>
          </Trackpoint>
          <Trackpoint>
            <Time>2021-07-17T09:05:56.000Z</Time>
            <Position>
              <LatitudeDegrees>42.72621707059442996978759765625</LatitudeDegrees>
              <LongitudeDegrees>-0.26469538919627666473388671875</LongitudeDegrees>
            </Position>
            <AltitudeMeters>1302.800048828125</AltitudeMeters>
            <DistanceMeters>1192.2757202851</DistanceMeters>
          </Trackpoint>
          <Trackpoint>
            <Time>2021-07-17T09:06:02.000Z</Time>
            <Position>
              <LatitudeDegrees>42.72617549635469913482666015625</LatitudeDegrees>
              <LongitudeDegrees>-0.26460972614586353302001953125</LongitudeDegrees>
            </Position>
            <AltitudeMeters>1305.199951171875</AltitudeMeters>
            <DistanceMeters>1200.6704041129</DistanceMeters>
          </Trackpoint>
          <Trackpoint>
            <Time>2021-07-17T09:06:04.000Z</Time>
            <Position>
              <LatitudeDegrees>42.72614615969359874725341796875</LatitudeDegrees>
              <LongitudeDegrees>-0.2646004222333431243896484375</LongitudeDegrees>
            </Position>
            <AltitudeMeters>1305.4000244140625</AltitudeMeters>
            <DistanceMeters>1204.0220328358</DistanceMeters>
          </Trackpoint>
          <Trackpoint>
            <Time>2021-07-17T09:06:08.000Z</Time>
            <Position>
              <LatitudeDegrees>42.72609754465520381927490234375</LatitudeDegrees>
              <LongitudeDegrees>-0.26459497399628162384033203125</LongitudeDegrees>
            </Position>
            <AltitudeMeters>1305.4000244140625</AltitudeMeters>
            <DistanceMeters>1209.4510446716</DistanceMeters>
          </Trackpoint>
          <Trackpoint>
            <Time>2021-07-17T09:06:15.000Z</Time>
            <Position>
              <LatitudeDegrees>42.72603887133300304412841796875</LatitudeDegrees>
              <LongitudeDegrees>-0.2645243145525455474853515625</LongitudeDegrees>
            </Position>
            <AltitudeMeters>1308.199951171875</AltitudeMeters>
            <DistanceMeters>1218.1697133489</DistanceMeters>
          </Trackpoint>
          <Trackpoint>
            <Time>2021-07-17T09:06:17.000Z</Time>
            <Position>
              <LatitudeDegrees>42.72601783275604248046875</LatitudeDegrees>
              <LongitudeDegrees>-0.2645313553512096405029296875</LongitudeDegrees>
            </Position>
            <AltitudeMeters>1307.800048828125</AltitudeMeters>
            <DistanceMeters>1220.5812210163</DistanceMeters>
          </Trackpoint>
          <Trackpoint>
            <Time>2021-07-17T09:06:19.000Z</Time>
            <Position>
              <LatitudeDegrees>42.72600509226322174072265625</LatitudeDegrees>
              <LongitudeDegrees>-0.26454635895788669586181640625</LongitudeDegrees>
            </Position>
            <AltitudeMeters>1307</AltitudeMeters>
            <DistanceMeters>1222.4554407837</DistanceMeters>
          </Trackpoint>
          <Trackpoint>
            <Time>2021-07-17T09:06:22.000Z</Time>
            <Position>
              <LatitudeDegrees>42.72597349248826503753662109375</LatitudeDegrees>
              <LongitudeDegrees>-0.26453353464603424072265625</LongitudeDegrees>
            </Position>
            <AltitudeMeters>1307.4000244140625</AltitudeMeters>
            <DistanceMeters>1226.1247518877</DistanceMeters>
          </Trackpoint>
          <Trackpoint>
            <Time>2021-07-17T09:06:23.000Z</Time>
            <Position>
              <LatitudeDegrees>42.72596578113734722137451171875</LatitudeDegrees>
              <LongitudeDegrees>-0.26452858932316303253173828125</LongitudeDegrees>
            </Position>
            <AltitudeMeters>1307.5999755859375</AltitudeMeters>
            <DistanceMeters>1227.0750190314</DistanceMeters>
          </Trackpoint>
          <Trackpoint>
            <Time>2021-07-17T09:06:29.000Z</Time>
            <Position>
              <LatitudeDegrees>42.72590979002416133880615234375</LatitudeDegrees>
              <LongitudeDegrees>-0.26451366953551769256591796875</LongitudeDegrees>
            </Position>
            <AltitudeMeters>1307.800048828125</AltitudeMeters>
            <DistanceMeters>1233.4254773928</DistanceMeters>
          </Trackpoint>
          <Trackpoint>
            <Time>2021-07-17T09:06:36.000Z</Time>
            <Position>
              <LatitudeDegrees>42.725845836102962493896484375</LatitudeDegrees>
              <LongitudeDegrees>-0.2645073831081390380859375</LongitudeDegrees>
            </Position>
            <AltitudeMeters>1308</AltitudeMeters>
            <DistanceMeters>1240.5619773153</DistanceMeters>
          </Trackpoint>
          <Trackpoint>
            <Time>2021-07-17T09:06:37.000Z</Time>
            <Position>
              <LatitudeDegrees>42.72583804093301296234130859375</LatitudeDegrees>
              <LongitudeDegrees>-0.26450411416590213775634765625</LongitudeDegrees>
            </Position>
            <AltitudeMeters>1308.199951171875</AltitudeMeters>
            <DistanceMeters>1241.4734415399</DistanceMeters>
          </Trackpoint>
          <Trackpoint>
            <Time>2021-07-17T09:06:42.000Z</Time>
            <Position>
              <LatitudeDegrees>42.72578473202884197235107421875</LatitudeDegrees>
              <LongitudeDegrees>-0.2644689939916133880615234375</LongitudeDegrees>
            </Position>
            <AltitudeMeters>1309.800048828125</AltitudeMeters>
            <DistanceMeters>1248.0653098523</DistanceMeters>
          </Trackpoint>
          <Trackpoint>
            <Time>2021-07-17T09:06:43.000Z</Time>
            <Position>
              <LatitudeDegrees>42.7257682196795940399169921875</LatitudeDegrees>
              <LongitudeDegrees>-0.264466144144535064697265625</LongitudeDegrees>
            </Position>
            <AltitudeMeters>1310</AltitudeMeters>
            <DistanceMeters>1249.9177215368</DistanceMeters>
          </Trackpoint>
          <Trackpoint>
            <Time>2021-07-17T09:06:46.000Z</Time>
            <Position>
              <LatitudeDegrees>42.72573150694370269775390625</LatitudeDegrees>
              <LongitudeDegrees>-0.26446019299328327178955078125</LongitudeDegrees>
            </Position>
            <AltitudeMeters>1310.199951171875</AltitudeMeters>
            <DistanceMeters>1254.0324989709</DistanceMeters>
          </Trackpoint>
          <Trackpoint>
            <Time>2021-07-17T09:06:49.000Z</Time>
            <Position>
              <LatitudeDegrees>42.72570879198610782623291015625</LatitudeDegrees>
              <LongitudeDegrees>-0.26443270035088062286376953125</LongitudeDegrees>
            </Position>
            <AltitudeMeters>1311.4000244140625</AltitudeMeters>
            <DistanceMeters>1257.4163040674</DistanceMeters>
          </Trackpoint>
          <Trackpoint>
            <Time>2021-07-17T09:06:54.000Z</Time>
            <Position>
              <LatitudeDegrees>42.725658081471920013427734375</LatitudeDegrees>
              <LongitudeDegrees>-0.26442163623869419097900390625</LongitudeDegrees>
            </Position>
            <AltitudeMeters>1312</AltitudeMeters>
            <DistanceMeters>1263.1321431637</DistanceMeters>
          </Trackpoint>
          <Trackpoint>
            <Time>2021-07-17T09:06:56.000Z</Time>
            <Position>
              <LatitudeDegrees>42.72563301958143711090087890625</LatitudeDegrees>
              <LongitudeDegrees>-0.26441819965839385986328125</LongitudeDegrees>
            </Position>
            <AltitudeMeters>1312.199951171875</AltitudeMeters>
            <DistanceMeters>1265.9366389441</DistanceMeters>
          </Trackpoint>
          <Trackpoint>
            <Time>2021-07-17T09:06:58.000Z</Time>
            <Position>
              <LatitudeDegrees>42.72561726160347461700439453125</LatitudeDegrees>
              <LongitudeDegrees>-0.264422558248043060302734375</LongitudeDegrees>
            </Position>
            <AltitudeMeters>1312</AltitudeMeters>
            <DistanceMeters>1267.7295994049</DistanceMeters>
          </Trackpoint>
          <Trackpoint>
            <Time>2021-07-17T09:07:01.000Z</Time>
            <Position>
              <LatitudeDegrees>42.725596390664577484130859375</LatitudeDegrees>
              <LongitudeDegrees>-0.2643999271094799041748046875</LongitudeDegrees>
            </Position>
            <AltitudeMeters>1313</AltitudeMeters>
            <DistanceMeters>1270.6998493415</DistanceMeters>
          </Trackpoint>
          <Trackpoint>
            <Time>2021-07-17T09:07:05.000Z</Time>
            <Position>
              <LatitudeDegrees>42.72555707953870296478271484375</LatitudeDegrees>
              <LongitudeDegrees>-0.26435625739395618438720703125</LongitudeDegrees>
            </Position>
            <AltitudeMeters>1315</AltitudeMeters>
            <DistanceMeters>1276.3473470175</DistanceMeters>
          </Trackpoint>
          <Trackpoint>
            <Time>2021-07-17T09:07:06.000Z</Time>
            <Position>
              <LatitudeDegrees>42.72554970346391201019287109375</LatitudeDegrees>
              <LongitudeDegrees>-0.26435106061398983001708984375</LongitudeDegrees>
            </Position>
            <AltitudeMeters>1315.199951171875</AltitudeMeters>
            <DistanceMeters>1277.2686651958</DistanceMeters>
          </Trackpoint>
          <Trackpoint>
            <Time>2021-07-17T09:07:12.000Z</Time>
            <Position>
              <LatitudeDegrees>42.7254966460168361663818359375</LatitudeDegrees>
              <LongitudeDegrees>-0.26431317441165447235107421875</LongitudeDegrees>
            </Position>
            <AltitudeMeters>1316.800048828125</AltitudeMeters>
            <DistanceMeters>1283.9374826687</DistanceMeters>
          </Trackpoint>
          <Trackpoint>
            <Time>2021-07-17T09:07:15.000Z</Time>
            <Position>
              <LatitudeDegrees>42.7254627831280231475830078125</LatitudeDegrees>
              <LongitudeDegrees>-0.26430680416524410247802734375</LongitudeDegrees>
            </Position>
            <AltitudeMeters>1317</AltitudeMeters>
            <DistanceMeters>1287.7432996133</DistanceMeters>
          </Trackpoint>
          <Trackpoint>
            <Time>2021-07-17T09:07:19.000Z</Time>
            <Position>
              <LatitudeDegrees>42.72542045451700687408447265625</LatitudeDegrees>
              <LongitudeDegrees>-0.26431200094521045684814453125</LongitudeDegrees>
            </Position>
            <AltitudeMeters>1316.5999755859375</AltitudeMeters>
            <DistanceMeters>1292.4746376381</DistanceMeters>
          </Trackpoint>
          <Trackpoint>
            <Time>2021-07-17T09:07:24.000Z</Time>
            <Position>
              <LatitudeDegrees>42.72535599768161773681640625</LatitudeDegrees>
              <LongitudeDegrees>-0.26430713944137096405029296875</LongitudeDegrees>
            </Position>
            <AltitudeMeters>1316.5999755859375</AltitudeMeters>
            <DistanceMeters>1299.6603162495</DistanceMeters>
          </Trackpoint>
          <Trackpoint>
            <Time>2021-07-17T09:07:26.000Z</Time>
            <Position>
              <LatitudeDegrees>42.72533948533236980438232421875</LatitudeDegrees>
              <LongitudeDegrees>-0.2643008530139923095703125</LongitudeDegrees>
            </Position>
            <AltitudeMeters>1317</AltitudeMeters>
            <DistanceMeters>1301.5703295697</DistanceMeters>
          </Trackpoint>
          <Trackpoint>
            <Time>2021-07-17T09:07:27.000Z</Time>
            <Position>
              <LatitudeDegrees>42.72533361800014972686767578125</LatitudeDegrees>
              <LongitudeDegrees>-0.26429691351950168609619140625</LongitudeDegrees>
            </Position>
            <AltitudeMeters>1317.199951171875</AltitudeMeters>
            <DistanceMeters>1302.3002436127</DistanceMeters>
          </Trackpoint>
          <Trackpoint>
            <Time>2021-07-17T09:07:29.000Z</Time>
            <Position>
              <LatitudeDegrees>42.72531576454639434814453125</LatitudeDegrees>
              <LongitudeDegrees>-0.2642847597599029541015625</LongitudeDegrees>
            </Position>
            <AltitudeMeters>1318</AltitudeMeters>
            <DistanceMeters>1304.5247619631</DistanceMeters>
          </Trackpoint>
          <Trackpoint>
            <Time>2021-07-17T09:07:32.000Z</Time>
            <Position>
              <LatitudeDegrees>42.7252887748181819915771484375</LatitudeDegrees>
              <LongitudeDegrees>-0.26427327655255794525146484375</LongitudeDegrees>
            </Position>
            <AltitudeMeters>1318.5999755859375</AltitudeMeters>
            <DistanceMeters>1307.6721408502</DistanceMeters>
          </Trackpoint>
          <Trackpoint>
            <Time>2021-07-17T09:07:33.000Z</Time>
            <Position>
              <LatitudeDegrees>42.7252820692956447601318359375</LatitudeDegrees>
              <LongitudeDegrees>-0.264273695647716522216796875</LongitudeDegrees>
            </Position>
            <AltitudeMeters>1318.800048828125</AltitudeMeters>
            <DistanceMeters>1308.4203819474</DistanceMeters>
          </Trackpoint>
          <Trackpoint>
            <Time>2021-07-17T09:07:41.000Z</Time>
            <Position>
              <LatitudeDegrees>42.7251720987260341644287109375</LatitudeDegrees>
              <LongitudeDegrees>-0.2642889507114887237548828125</LongitudeDegrees>
            </Position>
            <AltitudeMeters>1318.800048828125</AltitudeMeters>
            <DistanceMeters>1320.724048129</DistanceMeters>
          </Trackpoint>
          <Trackpoint>
            <Time>2021-07-17T09:07:44.000Z</Time>
            <Position>
              <LatitudeDegrees>42.72515080869197845458984375</LatitudeDegrees>
              <LongitudeDegrees>-0.26428014971315860748291015625</LongitudeDegrees>
            </Position>
            <AltitudeMeters>1319.199951171875</AltitudeMeters>
            <DistanceMeters>1323.2020416685</DistanceMeters>
          </Trackpoint>
          <Trackpoint>
            <Time>2021-07-17T09:07:46.000Z</Time>
            <Position>
              <LatitudeDegrees>42.725118286907672882080078125</LatitudeDegrees>
              <LongitudeDegrees>-0.2642792277038097381591796875</LongitudeDegrees>
            </Position>
            <AltitudeMeters>1319.4000244140625</AltitudeMeters>
            <DistanceMeters>1326.8230458105</DistanceMeters>
          </Trackpoint>
          <Trackpoint>
            <Time>2021-07-17T09:07:47.000Z</Time>
            <Position>
              <LatitudeDegrees>42.72510361857712268829345703125</LatitudeDegrees>
              <LongitudeDegrees>-0.2642782218754291534423828125</LongitudeDegrees>
            </Position>
            <AltitudeMeters>1319.4000244140625</AltitudeMeters>
            <DistanceMeters>1328.4579472227</DistanceMeters>
          </Trackpoint>
          <Trackpoint>
            <Time>2021-07-17T09:07:54.000Z</Time>
            <Position>
              <LatitudeDegrees>42.72504561580717563629150390625</LatitudeDegrees>
              <LongitudeDegrees>-0.26423622854053974151611328125</LongitudeDegrees>
            </Position>
            <AltitudeMeters>1321.5999755859375</AltitudeMeters>
            <DistanceMeters>1335.7694486108</DistanceMeters>
          </Trackpoint>
          <Trackpoint>
            <Time>2021-07-17T09:08:00.000Z</Time>
            <Position>
              <LatitudeDegrees>42.72499012760818004608154296875</LatitudeDegrees>
              <LongitudeDegrees>-0.26422449387609958648681640625</LongitudeDegrees>
            </Position>
            <AltitudeMeters>1323.800048828125</AltitudeMeters>
            <DistanceMeters>1342.0195774651</DistanceMeters>
          </Trackpoint>
          <Trackpoint>
            <Time>2021-07-17T09:08:01.000Z</Time>
            <Position>
              <LatitudeDegrees>42.7249793149530887603759765625</LatitudeDegrees>
              <LongitudeDegrees>-0.26422441005706787109375</LongitudeDegrees>
            </Position>
            <AltitudeMeters>1324</AltitudeMeters>
            <DistanceMeters>1343.221580889</DistanceMeters>
          </Trackpoint>
          <Trackpoint>
            <Time>2021-07-17T09:08:04.000Z</Time>
            <Position>
              <LatitudeDegrees>42.72495098412036895751953125</LatitudeDegrees>
              <LongitudeDegrees>-0.2642161957919597625732421875</LongitudeDegrees>
            </Position>
            <AltitudeMeters>1325.199951171875</AltitudeMeters>
            <DistanceMeters>1346.446894527</DistanceMeters>
          </Trackpoint>
          <Trackpoint>
            <Time>2021-07-17T09:08:06.000Z</Time>
            <Position>
              <LatitudeDegrees>42.724927850067615509033203125</LatitudeDegrees>
              <LongitudeDegrees>-0.2642141841351985931396484375</LongitudeDegrees>
            </Position>
            <AltitudeMeters>1325.5999755859375</AltitudeMeters>
            <DistanceMeters>1349.0266554344</DistanceMeters>
          </Trackpoint>
          <Trackpoint>
            <Time>2021-07-17T09:08:07.000Z</Time>
            <Position>
              <LatitudeDegrees>42.7249176241457462310791015625</LatitudeDegrees>
              <LongitudeDegrees>-0.2642123401165008544921875</LongitudeDegrees>
            </Position>
            <AltitudeMeters>1325.800048828125</AltitudeMeters>
            <DistanceMeters>1350.1748675929</DistanceMeters>
          </Trackpoint>
          <Trackpoint>
            <Time>2021-07-17T09:08:13.000Z</Time>
            <Position>
              <LatitudeDegrees>42.724858112633228302001953125</LatitudeDegrees>
              <LongitudeDegrees>-0.26418057270348072052001953125</LongitudeDegrees>
            </Position>
            <AltitudeMeters>1327.199951171875</AltitudeMeters>
            <DistanceMeters>1357.2898242719</DistanceMeters>
          </Trackpoint>
          <Trackpoint>
            <Time>2021-07-17T09:08:16.000Z</Time>
            <Position>
              <LatitudeDegrees>42.72483296692371368408203125</LatitudeDegrees>
              <LongitudeDegrees>-0.264170430600643157958984375</LongitudeDegrees>
            </Position>
            <AltitudeMeters>1327.800048828125</AltitudeMeters>
            <DistanceMeters>1360.2079336062</DistanceMeters>
          </Trackpoint>
          <Trackpoint>
            <Time>2021-07-17T09:08:18.000Z</Time>
            <Position>
              <LatitudeDegrees>42.72481746040284633636474609375</LatitudeDegrees>
              <LongitudeDegrees>-0.26416095905005931854248046875</LongitudeDegrees>
            </Position>
            <AltitudeMeters>1328.199951171875</AltitudeMeters>
            <DistanceMeters>1362.0989413459</DistanceMeters>
          </Trackpoint>
          <Trackpoint>
            <Time>2021-07-17T09:08:20.000Z</Time>
            <Position>
              <LatitudeDegrees>42.72479365579783916473388671875</LatitudeDegrees>
              <LongitudeDegrees>-0.26415006257593631744384765625</LongitudeDegrees>
            </Position>
            <AltitudeMeters>1328.5999755859375</AltitudeMeters>
            <DistanceMeters>1364.8953758973</DistanceMeters>
          </Trackpoint>
          <Trackpoint>
            <Time>2021-07-17T09:08:23.000Z</Time>
            <Position>
              <LatitudeDegrees>42.724778987467288970947265625</LatitudeDegrees>
              <LongitudeDegrees>-0.264142937958240509033203125</LongitudeDegrees>
            </Position>
            <AltitudeMeters>1329.199951171875</AltitudeMeters>
            <DistanceMeters>1366.62945071</DistanceMeters>
          </Trackpoint>
          <Trackpoint>
            <Time>2021-07-17T09:08:26.000Z</Time>
            <Position>
              <LatitudeDegrees>42.72474504075944423675537109375</LatitudeDegrees>
              <LongitudeDegrees>-0.26414553634822368621826171875</LongitudeDegrees>
            </Position>
            <AltitudeMeters>1330</AltitudeMeters>
            <DistanceMeters>1370.4138530723</DistanceMeters>
          </Trackpoint>
          <Trackpoint>
            <Time>2021-07-17T09:08:27.000Z</Time>
            <Position>
              <LatitudeDegrees>42.7247335575520992279052734375</LatitudeDegrees>
              <LongitudeDegrees>-0.26414997875690460205078125</LongitudeDegrees>
            </Position>
            <AltitudeMeters>1330.199951171875</AltitudeMeters>
            <DistanceMeters>1371.7476165669</DistanceMeters>
          </Trackpoint>
          <Trackpoint>
            <Time>2021-07-17T09:08:31.000Z</Time>
            <Position>
              <LatitudeDegrees>42.72469240240752696990966796875</LatitudeDegrees>
              <LongitudeDegrees>-0.2641759626567363739013671875</LongitudeDegrees>
            </Position>
            <AltitudeMeters>1330.5999755859375</AltitudeMeters>
            <DistanceMeters>1376.7974617009</DistanceMeters>
          </Trackpoint>
          <Trackpoint>
            <Time>2021-07-17T09:08:34.000Z</Time>
            <Position>
              <LatitudeDegrees>42.7246722020208835601806640625</LatitudeDegrees>
              <LongitudeDegrees>-0.26418493129312992095947265625</LongitudeDegrees>
            </Position>
            <AltitudeMeters>1330.800048828125</AltitudeMeters>
            <DistanceMeters>1379.1616988546</DistanceMeters>
          </Trackpoint>
          <Trackpoint>
            <Time>2021-07-17T09:08:39.000Z</Time>
            <Position>
              <LatitudeDegrees>42.7246297895908355712890625</LatitudeDegrees>
              <LongitudeDegrees>-0.26422801427543163299560546875</LongitudeDegrees>
            </Position>
            <AltitudeMeters>1331</AltitudeMeters>
            <DistanceMeters>1385.0518222572</DistanceMeters>
          </Trackpoint>
          <Trackpoint>
            <Time>2021-07-17T09:08:46.000Z</Time>
            <Position>
              <LatitudeDegrees>42.72457421757280826568603515625</LatitudeDegrees>
              <LongitudeDegrees>-0.26426673866808414459228515625</LongitudeDegrees>
            </Position>
            <AltitudeMeters>1331.4000244140625</AltitudeMeters>
            <DistanceMeters>1392.0004781521</DistanceMeters>
          </Trackpoint>
          <Trackpoint>
            <Time>2021-07-17T09:08:50.000Z</Time>
            <Position>
              <LatitudeDegrees>42.7245441265404224395751953125</LatitudeDegrees>
              <LongitudeDegrees>-0.2643077261745929718017578125</LongitudeDegrees>
            </Position>
            <AltitudeMeters>1331.4000244140625</AltitudeMeters>
            <DistanceMeters>1396.738491453</DistanceMeters>
          </Trackpoint>
          <Trackpoint>
            <Time>2021-07-17T09:08:51.000Z</Time>
            <Position>
              <LatitudeDegrees>42.72453398443758487701416015625</LatitudeDegrees>
              <LongitudeDegrees>-0.26431920938193798065185546875</LongitudeDegrees>
            </Position>
            <AltitudeMeters>1331.4000244140625</AltitudeMeters>
            <DistanceMeters>1398.2075688064</DistanceMeters>
          </Trackpoint>
          <Trackpoint>
            <Time>2021-07-17T09:08:54.000Z</Time>
            <Position>
              <LatitudeDegrees>42.724503390491008758544921875</LatitudeDegrees>
              <LongitudeDegrees>-0.2643469534814357757568359375</LongitudeDegrees>
            </Position>
            <AltitudeMeters>1331.5999755859375</AltitudeMeters>
            <DistanceMeters>1402.2992386033</DistanceMeters>
          </Trackpoint>
          <Trackpoint>
            <Time>2021-07-17T09:09:01.000Z</Time>
            <Position>
              <LatitudeDegrees>42.72441110573709011077880859375</LatitudeDegrees>
              <LongitudeDegrees>-0.26443119160830974578857421875</LongitudeDegrees>
            </Position>
            <AltitudeMeters>1332</AltitudeMeters>
            <DistanceMeters>1414.6665921928</DistanceMeters>
          </Trackpoint>
          <Trackpoint>
            <Time>2021-07-17T09:09:06.000Z</Time>
            <Position>
              <LatitudeDegrees>42.72437372244894504547119140625</LatitudeDegrees>
              <LongitudeDegrees>-0.2644619531929492950439453125</LongitudeDegrees>
            </Position>
            <AltitudeMeters>1332.199951171875</AltitudeMeters>
            <DistanceMeters>1419.5287666169</DistanceMeters>
          </Trackpoint>
          <Trackpoint>
            <Time>2021-07-17T09:09:07.000Z</Time>
            <Position>
              <LatitudeDegrees>42.72436416707932949066162109375</LatitudeDegrees>
              <LongitudeDegrees>-0.26446379721164703369140625</LongitudeDegrees>
            </Position>
            <AltitudeMeters>1332.4000244140625</AltitudeMeters>
            <DistanceMeters>1420.6080626195</DistanceMeters>
          </Trackpoint>
          <Trackpoint>
            <Time>2021-07-17T09:09:09.000Z</Time>
            <Position>
              <LatitudeDegrees>42.72434103302657604217529296875</LatitudeDegrees>
              <LongitudeDegrees>-0.26446907781064510345458984375</LongitudeDegrees>
            </Position>
            <AltitudeMeters>1332.5999755859375</AltitudeMeters>
            <DistanceMeters>1423.2208652894</DistanceMeters>
          </Trackpoint>
          <Trackpoint>
            <Time>2021-07-17T09:09:13.000Z</Time>
            <Position>
              <LatitudeDegrees>42.72429191507399082183837890625</LatitudeDegrees>
              <LongitudeDegrees>-0.2644934691488742828369140625</LongitudeDegrees>
            </Position>
            <AltitudeMeters>1333.199951171875</AltitudeMeters>
            <DistanceMeters>1429.0400393429</DistanceMeters>
          </Trackpoint>
          <Trackpoint>
            <Time>2021-07-17T09:09:15.000Z</Time>
            <Position>
              <LatitudeDegrees>42.7242876403033733367919921875</LatitudeDegrees>
              <LongitudeDegrees>-0.2645021863281726837158203125</LongitudeDegrees>
            </Position>
            <AltitudeMeters>1333.199951171875</AltitudeMeters>
            <DistanceMeters>1429.8952797722</DistanceMeters>
          </Trackpoint>
          <Trackpoint>
            <Time>2021-07-17T09:09:18.000Z</Time>
            <Position>
              <LatitudeDegrees>42.72426257841289043426513671875</LatitudeDegrees>
              <LongitudeDegrees>-0.26450662873685359954833984375</LongitudeDegrees>
            </Position>
            <AltitudeMeters>1333.5999755859375</AltitudeMeters>
            <DistanceMeters>1432.7094185465</DistanceMeters>
          </Trackpoint>
          <Trackpoint>
            <Time>2021-07-17T09:09:22.000Z</Time>
            <Position>
              <LatitudeDegrees>42.72422016598284244537353515625</LatitudeDegrees>
              <LongitudeDegrees>-0.2645194530487060546875</LongitudeDegrees>
            </Position>
            <AltitudeMeters>1334.199951171875</AltitudeMeters>
            <DistanceMeters>1437.5455221424</DistanceMeters>
          </Trackpoint>
          <Trackpoint>
            <Time>2021-07-17T09:09:24.000Z</Time>
            <Position>
              <LatitudeDegrees>42.72419703193008899688720703125</LatitudeDegrees>
              <LongitudeDegrees>-0.2645162679255008697509765625</LongitudeDegrees>
            </Position>
            <AltitudeMeters>1334.4000244140625</AltitudeMeters>
            <DistanceMeters>1440.1340191429</DistanceMeters>
          </Trackpoint>
          <Trackpoint>
            <Time>2021-07-17T09:09:29.000Z</Time>
            <Position>
              <LatitudeDegrees>42.7241310663521289825439453125</LatitudeDegrees>
              <LongitudeDegrees>-0.26456111110746860504150390625</LongitudeDegrees>
            </Position>
            <AltitudeMeters>1334.800048828125</AltitudeMeters>
            <DistanceMeters>1448.340498907</DistanceMeters>
          </Trackpoint>
          <Trackpoint>
            <Time>2021-07-17T09:09:31.000Z</Time>
            <Position>
              <LatitudeDegrees>42.72411153651773929595947265625</LatitudeDegrees>
              <LongitudeDegrees>-0.26456261985003948211669921875</LongitudeDegrees>
            </Position>
            <AltitudeMeters>1335</AltitudeMeters>
            <DistanceMeters>1450.5178344652</DistanceMeters>
          </Trackpoint>
          <Trackpoint>
            <Time>2021-07-17T09:09:35.000Z</Time>
            <Position>
              <LatitudeDegrees>42.7240874804556369781494140625</LatitudeDegrees>
              <LongitudeDegrees>-0.264611653983592987060546875</LongitudeDegrees>
            </Position>
            <AltitudeMeters>1334.5999755859375</AltitudeMeters>
            <DistanceMeters>1455.3389771479</DistanceMeters>
          </Trackpoint>
          <Trackpoint>
            <Time>2021-07-17T09:09:37.000Z</Time>
            <Position>
              <LatitudeDegrees>42.7240683697164058685302734375</LatitudeDegrees>
              <LongitudeDegrees>-0.2646322734653949737548828125</LongitudeDegrees>
            </Position>
            <AltitudeMeters>1334.5999755859375</AltitudeMeters>
            <DistanceMeters>1458.0568076303</DistanceMeters>
          </Trackpoint>
          <Trackpoint>
            <Time>2021-07-17T09:09:45.000Z</Time>
            <Position>
              <LatitudeDegrees>42.723978348076343536376953125</LatitudeDegrees>
              <LongitudeDegrees>-0.2646832354366779327392578125</LongitudeDegrees>
            </Position>
            <AltitudeMeters>1335.199951171875</AltitudeMeters>
            <DistanceMeters>1468.9081760615</DistanceMeters>
          </Trackpoint>
          <Trackpoint>
            <Time>2021-07-17T09:09:46.000Z</Time>
            <Position>
              <LatitudeDegrees>42.723958902060985565185546875</LatitudeDegrees>
              <LongitudeDegrees>-0.2646889351308345794677734375</LongitudeDegrees>
            </Position>
            <AltitudeMeters>1335.4000244140625</AltitudeMeters>
            <DistanceMeters>1471.120482874</DistanceMeters>
          </Trackpoint>
          <Trackpoint>
            <Time>2021-07-17T09:09:56.000Z</Time>
            <Position>
              <LatitudeDegrees>42.7238336764276027679443359375</LatitudeDegrees>
              <LongitudeDegrees>-0.26470251381397247314453125</LongitudeDegrees>
            </Position>
            <AltitudeMeters>1338</AltitudeMeters>
            <DistanceMeters>1485.1026556312</DistanceMeters>
          </Trackpoint>
          <Trackpoint>
            <Time>2021-07-17T09:10:00.000Z</Time>
            <Position>
              <LatitudeDegrees>42.72382001392543315887451171875</LatitudeDegrees>
              <LongitudeDegrees>-0.26468776166439056396484375</LongitudeDegrees>
            </Position>
            <AltitudeMeters>1338.5999755859375</AltitudeMeters>
            <DistanceMeters>1487.0431560504</DistanceMeters>
          </Trackpoint>
          <Trackpoint>
            <Time>2021-07-17T09:10:02.000Z</Time>
            <Position>
              <LatitudeDegrees>42.72382219322025775909423828125</LatitudeDegrees>
              <LongitudeDegrees>-0.26466722600162029266357421875</LongitudeDegrees>
            </Position>
            <AltitudeMeters>1339</AltitudeMeters>
            <DistanceMeters>1488.7377251134</DistanceMeters>
          </Trackpoint>
          <Trackpoint>
            <Time>2021-07-17T09:10:03.000Z</Time>
            <Position>
              <LatitudeDegrees>42.7238237857818603515625</LatitudeDegrees>
              <LongitudeDegrees>-0.2646580897271633148193359375</LongitudeDegrees>
            </Position>
            <AltitudeMeters>1339.199951171875</AltitudeMeters>
            <DistanceMeters>1489.5097257904</DistanceMeters>
          </Trackpoint>
          <Trackpoint>
            <Time>2021-07-17T09:10:07.000Z</Time>
            <Position>
              <LatitudeDegrees>42.72386359982192516326904296875</LatitudeDegrees>
              <LongitudeDegrees>-0.2646362967789173126220703125</LongitudeDegrees>
            </Position>
            <AltitudeMeters>1338.5999755859375</AltitudeMeters>
            <DistanceMeters>1494.2866498189</DistanceMeters>
          </Trackpoint>
          <Trackpoint>
            <Time>2021-07-17T09:10:12.000Z</Time>
            <Position>
              <LatitudeDegrees>42.7238920144736766815185546875</LatitudeDegrees>
              <LongitudeDegrees>-0.264594890177249908447265625</LongitudeDegrees>
            </Position>
            <AltitudeMeters>1338.5999755859375</AltitudeMeters>
            <DistanceMeters>1498.9196285267</DistanceMeters>
          </Trackpoint>
          <Trackpoint>
            <Time>2021-07-17T09:10:14.000Z</Time>
            <Position>
              <LatitudeDegrees>42.723901569843292236328125</LatitudeDegrees>
              <LongitudeDegrees>-0.26457519270479679107666015625</LongitudeDegrees>
            </Position>
            <AltitudeMeters>1338.800048828125</AltitudeMeters>
            <DistanceMeters>1500.8484601666</DistanceMeters>
          </Trackpoint>
          <Trackpoint>
            <Time>2021-07-17T09:10:19.000Z</Time>
            <Position>
              <LatitudeDegrees>42.72396150045096874237060546875</LatitudeDegrees>
              <LongitudeDegrees>-0.2645340375602245330810546875</LongitudeDegrees>
            </Position>
            <AltitudeMeters>1338</AltitudeMeters>
            <DistanceMeters>1508.3200016793</DistanceMeters>
          </Trackpoint>
          <Trackpoint>
            <Time>2021-07-17T09:10:20.000Z</Time>
            <Position>
              <LatitudeDegrees>42.72396300919353961944580078125</LatitudeDegrees>
              <LongitudeDegrees>-0.26452138088643550872802734375</LongitudeDegrees>
            </Position>
            <AltitudeMeters>1338.199951171875</AltitudeMeters>
            <DistanceMeters>1509.3696060458</DistanceMeters>
          </Trackpoint>
          <Trackpoint>
            <Time>2021-07-17T09:10:22.000Z</Time>
            <Position>
              <LatitudeDegrees>42.7239644341170787811279296875</LatitudeDegrees>
              <LongitudeDegrees>-0.26449992321431636810302734375</LongitudeDegrees>
            </Position>
            <AltitudeMeters>1338.5999755859375</AltitudeMeters>
            <DistanceMeters>1511.1295254247</DistanceMeters>
          </Trackpoint>
          <Trackpoint>
            <Time>2021-07-17T09:10:25.000Z</Time>
            <Position>
              <LatitudeDegrees>42.7239905856549739837646484375</LatitudeDegrees>
              <LongitudeDegrees>-0.2644653059542179107666015625</LongitudeDegrees>
            </Position>
            <AltitudeMeters>1338.800048828125</AltitudeMeters>
            <DistanceMeters>1515.1879560862</DistanceMeters>
          </Trackpoint>
          <Trackpoint>
            <Time>2021-07-17T09:10:28.000Z</Time>
            <Position>
              <LatitudeDegrees>42.7240080200135707855224609375</LatitudeDegrees>
              <LongitudeDegrees>-0.26443563401699066162109375</LongitudeDegrees>
            </Position>
            <AltitudeMeters>1339</AltitudeMeters>
            <DistanceMeters>1518.2934547003</DistanceMeters>
          </Trackpoint>
          <Trackpoint>
            <Time>2021-07-17T09:10:30.000Z</Time>
            <Position>
              <LatitudeDegrees>42.72401413880288600921630859375</LatitudeDegrees>
              <LongitudeDegrees>-0.26441275142133235931396484375</LongitudeDegrees>
            </Position>
            <AltitudeMeters>1339.199951171875</AltitudeMeters>
            <DistanceMeters>1520.2822164966</DistanceMeters>
          </Trackpoint>
          <Trackpoint>
            <Time>2021-07-17T09:10:34.000Z</Time>
            <Position>
              <LatitudeDegrees>42.72403609938919544219970703125</LatitudeDegrees>
              <LongitudeDegrees>-0.26436388492584228515625</LongitudeDegrees>
            </Position>
            <AltitudeMeters>1339.800048828125</AltitudeMeters>
            <DistanceMeters>1524.9665612489</DistanceMeters>
          </Trackpoint>
          <Trackpoint>
            <Time>2021-07-17T09:10:37.000Z</Time>
            <Position>
              <LatitudeDegrees>42.72404682822525501251220703125</LatitudeDegrees>
              <LongitudeDegrees>-0.26430898346006870269775390625</LongitudeDegrees>
            </Position>
            <AltitudeMeters>1340.800048828125</AltitudeMeters>
            <DistanceMeters>1529.6121917444</DistanceMeters>
          </Trackpoint>
          <Trackpoint>
            <Time>2021-07-17T09:10:38.000Z</Time>
            <Position>
              <LatitudeDegrees>42.72405504249036312103271484375</LatitudeDegrees>
              <LongitudeDegrees>-0.26429574005305767059326171875</LongitudeDegrees>
            </Position>
            <AltitudeMeters>1341</AltitudeMeters>
            <DistanceMeters>1531.0280579</DistanceMeters>
          </Trackpoint>
          <Trackpoint>
            <Time>2021-07-17T09:10:44.000Z</Time>
            <Position>
              <LatitudeDegrees>42.72410935722291469573974609375</LatitudeDegrees>
              <LongitudeDegrees>-0.2642306126654148101806640625</LongitudeDegrees>
            </Position>
            <AltitudeMeters>1341.4000244140625</AltitudeMeters>
            <DistanceMeters>1539.0846197895</DistanceMeters>
          </Trackpoint>
          <Trackpoint>
            <Time>2021-07-17T09:10:47.000Z</Time>
            <Position>
              <LatitudeDegrees>42.7241241931915283203125</LatitudeDegrees>
              <LongitudeDegrees>-0.26419850997626781463623046875</LongitudeDegrees>
            </Position>
            <AltitudeMeters>1341.800048828125</AltitudeMeters>
            <DistanceMeters>1542.1872092708</DistanceMeters>
          </Trackpoint>
          <Trackpoint>
            <Time>2021-07-17T09:10:50.000Z</Time>
            <Position>
              <LatitudeDegrees>42.72415311075747013092041015625</LatitudeDegrees>
              <LongitudeDegrees>-0.2641694247722625732421875</LongitudeDegrees>
            </Position>
            <AltitudeMeters>1342</AltitudeMeters>
            <DistanceMeters>1546.1907559095</DistanceMeters>
          </Trackpoint>
          <Trackpoint>
            <Time>2021-07-17T09:10:52.000Z</Time>
            <Position>
              <LatitudeDegrees>42.7241505123674869537353515625</LatitudeDegrees>
              <LongitudeDegrees>-0.264142937958240509033203125</LongitudeDegrees>
            </Position>
            <AltitudeMeters>1342.5999755859375</AltitudeMeters>
            <DistanceMeters>1548.3743035646</DistanceMeters>
          </Trackpoint>
          <Trackpoint>
            <Time>2021-07-17T09:10:54.000Z</Time>
            <Position>
              <LatitudeDegrees>42.72416182793676853179931640625</LatitudeDegrees>
              <LongitudeDegrees>-0.26411921717226505279541015625</LongitudeDegrees>
            </Position>
            <AltitudeMeters>1343</AltitudeMeters>
            <DistanceMeters>1550.6864033148</DistanceMeters>
          </Trackpoint>
          <Trackpoint>
            <Time>2021-07-17T09:10:57.000Z</Time>
            <Position>
              <LatitudeDegrees>42.7241930924355983734130859375</LatitudeDegrees>
              <LongitudeDegrees>-0.26409155689179897308349609375</LongitudeDegrees>
            </Position>
            <AltitudeMeters>1343</AltitudeMeters>
            <DistanceMeters>1554.837232853</DistanceMeters>
          </Trackpoint>
          <Trackpoint>
            <Time>2021-07-17T09:11:06.000Z</Time>
            <Position>
              <LatitudeDegrees>42.72424983792006969451904296875</LatitudeDegrees>
              <LongitudeDegrees>-0.26396800763905048370361328125</LongitudeDegrees>
            </Position>
            <AltitudeMeters>1344.4000244140625</AltitudeMeters>
            <DistanceMeters>1566.7508696423</DistanceMeters>
          </Trackpoint>
          <Trackpoint>
            <Time>2021-07-17T09:11:07.000Z</Time>
            <Position>
              <LatitudeDegrees>42.7242504246532917022705078125</LatitudeDegrees>
              <LongitudeDegrees>-0.26395057328045368194580078125</LongitudeDegrees>
            </Position>
            <AltitudeMeters>1344.800048828125</AltitudeMeters>
            <DistanceMeters>1568.1794344032</DistanceMeters>
          </Trackpoint>
          <Trackpoint>
            <Time>2021-07-17T09:11:11.000Z</Time>
            <Position>
              <LatitudeDegrees>42.72425821982324123382568359375</LatitudeDegrees>
              <LongitudeDegrees>-0.26389542035758495330810546875</LongitudeDegrees>
            </Position>
            <AltitudeMeters>1345.800048828125</AltitudeMeters>
            <DistanceMeters>1572.7703164993</DistanceMeters>
          </Trackpoint>
          <Trackpoint>
            <Time>2021-07-17T09:11:12.000Z</Time>
            <Position>
              <LatitudeDegrees>42.7242638356983661651611328125</LatitudeDegrees>
              <LongitudeDegrees>-0.263882093131542205810546875</LongitudeDegrees>
            </Position>
            <AltitudeMeters>1346</AltitudeMeters>
            <DistanceMeters>1574.02740177</DistanceMeters>
          </Trackpoint>
          <Trackpoint>
            <Time>2021-07-17T09:11:17.000Z</Time>
            <Position>
              <LatitudeDegrees>42.72428403608500957489013671875</LatitudeDegrees>
              <LongitudeDegrees>-0.2638105116784572601318359375</LongitudeDegrees>
            </Position>
            <AltitudeMeters>1347.199951171875</AltitudeMeters>
            <DistanceMeters>1580.2970048484</DistanceMeters>
          </Trackpoint>
          <Trackpoint>
            <Time>2021-07-17T09:11:25.000Z</Time>
            <Position>
              <LatitudeDegrees>42.72431354038417339324951171875</LatitudeDegrees>
              <LongitudeDegrees>-0.263706408441066741943359375</LongitudeDegrees>
            </Position>
            <AltitudeMeters>1350.199951171875</AltitudeMeters>
            <DistanceMeters>1589.4205592358</DistanceMeters>
          </Trackpoint>
          <Trackpoint>
            <Time>2021-07-17T09:11:27.000Z</Time>
            <Position>
              <LatitudeDegrees>42.72431018762290477752685546875</LatitudeDegrees>
              <LongitudeDegrees>-0.2636780776083469390869140625</LongitudeDegrees>
            </Position>
            <AltitudeMeters>1351.199951171875</AltitudeMeters>
            <DistanceMeters>1591.7675459488</DistanceMeters>
          </Trackpoint>
          <Trackpoint>
            <Time>2021-07-17T09:11:33.000Z</Time>
            <Position>
              <LatitudeDegrees>42.72429057396948337554931640625</LatitudeDegrees>
              <LongitudeDegrees>-0.2636277861893177032470703125</LongitudeDegrees>
            </Position>
            <AltitudeMeters>1353.199951171875</AltitudeMeters>
            <DistanceMeters>1596.4228851916</DistanceMeters>
          </Trackpoint>
          <Trackpoint>
            <Time>2021-07-17T09:11:37.000Z</Time>
            <Position>
              <LatitudeDegrees>42.72425117902457714080810546875</LatitudeDegrees>
              <LongitudeDegrees>-0.2636137045919895172119140625</LongitudeDegrees>
            </Position>
            <AltitudeMeters>1354.4000244140625</AltitudeMeters>
            <DistanceMeters>1600.9563666337</DistanceMeters>
          </Trackpoint>
          <Trackpoint>
            <Time>2021-07-17T09:11:41.000Z</Time>
            <Position>
              <LatitudeDegrees>42.7241992950439453125</LatitudeDegrees>
              <LongitudeDegrees>-0.263650417327880859375</LongitudeDegrees>
            </Position>
            <AltitudeMeters>1354.4000244140625</AltitudeMeters>
            <DistanceMeters>1607.4641357232</DistanceMeters>
          </Trackpoint>
          <Trackpoint>
            <Time>2021-07-17T09:11:42.000Z</Time>
            <Position>
              <LatitudeDegrees>42.724191583693027496337890625</LatitudeDegrees>
              <LongitudeDegrees>-0.26366240344941616058349609375</LongitudeDegrees>
            </Position>
            <AltitudeMeters>1354.199951171875</AltitudeMeters>
            <DistanceMeters>1608.7670763863</DistanceMeters>
          </Trackpoint>
          <Trackpoint>
            <Time>2021-07-17T09:11:46.000Z</Time>
            <Position>
              <LatitudeDegrees>42.72415713407099246978759765625</LatitudeDegrees>
              <LongitudeDegrees>-0.26369609870016574859619140625</LongitudeDegrees>
            </Position>
            <AltitudeMeters>1354</AltitudeMeters>
            <DistanceMeters>1613.4898180494</DistanceMeters>
          </Trackpoint>
          <Trackpoint>
            <Time>2021-07-17T09:11:48.000Z</Time>
            <Position>
              <LatitudeDegrees>42.7241456508636474609375</LatitudeDegrees>
              <LongitudeDegrees>-0.2637240104377269744873046875</LongitudeDegrees>
            </Position>
            <AltitudeMeters>1353.4000244140625</AltitudeMeters>
            <DistanceMeters>1616.1060745247</DistanceMeters>
          </Trackpoint>
          <Trackpoint>
            <Time>2021-07-17T09:11:56.000Z</Time>
            <Position>
              <LatitudeDegrees>42.7240837924182415008544921875</LatitudeDegrees>
              <LongitudeDegrees>-0.26378394104540348052978515625</LongitudeDegrees>
            </Position>
            <AltitudeMeters>1353</AltitudeMeters>
            <DistanceMeters>1624.5565091004</DistanceMeters>
          </Trackpoint>
          <Trackpoint>
            <Time>2021-07-17T09:12:02.000Z</Time>
            <Position>
              <LatitudeDegrees>42.7240465767681598663330078125</LatitudeDegrees>
              <LongitudeDegrees>-0.26383574120700359344482421875</LongitudeDegrees>
            </Position>
            <AltitudeMeters>1352.199951171875</AltitudeMeters>
            <DistanceMeters>1630.4802644179</DistanceMeters>
          </Trackpoint>
          <Trackpoint>
            <Time>2021-07-17T09:12:10.000Z</Time>
            <Position>
              <LatitudeDegrees>42.723999135196208953857421875</LatitudeDegrees>
              <LongitudeDegrees>-0.26390581391751766204833984375</LongitudeDegrees>
            </Position>
            <AltitudeMeters>1351.800048828125</AltitudeMeters>
            <DistanceMeters>1638.2712960477</DistanceMeters>
          </Trackpoint>
          <Trackpoint>
            <Time>2021-07-17T09:12:18.000Z</Time>
            <Position>
              <LatitudeDegrees>42.72394423373043537139892578125</LatitudeDegrees>
              <LongitudeDegrees>-0.2639466337859630584716796875</LongitudeDegrees>
            </Position>
            <AltitudeMeters>1352</AltitudeMeters>
            <DistanceMeters>1645.2342322407</DistanceMeters>
          </Trackpoint>
          <Trackpoint>
            <Time>2021-07-17T09:12:19.000Z</Time>
            <Position>
              <LatitudeDegrees>42.72393987514078617095947265625</LatitudeDegrees>
              <LongitudeDegrees>-0.263952501118183135986328125</LongitudeDegrees>
            </Position>
            <AltitudeMeters>1352</AltitudeMeters>
            <DistanceMeters>1645.9194796231</DistanceMeters>
          </Trackpoint>
          <Trackpoint>
            <Time>2021-07-17T09:12:22.000Z</Time>
            <Position>
              <LatitudeDegrees>42.7239310741424560546875</LatitudeDegrees>
              <LongitudeDegrees>-0.2639888785779476165771484375</LongitudeDegrees>
            </Position>
            <AltitudeMeters>1351.4000244140625</AltitudeMeters>
            <DistanceMeters>1649.0510388223</DistanceMeters>
          </Trackpoint>
          <Trackpoint>
            <Time>2021-07-17T09:12:23.000Z</Time>
            <Position>
              <LatitudeDegrees>42.7239265479147434234619140625</LatitudeDegrees>
              <LongitudeDegrees>-0.26399902068078517913818359375</LongitudeDegrees>
            </Position>
            <AltitudeMeters>1351.199951171875</AltitudeMeters>
            <DistanceMeters>1650.020124964</DistanceMeters>
          </Trackpoint>
          <Trackpoint>
            <Time>2021-07-17T09:12:28.000Z</Time>
            <Position>
              <LatitudeDegrees>42.72387784905731678009033203125</LatitudeDegrees>
              <LongitudeDegrees>-0.264036990702152252197265625</LongitudeDegrees>
            </Position>
            <AltitudeMeters>1351.800048828125</AltitudeMeters>
            <DistanceMeters>1656.266640818</DistanceMeters>
          </Trackpoint>
          <Trackpoint>
            <Time>2021-07-17T09:12:30.000Z</Time>
            <Position>
              <LatitudeDegrees>42.7238608337938785552978515625</LatitudeDegrees>
              <LongitudeDegrees>-0.2640616334974765777587890625</LongitudeDegrees>
            </Position>
            <AltitudeMeters>1351.5999755859375</AltitudeMeters>
            <DistanceMeters>1659.0338605102</DistanceMeters>
          </Trackpoint>
          <Trackpoint>
            <Time>2021-07-17T09:12:33.000Z</Time>
            <Position>
              <LatitudeDegrees>42.72381297312676906585693359375</LatitudeDegrees>
              <LongitudeDegrees>-0.2641219832003116607666015625</LongitudeDegrees>
            </Position>
            <AltitudeMeters>1351.4000244140625</AltitudeMeters>
            <DistanceMeters>1666.2957918258</DistanceMeters>
          </Trackpoint>
          <Trackpoint>
            <Time>2021-07-17T09:12:41.000Z</Time>
            <Position>
              <LatitudeDegrees>42.7237059362232685089111328125</LatitudeDegrees>
              <LongitudeDegrees>-0.26419348083436489105224609375</LongitudeDegrees>
            </Position>
            <AltitudeMeters>1352.800048828125</AltitudeMeters>
            <DistanceMeters>1679.5662308091</DistanceMeters>
          </Trackpoint>
          <Trackpoint>
            <Time>2021-07-17T09:12:49.000Z</Time>
            <Position>
              <LatitudeDegrees>42.72363670170307159423828125</LatitudeDegrees>
              <LongitudeDegrees>-0.26423019357025623321533203125</LongitudeDegrees>
            </Position>
            <AltitudeMeters>1354.4000244140625</AltitudeMeters>
            <DistanceMeters>1687.8362851612</DistanceMeters>
          </Trackpoint>
          <Trackpoint>
            <Time>2021-07-17T09:12:58.000Z</Time>
            <Position>
              <LatitudeDegrees>42.7235622704029083251953125</LatitudeDegrees>
              <LongitudeDegrees>-0.26431300677359104156494140625</LongitudeDegrees>
            </Position>
            <AltitudeMeters>1355.4000244140625</AltitudeMeters>
            <DistanceMeters>1698.5359725004</DistanceMeters>
          </Trackpoint>
          <Trackpoint>
            <Time>2021-07-17T09:13:05.000Z</Time>
            <Position>
              <LatitudeDegrees>42.7235074527561664581298828125</LatitudeDegrees>
              <LongitudeDegrees>-0.26437117718160152435302734375</LongitudeDegrees>
            </Position>
            <AltitudeMeters>1356.4000244140625</AltitudeMeters>
            <DistanceMeters>1706.2723377109</DistanceMeters>
          </Trackpoint>
          <Trackpoint>
            <Time>2021-07-17T09:13:08.000Z</Time>
            <Position>
              <LatitudeDegrees>42.72347887046635150909423828125</LatitudeDegrees>
              <LongitudeDegrees>-0.26439632289111614227294921875</LongitudeDegrees>
            </Position>
            <AltitudeMeters>1357</AltitudeMeters>
            <DistanceMeters>1710.0591254516</DistanceMeters>
          </Trackpoint>
          <Trackpoint>
            <Time>2021-07-17T09:13:12.000Z</Time>
            <Position>
              <LatitudeDegrees>42.72344584576785564422607421875</LatitudeDegrees>
              <LongitudeDegrees>-0.26441744528710842132568359375</LongitudeDegrees>
            </Position>
            <AltitudeMeters>1357.800048828125</AltitudeMeters>
            <DistanceMeters>1714.1197805202</DistanceMeters>
          </Trackpoint>
          <Trackpoint>
            <Time>2021-07-17T09:13:13.000Z</Time>
            <Position>
              <LatitudeDegrees>42.7234360389411449432373046875</LatitudeDegrees>
              <LongitudeDegrees>-0.26441275142133235931396484375</LongitudeDegrees>
            </Position>
            <AltitudeMeters>1358.4000244140625</AltitudeMeters>
            <DistanceMeters>1715.2758303953</DistanceMeters>
          </Trackpoint>
          <Trackpoint>
            <Time>2021-07-17T09:13:16.000Z</Time>
            <Position>
              <LatitudeDegrees>42.72339605726301670074462890625</LatitudeDegrees>
              <LongitudeDegrees>-0.26440168730914592742919921875</LongitudeDegrees>
            </Position>
            <AltitudeMeters>1360.4000244140625</AltitudeMeters>
            <DistanceMeters>1719.8172723027</DistanceMeters>
          </Trackpoint>
          <Trackpoint>
            <Time>2021-07-17T09:13:19.000Z</Time>
            <Position>
              <LatitudeDegrees>42.72338801063597202301025390625</LatitudeDegrees>
              <LongitudeDegrees>-0.26439162902534008026123046875</LongitudeDegrees>
            </Position>
            <AltitudeMeters>1360.800048828125</AltitudeMeters>
            <DistanceMeters>1721.0304921758</DistanceMeters>
          </Trackpoint>
          <Trackpoint>
            <Time>2021-07-17T09:13:20.000Z</Time>
            <Position>
              <LatitudeDegrees>42.72338817827403545379638671875</LatitudeDegrees>
              <LongitudeDegrees>-0.26438743807375431060791015625</LongitudeDegrees>
            </Position>
            <AltitudeMeters>1361</AltitudeMeters>
            <DistanceMeters>1721.373115867</DistanceMeters>
          </Trackpoint>
          <Trackpoint>
            <Time>2021-07-17T09:13:22.000Z</Time>
            <Position>
              <LatitudeDegrees>42.72338734008371829986572265625</LatitudeDegrees>
              <LongitudeDegrees>-0.26436631567776203155517578125</LongitudeDegrees>
            </Position>
            <AltitudeMeters>1361.5999755859375</AltitudeMeters>
            <DistanceMeters>1723.0993618594</DistanceMeters>
          </Trackpoint>
          <Trackpoint>
            <Time>2021-07-17T09:13:26.000Z</Time>
            <Position>
              <LatitudeDegrees>42.723396979272365570068359375</LatitudeDegrees>
              <LongitudeDegrees>-0.26431786827743053436279296875</LongitudeDegrees>
            </Position>
            <AltitudeMeters>1362.4000244140625</AltitudeMeters>
            <DistanceMeters>1727.2042519486</DistanceMeters>
          </Trackpoint>
          <Trackpoint>
            <Time>2021-07-17T09:13:27.000Z</Time>
            <Position>
              <LatitudeDegrees>42.7234031818807125091552734375</LatitudeDegrees>
              <LongitudeDegrees>-0.264307558536529541015625</LongitudeDegrees>
            </Position>
            <AltitudeMeters>1362.4000244140625</AltitudeMeters>
            <DistanceMeters>1728.2918824071</DistanceMeters>
          </Trackpoint>
          <Trackpoint>
            <Time>2021-07-17T09:13:31.000Z</Time>
            <Position>
              <LatitudeDegrees>42.7234222926199436187744140625</LatitudeDegrees>
              <LongitudeDegrees>-0.26426271535456180572509765625</LongitudeDegrees>
            </Position>
            <AltitudeMeters>1362.800048828125</AltitudeMeters>
            <DistanceMeters>1732.5309686439</DistanceMeters>
          </Trackpoint>
          <Trackpoint>
            <Time>2021-07-17T09:13:32.000Z</Time>
            <Position>
              <LatitudeDegrees>42.72343394346535205841064453125</LatitudeDegrees>
              <LongitudeDegrees>-0.2642534114420413970947265625</LongitudeDegrees>
            </Position>
            <AltitudeMeters>1362.4000244140625</AltitudeMeters>
            <DistanceMeters>1734.0364749333</DistanceMeters>
          </Trackpoint>
          <Trackpoint>
            <Time>2021-07-17T09:13:34.000Z</Time>
            <Position>
              <LatitudeDegrees>42.72345372475683689117431640625</LatitudeDegrees>
              <LongitudeDegrees>-0.2642389945685863494873046875</LongitudeDegrees>
            </Position>
            <AltitudeMeters>1362</AltitudeMeters>
            <DistanceMeters>1736.5362375019</DistanceMeters>
          </Trackpoint>
          <Trackpoint>
            <Time>2021-07-17T09:13:36.000Z</Time>
            <Position>
              <LatitudeDegrees>42.72347040474414825439453125</LatitudeDegrees>
              <LongitudeDegrees>-0.2642262540757656097412109375</LongitudeDegrees>
            </Position>
            <AltitudeMeters>1361.5999755859375</AltitudeMeters>
            <DistanceMeters>1738.6653449146</DistanceMeters>
          </Trackpoint>
          <Trackpoint>
            <Time>2021-07-17T09:13:41.000Z</Time>
            <Position>
              <LatitudeDegrees>42.723514325916767120361328125</LatitudeDegrees>
              <LongitudeDegrees>-0.26417805813252925872802734375</LongitudeDegrees>
            </Position>
            <AltitudeMeters>1361</AltitudeMeters>
            <DistanceMeters>1744.9443029296</DistanceMeters>
          </Trackpoint>
          <Trackpoint>
            <Time>2021-07-17T09:13:43.000Z</Time>
            <Position>
              <LatitudeDegrees>42.72352245636284351348876953125</LatitudeDegrees>
              <LongitudeDegrees>-0.26415308006107807159423828125</LongitudeDegrees>
            </Position>
            <AltitudeMeters>1361.199951171875</AltitudeMeters>
            <DistanceMeters>1747.1769251989</DistanceMeters>
          </Trackpoint>
          <Trackpoint>
            <Time>2021-07-17T09:13:45.000Z</Time>
            <Position>
              <LatitudeDegrees>42.723527736961841583251953125</LatitudeDegrees>
              <LongitudeDegrees>-0.26413396932184696197509765625</LongitudeDegrees>
            </Position>
            <AltitudeMeters>1361.4000244140625</AltitudeMeters>
            <DistanceMeters>1748.8446372678</DistanceMeters>
          </Trackpoint>
          <Trackpoint>
            <Time>2021-07-17T09:13:46.000Z</Time>
            <Position>
              <LatitudeDegrees>42.72354022599756717681884765625</LatitudeDegrees>
              <LongitudeDegrees>-0.26412541978061199188232421875</LongitudeDegrees>
            </Position>
            <AltitudeMeters>1361.199951171875</AltitudeMeters>
            <DistanceMeters>1750.4002916275</DistanceMeters>
          </Trackpoint>
          <Trackpoint>
            <Time>2021-07-17T09:13:47.000Z</Time>
            <Position>
              <LatitudeDegrees>42.723552882671356201171875</LatitudeDegrees>
              <LongitudeDegrees>-0.26411016471683979034423828125</LongitudeDegrees>
            </Position>
            <AltitudeMeters>1361</AltitudeMeters>
            <DistanceMeters>1752.2793232636</DistanceMeters>
          </Trackpoint>
          <Trackpoint>
            <Time>2021-07-17T09:13:51.000Z</Time>
            <Position>
              <LatitudeDegrees>42.72358666174113750457763671875</LatitudeDegrees>
              <LongitudeDegrees>-0.2640485577285289764404296875</LongitudeDegrees>
            </Position>
            <AltitudeMeters>1361</AltitudeMeters>
            <DistanceMeters>1758.5640312414</DistanceMeters>
          </Trackpoint>
          <Trackpoint>
            <Time>2021-07-17T09:13:54.000Z</Time>
            <Position>
              <LatitudeDegrees>42.72360451519489288330078125</LatitudeDegrees>
              <LongitudeDegrees>-0.2640165388584136962890625</LongitudeDegrees>
            </Position>
            <AltitudeMeters>1361</AltitudeMeters>
            <DistanceMeters>1761.8503622392</DistanceMeters>
          </Trackpoint>
          <Trackpoint>
            <Time>2021-07-17T09:13:56.000Z</Time>
            <Position>
              <LatitudeDegrees>42.723617255687713623046875</LatitudeDegrees>
              <LongitudeDegrees>-0.26399751193821430206298828125</LongitudeDegrees>
            </Position>
            <AltitudeMeters>1361</AltitudeMeters>
            <DistanceMeters>1763.9560135717</DistanceMeters>
          </Trackpoint>
          <Trackpoint>
            <Time>2021-07-17T09:13:57.000Z</Time>
            <Position>
              <LatitudeDegrees>42.723620273172855377197265625</LatitudeDegrees>
              <LongitudeDegrees>-0.26398996822535991668701171875</LongitudeDegrees>
            </Position>
            <AltitudeMeters>1361</AltitudeMeters>
            <DistanceMeters>1764.6543144581</DistanceMeters>
          </Trackpoint>
          <Trackpoint>
            <Time>2021-07-17T09:13:58.000Z</Time>
            <Position>
              <LatitudeDegrees>42.723626978695392608642578125</LatitudeDegrees>
              <LongitudeDegrees>-0.26398477144539356231689453125</LongitudeDegrees>
            </Position>
            <AltitudeMeters>1361</AltitudeMeters>
            <DistanceMeters>1765.5148179551</DistanceMeters>
          </Trackpoint>
          <Trackpoint>
            <Time>2021-07-17T09:14:00.000Z</Time>
            <Position>
              <LatitudeDegrees>42.723639719188213348388671875</LatitudeDegrees>
              <LongitudeDegrees>-0.26396465487778186798095703125</LongitudeDegrees>
            </Position>
            <AltitudeMeters>1360.800048828125</AltitudeMeters>
            <DistanceMeters>1767.6880022501</DistanceMeters>
          </Trackpoint>
          <Trackpoint>
            <Time>2021-07-17T09:14:02.000Z</Time>
            <Position>
              <LatitudeDegrees>42.72364206612110137939453125</LatitudeDegrees>
              <LongitudeDegrees>-0.26393942534923553466796875</LongitudeDegrees>
            </Position>
            <AltitudeMeters>1361.4000244140625</AltitudeMeters>
            <DistanceMeters>1769.7655913674</DistanceMeters>
          </Trackpoint>
          <Trackpoint>
            <Time>2021-07-17T09:14:03.000Z</Time>
            <Position>
              <LatitudeDegrees>42.72365388460457324981689453125</LatitudeDegrees>
              <LongitudeDegrees>-0.26393129490315914154052734375</LongitudeDegrees>
            </Position>
            <AltitudeMeters>1361.199951171875</AltitudeMeters>
            <DistanceMeters>1771.2408026821</DistanceMeters>
          </Trackpoint>
          <Trackpoint>
            <Time>2021-07-17T09:14:06.000Z</Time>
            <Position>
              <LatitudeDegrees>42.72368959151208400726318359375</LatitudeDegrees>
              <LongitudeDegrees>-0.26389977894723415374755859375</LongitudeDegrees>
            </Position>
            <AltitudeMeters>1360.5999755859375</AltitudeMeters>
            <DistanceMeters>1775.9769097213</DistanceMeters>
          </Trackpoint>
          <Trackpoint>
            <Time>2021-07-17T09:14:07.000Z</Time>
            <Position>
              <LatitudeDegrees>42.72369411773979663848876953125</LatitudeDegrees>
              <LongitudeDegrees>-0.26388871483504772186279296875</LongitudeDegrees>
            </Position>
            <AltitudeMeters>1360.800048828125</AltitudeMeters>
            <DistanceMeters>1777.0091640603</DistanceMeters>
          </Trackpoint>
          <Trackpoint>
            <Time>2021-07-17T09:14:10.000Z</Time>
            <Position>
              <LatitudeDegrees>42.723715491592884063720703125</LatitudeDegrees>
              <LongitudeDegrees>-0.2638517506420612335205078125</LongitudeDegrees>
            </Position>
            <AltitudeMeters>1361</AltitudeMeters>
            <DistanceMeters>1780.8539313015</DistanceMeters>
          </Trackpoint>
          <Trackpoint>
            <Time>2021-07-17T09:14:13.000Z</Time>
            <Position>
              <LatitudeDegrees>42.7237283997237682342529296875</LatitudeDegrees>
              <LongitudeDegrees>-0.26381746865808963775634765625</LongitudeDegrees>
            </Position>
            <AltitudeMeters>1361.5999755859375</AltitudeMeters>
            <DistanceMeters>1784.0056108677</DistanceMeters>
          </Trackpoint>
          <Trackpoint>
            <Time>2021-07-17T09:14:16.000Z</Time>
            <Position>
              <LatitudeDegrees>42.7237324230372905731201171875</LatitudeDegrees>
              <LongitudeDegrees>-0.263782851397991180419921875</LongitudeDegrees>
            </Position>
            <AltitudeMeters>1362.4000244140625</AltitudeMeters>
            <DistanceMeters>1786.8722063334</DistanceMeters>
          </Trackpoint>
          <Trackpoint>
            <Time>2021-07-17T09:14:18.000Z</Time>
            <Position>
              <LatitudeDegrees>42.72374088875949382781982421875</LatitudeDegrees>
              <LongitudeDegrees>-0.2637561969459056854248046875</LongitudeDegrees>
            </Position>
            <AltitudeMeters>1362.800048828125</AltitudeMeters>
            <DistanceMeters>1789.2459728976</DistanceMeters>
          </Trackpoint>
          <Trackpoint>
            <Time>2021-07-17T09:14:20.000Z</Time>
            <Position>
              <LatitudeDegrees>42.72375010885298252105712890625</LatitudeDegrees>
              <LongitudeDegrees>-0.2637270279228687286376953125</LongitudeDegrees>
            </Position>
            <AltitudeMeters>1363.4000244140625</AltitudeMeters>
            <DistanceMeters>1791.8414376011</DistanceMeters>
          </Trackpoint>
          <Trackpoint>
            <Time>2021-07-17T09:14:22.000Z</Time>
            <Position>
              <LatitudeDegrees>42.72376083768904209136962890625</LatitudeDegrees>
              <LongitudeDegrees>-0.263697691261768341064453125</LongitudeDegrees>
            </Position>
            <AltitudeMeters>1364.199951171875</AltitudeMeters>
            <DistanceMeters>1794.5191008914</DistanceMeters>
          </Trackpoint>
          <Trackpoint>
            <Time>2021-07-17T09:14:24.000Z</Time>
            <Position>
              <LatitudeDegrees>42.72376033477485179901123046875</LatitudeDegrees>
              <LongitudeDegrees>-0.26367120444774627685546875</LongitudeDegrees>
            </Position>
            <AltitudeMeters>1365.199951171875</AltitudeMeters>
            <DistanceMeters>1796.6839587793</DistanceMeters>
          </Trackpoint>
          <Trackpoint>
            <Time>2021-07-17T09:14:28.000Z</Time>
            <Position>
              <LatitudeDegrees>42.72375748492777347564697265625</LatitudeDegrees>
              <LongitudeDegrees>-0.26361512951552867889404296875</LongitudeDegrees>
            </Position>
            <AltitudeMeters>1367.5999755859375</AltitudeMeters>
            <DistanceMeters>1801.2807379646</DistanceMeters>
          </Trackpoint>
          <Trackpoint>
            <Time>2021-07-17T09:14:32.000Z</Time>
            <Position>
              <LatitudeDegrees>42.723773829638957977294921875</LatitudeDegrees>
              <LongitudeDegrees>-0.26356785558164119720458984375</LongitudeDegrees>
            </Position>
            <AltitudeMeters>1368.800048828125</AltitudeMeters>
            <DistanceMeters>1805.5537713801</DistanceMeters>
          </Trackpoint>
          <Trackpoint>
            <Time>2021-07-17T09:14:33.000Z</Time>
            <Position>
              <LatitudeDegrees>42.72377483546733856201171875</LatitudeDegrees>
              <LongitudeDegrees>-0.26355586946010589599609375</LongitudeDegrees>
            </Position>
            <AltitudeMeters>1369.199951171875</AltitudeMeters>
            <DistanceMeters>1806.5367353568</DistanceMeters>
          </Trackpoint>
          <Trackpoint>
            <Time>2021-07-17T09:14:40.000Z</Time>
            <Position>
              <LatitudeDegrees>42.723791934549808502197265625</LatitudeDegrees>
              <LongitudeDegrees>-0.2634631656110286712646484375</LongitudeDegrees>
            </Position>
            <AltitudeMeters>1371.5999755859375</AltitudeMeters>
            <DistanceMeters>1814.3526465093</DistanceMeters>
          </Trackpoint>
          <Trackpoint>
            <Time>2021-07-17T09:14:43.000Z</Time>
            <Position>
              <LatitudeDegrees>42.723791599273681640625</LatitudeDegrees>
              <LongitudeDegrees>-0.263428799808025360107421875</LongitudeDegrees>
            </Position>
            <AltitudeMeters>1372.5999755859375</AltitudeMeters>
            <DistanceMeters>1817.1635746279</DistanceMeters>
          </Trackpoint>
          <Trackpoint>
            <Time>2021-07-17T09:14:45.000Z</Time>
            <Position>
              <LatitudeDegrees>42.72379520349204540252685546875</LatitudeDegrees>
              <LongitudeDegrees>-0.263402648270130157470703125</LongitudeDegrees>
            </Position>
            <AltitudeMeters>1373.5999755859375</AltitudeMeters>
            <DistanceMeters>1819.3388355449</DistanceMeters>
          </Trackpoint>
          <Trackpoint>
            <Time>2021-07-17T09:14:51.000Z</Time>
            <Position>
              <LatitudeDegrees>42.723828144371509552001953125</LatitudeDegrees>
              <LongitudeDegrees>-0.26333265937864780426025390625</LongitudeDegrees>
            </Position>
            <AltitudeMeters>1374.5999755859375</AltitudeMeters>
            <DistanceMeters>1826.1357371248</DistanceMeters>
          </Trackpoint>
          <Trackpoint>
            <Time>2021-07-17T09:14:56.000Z</Time>
            <Position>
              <LatitudeDegrees>42.72383962757885456085205078125</LatitudeDegrees>
              <LongitudeDegrees>-0.26326895691454410552978515625</LongitudeDegrees>
            </Position>
            <AltitudeMeters>1376.5999755859375</AltitudeMeters>
            <DistanceMeters>1831.4986461744</DistanceMeters>
          </Trackpoint>
          <Trackpoint>
            <Time>2021-07-17T09:14:58.000Z</Time>
            <Position>
              <LatitudeDegrees>42.723842561244964599609375</LatitudeDegrees>
              <LongitudeDegrees>-0.26324213482439517974853515625</LongitudeDegrees>
            </Position>
            <AltitudeMeters>1377.4000244140625</AltitudeMeters>
            <DistanceMeters>1833.7170671583</DistanceMeters>
          </Trackpoint>
          <Trackpoint>
            <Time>2021-07-17T09:15:05.000Z</Time>
            <Position>
              <LatitudeDegrees>42.72386326454579830169677734375</LatitudeDegrees>
              <LongitudeDegrees>-0.2631788514554500579833984375</LongitudeDegrees>
            </Position>
            <AltitudeMeters>1379</AltitudeMeters>
            <DistanceMeters>1839.3813289465</DistanceMeters>
          </Trackpoint>
          <Trackpoint>
            <Time>2021-07-17T09:15:09.000Z</Time>
            <Position>
              <LatitudeDegrees>42.723875753581523895263671875</LatitudeDegrees>
              <LongitudeDegrees>-0.26312780566513538360595703125</LongitudeDegrees>
            </Position>
            <AltitudeMeters>1380.4000244140625</AltitudeMeters>
            <DistanceMeters>1843.7803576824</DistanceMeters>
          </Trackpoint>
          <Trackpoint>
            <Time>2021-07-17T09:15:11.000Z</Time>
            <Position>
              <LatitudeDegrees>42.72388991899788379669189453125</LatitudeDegrees>
              <LongitudeDegrees>-0.263096205890178680419921875</LongitudeDegrees>
            </Position>
            <AltitudeMeters>1380.800048828125</AltitudeMeters>
            <DistanceMeters>1846.8063281902</DistanceMeters>
          </Trackpoint>
          <Trackpoint>
            <Time>2021-07-17T09:15:14.000Z</Time>
            <Position>
              <LatitudeDegrees>42.72392897866666316986083984375</LatitudeDegrees>
              <LongitudeDegrees>-0.2630705572664737701416015625</LongitudeDegrees>
            </Position>
            <AltitudeMeters>1380</AltitudeMeters>
            <DistanceMeters>1851.6330866496</DistanceMeters>
          </Trackpoint>
          <Trackpoint>
            <Time>2021-07-17T09:15:16.000Z</Time>
            <Position>
              <LatitudeDegrees>42.72395496256649494171142578125</LatitudeDegrees>
              <LongitudeDegrees>-0.26306234300136566162109375</LongitudeDegrees>
            </Position>
            <AltitudeMeters>1379</AltitudeMeters>
            <DistanceMeters>1854.6018161101</DistanceMeters>
          </Trackpoint>
          <Trackpoint>
            <Time>2021-07-17T09:15:20.000Z</Time>
            <Position>
              <LatitudeDegrees>42.723991088569164276123046875</LatitudeDegrees>
              <LongitudeDegrees>-0.2630269713699817657470703125</LongitudeDegrees>
            </Position>
            <AltitudeMeters>1379.5999755859375</AltitudeMeters>
            <DistanceMeters>1859.5541577402</DistanceMeters>
          </Trackpoint>
          <Trackpoint>
            <Time>2021-07-17T09:15:25.000Z</Time>
            <Position>
              <LatitudeDegrees>42.72403324954211711883544921875</LatitudeDegrees>
              <LongitudeDegrees>-0.26298246346414089202880859375</LongitudeDegrees>
            </Position>
            <AltitudeMeters>1380.4000244140625</AltitudeMeters>
            <DistanceMeters>1865.4923770452</DistanceMeters>
          </Trackpoint>
          <Trackpoint>
            <Time>2021-07-17T09:15:26.000Z</Time>
            <Position>
              <LatitudeDegrees>42.72404037415981292724609375</LatitudeDegrees>
              <LongitudeDegrees>-0.262977518141269683837890625</LongitudeDegrees>
            </Position>
            <AltitudeMeters>1380.4000244140625</AltitudeMeters>
            <DistanceMeters>1866.3838066425</DistanceMeters>
          </Trackpoint>
          <Trackpoint>
            <Time>2021-07-17T09:15:27.000Z</Time>
            <Position>
              <LatitudeDegrees>42.724039368331432342529296875</LatitudeDegrees>
              <LongitudeDegrees>-0.26297072879970073699951171875</LongitudeDegrees>
            </Position>
            <AltitudeMeters>1380.5999755859375</AltitudeMeters>
            <DistanceMeters>1866.9459922663</DistanceMeters>
          </Trackpoint>
          <Trackpoint>
            <Time>2021-07-17T09:15:30.000Z</Time>
            <Position>
              <LatitudeDegrees>42.72405588068068027496337890625</LatitudeDegrees>
              <LongitudeDegrees>-0.26294692419469356536865234375</LongitudeDegrees>
            </Position>
            <AltitudeMeters>1381</AltitudeMeters>
            <DistanceMeters>1869.6219688394</DistanceMeters>
          </Trackpoint>
          <Trackpoint>
            <Time>2021-07-17T09:15:32.000Z</Time>
            <Position>
              <LatitudeDegrees>42.72407650016248226165771484375</LatitudeDegrees>
              <LongitudeDegrees>-0.26293988339602947235107421875</LongitudeDegrees>
            </Position>
            <AltitudeMeters>1380.800048828125</AltitudeMeters>
            <DistanceMeters>1871.990022359</DistanceMeters>
          </Trackpoint>
          <Trackpoint>
            <Time>2021-07-17T09:15:39.000Z</Time>
            <Position>
              <LatitudeDegrees>42.7241179905831813812255859375</LatitudeDegrees>
              <LongitudeDegrees>-0.2629005722701549530029296875</LongitudeDegrees>
            </Position>
            <AltitudeMeters>1381</AltitudeMeters>
            <DistanceMeters>1877.6158927749</DistanceMeters>
          </Trackpoint>
          <Trackpoint>
            <Time>2021-07-17T09:15:44.000Z</Time>
            <Position>
              <LatitudeDegrees>42.72412360645830631256103515625</LatitudeDegrees>
              <LongitudeDegrees>-0.26284785009920597076416015625</LongitudeDegrees>
            </Position>
            <AltitudeMeters>1382.4000244140625</AltitudeMeters>
            <DistanceMeters>1881.9716005944</DistanceMeters>
          </Trackpoint>
          <Trackpoint>
            <Time>2021-07-17T09:15:51.000Z</Time>
            <Position>
              <LatitudeDegrees>42.72416719235479831695556640625</LatitudeDegrees>
              <LongitudeDegrees>-0.2627731673419475555419921875</LongitudeDegrees>
            </Position>
            <AltitudeMeters>1383.5999755859375</AltitudeMeters>
            <DistanceMeters>1889.7713201408</DistanceMeters>
          </Trackpoint>
          <Trackpoint>
            <Time>2021-07-17T09:15:52.000Z</Time>
            <Position>
              <LatitudeDegrees>42.7241652645170688629150390625</LatitudeDegrees>
              <LongitudeDegrees>-0.26275799609720706939697265625</LongitudeDegrees>
            </Position>
            <AltitudeMeters>1384.199951171875</AltitudeMeters>
            <DistanceMeters>1891.0319919673</DistanceMeters>
          </Trackpoint>
          <Trackpoint>
            <Time>2021-07-17T09:15:58.000Z</Time>
            <Position>
              <LatitudeDegrees>42.72412746213376522064208984375</LatitudeDegrees>
              <LongitudeDegrees>-0.26271021924912929534912109375</LongitudeDegrees>
            </Position>
            <AltitudeMeters>1387</AltitudeMeters>
            <DistanceMeters>1896.7738391524</DistanceMeters>
          </Trackpoint>
          <Trackpoint>
            <Time>2021-07-17T09:16:04.000Z</Time>
            <Position>
              <LatitudeDegrees>42.7240812778472900390625</LatitudeDegrees>
              <LongitudeDegrees>-0.262725390493869781494140625</LongitudeDegrees>
            </Position>
            <AltitudeMeters>1387.800048828125</AltitudeMeters>
            <DistanceMeters>1902.0629956847</DistanceMeters>
          </Trackpoint>
          <Trackpoint>
            <Time>2021-07-17T09:16:08.000Z</Time>
            <Position>
              <LatitudeDegrees>42.72404573857784271240234375</LatitudeDegrees>
              <LongitudeDegrees>-0.26273419149219989776611328125</LongitudeDegrees>
            </Position>
            <AltitudeMeters>1388.4000244140625</AltitudeMeters>
            <DistanceMeters>1906.083423129</DistanceMeters>
          </Trackpoint>
          <Trackpoint>
            <Time>2021-07-17T09:16:15.000Z</Time>
            <Position>
              <LatitudeDegrees>42.723978348076343536376953125</LatitudeDegrees>
              <LongitudeDegrees>-0.26278113014996051788330078125</LongitudeDegrees>
            </Position>
            <AltitudeMeters>1388.800048828125</AltitudeMeters>
            <DistanceMeters>1914.5092442167</DistanceMeters>
          </Trackpoint>
          <Trackpoint>
            <Time>2021-07-17T09:16:23.000Z</Time>
            <Position>
              <LatitudeDegrees>42.723917998373508453369140625</LatitudeDegrees>
              <LongitudeDegrees>-0.26285153813660144805908203125</LongitudeDegrees>
            </Position>
            <AltitudeMeters>1388.199951171875</AltitudeMeters>
            <DistanceMeters>1923.3554096269</DistanceMeters>
          </Trackpoint>
          <Trackpoint>
            <Time>2021-07-17T09:16:35.000Z</Time>
            <Position>
              <LatitudeDegrees>42.72378422319889068603515625</LatitudeDegrees>
              <LongitudeDegrees>-0.262935273349285125732421875</LongitudeDegrees>
            </Position>
            <AltitudeMeters>1390.5999755859375</AltitudeMeters>
            <DistanceMeters>1939.7435923692</DistanceMeters>
          </Trackpoint>
          <Trackpoint>
            <Time>2021-07-17T09:16:42.000Z</Time>
            <Position>
              <LatitudeDegrees>42.7237193472683429718017578125</LatitudeDegrees>
              <LongitudeDegrees>-0.26298598386347293853759765625</LongitudeDegrees>
            </Position>
            <AltitudeMeters>1391.4000244140625</AltitudeMeters>
            <DistanceMeters>1948.0702319637</DistanceMeters>
          </Trackpoint>
          <Trackpoint>
            <Time>2021-07-17T09:16:43.000Z</Time>
            <Position>
              <LatitudeDegrees>42.72371071390807628631591796875</LatitudeDegrees>
              <LongitudeDegrees>-0.262983553111553192138671875</LongitudeDegrees>
            </Position>
            <AltitudeMeters>1391.800048828125</AltitudeMeters>
            <DistanceMeters>1949.0485918684</DistanceMeters>
          </Trackpoint>
          <Trackpoint>
            <Time>2021-07-17T09:16:48.000Z</Time>
            <Position>
              <LatitudeDegrees>42.72367282770574092864990234375</LatitudeDegrees>
              <LongitudeDegrees>-0.2629812061786651611328125</LongitudeDegrees>
            </Position>
            <AltitudeMeters>1393.4000244140625</AltitudeMeters>
            <DistanceMeters>1953.268462808</DistanceMeters>
          </Trackpoint>
          <Trackpoint>
            <Time>2021-07-17T09:16:50.000Z</Time>
            <Position>
              <LatitudeDegrees>42.72366092540323734283447265625</LatitudeDegrees>
              <LongitudeDegrees>-0.2629897557199001312255859375</LongitudeDegrees>
            </Position>
            <AltitudeMeters>1393.199951171875</AltitudeMeters>
            <DistanceMeters>1954.7649450024</DistanceMeters>
          </Trackpoint>
          <Trackpoint>
            <Time>2021-07-17T09:16:56.000Z</Time>
            <Position>
              <LatitudeDegrees>42.723629660904407501220703125</LatitudeDegrees>
              <LongitudeDegrees>-0.2630403824150562286376953125</LongitudeDegrees>
            </Position>
            <AltitudeMeters>1392.4000244140625</AltitudeMeters>
            <DistanceMeters>1960.1731256209</DistanceMeters>
          </Trackpoint>
          <Trackpoint>
            <Time>2021-07-17T09:16:59.000Z</Time>
            <Position>
              <LatitudeDegrees>42.723605521023273468017578125</LatitudeDegrees>
              <LongitudeDegrees>-0.26307198219001293182373046875</LongitudeDegrees>
            </Position>
            <AltitudeMeters>1391.800048828125</AltitudeMeters>
            <DistanceMeters>1963.8998208822</DistanceMeters>
          </Trackpoint>
          <Trackpoint>
            <Time>2021-07-17T09:17:02.000Z</Time>
            <Position>
              <LatitudeDegrees>42.7235802076756954193115234375</LatitudeDegrees>
              <LongitudeDegrees>-0.26310903020203113555908203125</LongitudeDegrees>
            </Position>
            <AltitudeMeters>1391.199951171875</AltitudeMeters>
            <DistanceMeters>1968.0353939725</DistanceMeters>
          </Trackpoint>
          <Trackpoint>
            <Time>2021-07-17T09:17:11.000Z</Time>
            <Position>
              <LatitudeDegrees>42.72352195344865322113037109375</LatitudeDegrees>
              <LongitudeDegrees>-0.2632378600537776947021484375</LongitudeDegrees>
            </Position>
            <AltitudeMeters>1388.5999755859375</AltitudeMeters>
            <DistanceMeters>1980.404572813</DistanceMeters>
          </Trackpoint>
          <Trackpoint>
            <Time>2021-07-17T09:17:17.000Z</Time>
            <Position>
              <LatitudeDegrees>42.7234756015241146087646484375</LatitudeDegrees>
              <LongitudeDegrees>-0.26330550201237201690673828125</LongitudeDegrees>
            </Position>
            <AltitudeMeters>1387.800048828125</AltitudeMeters>
            <DistanceMeters>1987.9680068395</DistanceMeters>
          </Trackpoint>
          <Trackpoint>
            <Time>2021-07-17T09:17:19.000Z</Time>
            <Position>
              <LatitudeDegrees>42.7234568260610103607177734375</LatitudeDegrees>
              <LongitudeDegrees>-0.2633226849138736724853515625</LongitudeDegrees>
            </Position>
            <AltitudeMeters>1388</AltitudeMeters>
            <DistanceMeters>1990.4875591291</DistanceMeters>
          </Trackpoint>
          <Trackpoint>
            <Time>2021-07-17T09:17:30.000Z</Time>
            <Position>
              <LatitudeDegrees>42.72335548885166645050048828125</LatitudeDegrees>
              <LongitudeDegrees>-0.2634158916771411895751953125</LongitudeDegrees>
            </Position>
            <AltitudeMeters>1388.199951171875</AltitudeMeters>
            <DistanceMeters>2004.0999493905</DistanceMeters>
          </Trackpoint>
          <Trackpoint>
            <Time>2021-07-17T09:17:34.000Z</Time>
            <Position>
              <LatitudeDegrees>42.72332196123898029327392578125</LatitudeDegrees>
              <LongitudeDegrees>-0.2634527720510959625244140625</LongitudeDegrees>
            </Position>
            <AltitudeMeters>1388.199951171875</AltitudeMeters>
            <DistanceMeters>2008.8966810673</DistanceMeters>
          </Trackpoint>
          <Trackpoint>
            <Time>2021-07-17T09:17:38.000Z</Time>
            <Position>
              <LatitudeDegrees>42.72327636368572711944580078125</LatitudeDegrees>
              <LongitudeDegrees>-0.2634774148464202880859375</LongitudeDegrees>
            </Position>
            <AltitudeMeters>1388.800048828125</AltitudeMeters>
            <DistanceMeters>2014.3580309457</DistanceMeters>
          </Trackpoint>
          <Trackpoint>
            <Time>2021-07-17T09:17:47.000Z</Time>
            <Position>
              <LatitudeDegrees>42.72320444695651531219482421875</LatitudeDegrees>
              <LongitudeDegrees>-0.2635687775909900665283203125</LongitudeDegrees>
            </Position>
            <AltitudeMeters>1388.800048828125</AltitudeMeters>
            <DistanceMeters>2025.307153964</DistanceMeters>
          </Trackpoint>
          <Trackpoint>
            <Time>2021-07-17T09:17:51.000Z</Time>
            <Position>
              <LatitudeDegrees>42.72317267954349517822265625</LatitudeDegrees>
              <LongitudeDegrees>-0.26360507123172283172607421875</LongitudeDegrees>
            </Position>
            <AltitudeMeters>1388.800048828125</AltitudeMeters>
            <DistanceMeters>2029.9235357082</DistanceMeters>
          </Trackpoint>
          <Trackpoint>
            <Time>2021-07-17T09:17:56.000Z</Time>
            <Position>
              <LatitudeDegrees>42.7231242321431636810302734375</LatitudeDegrees>
              <LongitudeDegrees>-0.2636666782200336456298828125</LongitudeDegrees>
            </Position>
            <AltitudeMeters>1388.5999755859375</AltitudeMeters>
            <DistanceMeters>2037.3020403589</DistanceMeters>
          </Trackpoint>
          <Trackpoint>
            <Time>2021-07-17T09:18:05.000Z</Time>
            <Position>
              <LatitudeDegrees>42.723035551607608795166015625</LatitudeDegrees>
              <LongitudeDegrees>-0.26374085806310176849365234375</LongitudeDegrees>
            </Position>
            <AltitudeMeters>1390.4000244140625</AltitudeMeters>
            <DistanceMeters>2048.8867283612</DistanceMeters>
          </Trackpoint>
          <Trackpoint>
            <Time>2021-07-17T09:18:15.000Z</Time>
            <Position>
              <LatitudeDegrees>42.7229451946914196014404296875</LatitudeDegrees>
              <LongitudeDegrees>-0.2638359926640987396240234375</LongitudeDegrees>
            </Position>
            <AltitudeMeters>1391.800048828125</AltitudeMeters>
            <DistanceMeters>2061.6007913791</DistanceMeters>
          </Trackpoint>
          <Trackpoint>
            <Time>2021-07-17T09:18:24.000Z</Time>
            <Position>
              <LatitudeDegrees>42.72285324521362781524658203125</LatitudeDegrees>
              <LongitudeDegrees>-0.26388988830149173736572265625</LongitudeDegrees>
            </Position>
            <AltitudeMeters>1393.5999755859375</AltitudeMeters>
            <DistanceMeters>2072.7436613462</DistanceMeters>
          </Trackpoint>
          <Trackpoint>
            <Time>2021-07-17T09:18:35.000Z</Time>
            <Position>
              <LatitudeDegrees>42.722740508615970611572265625</LatitudeDegrees>
              <LongitudeDegrees>-0.2639521658420562744140625</LongitudeDegrees>
            </Position>
            <AltitudeMeters>1394.4000244140625</AltitudeMeters>
            <DistanceMeters>2086.2855516288</DistanceMeters>
          </Trackpoint>
          <Trackpoint>
            <Time>2021-07-17T09:18:44.000Z</Time>
            <Position>
              <LatitudeDegrees>42.72265844978392124176025390625</LatitudeDegrees>
              <LongitudeDegrees>-0.263963900506496429443359375</LongitudeDegrees>
            </Position>
            <AltitudeMeters>1395.4000244140625</AltitudeMeters>
            <DistanceMeters>2095.4692825692</DistanceMeters>
          </Trackpoint>
          <Trackpoint>
            <Time>2021-07-17T09:18:51.000Z</Time>
            <Position>
              <LatitudeDegrees>42.72258737124502658843994140625</LatitudeDegrees>
              <LongitudeDegrees>-0.26399197988212108612060546875</LongitudeDegrees>
            </Position>
            <AltitudeMeters>1395.5999755859375</AltitudeMeters>
            <DistanceMeters>2103.7065147742</DistanceMeters>
          </Trackpoint>
          <Trackpoint>
            <Time>2021-07-17T09:19:02.000Z</Time>
            <Position>
              <LatitudeDegrees>42.72249533794820308685302734375</LatitudeDegrees>
              <LongitudeDegrees>-0.26398502290248870849609375</LongitudeDegrees>
            </Position>
            <AltitudeMeters>1397</AltitudeMeters>
            <DistanceMeters>2113.9658798146</DistanceMeters>
          </Trackpoint>
          <Trackpoint>
            <Time>2021-07-17T09:19:10.000Z</Time>
            <Position>
              <LatitudeDegrees>42.72246365435421466827392578125</LatitudeDegrees>
              <LongitudeDegrees>-0.26390455663204193115234375</LongitudeDegrees>
            </Position>
            <AltitudeMeters>1398.800048828125</AltitudeMeters>
            <DistanceMeters>2121.4307710888</DistanceMeters>
          </Trackpoint>
          <Trackpoint>
            <Time>2021-07-17T09:19:17.000Z</Time>
            <Position>
              <LatitudeDegrees>42.72248578257858753204345703125</LatitudeDegrees>
              <LongitudeDegrees>-0.26380623690783977508544921875</LongitudeDegrees>
            </Position>
            <AltitudeMeters>1399.4000244140625</AltitudeMeters>
            <DistanceMeters>2129.839427257</DistanceMeters>
          </Trackpoint>
          <Trackpoint>
            <Time>2021-07-17T09:19:28.000Z</Time>
            <Position>
              <LatitudeDegrees>42.7225143648684024810791015625</LatitudeDegrees>
              <LongitudeDegrees>-0.26369174011051654815673828125</LongitudeDegrees>
            </Position>
            <AltitudeMeters>1400.5999755859375</AltitudeMeters>
            <DistanceMeters>2139.7276863422</DistanceMeters>
          </Trackpoint>
          <Trackpoint>
            <Time>2021-07-17T09:19:45.000Z</Time>
            <Position>
              <LatitudeDegrees>42.72252266295254230499267578125</LatitudeDegrees>
              <LongitudeDegrees>-0.26369878090918064117431640625</LongitudeDegrees>
            </Position>
            <AltitudeMeters>1400.4000244140625</AltitudeMeters>
            <DistanceMeters>2140.8194601698</DistanceMeters>
          </Trackpoint>
          <Trackpoint>
            <Time>2021-07-17T09:19:49.000Z</Time>
            <Position>
              <LatitudeDegrees>42.7225143648684024810791015625</LatitudeDegrees>
              <LongitudeDegrees>-0.26369039900600910186767578125</LongitudeDegrees>
            </Position>
            <AltitudeMeters>1400.5999755859375</AltitudeMeters>
            <DistanceMeters>2141.9715978513</DistanceMeters>
          </Trackpoint>
          <Trackpoint>
            <Time>2021-07-17T09:19:58.000Z</Time>
            <Position>
              <LatitudeDegrees>42.722513191401958465576171875</LatitudeDegrees>
              <LongitudeDegrees>-0.2636884711682796478271484375</LongitudeDegrees>
            </Position>
            <AltitudeMeters>1400.5999755859375</AltitudeMeters>
            <DistanceMeters>2142.1840840444</DistanceMeters>
          </Trackpoint>
          <Trackpoint>
            <Time>2021-07-17T09:20:00.000Z</Time>
            <Position>
              <LatitudeDegrees>42.722513191401958465576171875</LatitudeDegrees>
              <LongitudeDegrees>-0.2636884711682796478271484375</LongitudeDegrees>
            </Position>
            <AltitudeMeters>1400.5999755859375</AltitudeMeters>
            <DistanceMeters>2142.1840840444</DistanceMeters>
          </Trackpoint>
          <Trackpoint>
            <Time>2021-07-17T09:20:02.000Z</Time>
            <Position>
              <LatitudeDegrees>42.722513191401958465576171875</LatitudeDegrees>
              <LongitudeDegrees>-0.2636884711682796478271484375</LongitudeDegrees>
            </Position>
            <AltitudeMeters>1400.5999755859375</AltitudeMeters>
            <DistanceMeters>2142.1840840444</DistanceMeters>
          </Trackpoint>
          <Trackpoint>
            <Time>2021-07-17T09:20:04.000Z</Time>
            <Position>
              <LatitudeDegrees>42.722513191401958465576171875</LatitudeDegrees>
              <LongitudeDegrees>-0.2636884711682796478271484375</LongitudeDegrees>
            </Position>
            <AltitudeMeters>1400.5999755859375</AltitudeMeters>
            <DistanceMeters>2142.1840840444</DistanceMeters>
          </Trackpoint>
          <Trackpoint>
            <Time>2021-07-17T09:20:14.000Z</Time>
            <Position>
              <LatitudeDegrees>42.72250992245972156524658203125</LatitudeDegrees>
              <LongitudeDegrees>-0.26368788443505764007568359375</LongitudeDegrees>
            </Position>
            <AltitudeMeters>1400.5999755859375</AltitudeMeters>
            <DistanceMeters>2142.5521209266</DistanceMeters>
          </Trackpoint>
          <Trackpoint>
            <Time>2021-07-17T09:20:21.000Z</Time>
            <Position>
              <LatitudeDegrees>42.72250992245972156524658203125</LatitudeDegrees>
              <LongitudeDegrees>-0.26368503458797931671142578125</LongitudeDegrees>
            </Position>
            <AltitudeMeters>1400.5999755859375</AltitudeMeters>
            <DistanceMeters>2142.7848878887</DistanceMeters>
          </Trackpoint>
          <Trackpoint>
            <Time>2021-07-17T09:20:31.000Z</Time>
            <Position>
              <LatitudeDegrees>42.722512520849704742431640625</LatitudeDegrees>
              <LongitudeDegrees>-0.263679921627044677734375</LongitudeDegrees>
            </Position>
            <AltitudeMeters>1400.800048828125</AltitudeMeters>
            <DistanceMeters>2143.287721997</DistanceMeters>
          </Trackpoint>
          <Trackpoint>
            <Time>2021-07-17T09:20:34.000Z</Time>
            <Position>
              <LatitudeDegrees>42.722512520849704742431640625</LatitudeDegrees>
              <LongitudeDegrees>-0.26367849670350551605224609375</LongitudeDegrees>
            </Position>
            <AltitudeMeters>1400.800048828125</AltitudeMeters>
            <DistanceMeters>2143.4221100652</DistanceMeters>
          </Trackpoint>
          <Trackpoint>
            <Time>2021-07-17T09:20:49.000Z</Time>
            <Position>
              <LatitudeDegrees>42.72251076065003871917724609375</LatitudeDegrees>
              <LongitudeDegrees>-0.26367614977061748504638671875</LongitudeDegrees>
            </Position>
            <AltitudeMeters>1400.800048828125</AltitudeMeters>
            <DistanceMeters>2143.6908862017</DistanceMeters>
          </Trackpoint>
          <Trackpoint>
            <Time>2021-07-17T09:21:10.000Z</Time>
            <Position>
              <LatitudeDegrees>42.72250673733651638031005859375</LatitudeDegrees>
              <LongitudeDegrees>-0.263668186962604522705078125</LongitudeDegrees>
            </Position>
            <AltitudeMeters>1400.800048828125</AltitudeMeters>
            <DistanceMeters>2144.4744965629</DistanceMeters>
          </Trackpoint>
          <Trackpoint>
            <Time>2021-07-17T09:21:14.000Z</Time>
            <Position>
              <LatitudeDegrees>42.72250673733651638031005859375</LatitudeDegrees>
              <LongitudeDegrees>-0.26366625912487506866455078125</LongitudeDegrees>
            </Position>
            <AltitudeMeters>1400.800048828125</AltitudeMeters>
            <DistanceMeters>2144.6088846312</DistanceMeters>
          </Trackpoint>
          <Trackpoint>
            <Time>2021-07-17T09:21:29.000Z</Time>
            <Position>
              <LatitudeDegrees>42.72251394577324390411376953125</LatitudeDegrees>
              <LongitudeDegrees>-0.26366860605776309967041015625</LongitudeDegrees>
            </Position>
            <AltitudeMeters>1400.800048828125</AltitudeMeters>
            <DistanceMeters>2145.4373083209</DistanceMeters>
          </Trackpoint>
          <Trackpoint>
            <Time>2021-07-17T09:21:30.000Z</Time>
            <Position>
              <LatitudeDegrees>42.7225143648684024810791015625</LatitudeDegrees>
              <LongitudeDegrees>-0.26366927661001682281494140625</LongitudeDegrees>
            </Position>
            <AltitudeMeters>1400.800048828125</AltitudeMeters>
            <DistanceMeters>2145.5716963892</DistanceMeters>
          </Trackpoint>
          <Trackpoint>
            <Time>2021-07-17T09:21:35.000Z</Time>
            <Position>
              <LatitudeDegrees>42.722515203058719635009765625</LatitudeDegrees>
              <LongitudeDegrees>-0.26367246173322200775146484375</LongitudeDegrees>
            </Position>
            <AltitudeMeters>1400.800048828125</AltitudeMeters>
            <DistanceMeters>2145.8404725257</DistanceMeters>
          </Trackpoint>
          <Trackpoint>
            <Time>2021-07-17T09:21:56.000Z</Time>
            <Position>
              <LatitudeDegrees>42.72251629270613193511962890625</LatitudeDegrees>
              <LongitudeDegrees>-0.26365779340267181396484375</LongitudeDegrees>
            </Position>
            <AltitudeMeters>1401</AltitudeMeters>
            <DistanceMeters>2147.0424759495</DistanceMeters>
          </Trackpoint>
          <Trackpoint>
            <Time>2021-07-17T09:22:14.000Z</Time>
            <Position>
              <LatitudeDegrees>42.72250623442232608795166015625</LatitudeDegrees>
              <LongitudeDegrees>-0.263650417327880859375</LongitudeDegrees>
            </Position>
            <AltitudeMeters>1401</AltitudeMeters>
            <DistanceMeters>2148.3173931076</DistanceMeters>
          </Trackpoint>
          <Trackpoint>
            <Time>2021-07-17T09:22:24.000Z</Time>
            <Position>
              <LatitudeDegrees>42.72250740788877010345458984375</LatitudeDegrees>
              <LongitudeDegrees>-0.2636505849659442901611328125</LongitudeDegrees>
            </Position>
            <AltitudeMeters>1401</AltitudeMeters>
            <DistanceMeters>2148.4517811759</DistanceMeters>
          </Trackpoint>
          <Trackpoint>
            <Time>2021-07-17T09:22:26.000Z</Time>
            <Position>
              <LatitudeDegrees>42.7225083298981189727783203125</LatitudeDegrees>
              <LongitudeDegrees>-0.263650752604007720947265625</LongitudeDegrees>
            </Position>
            <AltitudeMeters>1401</AltitudeMeters>
            <DistanceMeters>2148.5861692441</DistanceMeters>
          </Trackpoint>
          <Trackpoint>
            <Time>2021-07-17T09:22:44.000Z</Time>
            <Position>
              <LatitudeDegrees>42.72251595743000507354736328125</LatitudeDegrees>
              <LongitudeDegrees>-0.26366047561168670654296875</LongitudeDegrees>
            </Position>
            <AltitudeMeters>1401</AltitudeMeters>
            <DistanceMeters>2149.7500040548</DistanceMeters>
          </Trackpoint>
          <Trackpoint>
            <Time>2021-07-17T09:22:47.000Z</Time>
            <Position>
              <LatitudeDegrees>42.72251629270613193511962890625</LatitudeDegrees>
              <LongitudeDegrees>-0.26366173289716243743896484375</LongitudeDegrees>
            </Position>
            <AltitudeMeters>1401</AltitudeMeters>
            <DistanceMeters>2149.8450307692</DistanceMeters>
          </Trackpoint>
          <Trackpoint>
            <Time>2021-07-17T09:23:20.000Z</Time>
            <Position>
              <LatitudeDegrees>42.72251998074352741241455078125</LatitudeDegrees>
              <LongitudeDegrees>-0.26366944424808025360107421875</LongitudeDegrees>
            </Position>
            <AltitudeMeters>1400.800048828125</AltitudeMeters>
            <DistanceMeters>2150.5992819316</DistanceMeters>
          </Trackpoint>
          <Trackpoint>
            <Time>2021-07-17T09:23:22.000Z</Time>
            <Position>
              <LatitudeDegrees>42.72251998074352741241455078125</LatitudeDegrees>
              <LongitudeDegrees>-0.26366944424808025360107421875</LongitudeDegrees>
            </Position>
            <AltitudeMeters>1400.800048828125</AltitudeMeters>
            <DistanceMeters>2150.5992819316</DistanceMeters>
          </Trackpoint>
          <Trackpoint>
            <Time>2021-07-17T09:23:56.000Z</Time>
            <Position>
              <LatitudeDegrees>42.72252014838159084320068359375</LatitudeDegrees>
              <LongitudeDegrees>-0.2636700309813022613525390625</LongitudeDegrees>
            </Position>
            <AltitudeMeters>1400.800048828125</AltitudeMeters>
            <DistanceMeters>2150.5992819316</DistanceMeters>
          </Trackpoint>
          <Trackpoint>
            <Time>2021-07-17T09:23:59.000Z</Time>
            <Position>
              <LatitudeDegrees>42.72252014838159084320068359375</LatitudeDegrees>
              <LongitudeDegrees>-0.26367011480033397674560546875</LongitudeDegrees>
            </Position>
            <AltitudeMeters>1400.800048828125</AltitudeMeters>
            <DistanceMeters>2150.5992819316</DistanceMeters>
          </Trackpoint>
          <Trackpoint>
            <Time>2021-07-17T09:24:04.000Z</Time>
            <Position>
              <LatitudeDegrees>42.72252014838159084320068359375</LatitudeDegrees>
              <LongitudeDegrees>-0.263670198619365692138671875</LongitudeDegrees>
            </Position>
            <AltitudeMeters>1400.800048828125</AltitudeMeters>
            <DistanceMeters>2150.5992819316</DistanceMeters>
          </Trackpoint>
          <Trackpoint>
            <Time>2021-07-17T09:24:06.000Z</Time>
            <Position>
              <LatitudeDegrees>42.72252014838159084320068359375</LatitudeDegrees>
              <LongitudeDegrees>-0.263670198619365692138671875</LongitudeDegrees>
            </Position>
            <AltitudeMeters>1400.800048828125</AltitudeMeters>
            <DistanceMeters>2150.5992819316</DistanceMeters>
          </Trackpoint>
          <Trackpoint>
            <Time>2021-07-17T09:25:06.000Z</Time>
            <Position>
              <LatitudeDegrees>42.72252081893384456634521484375</LatitudeDegrees>
              <LongitudeDegrees>-0.26367120444774627685546875</LongitudeDegrees>
            </Position>
            <AltitudeMeters>1400.800048828125</AltitudeMeters>
            <DistanceMeters>2150.7336699998</DistanceMeters>
          </Trackpoint>
          <Trackpoint>
            <Time>2021-07-17T09:25:08.000Z</Time>
            <Position>
              <LatitudeDegrees>42.72252081893384456634521484375</LatitudeDegrees>
              <LongitudeDegrees>-0.26367120444774627685546875</LongitudeDegrees>
            </Position>
            <AltitudeMeters>1400.800048828125</AltitudeMeters>
            <DistanceMeters>2150.7336699998</DistanceMeters>
          </Trackpoint>
          <Trackpoint>
            <Time>2021-07-17T09:25:14.000Z</Time>
            <Position>
              <LatitudeDegrees>42.72252090275287628173828125</LatitudeDegrees>
              <LongitudeDegrees>-0.2636713720858097076416015625</LongitudeDegrees>
            </Position>
            <AltitudeMeters>1400.800048828125</AltitudeMeters>
            <DistanceMeters>2150.7336699998</DistanceMeters>
          </Trackpoint>
          <Trackpoint>
            <Time>2021-07-17T09:25:15.000Z</Time>
            <Position>
              <LatitudeDegrees>42.72252090275287628173828125</LatitudeDegrees>
              <LongitudeDegrees>-0.2636713720858097076416015625</LongitudeDegrees>
            </Position>
            <AltitudeMeters>1400.800048828125</AltitudeMeters>
            <DistanceMeters>2150.7336699998</DistanceMeters>
          </Trackpoint>
          <Trackpoint>
            <Time>2021-07-17T09:25:17.000Z</Time>
            <Position>
              <LatitudeDegrees>42.72252090275287628173828125</LatitudeDegrees>
              <LongitudeDegrees>-0.26367145590484142303466796875</LongitudeDegrees>
            </Position>
            <AltitudeMeters>1400.800048828125</AltitudeMeters>
            <DistanceMeters>2150.7336699998</DistanceMeters>
          </Trackpoint>
          <Trackpoint>
            <Time>2021-07-17T09:25:18.000Z</Time>
            <Position>
              <LatitudeDegrees>42.72252090275287628173828125</LatitudeDegrees>
              <LongitudeDegrees>-0.26367145590484142303466796875</LongitudeDegrees>
            </Position>
            <AltitudeMeters>1400.800048828125</AltitudeMeters>
            <DistanceMeters>2150.7336699998</DistanceMeters>
          </Trackpoint>
          <Trackpoint>
            <Time>2021-07-17T09:25:21.000Z</Time>
            <Position>
              <LatitudeDegrees>42.72252090275287628173828125</LatitudeDegrees>
              <LongitudeDegrees>-0.263671539723873138427734375</LongitudeDegrees>
            </Position>
            <AltitudeMeters>1400.800048828125</AltitudeMeters>
            <DistanceMeters>2150.7336699998</DistanceMeters>
          </Trackpoint>
          <Trackpoint>
            <Time>2021-07-17T09:25:35.000Z</Time>
            <Position>
              <LatitudeDegrees>42.72252090275287628173828125</LatitudeDegrees>
              <LongitudeDegrees>-0.26367179118096828460693359375</LongitudeDegrees>
            </Position>
            <AltitudeMeters>1400.800048828125</AltitudeMeters>
            <DistanceMeters>2150.7336699998</DistanceMeters>
          </Trackpoint>
          <Trackpoint>
            <Time>2021-07-17T09:25:37.000Z</Time>
            <Position>
              <LatitudeDegrees>42.72252081893384456634521484375</LatitudeDegrees>
              <LongitudeDegrees>-0.26367179118096828460693359375</LongitudeDegrees>
            </Position>
            <AltitudeMeters>1400.800048828125</AltitudeMeters>
            <DistanceMeters>2150.7336699998</DistanceMeters>
          </Trackpoint>
          <Trackpoint>
            <Time>2021-07-17T09:25:51.000Z</Time>
            <Position>
              <LatitudeDegrees>42.7225207351148128509521484375</LatitudeDegrees>
              <LongitudeDegrees>-0.263672210276126861572265625</LongitudeDegrees>
            </Position>
            <AltitudeMeters>1400.800048828125</AltitudeMeters>
            <DistanceMeters>2150.7336699998</DistanceMeters>
          </Trackpoint>
          <Trackpoint>
            <Time>2021-07-17T09:25:57.000Z</Time>
            <Position>
              <LatitudeDegrees>42.7225207351148128509521484375</LatitudeDegrees>
              <LongitudeDegrees>-0.2636723779141902923583984375</LongitudeDegrees>
            </Position>
            <AltitudeMeters>1400.800048828125</AltitudeMeters>
            <DistanceMeters>2150.7336699998</DistanceMeters>
          </Trackpoint>
          <Trackpoint>
            <Time>2021-07-17T09:26:14.000Z</Time>
            <Position>
              <LatitudeDegrees>42.7225203998386859893798828125</LatitudeDegrees>
              <LongitudeDegrees>-0.26367279700934886932373046875</LongitudeDegrees>
            </Position>
            <AltitudeMeters>1400.800048828125</AltitudeMeters>
            <DistanceMeters>2150.8286967142</DistanceMeters>
          </Trackpoint>
          <Trackpoint>
            <Time>2021-07-17T09:26:39.000Z</Time>
            <Position>
              <LatitudeDegrees>42.72251998074352741241455078125</LatitudeDegrees>
              <LongitudeDegrees>-0.26367329992353916168212890625</LongitudeDegrees>
            </Position>
            <AltitudeMeters>1400.800048828125</AltitudeMeters>
            <DistanceMeters>2150.8286967142</DistanceMeters>
          </Trackpoint>
          <Trackpoint>
            <Time>2021-07-17T09:26:42.000Z</Time>
            <Position>
              <LatitudeDegrees>42.722519896924495697021484375</LatitudeDegrees>
              <LongitudeDegrees>-0.26367346756160259246826171875</LongitudeDegrees>
            </Position>
            <AltitudeMeters>1400.800048828125</AltitudeMeters>
            <DistanceMeters>2150.8286967142</DistanceMeters>
          </Trackpoint>
          <Trackpoint>
            <Time>2021-07-17T09:27:12.000Z</Time>
            <Position>
              <LatitudeDegrees>42.72251956164836883544921875</LatitudeDegrees>
              <LongitudeDegrees>-0.26367430575191974639892578125</LongitudeDegrees>
            </Position>
            <AltitudeMeters>1400.800048828125</AltitudeMeters>
            <DistanceMeters>2150.9630847824</DistanceMeters>
          </Trackpoint>
          <Trackpoint>
            <Time>2021-07-17T09:27:19.000Z</Time>
            <Position>
              <LatitudeDegrees>42.72251947782933712005615234375</LatitudeDegrees>
              <LongitudeDegrees>-0.2636743895709514617919921875</LongitudeDegrees>
            </Position>
            <AltitudeMeters>1400.800048828125</AltitudeMeters>
            <DistanceMeters>2150.9630847824</DistanceMeters>
          </Trackpoint>
          <Trackpoint>
            <Time>2021-07-17T09:27:43.000Z</Time>
            <Position>
              <LatitudeDegrees>42.7225619740784168243408203125</LatitudeDegrees>
              <LongitudeDegrees>-0.2636167220771312713623046875</LongitudeDegrees>
            </Position>
            <AltitudeMeters>1401.199951171875</AltitudeMeters>
            <DistanceMeters>2157.6413740512</DistanceMeters>
          </Trackpoint>
          <Trackpoint>
            <Time>2021-07-17T09:27:52.000Z</Time>
            <Position>
              <LatitudeDegrees>42.72261679172515869140625</LatitudeDegrees>
              <LongitudeDegrees>-0.26352074928581714630126953125</LongitudeDegrees>
            </Position>
            <AltitudeMeters>1401.800048828125</AltitudeMeters>
            <DistanceMeters>2167.5815499274</DistanceMeters>
          </Trackpoint>
          <Trackpoint>
            <Time>2021-07-17T09:27:57.000Z</Time>
            <Position>
              <LatitudeDegrees>42.7226317115128040313720703125</LatitudeDegrees>
              <LongitudeDegrees>-0.26348076760768890380859375</LongitudeDegrees>
            </Position>
            <AltitudeMeters>1402.199951171875</AltitudeMeters>
            <DistanceMeters>2171.2496303383</DistanceMeters>
          </Trackpoint>
          <Trackpoint>
            <Time>2021-07-17T09:28:00.000Z</Time>
            <Position>
              <LatitudeDegrees>42.72264654748141765594482421875</LatitudeDegrees>
              <LongitudeDegrees>-0.2634631656110286712646484375</LongitudeDegrees>
            </Position>
            <AltitudeMeters>1402.199951171875</AltitudeMeters>
            <DistanceMeters>2173.4393724674</DistanceMeters>
          </Trackpoint>
          <Trackpoint>
            <Time>2021-07-17T09:28:06.000Z</Time>
            <Position>
              <LatitudeDegrees>42.72263481281697750091552734375</LatitudeDegrees>
              <LongitudeDegrees>-0.26345704682171344757080078125</LongitudeDegrees>
            </Position>
            <AltitudeMeters>1402.4000244140625</AltitudeMeters>
            <DistanceMeters>2174.8359742402</DistanceMeters>
          </Trackpoint>
          <Trackpoint>
            <Time>2021-07-17T09:28:08.000Z</Time>
            <Position>
              <LatitudeDegrees>42.7226343937218189239501953125</LatitudeDegrees>
              <LongitudeDegrees>-0.26345662772655487060546875</LongitudeDegrees>
            </Position>
            <AltitudeMeters>1402.4000244140625</AltitudeMeters>
            <DistanceMeters>2174.8359742402</DistanceMeters>
          </Trackpoint>
          <Trackpoint>
            <Time>2021-07-17T09:28:11.000Z</Time>
            <Position>
              <LatitudeDegrees>42.722640931606292724609375</LatitudeDegrees>
              <LongitudeDegrees>-0.263457633554935455322265625</LongitudeDegrees>
            </Position>
            <AltitudeMeters>1402.4000244140625</AltitudeMeters>
            <DistanceMeters>2175.5596761359</DistanceMeters>
          </Trackpoint>
          <Trackpoint>
            <Time>2021-07-17T09:28:12.000Z</Time>
            <Position>
              <LatitudeDegrees>42.72264654748141765594482421875</LatitudeDegrees>
              <LongitudeDegrees>-0.26345352642238140106201171875</LongitudeDegrees>
            </Position>
            <AltitudeMeters>1402.4000244140625</AltitudeMeters>
            <DistanceMeters>2176.2579770223</DistanceMeters>
          </Trackpoint>
          <Trackpoint>
            <Time>2021-07-17T09:28:14.000Z</Time>
            <Position>
              <LatitudeDegrees>42.7226568572223186492919921875</LatitudeDegrees>
              <LongitudeDegrees>-0.2634407021105289459228515625</LongitudeDegrees>
            </Position>
            <AltitudeMeters>1402.4000244140625</AltitudeMeters>
            <DistanceMeters>2177.813631382</DistanceMeters>
          </Trackpoint>
          <Trackpoint>
            <Time>2021-07-17T09:28:16.000Z</Time>
            <Position>
              <LatitudeDegrees>42.72267202846705913543701171875</LatitudeDegrees>
              <LongitudeDegrees>-0.263422764837741851806640625</LongitudeDegrees>
            </Position>
            <AltitudeMeters>1402.4000244140625</AltitudeMeters>
            <DistanceMeters>2180.0502945998</DistanceMeters>
          </Trackpoint>
          <Trackpoint>
            <Time>2021-07-17T09:28:18.000Z</Time>
            <Position>
              <LatitudeDegrees>42.7226809971034526824951171875</LatitudeDegrees>
              <LongitudeDegrees>-0.2634142152965068817138671875</LongitudeDegrees>
            </Position>
            <AltitudeMeters>1402.5999755859375</AltitudeMeters>
            <DistanceMeters>2181.2709348471</DistanceMeters>
          </Trackpoint>
          <Trackpoint>
            <Time>2021-07-17T09:28:19.000Z</Time>
            <Position>
              <LatitudeDegrees>42.722690217196941375732421875</LatitudeDegrees>
              <LongitudeDegrees>-0.2634075097739696502685546875</LongitudeDegrees>
            </Position>
            <AltitudeMeters>1402.5999755859375</AltitudeMeters>
            <DistanceMeters>2182.4347696578</DistanceMeters>
          </Trackpoint>
          <Trackpoint>
            <Time>2021-07-17T09:28:22.000Z</Time>
            <Position>
              <LatitudeDegrees>42.72271896712481975555419921875</LatitudeDegrees>
              <LongitudeDegrees>-0.26337750256061553955078125</LongitudeDegrees>
            </Position>
            <AltitudeMeters>1402.5999755859375</AltitudeMeters>
            <DistanceMeters>2186.4686508846</DistanceMeters>
          </Trackpoint>
          <Trackpoint>
            <Time>2021-07-17T09:28:26.000Z</Time>
            <Position>
              <LatitudeDegrees>42.7227467112243175506591796875</LatitudeDegrees>
              <LongitudeDegrees>-0.2633397839963436126708984375</LongitudeDegrees>
            </Position>
            <AltitudeMeters>1402.800048828125</AltitudeMeters>
            <DistanceMeters>2190.8336779518</DistanceMeters>
          </Trackpoint>
          <Trackpoint>
            <Time>2021-07-17T09:28:33.000Z</Time>
            <Position>
              <LatitudeDegrees>42.7228114195168018341064453125</LatitudeDegrees>
              <LongitudeDegrees>-0.26327901519834995269775390625</LongitudeDegrees>
            </Position>
            <AltitudeMeters>1403</AltitudeMeters>
            <DistanceMeters>2199.5833629799</DistanceMeters>
          </Trackpoint>
          <Trackpoint>
            <Time>2021-07-17T09:28:37.000Z</Time>
            <Position>
              <LatitudeDegrees>42.72284209728240966796875</LatitudeDegrees>
              <LongitudeDegrees>-0.26324263773858547210693359375</LongitudeDegrees>
            </Position>
            <AltitudeMeters>1403.199951171875</AltitudeMeters>
            <DistanceMeters>2204.1118620253</DistanceMeters>
          </Trackpoint>
          <Trackpoint>
            <Time>2021-07-17T09:28:48.000Z</Time>
            <Position>
              <LatitudeDegrees>42.72290957160294055938720703125</LatitudeDegrees>
              <LongitudeDegrees>-0.26313601993024349212646484375</LongitudeDegrees>
            </Position>
            <AltitudeMeters>1403.4000244140625</AltitudeMeters>
            <DistanceMeters>2215.6183376291</DistanceMeters>
          </Trackpoint>
          <Trackpoint>
            <Time>2021-07-17T09:28:50.000Z</Time>
            <Position>
              <LatitudeDegrees>42.722916193306446075439453125</LatitudeDegrees>
              <LongitudeDegrees>-0.2631329186260700225830078125</LongitudeDegrees>
            </Position>
            <AltitudeMeters>1403.4000244140625</AltitudeMeters>
            <DistanceMeters>2216.4019479903</DistanceMeters>
          </Trackpoint>
          <Trackpoint>
            <Time>2021-07-17T09:28:53.000Z</Time>
            <Position>
              <LatitudeDegrees>42.72291325964033603668212890625</LatitudeDegrees>
              <LongitudeDegrees>-0.26313032023608684539794921875</LongitudeDegrees>
            </Position>
            <AltitudeMeters>1403.4000244140625</AltitudeMeters>
            <DistanceMeters>2216.7937531709</DistanceMeters>
          </Trackpoint>
          <Trackpoint>
            <Time>2021-07-17T09:28:54.000Z</Time>
            <Position>
              <LatitudeDegrees>42.7229140140116214752197265625</LatitudeDegrees>
              <LongitudeDegrees>-0.26312864385545253753662109375</LongitudeDegrees>
            </Position>
            <AltitudeMeters>1403.4000244140625</AltitudeMeters>
            <DistanceMeters>2216.9281412392</DistanceMeters>
          </Trackpoint>
          <Trackpoint>
            <Time>2021-07-17T09:29:02.000Z</Time>
            <Position>
              <LatitudeDegrees>42.72296212613582611083984375</LatitudeDegrees>
              <LongitudeDegrees>-0.26305161416530609130859375</LongitudeDegrees>
            </Position>
            <AltitudeMeters>1403.5999755859375</AltitudeMeters>
            <DistanceMeters>2225.1954653894</DistanceMeters>
          </Trackpoint>
          <Trackpoint>
            <Time>2021-07-17T09:29:13.000Z</Time>
            <Position>
              <LatitudeDegrees>42.72304334677755832672119140625</LatitudeDegrees>
              <LongitudeDegrees>-0.26292680762708187103271484375</LongitudeDegrees>
            </Position>
            <AltitudeMeters>1404.5999755859375</AltitudeMeters>
            <DistanceMeters>2238.8287358498</DistanceMeters>
          </Trackpoint>
          <Trackpoint>
            <Time>2021-07-17T09:29:22.000Z</Time>
            <Position>
              <LatitudeDegrees>42.72312046028673648834228515625</LatitudeDegrees>
              <LongitudeDegrees>-0.2628127299249172210693359375</LongitudeDegrees>
            </Position>
            <AltitudeMeters>1406.199951171875</AltitudeMeters>
            <DistanceMeters>2251.5043877134</DistanceMeters>
          </Trackpoint>
          <Trackpoint>
            <Time>2021-07-17T09:29:27.000Z</Time>
            <Position>
              <LatitudeDegrees>42.7231604419648647308349609375</LatitudeDegrees>
              <LongitudeDegrees>-0.2627496980130672454833984375</LongitudeDegrees>
            </Position>
            <AltitudeMeters>1407.199951171875</AltitudeMeters>
            <DistanceMeters>2258.3125726688</DistanceMeters>
          </Trackpoint>
          <Trackpoint>
            <Time>2021-07-17T09:29:31.000Z</Time>
            <Position>
              <LatitudeDegrees>42.72318416275084018707275390625</LatitudeDegrees>
              <LongitudeDegrees>-0.26269597001373767852783203125</LongitudeDegrees>
            </Position>
            <AltitudeMeters>1408.199951171875</AltitudeMeters>
            <DistanceMeters>2263.4369713944</DistanceMeters>
          </Trackpoint>
          <Trackpoint>
            <Time>2021-07-17T09:29:39.000Z</Time>
            <Position>
              <LatitudeDegrees>42.72324015386402606964111328125</LatitudeDegrees>
              <LongitudeDegrees>-0.2625954709947109222412109375</LongitudeDegrees>
            </Position>
            <AltitudeMeters>1410</AltitudeMeters>
            <DistanceMeters>2273.7498875851</DistanceMeters>
          </Trackpoint>
          <Trackpoint>
            <Time>2021-07-17T09:29:40.000Z</Time>
            <Position>
              <LatitudeDegrees>42.723244763910770416259765625</LatitudeDegrees>
              <LongitudeDegrees>-0.26258113794028759002685546875</LongitudeDegrees>
            </Position>
            <AltitudeMeters>1410.4000244140625</AltitudeMeters>
            <DistanceMeters>2275.0248047431</DistanceMeters>
          </Trackpoint>
          <Trackpoint>
            <Time>2021-07-17T09:29:44.000Z</Time>
            <Position>
              <LatitudeDegrees>42.7232523076236248016357421875</LatitudeDegrees>
              <LongitudeDegrees>-0.262550376355648040771484375</LongitudeDegrees>
            </Position>
            <AltitudeMeters>1411</AltitudeMeters>
            <DistanceMeters>2277.6770546465</DistanceMeters>
          </Trackpoint>
          <Trackpoint>
            <Time>2021-07-17T09:29:47.000Z</Time>
            <Position>
              <LatitudeDegrees>42.72325390018522739410400390625</LatitudeDegrees>
              <LongitudeDegrees>-0.26253931224346160888671875</LongitudeDegrees>
            </Position>
            <AltitudeMeters>1411.199951171875</AltitudeMeters>
            <DistanceMeters>2278.5983728248</DistanceMeters>
          </Trackpoint>
          <Trackpoint>
            <Time>2021-07-17T09:29:51.000Z</Time>
            <Position>
              <LatitudeDegrees>42.7232484519481658935546875</LatitudeDegrees>
              <LongitudeDegrees>-0.26252196170389652252197265625</LongitudeDegrees>
            </Position>
            <AltitudeMeters>1411.4000244140625</AltitudeMeters>
            <DistanceMeters>2280.1423741789</DistanceMeters>
          </Trackpoint>
          <Trackpoint>
            <Time>2021-07-17T09:29:53.000Z</Time>
            <Position>
              <LatitudeDegrees>42.72324644029140472412109375</LatitudeDegrees>
              <LongitudeDegrees>-0.26251374743878841400146484375</LongitudeDegrees>
            </Position>
            <AltitudeMeters>1411.5999755859375</AltitudeMeters>
            <DistanceMeters>2280.8534889944</DistanceMeters>
          </Trackpoint>
          <Trackpoint>
            <Time>2021-07-17T09:29:54.000Z</Time>
            <Position>
              <LatitudeDegrees>42.72324836812913417816162109375</LatitudeDegrees>
              <LongitudeDegrees>-0.26250385679304599761962890625</LongitudeDegrees>
            </Position>
            <AltitudeMeters>1411.800048828125</AltitudeMeters>
            <DistanceMeters>2281.6819126841</DistanceMeters>
          </Trackpoint>
          <Trackpoint>
            <Time>2021-07-17T09:30:02.000Z</Time>
            <Position>
              <LatitudeDegrees>42.72322607226669788360595703125</LatitudeDegrees>
              <LongitudeDegrees>-0.26239044964313507080078125</LongitudeDegrees>
            </Position>
            <AltitudeMeters>1413.4000244140625</AltitudeMeters>
            <DistanceMeters>2291.2810220196</DistanceMeters>
          </Trackpoint>
          <Trackpoint>
            <Time>2021-07-17T09:30:13.000Z</Time>
            <Position>
              <LatitudeDegrees>42.72318030707538127899169921875</LatitudeDegrees>
              <LongitudeDegrees>-0.26224334724247455596923828125</LongitudeDegrees>
            </Position>
            <AltitudeMeters>1414.199951171875</AltitudeMeters>
            <DistanceMeters>2304.3433072105</DistanceMeters>
          </Trackpoint>
          <Trackpoint>
            <Time>2021-07-17T09:30:17.000Z</Time>
            <Position>
              <LatitudeDegrees>42.72317259572446346282958984375</LatitudeDegrees>
              <LongitudeDegrees>-0.2621790580451488494873046875</LongitudeDegrees>
            </Position>
            <AltitudeMeters>1414.4000244140625</AltitudeMeters>
            <DistanceMeters>2309.6698914994</DistanceMeters>
          </Trackpoint>
          <Trackpoint>
            <Time>2021-07-17T09:30:20.000Z</Time>
            <Position>
              <LatitudeDegrees>42.7231651358306407928466796875</LatitudeDegrees>
              <LongitudeDegrees>-0.26212516240775585174560546875</LongitudeDegrees>
            </Position>
            <AltitudeMeters>1414.5999755859375</AltitudeMeters>
            <DistanceMeters>2314.155313477</DistanceMeters>
          </Trackpoint>
          <Trackpoint>
            <Time>2021-07-17T09:30:28.000Z</Time>
            <Position>
              <LatitudeDegrees>42.7231357991695404052734375</LatitudeDegrees>
              <LongitudeDegrees>-0.2620080672204494476318359375</LongitudeDegrees>
            </Position>
            <AltitudeMeters>1415.199951171875</AltitudeMeters>
            <DistanceMeters>2324.271084642</DistanceMeters>
          </Trackpoint>
          <Trackpoint>
            <Time>2021-07-17T09:30:30.000Z</Time>
            <Position>
              <LatitudeDegrees>42.7231197059154510498046875</LatitudeDegrees>
              <LongitudeDegrees>-0.26198518462479114532470703125</LongitudeDegrees>
            </Position>
            <AltitudeMeters>1415.199951171875</AltitudeMeters>
            <DistanceMeters>2326.8613253254</DistanceMeters>
          </Trackpoint>
          <Trackpoint>
            <Time>2021-07-17T09:30:31.000Z</Time>
            <Position>
              <LatitudeDegrees>42.72311207838356494903564453125</LatitudeDegrees>
              <LongitudeDegrees>-0.26197127066552639007568359375</LongitudeDegrees>
            </Position>
            <AltitudeMeters>1415.199951171875</AltitudeMeters>
            <DistanceMeters>2328.2835549565</DistanceMeters>
          </Trackpoint>
          <Trackpoint>
            <Time>2021-07-17T09:30:36.000Z</Time>
            <Position>
              <LatitudeDegrees>42.72307083941996097564697265625</LatitudeDegrees>
              <LongitudeDegrees>-0.26191846467554569244384765625</LongitudeDegrees>
            </Position>
            <AltitudeMeters>1415.199951171875</AltitudeMeters>
            <DistanceMeters>2334.5840482743</DistanceMeters>
          </Trackpoint>
          <Trackpoint>
            <Time>2021-07-17T09:30:43.000Z</Time>
            <Position>
              <LatitudeDegrees>42.7230139262974262237548828125</LatitudeDegrees>
              <LongitudeDegrees>-0.26182944886386394500732421875</LongitudeDegrees>
            </Position>
            <AltitudeMeters>1415.800048828125</AltitudeMeters>
            <DistanceMeters>2344.232886968</DistanceMeters>
          </Trackpoint>
          <Trackpoint>
            <Time>2021-07-17T09:30:46.000Z</Time>
            <Position>
              <LatitudeDegrees>42.722993977367877960205078125</LatitudeDegrees>
              <LongitudeDegrees>-0.2617928199470043182373046875</LongitudeDegrees>
            </Position>
            <AltitudeMeters>1416</AltitudeMeters>
            <DistanceMeters>2347.9620045209</DistanceMeters>
          </Trackpoint>
          <Trackpoint>
            <Time>2021-07-17T09:30:49.000Z</Time>
            <Position>
              <LatitudeDegrees>42.72297863848507404327392578125</LatitudeDegrees>
              <LongitudeDegrees>-0.261761136353015899658203125</LongitudeDegrees>
            </Position>
            <AltitudeMeters>1416.199951171875</AltitudeMeters>
            <DistanceMeters>2351.0631384124</DistanceMeters>
          </Trackpoint>
          <Trackpoint>
            <Time>2021-07-17T09:30:50.000Z</Time>
            <Position>
              <LatitudeDegrees>42.72297687828540802001953125</LatitudeDegrees>
              <LongitudeDegrees>-0.26174780912697315216064453125</LongitudeDegrees>
            </Position>
            <AltitudeMeters>1416.4000244140625</AltitudeMeters>
            <DistanceMeters>2352.179449547</DistanceMeters>
          </Trackpoint>
          <Trackpoint>
            <Time>2021-07-17T09:30:54.000Z</Time>
            <Position>
              <LatitudeDegrees>42.72297956049442291259765625</LatitudeDegrees>
              <LongitudeDegrees>-0.2616991102695465087890625</LongitudeDegrees>
            </Position>
            <AltitudeMeters>1416.5999755859375</AltitudeMeters>
            <DistanceMeters>2356.17396392</DistanceMeters>
          </Trackpoint>
          <Trackpoint>
            <Time>2021-07-17T09:30:57.000Z</Time>
            <Position>
              <LatitudeDegrees>42.72298266179859638214111328125</LatitudeDegrees>
              <LongitudeDegrees>-0.26166248135268688201904296875</LongitudeDegrees>
            </Position>
            <AltitudeMeters>1416.800048828125</AltitudeMeters>
            <DistanceMeters>2359.1894716682</DistanceMeters>
          </Trackpoint>
          <Trackpoint>
            <Time>2021-07-17T09:31:07.000Z</Time>
            <Position>
              <LatitudeDegrees>42.7230290137231349945068359375</LatitudeDegrees>
              <LongitudeDegrees>-0.26149802841246128082275390625</LongitudeDegrees>
            </Position>
            <AltitudeMeters>1418</AltitudeMeters>
            <DistanceMeters>2373.5918980608</DistanceMeters>
          </Trackpoint>
          <Trackpoint>
            <Time>2021-07-17T09:31:10.000Z</Time>
            <Position>
              <LatitudeDegrees>42.723042257130146026611328125</LatitudeDegrees>
              <LongitudeDegrees>-0.26147455908358097076416015625</LongitudeDegrees>
            </Position>
            <AltitudeMeters>1418.4000244140625</AltitudeMeters>
            <DistanceMeters>2376.0108832893</DistanceMeters>
          </Trackpoint>
          <Trackpoint>
            <Time>2021-07-17T09:31:15.000Z</Time>
            <Position>
              <LatitudeDegrees>42.72308290936052799224853515625</LatitudeDegrees>
              <LongitudeDegrees>-0.26141923852264881134033203125</LongitudeDegrees>
            </Position>
            <AltitudeMeters>1419.199951171875</AltitudeMeters>
            <DistanceMeters>2382.4080941224</DistanceMeters>
          </Trackpoint>
          <Trackpoint>
            <Time>2021-07-17T09:31:21.000Z</Time>
            <Position>
              <LatitudeDegrees>42.723132111132144927978515625</LatitudeDegrees>
              <LongitudeDegrees>-0.2613747306168079376220703125</LongitudeDegrees>
            </Position>
            <AltitudeMeters>1420</AltitudeMeters>
            <DistanceMeters>2388.9828166213</DistanceMeters>
          </Trackpoint>
          <Trackpoint>
            <Time>2021-07-17T09:31:27.000Z</Time>
            <Position>
              <LatitudeDegrees>42.723179049789905548095703125</LatitudeDegrees>
              <LongitudeDegrees>-0.26134715415537357330322265625</LongitudeDegrees>
            </Position>
            <AltitudeMeters>1420.800048828125</AltitudeMeters>
            <DistanceMeters>2394.6717351455</DistanceMeters>
          </Trackpoint>
          <Trackpoint>
            <Time>2021-07-17T09:31:35.000Z</Time>
            <Position>
              <LatitudeDegrees>42.7232492901384830474853515625</LatitudeDegrees>
              <LongitudeDegrees>-0.26136391796171665191650390625</LongitudeDegrees>
            </Position>
            <AltitudeMeters>1421.800048828125</AltitudeMeters>
            <DistanceMeters>2402.608599342</DistanceMeters>
          </Trackpoint>
          <Trackpoint>
            <Time>2021-07-17T09:31:45.000Z</Time>
            <Position>
              <LatitudeDegrees>42.723347358405590057373046875</LatitudeDegrees>
              <LongitudeDegrees>-0.2614132873713970184326171875</LongitudeDegrees>
            </Position>
            <AltitudeMeters>1422.5999755859375</AltitudeMeters>
            <DistanceMeters>2414.2465594976</DistanceMeters>
          </Trackpoint>
          <Trackpoint>
            <Time>2021-07-17T09:31:54.000Z</Time>
            <Position>
              <LatitudeDegrees>42.72343218326568603515625</LatitudeDegrees>
              <LongitudeDegrees>-0.26145729236304759979248046875</LongitudeDegrees>
            </Position>
            <AltitudeMeters>1422.800048828125</AltitudeMeters>
            <DistanceMeters>2424.3502723893</DistanceMeters>
          </Trackpoint>
          <Trackpoint>
            <Time>2021-07-17T09:32:03.000Z</Time>
            <Position>
              <LatitudeDegrees>42.7235208638012409210205078125</LatitudeDegrees>
              <LongitudeDegrees>-0.26142728514969348907470703125</LongitudeDegrees>
            </Position>
            <AltitudeMeters>1423.800048828125</AltitudeMeters>
            <DistanceMeters>2434.5212387024</DistanceMeters>
          </Trackpoint>
          <Trackpoint>
            <Time>2021-07-17T09:32:09.000Z</Time>
            <Position>
              <LatitudeDegrees>42.72354274056851863861083984375</LatitudeDegrees>
              <LongitudeDegrees>-0.26136894710361957550048828125</LongitudeDegrees>
            </Position>
            <AltitudeMeters>1424.5999755859375</AltitudeMeters>
            <DistanceMeters>2439.8765652831</DistanceMeters>
          </Trackpoint>
          <Trackpoint>
            <Time>2021-07-17T09:32:11.000Z</Time>
            <Position>
              <LatitudeDegrees>42.72354743443429470062255859375</LatitudeDegrees>
              <LongitudeDegrees>-0.26133634150028228759765625</LongitudeDegrees>
            </Position>
            <AltitudeMeters>1425</AltitudeMeters>
            <DistanceMeters>2442.5943957655</DistanceMeters>
          </Trackpoint>
          <Trackpoint>
            <Time>2021-07-17T09:32:16.000Z</Time>
            <Position>
              <LatitudeDegrees>42.72356553934514522552490234375</LatitudeDegrees>
              <LongitudeDegrees>-0.2612751536071300506591796875</LongitudeDegrees>
            </Position>
            <AltitudeMeters>1425.800048828125</AltitudeMeters>
            <DistanceMeters>2447.9883652039</DistanceMeters>
          </Trackpoint>
          <Trackpoint>
            <Time>2021-07-17T09:32:22.000Z</Time>
            <Position>
              <LatitudeDegrees>42.7235607616603374481201171875</LatitudeDegrees>
              <LongitudeDegrees>-0.2611950226128101348876953125</LongitudeDegrees>
            </Position>
            <AltitudeMeters>1426.5999755859375</AltitudeMeters>
            <DistanceMeters>2454.5624009401</DistanceMeters>
          </Trackpoint>
          <Trackpoint>
            <Time>2021-07-17T09:32:30.000Z</Time>
            <Position>
              <LatitudeDegrees>42.7235382981598377227783203125</LatitudeDegrees>
              <LongitudeDegrees>-0.2610863931477069854736328125</LongitudeDegrees>
            </Position>
            <AltitudeMeters>1428</AltitudeMeters>
            <DistanceMeters>2463.7897836021</DistanceMeters>
          </Trackpoint>
          <Trackpoint>
            <Time>2021-07-17T09:32:40.000Z</Time>
            <Position>
              <LatitudeDegrees>42.723468728363513946533203125</LatitudeDegrees>
              <LongitudeDegrees>-0.26097415946424007415771484375</LongitudeDegrees>
            </Position>
            <AltitudeMeters>1429.199951171875</AltitudeMeters>
            <DistanceMeters>2475.7970397626</DistanceMeters>
          </Trackpoint>
          <Trackpoint>
            <Time>2021-07-17T09:32:50.000Z</Time>
            <Position>
              <LatitudeDegrees>42.7234254777431488037109375</LatitudeDegrees>
              <LongitudeDegrees>-0.26083954609930515289306640625</LongitudeDegrees>
            </Position>
            <AltitudeMeters>1429.800048828125</AltitudeMeters>
            <DistanceMeters>2487.8103108295</DistanceMeters>
          </Trackpoint>
          <Trackpoint>
            <Time>2021-07-17T09:32:58.000Z</Time>
            <Position>
              <LatitudeDegrees>42.72341676056385040283203125</LatitudeDegrees>
              <LongitudeDegrees>-0.2607174217700958251953125</LongitudeDegrees>
            </Position>
            <AltitudeMeters>1430.5999755859375</AltitudeMeters>
            <DistanceMeters>2497.8436199644</DistanceMeters>
          </Trackpoint>
          <Trackpoint>
            <Time>2021-07-17T09:33:10.000Z</Time>
            <Position>
              <LatitudeDegrees>42.723437882959842681884765625</LatitudeDegrees>
              <LongitudeDegrees>-0.26054685004055500030517578125</LongitudeDegrees>
            </Position>
            <AltitudeMeters>1432.199951171875</AltitudeMeters>
            <DistanceMeters>2511.9876050302</DistanceMeters>
          </Trackpoint>
          <Trackpoint>
            <Time>2021-07-17T09:33:19.000Z</Time>
            <Position>
              <LatitudeDegrees>42.72346294485032558441162109375</LatitudeDegrees>
              <LongitudeDegrees>-0.26041827164590358734130859375</LongitudeDegrees>
            </Position>
            <AltitudeMeters>1433.800048828125</AltitudeMeters>
            <DistanceMeters>2522.8647398353</DistanceMeters>
          </Trackpoint>
          <Trackpoint>
            <Time>2021-07-17T09:33:28.000Z</Time>
            <Position>
              <LatitudeDegrees>42.72349664010107517242431640625</LatitudeDegrees>
              <LongitudeDegrees>-0.26030058972537517547607421875</LongitudeDegrees>
            </Position>
            <AltitudeMeters>1434.5999755859375</AltitudeMeters>
            <DistanceMeters>2533.1925306424</DistanceMeters>
          </Trackpoint>
          <Trackpoint>
            <Time>2021-07-17T09:33:37.000Z</Time>
            <Position>
              <LatitudeDegrees>42.7235309220850467681884765625</LatitudeDegrees>
              <LongitudeDegrees>-0.2601710893213748931884765625</LongitudeDegrees>
            </Position>
            <AltitudeMeters>1436.199951171875</AltitudeMeters>
            <DistanceMeters>2544.4482835052</DistanceMeters>
          </Trackpoint>
          <Trackpoint>
            <Time>2021-07-17T09:33:47.000Z</Time>
            <Position>
              <LatitudeDegrees>42.72356830537319183349609375</LatitudeDegrees>
              <LongitudeDegrees>-0.26003639213740825653076171875</LongitudeDegrees>
            </Position>
            <AltitudeMeters>1439.4000244140625</AltitudeMeters>
            <DistanceMeters>2556.2220128843</DistanceMeters>
          </Trackpoint>
          <Trackpoint>
            <Time>2021-07-17T09:33:56.000Z</Time>
            <Position>
              <LatitudeDegrees>42.72359822876751422882080078125</LatitudeDegrees>
              <LongitudeDegrees>-0.25992684066295623779296875</LongitudeDegrees>
            </Position>
            <AltitudeMeters>1441.199951171875</AltitudeMeters>
            <DistanceMeters>2565.7786960513</DistanceMeters>
          </Trackpoint>
          <Trackpoint>
            <Time>2021-07-17T09:34:06.000Z</Time>
            <Position>
              <LatitudeDegrees>42.72362085990607738494873046875</LatitudeDegrees>
              <LongitudeDegrees>-0.2598001062870025634765625</LongitudeDegrees>
            </Position>
            <AltitudeMeters>1443.800048828125</AltitudeMeters>
            <DistanceMeters>2576.443301661</DistanceMeters>
          </Trackpoint>
          <Trackpoint>
            <Time>2021-07-17T09:34:07.000Z</Time>
            <Position>
              <LatitudeDegrees>42.7236291579902172088623046875</LatitudeDegrees>
              <LongitudeDegrees>-0.25978560559451580047607421875</LongitudeDegrees>
            </Position>
            <AltitudeMeters>1444.4000244140625</AltitudeMeters>
            <DistanceMeters>2577.9427979213</DistanceMeters>
          </Trackpoint>
          <Trackpoint>
            <Time>2021-07-17T09:34:11.000Z</Time>
            <Position>
              <LatitudeDegrees>42.72363326512277126312255859375</LatitudeDegrees>
              <LongitudeDegrees>-0.259748809039592742919921875</LongitudeDegrees>
            </Position>
            <AltitudeMeters>1445</AltitudeMeters>
            <DistanceMeters>2580.9866209174</DistanceMeters>
          </Trackpoint>
          <Trackpoint>
            <Time>2021-07-17T09:34:18.000Z</Time>
            <Position>
              <LatitudeDegrees>42.72365019656717777252197265625</LatitudeDegrees>
              <LongitudeDegrees>-0.25965350680053234100341796875</LongitudeDegrees>
            </Position>
            <AltitudeMeters>1447</AltitudeMeters>
            <DistanceMeters>2589.0038576064</DistanceMeters>
          </Trackpoint>
          <Trackpoint>
            <Time>2021-07-17T09:34:28.000Z</Time>
            <Position>
              <LatitudeDegrees>42.72368498146533966064453125</LatitudeDegrees>
              <LongitudeDegrees>-0.259520821273326873779296875</LongitudeDegrees>
            </Position>
            <AltitudeMeters>1449.199951171875</AltitudeMeters>
            <DistanceMeters>2600.5232748375</DistanceMeters>
          </Trackpoint>
          <Trackpoint>
            <Time>2021-07-17T09:34:36.000Z</Time>
            <Position>
              <LatitudeDegrees>42.7237044274806976318359375</LatitudeDegrees>
              <LongitudeDegrees>-0.25942535139620304107666015625</LongitudeDegrees>
            </Position>
            <AltitudeMeters>1450.800048828125</AltitudeMeters>
            <DistanceMeters>2608.6245460708</DistanceMeters>
          </Trackpoint>
          <Trackpoint>
            <Time>2021-07-17T09:34:37.000Z</Time>
            <Position>
              <LatitudeDegrees>42.72370585240423679351806640625</LatitudeDegrees>
              <LongitudeDegrees>-0.25941663421690464019775390625</LongitudeDegrees>
            </Position>
            <AltitudeMeters>1451</AltitudeMeters>
            <DistanceMeters>2609.3544601138</DistanceMeters>
          </Trackpoint>
          <Trackpoint>
            <Time>2021-07-17T09:34:48.000Z</Time>
            <Position>
              <LatitudeDegrees>42.723726890981197357177734375</LatitudeDegrees>
              <LongitudeDegrees>-0.2592641673982143402099609375</LongitudeDegrees>
            </Position>
            <AltitudeMeters>1453.4000244140625</AltitudeMeters>
            <DistanceMeters>2622.0390137945</DistanceMeters>
          </Trackpoint>
          <Trackpoint>
            <Time>2021-07-17T09:34:54.000Z</Time>
            <Position>
              <LatitudeDegrees>42.72373460233211517333984375</LatitudeDegrees>
              <LongitudeDegrees>-0.25926240719854831695556640625</LongitudeDegrees>
            </Position>
            <AltitudeMeters>1453.800048828125</AltitudeMeters>
            <DistanceMeters>2622.9099480178</DistanceMeters>
          </Trackpoint>
          <Trackpoint>
            <Time>2021-07-17T09:35:01.000Z</Time>
            <Position>
              <LatitudeDegrees>42.72373803891241550445556640625</LatitudeDegrees>
              <LongitudeDegrees>-0.2591823600232601165771484375</LongitudeDegrees>
            </Position>
            <AltitudeMeters>1454.800048828125</AltitudeMeters>
            <DistanceMeters>2629.4661026738</DistanceMeters>
          </Trackpoint>
          <Trackpoint>
            <Time>2021-07-17T09:35:10.000Z</Time>
            <Position>
              <LatitudeDegrees>42.72373971529304981231689453125</LatitudeDegrees>
              <LongitudeDegrees>-0.25904850102961063385009765625</LongitudeDegrees>
            </Position>
            <AltitudeMeters>1455.800048828125</AltitudeMeters>
            <DistanceMeters>2640.4127512207</DistanceMeters>
          </Trackpoint>
          <Trackpoint>
            <Time>2021-07-17T09:35:24.000Z</Time>
            <Position>
              <LatitudeDegrees>42.72375161759555339813232421875</LatitudeDegrees>
              <LongitudeDegrees>-0.25886376388370990753173828125</LongitudeDegrees>
            </Position>
            <AltitudeMeters>1458.199951171875</AltitudeMeters>
            <DistanceMeters>2655.5762876319</DistanceMeters>
          </Trackpoint>
          <Trackpoint>
            <Time>2021-07-17T09:35:33.000Z</Time>
            <Position>
              <LatitudeDegrees>42.72375245578587055206298828125</LatitudeDegrees>
              <LongitudeDegrees>-0.25874373503029346466064453125</LongitudeDegrees>
            </Position>
            <AltitudeMeters>1459.5999755859375</AltitudeMeters>
            <DistanceMeters>2665.3907578381</DistanceMeters>
          </Trackpoint>
          <Trackpoint>
            <Time>2021-07-17T09:35:42.000Z</Time>
            <Position>
              <LatitudeDegrees>42.7237498573958873748779296875</LatitudeDegrees>
              <LongitudeDegrees>-0.2586046792566776275634765625</LongitudeDegrees>
            </Position>
            <AltitudeMeters>1460.4000244140625</AltitudeMeters>
            <DistanceMeters>2676.7646259196</DistanceMeters>
          </Trackpoint>
          <Trackpoint>
            <Time>2021-07-17T09:35:49.000Z</Time>
            <Position>
              <LatitudeDegrees>42.72373904474079608917236328125</LatitudeDegrees>
              <LongitudeDegrees>-0.25855354964733123779296875</LongitudeDegrees>
            </Position>
            <AltitudeMeters>1460.199951171875</AltitudeMeters>
            <DistanceMeters>2681.1151477534</DistanceMeters>
          </Trackpoint>
          <Trackpoint>
            <Time>2021-07-17T09:35:51.000Z</Time>
            <Position>
              <LatitudeDegrees>42.7237339317798614501953125</LatitudeDegrees>
              <LongitudeDegrees>-0.25853971950709819793701171875</LongitudeDegrees>
            </Position>
            <AltitudeMeters>1460.199951171875</AltitudeMeters>
            <DistanceMeters>2682.3758195799</DistanceMeters>
          </Trackpoint>
          <Trackpoint>
            <Time>2021-07-17T09:35:53.000Z</Time>
            <Position>
              <LatitudeDegrees>42.72373183630406856536865234375</LatitudeDegrees>
              <LongitudeDegrees>-0.25852136313915252685546875</LongitudeDegrees>
            </Position>
            <AltitudeMeters>1460.4000244140625</AltitudeMeters>
            <DistanceMeters>2683.8902961947</DistanceMeters>
          </Trackpoint>
          <Trackpoint>
            <Time>2021-07-17T09:36:00.000Z</Time>
            <Position>
              <LatitudeDegrees>42.723732255399227142333984375</LatitudeDegrees>
              <LongitudeDegrees>-0.2584658749401569366455078125</LongitudeDegrees>
            </Position>
            <AltitudeMeters>1461.199951171875</AltitudeMeters>
            <DistanceMeters>2688.4277596152</DistanceMeters>
          </Trackpoint>
          <Trackpoint>
            <Time>2021-07-17T09:36:08.000Z</Time>
            <Position>
              <LatitudeDegrees>42.72372798062860965728759765625</LatitudeDegrees>
              <LongitudeDegrees>-0.258369483053684234619140625</LongitudeDegrees>
            </Position>
            <AltitudeMeters>1462</AltitudeMeters>
            <DistanceMeters>2696.3235589901</DistanceMeters>
          </Trackpoint>
          <Trackpoint>
            <Time>2021-07-17T09:36:17.000Z</Time>
            <Position>
              <LatitudeDegrees>42.723711468279361724853515625</LatitudeDegrees>
              <LongitudeDegrees>-0.2582613565027713775634765625</LongitudeDegrees>
            </Position>
            <AltitudeMeters>1462.199951171875</AltitudeMeters>
            <DistanceMeters>2705.353597212</DistanceMeters>
          </Trackpoint>
          <Trackpoint>
            <Time>2021-07-17T09:36:18.000Z</Time>
            <Position>
              <LatitudeDegrees>42.72370819933712482452392578125</LatitudeDegrees>
              <LongitudeDegrees>-0.25825305841863155364990234375</LongitudeDegrees>
            </Position>
            <AltitudeMeters>1462.199951171875</AltitudeMeters>
            <DistanceMeters>2706.125597889</DistanceMeters>
          </Trackpoint>
          <Trackpoint>
            <Time>2021-07-17T09:36:27.000Z</Time>
            <Position>
              <LatitudeDegrees>42.723665535449981689453125</LatitudeDegrees>
              <LongitudeDegrees>-0.25815716944634914398193359375</LongitudeDegrees>
            </Position>
            <AltitudeMeters>1460.4000244140625</AltitudeMeters>
            <DistanceMeters>2715.2921054743</DistanceMeters>
          </Trackpoint>
          <Trackpoint>
            <Time>2021-07-17T09:36:39.000Z</Time>
            <Position>
              <LatitudeDegrees>42.72364877164363861083984375</LatitudeDegrees>
              <LongitudeDegrees>-0.258014090359210968017578125</LongitudeDegrees>
            </Position>
            <AltitudeMeters>1460.5999755859375</AltitudeMeters>
            <DistanceMeters>2727.1388538928</DistanceMeters>
          </Trackpoint>
          <Trackpoint>
            <Time>2021-07-17T09:36:50.000Z</Time>
            <Position>
              <LatitudeDegrees>42.7236871607601642608642578125</LatitudeDegrees>
              <LongitudeDegrees>-0.25786732323467731475830078125</LongitudeDegrees>
            </Position>
            <AltitudeMeters>1462.4000244140625</AltitudeMeters>
            <DistanceMeters>2739.8773967333</DistanceMeters>
          </Trackpoint>
          <Trackpoint>
            <Time>2021-07-17T09:36:55.000Z</Time>
            <Position>
              <LatitudeDegrees>42.7236965484917163848876953125</LatitudeDegrees>
              <LongitudeDegrees>-0.2578506432473659515380859375</LongitudeDegrees>
            </Position>
            <AltitudeMeters>1462.800048828125</AltitudeMeters>
            <DistanceMeters>2741.5984037273</DistanceMeters>
          </Trackpoint>
          <Trackpoint>
            <Time>2021-07-17T09:36:56.000Z</Time>
            <Position>
              <LatitudeDegrees>42.72369596175849437713623046875</LatitudeDegrees>
              <LongitudeDegrees>-0.25785072706639766693115234375</LongitudeDegrees>
            </Position>
            <AltitudeMeters>1462.800048828125</AltitudeMeters>
            <DistanceMeters>2741.6934304417</DistanceMeters>
          </Trackpoint>
          <Trackpoint>
            <Time>2021-07-17T09:36:57.000Z</Time>
            <Position>
              <LatitudeDegrees>42.72369814105331897735595703125</LatitudeDegrees>
              <LongitudeDegrees>-0.25784921832382678985595703125</LongitudeDegrees>
            </Position>
            <AltitudeMeters>1463</AltitudeMeters>
            <DistanceMeters>2741.9622065782</DistanceMeters>
          </Trackpoint>
          <Trackpoint>
            <Time>2021-07-17T09:37:09.000Z</Time>
            <Position>
              <LatitudeDegrees>42.7236942015588283538818359375</LatitudeDegrees>
              <LongitudeDegrees>-0.25784955359995365142822265625</LongitudeDegrees>
            </Position>
            <AltitudeMeters>1462.800048828125</AltitudeMeters>
            <DistanceMeters>2742.3976736899</DistanceMeters>
          </Trackpoint>
          <Trackpoint>
            <Time>2021-07-17T09:37:24.000Z</Time>
            <Position>
              <LatitudeDegrees>42.7236936986446380615234375</LatitudeDegrees>
              <LongitudeDegrees>-0.2578472904860973358154296875</LongitudeDegrees>
            </Position>
            <AltitudeMeters>1462.5999755859375</AltitudeMeters>
            <DistanceMeters>2742.5877271186</DistanceMeters>
          </Trackpoint>
          <Trackpoint>
            <Time>2021-07-17T09:37:28.000Z</Time>
            <Position>
              <LatitudeDegrees>42.7237210236489772796630859375</LatitudeDegrees>
              <LongitudeDegrees>-0.25779188610613346099853515625</LongitudeDegrees>
            </Position>
            <AltitudeMeters>1464</AltitudeMeters>
            <DistanceMeters>2748.0432868478</DistanceMeters>
          </Trackpoint>
          <Trackpoint>
            <Time>2021-07-17T09:37:32.000Z</Time>
            <Position>
              <LatitudeDegrees>42.72375111468136310577392578125</LatitudeDegrees>
              <LongitudeDegrees>-0.257743187248706817626953125</LongitudeDegrees>
            </Position>
            <AltitudeMeters>1465.5999755859375</AltitudeMeters>
            <DistanceMeters>2753.2463791187</DistanceMeters>
          </Trackpoint>
          <Trackpoint>
            <Time>2021-07-17T09:37:34.000Z</Time>
            <Position>
              <LatitudeDegrees>42.7237609215080738067626953125</LatitudeDegrees>
              <LongitudeDegrees>-0.257715024054050445556640625</LongitudeDegrees>
            </Position>
            <AltitudeMeters>1466</AltitudeMeters>
            <DistanceMeters>2755.7926695355</DistanceMeters>
          </Trackpoint>
          <Trackpoint>
            <Time>2021-07-17T09:37:36.000Z</Time>
            <Position>
              <LatitudeDegrees>42.72377441637217998504638671875</LatitudeDegrees>
              <LongitudeDegrees>-0.25768040679395198822021484375</LongitudeDegrees>
            </Position>
            <AltitudeMeters>1466.800048828125</AltitudeMeters>
            <DistanceMeters>2758.9955068464</DistanceMeters>
          </Trackpoint>
          <Trackpoint>
            <Time>2021-07-17T09:37:39.000Z</Time>
            <Position>
              <LatitudeDegrees>42.7237867377698421478271484375</LatitudeDegrees>
              <LongitudeDegrees>-0.25764436461031436920166015625</LongitudeDegrees>
            </Position>
            <AltitudeMeters>1467.5999755859375</AltitudeMeters>
            <DistanceMeters>2762.24592058</DistanceMeters>
          </Trackpoint>
          <Trackpoint>
            <Time>2021-07-17T09:37:46.000Z</Time>
            <Position>
              <LatitudeDegrees>42.7238065190613269805908203125</LatitudeDegrees>
              <LongitudeDegrees>-0.257564485073089599609375</LongitudeDegrees>
            </Position>
            <AltitudeMeters>1468.800048828125</AltitudeMeters>
            <DistanceMeters>2769.1378145211</DistanceMeters>
          </Trackpoint>
          <Trackpoint>
            <Time>2021-07-17T09:37:48.000Z</Time>
            <Position>
              <LatitudeDegrees>42.72380836308002471923828125</LatitudeDegrees>
              <LongitudeDegrees>-0.25754495523869991302490234375</LongitudeDegrees>
            </Position>
            <AltitudeMeters>1468.800048828125</AltitudeMeters>
            <DistanceMeters>2770.7476691541</DistanceMeters>
          </Trackpoint>
          <Trackpoint>
            <Time>2021-07-17T09:37:49.000Z</Time>
            <Position>
              <LatitudeDegrees>42.7238105423748493194580078125</LatitudeDegrees>
              <LongitudeDegrees>-0.257530622184276580810546875</LongitudeDegrees>
            </Position>
            <AltitudeMeters>1469</AltitudeMeters>
            <DistanceMeters>2771.9421364321</DistanceMeters>
          </Trackpoint>
          <Trackpoint>
            <Time>2021-07-17T09:37:54.000Z</Time>
            <Position>
              <LatitudeDegrees>42.723831832408905029296875</LatitudeDegrees>
              <LongitudeDegrees>-0.25746298022568225860595703125</LongitudeDegrees>
            </Position>
            <AltitudeMeters>1470.4000244140625</AltitudeMeters>
            <DistanceMeters>2777.9581605666</DistanceMeters>
          </Trackpoint>
          <Trackpoint>
            <Time>2021-07-17T09:38:02.000Z</Time>
            <Position>
              <LatitudeDegrees>42.72386410273611545562744140625</LatitudeDegrees>
              <LongitudeDegrees>-0.2573517523705959320068359375</LongitudeDegrees>
            </Position>
            <AltitudeMeters>1472.5999755859375</AltitudeMeters>
            <DistanceMeters>2787.7362201588</DistanceMeters>
          </Trackpoint>
          <Trackpoint>
            <Time>2021-07-17T09:38:10.000Z</Time>
            <Position>
              <LatitudeDegrees>42.72389260120689868927001953125</LatitudeDegrees>
              <LongitudeDegrees>-0.25725158862769603729248046875</LongitudeDegrees>
            </Position>
            <AltitudeMeters>1474.4000244140625</AltitudeMeters>
            <DistanceMeters>2796.5188685626</DistanceMeters>
          </Trackpoint>
          <Trackpoint>
            <Time>2021-07-17T09:38:18.000Z</Time>
            <Position>
              <LatitudeDegrees>42.72391657344996929168701171875</LatitudeDegrees>
              <LongitudeDegrees>-0.25715284980833530426025390625</LongitudeDegrees>
            </Position>
            <AltitudeMeters>1476.199951171875</AltitudeMeters>
            <DistanceMeters>2805.0220339783</DistanceMeters>
          </Trackpoint>
          <Trackpoint>
            <Time>2021-07-17T09:38:20.000Z</Time>
            <Position>
              <LatitudeDegrees>42.723931409418582916259765625</LatitudeDegrees>
              <LongitudeDegrees>-0.25712032802402973175048828125</LongitudeDegrees>
            </Position>
            <AltitudeMeters>1477.4000244140625</AltitudeMeters>
            <DistanceMeters>2808.1535931775</DistanceMeters>
          </Trackpoint>
          <Trackpoint>
            <Time>2021-07-17T09:38:25.000Z</Time>
            <Position>
              <LatitudeDegrees>42.7239315770566463470458984375</LatitudeDegrees>
              <LongitudeDegrees>-0.2570530213415622711181640625</LongitudeDegrees>
            </Position>
            <AltitudeMeters>1478.4000244140625</AltitudeMeters>
            <DistanceMeters>2813.6569445558</DistanceMeters>
          </Trackpoint>
          <Trackpoint>
            <Time>2021-07-17T09:38:34.000Z</Time>
            <Position>
              <LatitudeDegrees>42.723950184881687164306640625</LatitudeDegrees>
              <LongitudeDegrees>-0.25691027753055095672607421875</LongitudeDegrees>
            </Position>
            <AltitudeMeters>1481.4000244140625</AltitudeMeters>
            <DistanceMeters>2825.5109320513</DistanceMeters>
          </Trackpoint>
          <Trackpoint>
            <Time>2021-07-17T09:38:35.000Z</Time>
            <Position>
              <LatitudeDegrees>42.72396066226065158843994140625</LatitudeDegrees>
              <LongitudeDegrees>-0.2568914182484149932861328125</LongitudeDegrees>
            </Position>
            <AltitudeMeters>1482.199951171875</AltitudeMeters>
            <DistanceMeters>2827.4421030876</DistanceMeters>
          </Trackpoint>
          <Trackpoint>
            <Time>2021-07-17T09:38:39.000Z</Time>
            <Position>
              <LatitudeDegrees>42.72398413158953189849853515625</LatitudeDegrees>
              <LongitudeDegrees>-0.25684389285743236541748046875</LongitudeDegrees>
            </Position>
            <AltitudeMeters>1484</AltitudeMeters>
            <DistanceMeters>2832.1235553761</DistanceMeters>
          </Trackpoint>
          <Trackpoint>
            <Time>2021-07-17T09:38:41.000Z</Time>
            <Position>
              <LatitudeDegrees>42.7239838801324367523193359375</LatitudeDegrees>
              <LongitudeDegrees>-0.256818830966949462890625</LongitudeDegrees>
            </Position>
            <AltitudeMeters>1484.4000244140625</AltitudeMeters>
            <DistanceMeters>2834.170493448</DistanceMeters>
          </Trackpoint>
          <Trackpoint>
            <Time>2021-07-17T09:38:45.000Z</Time>
            <Position>
              <LatitudeDegrees>42.72398161701858043670654296875</LatitudeDegrees>
              <LongitudeDegrees>-0.256765186786651611328125</LongitudeDegrees>
            </Position>
            <AltitudeMeters>1485.4000244140625</AltitudeMeters>
            <DistanceMeters>2838.5643873289</DistanceMeters>
          </Trackpoint>
          <Trackpoint>
            <Time>2021-07-17T09:38:53.000Z</Time>
            <Position>
              <LatitudeDegrees>42.72395320236682891845703125</LatitudeDegrees>
              <LongitudeDegrees>-0.25666435249149799346923828125</LongitudeDegrees>
            </Position>
            <AltitudeMeters>1486</AltitudeMeters>
            <DistanceMeters>2847.3952276157</DistanceMeters>
          </Trackpoint>
          <Trackpoint>
            <Time>2021-07-17T09:38:54.000Z</Time>
            <Position>
              <LatitudeDegrees>42.72393970750272274017333984375</LatitudeDegrees>
              <LongitudeDegrees>-0.25664859451353549957275390625</LongitudeDegrees>
            </Position>
            <AltitudeMeters>1485.5999755859375</AltitudeMeters>
            <DistanceMeters>2849.3748874796</DistanceMeters>
          </Trackpoint>
          <Trackpoint>
            <Time>2021-07-17T09:38:59.000Z</Time>
            <Position>
              <LatitudeDegrees>42.72389863617718219757080078125</LatitudeDegrees>
              <LongitudeDegrees>-0.25659419596195220947265625</LongitudeDegrees>
            </Position>
            <AltitudeMeters>1484.800048828125</AltitudeMeters>
            <DistanceMeters>2855.7530137232</DistanceMeters>
          </Trackpoint>
          <Trackpoint>
            <Time>2021-07-17T09:39:08.000Z</Time>
            <Position>
              <LatitudeDegrees>42.723877429962158203125</LatitudeDegrees>
              <LongitudeDegrees>-0.2564807049930095672607421875</LongitudeDegrees>
            </Position>
            <AltitudeMeters>1486</AltitudeMeters>
            <DistanceMeters>2865.3276330921</DistanceMeters>
          </Trackpoint>
          <Trackpoint>
            <Time>2021-07-17T09:39:17.000Z</Time>
            <Position>
              <LatitudeDegrees>42.72383342497050762176513671875</LatitudeDegrees>
              <LongitudeDegrees>-0.2563762664794921875</LongitudeDegrees>
            </Position>
            <AltitudeMeters>1485.800048828125</AltitudeMeters>
            <DistanceMeters>2875.1719604128</DistanceMeters>
          </Trackpoint>
          <Trackpoint>
            <Time>2021-07-17T09:39:25.000Z</Time>
            <Position>
              <LatitudeDegrees>42.72379084490239620208740234375</LatitudeDegrees>
              <LongitudeDegrees>-0.25627274997532367706298828125</LongitudeDegrees>
            </Position>
            <AltitudeMeters>1484.800048828125</AltitudeMeters>
            <DistanceMeters>2884.8726009392</DistanceMeters>
          </Trackpoint>
          <Trackpoint>
            <Time>2021-07-17T09:39:38.000Z</Time>
            <Position>
              <LatitudeDegrees>42.72372194565832614898681640625</LatitudeDegrees>
              <LongitudeDegrees>-0.25611198507249355316162109375</LongitudeDegrees>
            </Position>
            <AltitudeMeters>1482.800048828125</AltitudeMeters>
            <DistanceMeters>2900.0914192478</DistanceMeters>
          </Trackpoint>
          <Trackpoint>
            <Time>2021-07-17T09:39:48.000Z</Time>
            <Position>
              <LatitudeDegrees>42.723685316741466522216796875</LatitudeDegrees>
              <LongitudeDegrees>-0.2559885196387767791748046875</LongitudeDegrees>
            </Position>
            <AltitudeMeters>1482.199951171875</AltitudeMeters>
            <DistanceMeters>2910.9793411596</DistanceMeters>
          </Trackpoint>
          <Trackpoint>
            <Time>2021-07-17T09:39:57.000Z</Time>
            <Position>
              <LatitudeDegrees>42.72362974472343921661376953125</LatitudeDegrees>
              <LongitudeDegrees>-0.25587125681340694427490234375</LongitudeDegrees>
            </Position>
            <AltitudeMeters>1482</AltitudeMeters>
            <DistanceMeters>2922.3896716617</DistanceMeters>
          </Trackpoint>
          <Trackpoint>
            <Time>2021-07-17T09:40:06.000Z</Time>
            <Position>
              <LatitudeDegrees>42.7235818840563297271728515625</LatitudeDegrees>
              <LongitudeDegrees>-0.2557712607085704803466796875</LongitudeDegrees>
            </Position>
            <AltitudeMeters>1482.5999755859375</AltitudeMeters>
            <DistanceMeters>2932.1478557193</DistanceMeters>
          </Trackpoint>
          <Trackpoint>
            <Time>2021-07-17T09:40:14.000Z</Time>
            <Position>
              <LatitudeDegrees>42.7235235460102558135986328125</LatitudeDegrees>
              <LongitudeDegrees>-0.25570311583578586578369140625</LongitudeDegrees>
            </Position>
            <AltitudeMeters>1483.199951171875</AltitudeMeters>
            <DistanceMeters>2940.7034269834</DistanceMeters>
          </Trackpoint>
          <Trackpoint>
            <Time>2021-07-17T09:40:22.000Z</Time>
            <Position>
              <LatitudeDegrees>42.723466046154499053955078125</LatitudeDegrees>
              <LongitudeDegrees>-0.25563530623912811279296875</LongitudeDegrees>
            </Position>
            <AltitudeMeters>1483.800048828125</AltitudeMeters>
            <DistanceMeters>2949.1704085523</DistanceMeters>
          </Trackpoint>
          <Trackpoint>
            <Time>2021-07-17T09:40:23.000Z</Time>
            <Position>
              <LatitudeDegrees>42.72345908917486667633056640625</LatitudeDegrees>
              <LongitudeDegrees>-0.25562725961208343505859375</LongitudeDegrees>
            </Position>
            <AltitudeMeters>1484</AltitudeMeters>
            <DistanceMeters>2950.1850162177</DistanceMeters>
          </Trackpoint>
          <Trackpoint>
            <Time>2021-07-17T09:40:29.000Z</Time>
            <Position>
              <LatitudeDegrees>42.72339756600558757781982421875</LatitudeDegrees>
              <LongitudeDegrees>-0.25560454465448856353759765625</LongitudeDegrees>
            </Position>
            <AltitudeMeters>1483.5999755859375</AltitudeMeters>
            <DistanceMeters>2957.2802735192</DistanceMeters>
          </Trackpoint>
          <Trackpoint>
            <Time>2021-07-17T09:40:30.000Z</Time>
            <Position>
              <LatitudeDegrees>42.723386585712432861328125</LatitudeDegrees>
              <LongitudeDegrees>-0.25560068897902965545654296875</LongitudeDegrees>
            </Position>
            <AltitudeMeters>1483.5999755859375</AltitudeMeters>
            <DistanceMeters>2958.5409453457</DistanceMeters>
          </Trackpoint>
          <Trackpoint>
            <Time>2021-07-17T09:40:37.000Z</Time>
            <Position>
              <LatitudeDegrees>42.723311819136142730712890625</LatitudeDegrees>
              <LongitudeDegrees>-0.25556749664247035980224609375</LongitudeDegrees>
            </Position>
            <AltitudeMeters>1484.199951171875</AltitudeMeters>
            <DistanceMeters>2967.2937259639</DistanceMeters>
          </Trackpoint>
          <Trackpoint>
            <Time>2021-07-17T09:40:40.000Z</Time>
            <Position>
              <LatitudeDegrees>42.72327904589474201202392578125</LatitudeDegrees>
              <LongitudeDegrees>-0.255553163588047027587890625</LongitudeDegrees>
            </Position>
            <AltitudeMeters>1484.5999755859375</AltitudeMeters>
            <DistanceMeters>2971.1255537651</DistanceMeters>
          </Trackpoint>
          <Trackpoint>
            <Time>2021-07-17T09:40:49.000Z</Time>
            <Position>
              <LatitudeDegrees>42.72317544557154178619384765625</LatitudeDegrees>
              <LongitudeDegrees>-0.25551787577569484710693359375</LongitudeDegrees>
            </Position>
            <AltitudeMeters>1485.4000244140625</AltitudeMeters>
            <DistanceMeters>2983.0118726251</DistanceMeters>
          </Trackpoint>
          <Trackpoint>
            <Time>2021-07-17T09:40:58.000Z</Time>
            <Position>
              <LatitudeDegrees>42.723081819713115692138671875</LatitudeDegrees>
              <LongitudeDegrees>-0.25549625046551227569580078125</LongitudeDegrees>
            </Position>
            <AltitudeMeters>1484.800048828125</AltitudeMeters>
            <DistanceMeters>2993.5807914729</DistanceMeters>
          </Trackpoint>
          <Trackpoint>
            <Time>2021-07-17T09:41:08.000Z</Time>
            <Position>
              <LatitudeDegrees>42.72297193296253681182861328125</LatitudeDegrees>
              <LongitudeDegrees>-0.2554661594331264495849609375</LongitudeDegrees>
            </Position>
            <AltitudeMeters>1482</AltitudeMeters>
            <DistanceMeters>3006.0564637028</DistanceMeters>
          </Trackpoint>
          <Trackpoint>
            <Time>2021-07-17T09:41:13.000Z</Time>
            <Position>
              <LatitudeDegrees>42.7229106612503528594970703125</LatitudeDegrees>
              <LongitudeDegrees>-0.25543690659105777740478515625</LongitudeDegrees>
            </Position>
            <AltitudeMeters>1480.4000244140625</AltitudeMeters>
            <DistanceMeters>3013.2834936704</DistanceMeters>
          </Trackpoint>
          <Trackpoint>
            <Time>2021-07-17T09:41:19.000Z</Time>
            <Position>
              <LatitudeDegrees>42.72285860963165760040283203125</LatitudeDegrees>
              <LongitudeDegrees>-0.25539633817970752716064453125</LongitudeDegrees>
            </Position>
            <AltitudeMeters>1478.199951171875</AltitudeMeters>
            <DistanceMeters>3019.9590780831</DistanceMeters>
          </Trackpoint>
          <Trackpoint>
            <Time>2021-07-17T09:41:27.000Z</Time>
            <Position>
              <LatitudeDegrees>42.72278912365436553955078125</LatitudeDegrees>
              <LongitudeDegrees>-0.25532928295433521270751953125</LongitudeDegrees>
            </Position>
            <AltitudeMeters>1473.5999755859375</AltitudeMeters>
            <DistanceMeters>3029.4389156751</DistanceMeters>
          </Trackpoint>
          <Trackpoint>
            <Time>2021-07-17T09:41:28.000Z</Time>
            <Position>
              <LatitudeDegrees>42.72277931682765483856201171875</LatitudeDegrees>
              <LongitudeDegrees>-0.2553213201463222503662109375</LongitudeDegrees>
            </Position>
            <AltitudeMeters>1472.800048828125</AltitudeMeters>
            <DistanceMeters>3030.7102864642</DistanceMeters>
          </Trackpoint>
          <Trackpoint>
            <Time>2021-07-17T09:41:30.000Z</Time>
            <Position>
              <LatitudeDegrees>42.72276640869677066802978515625</LatitudeDegrees>
              <LongitudeDegrees>-0.25530346669256687164306640625</LongitudeDegrees>
            </Position>
            <AltitudeMeters>1472</AltitudeMeters>
            <DistanceMeters>3032.7594291011</DistanceMeters>
          </Trackpoint>
          <Trackpoint>
            <Time>2021-07-17T09:41:34.000Z</Time>
            <Position>
              <LatitudeDegrees>42.72275827825069427490234375</LatitudeDegrees>
              <LongitudeDegrees>-0.25525351054966449737548828125</LongitudeDegrees>
            </Position>
            <AltitudeMeters>1471.4000244140625</AltitudeMeters>
            <DistanceMeters>3036.9438428265</DistanceMeters>
          </Trackpoint>
          <Trackpoint>
            <Time>2021-07-17T09:41:40.000Z</Time>
            <Position>
              <LatitudeDegrees>42.722734473645687103271484375</LatitudeDegrees>
              <LongitudeDegrees>-0.25520120747387409210205078125</LongitudeDegrees>
            </Position>
            <AltitudeMeters>1470.199951171875</AltitudeMeters>
            <DistanceMeters>3041.9757742994</DistanceMeters>
          </Trackpoint>
          <Trackpoint>
            <Time>2021-07-17T09:41:42.000Z</Time>
            <Position>
              <LatitudeDegrees>42.72273472510278224945068359375</LatitudeDegrees>
              <LongitudeDegrees>-0.2551962621510028839111328125</LongitudeDegrees>
            </Position>
            <AltitudeMeters>1470.199951171875</AltitudeMeters>
            <DistanceMeters>3042.3789385042</DistanceMeters>
          </Trackpoint>
          <Trackpoint>
            <Time>2021-07-17T09:41:44.000Z</Time>
            <Position>
              <LatitudeDegrees>42.72273774258792400360107421875</LatitudeDegrees>
              <LongitudeDegrees>-0.25519366376101970672607421875</LongitudeDegrees>
            </Position>
            <AltitudeMeters>1470.4000244140625</AltitudeMeters>
            <DistanceMeters>3042.7707436848</DistanceMeters>
          </Trackpoint>
          <Trackpoint>
            <Time>2021-07-17T09:41:48.000Z</Time>
            <Position>
              <LatitudeDegrees>42.7227581106126308441162109375</LatitudeDegrees>
              <LongitudeDegrees>-0.2551513351500034332275390625</LongitudeDegrees>
            </Position>
            <AltitudeMeters>1471.199951171875</AltitudeMeters>
            <DistanceMeters>3046.9084997116</DistanceMeters>
          </Trackpoint>
          <Trackpoint>
            <Time>2021-07-17T09:41:55.000Z</Time>
            <Position>
              <LatitudeDegrees>42.7227788977324962615966796875</LatitudeDegrees>
              <LongitudeDegrees>-0.25503306649625301361083984375</LongitudeDegrees>
            </Position>
            <AltitudeMeters>1471.4000244140625</AltitudeMeters>
            <DistanceMeters>3056.8514005413</DistanceMeters>
          </Trackpoint>
          <Trackpoint>
            <Time>2021-07-17T09:41:56.000Z</Time>
            <Position>
              <LatitudeDegrees>42.72278107702732086181640625</LatitudeDegrees>
              <LongitudeDegrees>-0.25502015836536884307861328125</LongitudeDegrees>
            </Position>
            <AltitudeMeters>1471.4000244140625</AltitudeMeters>
            <DistanceMeters>3057.9348717858</DistanceMeters>
          </Trackpoint>
          <Trackpoint>
            <Time>2021-07-17T09:42:02.000Z</Time>
            <Position>
              <LatitudeDegrees>42.72280932404100894927978515625</LatitudeDegrees>
              <LongitudeDegrees>-0.25493617169559001922607421875</LongitudeDegrees>
            </Position>
            <AltitudeMeters>1472.4000244140625</AltitudeMeters>
            <DistanceMeters>3065.4875529585</DistanceMeters>
          </Trackpoint>
          <Trackpoint>
            <Time>2021-07-17T09:42:04.000Z</Time>
            <Position>
              <LatitudeDegrees>42.7228171192109584808349609375</LatitudeDegrees>
              <LongitudeDegrees>-0.25491689331829547882080078125</LongitudeDegrees>
            </Position>
            <AltitudeMeters>1472.800048828125</AltitudeMeters>
            <DistanceMeters>3067.2855427713</DistanceMeters>
          </Trackpoint>
          <Trackpoint>
            <Time>2021-07-17T09:42:06.000Z</Time>
            <Position>
              <LatitudeDegrees>42.72281686775386333465576171875</LatitudeDegrees>
              <LongitudeDegrees>-0.25491605512797832489013671875</LongitudeDegrees>
            </Position>
            <AltitudeMeters>1472.800048828125</AltitudeMeters>
            <DistanceMeters>3067.4199308396</DistanceMeters>
          </Trackpoint>
          <Trackpoint>
            <Time>2021-07-17T09:42:09.000Z</Time>
            <Position>
              <LatitudeDegrees>42.722816281020641326904296875</LatitudeDegrees>
              <LongitudeDegrees>-0.25491571985185146331787109375</LongitudeDegrees>
            </Position>
            <AltitudeMeters>1472.800048828125</AltitudeMeters>
            <DistanceMeters>3067.514957554</DistanceMeters>
          </Trackpoint>
          <Trackpoint>
            <Time>2021-07-17T09:42:19.000Z</Time>
            <Position>
              <LatitudeDegrees>42.7228097431361675262451171875</LatitudeDegrees>
              <LongitudeDegrees>-0.25493114255368709564208984375</LongitudeDegrees>
            </Position>
            <AltitudeMeters>1472.4000244140625</AltitudeMeters>
            <DistanceMeters>3068.97478564</DistanceMeters>
          </Trackpoint>
          <Trackpoint>
            <Time>2021-07-17T09:42:42.000Z</Time>
            <Position>
              <LatitudeDegrees>42.72281217388808727264404296875</LatitudeDegrees>
              <LongitudeDegrees>-0.25493013672530651092529296875</LongitudeDegrees>
            </Position>
            <AltitudeMeters>1472.5999755859375</AltitudeMeters>
            <DistanceMeters>3069.275286496</DistanceMeters>
          </Trackpoint>
          <Trackpoint>
            <Time>2021-07-17T09:42:46.000Z</Time>
            <Position>
              <LatitudeDegrees>42.72281217388808727264404296875</LatitudeDegrees>
              <LongitudeDegrees>-0.2549297176301479339599609375</LongitudeDegrees>
            </Position>
            <AltitudeMeters>1472.5999755859375</AltitudeMeters>
            <DistanceMeters>3069.275286496</DistanceMeters>
          </Trackpoint>
          <Trackpoint>
            <Time>2021-07-17T09:43:01.000Z</Time>
            <Position>
              <LatitudeDegrees>42.72279448807239532470703125</LatitudeDegrees>
              <LongitudeDegrees>-0.25492795743048191070556640625</LongitudeDegrees>
            </Position>
            <AltitudeMeters>1471.800048828125</AltitudeMeters>
            <DistanceMeters>3071.2503796643</DistanceMeters>
          </Trackpoint>
          <Trackpoint>
            <Time>2021-07-17T09:43:15.000Z</Time>
            <Position>
              <LatitudeDegrees>42.72278602235019207000732421875</LatitudeDegrees>
              <LongitudeDegrees>-0.254926867783069610595703125</LongitudeDegrees>
            </Position>
            <AltitudeMeters>1471.199951171875</AltitudeMeters>
            <DistanceMeters>3072.200646808</DistanceMeters>
          </Trackpoint>
          <Trackpoint>
            <Time>2021-07-17T09:43:37.000Z</Time>
            <Position>
              <LatitudeDegrees>42.722816281020641326904296875</LatitudeDegrees>
              <LongitudeDegrees>-0.25484045036137104034423828125</LongitudeDegrees>
            </Position>
            <AltitudeMeters>1472.800048828125</AltitudeMeters>
            <DistanceMeters>3080.0281028873</DistanceMeters>
          </Trackpoint>
          <Trackpoint>
            <Time>2021-07-17T09:43:45.000Z</Time>
            <Position>
              <LatitudeDegrees>42.722871266305446624755859375</LatitudeDegrees>
              <LongitudeDegrees>-0.2546940185129642486572265625</LongitudeDegrees>
            </Position>
            <AltitudeMeters>1475.4000244140625</AltitudeMeters>
            <DistanceMeters>3093.4749705788</DistanceMeters>
          </Trackpoint>
          <Trackpoint>
            <Time>2021-07-17T09:43:48.000Z</Time>
            <Position>
              <LatitudeDegrees>42.722872607409954071044921875</LatitudeDegrees>
              <LongitudeDegrees>-0.25465118698775768280029296875</LongitudeDegrees>
            </Position>
            <AltitudeMeters>1475.5999755859375</AltitudeMeters>
            <DistanceMeters>3096.9806707999</DistanceMeters>
          </Trackpoint>
          <Trackpoint>
            <Time>2021-07-17T09:43:53.000Z</Time>
            <Position>
              <LatitudeDegrees>42.722887694835662841796875</LatitudeDegrees>
              <LongitudeDegrees>-0.2545917592942714691162109375</LongitudeDegrees>
            </Position>
            <AltitudeMeters>1476.5999755859375</AltitudeMeters>
            <DistanceMeters>3102.1226610593</DistanceMeters>
          </Trackpoint>
          <Trackpoint>
            <Time>2021-07-17T09:44:01.000Z</Time>
            <Position>
              <LatitudeDegrees>42.722918204963207244873046875</LatitudeDegrees>
              <LongitudeDegrees>-0.254469551146030426025390625</LongitudeDegrees>
            </Position>
            <AltitudeMeters>1478.5999755859375</AltitudeMeters>
            <DistanceMeters>3112.6766173287</DistanceMeters>
          </Trackpoint>
          <Trackpoint>
            <Time>2021-07-17T09:44:02.000Z</Time>
            <Position>
              <LatitudeDegrees>42.72291879169642925262451171875</LatitudeDegrees>
              <LongitudeDegrees>-0.25445647537708282470703125</LongitudeDegrees>
            </Position>
            <AltitudeMeters>1478.5999755859375</AltitudeMeters>
            <DistanceMeters>3113.7517218747</DistanceMeters>
          </Trackpoint>
          <Trackpoint>
            <Time>2021-07-17T09:44:07.000Z</Time>
            <Position>
              <LatitudeDegrees>42.722932286560535430908203125</LatitudeDegrees>
              <LongitudeDegrees>-0.2543915994465351104736328125</LongitudeDegrees>
            </Position>
            <AltitudeMeters>1479.5999755859375</AltitudeMeters>
            <DistanceMeters>3119.2649094563</DistanceMeters>
          </Trackpoint>
          <Trackpoint>
            <Time>2021-07-17T09:44:13.000Z</Time>
            <Position>
              <LatitudeDegrees>42.7229247428476810455322265625</LatitudeDegrees>
              <LongitudeDegrees>-0.2542801201343536376953125</LongitudeDegrees>
            </Position>
            <AltitudeMeters>1479</AltitudeMeters>
            <DistanceMeters>3128.4190948051</DistanceMeters>
          </Trackpoint>
          <Trackpoint>
            <Time>2021-07-17T09:44:16.000Z</Time>
            <Position>
              <LatitudeDegrees>42.72291694767773151397705078125</LatitudeDegrees>
              <LongitudeDegrees>-0.25423921644687652587890625</LongitudeDegrees>
            </Position>
            <AltitudeMeters>1478.800048828125</AltitudeMeters>
            <DistanceMeters>3131.8742013243</DistanceMeters>
          </Trackpoint>
          <Trackpoint>
            <Time>2021-07-17T09:44:19.000Z</Time>
            <Position>
              <LatitudeDegrees>42.7229270897805690765380859375</LatitudeDegrees>
              <LongitudeDegrees>-0.25418649427592754364013671875</LongitudeDegrees>
            </Position>
            <AltitudeMeters>1479.4000244140625</AltitudeMeters>
            <DistanceMeters>3136.3303362079</DistanceMeters>
          </Trackpoint>
          <Trackpoint>
            <Time>2021-07-17T09:44:26.000Z</Time>
            <Position>
              <LatitudeDegrees>42.7229240722954273223876953125</LatitudeDegrees>
              <LongitudeDegrees>-0.2540774457156658172607421875</LongitudeDegrees>
            </Position>
            <AltitudeMeters>1479.5999755859375</AltitudeMeters>
            <DistanceMeters>3145.2537444179</DistanceMeters>
          </Trackpoint>
          <Trackpoint>
            <Time>2021-07-17T09:44:27.000Z</Time>
            <Position>
              <LatitudeDegrees>42.72292147390544414520263671875</LatitudeDegrees>
              <LongitudeDegrees>-0.2540650404989719390869140625</LongitudeDegrees>
            </Position>
            <AltitudeMeters>1479.4000244140625</AltitudeMeters>
            <DistanceMeters>3146.3033487844</DistanceMeters>
          </Trackpoint>
          <Trackpoint>
            <Time>2021-07-17T09:44:32.000Z</Time>
            <Position>
              <LatitudeDegrees>42.72291543893516063690185546875</LatitudeDegrees>
              <LongitudeDegrees>-0.25399052537977695465087890625</LongitudeDegrees>
            </Position>
            <AltitudeMeters>1478.800048828125</AltitudeMeters>
            <DistanceMeters>3152.4323876982</DistanceMeters>
          </Trackpoint>
          <Trackpoint>
            <Time>2021-07-17T09:44:37.000Z</Time>
            <Position>
              <LatitudeDegrees>42.72291812114417552947998046875</LatitudeDegrees>
              <LongitudeDegrees>-0.25392514653503894805908203125</LongitudeDegrees>
            </Position>
            <AltitudeMeters>1478.800048828125</AltitudeMeters>
            <DistanceMeters>3157.7877142789</DistanceMeters>
          </Trackpoint>
          <Trackpoint>
            <Time>2021-07-17T09:44:47.000Z</Time>
            <Position>
              <LatitudeDegrees>42.7229039557278156280517578125</LatitudeDegrees>
              <LongitudeDegrees>-0.25377544574439525604248046875</LongitudeDegrees>
            </Position>
            <AltitudeMeters>1477.5999755859375</AltitudeMeters>
            <DistanceMeters>3170.1298518382</DistanceMeters>
          </Trackpoint>
          <Trackpoint>
            <Time>2021-07-17T09:44:51.000Z</Time>
            <Position>
              <LatitudeDegrees>42.72289909422397613525390625</LatitudeDegrees>
              <LongitudeDegrees>-0.2537284232676029205322265625</LongitudeDegrees>
            </Position>
            <AltitudeMeters>1477.4000244140625</AltitudeMeters>
            <DistanceMeters>3174.0131787188</DistanceMeters>
          </Trackpoint>
          <Trackpoint>
            <Time>2021-07-17T09:44:55.000Z</Time>
            <Position>
              <LatitudeDegrees>42.7229011058807373046875</LatitudeDegrees>
              <LongitudeDegrees>-0.25365256704390048980712890625</LongitudeDegrees>
            </Position>
            <AltitudeMeters>1477.800048828125</AltitudeMeters>
            <DistanceMeters>3180.219812759</DistanceMeters>
          </Trackpoint>
          <Trackpoint>
            <Time>2021-07-17T09:44:57.000Z</Time>
            <Position>
              <LatitudeDegrees>42.72290370427072048187255859375</LatitudeDegrees>
              <LongitudeDegrees>-0.2536184526979923248291015625</LongitudeDegrees>
            </Position>
            <AltitudeMeters>1478</AltitudeMeters>
            <DistanceMeters>3183.0259180064</DistanceMeters>
          </Trackpoint>
          <Trackpoint>
            <Time>2021-07-17T09:45:02.000Z</Time>
            <Position>
              <LatitudeDegrees>42.7229066379368305206298828125</LatitudeDegrees>
              <LongitudeDegrees>-0.25353203527629375457763671875</LongitudeDegrees>
            </Position>
            <AltitudeMeters>1478.4000244140625</AltitudeMeters>
            <DistanceMeters>3190.0988681334</DistanceMeters>
          </Trackpoint>
          <Trackpoint>
            <Time>2021-07-17T09:45:11.000Z</Time>
            <Position>
              <LatitudeDegrees>42.72288811393082141876220703125</LatitudeDegrees>
              <LongitudeDegrees>-0.25338090956211090087890625</LongitudeDegrees>
            </Position>
            <AltitudeMeters>1478.5999755859375</AltitudeMeters>
            <DistanceMeters>3202.6265466333</DistanceMeters>
          </Trackpoint>
          <Trackpoint>
            <Time>2021-07-17T09:45:22.000Z</Time>
            <Position>
              <LatitudeDegrees>42.7228576876223087310791015625</LatitudeDegrees>
              <LongitudeDegrees>-0.25321151129901409149169921875</LongitudeDegrees>
            </Position>
            <AltitudeMeters>1478.800048828125</AltitudeMeters>
            <DistanceMeters>3216.8856209795</DistanceMeters>
          </Trackpoint>
          <Trackpoint>
            <Time>2021-07-17T09:45:23.000Z</Time>
            <Position>
              <LatitudeDegrees>42.72285676561295986175537109375</LatitudeDegrees>
              <LongitudeDegrees>-0.2531939931213855743408203125</LongitudeDegrees>
            </Position>
            <AltitudeMeters>1479</AltitudeMeters>
            <DistanceMeters>3218.3204929004</DistanceMeters>
          </Trackpoint>
          <Trackpoint>
            <Time>2021-07-17T09:45:25.000Z</Time>
            <Position>
              <LatitudeDegrees>42.72284871898591518402099609375</LatitudeDegrees>
              <LongitudeDegrees>-0.2531638182699680328369140625</LongitudeDegrees>
            </Position>
            <AltitudeMeters>1479</AltitudeMeters>
            <DistanceMeters>3220.9436433441</DistanceMeters>
          </Trackpoint>
          <Trackpoint>
            <Time>2021-07-17T09:45:30.000Z</Time>
            <Position>
              <LatitudeDegrees>42.72283430211246013641357421875</LatitudeDegrees>
              <LongitudeDegrees>-0.25309181772172451019287109375</LongitudeDegrees>
            </Position>
            <AltitudeMeters>1479</AltitudeMeters>
            <DistanceMeters>3227.0461047536</DistanceMeters>
          </Trackpoint>
          <Trackpoint>
            <Time>2021-07-17T09:45:34.000Z</Time>
            <Position>
              <LatitudeDegrees>42.722825668752193450927734375</LatitudeDegrees>
              <LongitudeDegrees>-0.25303088128566741943359375</LongitudeDegrees>
            </Position>
            <AltitudeMeters>1479.199951171875</AltitudeMeters>
            <DistanceMeters>3232.1200330091</DistanceMeters>
          </Trackpoint>
          <Trackpoint>
            <Time>2021-07-17T09:45:38.000Z</Time>
            <Position>
              <LatitudeDegrees>42.72281653247773647308349609375</LatitudeDegrees>
              <LongitudeDegrees>-0.25296156294643878936767578125</LongitudeDegrees>
            </Position>
            <AltitudeMeters>1479.4000244140625</AltitudeMeters>
            <DistanceMeters>3237.8799375964</DistanceMeters>
          </Trackpoint>
          <Trackpoint>
            <Time>2021-07-17T09:45:41.000Z</Time>
            <Position>
              <LatitudeDegrees>42.72280831821262836456298828125</LatitudeDegrees>
              <LongitudeDegrees>-0.25291361846029758453369140625</LongitudeDegrees>
            </Position>
            <AltitudeMeters>1479.4000244140625</AltitudeMeters>
            <DistanceMeters>3241.9059762471</DistanceMeters>
          </Trackpoint>
          <Trackpoint>
            <Time>2021-07-17T09:45:49.000Z</Time>
            <Position>
              <LatitudeDegrees>42.7227819152176380157470703125</LatitudeDegrees>
              <LongitudeDegrees>-0.2527960203588008880615234375</LongitudeDegrees>
            </Position>
            <AltitudeMeters>1479.199951171875</AltitudeMeters>
            <DistanceMeters>3251.9608624159</DistanceMeters>
          </Trackpoint>
          <Trackpoint>
            <Time>2021-07-17T09:45:53.000Z</Time>
            <Position>
              <LatitudeDegrees>42.72276691161096096038818359375</LatitudeDegrees>
              <LongitudeDegrees>-0.252733491361141204833984375</LongitudeDegrees>
            </Position>
            <AltitudeMeters>1479.4000244140625</AltitudeMeters>
            <DistanceMeters>3257.3389043318</DistanceMeters>
          </Trackpoint>
          <Trackpoint>
            <Time>2021-07-17T09:46:00.000Z</Time>
            <Position>
              <LatitudeDegrees>42.722742855548858642578125</LatitudeDegrees>
              <LongitudeDegrees>-0.252621509134769439697265625</LongitudeDegrees>
            </Position>
            <AltitudeMeters>1478.800048828125</AltitudeMeters>
            <DistanceMeters>3266.8785642001</DistanceMeters>
          </Trackpoint>
          <Trackpoint>
            <Time>2021-07-17T09:46:07.000Z</Time>
            <Position>
              <LatitudeDegrees>42.7227044664323329925537109375</LatitudeDegrees>
              <LongitudeDegrees>-0.252522267401218414306640625</LongitudeDegrees>
            </Position>
            <AltitudeMeters>1478</AltitudeMeters>
            <DistanceMeters>3276.0495037375</DistanceMeters>
          </Trackpoint>
          <Trackpoint>
            <Time>2021-07-17T09:46:09.000Z</Time>
            <Position>
              <LatitudeDegrees>42.722690887749195098876953125</LatitudeDegrees>
              <LongitudeDegrees>-0.25249217636883258819580078125</LongitudeDegrees>
            </Position>
            <AltitudeMeters>1477.800048828125</AltitudeMeters>
            <DistanceMeters>3278.9365022754</DistanceMeters>
          </Trackpoint>
          <Trackpoint>
            <Time>2021-07-17T09:46:19.000Z</Time>
            <Position>
              <LatitudeDegrees>42.722590975463390350341796875</LatitudeDegrees>
              <LongitudeDegrees>-0.25238891132175922393798828125</LongitudeDegrees>
            </Position>
            <AltitudeMeters>1475.5999755859375</AltitudeMeters>
            <DistanceMeters>3292.898963389</DistanceMeters>
          </Trackpoint>
          <Trackpoint>
            <Time>2021-07-17T09:46:28.000Z</Time>
            <Position>
              <LatitudeDegrees>42.7224774844944477081298828125</LatitudeDegrees>
              <LongitudeDegrees>-0.252381451427936553955078125</LongitudeDegrees>
            </Position>
            <AltitudeMeters>1472</AltitudeMeters>
            <DistanceMeters>3305.5457303267</DistanceMeters>
          </Trackpoint>
          <Trackpoint>
            <Time>2021-07-17T09:46:37.000Z</Time>
            <Position>
              <LatitudeDegrees>42.72238402627408504486083984375</LatitudeDegrees>
              <LongitudeDegrees>-0.2523226104676723480224609375</LongitudeDegrees>
            </Position>
            <AltitudeMeters>1468.800048828125</AltitudeMeters>
            <DistanceMeters>3317.0065981801</DistanceMeters>
          </Trackpoint>
          <Trackpoint>
            <Time>2021-07-17T09:46:47.000Z</Time>
            <Position>
              <LatitudeDegrees>42.7223068289458751678466796875</LatitudeDegrees>
              <LongitudeDegrees>-0.25219830684363842010498046875</LongitudeDegrees>
            </Position>
            <AltitudeMeters>1466</AltitudeMeters>
            <DistanceMeters>3330.3154279351</DistanceMeters>
          </Trackpoint>
          <Trackpoint>
            <Time>2021-07-17T09:46:52.000Z</Time>
            <Position>
              <LatitudeDegrees>42.72228897549211978912353515625</LatitudeDegrees>
              <LongitudeDegrees>-0.25211616419255733489990234375</LongitudeDegrees>
            </Position>
            <AltitudeMeters>1465</AltitudeMeters>
            <DistanceMeters>3337.3197412719</DistanceMeters>
          </Trackpoint>
          <Trackpoint>
            <Time>2021-07-17T09:46:59.000Z</Time>
            <Position>
              <LatitudeDegrees>42.72224807180464267730712890625</LatitudeDegrees>
              <LongitudeDegrees>-0.2520064450800418853759765625</LongitudeDegrees>
            </Position>
            <AltitudeMeters>1463.4000244140625</AltitudeMeters>
            <DistanceMeters>3347.3800144682</DistanceMeters>
          </Trackpoint>
          <Trackpoint>
            <Time>2021-07-17T09:47:06.000Z</Time>
            <Position>
              <LatitudeDegrees>42.72223315201699733734130859375</LatitudeDegrees>
              <LongitudeDegrees>-0.25190058164298534393310546875</LongitudeDegrees>
            </Position>
            <AltitudeMeters>1463</AltitudeMeters>
            <DistanceMeters>3356.1944785883</DistanceMeters>
          </Trackpoint>
          <Trackpoint>
            <Time>2021-07-17T09:47:14.000Z</Time>
            <Position>
              <LatitudeDegrees>42.7222163043916225433349609375</LatitudeDegrees>
              <LongitudeDegrees>-0.251762531697750091552734375</LongitudeDegrees>
            </Position>
            <AltitudeMeters>1463.5999755859375</AltitudeMeters>
            <DistanceMeters>3367.6372102742</DistanceMeters>
          </Trackpoint>
          <Trackpoint>
            <Time>2021-07-17T09:47:15.000Z</Time>
            <Position>
              <LatitudeDegrees>42.722211442887783050537109375</LatitudeDegrees>
              <LongitudeDegrees>-0.2517499588429927825927734375</LongitudeDegrees>
            </Position>
            <AltitudeMeters>1463.5999755859375</AltitudeMeters>
            <DistanceMeters>3368.7971591482</DistanceMeters>
          </Trackpoint>
          <Trackpoint>
            <Time>2021-07-17T09:47:18.000Z</Time>
            <Position>
              <LatitudeDegrees>42.72220482118427753448486328125</LatitudeDegrees>
              <LongitudeDegrees>-0.25170125998556613922119140625</LongitudeDegrees>
            </Position>
            <AltitudeMeters>1463.800048828125</AltitudeMeters>
            <DistanceMeters>3372.8466799621</DistanceMeters>
          </Trackpoint>
          <Trackpoint>
            <Time>2021-07-17T09:47:25.000Z</Time>
            <Position>
              <LatitudeDegrees>42.72219308651983737945556640625</LatitudeDegrees>
              <LongitudeDegrees>-0.25158843956887722015380859375</LongitudeDegrees>
            </Position>
            <AltitudeMeters>1464.4000244140625</AltitudeMeters>
            <DistanceMeters>3382.1636604201</DistanceMeters>
          </Trackpoint>
          <Trackpoint>
            <Time>2021-07-17T09:47:33.000Z</Time>
            <Position>
              <LatitudeDegrees>42.7221760712563991546630859375</LatitudeDegrees>
              <LongitudeDegrees>-0.25147243402898311614990234375</LongitudeDegrees>
            </Position>
            <AltitudeMeters>1465</AltitudeMeters>
            <DistanceMeters>3391.8368011775</DistanceMeters>
          </Trackpoint>
          <Trackpoint>
            <Time>2021-07-17T09:47:36.000Z</Time>
            <Position>
              <LatitudeDegrees>42.7221690304577350616455078125</LatitudeDegrees>
              <LongitudeDegrees>-0.2514257468283176422119140625</LongitudeDegrees>
            </Position>
            <AltitudeMeters>1465.199951171875</AltitudeMeters>
            <DistanceMeters>3395.7340551568</DistanceMeters>
          </Trackpoint>
          <Trackpoint>
            <Time>2021-07-17T09:47:45.000Z</Time>
            <Position>
              <LatitudeDegrees>42.7221406996250152587890625</LatitudeDegrees>
              <LongitudeDegrees>-0.2512919716536998748779296875</LongitudeDegrees>
            </Position>
            <AltitudeMeters>1465.5999755859375</AltitudeMeters>
            <DistanceMeters>3407.1182396741</DistanceMeters>
          </Trackpoint>
          <Trackpoint>
            <Time>2021-07-17T09:47:55.000Z</Time>
            <Position>
              <LatitudeDegrees>42.72211932577192783355712890625</LatitudeDegrees>
              <LongitudeDegrees>-0.25112542323768138885498046875</LongitudeDegrees>
            </Position>
            <AltitudeMeters>1464.4000244140625</AltitudeMeters>
            <DistanceMeters>3420.943238698</DistanceMeters>
          </Trackpoint>
          <Trackpoint>
            <Time>2021-07-17T09:48:03.000Z</Time>
            <Position>
              <LatitudeDegrees>42.7220857143402099609375</LatitudeDegrees>
              <LongitudeDegrees>-0.25101176463067531585693359375</LongitudeDegrees>
            </Position>
            <AltitudeMeters>1460.800048828125</AltitudeMeters>
            <DistanceMeters>3430.9612359828</DistanceMeters>
          </Trackpoint>
          <Trackpoint>
            <Time>2021-07-17T09:48:12.000Z</Time>
            <Position>
              <LatitudeDegrees>42.72209384478628635406494140625</LatitudeDegrees>
              <LongitudeDegrees>-0.25085083208978176116943359375</LongitudeDegrees>
            </Position>
            <AltitudeMeters>1458.4000244140625</AltitudeMeters>
            <DistanceMeters>3444.1518202353</DistanceMeters>
          </Trackpoint>
          <Trackpoint>
            <Time>2021-07-17T09:48:21.000Z</Time>
            <Position>
              <LatitudeDegrees>42.72212770767509937286376953125</LatitudeDegrees>
              <LongitudeDegrees>-0.25069308467209339141845703125</LongitudeDegrees>
            </Position>
            <AltitudeMeters>1457.4000244140625</AltitudeMeters>
            <DistanceMeters>3457.5899551032</DistanceMeters>
          </Trackpoint>
          <Trackpoint>
            <Time>2021-07-17T09:48:29.000Z</Time>
            <Position>
              <LatitudeDegrees>42.7221930027008056640625</LatitudeDegrees>
              <LongitudeDegrees>-0.2505731396377086639404296875</LongitudeDegrees>
            </Position>
            <AltitudeMeters>1459</AltitudeMeters>
            <DistanceMeters>3469.7963575758</DistanceMeters>
          </Trackpoint>
          <Trackpoint>
            <Time>2021-07-17T09:48:33.000Z</Time>
            <Position>
              <LatitudeDegrees>42.722233235836029052734375</LatitudeDegrees>
              <LongitudeDegrees>-0.25053064338862895965576171875</LongitudeDegrees>
            </Position>
            <AltitudeMeters>1460.199951171875</AltitudeMeters>
            <DistanceMeters>3475.4646035115</DistanceMeters>
          </Trackpoint>
          <Trackpoint>
            <Time>2021-07-17T09:48:37.000Z</Time>
            <Position>
              <LatitudeDegrees>42.72227439098060131072998046875</LatitudeDegrees>
              <LongitudeDegrees>-0.25048772804439067840576171875</LongitudeDegrees>
            </Position>
            <AltitudeMeters>1461.5999755859375</AltitudeMeters>
            <DistanceMeters>3481.2354718973</DistanceMeters>
          </Trackpoint>
          <Trackpoint>
            <Time>2021-07-17T09:48:45.000Z</Time>
            <Position>
              <LatitudeDegrees>42.72234630770981311798095703125</LatitudeDegrees>
              <LongitudeDegrees>-0.2504142187535762786865234375</LongitudeDegrees>
            </Position>
            <AltitudeMeters>1464.800048828125</AltitudeMeters>
            <DistanceMeters>3491.2453534261</DistanceMeters>
          </Trackpoint>
          <Trackpoint>
            <Time>2021-07-17T09:48:54.000Z</Time>
            <Position>
              <LatitudeDegrees>42.722441442310810089111328125</LatitudeDegrees>
              <LongitudeDegrees>-0.25032210163772106170654296875</LongitudeDegrees>
            </Position>
            <AltitudeMeters>1469.4000244140625</AltitudeMeters>
            <DistanceMeters>3504.2400611759</DistanceMeters>
          </Trackpoint>
          <Trackpoint>
            <Time>2021-07-17T09:49:01.000Z</Time>
            <Position>
              <LatitudeDegrees>42.722501792013645172119140625</LatitudeDegrees>
              <LongitudeDegrees>-0.25028941221535205841064453125</LongitudeDegrees>
            </Position>
            <AltitudeMeters>1472.199951171875</AltitudeMeters>
            <DistanceMeters>3511.4695896846</DistanceMeters>
          </Trackpoint>
          <Trackpoint>
            <Time>2021-07-17T09:49:04.000Z</Time>
            <Position>
              <LatitudeDegrees>42.7225247584283351898193359375</LatitudeDegrees>
              <LongitudeDegrees>-0.250263176858425140380859375</LongitudeDegrees>
            </Position>
            <AltitudeMeters>1473.199951171875</AltitudeMeters>
            <DistanceMeters>3514.8050138224</DistanceMeters>
          </Trackpoint>
          <Trackpoint>
            <Time>2021-07-17T09:49:08.000Z</Time>
            <Position>
              <LatitudeDegrees>42.72255870513617992401123046875</LatitudeDegrees>
              <LongitudeDegrees>-0.25021255016326904296875</LongitudeDegrees>
            </Position>
            <AltitudeMeters>1474.800048828125</AltitudeMeters>
            <DistanceMeters>3520.4099791165</DistanceMeters>
          </Trackpoint>
          <Trackpoint>
            <Time>2021-07-17T09:49:18.000Z</Time>
            <Position>
              <LatitudeDegrees>42.7225995250046253204345703125</LatitudeDegrees>
              <LongitudeDegrees>-0.2500368654727935791015625</LongitudeDegrees>
            </Position>
            <AltitudeMeters>1478</AltitudeMeters>
            <DistanceMeters>3535.4764339632</DistanceMeters>
          </Trackpoint>
          <Trackpoint>
            <Time>2021-07-17T09:49:20.000Z</Time>
            <Position>
              <LatitudeDegrees>42.72259223274886608123779296875</LatitudeDegrees>
              <LongitudeDegrees>-0.25001733563840389251708984375</LongitudeDegrees>
            </Position>
            <AltitudeMeters>1477.800048828125</AltitudeMeters>
            <DistanceMeters>3537.2668744503</DistanceMeters>
          </Trackpoint>
          <Trackpoint>
            <Time>2021-07-17T09:49:21.000Z</Time>
            <Position>
              <LatitudeDegrees>42.72258527576923370361328125</LatitudeDegrees>
              <LongitudeDegrees>-0.25000677444040775299072265625</LongitudeDegrees>
            </Position>
            <AltitudeMeters>1477.5999755859375</AltitudeMeters>
            <DistanceMeters>3538.430709261</DistanceMeters>
          </Trackpoint>
          <Trackpoint>
            <Time>2021-07-17T09:49:22.000Z</Time>
            <Position>
              <LatitudeDegrees>42.72257588803768157958984375</LatitudeDegrees>
              <LongitudeDegrees>-0.249994285404682159423828125</LongitudeDegrees>
            </Position>
            <AltitudeMeters>1477.199951171875</AltitudeMeters>
            <DistanceMeters>3539.890537347</DistanceMeters>
          </Trackpoint>
          <Trackpoint>
            <Time>2021-07-17T09:49:23.000Z</Time>
            <Position>
              <LatitudeDegrees>42.72256876341998577117919921875</LatitudeDegrees>
              <LongitudeDegrees>-0.24998531676828861236572265625</LongitudeDegrees>
            </Position>
            <AltitudeMeters>1477</AltitudeMeters>
            <DistanceMeters>3540.965641893</DistanceMeters>
          </Trackpoint>
          <Trackpoint>
            <Time>2021-07-17T09:49:24.000Z</Time>
            <Position>
              <LatitudeDegrees>42.722559459507465362548828125</LatitudeDegrees>
              <LongitudeDegrees>-0.24998850189149379730224609375</LongitudeDegrees>
            </Position>
            <AltitudeMeters>1476.4000244140625</AltitudeMeters>
            <DistanceMeters>3542.0323141163</DistanceMeters>
          </Trackpoint>
          <Trackpoint>
            <Time>2021-07-17T09:49:28.000Z</Time>
            <Position>
              <LatitudeDegrees>42.7225260995328426361083984375</LatitudeDegrees>
              <LongitudeDegrees>-0.24996922351419925689697265625</LongitudeDegrees>
            </Position>
            <AltitudeMeters>1475</AltitudeMeters>
            <DistanceMeters>3546.0661953431</DistanceMeters>
          </Trackpoint>
          <Trackpoint>
            <Time>2021-07-17T09:49:29.000Z</Time>
            <Position>
              <LatitudeDegrees>42.722519896924495697021484375</LatitudeDegrees>
              <LongitudeDegrees>-0.249956063926219940185546875</LongitudeDegrees>
            </Position>
            <AltitudeMeters>1474.5999755859375</AltitudeMeters>
            <DistanceMeters>3547.3446490327</DistanceMeters>
          </Trackpoint>
          <Trackpoint>
            <Time>2021-07-17T09:49:36.000Z</Time>
            <Position>
              <LatitudeDegrees>42.72245795466005802154541015625</LatitudeDegrees>
              <LongitudeDegrees>-0.24988104589283466339111328125</LongitudeDegrees>
            </Position>
            <AltitudeMeters>1471.5999755859375</AltitudeMeters>
            <DistanceMeters>3556.5734995038</DistanceMeters>
          </Trackpoint>
          <Trackpoint>
            <Time>2021-07-17T09:49:44.000Z</Time>
            <Position>
              <LatitudeDegrees>42.72241788916289806365966796875</LatitudeDegrees>
              <LongitudeDegrees>-0.2497570775449275970458984375</LongitudeDegrees>
            </Position>
            <AltitudeMeters>1469.800048828125</AltitudeMeters>
            <DistanceMeters>3567.6476797527</DistanceMeters>
          </Trackpoint>
          <Trackpoint>
            <Time>2021-07-17T09:49:45.000Z</Time>
            <Position>
              <LatitudeDegrees>42.722415626049041748046875</LatitudeDegrees>
              <LongitudeDegrees>-0.249744169414043426513671875</LongitudeDegrees>
            </Position>
            <AltitudeMeters>1469.800048828125</AltitudeMeters>
            <DistanceMeters>3568.7353102112</DistanceMeters>
          </Trackpoint>
          <Trackpoint>
            <Time>2021-07-17T09:49:48.000Z</Time>
            <Position>
              <LatitudeDegrees>42.7224060706794261932373046875</LatitudeDegrees>
              <LongitudeDegrees>-0.24970049969851970672607421875</LongitudeDegrees>
            </Position>
            <AltitudeMeters>1469.4000244140625</AltitudeMeters>
            <DistanceMeters>3572.4620054725</DistanceMeters>
          </Trackpoint>
          <Trackpoint>
            <Time>2021-07-17T09:49:51.000Z</Time>
            <Position>
              <LatitudeDegrees>42.7223859541118144989013671875</LatitudeDegrees>
              <LongitudeDegrees>-0.24965465068817138671875</LongitudeDegrees>
            </Position>
            <AltitudeMeters>1468.4000244140625</AltitudeMeters>
            <DistanceMeters>3576.8291007829</DistanceMeters>
          </Trackpoint>
          <Trackpoint>
            <Time>2021-07-17T09:49:54.000Z</Time>
            <Position>
              <LatitudeDegrees>42.72238067351281642913818359375</LatitudeDegrees>
              <LongitudeDegrees>-0.2496159262955188751220703125</LongitudeDegrees>
            </Position>
            <AltitudeMeters>1468</AltitudeMeters>
            <DistanceMeters>3580.0488100489</DistanceMeters>
          </Trackpoint>
          <Trackpoint>
            <Time>2021-07-17T09:50:00.000Z</Time>
            <Position>
              <LatitudeDegrees>42.7223552763462066650390625</LatitudeDegrees>
              <LongitudeDegrees>-0.24952431209385395050048828125</LongitudeDegrees>
            </Position>
            <AltitudeMeters>1466.199951171875</AltitudeMeters>
            <DistanceMeters>3588.0547754872</DistanceMeters>
          </Trackpoint>
          <Trackpoint>
            <Time>2021-07-17T09:50:03.000Z</Time>
            <Position>
              <LatitudeDegrees>42.72234094329178333282470703125</LatitudeDegrees>
              <LongitudeDegrees>-0.2494831569492816925048828125</LongitudeDegrees>
            </Position>
            <AltitudeMeters>1465.199951171875</AltitudeMeters>
            <DistanceMeters>3591.7778343561</DistanceMeters>
          </Trackpoint>
          <Trackpoint>
            <Time>2021-07-17T09:50:08.000Z</Time>
            <Position>
              <LatitudeDegrees>42.72232652641832828521728515625</LatitudeDegrees>
              <LongitudeDegrees>-0.24940763600170612335205078125</LongitudeDegrees>
            </Position>
            <AltitudeMeters>1464.199951171875</AltitudeMeters>
            <DistanceMeters>3598.1580839288</DistanceMeters>
          </Trackpoint>
          <Trackpoint>
            <Time>2021-07-17T09:50:14.000Z</Time>
            <Position>
              <LatitudeDegrees>42.7223068289458751678466796875</LatitudeDegrees>
              <LongitudeDegrees>-0.24931602180004119873046875</LongitudeDegrees>
            </Position>
            <AltitudeMeters>1462.5999755859375</AltitudeMeters>
            <DistanceMeters>3605.9630115832</DistanceMeters>
          </Trackpoint>
          <Trackpoint>
            <Time>2021-07-17T09:50:16.000Z</Time>
            <Position>
              <LatitudeDegrees>42.72230674512684345245361328125</LatitudeDegrees>
              <LongitudeDegrees>-0.2492863498628139495849609375</LongitudeDegrees>
            </Position>
            <AltitudeMeters>1462.4000244140625</AltitudeMeters>
            <DistanceMeters>3608.3894513293</DistanceMeters>
          </Trackpoint>
          <Trackpoint>
            <Time>2021-07-17T09:50:22.000Z</Time>
            <Position>
              <LatitudeDegrees>42.7223024703562259674072265625</LatitudeDegrees>
              <LongitudeDegrees>-0.24919264018535614013671875</LongitudeDegrees>
            </Position>
            <AltitudeMeters>1461.5999755859375</AltitudeMeters>
            <DistanceMeters>3616.0672334977</DistanceMeters>
          </Trackpoint>
          <Trackpoint>
            <Time>2021-07-17T09:50:32.000Z</Time>
            <Position>
              <LatitudeDegrees>42.722304649651050567626953125</LatitudeDegrees>
              <LongitudeDegrees>-0.24903564713895320892333984375</LongitudeDegrees>
            </Position>
            <AltitudeMeters>1461.5999755859375</AltitudeMeters>
            <DistanceMeters>3628.90639412</DistanceMeters>
          </Trackpoint>
          <Trackpoint>
            <Time>2021-07-17T09:50:35.000Z</Time>
            <Position>
              <LatitudeDegrees>42.72230423055589199066162109375</LatitudeDegrees>
              <LongitudeDegrees>-0.248986780643463134765625</LongitudeDegrees>
            </Position>
            <AltitudeMeters>1462.4000244140625</AltitudeMeters>
            <DistanceMeters>3632.9020386429</DistanceMeters>
          </Trackpoint>
          <Trackpoint>
            <Time>2021-07-17T09:50:38.000Z</Time>
            <Position>
              <LatitudeDegrees>42.7223108522593975067138671875</LatitudeDegrees>
              <LongitudeDegrees>-0.24893254972994327545166015625</LongitudeDegrees>
            </Position>
            <AltitudeMeters>1463.4000244140625</AltitudeMeters>
            <DistanceMeters>3637.3975153786</DistanceMeters>
          </Trackpoint>
          <Trackpoint>
            <Time>2021-07-17T09:50:40.000Z</Time>
            <Position>
              <LatitudeDegrees>42.72231814451515674591064453125</LatitudeDegrees>
              <LongitudeDegrees>-0.248897932469844818115234375</LongitudeDegrees>
            </Position>
            <AltitudeMeters>1464</AltitudeMeters>
            <DistanceMeters>3640.3418104362</DistanceMeters>
          </Trackpoint>
          <Trackpoint>
            <Time>2021-07-17T09:50:47.000Z</Time>
            <Position>
              <LatitudeDegrees>42.72233675234019756317138671875</LatitudeDegrees>
              <LongitudeDegrees>-0.24878201074898242950439453125</LongitudeDegrees>
            </Position>
            <AltitudeMeters>1466.800048828125</AltitudeMeters>
            <DistanceMeters>3650.0438471735</DistanceMeters>
          </Trackpoint>
          <Trackpoint>
            <Time>2021-07-17T09:50:48.000Z</Time>
            <Position>
              <LatitudeDegrees>42.722336165606975555419921875</LatitudeDegrees>
              <LongitudeDegrees>-0.24876407347619533538818359375</LongitudeDegrees>
            </Position>
            <AltitudeMeters>1467</AltitudeMeters>
            <DistanceMeters>3651.5098479217</DistanceMeters>
          </Trackpoint>
          <Trackpoint>
            <Time>2021-07-17T09:50:54.000Z</Time>
            <Position>
              <LatitudeDegrees>42.7223443798720836639404296875</LatitudeDegrees>
              <LongitudeDegrees>-0.24865896441042423248291015625</LongitudeDegrees>
            </Position>
            <AltitudeMeters>1469.5999755859375</AltitudeMeters>
            <DistanceMeters>3660.1525785286</DistanceMeters>
          </Trackpoint>
          <Trackpoint>
            <Time>2021-07-17T09:50:58.000Z</Time>
            <Position>
              <LatitudeDegrees>42.72234932519495487213134765625</LatitudeDegrees>
              <LongitudeDegrees>-0.24859894998371601104736328125</LongitudeDegrees>
            </Position>
            <AltitudeMeters>1471.199951171875</AltitudeMeters>
            <DistanceMeters>3665.0912257599</DistanceMeters>
          </Trackpoint>
          <Trackpoint>
            <Time>2021-07-17T09:50:59.000Z</Time>
            <Position>
              <LatitudeDegrees>42.72234714590013027191162109375</LatitudeDegrees>
              <LongitudeDegrees>-0.24858822114765644073486328125</LongitudeDegrees>
            </Position>
            <AltitudeMeters>1471.199951171875</AltitudeMeters>
            <DistanceMeters>3666.0026899846</DistanceMeters>
          </Trackpoint>
          <Trackpoint>
            <Time>2021-07-17T09:51:04.000Z</Time>
            <Position>
              <LatitudeDegrees>42.722325436770915985107421875</LatitudeDegrees>
              <LongitudeDegrees>-0.2485044859349727630615234375</LongitudeDegrees>
            </Position>
            <AltitudeMeters>1472</AltitudeMeters>
            <DistanceMeters>3673.2627558385</DistanceMeters>
          </Trackpoint>
          <Trackpoint>
            <Time>2021-07-17T09:51:05.000Z</Time>
            <Position>
              <LatitudeDegrees>42.7223177254199981689453125</LatitudeDegrees>
              <LongitudeDegrees>-0.24849115870893001556396484375</LongitudeDegrees>
            </Position>
            <AltitudeMeters>1472</AltitudeMeters>
            <DistanceMeters>3674.6496250762</DistanceMeters>
          </Trackpoint>
          <Trackpoint>
            <Time>2021-07-17T09:51:10.000Z</Time>
            <Position>
              <LatitudeDegrees>42.72226919420063495635986328125</LatitudeDegrees>
              <LongitudeDegrees>-0.24843818508088588714599609375</LongitudeDegrees>
            </Position>
            <AltitudeMeters>1471.4000244140625</AltitudeMeters>
            <DistanceMeters>3681.572893507</DistanceMeters>
          </Trackpoint>
          <Trackpoint>
            <Time>2021-07-17T09:51:14.000Z</Time>
            <Position>
              <LatitudeDegrees>42.7222196571528911590576171875</LatitudeDegrees>
              <LongitudeDegrees>-0.2484129555523395538330078125</LongitudeDegrees>
            </Position>
            <AltitudeMeters>1470.199951171875</AltitudeMeters>
            <DistanceMeters>3687.4599499355</DistanceMeters>
          </Trackpoint>
          <Trackpoint>
            <Time>2021-07-17T09:51:20.000Z</Time>
            <Position>
              <LatitudeDegrees>42.72214313037693500518798828125</LatitudeDegrees>
              <LongitudeDegrees>-0.2484028972685337066650390625</LongitudeDegrees>
            </Position>
            <AltitudeMeters>1468</AltitudeMeters>
            <DistanceMeters>3696.0176318623</DistanceMeters>
          </Trackpoint>
          <Trackpoint>
            <Time>2021-07-17T09:51:28.000Z</Time>
            <Position>
              <LatitudeDegrees>42.72202335298061370849609375</LatitudeDegrees>
              <LongitudeDegrees>-0.24843357503414154052734375</LongitudeDegrees>
            </Position>
            <AltitudeMeters>1463.199951171875</AltitudeMeters>
            <DistanceMeters>3709.5828409567</DistanceMeters>
          </Trackpoint>
          <Trackpoint>
            <Time>2021-07-17T09:51:36.000Z</Time>
            <Position>
              <LatitudeDegrees>42.721930481493473052978515625</LatitudeDegrees>
              <LongitudeDegrees>-0.248422510921955108642578125</LongitudeDegrees>
            </Position>
            <AltitudeMeters>1458.800048828125</AltitudeMeters>
            <DistanceMeters>3719.9590445708</DistanceMeters>
          </Trackpoint>
          <Trackpoint>
            <Time>2021-07-17T09:51:40.000Z</Time>
            <Position>
              <LatitudeDegrees>42.72187675349414348602294921875</LatitudeDegrees>
              <LongitudeDegrees>-0.24840482510626316070556640625</LongitudeDegrees>
            </Position>
            <AltitudeMeters>1456.4000244140625</AltitudeMeters>
            <DistanceMeters>3726.1116115516</DistanceMeters>
          </Trackpoint>
          <Trackpoint>
            <Time>2021-07-17T09:51:43.000Z</Time>
            <Position>
              <LatitudeDegrees>42.721842639148235321044921875</LatitudeDegrees>
              <LongitudeDegrees>-0.2483807690441608428955078125</LongitudeDegrees>
            </Position>
            <AltitudeMeters>1455.199951171875</AltitudeMeters>
            <DistanceMeters>3730.3888694203</DistanceMeters>
          </Trackpoint>
          <Trackpoint>
            <Time>2021-07-17T09:51:47.000Z</Time>
            <Position>
              <LatitudeDegrees>42.72182981483638286590576171875</LatitudeDegrees>
              <LongitudeDegrees>-0.24831798858940601348876953125</LongitudeDegrees>
            </Position>
            <AltitudeMeters>1455.800048828125</AltitudeMeters>
            <DistanceMeters>3735.7171487241</DistanceMeters>
          </Trackpoint>
          <Trackpoint>
            <Time>2021-07-17T09:51:49.000Z</Time>
            <Position>
              <LatitudeDegrees>42.72182445041835308074951171875</LatitudeDegrees>
              <LongitudeDegrees>-0.24828814901411533355712890625</LongitudeDegrees>
            </Position>
            <AltitudeMeters>1456</AltitudeMeters>
            <DistanceMeters>3738.2313192654</DistanceMeters>
          </Trackpoint>
          <Trackpoint>
            <Time>2021-07-17T09:51:59.000Z</Time>
            <Position>
              <LatitudeDegrees>42.7217928506433963775634765625</LatitudeDegrees>
              <LongitudeDegrees>-0.24814096279442310333251953125</LongitudeDegrees>
            </Position>
            <AltitudeMeters>1456.4000244140625</AltitudeMeters>
            <DistanceMeters>3750.7698052542</DistanceMeters>
          </Trackpoint>
          <Trackpoint>
            <Time>2021-07-17T09:52:10.000Z</Time>
            <Position>
              <LatitudeDegrees>42.72178463637828826904296875</LatitudeDegrees>
              <LongitudeDegrees>-0.24796091951429843902587890625</LongitudeDegrees>
            </Position>
            <AltitudeMeters>1457.4000244140625</AltitudeMeters>
            <DistanceMeters>3765.5197758224</DistanceMeters>
          </Trackpoint>
          <Trackpoint>
            <Time>2021-07-17T09:52:19.000Z</Time>
            <Position>
              <LatitudeDegrees>42.7217945270240306854248046875</LatitudeDegrees>
              <LongitudeDegrees>-0.24780618958175182342529296875</LongitudeDegrees>
            </Position>
            <AltitudeMeters>1460.5999755859375</AltitudeMeters>
            <DistanceMeters>3778.2199815468</DistanceMeters>
          </Trackpoint>
          <Trackpoint>
            <Time>2021-07-17T09:52:26.000Z</Time>
            <Position>
              <LatitudeDegrees>42.72178689949214458465576171875</LatitudeDegrees>
              <LongitudeDegrees>-0.2476817183196544647216796875</LongitudeDegrees>
            </Position>
            <AltitudeMeters>1462.4000244140625</AltitudeMeters>
            <DistanceMeters>3788.4334747338</DistanceMeters>
          </Trackpoint>
          <Trackpoint>
            <Time>2021-07-17T09:52:30.000Z</Time>
            <Position>
              <LatitudeDegrees>42.72177834995090961456298828125</LatitudeDegrees>
              <LongitudeDegrees>-0.24762212298810482025146484375</LongitudeDegrees>
            </Position>
            <AltitudeMeters>1462.800048828125</AltitudeMeters>
            <DistanceMeters>3793.3985637251</DistanceMeters>
          </Trackpoint>
          <Trackpoint>
            <Time>2021-07-17T09:52:37.000Z</Time>
            <Position>
              <LatitudeDegrees>42.721761502325534820556640625</LatitudeDegrees>
              <LongitudeDegrees>-0.24751131422817707061767578125</LongitudeDegrees>
            </Position>
            <AltitudeMeters>1463</AltitudeMeters>
            <DistanceMeters>3802.6518434054</DistanceMeters>
          </Trackpoint>
          <Trackpoint>
            <Time>2021-07-17T09:52:46.000Z</Time>
            <Position>
              <LatitudeDegrees>42.72171699441969394683837890625</LatitudeDegrees>
              <LongitudeDegrees>-0.2473803050816059112548828125</LongitudeDegrees>
            </Position>
            <AltitudeMeters>1462.199951171875</AltitudeMeters>
            <DistanceMeters>3814.4539164923</DistanceMeters>
          </Trackpoint>
          <Trackpoint>
            <Time>2021-07-17T09:52:56.000Z</Time>
            <Position>
              <LatitudeDegrees>42.72163803689181804656982421875</LatitudeDegrees>
              <LongitudeDegrees>-0.2472554147243499755859375</LongitudeDegrees>
            </Position>
            <AltitudeMeters>1459.5999755859375</AltitudeMeters>
            <DistanceMeters>3827.9269486928</DistanceMeters>
          </Trackpoint>
          <Trackpoint>
            <Time>2021-07-17T09:53:04.000Z</Time>
            <Position>
              <LatitudeDegrees>42.7215598337352275848388671875</LatitudeDegrees>
              <LongitudeDegrees>-0.24717033840715885162353515625</LongitudeDegrees>
            </Position>
            <AltitudeMeters>1457.199951171875</AltitudeMeters>
            <DistanceMeters>3839.0690082399</DistanceMeters>
          </Trackpoint>
          <Trackpoint>
            <Time>2021-07-17T09:53:10.000Z</Time>
            <Position>
              <LatitudeDegrees>42.7215212769806385040283203125</LatitudeDegrees>
              <LongitudeDegrees>-0.24707461707293987274169921875</LongitudeDegrees>
            </Position>
            <AltitudeMeters>1456.4000244140625</AltitudeMeters>
            <DistanceMeters>3847.994440128</DistanceMeters>
          </Trackpoint>
          <Trackpoint>
            <Time>2021-07-17T09:53:14.000Z</Time>
            <Position>
              <LatitudeDegrees>42.72151063196361064910888671875</LatitudeDegrees>
              <LongitudeDegrees>-0.24701661430299282073974609375</LongitudeDegrees>
            </Position>
            <AltitudeMeters>1456.4000244140625</AltitudeMeters>
            <DistanceMeters>3852.8825463329</DistanceMeters>
          </Trackpoint>
          <Trackpoint>
            <Time>2021-07-17T09:53:15.000Z</Time>
            <Position>
              <LatitudeDegrees>42.72150744684040546417236328125</LatitudeDegrees>
              <LongitudeDegrees>-0.24699725210666656494140625</LongitudeDegrees>
            </Position>
            <AltitudeMeters>1456.5999755859375</AltitudeMeters>
            <DistanceMeters>3854.5063635399</DistanceMeters>
          </Trackpoint>
          <Trackpoint>
            <Time>2021-07-17T09:53:19.000Z</Time>
            <Position>
              <LatitudeDegrees>42.7214971370995044708251953125</LatitudeDegrees>
              <LongitudeDegrees>-0.24692743085324764251708984375</LongitudeDegrees>
            </Position>
            <AltitudeMeters>1456.800048828125</AltitudeMeters>
            <DistanceMeters>3860.330191072</DistanceMeters>
          </Trackpoint>
          <Trackpoint>
            <Time>2021-07-17T09:53:22.000Z</Time>
            <Position>
              <LatitudeDegrees>42.72148380987346172332763671875</LatitudeDegrees>
              <LongitudeDegrees>-0.2468814142048358917236328125</LongitudeDegrees>
            </Position>
            <AltitudeMeters>1456.5999755859375</AltitudeMeters>
            <DistanceMeters>3864.3752496027</DistanceMeters>
          </Trackpoint>
          <Trackpoint>
            <Time>2021-07-17T09:53:31.000Z</Time>
            <Position>
              <LatitudeDegrees>42.7214357815682888031005859375</LatitudeDegrees>
              <LongitudeDegrees>-0.24674587883055210113525390625</LongitudeDegrees>
            </Position>
            <AltitudeMeters>1456.199951171875</AltitudeMeters>
            <DistanceMeters>3876.6796496961</DistanceMeters>
          </Trackpoint>
          <Trackpoint>
            <Time>2021-07-17T09:53:36.000Z</Time>
            <Position>
              <LatitudeDegrees>42.72142253816127777099609375</LatitudeDegrees>
              <LongitudeDegrees>-0.24666541256010532379150390625</LongitudeDegrees>
            </Position>
            <AltitudeMeters>1456.800048828125</AltitudeMeters>
            <DistanceMeters>3883.4218603735</DistanceMeters>
          </Trackpoint>
          <Trackpoint>
            <Time>2021-07-17T09:53:39.000Z</Time>
            <Position>
              <LatitudeDegrees>42.72141356952488422393798828125</LatitudeDegrees>
              <LongitudeDegrees>-0.24661411531269550323486328125</LongitudeDegrees>
            </Position>
            <AltitudeMeters>1456.800048828125</AltitudeMeters>
            <DistanceMeters>3887.7327648403</DistanceMeters>
          </Trackpoint>
          <Trackpoint>
            <Time>2021-07-17T09:53:51.000Z</Time>
            <Position>
              <LatitudeDegrees>42.721345424652099609375</LatitudeDegrees>
              <LongitudeDegrees>-0.246433652937412261962890625</LongitudeDegrees>
            </Position>
            <AltitudeMeters>1454.5999755859375</AltitudeMeters>
            <DistanceMeters>3904.3241134991</DistanceMeters>
          </Trackpoint>
          <Trackpoint>
            <Time>2021-07-17T09:53:59.000Z</Time>
            <Position>
              <LatitudeDegrees>42.72130787372589111328125</LatitudeDegrees>
              <LongitudeDegrees>-0.24632913060486316680908203125</LongitudeDegrees>
            </Position>
            <AltitudeMeters>1454.199951171875</AltitudeMeters>
            <DistanceMeters>3913.8381813081</DistanceMeters>
          </Trackpoint>
          <Trackpoint>
            <Time>2021-07-17T09:54:02.000Z</Time>
            <Position>
              <LatitudeDegrees>42.7212919481098651885986328125</LatitudeDegrees>
              <LongitudeDegrees>-0.24628914892673492431640625</LongitudeDegrees>
            </Position>
            <AltitudeMeters>1454</AltitudeMeters>
            <DistanceMeters>3917.5576002294</DistanceMeters>
          </Trackpoint>
          <Trackpoint>
            <Time>2021-07-17T09:54:05.000Z</Time>
            <Position>
              <LatitudeDegrees>42.7212711609899997711181640625</LatitudeDegrees>
              <LongitudeDegrees>-0.24625151418149471282958984375</LongitudeDegrees>
            </Position>
            <AltitudeMeters>1453.4000244140625</AltitudeMeters>
            <DistanceMeters>3921.4094070259</DistanceMeters>
          </Trackpoint>
          <Trackpoint>
            <Time>2021-07-17T09:54:09.000Z</Time>
            <Position>
              <LatitudeDegrees>42.7212510444223880767822265625</LatitudeDegrees>
              <LongitudeDegrees>-0.2462289668619632720947265625</LongitudeDegrees>
            </Position>
            <AltitudeMeters>1452.800048828125</AltitudeMeters>
            <DistanceMeters>3924.30888994</DistanceMeters>
          </Trackpoint>
          <Trackpoint>
            <Time>2021-07-17T09:54:10.000Z</Time>
            <Position>
              <LatitudeDegrees>42.72125163115561008453369140625</LatitudeDegrees>
              <LongitudeDegrees>-0.246229134500026702880859375</LongitudeDegrees>
            </Position>
            <AltitudeMeters>1452.800048828125</AltitudeMeters>
            <DistanceMeters>3924.30888994</DistanceMeters>
          </Trackpoint>
          <Trackpoint>
            <Time>2021-07-17T09:54:12.000Z</Time>
            <Position>
              <LatitudeDegrees>42.72124953567981719970703125</LatitudeDegrees>
              <LongitudeDegrees>-0.2462232671678066253662109375</LongitudeDegrees>
            </Position>
            <AltitudeMeters>1452.800048828125</AltitudeMeters>
            <DistanceMeters>3924.846442213</DistanceMeters>
          </Trackpoint>
          <Trackpoint>
            <Time>2021-07-17T09:54:16.000Z</Time>
            <Position>
              <LatitudeDegrees>42.72122212685644626617431640625</LatitudeDegrees>
              <LongitudeDegrees>-0.24618898518383502960205078125</LongitudeDegrees>
            </Position>
            <AltitudeMeters>1452.5999755859375</AltitudeMeters>
            <DistanceMeters>3928.9885606618</DistanceMeters>
          </Trackpoint>
          <Trackpoint>
            <Time>2021-07-17T09:54:23.000Z</Time>
            <Position>
              <LatitudeDegrees>42.7211722545325756072998046875</LatitudeDegrees>
              <LongitudeDegrees>-0.24610298685729503631591796875</LongitudeDegrees>
            </Position>
            <AltitudeMeters>1452.5999755859375</AltitudeMeters>
            <DistanceMeters>3937.9473172403</DistanceMeters>
          </Trackpoint>
          <Trackpoint>
            <Time>2021-07-17T09:54:32.000Z</Time>
            <Position>
              <LatitudeDegrees>42.72111249156296253204345703125</LatitudeDegrees>
              <LongitudeDegrees>-0.24598966352641582489013671875</LongitudeDegrees>
            </Position>
            <AltitudeMeters>1453</AltitudeMeters>
            <DistanceMeters>3949.3540859099</DistanceMeters>
          </Trackpoint>
          <Trackpoint>
            <Time>2021-07-17T09:54:36.000Z</Time>
            <Position>
              <LatitudeDegrees>42.72108768112957477569580078125</LatitudeDegrees>
              <LongitudeDegrees>-0.24593668989837169647216796875</LongitudeDegrees>
            </Position>
            <AltitudeMeters>1453.199951171875</AltitudeMeters>
            <DistanceMeters>3954.4916839329</DistanceMeters>
          </Trackpoint>
          <Trackpoint>
            <Time>2021-07-17T09:54:40.000Z</Time>
            <Position>
              <LatitudeDegrees>42.72106136195361614227294921875</LatitudeDegrees>
              <LongitudeDegrees>-0.2458839677274227142333984375</LongitudeDegrees>
            </Position>
            <AltitudeMeters>1453.4000244140625</AltitudeMeters>
            <DistanceMeters>3959.7034465851</DistanceMeters>
          </Trackpoint>
          <Trackpoint>
            <Time>2021-07-17T09:54:42.000Z</Time>
            <Position>
              <LatitudeDegrees>42.72105113603174686431884765625</LatitudeDegrees>
              <LongitudeDegrees>-0.245859660208225250244140625</LongitudeDegrees>
            </Position>
            <AltitudeMeters>1453.5999755859375</AltitudeMeters>
            <DistanceMeters>3961.9959352962</DistanceMeters>
          </Trackpoint>
          <Trackpoint>
            <Time>2021-07-17T09:54:52.000Z</Time>
            <Position>
              <LatitudeDegrees>42.7209855057299137115478515625</LatitudeDegrees>
              <LongitudeDegrees>-0.2457294054329395294189453125</LongitudeDegrees>
            </Position>
            <AltitudeMeters>1453.800048828125</AltitudeMeters>
            <DistanceMeters>3974.9115306038</DistanceMeters>
          </Trackpoint>
          <Trackpoint>
            <Time>2021-07-17T09:55:00.000Z</Time>
            <Position>
              <LatitudeDegrees>42.72095172666013240814208984375</LatitudeDegrees>
              <LongitudeDegrees>-0.24562337435781955718994140625</LongitudeDegrees>
            </Position>
            <AltitudeMeters>1454.5999755859375</AltitudeMeters>
            <DistanceMeters>3984.3608372385</DistanceMeters>
          </Trackpoint>
          <Trackpoint>
            <Time>2021-07-17T09:55:01.000Z</Time>
            <Position>
              <LatitudeDegrees>42.720946781337261199951171875</LatitudeDegrees>
              <LongitudeDegrees>-0.245607197284698486328125</LongitudeDegrees>
            </Position>
            <AltitudeMeters>1454.5999755859375</AltitudeMeters>
            <DistanceMeters>3985.7925590526</DistanceMeters>
          </Trackpoint>
          <Trackpoint>
            <Time>2021-07-17T09:55:05.000Z</Time>
            <Position>
              <LatitudeDegrees>42.720923982560634613037109375</LatitudeDegrees>
              <LongitudeDegrees>-0.245549194514751434326171875</LongitudeDegrees>
            </Position>
            <AltitudeMeters>1454.800048828125</AltitudeMeters>
            <DistanceMeters>3991.171440435</DistanceMeters>
          </Trackpoint>
          <Trackpoint>
            <Time>2021-07-17T09:55:09.000Z</Time>
            <Position>
              <LatitudeDegrees>42.72089825011789798736572265625</LatitudeDegrees>
              <LongitudeDegrees>-0.24549462832510471343994140625</LongitudeDegrees>
            </Position>
            <AltitudeMeters>1455</AltitudeMeters>
            <DistanceMeters>3996.4742376258</DistanceMeters>
          </Trackpoint>
          <Trackpoint>
            <Time>2021-07-17T09:55:14.000Z</Time>
            <Position>
              <LatitudeDegrees>42.7208881080150604248046875</LatitudeDegrees>
              <LongitudeDegrees>-0.24540938436985015869140625</LongitudeDegrees>
            </Position>
            <AltitudeMeters>1454.4000244140625</AltitudeMeters>
            <DistanceMeters>4003.5356880521</DistanceMeters>
          </Trackpoint>
          <Trackpoint>
            <Time>2021-07-17T09:55:18.000Z</Time>
            <Position>
              <LatitudeDegrees>42.72089011967182159423828125</LatitudeDegrees>
              <LongitudeDegrees>-0.2453485317528247833251953125</LongitudeDegrees>
            </Position>
            <AltitudeMeters>1454.4000244140625</AltitudeMeters>
            <DistanceMeters>4008.5153054988</DistanceMeters>
          </Trackpoint>
          <Trackpoint>
            <Time>2021-07-17T09:55:21.000Z</Time>
            <Position>
              <LatitudeDegrees>42.72089682519435882568359375</LatitudeDegrees>
              <LongitudeDegrees>-0.24531223811209201812744140625</LongitudeDegrees>
            </Position>
            <AltitudeMeters>1454.4000244140625</AltitudeMeters>
            <DistanceMeters>4011.5754017836</DistanceMeters>
          </Trackpoint>
          <Trackpoint>
            <Time>2021-07-17T09:55:26.000Z</Time>
            <Position>
              <LatitudeDegrees>42.7209342084825038909912109375</LatitudeDegrees>
              <LongitudeDegrees>-0.24525205604732036590576171875</LongitudeDegrees>
            </Position>
            <AltitudeMeters>1455.800048828125</AltitudeMeters>
            <DistanceMeters>4018.0204271243</DistanceMeters>
          </Trackpoint>
          <Trackpoint>
            <Time>2021-07-17T09:55:33.000Z</Time>
            <Position>
              <LatitudeDegrees>42.72100009024143218994140625</LatitudeDegrees>
              <LongitudeDegrees>-0.245180390775203704833984375</LongitudeDegrees>
            </Position>
            <AltitudeMeters>1457.800048828125</AltitudeMeters>
            <DistanceMeters>4027.407412047</DistanceMeters>
          </Trackpoint>
          <Trackpoint>
            <Time>2021-07-17T09:55:39.000Z</Time>
            <Position>
              <LatitudeDegrees>42.7210678160190582275390625</LatitudeDegrees>
              <LongitudeDegrees>-0.24512238800525665283203125</LongitudeDegrees>
            </Position>
            <AltitudeMeters>1460</AltitudeMeters>
            <DistanceMeters>4036.3141073691</DistanceMeters>
          </Trackpoint>
          <Trackpoint>
            <Time>2021-07-17T09:55:50.000Z</Time>
            <Position>
              <LatitudeDegrees>42.7211751043796539306640625</LatitudeDegrees>
              <LongitudeDegrees>-0.2450001798570156097412109375</LongitudeDegrees>
            </Position>
            <AltitudeMeters>1462.800048828125</AltitudeMeters>
            <DistanceMeters>4051.8854458664</DistanceMeters>
          </Trackpoint>
          <Trackpoint>
            <Time>2021-07-17T09:55:58.000Z</Time>
            <Position>
              <LatitudeDegrees>42.721213661134243011474609375</LatitudeDegrees>
              <LongitudeDegrees>-0.24488526396453380584716796875</LongitudeDegrees>
            </Position>
            <AltitudeMeters>1463</AltitudeMeters>
            <DistanceMeters>4062.2158593825</DistanceMeters>
          </Trackpoint>
          <Trackpoint>
            <Time>2021-07-17T09:56:07.000Z</Time>
            <Position>
              <LatitudeDegrees>42.72118658758699893951416015625</LatitudeDegrees>
              <LongitudeDegrees>-0.24475752376019954681396484375</LongitudeDegrees>
            </Position>
            <AltitudeMeters>1461.800048828125</AltitudeMeters>
            <DistanceMeters>4073.0871813122</DistanceMeters>
          </Trackpoint>
          <Trackpoint>
            <Time>2021-07-17T09:56:14.000Z</Time>
            <Position>
              <LatitudeDegrees>42.721117436885833740234375</LatitudeDegrees>
              <LongitudeDegrees>-0.24469834752380847930908203125</LongitudeDegrees>
            </Position>
            <AltitudeMeters>1459.199951171875</AltitudeMeters>
            <DistanceMeters>4082.1790083986</DistanceMeters>
          </Trackpoint>
          <Trackpoint>
            <Time>2021-07-17T09:56:15.000Z</Time>
            <Position>
              <LatitudeDegrees>42.72110846824944019317626953125</LatitudeDegrees>
              <LongitudeDegrees>-0.24468929506838321685791015625</LongitudeDegrees>
            </Position>
            <AltitudeMeters>1458.800048828125</AltitudeMeters>
            <DistanceMeters>4083.4180051683</DistanceMeters>
          </Trackpoint>
          <Trackpoint>
            <Time>2021-07-17T09:56:16.000Z</Time>
            <Position>
              <LatitudeDegrees>42.7211000025272369384765625</LatitudeDegrees>
              <LongitudeDegrees>-0.2446831762790679931640625</LongitudeDegrees>
            </Position>
            <AltitudeMeters>1458.4000244140625</AltitudeMeters>
            <DistanceMeters>4084.4846773916</DistanceMeters>
          </Trackpoint>
          <Trackpoint>
            <Time>2021-07-17T09:56:21.000Z</Time>
            <Position>
              <LatitudeDegrees>42.721042670309543609619140625</LatitudeDegrees>
              <LongitudeDegrees>-0.2446236647665500640869140625</LongitudeDegrees>
            </Position>
            <AltitudeMeters>1456.199951171875</AltitudeMeters>
            <DistanceMeters>4092.5097945371</DistanceMeters>
          </Trackpoint>
          <Trackpoint>
            <Time>2021-07-17T09:56:23.000Z</Time>
            <Position>
              <LatitudeDegrees>42.72102029062807559967041015625</LatitudeDegrees>
              <LongitudeDegrees>-0.24461100809276103973388671875</LongitudeDegrees>
            </Position>
            <AltitudeMeters>1455.5999755859375</AltitudeMeters>
            <DistanceMeters>4095.2076161794</DistanceMeters>
          </Trackpoint>
          <Trackpoint>
            <Time>2021-07-17T09:56:32.000Z</Time>
            <Position>
              <LatitudeDegrees>42.72094912827014923095703125</LatitudeDegrees>
              <LongitudeDegrees>-0.24448326788842678070068359375</LongitudeDegrees>
            </Position>
            <AltitudeMeters>1453.4000244140625</AltitudeMeters>
            <DistanceMeters>4108.3164816806</DistanceMeters>
          </Trackpoint>
          <Trackpoint>
            <Time>2021-07-17T09:56:33.000Z</Time>
            <Position>
              <LatitudeDegrees>42.7209496311843395233154296875</LatitudeDegrees>
              <LongitudeDegrees>-0.24446968920528888702392578125</LongitudeDegrees>
            </Position>
            <AltitudeMeters>1453.4000244140625</AltitudeMeters>
            <DistanceMeters>4109.4287408558</DistanceMeters>
          </Trackpoint>
          <Trackpoint>
            <Time>2021-07-17T09:56:38.000Z</Time>
            <Position>
              <LatitudeDegrees>42.72094954736530780792236328125</LatitudeDegrees>
              <LongitudeDegrees>-0.244391150772571563720703125</LongitudeDegrees>
            </Position>
            <AltitudeMeters>1453.800048828125</AltitudeMeters>
            <DistanceMeters>4115.8499034486</DistanceMeters>
          </Trackpoint>
          <Trackpoint>
            <Time>2021-07-17T09:56:45.000Z</Time>
            <Position>
              <LatitudeDegrees>42.72093798033893108367919921875</LatitudeDegrees>
              <LongitudeDegrees>-0.244283862411975860595703125</LongitudeDegrees>
            </Position>
            <AltitudeMeters>1454.4000244140625</AltitudeMeters>
            <DistanceMeters>4124.7169703592</DistanceMeters>
          </Trackpoint>
          <Trackpoint>
            <Time>2021-07-17T09:56:52.000Z</Time>
            <Position>
              <LatitudeDegrees>42.7209308557212352752685546875</LatitudeDegrees>
              <LongitudeDegrees>-0.24417883716523647308349609375</LongitudeDegrees>
            </Position>
            <AltitudeMeters>1455.5999755859375</AltitudeMeters>
            <DistanceMeters>4133.3419207791</DistanceMeters>
          </Trackpoint>
          <Trackpoint>
            <Time>2021-07-17T09:56:54.000Z</Time>
            <Position>
              <LatitudeDegrees>42.72092574276030063629150390625</LatitudeDegrees>
              <LongitudeDegrees>-0.244150422513484954833984375</LongitudeDegrees>
            </Position>
            <AltitudeMeters>1455.800048828125</AltitudeMeters>
            <DistanceMeters>4135.734632309</DistanceMeters>
          </Trackpoint>
          <Trackpoint>
            <Time>2021-07-17T09:57:04.000Z</Time>
            <Position>
              <LatitudeDegrees>42.72093513049185276031494140625</LatitudeDegrees>
              <LongitudeDegrees>-0.24400399066507816314697265625</LongitudeDegrees>
            </Position>
            <AltitudeMeters>1457.4000244140625</AltitudeMeters>
            <DistanceMeters>4147.7539152723</DistanceMeters>
          </Trackpoint>
          <Trackpoint>
            <Time>2021-07-17T09:57:06.000Z</Time>
            <Position>
              <LatitudeDegrees>42.72093563340604305267333984375</LatitudeDegrees>
              <LongitudeDegrees>-0.24397909641265869140625</LongitudeDegrees>
            </Position>
            <AltitudeMeters>1457.4000244140625</AltitudeMeters>
            <DistanceMeters>4149.7920112377</DistanceMeters>
          </Trackpoint>
          <Trackpoint>
            <Time>2021-07-17T09:57:10.000Z</Time>
            <Position>
              <LatitudeDegrees>42.72094108164310455322265625</LatitudeDegrees>
              <LongitudeDegrees>-0.243918411433696746826171875</LongitudeDegrees>
            </Position>
            <AltitudeMeters>1458</AltitudeMeters>
            <DistanceMeters>4154.7915363748</DistanceMeters>
          </Trackpoint>
          <Trackpoint>
            <Time>2021-07-17T09:57:11.000Z</Time>
            <Position>
              <LatitudeDegrees>42.720951139926910400390625</LatitudeDegrees>
              <LongitudeDegrees>-0.2438954450190067291259765625</LongitudeDegrees>
            </Position>
            <AltitudeMeters>1458.5999755859375</AltitudeMeters>
            <DistanceMeters>4156.9792156281</DistanceMeters>
          </Trackpoint>
          <Trackpoint>
            <Time>2021-07-17T09:57:13.000Z</Time>
            <Position>
              <LatitudeDegrees>42.72096564061939716339111328125</LatitudeDegrees>
              <LongitudeDegrees>-0.24386066012084484100341796875</LongitudeDegrees>
            </Position>
            <AltitudeMeters>1459.4000244140625</AltitudeMeters>
            <DistanceMeters>4160.2490184524</DistanceMeters>
          </Trackpoint>
          <Trackpoint>
            <Time>2021-07-17T09:57:15.000Z</Time>
            <Position>
              <LatitudeDegrees>42.72097729146480560302734375</LatitudeDegrees>
              <LongitudeDegrees>-0.2438210137188434600830078125</LongitudeDegrees>
            </Position>
            <AltitudeMeters>1460.199951171875</AltitudeMeters>
            <DistanceMeters>4163.7405228845</DistanceMeters>
          </Trackpoint>
          <Trackpoint>
            <Time>2021-07-17T09:57:16.000Z</Time>
            <Position>
              <LatitudeDegrees>42.720976956188678741455078125</LatitudeDegrees>
              <LongitudeDegrees>-0.24380198679864406585693359375</LongitudeDegrees>
            </Position>
            <AltitudeMeters>1460.199951171875</AltitudeMeters>
            <DistanceMeters>4165.2961772442</DistanceMeters>
          </Trackpoint>
          <Trackpoint>
            <Time>2021-07-17T09:57:20.000Z</Time>
            <Position>
              <LatitudeDegrees>42.7209533192217350006103515625</LatitudeDegrees>
              <LongitudeDegrees>-0.2437311597168445587158203125</LongitudeDegrees>
            </Position>
            <AltitudeMeters>1458.800048828125</AltitudeMeters>
            <DistanceMeters>4171.6565815135</DistanceMeters>
          </Trackpoint>
          <Trackpoint>
            <Time>2021-07-17T09:57:24.000Z</Time>
            <Position>
              <LatitudeDegrees>42.7209570072591304779052734375</LatitudeDegrees>
              <LongitudeDegrees>-0.2436791919171810150146484375</LongitudeDegrees>
            </Position>
            <AltitudeMeters>1458.5999755859375</AltitudeMeters>
            <DistanceMeters>4175.9253862952</DistanceMeters>
          </Trackpoint>
          <Trackpoint>
            <Time>2021-07-17T09:57:25.000Z</Time>
            <Position>
              <LatitudeDegrees>42.72095792926847934722900390625</LatitudeDegrees>
              <LongitudeDegrees>-0.2436674572527408599853515625</LongitudeDegrees>
            </Position>
            <AltitudeMeters>1458.4000244140625</AltitudeMeters>
            <DistanceMeters>4176.8898021151</DistanceMeters>
          </Trackpoint>
          <Trackpoint>
            <Time>2021-07-17T09:57:29.000Z</Time>
            <Position>
              <LatitudeDegrees>42.7209757827222347259521484375</LatitudeDegrees>
              <LongitudeDegrees>-0.24361507035791873931884765625</LongitudeDegrees>
            </Position>
            <AltitudeMeters>1459</AltitudeMeters>
            <DistanceMeters>4181.6106313498</DistanceMeters>
          </Trackpoint>
          <Trackpoint>
            <Time>2021-07-17T09:57:31.000Z</Time>
            <Position>
              <LatitudeDegrees>42.72098064422607421875</LatitudeDegrees>
              <LongitudeDegrees>-0.2435943670570850372314453125</LongitudeDegrees>
            </Position>
            <AltitudeMeters>1459.199951171875</AltitudeMeters>
            <DistanceMeters>4183.38333172</DistanceMeters>
          </Trackpoint>
          <Trackpoint>
            <Time>2021-07-17T09:57:32.000Z</Time>
            <Position>
              <LatitudeDegrees>42.7209851704537868499755859375</LatitudeDegrees>
              <LongitudeDegrees>-0.24358011782169342041015625</LongitudeDegrees>
            </Position>
            <AltitudeMeters>1459.199951171875</AltitudeMeters>
            <DistanceMeters>4184.6582488781</DistanceMeters>
          </Trackpoint>
          <Trackpoint>
            <Time>2021-07-17T09:57:38.000Z</Time>
            <Position>
              <LatitudeDegrees>42.7210052870213985443115234375</LatitudeDegrees>
              <LongitudeDegrees>-0.24349294602870941162109375</LongitudeDegrees>
            </Position>
            <AltitudeMeters>1460.5999755859375</AltitudeMeters>
            <DistanceMeters>4192.1303946645</DistanceMeters>
          </Trackpoint>
          <Trackpoint>
            <Time>2021-07-17T09:57:40.000Z</Time>
            <Position>
              <LatitudeDegrees>42.7210126630961894989013671875</LatitudeDegrees>
              <LongitudeDegrees>-0.2434699796140193939208984375</LongitudeDegrees>
            </Position>
            <AltitudeMeters>1461.199951171875</AltitudeMeters>
            <DistanceMeters>4194.1817394972</DistanceMeters>
          </Trackpoint>
          <Trackpoint>
            <Time>2021-07-17T09:57:47.000Z</Time>
            <Position>
              <LatitudeDegrees>42.7210324443876743316650390625</LatitudeDegrees>
              <LongitudeDegrees>-0.24334282614290714263916015625</LongitudeDegrees>
            </Position>
            <AltitudeMeters>1463.199951171875</AltitudeMeters>
            <DistanceMeters>4204.809448383</DistanceMeters>
          </Trackpoint>
          <Trackpoint>
            <Time>2021-07-17T09:57:49.000Z</Time>
            <Position>
              <LatitudeDegrees>42.721008472144603729248046875</LatitudeDegrees>
              <LongitudeDegrees>-0.24331432767212390899658203125</LongitudeDegrees>
            </Position>
            <AltitudeMeters>1461.5999755859375</AltitudeMeters>
            <DistanceMeters>4208.3523012246</DistanceMeters>
          </Trackpoint>
          <Trackpoint>
            <Time>2021-07-17T09:57:58.000Z</Time>
            <Position>
              <LatitudeDegrees>42.720936052501201629638671875</LatitudeDegrees>
              <LongitudeDegrees>-0.24317518807947635650634765625</LongitudeDegrees>
            </Position>
            <AltitudeMeters>1458.4000244140625</AltitudeMeters>
            <DistanceMeters>4222.2956704673</DistanceMeters>
          </Trackpoint>
          <Trackpoint>
            <Time>2021-07-17T09:58:08.000Z</Time>
            <Position>
              <LatitudeDegrees>42.72084762342274188995361328125</LatitudeDegrees>
              <LongitudeDegrees>-0.243056081235408782958984375</LongitudeDegrees>
            </Position>
            <AltitudeMeters>1456.800048828125</AltitudeMeters>
            <DistanceMeters>4236.1422073289</DistanceMeters>
          </Trackpoint>
          <Trackpoint>
            <Time>2021-07-17T09:58:18.000Z</Time>
            <Position>
              <LatitudeDegrees>42.7208007685840129852294921875</LatitudeDegrees>
              <LongitudeDegrees>-0.24290177039802074432373046875</LongitudeDegrees>
            </Position>
            <AltitudeMeters>1458</AltitudeMeters>
            <DistanceMeters>4249.7956646972</DistanceMeters>
          </Trackpoint>
          <Trackpoint>
            <Time>2021-07-17T09:58:26.000Z</Time>
            <Position>
              <LatitudeDegrees>42.72076531313359737396240234375</LatitudeDegrees>
              <LongitudeDegrees>-0.24278995580971240997314453125</LongitudeDegrees>
            </Position>
            <AltitudeMeters>1459</AltitudeMeters>
            <DistanceMeters>4259.7539928454</DistanceMeters>
          </Trackpoint>
          <Trackpoint>
            <Time>2021-07-17T09:58:35.000Z</Time>
            <Position>
              <LatitudeDegrees>42.7207196317613124847412109375</LatitudeDegrees>
              <LongitudeDegrees>-0.24265341460704803466796875</LongitudeDegrees>
            </Position>
            <AltitudeMeters>1459.5999755859375</AltitudeMeters>
            <DistanceMeters>4272.0223796248</DistanceMeters>
          </Trackpoint>
          <Trackpoint>
            <Time>2021-07-17T09:58:36.000Z</Time>
            <Position>
              <LatitudeDegrees>42.72071686573326587677001953125</LatitudeDegrees>
              <LongitudeDegrees>-0.24263866245746612548828125</LongitudeDegrees>
            </Position>
            <AltitudeMeters>1459.800048828125</AltitudeMeters>
            <DistanceMeters>4273.2686433001</DistanceMeters>
          </Trackpoint>
          <Trackpoint>
            <Time>2021-07-17T09:58:41.000Z</Time>
            <Position>
              <LatitudeDegrees>42.720685265958309173583984375</LatitudeDegrees>
              <LongitudeDegrees>-0.24256951175630092620849609375</LongitudeDegrees>
            </Position>
            <AltitudeMeters>1459.4000244140625</AltitudeMeters>
            <DistanceMeters>4279.927975505</DistanceMeters>
          </Trackpoint>
          <Trackpoint>
            <Time>2021-07-17T09:58:49.000Z</Time>
            <Position>
              <LatitudeDegrees>42.72062164731323719024658203125</LatitudeDegrees>
              <LongitudeDegrees>-0.2424534223973751068115234375</LongitudeDegrees>
            </Position>
            <AltitudeMeters>1457.800048828125</AltitudeMeters>
            <DistanceMeters>4291.7709121057</DistanceMeters>
          </Trackpoint>
          <Trackpoint>
            <Time>2021-07-17T09:58:57.000Z</Time>
            <Position>
              <LatitudeDegrees>42.72057504393160343170166015625</LatitudeDegrees>
              <LongitudeDegrees>-0.24234102107584476470947265625</LongitudeDegrees>
            </Position>
            <AltitudeMeters>1459.4000244140625</AltitudeMeters>
            <DistanceMeters>4302.3252961717</DistanceMeters>
          </Trackpoint>
          <Trackpoint>
            <Time>2021-07-17T09:59:05.000Z</Time>
            <Position>
              <LatitudeDegrees>42.72052936255931854248046875</LatitudeDegrees>
              <LongitudeDegrees>-0.24224060587584972381591796875</LongitudeDegrees>
            </Position>
            <AltitudeMeters>1461.199951171875</AltitudeMeters>
            <DistanceMeters>4311.9834890496</DistanceMeters>
          </Trackpoint>
          <Trackpoint>
            <Time>2021-07-17T09:59:15.000Z</Time>
            <Position>
              <LatitudeDegrees>42.72046758793294429779052734375</LatitudeDegrees>
              <LongitudeDegrees>-0.24211521260440349578857421875</LongitudeDegrees>
            </Position>
            <AltitudeMeters>1461</AltitudeMeters>
            <DistanceMeters>4324.3296500065</DistanceMeters>
          </Trackpoint>
          <Trackpoint>
            <Time>2021-07-17T09:59:26.000Z</Time>
            <Position>
              <LatitudeDegrees>42.72042199037969112396240234375</LatitudeDegrees>
              <LongitudeDegrees>-0.24195042438805103302001953125</LongitudeDegrees>
            </Position>
            <AltitudeMeters>1463.800048828125</AltitudeMeters>
            <DistanceMeters>4338.7286275797</DistanceMeters>
          </Trackpoint>
          <Trackpoint>
            <Time>2021-07-17T09:59:36.000Z</Time>
            <Position>
              <LatitudeDegrees>42.72043171338737010955810546875</LatitudeDegrees>
              <LongitudeDegrees>-0.241799466311931610107421875</LongitudeDegrees>
            </Position>
            <AltitudeMeters>1468.4000244140625</AltitudeMeters>
            <DistanceMeters>4351.1200528348</DistanceMeters>
          </Trackpoint>
          <Trackpoint>
            <Time>2021-07-17T09:59:43.000Z</Time>
            <Position>
              <LatitudeDegrees>42.72045467980206012725830078125</LatitudeDegrees>
              <LongitudeDegrees>-0.2417020685970783233642578125</LongitudeDegrees>
            </Position>
            <AltitudeMeters>1472.199951171875</AltitudeMeters>
            <DistanceMeters>4359.4840233161</DistanceMeters>
          </Trackpoint>
          <Trackpoint>
            <Time>2021-07-17T09:59:46.000Z</Time>
            <Position>
              <LatitudeDegrees>42.72045149467885494232177734375</LatitudeDegrees>
              <LongitudeDegrees>-0.24166175164282321929931640625</LongitudeDegrees>
            </Position>
            <AltitudeMeters>1473.4000244140625</AltitudeMeters>
            <DistanceMeters>4362.799080334</DistanceMeters>
          </Trackpoint>
          <Trackpoint>
            <Time>2021-07-17T09:59:54.000Z</Time>
            <Position>
              <LatitudeDegrees>42.720399610698223114013671875</LatitudeDegrees>
              <LongitudeDegrees>-0.24156720377504825592041015625</LongitudeDegrees>
            </Position>
            <AltitudeMeters>1474.4000244140625</AltitudeMeters>
            <DistanceMeters>4372.4488548542</DistanceMeters>
          </Trackpoint>
          <Trackpoint>
            <Time>2021-07-17T10:00:05.000Z</Time>
            <Position>
              <LatitudeDegrees>42.720326520502567291259765625</LatitudeDegrees>
              <LongitudeDegrees>-0.2414445765316486358642578125</LongitudeDegrees>
            </Position>
            <AltitudeMeters>1473.5999755859375</AltitudeMeters>
            <DistanceMeters>4385.3609538851</DistanceMeters>
          </Trackpoint>
          <Trackpoint>
            <Time>2021-07-17T10:00:18.000Z</Time>
            <Position>
              <LatitudeDegrees>42.72021017968654632568359375</LatitudeDegrees>
              <LongitudeDegrees>-0.2413124777376651763916015625</LongitudeDegrees>
            </Position>
            <AltitudeMeters>1471</AltitudeMeters>
            <DistanceMeters>4402.2238453104</DistanceMeters>
          </Trackpoint>
          <Trackpoint>
            <Time>2021-07-17T10:00:26.000Z</Time>
            <Position>
              <LatitudeDegrees>42.72012828849256038665771484375</LatitudeDegrees>
              <LongitudeDegrees>-0.24126210249960422515869140625</LongitudeDegrees>
            </Position>
            <AltitudeMeters>1468.199951171875</AltitudeMeters>
            <DistanceMeters>4412.226507306</DistanceMeters>
          </Trackpoint>
          <Trackpoint>
            <Time>2021-07-17T10:00:38.000Z</Time>
            <Position>
              <LatitudeDegrees>42.7200339920818805694580078125</LatitudeDegrees>
              <LongitudeDegrees>-0.241114161908626556396484375</LongitudeDegrees>
            </Position>
            <AltitudeMeters>1468.5999755859375</AltitudeMeters>
            <DistanceMeters>4428.2418215806</DistanceMeters>
          </Trackpoint>
          <Trackpoint>
            <Time>2021-07-17T10:00:49.000Z</Time>
            <Position>
              <LatitudeDegrees>42.72000624798238277435302734375</LatitudeDegrees>
              <LongitudeDegrees>-0.24094325490295886993408203125</LongitudeDegrees>
            </Position>
            <AltitudeMeters>1470.800048828125</AltitudeMeters>
            <DistanceMeters>4442.5539931159</DistanceMeters>
          </Trackpoint>
          <Trackpoint>
            <Time>2021-07-17T10:01:00.000Z</Time>
            <Position>
              <LatitudeDegrees>42.71994304843246936798095703125</LatitudeDegrees>
              <LongitudeDegrees>-0.2407857589423656463623046875</LongitudeDegrees>
            </Position>
            <AltitudeMeters>1471.4000244140625</AltitudeMeters>
            <DistanceMeters>4457.2281609929</DistanceMeters>
          </Trackpoint>
          <Trackpoint>
            <Time>2021-07-17T10:01:02.000Z</Time>
            <Position>
              <LatitudeDegrees>42.7199354209005832672119140625</LatitudeDegrees>
              <LongitudeDegrees>-0.24074929766356945037841796875</LongitudeDegrees>
            </Position>
            <AltitudeMeters>1471.800048828125</AltitudeMeters>
            <DistanceMeters>4460.327838611</DistanceMeters>
          </Trackpoint>
          <Trackpoint>
            <Time>2021-07-17T10:01:07.000Z</Time>
            <Position>
              <LatitudeDegrees>42.71991589106619358062744140625</LatitudeDegrees>
              <LongitudeDegrees>-0.24066832847893238067626953125</LongitudeDegrees>
            </Position>
            <AltitudeMeters>1472</AltitudeMeters>
            <DistanceMeters>4467.2972561758</DistanceMeters>
          </Trackpoint>
          <Trackpoint>
            <Time>2021-07-17T10:01:15.000Z</Time>
            <Position>
              <LatitudeDegrees>42.71988085471093654632568359375</LatitudeDegrees>
              <LongitudeDegrees>-0.2405500598251819610595703125</LongitudeDegrees>
            </Position>
            <AltitudeMeters>1471.4000244140625</AltitudeMeters>
            <DistanceMeters>4477.7251121653</DistanceMeters>
          </Trackpoint>
          <Trackpoint>
            <Time>2021-07-17T10:01:19.000Z</Time>
            <Position>
              <LatitudeDegrees>42.7198717184364795684814453125</LatitudeDegrees>
              <LongitudeDegrees>-0.24049666710197925567626953125</LongitudeDegrees>
            </Position>
            <AltitudeMeters>1471.4000244140625</AltitudeMeters>
            <DistanceMeters>4482.2085204853</DistanceMeters>
          </Trackpoint>
          <Trackpoint>
            <Time>2021-07-17T10:01:22.000Z</Time>
            <Position>
              <LatitudeDegrees>42.71986023522913455963134765625</LatitudeDegrees>
              <LongitudeDegrees>-0.2404568530619144439697265625</LongitudeDegrees>
            </Position>
            <AltitudeMeters>1471.199951171875</AltitudeMeters>
            <DistanceMeters>4485.7077752143</DistanceMeters>
          </Trackpoint>
          <Trackpoint>
            <Time>2021-07-17T10:01:30.000Z</Time>
            <Position>
              <LatitudeDegrees>42.71983726881444454193115234375</LatitudeDegrees>
              <LongitudeDegrees>-0.24032659828662872314453125</LongitudeDegrees>
            </Position>
            <AltitudeMeters>1471.4000244140625</AltitudeMeters>
            <DistanceMeters>4496.6618454983</DistanceMeters>
          </Trackpoint>
          <Trackpoint>
            <Time>2021-07-17T10:01:32.000Z</Time>
            <Position>
              <LatitudeDegrees>42.71983693353831768035888671875</LatitudeDegrees>
              <LongitudeDegrees>-0.24029533378779888153076171875</LongitudeDegrees>
            </Position>
            <AltitudeMeters>1471.800048828125</AltitudeMeters>
            <DistanceMeters>4499.2187528774</DistanceMeters>
          </Trackpoint>
          <Trackpoint>
            <Time>2021-07-17T10:01:40.000Z</Time>
            <Position>
              <LatitudeDegrees>42.719808854162693023681640625</LatitudeDegrees>
              <LongitudeDegrees>-0.24015627801418304443359375</LongitudeDegrees>
            </Position>
            <AltitudeMeters>1471.800048828125</AltitudeMeters>
            <DistanceMeters>4511.0108751275</DistanceMeters>
          </Trackpoint>
          <Trackpoint>
            <Time>2021-07-17T10:01:41.000Z</Time>
            <Position>
              <LatitudeDegrees>42.7198053337633609771728515625</LatitudeDegrees>
              <LongitudeDegrees>-0.240138508379459381103515625</LongitudeDegrees>
            </Position>
            <AltitudeMeters>1471.800048828125</AltitudeMeters>
            <DistanceMeters>4512.5163814169</DistanceMeters>
          </Trackpoint>
          <Trackpoint>
            <Time>2021-07-17T10:01:49.000Z</Time>
            <Position>
              <LatitudeDegrees>42.7197828702628612518310546875</LatitudeDegrees>
              <LongitudeDegrees>-0.23999911732971668243408203125</LongitudeDegrees>
            </Position>
            <AltitudeMeters>1472.199951171875</AltitudeMeters>
            <DistanceMeters>4524.1853369271</DistanceMeters>
          </Trackpoint>
          <Trackpoint>
            <Time>2021-07-17T10:01:51.000Z</Time>
            <Position>
              <LatitudeDegrees>42.71977876313030719757080078125</LatitudeDegrees>
              <LongitudeDegrees>-0.23996450006961822509765625</LongitudeDegrees>
            </Position>
            <AltitudeMeters>1472.4000244140625</AltitudeMeters>
            <DistanceMeters>4527.0519323928</DistanceMeters>
          </Trackpoint>
          <Trackpoint>
            <Time>2021-07-17T10:01:55.000Z</Time>
            <Position>
              <LatitudeDegrees>42.71976300515234470367431640625</LatitudeDegrees>
              <LongitudeDegrees>-0.239909850060939788818359375</LongitudeDegrees>
            </Position>
            <AltitudeMeters>1472.199951171875</AltitudeMeters>
            <DistanceMeters>4531.8524276886</DistanceMeters>
          </Trackpoint>
          <Trackpoint>
            <Time>2021-07-17T10:02:05.000Z</Time>
            <Position>
              <LatitudeDegrees>42.7197305671870708465576171875</LatitudeDegrees>
              <LongitudeDegrees>-0.239789821207523345947265625</LongitudeDegrees>
            </Position>
            <AltitudeMeters>1471.800048828125</AltitudeMeters>
            <DistanceMeters>4542.3105482601</DistanceMeters>
          </Trackpoint>
          <Trackpoint>
            <Time>2021-07-17T10:02:15.000Z</Time>
            <Position>
              <LatitudeDegrees>42.71973785944283008575439453125</LatitudeDegrees>
              <LongitudeDegrees>-0.23975587449967861175537109375</LongitudeDegrees>
            </Position>
            <AltitudeMeters>1472.199951171875</AltitudeMeters>
            <DistanceMeters>4545.2022347554</DistanceMeters>
          </Trackpoint>
          <Trackpoint>
            <Time>2021-07-17T10:02:20.000Z</Time>
            <Position>
              <LatitudeDegrees>42.71972478367388248443603515625</LatitudeDegrees>
              <LongitudeDegrees>-0.239677838981151580810546875</LongitudeDegrees>
            </Position>
            <AltitudeMeters>1472.5999755859375</AltitudeMeters>
            <DistanceMeters>4551.7466715206</DistanceMeters>
          </Trackpoint>
          <Trackpoint>
            <Time>2021-07-17T10:02:21.000Z</Time>
            <Position>
              <LatitudeDegrees>42.71971933543682098388671875</LatitudeDegrees>
              <LongitudeDegrees>-0.23965998552739620208740234375</LongitudeDegrees>
            </Position>
            <AltitudeMeters>1472.800048828125</AltitudeMeters>
            <DistanceMeters>4553.3282312492</DistanceMeters>
          </Trackpoint>
          <Trackpoint>
            <Time>2021-07-17T10:02:26.000Z</Time>
            <Position>
              <LatitudeDegrees>42.7196983806788921356201171875</LatitudeDegrees>
              <LongitudeDegrees>-0.23957046680152416229248046875</LongitudeDegrees>
            </Position>
            <AltitudeMeters>1472.5999755859375</AltitudeMeters>
            <DistanceMeters>4561.0107165006</DistanceMeters>
          </Trackpoint>
          <Trackpoint>
            <Time>2021-07-17T10:02:28.000Z</Time>
            <Position>
              <LatitudeDegrees>42.7196866460144519805908203125</LatitudeDegrees>
              <LongitudeDegrees>-0.2395335026085376739501953125</LongitudeDegrees>
            </Position>
            <AltitudeMeters>1472.199951171875</AltitudeMeters>
            <DistanceMeters>4564.3039097547</DistanceMeters>
          </Trackpoint>
          <Trackpoint>
            <Time>2021-07-17T10:02:32.000Z</Time>
            <Position>
              <LatitudeDegrees>42.7196688763797283172607421875</LatitudeDegrees>
              <LongitudeDegrees>-0.23946988396346569061279296875</LongitudeDegrees>
            </Position>
            <AltitudeMeters>1472</AltitudeMeters>
            <DistanceMeters>4569.8692634904</DistanceMeters>
          </Trackpoint>
          <Trackpoint>
            <Time>2021-07-17T10:02:34.000Z</Time>
            <Position>
              <LatitudeDegrees>42.7196638472378253936767578125</LatitudeDegrees>
              <LongitudeDegrees>-0.23944071494042873382568359375</LongitudeDegrees>
            </Position>
            <AltitudeMeters>1472</AltitudeMeters>
            <DistanceMeters>4572.3179306296</DistanceMeters>
          </Trackpoint>
          <Trackpoint>
            <Time>2021-07-17T10:02:37.000Z</Time>
            <Position>
              <LatitudeDegrees>42.71964347921311855316162109375</LatitudeDegrees>
              <LongitudeDegrees>-0.23940081708133220672607421875</LongitudeDegrees>
            </Position>
            <AltitudeMeters>1471.800048828125</AltitudeMeters>
            <DistanceMeters>4576.2909110756</DistanceMeters>
          </Trackpoint>
          <Trackpoint>
            <Time>2021-07-17T10:02:38.000Z</Time>
            <Position>
              <LatitudeDegrees>42.71963509730994701385498046875</LatitudeDegrees>
              <LongitudeDegrees>-0.23938740603625774383544921875</LongitudeDegrees>
            </Position>
            <AltitudeMeters>1471.5999755859375</AltitudeMeters>
            <DistanceMeters>4577.7289262026</DistanceMeters>
          </Trackpoint>
          <Trackpoint>
            <Time>2021-07-17T10:02:48.000Z</Time>
            <Position>
              <LatitudeDegrees>42.7195800282061100006103515625</LatitudeDegrees>
              <LongitudeDegrees>-0.2392468415200710296630859375</LongitudeDegrees>
            </Position>
            <AltitudeMeters>1471</AltitudeMeters>
            <DistanceMeters>4590.755213719</DistanceMeters>
          </Trackpoint>
          <Trackpoint>
            <Time>2021-07-17T10:02:53.000Z</Time>
            <Position>
              <LatitudeDegrees>42.71955396048724651336669921875</LatitudeDegrees>
              <LongitudeDegrees>-0.2391737513244152069091796875</LongitudeDegrees>
            </Position>
            <AltitudeMeters>1470.800048828125</AltitudeMeters>
            <DistanceMeters>4597.398933585</DistanceMeters>
          </Trackpoint>
          <Trackpoint>
            <Time>2021-07-17T10:02:55.000Z</Time>
            <Position>
              <LatitudeDegrees>42.71953987888991832733154296875</LatitudeDegrees>
              <LongitudeDegrees>-0.2391462586820125579833984375</LongitudeDegrees>
            </Position>
            <AltitudeMeters>1470.5999755859375</AltitudeMeters>
            <DistanceMeters>4600.1399231146</DistanceMeters>
          </Trackpoint>
          <Trackpoint>
            <Time>2021-07-17T10:03:01.000Z</Time>
            <Position>
              <LatitudeDegrees>42.71950752474367618560791015625</LatitudeDegrees>
              <LongitudeDegrees>-0.23905389010906219482421875</LongitudeDegrees>
            </Position>
            <AltitudeMeters>1470.4000244140625</AltitudeMeters>
            <DistanceMeters>4608.5076714824</DistanceMeters>
          </Trackpoint>
          <Trackpoint>
            <Time>2021-07-17T10:03:03.000Z</Time>
            <Position>
              <LatitudeDegrees>42.7194888330996036529541015625</LatitudeDegrees>
              <LongitudeDegrees>-0.23902581073343753814697265625</LongitudeDegrees>
            </Position>
            <AltitudeMeters>1470.199951171875</AltitudeMeters>
            <DistanceMeters>4611.6073491005</DistanceMeters>
          </Trackpoint>
          <Trackpoint>
            <Time>2021-07-17T10:03:07.000Z</Time>
            <Position>
              <LatitudeDegrees>42.71945790387690067291259765625</LatitudeDegrees>
              <LongitudeDegrees>-0.23897451348602771759033203125</LongitudeDegrees>
            </Position>
            <AltitudeMeters>1470.199951171875</AltitudeMeters>
            <DistanceMeters>4617.0346973812</DistanceMeters>
          </Trackpoint>
          <Trackpoint>
            <Time>2021-07-17T10:03:11.000Z</Time>
            <Position>
              <LatitudeDegrees>42.71944575011730194091796875</LatitudeDegrees>
              <LongitudeDegrees>-0.23891751654446125030517578125</LongitudeDegrees>
            </Position>
            <AltitudeMeters>1470.4000244140625</AltitudeMeters>
            <DistanceMeters>4621.8885071676</DistanceMeters>
          </Trackpoint>
          <Trackpoint>
            <Time>2021-07-17T10:03:20.000Z</Time>
            <Position>
              <LatitudeDegrees>42.71939571015536785125732421875</LatitudeDegrees>
              <LongitudeDegrees>-0.23876949213445186614990234375</LongitudeDegrees>
            </Position>
            <AltitudeMeters>1470.4000244140625</AltitudeMeters>
            <DistanceMeters>4635.2125944867</DistanceMeters>
          </Trackpoint>
          <Trackpoint>
            <Time>2021-07-17T10:03:30.000Z</Time>
            <Position>
              <LatitudeDegrees>42.71930468268692493438720703125</LatitudeDegrees>
              <LongitudeDegrees>-0.23865164257586002349853515625</LongitudeDegrees>
            </Position>
            <AltitudeMeters>1469.4000244140625</AltitudeMeters>
            <DistanceMeters>4649.1954130568</DistanceMeters>
          </Trackpoint>
          <Trackpoint>
            <Time>2021-07-17T10:03:39.000Z</Time>
            <Position>
              <LatitudeDegrees>42.71922170184552669525146484375</LatitudeDegrees>
              <LongitudeDegrees>-0.23855223320424556732177734375</LongitudeDegrees>
            </Position>
            <AltitudeMeters>1467.800048828125</AltitudeMeters>
            <DistanceMeters>4661.4994461998</DistanceMeters>
          </Trackpoint>
          <Trackpoint>
            <Time>2021-07-17T10:03:48.000Z</Time>
            <Position>
              <LatitudeDegrees>42.719147689640522003173828125</LatitudeDegrees>
              <LongitudeDegrees>-0.23844812996685504913330078125</LongitudeDegrees>
            </Position>
            <AltitudeMeters>1468.4000244140625</AltitudeMeters>
            <DistanceMeters>4673.3454323529</DistanceMeters>
          </Trackpoint>
          <Trackpoint>
            <Time>2021-07-17T10:03:54.000Z</Time>
            <Position>
              <LatitudeDegrees>42.71912924945354461669921875</LatitudeDegrees>
              <LongitudeDegrees>-0.2383550070226192474365234375</LongitudeDegrees>
            </Position>
            <AltitudeMeters>1469.5999755859375</AltitudeMeters>
            <DistanceMeters>4681.2320771747</DistanceMeters>
          </Trackpoint>
          <Trackpoint>
            <Time>2021-07-17T10:03:56.000Z</Time>
            <Position>
              <LatitudeDegrees>42.71912522614002227783203125</LatitudeDegrees>
              <LongitudeDegrees>-0.23832055740058422088623046875</LongitudeDegrees>
            </Position>
            <AltitudeMeters>1469.800048828125</AltitudeMeters>
            <DistanceMeters>4684.0844619447</DistanceMeters>
          </Trackpoint>
          <Trackpoint>
            <Time>2021-07-17T10:04:06.000Z</Time>
            <Position>
              <LatitudeDegrees>42.71914936602115631103515625</LatitudeDegrees>
              <LongitudeDegrees>-0.23815945722162723541259765625</LongitudeDegrees>
            </Position>
            <AltitudeMeters>1471.4000244140625</AltitudeMeters>
            <DistanceMeters>4697.5289790494</DistanceMeters>
          </Trackpoint>
          <Trackpoint>
            <Time>2021-07-17T10:04:14.000Z</Time>
            <Position>
              <LatitudeDegrees>42.71916118450462818145751953125</LatitudeDegrees>
              <LongitudeDegrees>-0.2380049787461757659912109375</LongitudeDegrees>
            </Position>
            <AltitudeMeters>1472.800048828125</AltitudeMeters>
            <DistanceMeters>4710.2291847738</DistanceMeters>
          </Trackpoint>
          <Trackpoint>
            <Time>2021-07-17T10:04:24.000Z</Time>
            <Position>
              <LatitudeDegrees>42.7191766910254955291748046875</LatitudeDegrees>
              <LongitudeDegrees>-0.23785234428942203521728515625</LongitudeDegrees>
            </Position>
            <AltitudeMeters>1473.800048828125</AltitudeMeters>
            <DistanceMeters>4722.8287380946</DistanceMeters>
          </Trackpoint>
          <Trackpoint>
            <Time>2021-07-17T10:04:33.000Z</Time>
            <Position>
              <LatitudeDegrees>42.71921918727457523345947265625</LatitudeDegrees>
              <LongitudeDegrees>-0.23770448751747608184814453125</LongitudeDegrees>
            </Position>
            <AltitudeMeters>1474.800048828125</AltitudeMeters>
            <DistanceMeters>4735.8116270991</DistanceMeters>
          </Trackpoint>
          <Trackpoint>
            <Time>2021-07-17T10:04:34.000Z</Time>
            <Position>
              <LatitudeDegrees>42.7192182652652263641357421875</LatitudeDegrees>
              <LongitudeDegrees>-0.23769007064402103424072265625</LongitudeDegrees>
            </Position>
            <AltitudeMeters>1475</AltitudeMeters>
            <DistanceMeters>4736.9985103812</DistanceMeters>
          </Trackpoint>
          <Trackpoint>
            <Time>2021-07-17T10:04:39.000Z</Time>
            <Position>
              <LatitudeDegrees>42.7192145772278308868408203125</LatitudeDegrees>
              <LongitudeDegrees>-0.23761178366839885711669921875</LongitudeDegrees>
            </Position>
            <AltitudeMeters>1475.800048828125</AltitudeMeters>
            <DistanceMeters>4743.4133415056</DistanceMeters>
          </Trackpoint>
          <Trackpoint>
            <Time>2021-07-17T10:04:48.000Z</Time>
            <Position>
              <LatitudeDegrees>42.71916269324719905853271484375</LatitudeDegrees>
              <LongitudeDegrees>-0.2375002205371856689453125</LongitudeDegrees>
            </Position>
            <AltitudeMeters>1476.199951171875</AltitudeMeters>
            <DistanceMeters>4754.2100658614</DistanceMeters>
          </Trackpoint>
          <Trackpoint>
            <Time>2021-07-17T10:04:51.000Z</Time>
            <Position>
              <LatitudeDegrees>42.71913352422416210174560546875</LatitudeDegrees>
              <LongitudeDegrees>-0.237469039857387542724609375</LongitudeDegrees>
            </Position>
            <AltitudeMeters>1476</AltitudeMeters>
            <DistanceMeters>4758.3379895828</DistanceMeters>
          </Trackpoint>
          <Trackpoint>
            <Time>2021-07-17T10:04:53.000Z</Time>
            <Position>
              <LatitudeDegrees>42.7191150002181529998779296875</LatitudeDegrees>
              <LongitudeDegrees>-0.237454287707805633544921875</LongitudeDegrees>
            </Position>
            <AltitudeMeters>1475.800048828125</AltitudeMeters>
            <DistanceMeters>4760.7269241388</DistanceMeters>
          </Trackpoint>
          <Trackpoint>
            <Time>2021-07-17T10:04:55.000Z</Time>
            <Position>
              <LatitudeDegrees>42.7190891839563846588134765625</LatitudeDegrees>
              <LongitudeDegrees>-0.23745269514620304107666015625</LongitudeDegrees>
            </Position>
            <AltitudeMeters>1475.4000244140625</AltitudeMeters>
            <DistanceMeters>4763.6029543929</DistanceMeters>
          </Trackpoint>
          <Trackpoint>
            <Time>2021-07-17T10:05:03.000Z</Time>
            <Position>
              <LatitudeDegrees>42.71900184452533721923828125</LatitudeDegrees>
              <LongitudeDegrees>-0.23748538456857204437255859375</LongitudeDegrees>
            </Position>
            <AltitudeMeters>1473.5999755859375</AltitudeMeters>
            <DistanceMeters>4773.6847469147</DistanceMeters>
          </Trackpoint>
          <Trackpoint>
            <Time>2021-07-17T10:05:10.000Z</Time>
            <Position>
              <LatitudeDegrees>42.718953900039196014404296875</LatitudeDegrees>
              <LongitudeDegrees>-0.237564258277416229248046875</LongitudeDegrees>
            </Position>
            <AltitudeMeters>1472</AltitudeMeters>
            <DistanceMeters>4782.0557321139</DistanceMeters>
          </Trackpoint>
          <Trackpoint>
            <Time>2021-07-17T10:05:13.000Z</Time>
            <Position>
              <LatitudeDegrees>42.7189289219677448272705078125</LatitudeDegrees>
              <LongitudeDegrees>-0.237603820860385894775390625</LongitudeDegrees>
            </Position>
            <AltitudeMeters>1471.800048828125</AltitudeMeters>
            <DistanceMeters>4786.3224210071</DistanceMeters>
          </Trackpoint>
          <Trackpoint>
            <Time>2021-07-17T10:05:17.000Z</Time>
            <Position>
              <LatitudeDegrees>42.71890251897275447845458984375</LatitudeDegrees>
              <LongitudeDegrees>-0.23765268735587596893310546875</LongitudeDegrees>
            </Position>
            <AltitudeMeters>1471.800048828125</AltitudeMeters>
            <DistanceMeters>4791.2838712372</DistanceMeters>
          </Trackpoint>
          <Trackpoint>
            <Time>2021-07-17T10:05:22.000Z</Time>
            <Position>
              <LatitudeDegrees>42.71885926835238933563232421875</LatitudeDegrees>
              <LongitudeDegrees>-0.2376874722540378570556640625</LongitudeDegrees>
            </Position>
            <AltitudeMeters>1471.800048828125</AltitudeMeters>
            <DistanceMeters>4796.8751255374</DistanceMeters>
          </Trackpoint>
          <Trackpoint>
            <Time>2021-07-17T10:05:30.000Z</Time>
            <Position>
              <LatitudeDegrees>42.71878249011933803558349609375</LatitudeDegrees>
              <LongitudeDegrees>-0.23773491382598876953125</LongitudeDegrees>
            </Position>
            <AltitudeMeters>1471.800048828125</AltitudeMeters>
            <DistanceMeters>4806.2601863062</DistanceMeters>
          </Trackpoint>
          <Trackpoint>
            <Time>2021-07-17T10:05:36.000Z</Time>
            <Position>
              <LatitudeDegrees>42.71872197277843952178955078125</LatitudeDegrees>
              <LongitudeDegrees>-0.23776718415319919586181640625</LongitudeDegrees>
            </Position>
            <AltitudeMeters>1471.800048828125</AltitudeMeters>
            <DistanceMeters>4813.4947093084</DistanceMeters>
          </Trackpoint>
          <Trackpoint>
            <Time>2021-07-17T10:05:39.000Z</Time>
            <Position>
              <LatitudeDegrees>42.71868911571800708770751953125</LatitudeDegrees>
              <LongitudeDegrees>-0.23777724243700504302978515625</LongitudeDegrees>
            </Position>
            <AltitudeMeters>1471.800048828125</AltitudeMeters>
            <DistanceMeters>4817.2431488433</DistanceMeters>
          </Trackpoint>
          <Trackpoint>
            <Time>2021-07-17T10:05:42.000Z</Time>
            <Position>
              <LatitudeDegrees>42.7186586894094944000244140625</LatitudeDegrees>
              <LongitudeDegrees>-0.23778126575052738189697265625</LongitudeDegrees>
            </Position>
            <AltitudeMeters>1472</AltitudeMeters>
            <DistanceMeters>4820.6455829721</DistanceMeters>
          </Trackpoint>
          <Trackpoint>
            <Time>2021-07-17T10:05:46.000Z</Time>
            <Position>
              <LatitudeDegrees>42.718615271151065826416015625</LatitudeDegrees>
              <LongitudeDegrees>-0.23779786191880702972412109375</LongitudeDegrees>
            </Position>
            <AltitudeMeters>1472.199951171875</AltitudeMeters>
            <DistanceMeters>4825.6649368428</DistanceMeters>
          </Trackpoint>
          <Trackpoint>
            <Time>2021-07-17T10:05:52.000Z</Time>
            <Position>
              <LatitudeDegrees>42.7185524068772792816162109375</LatitudeDegrees>
              <LongitudeDegrees>-0.2377947606146335601806640625</LongitudeDegrees>
            </Position>
            <AltitudeMeters>1472.800048828125</AltitudeMeters>
            <DistanceMeters>4832.6660263964</DistanceMeters>
          </Trackpoint>
          <Trackpoint>
            <Time>2021-07-17T10:05:55.000Z</Time>
            <Position>
              <LatitudeDegrees>42.71851678378880023956298828125</LatitudeDegrees>
              <LongitudeDegrees>-0.2377893961966037750244140625</LongitudeDegrees>
            </Position>
            <AltitudeMeters>1473.199951171875</AltitudeMeters>
            <DistanceMeters>4836.6548852174</DistanceMeters>
          </Trackpoint>
          <Trackpoint>
            <Time>2021-07-17T10:06:04.000Z</Time>
            <Position>
              <LatitudeDegrees>42.71842516958713531494140625</LatitudeDegrees>
              <LongitudeDegrees>-0.237762741744518280029296875</LongitudeDegrees>
            </Position>
            <AltitudeMeters>1474.199951171875</AltitudeMeters>
            <DistanceMeters>4847.0818752139</DistanceMeters>
          </Trackpoint>
          <Trackpoint>
            <Time>2021-07-17T10:06:08.000Z</Time>
            <Position>
              <LatitudeDegrees>42.71838401444256305694580078125</LatitudeDegrees>
              <LongitudeDegrees>-0.23775913752615451812744140625</LongitudeDegrees>
            </Position>
            <AltitudeMeters>1474.5999755859375</AltitudeMeters>
            <DistanceMeters>4851.6727573099</DistanceMeters>
          </Trackpoint>
          <Trackpoint>
            <Time>2021-07-17T10:06:11.000Z</Time>
            <Position>
              <LatitudeDegrees>42.71835274994373321533203125</LatitudeDegrees>
              <LongitudeDegrees>-0.23774228990077972412109375</LongitudeDegrees>
            </Position>
            <AltitudeMeters>1475.199951171875</AltitudeMeters>
            <DistanceMeters>4855.4163756987</DistanceMeters>
          </Trackpoint>
          <Trackpoint>
            <Time>2021-07-17T10:06:16.000Z</Time>
            <Position>
              <LatitudeDegrees>42.71830103360116481781005859375</LatitudeDegrees>
              <LongitudeDegrees>-0.2377163060009479522705078125</LongitudeDegrees>
            </Position>
            <AltitudeMeters>1475.5999755859375</AltitudeMeters>
            <DistanceMeters>4861.5513050886</DistanceMeters>
          </Trackpoint>
          <Trackpoint>
            <Time>2021-07-17T10:06:20.000Z</Time>
            <Position>
              <LatitudeDegrees>42.7182568609714508056640625</LatitudeDegrees>
              <LongitudeDegrees>-0.23768805898725986480712890625</LongitudeDegrees>
            </Position>
            <AltitudeMeters>1476.4000244140625</AltitudeMeters>
            <DistanceMeters>4866.9836425062</DistanceMeters>
          </Trackpoint>
          <Trackpoint>
            <Time>2021-07-17T10:06:31.000Z</Time>
            <Position>
              <LatitudeDegrees>42.7181654982268810272216796875</LatitudeDegrees>
              <LongitudeDegrees>-0.2376016415655612945556640625</LongitudeDegrees>
            </Position>
            <AltitudeMeters>1479.199951171875</AltitudeMeters>
            <DistanceMeters>4879.3670490719</DistanceMeters>
          </Trackpoint>
          <Trackpoint>
            <Time>2021-07-17T10:06:44.000Z</Time>
            <Position>
              <LatitudeDegrees>42.71805544383823871612548828125</LatitudeDegrees>
              <LongitudeDegrees>-0.23748815059661865234375</LongitudeDegrees>
            </Position>
            <AltitudeMeters>1483</AltitudeMeters>
            <DistanceMeters>4894.7349578208</DistanceMeters>
          </Trackpoint>
          <Trackpoint>
            <Time>2021-07-17T10:06:54.000Z</Time>
            <Position>
              <LatitudeDegrees>42.717996351420879364013671875</LatitudeDegrees>
              <LongitudeDegrees>-0.237373150885105133056640625</LongitudeDegrees>
            </Position>
            <AltitudeMeters>1483.4000244140625</AltitudeMeters>
            <DistanceMeters>4906.2103926615</DistanceMeters>
          </Trackpoint>
          <Trackpoint>
            <Time>2021-07-17T10:07:02.000Z</Time>
            <Position>
              <LatitudeDegrees>42.717955447733402252197265625</LatitudeDegrees>
              <LongitudeDegrees>-0.2372687123715877532958984375</LongitudeDegrees>
            </Position>
            <AltitudeMeters>1485.5999755859375</AltitudeMeters>
            <DistanceMeters>4915.8881998964</DistanceMeters>
          </Trackpoint>
          <Trackpoint>
            <Time>2021-07-17T10:07:10.000Z</Time>
            <Position>
              <LatitudeDegrees>42.7179036475718021392822265625</LatitudeDegrees>
              <LongitudeDegrees>-0.2371600829064846038818359375</LongitudeDegrees>
            </Position>
            <AltitudeMeters>1486.800048828125</AltitudeMeters>
            <DistanceMeters>4926.4784571848</DistanceMeters>
          </Trackpoint>
          <Trackpoint>
            <Time>2021-07-17T10:07:12.000Z</Time>
            <Position>
              <LatitudeDegrees>42.71789099089801311492919921875</LatitudeDegrees>
              <LongitudeDegrees>-0.23714155890047550201416015625</LongitudeDegrees>
            </Position>
            <AltitudeMeters>1487</AltitudeMeters>
            <DistanceMeters>4928.5473351982</DistanceMeters>
          </Trackpoint>
          <Trackpoint>
            <Time>2021-07-17T10:07:14.000Z</Time>
            <Position>
              <LatitudeDegrees>42.71787271834909915924072265625</LatitudeDegrees>
              <LongitudeDegrees>-0.23713669739663600921630859375</LongitudeDegrees>
            </Position>
            <AltitudeMeters>1486.800048828125</AltitudeMeters>
            <DistanceMeters>4930.6205733388</DistanceMeters>
          </Trackpoint>
          <Trackpoint>
            <Time>2021-07-17T10:07:17.000Z</Time>
            <Position>
              <LatitudeDegrees>42.71785385906696319580078125</LatitudeDegrees>
              <LongitudeDegrees>-0.23711272515356540679931640625</LongitudeDegrees>
            </Position>
            <AltitudeMeters>1487.199951171875</AltitudeMeters>
            <DistanceMeters>4933.4934621061</DistanceMeters>
          </Trackpoint>
          <Trackpoint>
            <Time>2021-07-17T10:07:18.000Z</Time>
            <Position>
              <LatitudeDegrees>42.71784975193440914154052734375</LatitudeDegrees>
              <LongitudeDegrees>-0.2371040917932987213134765625</LongitudeDegrees>
            </Position>
            <AltitudeMeters>1487.199951171875</AltitudeMeters>
            <DistanceMeters>4934.3327153234</DistanceMeters>
          </Trackpoint>
          <Trackpoint>
            <Time>2021-07-17T10:07:23.000Z</Time>
            <Position>
              <LatitudeDegrees>42.717830725014209747314453125</LatitudeDegrees>
              <LongitudeDegrees>-0.237085483968257904052734375</LongitudeDegrees>
            </Position>
            <AltitudeMeters>1487.4000244140625</AltitudeMeters>
            <DistanceMeters>4936.9385966495</DistanceMeters>
          </Trackpoint>
          <Trackpoint>
            <Time>2021-07-17T10:07:24.000Z</Time>
            <Position>
              <LatitudeDegrees>42.71782812662422657012939453125</LatitudeDegrees>
              <LongitudeDegrees>-0.23708707652986049652099609375</LongitudeDegrees>
            </Position>
            <AltitudeMeters>1487.4000244140625</AltitudeMeters>
            <DistanceMeters>4937.2537646061</DistanceMeters>
          </Trackpoint>
          <Trackpoint>
            <Time>2021-07-17T10:07:28.000Z</Time>
            <Position>
              <LatitudeDegrees>42.7178215049207210540771484375</LatitudeDegrees>
              <LongitudeDegrees>-0.23708372376859188079833984375</LongitudeDegrees>
            </Position>
            <AltitudeMeters>1487.4000244140625</AltitudeMeters>
            <DistanceMeters>4938.0373749673</DistanceMeters>
          </Trackpoint>
          <Trackpoint>
            <Time>2021-07-17T10:07:30.000Z</Time>
            <Position>
              <LatitudeDegrees>42.7178169786930084228515625</LatitudeDegrees>
              <LongitudeDegrees>-0.2370739169418811798095703125</LongitudeDegrees>
            </Position>
            <AltitudeMeters>1487.5999755859375</AltitudeMeters>
            <DistanceMeters>4938.9780914451</DistanceMeters>
          </Trackpoint>
          <Trackpoint>
            <Time>2021-07-17T10:07:36.000Z</Time>
            <Position>
              <LatitudeDegrees>42.71778051741421222686767578125</LatitudeDegrees>
              <LongitudeDegrees>-0.23702287115156650543212890625</LongitudeDegrees>
            </Position>
            <AltitudeMeters>1488.5999755859375</AltitudeMeters>
            <DistanceMeters>4944.8003682309</DistanceMeters>
          </Trackpoint>
          <Trackpoint>
            <Time>2021-07-17T10:07:42.000Z</Time>
            <Position>
              <LatitudeDegrees>42.71773450076580047607421875</LatitudeDegrees>
              <LongitudeDegrees>-0.23696972988545894622802734375</LongitudeDegrees>
            </Position>
            <AltitudeMeters>1489.4000244140625</AltitudeMeters>
            <DistanceMeters>4951.5170833442</DistanceMeters>
          </Trackpoint>
          <Trackpoint>
            <Time>2021-07-17T10:07:44.000Z</Time>
            <Position>
              <LatitudeDegrees>42.7177219279110431671142578125</LatitudeDegrees>
              <LongitudeDegrees>-0.23695112206041812896728515625</LongitudeDegrees>
            </Position>
            <AltitudeMeters>1489.800048828125</AltitudeMeters>
            <DistanceMeters>4953.5837778446</DistanceMeters>
          </Trackpoint>
          <Trackpoint>
            <Time>2021-07-17T10:07:47.000Z</Time>
            <Position>
              <LatitudeDegrees>42.717704661190509796142578125</LatitudeDegrees>
              <LongitudeDegrees>-0.23692111484706401824951171875</LongitudeDegrees>
            </Position>
            <AltitudeMeters>1490.199951171875</AltitudeMeters>
            <DistanceMeters>4956.7008858398</DistanceMeters>
          </Trackpoint>
          <Trackpoint>
            <Time>2021-07-17T10:07:50.000Z</Time>
            <Position>
              <LatitudeDegrees>42.71768814884126186370849609375</LatitudeDegrees>
              <LongitudeDegrees>-0.23688825778663158416748046875</LongitudeDegrees>
            </Position>
            <AltitudeMeters>1490.5999755859375</AltitudeMeters>
            <DistanceMeters>4959.9568510954</DistanceMeters>
          </Trackpoint>
          <Trackpoint>
            <Time>2021-07-17T10:07:51.000Z</Time>
            <Position>
              <LatitudeDegrees>42.71768462844192981719970703125</LatitudeDegrees>
              <LongitudeDegrees>-0.236871577799320220947265625</LongitudeDegrees>
            </Position>
            <AltitudeMeters>1490.800048828125</AltitudeMeters>
            <DistanceMeters>4961.3790807264</DistanceMeters>
          </Trackpoint>
          <Trackpoint>
            <Time>2021-07-17T10:07:57.000Z</Time>
            <Position>
              <LatitudeDegrees>42.7176206745207309722900390625</LatitudeDegrees>
              <LongitudeDegrees>-0.23685045540332794189453125</LongitudeDegrees>
            </Position>
            <AltitudeMeters>1491.199951171875</AltitudeMeters>
            <DistanceMeters>4968.7041550762</DistanceMeters>
          </Trackpoint>
          <Trackpoint>
            <Time>2021-07-17T10:07:58.000Z</Time>
            <Position>
              <LatitudeDegrees>42.71761405281722545623779296875</LatitudeDegrees>
              <LongitudeDegrees>-0.23685045540332794189453125</LongitudeDegrees>
            </Position>
            <AltitudeMeters>1491</AltitudeMeters>
            <DistanceMeters>4969.4463374413</DistanceMeters>
          </Trackpoint>
          <Trackpoint>
            <Time>2021-07-17T10:08:05.000Z</Time>
            <Position>
              <LatitudeDegrees>42.71755705587565898895263671875</LatitudeDegrees>
              <LongitudeDegrees>-0.2368248067796230316162109375</LongitudeDegrees>
            </Position>
            <AltitudeMeters>1491.5999755859375</AltitudeMeters>
            <DistanceMeters>4976.1280062403</DistanceMeters>
          </Trackpoint>
          <Trackpoint>
            <Time>2021-07-17T10:08:12.000Z</Time>
            <Position>
              <LatitudeDegrees>42.71749687381088733673095703125</LatitudeDegrees>
              <LongitudeDegrees>-0.2368127368390560150146484375</LongitudeDegrees>
            </Position>
            <AltitudeMeters>1492.4000244140625</AltitudeMeters>
            <DistanceMeters>4982.8989513815</DistanceMeters>
          </Trackpoint>
          <Trackpoint>
            <Time>2021-07-17T10:08:13.000Z</Time>
            <Position>
              <LatitudeDegrees>42.71748882718384265899658203125</LatitudeDegrees>
              <LongitudeDegrees>-0.236813239753246307373046875</LongitudeDegrees>
            </Position>
            <AltitudeMeters>1492.4000244140625</AltitudeMeters>
            <DistanceMeters>4983.8004539494</DistanceMeters>
          </Trackpoint>
          <Trackpoint>
            <Time>2021-07-17T10:08:18.000Z</Time>
            <Position>
              <LatitudeDegrees>42.717443145811557769775390625</LatitudeDegrees>
              <LongitudeDegrees>-0.23680980317294597625732421875</LongitudeDegrees>
            </Position>
            <AltitudeMeters>1492.800048828125</AltitudeMeters>
            <DistanceMeters>4988.8921481145</DistanceMeters>
          </Trackpoint>
          <Trackpoint>
            <Time>2021-07-17T10:08:21.000Z</Time>
            <Position>
              <LatitudeDegrees>42.7174114622175693511962890625</LatitudeDegrees>
              <LongitudeDegrees>-0.23681558668613433837890625</LongitudeDegrees>
            </Position>
            <AltitudeMeters>1492.800048828125</AltitudeMeters>
            <DistanceMeters>4992.4502609815</DistanceMeters>
          </Trackpoint>
          <Trackpoint>
            <Time>2021-07-17T10:08:31.000Z</Time>
            <Position>
              <LatitudeDegrees>42.7173175849020481109619140625</LatitudeDegrees>
              <LongitudeDegrees>-0.2368231303989887237548828125</LongitudeDegrees>
            </Position>
            <AltitudeMeters>1493</AltitudeMeters>
            <DistanceMeters>5002.9170125033</DistanceMeters>
          </Trackpoint>
          <Trackpoint>
            <Time>2021-07-17T10:08:41.000Z</Time>
            <Position>
              <LatitudeDegrees>42.7172247134149074554443359375</LatitudeDegrees>
              <LongitudeDegrees>-0.23679119534790515899658203125</LongitudeDegrees>
            </Position>
            <AltitudeMeters>1493.4000244140625</AltitudeMeters>
            <DistanceMeters>5013.5786541347</DistanceMeters>
          </Trackpoint>
          <Trackpoint>
            <Time>2021-07-17T10:08:49.000Z</Time>
            <Position>
              <LatitudeDegrees>42.7171383798122406005859375</LatitudeDegrees>
              <LongitudeDegrees>-0.2367456816136837005615234375</LongitudeDegrees>
            </Position>
            <AltitudeMeters>1494.4000244140625</AltitudeMeters>
            <DistanceMeters>5023.8836868363</DistanceMeters>
          </Trackpoint>
          <Trackpoint>
            <Time>2021-07-17T10:08:57.000Z</Time>
            <Position>
              <LatitudeDegrees>42.71707979030907154083251953125</LatitudeDegrees>
              <LongitudeDegrees>-0.23665867745876312255859375</LongitudeDegrees>
            </Position>
            <AltitudeMeters>1493.800048828125</AltitudeMeters>
            <DistanceMeters>5033.5353327372</DistanceMeters>
          </Trackpoint>
          <Trackpoint>
            <Time>2021-07-17T10:09:06.000Z</Time>
            <Position>
              <LatitudeDegrees>42.71705414168536663055419921875</LatitudeDegrees>
              <LongitudeDegrees>-0.23654761724174022674560546875</LongitudeDegrees>
            </Position>
            <AltitudeMeters>1494.5999755859375</AltitudeMeters>
            <DistanceMeters>5043.0550936161</DistanceMeters>
          </Trackpoint>
          <Trackpoint>
            <Time>2021-07-17T10:09:08.000Z</Time>
            <Position>
              <LatitudeDegrees>42.7170507051050662994384765625</LatitudeDegrees>
              <LongitudeDegrees>-0.23652188479900360107421875</LongitudeDegrees>
            </Position>
            <AltitudeMeters>1494.800048828125</AltitudeMeters>
            <DistanceMeters>5045.192666698</DistanceMeters>
          </Trackpoint>
          <Trackpoint>
            <Time>2021-07-17T10:09:13.000Z</Time>
            <Position>
              <LatitudeDegrees>42.7170337736606597900390625</LatitudeDegrees>
              <LongitudeDegrees>-0.23645214736461639404296875</LongitudeDegrees>
            </Position>
            <AltitudeMeters>1494.800048828125</AltitudeMeters>
            <DistanceMeters>5051.1989263822</DistanceMeters>
          </Trackpoint>
          <Trackpoint>
            <Time>2021-07-17T10:09:22.000Z</Time>
            <Position>
              <LatitudeDegrees>42.71700787357985973358154296875</LatitudeDegrees>
              <LongitudeDegrees>-0.2363262511789798736572265625</LongitudeDegrees>
            </Position>
            <AltitudeMeters>1495</AltitudeMeters>
            <DistanceMeters>5061.8901708199</DistanceMeters>
          </Trackpoint>
          <Trackpoint>
            <Time>2021-07-17T10:09:31.000Z</Time>
            <Position>
              <LatitudeDegrees>42.71698021329939365386962890625</LatitudeDegrees>
              <LongitudeDegrees>-0.2362015284597873687744140625</LongitudeDegrees>
            </Position>
            <AltitudeMeters>1495.800048828125</AltitudeMeters>
            <DistanceMeters>5072.5441870063</DistanceMeters>
          </Trackpoint>
          <Trackpoint>
            <Time>2021-07-17T10:09:39.000Z</Time>
            <Position>
              <LatitudeDegrees>42.71694702096283435821533203125</LatitudeDegrees>
              <LongitudeDegrees>-0.23609180934727191925048828125</LongitudeDegrees>
            </Position>
            <AltitudeMeters>1496.5999755859375</AltitudeMeters>
            <DistanceMeters>5082.2471544393</DistanceMeters>
          </Trackpoint>
          <Trackpoint>
            <Time>2021-07-17T10:09:44.000Z</Time>
            <Position>
              <LatitudeDegrees>42.71691936068236827850341796875</LatitudeDegrees>
              <LongitudeDegrees>-0.23602022789418697357177734375</LongitudeDegrees>
            </Position>
            <AltitudeMeters>1496.4000244140625</AltitudeMeters>
            <DistanceMeters>5088.8602218227</DistanceMeters>
          </Trackpoint>
          <Trackpoint>
            <Time>2021-07-17T10:09:48.000Z</Time>
            <Position>
              <LatitudeDegrees>42.71690628491342067718505859375</LatitudeDegrees>
              <LongitudeDegrees>-0.2359633147716522216796875</LongitudeDegrees>
            </Position>
            <AltitudeMeters>1497</AltitudeMeters>
            <DistanceMeters>5093.737231291</DistanceMeters>
          </Trackpoint>
          <Trackpoint>
            <Time>2021-07-17T10:09:50.000Z</Time>
            <Position>
              <LatitudeDegrees>42.71689220331609249114990234375</LatitudeDegrees>
              <LongitudeDegrees>-0.2359391748905181884765625</LongitudeDegrees>
            </Position>
            <AltitudeMeters>1497</AltitudeMeters>
            <DistanceMeters>5096.258574944</DistanceMeters>
          </Trackpoint>
          <Trackpoint>
            <Time>2021-07-17T10:09:59.000Z</Time>
            <Position>
              <LatitudeDegrees>42.71682565100491046905517578125</LatitudeDegrees>
              <LongitudeDegrees>-0.23582979105412960052490234375</LongitudeDegrees>
            </Position>
            <AltitudeMeters>1496</AltitudeMeters>
            <DistanceMeters>5107.8720680346</DistanceMeters>
          </Trackpoint>
          <Trackpoint>
            <Time>2021-07-17T10:10:00.000Z</Time>
            <Position>
              <LatitudeDegrees>42.71682280115783214569091796875</LatitudeDegrees>
              <LongitudeDegrees>-0.23581285960972309112548828125</LongitudeDegrees>
            </Position>
            <AltitudeMeters>1496</AltitudeMeters>
            <DistanceMeters>5109.2942976657</DistanceMeters>
          </Trackpoint>
          <Trackpoint>
            <Time>2021-07-17T10:10:04.000Z</Time>
            <Position>
              <LatitudeDegrees>42.71680637262761592864990234375</LatitudeDegrees>
              <LongitudeDegrees>-0.23575686849653720855712890625</LongitudeDegrees>
            </Position>
            <AltitudeMeters>1495.5999755859375</AltitudeMeters>
            <DistanceMeters>5114.2247100001</DistanceMeters>
          </Trackpoint>
          <Trackpoint>
            <Time>2021-07-17T10:10:05.000Z</Time>
            <Position>
              <LatitudeDegrees>42.716804109513759613037109375</LatitudeDegrees>
              <LongitudeDegrees>-0.2357405237853527069091796875</LongitudeDegrees>
            </Position>
            <AltitudeMeters>1496</AltitudeMeters>
            <DistanceMeters>5115.5852854927</DistanceMeters>
          </Trackpoint>
          <Trackpoint>
            <Time>2021-07-17T10:10:07.000Z</Time>
            <Position>
              <LatitudeDegrees>42.71679614670574665069580078125</LatitudeDegrees>
              <LongitudeDegrees>-0.23571319878101348876953125</LongitudeDegrees>
            </Position>
            <AltitudeMeters>1496.199951171875</AltitudeMeters>
            <DistanceMeters>5117.9892923404</DistanceMeters>
          </Trackpoint>
          <Trackpoint>
            <Time>2021-07-17T10:10:11.000Z</Time>
            <Position>
              <LatitudeDegrees>42.716781310737133026123046875</LatitudeDegrees>
              <LongitudeDegrees>-0.23564882576465606689453125</LongitudeDegrees>
            </Position>
            <AltitudeMeters>1497</AltitudeMeters>
            <DistanceMeters>5123.5065731646</DistanceMeters>
          </Trackpoint>
          <Trackpoint>
            <Time>2021-07-17T10:10:21.000Z</Time>
            <Position>
              <LatitudeDegrees>42.71674049086868762969970703125</LatitudeDegrees>
              <LongitudeDegrees>-0.235501639544963836669921875</LongitudeDegrees>
            </Position>
            <AltitudeMeters>1498.199951171875</AltitudeMeters>
            <DistanceMeters>5136.3713794618</DistanceMeters>
          </Trackpoint>
          <Trackpoint>
            <Time>2021-07-17T10:10:25.000Z</Time>
            <Position>
              <LatitudeDegrees>42.71671970374882221221923828125</LatitudeDegrees>
              <LongitudeDegrees>-0.2354401163756847381591796875</LongitudeDegrees>
            </Position>
            <AltitudeMeters>1499.199951171875</AltitudeMeters>
            <DistanceMeters>5141.9090811154</DistanceMeters>
          </Trackpoint>
          <Trackpoint>
            <Time>2021-07-17T10:10:33.000Z</Time>
            <Position>
              <LatitudeDegrees>42.71667980588972568511962890625</LatitudeDegrees>
              <LongitudeDegrees>-0.2353207580745220184326171875</LongitudeDegrees>
            </Position>
            <AltitudeMeters>1502.199951171875</AltitudeMeters>
            <DistanceMeters>5152.6323732142</DistanceMeters>
          </Trackpoint>
          <Trackpoint>
            <Time>2021-07-17T10:10:34.000Z</Time>
            <Position>
              <LatitudeDegrees>42.716672681272029876708984375</LatitudeDegrees>
              <LongitudeDegrees>-0.235311873257160186767578125</LongitudeDegrees>
            </Position>
            <AltitudeMeters>1502.4000244140625</AltitudeMeters>
            <DistanceMeters>5153.7074777602</DistanceMeters>
          </Trackpoint>
          <Trackpoint>
            <Time>2021-07-17T10:10:36.000Z</Time>
            <Position>
              <LatitudeDegrees>42.716654241085052490234375</LatitudeDegrees>
              <LongitudeDegrees>-0.23529946804046630859375</LongitudeDegrees>
            </Position>
            <AltitudeMeters>1502.4000244140625</AltitudeMeters>
            <DistanceMeters>5155.9960240974</DistanceMeters>
          </Trackpoint>
          <Trackpoint>
            <Time>2021-07-17T10:10:37.000Z</Time>
            <Position>
              <LatitudeDegrees>42.71664342842996120452880859375</LatitudeDegrees>
              <LongitudeDegrees>-0.23529552854597568511962890625</LongitudeDegrees>
            </Position>
            <AltitudeMeters>1502.199951171875</AltitudeMeters>
            <DistanceMeters>5157.238659632</DistanceMeters>
          </Trackpoint>
          <Trackpoint>
            <Time>2021-07-17T10:10:40.000Z</Time>
            <Position>
              <LatitudeDegrees>42.71661560051143169403076171875</LatitudeDegrees>
              <LongitudeDegrees>-0.23527021519839763641357421875</LongitudeDegrees>
            </Position>
            <AltitudeMeters>1502.5999755859375</AltitudeMeters>
            <DistanceMeters>5160.9629310263</DistanceMeters>
          </Trackpoint>
          <Trackpoint>
            <Time>2021-07-17T10:10:45.000Z</Time>
            <Position>
              <LatitudeDegrees>42.7165692485868930816650390625</LatitudeDegrees>
              <LongitudeDegrees>-0.235237777233123779296875</LongitudeDegrees>
            </Position>
            <AltitudeMeters>1503</AltitudeMeters>
            <DistanceMeters>5166.7634538329</DistanceMeters>
          </Trackpoint>
          <Trackpoint>
            <Time>2021-07-17T10:10:48.000Z</Time>
            <Position>
              <LatitudeDegrees>42.7165496349334716796875</LatitudeDegrees>
              <LongitudeDegrees>-0.2352054230868816375732421875</LongitudeDegrees>
            </Position>
            <AltitudeMeters>1503.800048828125</AltitudeMeters>
            <DistanceMeters>5170.1923252988</DistanceMeters>
          </Trackpoint>
          <Trackpoint>
            <Time>2021-07-17T10:10:50.000Z</Time>
            <Position>
              <LatitudeDegrees>42.716529853641986846923828125</LatitudeDegrees>
              <LongitudeDegrees>-0.2352017350494861602783203125</LongitudeDegrees>
            </Position>
            <AltitudeMeters>1503.5999755859375</AltitudeMeters>
            <DistanceMeters>5172.4127805986</DistanceMeters>
          </Trackpoint>
          <Trackpoint>
            <Time>2021-07-17T10:10:52.000Z</Time>
            <Position>
              <LatitudeDegrees>42.7165080606937408447265625</LatitudeDegrees>
              <LongitudeDegrees>-0.23519611917436122894287109375</LongitudeDegrees>
            </Position>
            <AltitudeMeters>1503.4000244140625</AltitudeMeters>
            <DistanceMeters>5174.8798175913</DistanceMeters>
          </Trackpoint>
          <Trackpoint>
            <Time>2021-07-17T10:10:54.000Z</Time>
            <Position>
              <LatitudeDegrees>42.71648953668773174285888671875</LatitudeDegrees>
              <LongitudeDegrees>-0.235181786119937896728515625</LongitudeDegrees>
            </Position>
            <AltitudeMeters>1503.5999755859375</AltitudeMeters>
            <DistanceMeters>5177.2497769893</DistanceMeters>
          </Trackpoint>
          <Trackpoint>
            <Time>2021-07-17T10:10:57.000Z</Time>
            <Position>
              <LatitudeDegrees>42.71646338514983654022216796875</LatitudeDegrees>
              <LongitudeDegrees>-0.2351732365787029266357421875</LongitudeDegrees>
            </Position>
            <AltitudeMeters>1503.800048828125</AltitudeMeters>
            <DistanceMeters>5180.2427413781</DistanceMeters>
          </Trackpoint>
          <Trackpoint>
            <Time>2021-07-17T10:11:01.000Z</Time>
            <Position>
              <LatitudeDegrees>42.71642600186169147491455078125</LatitudeDegrees>
              <LongitudeDegrees>-0.23515571840107440948486328125</LongitudeDegrees>
            </Position>
            <AltitudeMeters>1504.5999755859375</AltitudeMeters>
            <DistanceMeters>5184.6427963659</DistanceMeters>
          </Trackpoint>
          <Trackpoint>
            <Time>2021-07-17T10:11:06.000Z</Time>
            <Position>
              <LatitudeDegrees>42.71637571044266223907470703125</LatitudeDegrees>
              <LongitudeDegrees>-0.23513509891927242279052734375</LongitudeDegrees>
            </Position>
            <AltitudeMeters>1505.4000244140625</AltitudeMeters>
            <DistanceMeters>5190.4882911494</DistanceMeters>
          </Trackpoint>
          <Trackpoint>
            <Time>2021-07-17T10:11:07.000Z</Time>
            <Position>
              <LatitudeDegrees>42.716364897787570953369140625</LatitudeDegrees>
              <LongitudeDegrees>-0.23513224907219409942626953125</LongitudeDegrees>
            </Position>
            <AltitudeMeters>1505.5999755859375</AltitudeMeters>
            <DistanceMeters>5191.712624719</DistanceMeters>
          </Trackpoint>
          <Trackpoint>
            <Time>2021-07-17T10:11:11.000Z</Time>
            <Position>
              <LatitudeDegrees>42.71634989418089389801025390625</LatitudeDegrees>
              <LongitudeDegrees>-0.23511900566518306732177734375</LongitudeDegrees>
            </Position>
            <AltitudeMeters>1506.199951171875</AltitudeMeters>
            <DistanceMeters>5193.7013865153</DistanceMeters>
          </Trackpoint>
          <Trackpoint>
            <Time>2021-07-17T10:11:12.000Z</Time>
            <Position>
              <LatitudeDegrees>42.716347463428974151611328125</LatitudeDegrees>
              <LongitudeDegrees>-0.235118754208087921142578125</LongitudeDegrees>
            </Position>
            <AltitudeMeters>1506.199951171875</AltitudeMeters>
            <DistanceMeters>5193.9701626518</DistanceMeters>
          </Trackpoint>
          <Trackpoint>
            <Time>2021-07-17T10:11:15.000Z</Time>
            <Position>
              <LatitudeDegrees>42.71634469740092754364013671875</LatitudeDegrees>
              <LongitudeDegrees>-0.235125124454498291015625</LongitudeDegrees>
            </Position>
            <AltitudeMeters>1505.800048828125</AltitudeMeters>
            <DistanceMeters>5194.5711643638</DistanceMeters>
          </Trackpoint>
          <Trackpoint>
            <Time>2021-07-17T10:11:20.000Z</Time>
            <Position>
              <LatitudeDegrees>42.716341428458690643310546875</LatitudeDegrees>
              <LongitudeDegrees>-0.23511196486651897430419921875</LongitudeDegrees>
            </Position>
            <AltitudeMeters>1506.5999755859375</AltitudeMeters>
            <DistanceMeters>5195.7035383546</DistanceMeters>
          </Trackpoint>
          <Trackpoint>
            <Time>2021-07-17T10:11:25.000Z</Time>
            <Position>
              <LatitudeDegrees>42.71634235046803951263427734375</LatitudeDegrees>
              <LongitudeDegrees>-0.2351098693907260894775390625</LongitudeDegrees>
            </Position>
            <AltitudeMeters>1506.800048828125</AltitudeMeters>
            <DistanceMeters>5195.8935917833</DistanceMeters>
          </Trackpoint>
          <Trackpoint>
            <Time>2021-07-17T10:11:42.000Z</Time>
            <Position>
              <LatitudeDegrees>42.71634436212480068206787109375</LatitudeDegrees>
              <LongitudeDegrees>-0.2351371943950653076171875</LongitudeDegrees>
            </Position>
            <AltitudeMeters>1505.199951171875</AltitudeMeters>
            <DistanceMeters>5198.1403255753</DistanceMeters>
          </Trackpoint>
          <Trackpoint>
            <Time>2021-07-17T10:11:44.000Z</Time>
            <Position>
              <LatitudeDegrees>42.716346122324466705322265625</LatitudeDegrees>
              <LongitudeDegrees>-0.2351403795182704925537109375</LongitudeDegrees>
            </Position>
            <AltitudeMeters>1505</AltitudeMeters>
            <DistanceMeters>5198.46950777</DistanceMeters>
          </Trackpoint>
          <Trackpoint>
            <Time>2021-07-17T10:11:47.000Z</Time>
            <Position>
              <LatitudeDegrees>42.71636632271111011505126953125</LatitudeDegrees>
              <LongitudeDegrees>-0.23514733649790287017822265625</LongitudeDegrees>
            </Position>
            <AltitudeMeters>1504.800048828125</AltitudeMeters>
            <DistanceMeters>5200.7894055179</DistanceMeters>
          </Trackpoint>
          <Trackpoint>
            <Time>2021-07-17T10:11:54.000Z</Time>
            <Position>
              <LatitudeDegrees>42.71643723361194133758544921875</LatitudeDegrees>
              <LongitudeDegrees>-0.2351440675556659698486328125</LongitudeDegrees>
            </Position>
            <AltitudeMeters>1505.199951171875</AltitudeMeters>
            <DistanceMeters>5208.6863484658</DistanceMeters>
          </Trackpoint>
          <Trackpoint>
            <Time>2021-07-17T10:12:00.000Z</Time>
            <Position>
              <LatitudeDegrees>42.71649356000125408172607421875</LatitudeDegrees>
              <LongitudeDegrees>-0.23516141809523105621337890625</LongitudeDegrees>
            </Position>
            <AltitudeMeters>1504.5999755859375</AltitudeMeters>
            <DistanceMeters>5215.1145387094</DistanceMeters>
          </Trackpoint>
          <Trackpoint>
            <Time>2021-07-17T10:12:01.000Z</Time>
            <Position>
              <LatitudeDegrees>42.7164921350777149200439453125</LatitudeDegrees>
              <LongitudeDegrees>-0.2351695485413074493408203125</LongitudeDegrees>
            </Position>
            <AltitudeMeters>1504.199951171875</AltitudeMeters>
            <DistanceMeters>5215.7997860918</DistanceMeters>
          </Trackpoint>
          <Trackpoint>
            <Time>2021-07-17T10:12:03.000Z</Time>
            <Position>
              <LatitudeDegrees>42.71648819558322429656982421875</LatitudeDegrees>
              <LongitudeDegrees>-0.23517466150224208831787109375</LongitudeDegrees>
            </Position>
            <AltitudeMeters>1504</AltitudeMeters>
            <DistanceMeters>5216.4007878037</DistanceMeters>
          </Trackpoint>
          <Trackpoint>
            <Time>2021-07-17T10:12:05.000Z</Time>
            <Position>
              <LatitudeDegrees>42.71648819558322429656982421875</LatitudeDegrees>
              <LongitudeDegrees>-0.23517164401710033416748046875</LongitudeDegrees>
            </Position>
            <AltitudeMeters>1504.199951171875</AltitudeMeters>
            <DistanceMeters>5216.6335547658</DistanceMeters>
          </Trackpoint>
          <Trackpoint>
            <Time>2021-07-17T10:12:08.000Z</Time>
            <Position>
              <LatitudeDegrees>42.71648819558322429656982421875</LatitudeDegrees>
              <LongitudeDegrees>-0.23517164401710033416748046875</LongitudeDegrees>
            </Position>
            <AltitudeMeters>1504.199951171875</AltitudeMeters>
            <DistanceMeters>5216.6335547658</DistanceMeters>
          </Trackpoint>
          <Trackpoint>
            <Time>2021-07-17T10:12:21.000Z</Time>
            <Position>
              <LatitudeDegrees>42.71648819558322429656982421875</LatitudeDegrees>
              <LongitudeDegrees>-0.23517466150224208831787109375</LongitudeDegrees>
            </Position>
            <AltitudeMeters>1504</AltitudeMeters>
            <DistanceMeters>5216.866321728</DistanceMeters>
          </Trackpoint>
          <Trackpoint>
            <Time>2021-07-17T10:12:28.000Z</Time>
            <Position>
              <LatitudeDegrees>42.716480903327465057373046875</LatitudeDegrees>
              <LongitudeDegrees>-0.23518404923379421234130859375</LongitudeDegrees>
            </Position>
            <AltitudeMeters>1503.4000244140625</AltitudeMeters>
            <DistanceMeters>5217.9785809032</DistanceMeters>
          </Trackpoint>
          <Trackpoint>
            <Time>2021-07-17T10:12:34.000Z</Time>
            <Position>
              <LatitudeDegrees>42.71647511981427669525146484375</LatitudeDegrees>
              <LongitudeDegrees>-0.2351933531463146209716796875</LongitudeDegrees>
            </Position>
            <AltitudeMeters>1503</AltitudeMeters>
            <DistanceMeters>5218.9752294916</DistanceMeters>
          </Trackpoint>
          <Trackpoint>
            <Time>2021-07-17T10:12:39.000Z</Time>
            <Position>
              <LatitudeDegrees>42.716472856700420379638671875</LatitudeDegrees>
              <LongitudeDegrees>-0.23519695736467838287353515625</LongitudeDegrees>
            </Position>
            <AltitudeMeters>1502.800048828125</AltitudeMeters>
            <DistanceMeters>5219.3783936964</DistanceMeters>
          </Trackpoint>
          <Trackpoint>
            <Time>2021-07-17T10:12:42.000Z</Time>
            <Position>
              <LatitudeDegrees>42.716472856700420379638671875</LatitudeDegrees>
              <LongitudeDegrees>-0.23519695736467838287353515625</LongitudeDegrees>
            </Position>
            <AltitudeMeters>1502.800048828125</AltitudeMeters>
            <DistanceMeters>5219.3783936964</DistanceMeters>
          </Trackpoint>
          <Trackpoint>
            <Time>2021-07-17T10:12:43.000Z</Time>
            <Position>
              <LatitudeDegrees>42.716472856700420379638671875</LatitudeDegrees>
              <LongitudeDegrees>-0.23519645445048809051513671875</LongitudeDegrees>
            </Position>
            <AltitudeMeters>1502.800048828125</AltitudeMeters>
            <DistanceMeters>5219.3783936964</DistanceMeters>
          </Trackpoint>
          <Trackpoint>
            <Time>2021-07-17T10:12:45.000Z</Time>
            <Position>
              <LatitudeDegrees>42.716472856700420379638671875</LatitudeDegrees>
              <LongitudeDegrees>-0.2351963706314563751220703125</LongitudeDegrees>
            </Position>
            <AltitudeMeters>1502.800048828125</AltitudeMeters>
            <DistanceMeters>5219.3783936964</DistanceMeters>
          </Trackpoint>
          <Trackpoint>
            <Time>2021-07-17T10:12:50.000Z</Time>
            <Position>
              <LatitudeDegrees>42.71647763438522815704345703125</LatitudeDegrees>
              <LongitudeDegrees>-0.2351963706314563751220703125</LongitudeDegrees>
            </Position>
            <AltitudeMeters>1502.800048828125</AltitudeMeters>
            <DistanceMeters>5219.9159459694</DistanceMeters>
          </Trackpoint>
          <Trackpoint>
            <Time>2021-07-17T10:13:02.000Z</Time>
            <Position>
              <LatitudeDegrees>42.716495990753173828125</LatitudeDegrees>
              <LongitudeDegrees>-0.23516845889389514923095703125</LongitudeDegrees>
            </Position>
            <AltitudeMeters>1504.4000244140625</AltitudeMeters>
            <DistanceMeters>5222.9804654263</DistanceMeters>
          </Trackpoint>
          <Trackpoint>
            <Time>2021-07-17T10:13:18.000Z</Time>
            <Position>
              <LatitudeDegrees>42.71650579757988452911376953125</LatitudeDegrees>
              <LongitudeDegrees>-0.23515529930591583251953125</LongitudeDegrees>
            </Position>
            <AltitudeMeters>1505.199951171875</AltitudeMeters>
            <DistanceMeters>5224.5127251547</DistanceMeters>
          </Trackpoint>
          <Trackpoint>
            <Time>2021-07-17T10:13:20.000Z</Time>
            <Position>
              <LatitudeDegrees>42.71650646813213825225830078125</LatitudeDegrees>
              <LongitudeDegrees>-0.2351547963917255401611328125</LongitudeDegrees>
            </Position>
            <AltitudeMeters>1505.199951171875</AltitudeMeters>
            <DistanceMeters>5224.5127251547</DistanceMeters>
          </Trackpoint>
          <Trackpoint>
            <Time>2021-07-17T10:13:32.000Z</Time>
            <Position>
              <LatitudeDegrees>42.7165702544152736663818359375</LatitudeDegrees>
              <LongitudeDegrees>-0.2350984700024127960205078125</LongitudeDegrees>
            </Position>
            <AltitudeMeters>1508.800048828125</AltitudeMeters>
            <DistanceMeters>5232.9749060911</DistanceMeters>
          </Trackpoint>
          <Trackpoint>
            <Time>2021-07-17T10:13:35.000Z</Time>
            <Position>
              <LatitudeDegrees>42.7166128344833850860595703125</LatitudeDegrees>
              <LongitudeDegrees>-0.235079191625118255615234375</LongitudeDegrees>
            </Position>
            <AltitudeMeters>1510.4000244140625</AltitudeMeters>
            <DistanceMeters>5237.9690097282</DistanceMeters>
          </Trackpoint>
          <Trackpoint>
            <Time>2021-07-17T10:13:37.000Z</Time>
            <Position>
              <LatitudeDegrees>42.71663437597453594207763671875</LatitudeDegrees>
              <LongitudeDegrees>-0.23507977835834026336669921875</LongitudeDegrees>
            </Position>
            <AltitudeMeters>1510.800048828125</AltitudeMeters>
            <DistanceMeters>5240.3654922795</DistanceMeters>
          </Trackpoint>
          <Trackpoint>
            <Time>2021-07-17T10:13:40.000Z</Time>
            <Position>
              <LatitudeDegrees>42.716658599674701690673828125</LatitudeDegrees>
              <LongitudeDegrees>-0.23506770841777324676513671875</LongitudeDegrees>
            </Position>
            <AltitudeMeters>1511.5999755859375</AltitudeMeters>
            <DistanceMeters>5243.2352361212</DistanceMeters>
          </Trackpoint>
          <Trackpoint>
            <Time>2021-07-17T10:13:45.000Z</Time>
            <Position>
              <LatitudeDegrees>42.71670721471309661865234375</LatitudeDegrees>
              <LongitudeDegrees>-0.2350696362555027008056640625</LongitudeDegrees>
            </Position>
            <AltitudeMeters>1512.4000244140625</AltitudeMeters>
            <DistanceMeters>5248.6484235427</DistanceMeters>
          </Trackpoint>
          <Trackpoint>
            <Time>2021-07-17T10:13:48.000Z</Time>
            <Position>
              <LatitudeDegrees>42.71672976203262805938720703125</LatitudeDegrees>
              <LongitudeDegrees>-0.23508212529122829437255859375</LongitudeDegrees>
            </Position>
            <AltitudeMeters>1512.4000244140625</AltitudeMeters>
            <DistanceMeters>5251.3596008193</DistanceMeters>
          </Trackpoint>
          <Trackpoint>
            <Time>2021-07-17T10:13:55.000Z</Time>
            <Position>
              <LatitudeDegrees>42.71679832600057125091552734375</LatitudeDegrees>
              <LongitudeDegrees>-0.2351023256778717041015625</LongitudeDegrees>
            </Position>
            <AltitudeMeters>1512.5999755859375</AltitudeMeters>
            <DistanceMeters>5259.167420366</DistanceMeters>
          </Trackpoint>
          <Trackpoint>
            <Time>2021-07-17T10:13:56.000Z</Time>
            <Position>
              <LatitudeDegrees>42.71680486388504505157470703125</LatitudeDegrees>
              <LongitudeDegrees>-0.23510945029556751251220703125</LongitudeDegrees>
            </Position>
            <AltitudeMeters>1512.4000244140625</AltitudeMeters>
            <DistanceMeters>5260.1033249632</DistanceMeters>
          </Trackpoint>
          <Trackpoint>
            <Time>2021-07-17T10:13:58.000Z</Time>
            <Position>
              <LatitudeDegrees>42.71682179532945156097412109375</LatitudeDegrees>
              <LongitudeDegrees>-0.23512034676969051361083984375</LongitudeDegrees>
            </Position>
            <AltitudeMeters>1512.4000244140625</AltitudeMeters>
            <DistanceMeters>5262.1895888118</DistanceMeters>
          </Trackpoint>
          <Trackpoint>
            <Time>2021-07-17T10:14:01.000Z</Time>
            <Position>
              <LatitudeDegrees>42.71684392355382442474365234375</LatitudeDegrees>
              <LongitudeDegrees>-0.235150940716266632080078125</LongitudeDegrees>
            </Position>
            <AltitudeMeters>1511.800048828125</AltitudeMeters>
            <DistanceMeters>5265.7004369068</DistanceMeters>
          </Trackpoint>
          <Trackpoint>
            <Time>2021-07-17T10:14:05.000Z</Time>
            <Position>
              <LatitudeDegrees>42.716863453388214111328125</LatitudeDegrees>
              <LongitudeDegrees>-0.23515529930591583251953125</LongitudeDegrees>
            </Position>
            <AltitudeMeters>1512.199951171875</AltitudeMeters>
            <DistanceMeters>5267.9045651079</DistanceMeters>
          </Trackpoint>
          <Trackpoint>
            <Time>2021-07-17T10:14:06.000Z</Time>
            <Position>
              <LatitudeDegrees>42.7168612740933895111083984375</LatitudeDegrees>
              <LongitudeDegrees>-0.23515655659139156341552734375</LongitudeDegrees>
            </Position>
            <AltitudeMeters>1512.199951171875</AltitudeMeters>
            <DistanceMeters>5268.1733412444</DistanceMeters>
          </Trackpoint>
          <Trackpoint>
            <Time>2021-07-17T10:14:08.000Z</Time>
            <Position>
              <LatitudeDegrees>42.7168555743992328643798828125</LatitudeDegrees>
              <LongitudeDegrees>-0.2351645193994045257568359375</LongitudeDegrees>
            </Position>
            <AltitudeMeters>1511.5999755859375</AltitudeMeters>
            <DistanceMeters>5269.0798383246</DistanceMeters>
          </Trackpoint>
          <Trackpoint>
            <Time>2021-07-17T10:14:10.000Z</Time>
            <Position>
              <LatitudeDegrees>42.71685783751308917999267578125</LatitudeDegrees>
              <LongitudeDegrees>-0.2351651899516582489013671875</LongitudeDegrees>
            </Position>
            <AltitudeMeters>1511.800048828125</AltitudeMeters>
            <DistanceMeters>5269.3486144611</DistanceMeters>
          </Trackpoint>
          <Trackpoint>
            <Time>2021-07-17T10:14:12.000Z</Time>
            <Position>
              <LatitudeDegrees>42.7168639563024044036865234375</LatitudeDegrees>
              <LongitudeDegrees>-0.2351611666381359100341796875</LongitudeDegrees>
            </Position>
            <AltitudeMeters>1512</AltitudeMeters>
            <DistanceMeters>5270.108828176</DistanceMeters>
          </Trackpoint>
          <Trackpoint>
            <Time>2021-07-17T10:14:15.000Z</Time>
            <Position>
              <LatitudeDegrees>42.71689002402126789093017578125</LatitudeDegrees>
              <LongitudeDegrees>-0.23515253327786922454833984375</LongitudeDegrees>
            </Position>
            <AltitudeMeters>1513</AltitudeMeters>
            <DistanceMeters>5273.0957522672</DistanceMeters>
          </Trackpoint>
          <Trackpoint>
            <Time>2021-07-17T10:14:16.000Z</Time>
            <Position>
              <LatitudeDegrees>42.71689538843929767608642578125</LatitudeDegrees>
              <LongitudeDegrees>-0.23515320383012294769287109375</LongitudeDegrees>
            </Position>
            <AltitudeMeters>1513</AltitudeMeters>
            <DistanceMeters>5273.7042201252</DistanceMeters>
          </Trackpoint>
          <Trackpoint>
            <Time>2021-07-17T10:14:22.000Z</Time>
            <Position>
              <LatitudeDegrees>42.71692958660423755645751953125</LatitudeDegrees>
              <LongitudeDegrees>-0.23518882691860198974609375</LongitudeDegrees>
            </Position>
            <AltitudeMeters>1512.5999755859375</AltitudeMeters>
            <DistanceMeters>5278.4971852277</DistanceMeters>
          </Trackpoint>
          <Trackpoint>
            <Time>2021-07-17T10:14:25.000Z</Time>
            <Position>
              <LatitudeDegrees>42.71693788468837738037109375</LatitudeDegrees>
              <LongitudeDegrees>-0.23522025905549526214599609375</LongitudeDegrees>
            </Position>
            <AltitudeMeters>1511.800048828125</AltitudeMeters>
            <DistanceMeters>5281.2282734984</DistanceMeters>
          </Trackpoint>
          <Trackpoint>
            <Time>2021-07-17T10:14:28.000Z</Time>
            <Position>
              <LatitudeDegrees>42.71694199182093143463134765625</LatitudeDegrees>
              <LongitudeDegrees>-0.23525982163846492767333984375</LongitudeDegrees>
            </Position>
            <AltitudeMeters>1510.5999755859375</AltitudeMeters>
            <DistanceMeters>5284.4953134977</DistanceMeters>
          </Trackpoint>
          <Trackpoint>
            <Time>2021-07-17T10:14:33.000Z</Time>
            <Position>
              <LatitudeDegrees>42.7169601805508136749267578125</LatitudeDegrees>
              <LongitudeDegrees>-0.23531447164714336395263671875</LongitudeDegrees>
            </Position>
            <AltitudeMeters>1510</AltitudeMeters>
            <DistanceMeters>5289.4018584939</DistanceMeters>
          </Trackpoint>
          <Trackpoint>
            <Time>2021-07-17T10:14:40.000Z</Time>
            <Position>
              <LatitudeDegrees>42.71698071621358394622802734375</LatitudeDegrees>
              <LongitudeDegrees>-0.23536023683845996856689453125</LongitudeDegrees>
            </Position>
            <AltitudeMeters>1509.800048828125</AltitudeMeters>
            <DistanceMeters>5293.7875241019</DistanceMeters>
          </Trackpoint>
          <Trackpoint>
            <Time>2021-07-17T10:14:53.000Z</Time>
            <Position>
              <LatitudeDegrees>42.71699882112443447113037109375</LatitudeDegrees>
              <LongitudeDegrees>-0.23541052825748920440673828125</LongitudeDegrees>
            </Position>
            <AltitudeMeters>1509.4000244140625</AltitudeMeters>
            <DistanceMeters>5298.3665892361</DistanceMeters>
          </Trackpoint>
          <Trackpoint>
            <Time>2021-07-17T10:14:59.000Z</Time>
            <Position>
              <LatitudeDegrees>42.71700896322727203369140625</LatitudeDegrees>
              <LongitudeDegrees>-0.235460735857486724853515625</LongitudeDegrees>
            </Position>
            <AltitudeMeters>1508.5999755859375</AltitudeMeters>
            <DistanceMeters>5302.6248040615</DistanceMeters>
          </Trackpoint>
          <Trackpoint>
            <Time>2021-07-17T10:15:03.000Z</Time>
            <Position>
              <LatitudeDegrees>42.71701835095882415771484375</LatitudeDegrees>
              <LongitudeDegrees>-0.235488899052143096923828125</LongitudeDegrees>
            </Position>
            <AltitudeMeters>1508.4000244140625</AltitudeMeters>
            <DistanceMeters>5305.1533004768</DistanceMeters>
          </Trackpoint>
          <Trackpoint>
            <Time>2021-07-17T10:15:06.000Z</Time>
            <Position>
              <LatitudeDegrees>42.7170310914516448974609375</LatitudeDegrees>
              <LongitudeDegrees>-0.2355071716010570526123046875</LongitudeDegrees>
            </Position>
            <AltitudeMeters>1508.5999755859375</AltitudeMeters>
            <DistanceMeters>5307.2134305525</DistanceMeters>
          </Trackpoint>
          <Trackpoint>
            <Time>2021-07-17T10:15:07.000Z</Time>
            <Position>
              <LatitudeDegrees>42.71703536622226238250732421875</LatitudeDegrees>
              <LongitudeDegrees>-0.23551362566649913787841796875</LongitudeDegrees>
            </Position>
            <AltitudeMeters>1508.5999755859375</AltitudeMeters>
            <DistanceMeters>5307.924545368</DistanceMeters>
          </Trackpoint>
          <Trackpoint>
            <Time>2021-07-17T10:15:12.000Z</Time>
            <Position>
              <LatitudeDegrees>42.71704944781959056854248046875</LatitudeDegrees>
              <LongitudeDegrees>-0.23551831953227519989013671875</LongitudeDegrees>
            </Position>
            <AltitudeMeters>1509.199951171875</AltitudeMeters>
            <DistanceMeters>5309.537202187</DistanceMeters>
          </Trackpoint>
          <Trackpoint>
            <Time>2021-07-17T10:15:15.000Z</Time>
            <Position>
              <LatitudeDegrees>42.7170525491237640380859375</LatitudeDegrees>
              <LongitudeDegrees>-0.23551530204713344573974609375</LongitudeDegrees>
            </Position>
            <AltitudeMeters>1509.4000244140625</AltitudeMeters>
            <DistanceMeters>5309.9514140319</DistanceMeters>
          </Trackpoint>
          <Trackpoint>
            <Time>2021-07-17T10:15:24.000Z</Time>
            <Position>
              <LatitudeDegrees>42.71707467734813690185546875</LatitudeDegrees>
              <LongitudeDegrees>-0.23554815910756587982177734375</LongitudeDegrees>
            </Position>
            <AltitudeMeters>1509.5999755859375</AltitudeMeters>
            <DistanceMeters>5313.5960323177</DistanceMeters>
          </Trackpoint>
          <Trackpoint>
            <Time>2021-07-17T10:15:33.000Z</Time>
            <Position>
              <LatitudeDegrees>42.71711482666432857513427734375</LatitudeDegrees>
              <LongitudeDegrees>-0.23554111830890178680419921875</LongitudeDegrees>
            </Position>
            <AltitudeMeters>1511.4000244140625</AltitudeMeters>
            <DistanceMeters>5318.1025433764</DistanceMeters>
          </Trackpoint>
          <Trackpoint>
            <Time>2021-07-17T10:15:36.000Z</Time>
            <Position>
              <LatitudeDegrees>42.71712429821491241455078125</LatitudeDegrees>
              <LongitudeDegrees>-0.2355252765119075775146484375</LongitudeDegrees>
            </Position>
            <AltitudeMeters>1512.199951171875</AltitudeMeters>
            <DistanceMeters>5319.7729605761</DistanceMeters>
          </Trackpoint>
          <Trackpoint>
            <Time>2021-07-17T10:15:42.000Z</Time>
            <Position>
              <LatitudeDegrees>42.71715824492275714874267578125</LatitudeDegrees>
              <LongitudeDegrees>-0.23547850549221038818359375</LongitudeDegrees>
            </Position>
            <AltitudeMeters>1514.5999755859375</AltitudeMeters>
            <DistanceMeters>5325.149323166</DistanceMeters>
          </Trackpoint>
          <Trackpoint>
            <Time>2021-07-17T10:15:43.000Z</Time>
            <Position>
              <LatitudeDegrees>42.71716008894145488739013671875</LatitudeDegrees>
              <LongitudeDegrees>-0.23547112941741943359375</LongitudeDegrees>
            </Position>
            <AltitudeMeters>1514.800048828125</AltitudeMeters>
            <DistanceMeters>5325.7796590792</DistanceMeters>
          </Trackpoint>
          <Trackpoint>
            <Time>2021-07-17T10:15:48.000Z</Time>
            <Position>
              <LatitudeDegrees>42.7171935327351093292236328125</LatitudeDegrees>
              <LongitudeDegrees>-0.23542326875030994415283203125</LongitudeDegrees>
            </Position>
            <AltitudeMeters>1517</AltitudeMeters>
            <DistanceMeters>5331.18032079</DistanceMeters>
          </Trackpoint>
          <Trackpoint>
            <Time>2021-07-17T10:15:51.000Z</Time>
            <Position>
              <LatitudeDegrees>42.7171791158616542816162109375</LatitudeDegrees>
              <LongitudeDegrees>-0.23541840724647045135498046875</LongitudeDegrees>
            </Position>
            <AltitudeMeters>1516.4000244140625</AltitudeMeters>
            <DistanceMeters>5332.8317090199</DistanceMeters>
          </Trackpoint>
          <Trackpoint>
            <Time>2021-07-17T10:15:59.000Z</Time>
            <Position>
              <LatitudeDegrees>42.7171491086483001708984375</LatitudeDegrees>
              <LongitudeDegrees>-0.23540072143077850341796875</LongitudeDegrees>
            </Position>
            <AltitudeMeters>1515.4000244140625</AltitudeMeters>
            <DistanceMeters>5336.4726089389</DistanceMeters>
          </Trackpoint>
          <Trackpoint>
            <Time>2021-07-17T10:16:04.000Z</Time>
            <Position>
              <LatitudeDegrees>42.7171469293534755706787109375</LatitudeDegrees>
              <LongitudeDegrees>-0.2353946864604949951171875</LongitudeDegrees>
            </Position>
            <AltitudeMeters>1515.4000244140625</AltitudeMeters>
            <DistanceMeters>5337.0184958527</DistanceMeters>
          </Trackpoint>
          <Trackpoint>
            <Time>2021-07-17T10:16:09.000Z</Time>
            <Position>
              <LatitudeDegrees>42.71714977920055389404296875</LatitudeDegrees>
              <LongitudeDegrees>-0.2353946864604949951171875</LongitudeDegrees>
            </Position>
            <AltitudeMeters>1515.5999755859375</AltitudeMeters>
            <DistanceMeters>5337.3476780474</DistanceMeters>
          </Trackpoint>
          <Trackpoint>
            <Time>2021-07-17T10:16:11.000Z</Time>
            <Position>
              <LatitudeDegrees>42.7171549759805202484130859375</LatitudeDegrees>
              <LongitudeDegrees>-0.2353985421359539031982421875</LongitudeDegrees>
            </Position>
            <AltitudeMeters>1515.5999755859375</AltitudeMeters>
            <DistanceMeters>5338.0060424368</DistanceMeters>
          </Trackpoint>
          <Trackpoint>
            <Time>2021-07-17T10:16:17.000Z</Time>
            <Position>
              <LatitudeDegrees>42.7172242105007171630859375</LatitudeDegrees>
              <LongitudeDegrees>-0.23543165065348148345947265625</LongitudeDegrees>
            </Position>
            <AltitudeMeters>1518.199951171875</AltitudeMeters>
            <DistanceMeters>5346.1739188296</DistanceMeters>
          </Trackpoint>
          <Trackpoint>
            <Time>2021-07-17T10:16:18.000Z</Time>
            <Position>
              <LatitudeDegrees>42.71723485551774501800537109375</LatitudeDegrees>
              <LongitudeDegrees>-0.23543424904346466064453125</LongitudeDegrees>
            </Position>
            <AltitudeMeters>1518.5999755859375</AltitudeMeters>
            <DistanceMeters>5347.3796726633</DistanceMeters>
          </Trackpoint>
          <Trackpoint>
            <Time>2021-07-17T10:16:24.000Z</Time>
            <Position>
              <LatitudeDegrees>42.71731733344495296478271484375</LatitudeDegrees>
              <LongitudeDegrees>-0.23543265648186206817626953125</LongitudeDegrees>
            </Position>
            <AltitudeMeters>1521.800048828125</AltitudeMeters>
            <DistanceMeters>5356.5609451026</DistanceMeters>
          </Trackpoint>
          <Trackpoint>
            <Time>2021-07-17T10:16:26.000Z</Time>
            <Position>
              <LatitudeDegrees>42.7173234522342681884765625</LatitudeDegrees>
              <LongitudeDegrees>-0.235425196588039398193359375</LongitudeDegrees>
            </Position>
            <AltitudeMeters>1522.199951171875</AltitudeMeters>
            <DistanceMeters>5357.477349549</DistanceMeters>
          </Trackpoint>
          <Trackpoint>
            <Time>2021-07-17T10:16:29.000Z</Time>
            <Position>
              <LatitudeDegrees>42.717333175241947174072265625</LatitudeDegrees>
              <LongitudeDegrees>-0.235429890453815460205078125</LongitudeDegrees>
            </Position>
            <AltitudeMeters>1522.4000244140625</AltitudeMeters>
            <DistanceMeters>5358.6255617074</DistanceMeters>
          </Trackpoint>
          <Trackpoint>
            <Time>2021-07-17T10:16:30.000Z</Time>
            <Position>
              <LatitudeDegrees>42.7173368632793426513671875</LatitudeDegrees>
              <LongitudeDegrees>-0.235425531864166259765625</LongitudeDegrees>
            </Position>
            <AltitudeMeters>1522.5999755859375</AltitudeMeters>
            <DistanceMeters>5359.1631139804</DistanceMeters>
          </Trackpoint>
          <Trackpoint>
            <Time>2021-07-17T10:16:33.000Z</Time>
            <Position>
              <LatitudeDegrees>42.71735354326665401458740234375</LatitudeDegrees>
              <LongitudeDegrees>-0.23542259819805622100830078125</LongitudeDegrees>
            </Position>
            <AltitudeMeters>1523.199951171875</AltitudeMeters>
            <DistanceMeters>5361.0300926914</DistanceMeters>
          </Trackpoint>
          <Trackpoint>
            <Time>2021-07-17T10:16:38.000Z</Time>
            <Position>
              <LatitudeDegrees>42.71737952716648578643798828125</LatitudeDegrees>
              <LongitudeDegrees>-0.23544338531792163848876953125</LongitudeDegrees>
            </Position>
            <AltitudeMeters>1524</AltitudeMeters>
            <DistanceMeters>5364.3844145676</DistanceMeters>
          </Trackpoint>
          <Trackpoint>
            <Time>2021-07-17T10:16:39.000Z</Time>
            <Position>
              <LatitudeDegrees>42.7173869870603084564208984375</LatitudeDegrees>
              <LongitudeDegrees>-0.23544388823211193084716796875</LongitudeDegrees>
            </Position>
            <AltitudeMeters>1524.199951171875</AltitudeMeters>
            <DistanceMeters>5365.2128382574</DistanceMeters>
          </Trackpoint>
          <Trackpoint>
            <Time>2021-07-17T10:16:40.000Z</Time>
            <Position>
              <LatitudeDegrees>42.7173933573067188262939453125</LatitudeDegrees>
              <LongitudeDegrees>-0.23544187657535076141357421875</LongitudeDegrees>
            </Position>
            <AltitudeMeters>1524.4000244140625</AltitudeMeters>
            <DistanceMeters>5365.9427523004</DistanceMeters>
          </Trackpoint>
          <Trackpoint>
            <Time>2021-07-17T10:16:45.000Z</Time>
            <Position>
              <LatitudeDegrees>42.717431075870990753173828125</LatitudeDegrees>
              <LongitudeDegrees>-0.2354481630027294158935546875</LongitudeDegrees>
            </Position>
            <AltitudeMeters>1525.800048828125</AltitudeMeters>
            <DistanceMeters>5370.172241801</DistanceMeters>
          </Trackpoint>
          <Trackpoint>
            <Time>2021-07-17T10:16:48.000Z</Time>
            <Position>
              <LatitudeDegrees>42.71744591183960437774658203125</LatitudeDegrees>
              <LongitudeDegrees>-0.23545227013528347015380859375</LongitudeDegrees>
            </Position>
            <AltitudeMeters>1526.199951171875</AltitudeMeters>
            <DistanceMeters>5371.8561194698</DistanceMeters>
          </Trackpoint>
          <Trackpoint>
            <Time>2021-07-17T10:16:49.000Z</Time>
            <Position>
              <LatitudeDegrees>42.71744876168668270111083984375</LatitudeDegrees>
              <LongitudeDegrees>-0.2354478277266025543212890625</LongitudeDegrees>
            </Position>
            <AltitudeMeters>1526.4000244140625</AltitudeMeters>
            <DistanceMeters>5372.3406625406</DistanceMeters>
          </Trackpoint>
          <Trackpoint>
            <Time>2021-07-17T10:16:52.000Z</Time>
            <Position>
              <LatitudeDegrees>42.7174708060920238494873046875</LatitudeDegrees>
              <LongitudeDegrees>-0.235430896282196044921875</LongitudeDegrees>
            </Position>
            <AltitudeMeters>1527.4000244140625</AltitudeMeters>
            <DistanceMeters>5375.1580083118</DistanceMeters>
          </Trackpoint>
          <Trackpoint>
            <Time>2021-07-17T10:16:54.000Z</Time>
            <Position>
              <LatitudeDegrees>42.7174828760325908660888671875</LatitudeDegrees>
              <LongitudeDegrees>-0.23542595095932483673095703125</LongitudeDegrees>
            </Position>
            <AltitudeMeters>1527.800048828125</AltitudeMeters>
            <DistanceMeters>5376.5610609355</DistanceMeters>
          </Trackpoint>
          <Trackpoint>
            <Time>2021-07-17T10:16:59.000Z</Time>
            <Position>
              <LatitudeDegrees>42.7174989692866802215576171875</LatitudeDegrees>
              <LongitudeDegrees>-0.2354008890688419342041015625</LongitudeDegrees>
            </Position>
            <AltitudeMeters>1528.5999755859375</AltitudeMeters>
            <DistanceMeters>5379.2822119206</DistanceMeters>
          </Trackpoint>
          <Trackpoint>
            <Time>2021-07-17T10:17:06.000Z</Time>
            <Position>
              <LatitudeDegrees>42.71749938838183879852294921875</LatitudeDegrees>
              <LongitudeDegrees>-0.235347747802734375</LongitudeDegrees>
            </Position>
            <AltitudeMeters>1529.199951171875</AltitudeMeters>
            <DistanceMeters>5383.6285805107</DistanceMeters>
          </Trackpoint>
          <Trackpoint>
            <Time>2021-07-17T10:17:12.000Z</Time>
            <Position>
              <LatitudeDegrees>42.71751631982624530792236328125</LatitudeDegrees>
              <LongitudeDegrees>-0.23532520048320293426513671875</LongitudeDegrees>
            </Position>
            <AltitudeMeters>1530.199951171875</AltitudeMeters>
            <DistanceMeters>5386.2637520014</DistanceMeters>
          </Trackpoint>
          <Trackpoint>
            <Time>2021-07-17T10:17:14.000Z</Time>
            <Position>
              <LatitudeDegrees>42.71752101369202136993408203125</LatitudeDegrees>
              <LongitudeDegrees>-0.2353150583803653717041015625</LongitudeDegrees>
            </Position>
            <AltitudeMeters>1530.4000244140625</AltitudeMeters>
            <DistanceMeters>5387.2421119061</DistanceMeters>
          </Trackpoint>
          <Trackpoint>
            <Time>2021-07-17T10:17:17.000Z</Time>
            <Position>
              <LatitudeDegrees>42.71753140725195407867431640625</LatitudeDegrees>
              <LongitudeDegrees>-0.23529401980340480804443359375</LongitudeDegrees>
            </Position>
            <AltitudeMeters>1531</AltitudeMeters>
            <DistanceMeters>5389.3153500466</DistanceMeters>
          </Trackpoint>
          <Trackpoint>
            <Time>2021-07-17T10:17:25.000Z</Time>
            <Position>
              <LatitudeDegrees>42.71757398732006549835205078125</LatitudeDegrees>
              <LongitudeDegrees>-0.2352640964090824127197265625</LongitudeDegrees>
            </Position>
            <AltitudeMeters>1532.5999755859375</AltitudeMeters>
            <DistanceMeters>5394.6478645306</DistanceMeters>
          </Trackpoint>
          <Trackpoint>
            <Time>2021-07-17T10:17:34.000Z</Time>
            <Position>
              <LatitudeDegrees>42.71761782467365264892578125</LatitudeDegrees>
              <LongitudeDegrees>-0.23521472699940204620361328125</LongitudeDegrees>
            </Position>
            <AltitudeMeters>1533.800048828125</AltitudeMeters>
            <DistanceMeters>5400.9805234893</DistanceMeters>
          </Trackpoint>
          <Trackpoint>
            <Time>2021-07-17T10:17:44.000Z</Time>
            <Position>
              <LatitudeDegrees>42.7176761627197265625</LatitudeDegrees>
              <LongitudeDegrees>-0.23511917330324649810791015625</LongitudeDegrees>
            </Position>
            <AltitudeMeters>1535.5999755859375</AltitudeMeters>
            <DistanceMeters>5411.1399414724</DistanceMeters>
          </Trackpoint>
          <Trackpoint>
            <Time>2021-07-17T10:17:54.000Z</Time>
            <Position>
              <LatitudeDegrees>42.7177487500011920928955078125</LatitudeDegrees>
              <LongitudeDegrees>-0.23503133095800876617431640625</LongitudeDegrees>
            </Position>
            <AltitudeMeters>1537.5999755859375</AltitudeMeters>
            <DistanceMeters>5421.9504571556</DistanceMeters>
          </Trackpoint>
          <Trackpoint>
            <Time>2021-07-17T10:18:01.000Z</Time>
            <Position>
              <LatitudeDegrees>42.7177772484719753265380859375</LatitudeDegrees>
              <LongitudeDegrees>-0.2350099571049213409423828125</LongitudeDegrees>
            </Position>
            <AltitudeMeters>1538.199951171875</AltitudeMeters>
            <DistanceMeters>5425.5727079853</DistanceMeters>
          </Trackpoint>
          <Trackpoint>
            <Time>2021-07-17T10:18:10.000Z</Time>
            <Position>
              <LatitudeDegrees>42.71783801726996898651123046875</LatitudeDegrees>
              <LongitudeDegrees>-0.23501004092395305633544921875</LongitudeDegrees>
            </Position>
            <AltitudeMeters>1539</AltitudeMeters>
            <DistanceMeters>5432.3363140697</DistanceMeters>
          </Trackpoint>
          <Trackpoint>
            <Time>2021-07-17T10:18:17.000Z</Time>
            <Position>
              <LatitudeDegrees>42.71789945662021636962890625</LatitudeDegrees>
              <LongitudeDegrees>-0.23497751913964748382568359375</LongitudeDegrees>
            </Position>
            <AltitudeMeters>1539.800048828125</AltitudeMeters>
            <DistanceMeters>5439.6737056879</DistanceMeters>
          </Trackpoint>
          <Trackpoint>
            <Time>2021-07-17T10:18:26.000Z</Time>
            <Position>
              <LatitudeDegrees>42.7179509215056896209716796875</LatitudeDegrees>
              <LongitudeDegrees>-0.234930329024791717529296875</LongitudeDegrees>
            </Position>
            <AltitudeMeters>1540.800048828125</AltitudeMeters>
            <DistanceMeters>5446.5799972961</DistanceMeters>
          </Trackpoint>
          <Trackpoint>
            <Time>2021-07-17T10:18:35.000Z</Time>
            <Position>
              <LatitudeDegrees>42.71801604889333248138427734375</LatitudeDegrees>
              <LongitudeDegrees>-0.23490040563046932220458984375</LongitudeDegrees>
            </Position>
            <AltitudeMeters>1541.5999755859375</AltitudeMeters>
            <DistanceMeters>5454.2306806322</DistanceMeters>
          </Trackpoint>
          <Trackpoint>
            <Time>2021-07-17T10:18:43.000Z</Time>
            <Position>
              <LatitudeDegrees>42.71807857789099216461181640625</LatitudeDegrees>
              <LongitudeDegrees>-0.234928317368030548095703125</LongitudeDegrees>
            </Position>
            <AltitudeMeters>1541.800048828125</AltitudeMeters>
            <DistanceMeters>5461.5551385748</DistanceMeters>
          </Trackpoint>
          <Trackpoint>
            <Time>2021-07-17T10:18:54.000Z</Time>
            <Position>
              <LatitudeDegrees>42.71815669722855091094970703125</LatitudeDegrees>
              <LongitudeDegrees>-0.2349402196705341339111328125</LongitudeDegrees>
            </Position>
            <AltitudeMeters>1541.800048828125</AltitudeMeters>
            <DistanceMeters>5470.3037914962</DistanceMeters>
          </Trackpoint>
          <Trackpoint>
            <Time>2021-07-17T10:19:02.000Z</Time>
            <Position>
              <LatitudeDegrees>42.71816189400851726531982421875</LatitudeDegrees>
              <LongitudeDegrees>-0.2349221147596836090087890625</LongitudeDegrees>
            </Position>
            <AltitudeMeters>1542.199951171875</AltitudeMeters>
            <DistanceMeters>5471.8938925635</DistanceMeters>
          </Trackpoint>
          <Trackpoint>
            <Time>2021-07-17T10:19:30.000Z</Time>
            <Position>
              <LatitudeDegrees>42.718170024454593658447265625</LatitudeDegrees>
              <LongitudeDegrees>-0.2349199354648590087890625</LongitudeDegrees>
            </Position>
            <AltitudeMeters>1542.199951171875</AltitudeMeters>
            <DistanceMeters>5472.8152107419</DistanceMeters>
          </Trackpoint>
          <Trackpoint>
            <Time>2021-07-17T10:19:37.000Z</Time>
            <Position>
              <LatitudeDegrees>42.718170024454593658447265625</LatitudeDegrees>
              <LongitudeDegrees>-0.2349325083196163177490234375</LongitudeDegrees>
            </Position>
            <AltitudeMeters>1541.800048828125</AltitudeMeters>
            <DistanceMeters>5473.8386797778</DistanceMeters>
          </Trackpoint>
          <Trackpoint>
            <Time>2021-07-17T10:19:39.000Z</Time>
            <Position>
              <LatitudeDegrees>42.718170024454593658447265625</LatitudeDegrees>
              <LongitudeDegrees>-0.23493401706218719482421875</LongitudeDegrees>
            </Position>
            <AltitudeMeters>1541.800048828125</AltitudeMeters>
            <DistanceMeters>5473.8386797778</DistanceMeters>
          </Trackpoint>
          <Trackpoint>
            <Time>2021-07-17T10:19:52.000Z</Time>
            <Position>
              <LatitudeDegrees>42.7181691862642765045166015625</LatitudeDegrees>
              <LongitudeDegrees>-0.2349573187530040740966796875</LongitudeDegrees>
            </Position>
            <AltitudeMeters>1541.4000244140625</AltitudeMeters>
            <DistanceMeters>5475.7439594766</DistanceMeters>
          </Trackpoint>
          <Trackpoint>
            <Time>2021-07-17T10:19:57.000Z</Time>
            <Position>
              <LatitudeDegrees>42.7181691862642765045166015625</LatitudeDegrees>
              <LongitudeDegrees>-0.2349573187530040740966796875</LongitudeDegrees>
            </Position>
            <AltitudeMeters>1541.4000244140625</AltitudeMeters>
            <DistanceMeters>5475.7439594766</DistanceMeters>
          </Trackpoint>
          <Trackpoint>
            <Time>2021-07-17T10:20:01.000Z</Time>
            <Position>
              <LatitudeDegrees>42.71817094646394252777099609375</LatitudeDegrees>
              <LongitudeDegrees>-0.234957151114940643310546875</LongitudeDegrees>
            </Position>
            <AltitudeMeters>1541.4000244140625</AltitudeMeters>
            <DistanceMeters>5475.9340129053</DistanceMeters>
          </Trackpoint>
          <Trackpoint>
            <Time>2021-07-17T10:20:08.000Z</Time>
            <Position>
              <LatitudeDegrees>42.71817505359649658203125</LatitudeDegrees>
              <LongitudeDegrees>-0.2349556423723697662353515625</LongitudeDegrees>
            </Position>
            <AltitudeMeters>1541.4000244140625</AltitudeMeters>
            <DistanceMeters>5476.4185559762</DistanceMeters>
          </Trackpoint>
          <Trackpoint>
            <Time>2021-07-17T10:20:11.000Z</Time>
            <Position>
              <LatitudeDegrees>42.7182174660265445709228515625</LatitudeDegrees>
              <LongitudeDegrees>-0.2349387109279632568359375</LongitudeDegrees>
            </Position>
            <AltitudeMeters>1541.800048828125</AltitudeMeters>
            <DistanceMeters>5481.3379670049</DistanceMeters>
          </Trackpoint>
          <Trackpoint>
            <Time>2021-07-17T10:20:15.000Z</Time>
            <Position>
              <LatitudeDegrees>42.71826800890266895294189453125</LatitudeDegrees>
              <LongitudeDegrees>-0.23490023799240589141845703125</LongitudeDegrees>
            </Position>
            <AltitudeMeters>1542.5999755859375</AltitudeMeters>
            <DistanceMeters>5487.7829923456</DistanceMeters>
          </Trackpoint>
          <Trackpoint>
            <Time>2021-07-17T10:20:17.000Z</Time>
            <Position>
              <LatitudeDegrees>42.71829432807862758636474609375</LatitudeDegrees>
              <LongitudeDegrees>-0.23488448001444339752197265625</LongitudeDegrees>
            </Position>
            <AltitudeMeters>1543</AltitudeMeters>
            <DistanceMeters>5490.9844196467</DistanceMeters>
          </Trackpoint>
          <Trackpoint>
            <Time>2021-07-17T10:20:21.000Z</Time>
            <Position>
              <LatitudeDegrees>42.71831997670233249664306640625</LatitudeDegrees>
              <LongitudeDegrees>-0.2348493598401546478271484375</LongitudeDegrees>
            </Position>
            <AltitudeMeters>1544</AltitudeMeters>
            <DistanceMeters>5495.0328253509</DistanceMeters>
          </Trackpoint>
          <Trackpoint>
            <Time>2021-07-17T10:20:22.000Z</Time>
            <Position>
              <LatitudeDegrees>42.71832332946360111236572265625</LatitudeDegrees>
              <LongitudeDegrees>-0.23483879864215850830078125</LongitudeDegrees>
            </Position>
            <AltitudeMeters>1544.199951171875</AltitudeMeters>
            <DistanceMeters>5495.9735418286</DistanceMeters>
          </Trackpoint>
          <Trackpoint>
            <Time>2021-07-17T10:20:27.000Z</Time>
            <Position>
              <LatitudeDegrees>42.71834327839314937591552734375</LatitudeDegrees>
              <LongitudeDegrees>-0.2347839809954166412353515625</LongitudeDegrees>
            </Position>
            <AltitudeMeters>1545.5999755859375</AltitudeMeters>
            <DistanceMeters>5500.9757755123</DistanceMeters>
          </Trackpoint>
          <Trackpoint>
            <Time>2021-07-17T10:20:29.000Z</Time>
            <Position>
              <LatitudeDegrees>42.7183495648205280303955078125</LatitudeDegrees>
              <LongitudeDegrees>-0.23476595990359783172607421875</LongitudeDegrees>
            </Position>
            <AltitudeMeters>1546</AltitudeMeters>
            <DistanceMeters>5502.6106769244</DistanceMeters>
          </Trackpoint>
          <Trackpoint>
            <Time>2021-07-17T10:20:30.000Z</Time>
            <Position>
              <LatitudeDegrees>42.71835434250533580780029296875</LatitudeDegrees>
              <LongitudeDegrees>-0.23475808091461658477783203125</LongitudeDegrees>
            </Position>
            <AltitudeMeters>1546.199951171875</AltitudeMeters>
            <DistanceMeters>5503.4499301417</DistanceMeters>
          </Trackpoint>
          <Trackpoint>
            <Time>2021-07-17T10:20:32.000Z</Time>
            <Position>
              <LatitudeDegrees>42.71836138330399990081787109375</LatitudeDegrees>
              <LongitudeDegrees>-0.23474902845919132232666015625</LongitudeDegrees>
            </Position>
            <AltitudeMeters>1546.4000244140625</AltitudeMeters>
            <DistanceMeters>5504.5250346877</DistanceMeters>
          </Trackpoint>
          <Trackpoint>
            <Time>2021-07-17T10:20:34.000Z</Time>
            <Position>
              <LatitudeDegrees>42.71835987456142902374267578125</LatitudeDegrees>
              <LongitudeDegrees>-0.2347455918788909912109375</LongitudeDegrees>
            </Position>
            <AltitudeMeters>1546.5999755859375</AltitudeMeters>
            <DistanceMeters>5504.8542168824</DistanceMeters>
          </Trackpoint>
          <Trackpoint>
            <Time>2021-07-17T10:20:36.000Z</Time>
            <Position>
              <LatitudeDegrees>42.71835383959114551544189453125</LatitudeDegrees>
              <LongitudeDegrees>-0.23474064655601978302001953125</LongitudeDegrees>
            </Position>
            <AltitudeMeters>1546.5999755859375</AltitudeMeters>
            <DistanceMeters>5505.6378272436</DistanceMeters>
          </Trackpoint>
          <Trackpoint>
            <Time>2021-07-17T10:20:38.000Z</Time>
            <Position>
              <LatitudeDegrees>42.71835987456142902374267578125</LatitudeDegrees>
              <LongitudeDegrees>-0.234733857214450836181640625</LongitudeDegrees>
            </Position>
            <AltitudeMeters>1546.800048828125</AltitudeMeters>
            <DistanceMeters>5506.5087614669</DistanceMeters>
          </Trackpoint>
          <Trackpoint>
            <Time>2021-07-17T10:20:46.000Z</Time>
            <Position>
              <LatitudeDegrees>42.7184079028666019439697265625</LatitudeDegrees>
              <LongitudeDegrees>-0.23471684195101261138916015625</LongitudeDegrees>
            </Position>
            <AltitudeMeters>1547.4000244140625</AltitudeMeters>
            <DistanceMeters>5512.0325851701</DistanceMeters>
          </Trackpoint>
          <Trackpoint>
            <Time>2021-07-17T10:20:49.000Z</Time>
            <Position>
              <LatitudeDegrees>42.71843112073838710784912109375</LatitudeDegrees>
              <LongitudeDegrees>-0.2346968092024326324462890625</LongitudeDegrees>
            </Position>
            <AltitudeMeters>1548</AltitudeMeters>
            <DistanceMeters>5515.0926814549</DistanceMeters>
          </Trackpoint>
          <Trackpoint>
            <Time>2021-07-17T10:20:50.000Z</Time>
            <Position>
              <LatitudeDegrees>42.71843480877578258514404296875</LatitudeDegrees>
              <LongitudeDegrees>-0.23468867875635623931884765625</LongitudeDegrees>
            </Position>
            <AltitudeMeters>1548.199951171875</AltitudeMeters>
            <DistanceMeters>5515.8762918161</DistanceMeters>
          </Trackpoint>
          <Trackpoint>
            <Time>2021-07-17T10:20:55.000Z</Time>
            <Position>
              <LatitudeDegrees>42.71845601499080657958984375</LatitudeDegrees>
              <LongitudeDegrees>-0.23465297184884548187255859375</LongitudeDegrees>
            </Position>
            <AltitudeMeters>1549.4000244140625</AltitudeMeters>
            <DistanceMeters>5519.6307490777</DistanceMeters>
          </Trackpoint>
          <Trackpoint>
            <Time>2021-07-17T10:20:56.000Z</Time>
            <Position>
              <LatitudeDegrees>42.71846096031367778778076171875</LatitudeDegrees>
              <LongitudeDegrees>-0.2346409857273101806640625</LongitudeDegrees>
            </Position>
            <AltitudeMeters>1549.5999755859375</AltitudeMeters>
            <DistanceMeters>5520.7551203252</DistanceMeters>
          </Trackpoint>
          <Trackpoint>
            <Time>2021-07-17T10:21:03.000Z</Time>
            <Position>
              <LatitudeDegrees>42.718487195670604705810546875</LatitudeDegrees>
              <LongitudeDegrees>-0.2345891855657100677490234375</LongitudeDegrees>
            </Position>
            <AltitudeMeters>1551.4000244140625</AltitudeMeters>
            <DistanceMeters>5525.9006216743</DistanceMeters>
          </Trackpoint>
          <Trackpoint>
            <Time>2021-07-17T10:21:04.000Z</Time>
            <Position>
              <LatitudeDegrees>42.71848962642252445220947265625</LatitudeDegrees>
              <LongitudeDegrees>-0.2345821447670459747314453125</LongitudeDegrees>
            </Position>
            <AltitudeMeters>1551.5999755859375</AltitudeMeters>
            <DistanceMeters>5526.5451242084</DistanceMeters>
          </Trackpoint>
          <Trackpoint>
            <Time>2021-07-17T10:21:08.000Z</Time>
            <Position>
              <LatitudeDegrees>42.718500606715679168701171875</LatitudeDegrees>
              <LongitudeDegrees>-0.23455582559108734130859375</LongitudeDegrees>
            </Position>
            <AltitudeMeters>1552.4000244140625</AltitudeMeters>
            <DistanceMeters>5529.0194709563</DistanceMeters>
          </Trackpoint>
          <Trackpoint>
            <Time>2021-07-17T10:21:11.000Z</Time>
            <Position>
              <LatitudeDegrees>42.718505300581455230712890625</LatitudeDegrees>
              <LongitudeDegrees>-0.234554149210453033447265625</LongitudeDegrees>
            </Position>
            <AltitudeMeters>1552.5999755859375</AltitudeMeters>
            <DistanceMeters>5529.5570232293</DistanceMeters>
          </Trackpoint>
          <Trackpoint>
            <Time>2021-07-17T10:21:12.000Z</Time>
            <Position>
              <LatitudeDegrees>42.7185041271150112152099609375</LatitudeDegrees>
              <LongitudeDegrees>-0.23455314338207244873046875</LongitudeDegrees>
            </Position>
            <AltitudeMeters>1552.5999755859375</AltitudeMeters>
            <DistanceMeters>5529.6914112975</DistanceMeters>
          </Trackpoint>
          <Trackpoint>
            <Time>2021-07-17T10:21:21.000Z</Time>
            <Position>
              <LatitudeDegrees>42.71849968470633029937744140625</LatitudeDegrees>
              <LongitudeDegrees>-0.2345472760498523712158203125</LongitudeDegrees>
            </Position>
            <AltitudeMeters>1552.5999755859375</AltitudeMeters>
            <DistanceMeters>5530.3766586799</DistanceMeters>
          </Trackpoint>
          <Trackpoint>
            <Time>2021-07-17T10:21:32.000Z</Time>
            <Position>
              <LatitudeDegrees>42.71850119344890117645263671875</LatitudeDegrees>
              <LongitudeDegrees>-0.2345472760498523712158203125</LongitudeDegrees>
            </Position>
            <AltitudeMeters>1552.5999755859375</AltitudeMeters>
            <DistanceMeters>5530.5667121087</DistanceMeters>
          </Trackpoint>
          <Trackpoint>
            <Time>2021-07-17T10:21:34.000Z</Time>
            <Position>
              <LatitudeDegrees>42.71850555203855037689208984375</LatitudeDegrees>
              <LongitudeDegrees>-0.234522633254528045654296875</LongitudeDegrees>
            </Position>
            <AltitudeMeters>1553.4000244140625</AltitudeMeters>
            <DistanceMeters>5532.6399502492</DistanceMeters>
          </Trackpoint>
          <Trackpoint>
            <Time>2021-07-17T10:21:40.000Z</Time>
            <Position>
              <LatitudeDegrees>42.7185331284999847412109375</LatitudeDegrees>
              <LongitudeDegrees>-0.2344131655991077423095703125</LongitudeDegrees>
            </Position>
            <AltitudeMeters>1556.4000244140625</AltitudeMeters>
            <DistanceMeters>5542.1026262987</DistanceMeters>
          </Trackpoint>
          <Trackpoint>
            <Time>2021-07-17T10:21:44.000Z</Time>
            <Position>
              <LatitudeDegrees>42.71856187842786312103271484375</LatitudeDegrees>
              <LongitudeDegrees>-0.234336890280246734619140625</LongitudeDegrees>
            </Position>
            <AltitudeMeters>1558.199951171875</AltitudeMeters>
            <DistanceMeters>5549.1127387092</DistanceMeters>
          </Trackpoint>
          <Trackpoint>
            <Time>2021-07-17T10:21:50.000Z</Time>
            <Position>
              <LatitudeDegrees>42.71857269108295440673828125</LatitudeDegrees>
              <LongitudeDegrees>-0.234267823398113250732421875</LongitudeDegrees>
            </Position>
            <AltitudeMeters>1559.4000244140625</AltitudeMeters>
            <DistanceMeters>5554.8875176927</DistanceMeters>
          </Trackpoint>
          <Trackpoint>
            <Time>2021-07-17T10:21:52.000Z</Time>
            <Position>
              <LatitudeDegrees>42.7185782231390476226806640625</LatitudeDegrees>
              <LongitudeDegrees>-0.2342455275356769561767578125</LongitudeDegrees>
            </Position>
            <AltitudeMeters>1559.800048828125</AltitudeMeters>
            <DistanceMeters>5556.8116620069</DistanceMeters>
          </Trackpoint>
          <Trackpoint>
            <Time>2021-07-17T10:21:53.000Z</Time>
            <Position>
              <LatitudeDegrees>42.71858132444322109222412109375</LatitudeDegrees>
              <LongitudeDegrees>-0.2342327870428562164306640625</LongitudeDegrees>
            </Position>
            <AltitudeMeters>1560</AltitudeMeters>
            <DistanceMeters>5557.9116757539</DistanceMeters>
          </Trackpoint>
          <Trackpoint>
            <Time>2021-07-17T10:22:01.000Z</Time>
            <Position>
              <LatitudeDegrees>42.71859020926058292388916015625</LatitudeDegrees>
              <LongitudeDegrees>-0.23414050228893756866455078125</LongitudeDegrees>
            </Position>
            <AltitudeMeters>1561.5999755859375</AltitudeMeters>
            <DistanceMeters>5565.5233096431</DistanceMeters>
          </Trackpoint>
          <Trackpoint>
            <Time>2021-07-17T10:22:04.000Z</Time>
            <Position>
              <LatitudeDegrees>42.71860579960048198699951171875</LatitudeDegrees>
              <LongitudeDegrees>-0.234117619693279266357421875</LongitudeDegrees>
            </Position>
            <AltitudeMeters>1562</AltitudeMeters>
            <DistanceMeters>5568.0766829399</DistanceMeters>
          </Trackpoint>
          <Trackpoint>
            <Time>2021-07-17T10:22:08.000Z</Time>
            <Position>
              <LatitudeDegrees>42.71863035857677459716796875</LatitudeDegrees>
              <LongitudeDegrees>-0.23408643901348114013671875</LongitudeDegrees>
            </Position>
            <AltitudeMeters>1562.800048828125</AltitudeMeters>
            <DistanceMeters>5571.8154739658</DistanceMeters>
          </Trackpoint>
          <Trackpoint>
            <Time>2021-07-17T10:22:11.000Z</Time>
            <Position>
              <LatitudeDegrees>42.71864770911633968353271484375</LatitudeDegrees>
              <LongitudeDegrees>-0.2340571023523807525634765625</LongitudeDegrees>
            </Position>
            <AltitudeMeters>1563.199951171875</AltitudeMeters>
            <DistanceMeters>5574.894691442</DistanceMeters>
          </Trackpoint>
          <Trackpoint>
            <Time>2021-07-17T10:22:15.000Z</Time>
            <Position>
              <LatitudeDegrees>42.7186643891036510467529296875</LatitudeDegrees>
              <LongitudeDegrees>-0.23402877151966094970703125</LongitudeDegrees>
            </Position>
            <AltitudeMeters>1563.5999755859375</AltitudeMeters>
            <DistanceMeters>5577.8634209025</DistanceMeters>
          </Trackpoint>
          <Trackpoint>
            <Time>2021-07-17T10:22:16.000Z</Time>
            <Position>
              <LatitudeDegrees>42.7186657302081584930419921875</LatitudeDegrees>
              <LongitudeDegrees>-0.234020054340362548828125</LongitudeDegrees>
            </Position>
            <AltitudeMeters>1563.800048828125</AltitudeMeters>
            <DistanceMeters>5578.5933349455</DistanceMeters>
          </Trackpoint>
          <Trackpoint>
            <Time>2021-07-17T10:22:24.000Z</Time>
            <Position>
              <LatitudeDegrees>42.71869062446057796478271484375</LatitudeDegrees>
              <LongitudeDegrees>-0.23396397940814495086669921875</LongitudeDegrees>
            </Position>
            <AltitudeMeters>1564.4000244140625</AltitudeMeters>
            <DistanceMeters>5583.9520328369</DistanceMeters>
          </Trackpoint>
          <Trackpoint>
            <Time>2021-07-17T10:22:26.000Z</Time>
            <Position>
              <LatitudeDegrees>42.71869204938411712646484375</LatitudeDegrees>
              <LongitudeDegrees>-0.2339471317827701568603515625</LongitudeDegrees>
            </Position>
            <AltitudeMeters>1564.5999755859375</AltitudeMeters>
            <DistanceMeters>5585.335642683</DistanceMeters>
          </Trackpoint>
          <Trackpoint>
            <Time>2021-07-17T10:22:33.000Z</Time>
            <Position>
              <LatitudeDegrees>42.71871141158044338226318359375</LatitudeDegrees>
              <LongitudeDegrees>-0.23387513123452663421630859375</LongitudeDegrees>
            </Position>
            <AltitudeMeters>1565.4000244140625</AltitudeMeters>
            <DistanceMeters>5591.6045255727</DistanceMeters>
          </Trackpoint>
          <Trackpoint>
            <Time>2021-07-17T10:22:36.000Z</Time>
            <Position>
              <LatitudeDegrees>42.71871308796107769012451171875</LatitudeDegrees>
              <LongitudeDegrees>-0.23383841849863529205322265625</LongitudeDegrees>
            </Position>
            <AltitudeMeters>1565.800048828125</AltitudeMeters>
            <DistanceMeters>5594.6125376399</DistanceMeters>
          </Trackpoint>
          <Trackpoint>
            <Time>2021-07-17T10:22:43.000Z</Time>
            <Position>
              <LatitudeDegrees>42.718686349689960479736328125</LatitudeDegrees>
              <LongitudeDegrees>-0.2338167093694210052490234375</LongitudeDegrees>
            </Position>
            <AltitudeMeters>1566</AltitudeMeters>
            <DistanceMeters>5598.0780825712</DistanceMeters>
          </Trackpoint>
          <Trackpoint>
            <Time>2021-07-17T10:22:53.000Z</Time>
            <Position>
              <LatitudeDegrees>42.71866547875106334686279296875</LatitudeDegrees>
              <LongitudeDegrees>-0.23374135605990886688232421875</LongitudeDegrees>
            </Position>
            <AltitudeMeters>1567.5999755859375</AltitudeMeters>
            <DistanceMeters>5604.6644690795</DistanceMeters>
          </Trackpoint>
          <Trackpoint>
            <Time>2021-07-17T10:22:59.000Z</Time>
            <Position>
              <LatitudeDegrees>42.718670926988124847412109375</LatitudeDegrees>
              <LongitudeDegrees>-0.2337013743817806243896484375</LongitudeDegrees>
            </Position>
            <AltitudeMeters>1568.4000244140625</AltitudeMeters>
            <DistanceMeters>5607.9890462808</DistanceMeters>
          </Trackpoint>
          <Trackpoint>
            <Time>2021-07-17T10:23:06.000Z</Time>
            <Position>
              <LatitudeDegrees>42.7187062986195087432861328125</LatitudeDegrees>
              <LongitudeDegrees>-0.233635492622852325439453125</LongitudeDegrees>
            </Position>
            <AltitudeMeters>1569.5999755859375</AltitudeMeters>
            <DistanceMeters>5614.6612480814</DistanceMeters>
          </Trackpoint>
          <Trackpoint>
            <Time>2021-07-17T10:23:13.000Z</Time>
            <Position>
              <LatitudeDegrees>42.7187052927911281585693359375</LatitudeDegrees>
              <LongitudeDegrees>-0.23354790173470973968505859375</LongitudeDegrees>
            </Position>
            <AltitudeMeters>1571.5999755859375</AltitudeMeters>
            <DistanceMeters>5621.8242707922</DistanceMeters>
          </Trackpoint>
          <Trackpoint>
            <Time>2021-07-17T10:23:14.000Z</Time>
            <Position>
              <LatitudeDegrees>42.71870638243854045867919921875</LatitudeDegrees>
              <LongitudeDegrees>-0.233539603650569915771484375</LongitudeDegrees>
            </Position>
            <AltitudeMeters>1571.5999755859375</AltitudeMeters>
            <DistanceMeters>5622.5095181746</DistanceMeters>
          </Trackpoint>
          <Trackpoint>
            <Time>2021-07-17T10:23:23.000Z</Time>
            <Position>
              <LatitudeDegrees>42.71871375851333141326904296875</LatitudeDegrees>
              <LongitudeDegrees>-0.23347564972937107086181640625</LongitudeDegrees>
            </Position>
            <AltitudeMeters>1573.4000244140625</AltitudeMeters>
            <DistanceMeters>5627.8037940724</DistanceMeters>
          </Trackpoint>
          <Trackpoint>
            <Time>2021-07-17T10:23:27.000Z</Time>
            <Position>
              <LatitudeDegrees>42.7187140099704265594482421875</LatitudeDegrees>
              <LongitudeDegrees>-0.23346282541751861572265625</LongitudeDegrees>
            </Position>
            <AltitudeMeters>1573.5999755859375</AltitudeMeters>
            <DistanceMeters>5628.8533984389</DistanceMeters>
          </Trackpoint>
          <Trackpoint>
            <Time>2021-07-17T10:23:34.000Z</Time>
            <Position>
              <LatitudeDegrees>42.7187036164104938507080078125</LatitudeDegrees>
              <LongitudeDegrees>-0.23348302580416202545166015625</LongitudeDegrees>
            </Position>
            <AltitudeMeters>1573.199951171875</AltitudeMeters>
            <DistanceMeters>5630.8692194626</DistanceMeters>
          </Trackpoint>
          <Trackpoint>
            <Time>2021-07-17T10:23:41.000Z</Time>
            <Position>
              <LatitudeDegrees>42.718714177608489990234375</LatitudeDegrees>
              <LongitudeDegrees>-0.23349727503955364227294921875</LongitudeDegrees>
            </Position>
            <AltitudeMeters>1572.5999755859375</AltitudeMeters>
            <DistanceMeters>5632.5260668421</DistanceMeters>
          </Trackpoint>
          <Trackpoint>
            <Time>2021-07-17T10:23:46.000Z</Time>
            <Position>
              <LatitudeDegrees>42.71871677599847316741943359375</LatitudeDegrees>
              <LongitudeDegrees>-0.23349727503955364227294921875</LongitudeDegrees>
            </Position>
            <AltitudeMeters>1572.5999755859375</AltitudeMeters>
            <DistanceMeters>5632.8265676981</DistanceMeters>
          </Trackpoint>
          <Trackpoint>
            <Time>2021-07-17T10:23:49.000Z</Time>
            <Position>
              <LatitudeDegrees>42.71871677599847316741943359375</LatitudeDegrees>
              <LongitudeDegrees>-0.23349727503955364227294921875</LongitudeDegrees>
            </Position>
            <AltitudeMeters>1572.5999755859375</AltitudeMeters>
            <DistanceMeters>5632.8265676981</DistanceMeters>
          </Trackpoint>
          <Trackpoint>
            <Time>2021-07-17T10:23:54.000Z</Time>
            <Position>
              <LatitudeDegrees>42.718712501227855682373046875</LatitudeDegrees>
              <LongitudeDegrees>-0.23349501192569732666015625</LongitudeDegrees>
            </Position>
            <AltitudeMeters>1572.800048828125</AltitudeMeters>
            <DistanceMeters>5633.338302216</DistanceMeters>
          </Trackpoint>
          <Trackpoint>
            <Time>2021-07-17T10:23:57.000Z</Time>
            <Position>
              <LatitudeDegrees>42.71871124394237995147705078125</LatitudeDegrees>
              <LongitudeDegrees>-0.23349501192569732666015625</LongitudeDegrees>
            </Position>
            <AltitudeMeters>1572.800048828125</AltitudeMeters>
            <DistanceMeters>5633.4726902843</DistanceMeters>
          </Trackpoint>
          <Trackpoint>
            <Time>2021-07-17T10:23:59.000Z</Time>
            <Position>
              <LatitudeDegrees>42.71870772354304790496826171875</LatitudeDegrees>
              <LongitudeDegrees>-0.23349501192569732666015625</LongitudeDegrees>
            </Position>
            <AltitudeMeters>1572.800048828125</AltitudeMeters>
            <DistanceMeters>5633.875854489</DistanceMeters>
          </Trackpoint>
          <Trackpoint>
            <Time>2021-07-17T10:24:03.000Z</Time>
            <Position>
              <LatitudeDegrees>42.7187032811343669891357421875</LatitudeDegrees>
              <LongitudeDegrees>-0.23349501192569732666015625</LongitudeDegrees>
            </Position>
            <AltitudeMeters>1572.800048828125</AltitudeMeters>
            <DistanceMeters>5634.3786885973</DistanceMeters>
          </Trackpoint>
          <Trackpoint>
            <Time>2021-07-17T10:24:06.000Z</Time>
            <Position>
              <LatitudeDegrees>42.71870076656341552734375</LatitudeDegrees>
              <LongitudeDegrees>-0.233499705791473388671875</LongitudeDegrees>
            </Position>
            <AltitudeMeters>1572.800048828125</AltitudeMeters>
            <DistanceMeters>5634.8538221692</DistanceMeters>
          </Trackpoint>
          <Trackpoint>
            <Time>2021-07-17T10:24:08.000Z</Time>
            <Position>
              <LatitudeDegrees>42.71869875490665435791015625</LatitudeDegrees>
              <LongitudeDegrees>-0.23350548930466175079345703125</LongitudeDegrees>
            </Position>
            <AltitudeMeters>1572.5999755859375</AltitudeMeters>
            <DistanceMeters>5635.3743049194</DistanceMeters>
          </Trackpoint>
          <Trackpoint>
            <Time>2021-07-17T10:24:10.000Z</Time>
            <Position>
              <LatitudeDegrees>42.71869515068829059600830078125</LatitudeDegrees>
              <LongitudeDegrees>-0.23351353593170642852783203125</LongitudeDegrees>
            </Position>
            <AltitudeMeters>1572.4000244140625</AltitudeMeters>
            <DistanceMeters>5636.1463055964</DistanceMeters>
          </Trackpoint>
          <Trackpoint>
            <Time>2021-07-17T10:24:11.000Z</Time>
            <Position>
              <LatitudeDegrees>42.7186935581266880035400390625</LatitudeDegrees>
              <LongitudeDegrees>-0.2335139550268650054931640625</LongitudeDegrees>
            </Position>
            <AltitudeMeters>1572.4000244140625</AltitudeMeters>
            <DistanceMeters>5636.3108966938</DistanceMeters>
          </Trackpoint>
          <Trackpoint>
            <Time>2021-07-17T10:24:13.000Z</Time>
            <Position>
              <LatitudeDegrees>42.7186932228505611419677734375</LatitudeDegrees>
              <LongitudeDegrees>-0.2335144579410552978515625</LongitudeDegrees>
            </Position>
            <AltitudeMeters>1572.4000244140625</AltitudeMeters>
            <DistanceMeters>5636.3108966938</DistanceMeters>
          </Trackpoint>
          <Trackpoint>
            <Time>2021-07-17T10:24:15.000Z</Time>
            <Position>
              <LatitudeDegrees>42.7186932228505611419677734375</LatitudeDegrees>
              <LongitudeDegrees>-0.233514793217182159423828125</LongitudeDegrees>
            </Position>
            <AltitudeMeters>1572.4000244140625</AltitudeMeters>
            <DistanceMeters>5636.3108966938</DistanceMeters>
          </Trackpoint>
          <Trackpoint>
            <Time>2021-07-17T10:24:17.000Z</Time>
            <Position>
              <LatitudeDegrees>42.7186932228505611419677734375</LatitudeDegrees>
              <LongitudeDegrees>-0.23351554758846759796142578125</LongitudeDegrees>
            </Position>
            <AltitudeMeters>1572.4000244140625</AltitudeMeters>
            <DistanceMeters>5636.445284762</DistanceMeters>
          </Trackpoint>
          <Trackpoint>
            <Time>2021-07-17T10:24:20.000Z</Time>
            <Position>
              <LatitudeDegrees>42.7186932228505611419677734375</LatitudeDegrees>
              <LongitudeDegrees>-0.23351554758846759796142578125</LongitudeDegrees>
            </Position>
            <AltitudeMeters>1572.4000244140625</AltitudeMeters>
            <DistanceMeters>5636.445284762</DistanceMeters>
          </Trackpoint>
          <Trackpoint>
            <Time>2021-07-17T10:24:24.000Z</Time>
            <Position>
              <LatitudeDegrees>42.71869448013603687286376953125</LatitudeDegrees>
              <LongitudeDegrees>-0.233515799045562744140625</LongitudeDegrees>
            </Position>
            <AltitudeMeters>1572.4000244140625</AltitudeMeters>
            <DistanceMeters>5636.5796728303</DistanceMeters>
          </Trackpoint>
          <Trackpoint>
            <Time>2021-07-17T10:24:33.000Z</Time>
            <Position>
              <LatitudeDegrees>42.71869548596441745758056640625</LatitudeDegrees>
              <LongitudeDegrees>-0.23351487703621387481689453125</LongitudeDegrees>
            </Position>
            <AltitudeMeters>1572.4000244140625</AltitudeMeters>
            <DistanceMeters>5636.7140608985</DistanceMeters>
          </Trackpoint>
          <Trackpoint>
            <Time>2021-07-17T10:24:42.000Z</Time>
            <Position>
              <LatitudeDegrees>42.71869984455406665802001953125</LatitudeDegrees>
              <LongitudeDegrees>-0.233514793217182159423828125</LongitudeDegrees>
            </Position>
            <AltitudeMeters>1572.4000244140625</AltitudeMeters>
            <DistanceMeters>5637.1986039694</DistanceMeters>
          </Trackpoint>
          <Trackpoint>
            <Time>2021-07-17T10:24:53.000Z</Time>
            <Position>
              <LatitudeDegrees>42.7187012694776058197021484375</LatitudeDegrees>
              <LongitudeDegrees>-0.23351705633103847503662109375</LongitudeDegrees>
            </Position>
            <AltitudeMeters>1572.199951171875</AltitudeMeters>
            <DistanceMeters>5637.4313709316</DistanceMeters>
          </Trackpoint>
          <Trackpoint>
            <Time>2021-07-17T10:25:02.000Z</Time>
            <Position>
              <LatitudeDegrees>42.71869665943086147308349609375</LatitudeDegrees>
              <LongitudeDegrees>-0.23351739160716533660888671875</LongitudeDegrees>
            </Position>
            <AltitudeMeters>1572.4000244140625</AltitudeMeters>
            <DistanceMeters>5637.9431054495</DistanceMeters>
          </Trackpoint>
          <Trackpoint>
            <Time>2021-07-17T10:25:06.000Z</Time>
            <Position>
              <LatitudeDegrees>42.7186962403357028961181640625</LatitudeDegrees>
              <LongitudeDegrees>-0.23351722396910190582275390625</LongitudeDegrees>
            </Position>
            <AltitudeMeters>1572.4000244140625</AltitudeMeters>
            <DistanceMeters>5637.9431054495</DistanceMeters>
          </Trackpoint>
          <Trackpoint>
            <Time>2021-07-17T10:25:26.000Z</Time>
            <Position>
              <LatitudeDegrees>42.71870353259146213531494140625</LatitudeDegrees>
              <LongitudeDegrees>-0.23350196890532970428466796875</LongitudeDegrees>
            </Position>
            <AltitudeMeters>1572.5999755859375</AltitudeMeters>
            <DistanceMeters>5639.4305088006</DistanceMeters>
          </Trackpoint>
          <Trackpoint>
            <Time>2021-07-17T10:26:22.000Z</Time>
            <Position>
              <LatitudeDegrees>42.71870722062885761260986328125</LatitudeDegrees>
              <LongitudeDegrees>-0.2335293777287006378173828125</LongitudeDegrees>
            </Position>
            <AltitudeMeters>1572</AltitudeMeters>
            <DistanceMeters>5641.7111499455</DistanceMeters>
          </Trackpoint>
          <Trackpoint>
            <Time>2021-07-17T10:26:36.000Z</Time>
            <Position>
              <LatitudeDegrees>42.7187046222388744354248046875</LatitudeDegrees>
              <LongitudeDegrees>-0.233521498739719390869140625</LongitudeDegrees>
            </Position>
            <AltitudeMeters>1572.199951171875</AltitudeMeters>
            <DistanceMeters>5642.422264761</DistanceMeters>
          </Trackpoint>
          <Trackpoint>
            <Time>2021-07-17T10:26:54.000Z</Time>
            <Position>
              <LatitudeDegrees>42.71870277822017669677734375</LatitudeDegrees>
              <LongitudeDegrees>-0.2335179783403873443603515625</LongitudeDegrees>
            </Position>
            <AltitudeMeters>1572.199951171875</AltitudeMeters>
            <DistanceMeters>5642.7648884522</DistanceMeters>
          </Trackpoint>
          <Trackpoint>
            <Time>2021-07-17T10:26:58.000Z</Time>
            <Position>
              <LatitudeDegrees>42.71870319731533527374267578125</LatitudeDegrees>
              <LongitudeDegrees>-0.2335179783403873443603515625</LongitudeDegrees>
            </Position>
            <AltitudeMeters>1572.199951171875</AltitudeMeters>
            <DistanceMeters>5642.7648884522</DistanceMeters>
          </Trackpoint>
          <Trackpoint>
            <Time>2021-07-17T10:26:59.000Z</Time>
            <Position>
              <LatitudeDegrees>42.7187032811343669891357421875</LatitudeDegrees>
              <LongitudeDegrees>-0.2335179783403873443603515625</LongitudeDegrees>
            </Position>
            <AltitudeMeters>1572.199951171875</AltitudeMeters>
            <DistanceMeters>5642.7648884522</DistanceMeters>
          </Trackpoint>
          <Trackpoint>
            <Time>2021-07-17T10:27:05.000Z</Time>
            <Position>
              <LatitudeDegrees>42.718703448772430419921875</LatitudeDegrees>
              <LongitudeDegrees>-0.2335179783403873443603515625</LongitudeDegrees>
            </Position>
            <AltitudeMeters>1572.199951171875</AltitudeMeters>
            <DistanceMeters>5642.7648884522</DistanceMeters>
          </Trackpoint>
          <Trackpoint>
            <Time>2021-07-17T10:27:11.000Z</Time>
            <Position>
              <LatitudeDegrees>42.718703448772430419921875</LatitudeDegrees>
              <LongitudeDegrees>-0.2335179783403873443603515625</LongitudeDegrees>
            </Position>
            <AltitudeMeters>1572.199951171875</AltitudeMeters>
            <DistanceMeters>5642.7648884522</DistanceMeters>
          </Trackpoint>
          <Trackpoint>
            <Time>2021-07-17T10:27:23.000Z</Time>
            <Position>
              <LatitudeDegrees>42.7187036164104938507080078125</LatitudeDegrees>
              <LongitudeDegrees>-0.233518145978450775146484375</LongitudeDegrees>
            </Position>
            <AltitudeMeters>1572.199951171875</AltitudeMeters>
            <DistanceMeters>5642.7648884522</DistanceMeters>
          </Trackpoint>
          <Trackpoint>
            <Time>2021-07-17T10:27:48.000Z</Time>
            <Position>
              <LatitudeDegrees>42.71870370022952556610107421875</LatitudeDegrees>
              <LongitudeDegrees>-0.2335183136165142059326171875</LongitudeDegrees>
            </Position>
            <AltitudeMeters>1572.199951171875</AltitudeMeters>
            <DistanceMeters>5642.8599151666</DistanceMeters>
          </Trackpoint>
          <Trackpoint>
            <Time>2021-07-17T10:27:55.000Z</Time>
            <Position>
              <LatitudeDegrees>42.718703784048557281494140625</LatitudeDegrees>
              <LongitudeDegrees>-0.2335183136165142059326171875</LongitudeDegrees>
            </Position>
            <AltitudeMeters>1572.199951171875</AltitudeMeters>
            <DistanceMeters>5642.8599151666</DistanceMeters>
          </Trackpoint>
          <Trackpoint>
            <Time>2021-07-17T10:28:07.000Z</Time>
            <Position>
              <LatitudeDegrees>42.71870370022952556610107421875</LatitudeDegrees>
              <LongitudeDegrees>-0.23351822979748249053955078125</LongitudeDegrees>
            </Position>
            <AltitudeMeters>1572.199951171875</AltitudeMeters>
            <DistanceMeters>5642.8599151666</DistanceMeters>
          </Trackpoint>
          <Trackpoint>
            <Time>2021-07-17T10:28:26.000Z</Time>
            <Position>
              <LatitudeDegrees>42.7187036164104938507080078125</LatitudeDegrees>
              <LongitudeDegrees>-0.23351806215941905975341796875</LongitudeDegrees>
            </Position>
            <AltitudeMeters>1572.199951171875</AltitudeMeters>
            <DistanceMeters>5642.9549418809</DistanceMeters>
          </Trackpoint>
          <Trackpoint>
            <Time>2021-07-17T10:29:15.000Z</Time>
            <Position>
              <LatitudeDegrees>42.7187032811343669891357421875</LatitudeDegrees>
              <LongitudeDegrees>-0.23351739160716533660888671875</LongitudeDegrees>
            </Position>
            <AltitudeMeters>1572.199951171875</AltitudeMeters>
            <DistanceMeters>5643.0893299492</DistanceMeters>
          </Trackpoint>
          <Trackpoint>
            <Time>2021-07-17T10:29:19.000Z</Time>
            <Position>
              <LatitudeDegrees>42.7187032811343669891357421875</LatitudeDegrees>
              <LongitudeDegrees>-0.23351739160716533660888671875</LongitudeDegrees>
            </Position>
            <AltitudeMeters>1572.199951171875</AltitudeMeters>
            <DistanceMeters>5643.0893299492</DistanceMeters>
          </Trackpoint>
          <Trackpoint>
            <Time>2021-07-17T10:29:38.000Z</Time>
            <Position>
              <LatitudeDegrees>42.71870336495339870452880859375</LatitudeDegrees>
              <LongitudeDegrees>-0.2335176430642604827880859375</LongitudeDegrees>
            </Position>
            <AltitudeMeters>1572.199951171875</AltitudeMeters>
            <DistanceMeters>5643.0893299492</DistanceMeters>
          </Trackpoint>
          <Trackpoint>
            <Time>2021-07-17T10:29:53.000Z</Time>
            <Position>
              <LatitudeDegrees>42.71870336495339870452880859375</LatitudeDegrees>
              <LongitudeDegrees>-0.23351789452135562896728515625</LongitudeDegrees>
            </Position>
            <AltitudeMeters>1572.199951171875</AltitudeMeters>
            <DistanceMeters>5643.0893299492</DistanceMeters>
          </Trackpoint>
          <Trackpoint>
            <Time>2021-07-17T10:30:01.000Z</Time>
            <Position>
              <LatitudeDegrees>42.71870336495339870452880859375</LatitudeDegrees>
              <LongitudeDegrees>-0.2335179783403873443603515625</LongitudeDegrees>
            </Position>
            <AltitudeMeters>1572.199951171875</AltitudeMeters>
            <DistanceMeters>5643.0893299492</DistanceMeters>
          </Trackpoint>
          <Trackpoint>
            <Time>2021-07-17T10:30:05.000Z</Time>
            <Position>
              <LatitudeDegrees>42.71870336495339870452880859375</LatitudeDegrees>
              <LongitudeDegrees>-0.2335179783403873443603515625</LongitudeDegrees>
            </Position>
            <AltitudeMeters>1572.199951171875</AltitudeMeters>
            <DistanceMeters>5643.0893299492</DistanceMeters>
          </Trackpoint>
          <Trackpoint>
            <Time>2021-07-17T10:30:08.000Z</Time>
            <Position>
              <LatitudeDegrees>42.71870336495339870452880859375</LatitudeDegrees>
              <LongitudeDegrees>-0.2335179783403873443603515625</LongitudeDegrees>
            </Position>
            <AltitudeMeters>1572.199951171875</AltitudeMeters>
            <DistanceMeters>5643.0893299492</DistanceMeters>
          </Trackpoint>
          <Trackpoint>
            <Time>2021-07-17T10:30:24.000Z</Time>
            <Position>
              <LatitudeDegrees>42.71870353259146213531494140625</LatitudeDegrees>
              <LongitudeDegrees>-0.23351781070232391357421875</LongitudeDegrees>
            </Position>
            <AltitudeMeters>1572.199951171875</AltitudeMeters>
            <DistanceMeters>5643.0893299492</DistanceMeters>
          </Trackpoint>
          <Trackpoint>
            <Time>2021-07-17T10:30:30.000Z</Time>
            <Position>
              <LatitudeDegrees>42.7187036164104938507080078125</LatitudeDegrees>
              <LongitudeDegrees>-0.23351772688329219818115234375</LongitudeDegrees>
            </Position>
            <AltitudeMeters>1572.199951171875</AltitudeMeters>
            <DistanceMeters>5643.0893299492</DistanceMeters>
          </Trackpoint>
          <Trackpoint>
            <Time>2021-07-17T10:30:42.000Z</Time>
            <Position>
              <LatitudeDegrees>42.718703784048557281494140625</LatitudeDegrees>
              <LongitudeDegrees>-0.23351722396910190582275390625</LongitudeDegrees>
            </Position>
            <AltitudeMeters>1572.199951171875</AltitudeMeters>
            <DistanceMeters>5643.0893299492</DistanceMeters>
          </Trackpoint>
          <Trackpoint>
            <Time>2021-07-17T10:30:44.000Z</Time>
            <Position>
              <LatitudeDegrees>42.718703784048557281494140625</LatitudeDegrees>
              <LongitudeDegrees>-0.2335171401500701904296875</LongitudeDegrees>
            </Position>
            <AltitudeMeters>1572.199951171875</AltitudeMeters>
            <DistanceMeters>5643.0893299492</DistanceMeters>
          </Trackpoint>
          <Trackpoint>
            <Time>2021-07-17T10:31:09.000Z</Time>
            <Position>
              <LatitudeDegrees>42.71870403550565242767333984375</LatitudeDegrees>
              <LongitudeDegrees>-0.23351621814072132110595703125</LongitudeDegrees>
            </Position>
            <AltitudeMeters>1572.199951171875</AltitudeMeters>
            <DistanceMeters>5643.1843566636</DistanceMeters>
          </Trackpoint>
          <Trackpoint>
            <Time>2021-07-17T10:31:15.000Z</Time>
            <Position>
              <LatitudeDegrees>42.71870403550565242767333984375</LatitudeDegrees>
              <LongitudeDegrees>-0.233516134321689605712890625</LongitudeDegrees>
            </Position>
            <AltitudeMeters>1572.199951171875</AltitudeMeters>
            <DistanceMeters>5643.1843566636</DistanceMeters>
          </Trackpoint>
          <Trackpoint>
            <Time>2021-07-17T10:31:40.000Z</Time>
            <Position>
              <LatitudeDegrees>42.7187039516866207122802734375</LatitudeDegrees>
              <LongitudeDegrees>-0.23351605050265789031982421875</LongitudeDegrees>
            </Position>
            <AltitudeMeters>1572.199951171875</AltitudeMeters>
            <DistanceMeters>5643.1843566636</DistanceMeters>
          </Trackpoint>
          <Trackpoint>
            <Time>2021-07-17T10:31:46.000Z</Time>
            <Position>
              <LatitudeDegrees>42.7187039516866207122802734375</LatitudeDegrees>
              <LongitudeDegrees>-0.23351605050265789031982421875</LongitudeDegrees>
            </Position>
            <AltitudeMeters>1572.199951171875</AltitudeMeters>
            <DistanceMeters>5643.1843566636</DistanceMeters>
          </Trackpoint>
          <Trackpoint>
            <Time>2021-07-17T10:31:50.000Z</Time>
            <Position>
              <LatitudeDegrees>42.7187039516866207122802734375</LatitudeDegrees>
              <LongitudeDegrees>-0.2335159666836261749267578125</LongitudeDegrees>
            </Position>
            <AltitudeMeters>1572.4000244140625</AltitudeMeters>
            <DistanceMeters>5643.1843566636</DistanceMeters>
          </Trackpoint>
          <Trackpoint>
            <Time>2021-07-17T10:32:03.000Z</Time>
            <Position>
              <LatitudeDegrees>42.71870403550565242767333984375</LatitudeDegrees>
              <LongitudeDegrees>-0.233515799045562744140625</LongitudeDegrees>
            </Position>
            <AltitudeMeters>1572.4000244140625</AltitudeMeters>
            <DistanceMeters>5643.1843566636</DistanceMeters>
          </Trackpoint>
          <Trackpoint>
            <Time>2021-07-17T10:32:12.000Z</Time>
            <Position>
              <LatitudeDegrees>42.71870420314371585845947265625</LatitudeDegrees>
              <LongitudeDegrees>-0.23351554758846759796142578125</LongitudeDegrees>
            </Position>
            <AltitudeMeters>1572.4000244140625</AltitudeMeters>
            <DistanceMeters>5643.1843566636</DistanceMeters>
          </Trackpoint>
          <Trackpoint>
            <Time>2021-07-17T10:32:21.000Z</Time>
            <Position>
              <LatitudeDegrees>42.7187042869627475738525390625</LatitudeDegrees>
              <LongitudeDegrees>-0.23351537995040416717529296875</LongitudeDegrees>
            </Position>
            <AltitudeMeters>1572.4000244140625</AltitudeMeters>
            <DistanceMeters>5643.1843566636</DistanceMeters>
          </Trackpoint>
          <Trackpoint>
            <Time>2021-07-17T10:32:38.000Z</Time>
            <Position>
              <LatitudeDegrees>42.718704454600811004638671875</LatitudeDegrees>
              <LongitudeDegrees>-0.2335149608552455902099609375</LongitudeDegrees>
            </Position>
            <AltitudeMeters>1572.4000244140625</AltitudeMeters>
            <DistanceMeters>5643.1843566636</DistanceMeters>
          </Trackpoint>
          <Trackpoint>
            <Time>2021-07-17T10:32:52.000Z</Time>
            <Position>
              <LatitudeDegrees>42.718704454600811004638671875</LatitudeDegrees>
              <LongitudeDegrees>-0.23351470939815044403076171875</LongitudeDegrees>
            </Position>
            <AltitudeMeters>1572.4000244140625</AltitudeMeters>
            <DistanceMeters>5643.2793833779</DistanceMeters>
          </Trackpoint>
          <Trackpoint>
            <Time>2021-07-17T10:33:19.000Z</Time>
            <Position>
              <LatitudeDegrees>42.71870487369596958160400390625</LatitudeDegrees>
              <LongitudeDegrees>-0.23351420648396015167236328125</LongitudeDegrees>
            </Position>
            <AltitudeMeters>1572.4000244140625</AltitudeMeters>
            <DistanceMeters>5643.3744100923</DistanceMeters>
          </Trackpoint>
          <Trackpoint>
            <Time>2021-07-17T10:33:22.000Z</Time>
            <Position>
              <LatitudeDegrees>42.71870487369596958160400390625</LatitudeDegrees>
              <LongitudeDegrees>-0.233514122664928436279296875</LongitudeDegrees>
            </Position>
            <AltitudeMeters>1572.4000244140625</AltitudeMeters>
            <DistanceMeters>5643.3744100923</DistanceMeters>
          </Trackpoint>
          <Trackpoint>
            <Time>2021-07-17T10:33:29.000Z</Time>
            <Position>
              <LatitudeDegrees>42.7187049575150012969970703125</LatitudeDegrees>
              <LongitudeDegrees>-0.2335139550268650054931640625</LongitudeDegrees>
            </Position>
            <AltitudeMeters>1572.4000244140625</AltitudeMeters>
            <DistanceMeters>5643.3744100923</DistanceMeters>
          </Trackpoint>
          <Trackpoint>
            <Time>2021-07-17T10:33:33.000Z</Time>
            <Position>
              <LatitudeDegrees>42.71870504133403301239013671875</LatitudeDegrees>
              <LongitudeDegrees>-0.23351370356976985931396484375</LongitudeDegrees>
            </Position>
            <AltitudeMeters>1572.4000244140625</AltitudeMeters>
            <DistanceMeters>5643.3744100923</DistanceMeters>
          </Trackpoint>
          <Trackpoint>
            <Time>2021-07-17T10:33:42.000Z</Time>
            <Position>
              <LatitudeDegrees>42.718705125153064727783203125</LatitudeDegrees>
              <LongitudeDegrees>-0.23351336829364299774169921875</LongitudeDegrees>
            </Position>
            <AltitudeMeters>1572.4000244140625</AltitudeMeters>
            <DistanceMeters>5643.3744100923</DistanceMeters>
          </Trackpoint>
          <Trackpoint>
            <Time>2021-07-17T10:33:44.000Z</Time>
            <Position>
              <LatitudeDegrees>42.718705125153064727783203125</LatitudeDegrees>
              <LongitudeDegrees>-0.2335132844746112823486328125</LongitudeDegrees>
            </Position>
            <AltitudeMeters>1572.4000244140625</AltitudeMeters>
            <DistanceMeters>5643.4694368067</DistanceMeters>
          </Trackpoint>
          <Trackpoint>
            <Time>2021-07-17T10:33:46.000Z</Time>
            <Position>
              <LatitudeDegrees>42.71870520897209644317626953125</LatitudeDegrees>
              <LongitudeDegrees>-0.23351320065557956695556640625</LongitudeDegrees>
            </Position>
            <AltitudeMeters>1572.4000244140625</AltitudeMeters>
            <DistanceMeters>5643.4694368067</DistanceMeters>
          </Trackpoint>
          <Trackpoint>
            <Time>2021-07-17T10:33:49.000Z</Time>
            <Position>
              <LatitudeDegrees>42.7187052927911281585693359375</LatitudeDegrees>
              <LongitudeDegrees>-0.23351303301751613616943359375</LongitudeDegrees>
            </Position>
            <AltitudeMeters>1572.4000244140625</AltitudeMeters>
            <DistanceMeters>5643.4694368067</DistanceMeters>
          </Trackpoint>
          <Trackpoint>
            <Time>2021-07-17T10:34:11.000Z</Time>
            <Position>
              <LatitudeDegrees>42.71870571188628673553466796875</LatitudeDegrees>
              <LongitudeDegrees>-0.2335117757320404052734375</LongitudeDegrees>
            </Position>
            <AltitudeMeters>1572.4000244140625</AltitudeMeters>
            <DistanceMeters>5643.564463521</DistanceMeters>
          </Trackpoint>
          <Trackpoint>
            <Time>2021-07-17T10:34:34.000Z</Time>
            <Position>
              <LatitudeDegrees>42.71870621480047702789306640625</LatitudeDegrees>
              <LongitudeDegrees>-0.2335106022655963897705078125</LongitudeDegrees>
            </Position>
            <AltitudeMeters>1572.4000244140625</AltitudeMeters>
            <DistanceMeters>5643.6988515893</DistanceMeters>
          </Trackpoint>
          <Trackpoint>
            <Time>2021-07-17T10:34:38.000Z</Time>
            <Position>
              <LatitudeDegrees>42.7187062986195087432861328125</LatitudeDegrees>
              <LongitudeDegrees>-0.23351035080850124359130859375</LongitudeDegrees>
            </Position>
            <AltitudeMeters>1572.4000244140625</AltitudeMeters>
            <DistanceMeters>5643.6988515893</DistanceMeters>
          </Trackpoint>
          <Trackpoint>
            <Time>2021-07-17T10:35:09.000Z</Time>
            <Position>
              <LatitudeDegrees>42.71870680153369903564453125</LatitudeDegrees>
              <LongitudeDegrees>-0.2335090935230255126953125</LongitudeDegrees>
            </Position>
            <AltitudeMeters>1572.4000244140625</AltitudeMeters>
            <DistanceMeters>5643.8332396575</DistanceMeters>
          </Trackpoint>
          <Trackpoint>
            <Time>2021-07-17T10:35:21.000Z</Time>
            <Position>
              <LatitudeDegrees>42.7187069691717624664306640625</LatitudeDegrees>
              <LongitudeDegrees>-0.23350842297077178955078125</LongitudeDegrees>
            </Position>
            <AltitudeMeters>1572.4000244140625</AltitudeMeters>
            <DistanceMeters>5643.8332396575</DistanceMeters>
          </Trackpoint>
          <Trackpoint>
            <Time>2021-07-17T10:35:28.000Z</Time>
            <Position>
              <LatitudeDegrees>42.71870705299079418182373046875</LatitudeDegrees>
              <LongitudeDegrees>-0.23350800387561321258544921875</LongitudeDegrees>
            </Position>
            <AltitudeMeters>1572.4000244140625</AltitudeMeters>
            <DistanceMeters>5643.8332396575</DistanceMeters>
          </Trackpoint>
          <Trackpoint>
            <Time>2021-07-17T10:35:34.000Z</Time>
            <Position>
              <LatitudeDegrees>42.718707136809825897216796875</LatitudeDegrees>
              <LongitudeDegrees>-0.23350766859948635101318359375</LongitudeDegrees>
            </Position>
            <AltitudeMeters>1572.4000244140625</AltitudeMeters>
            <DistanceMeters>5643.8332396575</DistanceMeters>
          </Trackpoint>
          <Trackpoint>
            <Time>2021-07-17T10:35:35.000Z</Time>
            <Position>
              <LatitudeDegrees>42.718707136809825897216796875</LatitudeDegrees>
              <LongitudeDegrees>-0.2335075847804546356201171875</LongitudeDegrees>
            </Position>
            <AltitudeMeters>1572.4000244140625</AltitudeMeters>
            <DistanceMeters>5643.8332396575</DistanceMeters>
          </Trackpoint>
          <Trackpoint>
            <Time>2021-07-17T10:35:36.000Z</Time>
            <Position>
              <LatitudeDegrees>42.718707136809825897216796875</LatitudeDegrees>
              <LongitudeDegrees>-0.23350750096142292022705078125</LongitudeDegrees>
            </Position>
            <AltitudeMeters>1572.4000244140625</AltitudeMeters>
            <DistanceMeters>5643.8332396575</DistanceMeters>
          </Trackpoint>
          <Trackpoint>
            <Time>2021-07-17T10:36:45.000Z</Time>
            <Position>
              <LatitudeDegrees>42.71870805881917476654052734375</LatitudeDegrees>
              <LongitudeDegrees>-0.23350465111434459686279296875</LongitudeDegrees>
            </Position>
            <AltitudeMeters>1572.5999755859375</AltitudeMeters>
            <DistanceMeters>5644.0660066197</DistanceMeters>
          </Trackpoint>
          <Trackpoint>
            <Time>2021-07-17T10:36:49.000Z</Time>
            <Position>
              <LatitudeDegrees>42.7187083102762699127197265625</LatitudeDegrees>
              <LongitudeDegrees>-0.2335045672953128814697265625</LongitudeDegrees>
            </Position>
            <AltitudeMeters>1572.5999755859375</AltitudeMeters>
            <DistanceMeters>5644.0660066197</DistanceMeters>
          </Trackpoint>
          <Trackpoint>
            <Time>2021-07-17T10:37:00.000Z</Time>
            <Position>
              <LatitudeDegrees>42.7187089808285236358642578125</LatitudeDegrees>
              <LongitudeDegrees>-0.23350431583821773529052734375</LongitudeDegrees>
            </Position>
            <AltitudeMeters>1572.5999755859375</AltitudeMeters>
            <DistanceMeters>5644.0660066197</DistanceMeters>
          </Trackpoint>
          <Trackpoint>
            <Time>2021-07-17T10:37:03.000Z</Time>
            <Position>
              <LatitudeDegrees>42.71870923228561878204345703125</LatitudeDegrees>
              <LongitudeDegrees>-0.23350431583821773529052734375</LongitudeDegrees>
            </Position>
            <AltitudeMeters>1572.5999755859375</AltitudeMeters>
            <DistanceMeters>5644.0660066197</DistanceMeters>
          </Trackpoint>
          <Trackpoint>
            <Time>2021-07-17T10:37:06.000Z</Time>
            <Position>
              <LatitudeDegrees>42.71870939992368221282958984375</LatitudeDegrees>
              <LongitudeDegrees>-0.2335042320191860198974609375</LongitudeDegrees>
            </Position>
            <AltitudeMeters>1572.5999755859375</AltitudeMeters>
            <DistanceMeters>5644.0660066197</DistanceMeters>
          </Trackpoint>
          <Trackpoint>
            <Time>2021-07-17T10:37:19.000Z</Time>
            <Position>
              <LatitudeDegrees>42.71871007047593593597412109375</LatitudeDegrees>
              <LongitudeDegrees>-0.2335038967430591583251953125</LongitudeDegrees>
            </Position>
            <AltitudeMeters>1572.5999755859375</AltitudeMeters>
            <DistanceMeters>5644.2003946879</DistanceMeters>
          </Trackpoint>
          <Trackpoint>
            <Time>2021-07-17T10:37:35.000Z</Time>
            <Position>
              <LatitudeDegrees>42.71869833581149578094482421875</LatitudeDegrees>
              <LongitudeDegrees>-0.233483947813510894775390625</LongitudeDegrees>
            </Position>
            <AltitudeMeters>1573.199951171875</AltitudeMeters>
            <DistanceMeters>5646.2909824041</DistanceMeters>
          </Trackpoint>
          <Trackpoint>
            <Time>2021-07-17T10:37:39.000Z</Time>
            <Position>
              <LatitudeDegrees>42.7187074720859527587890625</LatitudeDegrees>
              <LongitudeDegrees>-0.23349526338279247283935546875</LongitudeDegrees>
            </Position>
            <AltitudeMeters>1572.800048828125</AltitudeMeters>
            <DistanceMeters>5647.668050323</DistanceMeters>
          </Trackpoint>
          <Trackpoint>
            <Time>2021-07-17T10:37:41.000Z</Time>
            <Position>
              <LatitudeDegrees>42.7187002636492252349853515625</LatitudeDegrees>
              <LongitudeDegrees>-0.2334814332425594329833984375</LongitudeDegrees>
            </Position>
            <AltitudeMeters>1573.199951171875</AltitudeMeters>
            <DistanceMeters>5649.051660169</DistanceMeters>
          </Trackpoint>
          <Trackpoint>
            <Time>2021-07-17T10:37:42.000Z</Time>
            <Position>
              <LatitudeDegrees>42.718701101839542388916015625</LatitudeDegrees>
              <LongitudeDegrees>-0.23347531445324420928955078125</LongitudeDegrees>
            </Position>
            <AltitudeMeters>1573.4000244140625</AltitudeMeters>
            <DistanceMeters>5649.5544942773</DistanceMeters>
          </Trackpoint>
          <Trackpoint>
            <Time>2021-07-17T10:37:54.000Z</Time>
            <Position>
              <LatitudeDegrees>42.71873068995773792266845703125</LatitudeDegrees>
              <LongitudeDegrees>-0.23351068608462810516357421875</LongitudeDegrees>
            </Position>
            <AltitudeMeters>1572.199951171875</AltitudeMeters>
            <DistanceMeters>5653.9360399543</DistanceMeters>
          </Trackpoint>
          <Trackpoint>
            <Time>2021-07-17T10:37:56.000Z</Time>
            <Position>
              <LatitudeDegrees>42.718714177608489990234375</LatitudeDegrees>
              <LongitudeDegrees>-0.2335072495043277740478515625</LongitudeDegrees>
            </Position>
            <AltitudeMeters>1572.4000244140625</AltitudeMeters>
            <DistanceMeters>5655.795749415</DistanceMeters>
          </Trackpoint>
          <Trackpoint>
            <Time>2021-07-17T10:38:07.000Z</Time>
            <Position>
              <LatitudeDegrees>42.718708813190460205078125</LatitudeDegrees>
              <LongitudeDegrees>-0.233523510396480560302734375</LongitudeDegrees>
            </Position>
            <AltitudeMeters>1572</AltitudeMeters>
            <DistanceMeters>5657.255577501</DistanceMeters>
          </Trackpoint>
          <Trackpoint>
            <Time>2021-07-17T10:38:14.000Z</Time>
            <Position>
              <LatitudeDegrees>42.718708813190460205078125</LatitudeDegrees>
              <LongitudeDegrees>-0.233523510396480560302734375</LongitudeDegrees>
            </Position>
            <AltitudeMeters>1572</AltitudeMeters>
            <DistanceMeters>5657.255577501</DistanceMeters>
          </Trackpoint>
          <Trackpoint>
            <Time>2021-07-17T10:38:19.000Z</Time>
            <Position>
              <LatitudeDegrees>42.718708813190460205078125</LatitudeDegrees>
              <LongitudeDegrees>-0.233523510396480560302734375</LongitudeDegrees>
            </Position>
            <AltitudeMeters>1572</AltitudeMeters>
            <DistanceMeters>5657.255577501</DistanceMeters>
          </Trackpoint>
          <Trackpoint>
            <Time>2021-07-17T10:38:21.000Z</Time>
            <Position>
              <LatitudeDegrees>42.71870814263820648193359375</LatitudeDegrees>
              <LongitudeDegrees>-0.233523510396480560302734375</LongitudeDegrees>
            </Position>
            <AltitudeMeters>1572</AltitudeMeters>
            <DistanceMeters>5657.3506042154</DistanceMeters>
          </Trackpoint>
          <Trackpoint>
            <Time>2021-07-17T10:38:45.000Z</Time>
            <Position>
              <LatitudeDegrees>42.71870688535273075103759765625</LatitudeDegrees>
              <LongitudeDegrees>-0.233522839844226837158203125</LongitudeDegrees>
            </Position>
            <AltitudeMeters>1572.199951171875</AltitudeMeters>
            <DistanceMeters>5657.5406576441</DistanceMeters>
          </Trackpoint>
          <Trackpoint>
            <Time>2021-07-17T10:39:01.000Z</Time>
            <Position>
              <LatitudeDegrees>42.7187093161046504974365234375</LatitudeDegrees>
              <LongitudeDegrees>-0.2335116080939769744873046875</LongitudeDegrees>
            </Position>
            <AltitudeMeters>1572.4000244140625</AltitudeMeters>
            <DistanceMeters>5658.4956643042</DistanceMeters>
          </Trackpoint>
          <Trackpoint>
            <Time>2021-07-17T10:39:20.000Z</Time>
            <Position>
              <LatitudeDegrees>42.71870923228561878204345703125</LatitudeDegrees>
              <LongitudeDegrees>-0.2335117757320404052734375</LongitudeDegrees>
            </Position>
            <AltitudeMeters>1572.4000244140625</AltitudeMeters>
            <DistanceMeters>5658.4956643042</DistanceMeters>
          </Trackpoint>
          <Trackpoint>
            <Time>2021-07-17T10:39:23.000Z</Time>
            <Position>
              <LatitudeDegrees>42.71870822645723819732666015625</LatitudeDegrees>
              <LongitudeDegrees>-0.2335109375417232513427734375</LongitudeDegrees>
            </Position>
            <AltitudeMeters>1572.4000244140625</AltitudeMeters>
            <DistanceMeters>5658.6300523725</DistanceMeters>
          </Trackpoint>
          <Trackpoint>
            <Time>2021-07-17T10:39:27.000Z</Time>
            <Position>
              <LatitudeDegrees>42.71870688535273075103759765625</LatitudeDegrees>
              <LongitudeDegrees>-0.23350800387561321258544921875</LongitudeDegrees>
            </Position>
            <AltitudeMeters>1572.4000244140625</AltitudeMeters>
            <DistanceMeters>5658.8988285089</DistanceMeters>
          </Trackpoint>
          <Trackpoint>
            <Time>2021-07-17T10:39:46.000Z</Time>
            <Position>
              <LatitudeDegrees>42.7186954021453857421875</LatitudeDegrees>
              <LongitudeDegrees>-0.23348629474639892578125</LongitudeDegrees>
            </Position>
            <AltitudeMeters>1573.199951171875</AltitudeMeters>
            <DistanceMeters>5661.0865077622</DistanceMeters>
          </Trackpoint>
          <Trackpoint>
            <Time>2021-07-17T10:39:52.000Z</Time>
            <Position>
              <LatitudeDegrees>42.71869280375540256500244140625</LatitudeDegrees>
              <LongitudeDegrees>-0.233479253947734832763671875</LongitudeDegrees>
            </Position>
            <AltitudeMeters>1573.4000244140625</AltitudeMeters>
            <DistanceMeters>5661.7310102963</DistanceMeters>
          </Trackpoint>
          <Trackpoint>
            <Time>2021-07-17T10:40:00.000Z</Time>
            <Position>
              <LatitudeDegrees>42.71869095973670482635498046875</LatitudeDegrees>
              <LongitudeDegrees>-0.23349040187895298004150390625</LongitudeDegrees>
            </Position>
            <AltitudeMeters>1573.199951171875</AltitudeMeters>
            <DistanceMeters>5662.6669148935</DistanceMeters>
          </Trackpoint>
          <Trackpoint>
            <Time>2021-07-17T10:40:04.000Z</Time>
            <Position>
              <LatitudeDegrees>42.71870101802051067352294921875</LatitudeDegrees>
              <LongitudeDegrees>-0.2334961853921413421630859375</LongitudeDegrees>
            </Position>
            <AltitudeMeters>1572.800048828125</AltitudeMeters>
            <DistanceMeters>5663.8838506095</DistanceMeters>
          </Trackpoint>
          <Trackpoint>
            <Time>2021-07-17T10:40:16.000Z</Time>
            <Position>
              <LatitudeDegrees>42.71869699470698833465576171875</LatitudeDegrees>
              <LongitudeDegrees>-0.23349392227828502655029296875</LongitudeDegrees>
            </Position>
            <AltitudeMeters>1573</AltitudeMeters>
            <DistanceMeters>5664.3683936804</DistanceMeters>
          </Trackpoint>
          <Trackpoint>
            <Time>2021-07-17T10:40:19.000Z</Time>
            <Position>
              <LatitudeDegrees>42.7186928875744342803955078125</LatitudeDegrees>
              <LongitudeDegrees>-0.23349040187895298004150390625</LongitudeDegrees>
            </Position>
            <AltitudeMeters>1573.199951171875</AltitudeMeters>
            <DistanceMeters>5664.9142805942</DistanceMeters>
          </Trackpoint>
          <Trackpoint>
            <Time>2021-07-17T10:40:25.000Z</Time>
            <Position>
              <LatitudeDegrees>42.71869003772735595703125</LatitudeDegrees>
              <LongitudeDegrees>-0.23348989896476268768310546875</LongitudeDegrees>
            </Position>
            <AltitudeMeters>1573.199951171875</AltitudeMeters>
            <DistanceMeters>5665.2294485508</DistanceMeters>
          </Trackpoint>
          <Trackpoint>
            <Time>2021-07-17T10:40:30.000Z</Time>
            <Position>
              <LatitudeDegrees>42.7186908759176731109619140625</LatitudeDegrees>
              <LongitudeDegrees>-0.23348973132669925689697265625</LongitudeDegrees>
            </Position>
            <AltitudeMeters>1573.199951171875</AltitudeMeters>
            <DistanceMeters>5665.3244752652</DistanceMeters>
          </Trackpoint>
          <Trackpoint>
            <Time>2021-07-17T10:40:39.000Z</Time>
            <Position>
              <LatitudeDegrees>42.71868961863219738006591796875</LatitudeDegrees>
              <LongitudeDegrees>-0.2334884740412235260009765625</LongitudeDegrees>
            </Position>
            <AltitudeMeters>1573.199951171875</AltitudeMeters>
            <DistanceMeters>5665.5145286939</DistanceMeters>
          </Trackpoint>
          <Trackpoint>
            <Time>2021-07-17T10:40:42.000Z</Time>
            <Position>
              <LatitudeDegrees>42.7186895348131656646728515625</LatitudeDegrees>
              <LongitudeDegrees>-0.23348939605057239532470703125</LongitudeDegrees>
            </Position>
            <AltitudeMeters>1573.199951171875</AltitudeMeters>
            <DistanceMeters>5665.6489167622</DistanceMeters>
          </Trackpoint>
          <Trackpoint>
            <Time>2021-07-17T10:41:02.000Z</Time>
            <Position>
              <LatitudeDegrees>42.71869741380214691162109375</LatitudeDegrees>
              <LongitudeDegrees>-0.2334958501160144805908203125</LongitudeDegrees>
            </Position>
            <AltitudeMeters>1573</AltitudeMeters>
            <DistanceMeters>5666.6723857981</DistanceMeters>
          </Trackpoint>
          <Trackpoint>
            <Time>2021-07-17T10:41:04.000Z</Time>
            <Position>
              <LatitudeDegrees>42.718697749078273773193359375</LatitudeDegrees>
              <LongitudeDegrees>-0.23349677212536334991455078125</LongitudeDegrees>
            </Position>
            <AltitudeMeters>1572.800048828125</AltitudeMeters>
            <DistanceMeters>5666.8067738663</DistanceMeters>
          </Trackpoint>
          <Trackpoint>
            <Time>2021-07-17T10:41:12.000Z</Time>
            <Position>
              <LatitudeDegrees>42.71870118565857410430908203125</LatitudeDegrees>
              <LongitudeDegrees>-0.23349895142018795013427734375</LongitudeDegrees>
            </Position>
            <AltitudeMeters>1572.800048828125</AltitudeMeters>
            <DistanceMeters>5667.2317462523</DistanceMeters>
          </Trackpoint>
          <Trackpoint>
            <Time>2021-07-17T10:41:33.000Z</Time>
            <Position>
              <LatitudeDegrees>42.71870437078177928924560546875</LatitudeDegrees>
              <LongitudeDegrees>-0.23349509574472904205322265625</LongitudeDegrees>
            </Position>
            <AltitudeMeters>1572.800048828125</AltitudeMeters>
            <DistanceMeters>5667.6972801766</DistanceMeters>
          </Trackpoint>
          <Trackpoint>
            <Time>2021-07-17T10:41:35.000Z</Time>
            <Position>
              <LatitudeDegrees>42.7187046222388744354248046875</LatitudeDegrees>
              <LongitudeDegrees>-0.23349492810666561126708984375</LongitudeDegrees>
            </Position>
            <AltitudeMeters>1572.800048828125</AltitudeMeters>
            <DistanceMeters>5667.6972801766</DistanceMeters>
          </Trackpoint>
          <Trackpoint>
            <Time>2021-07-17T10:41:41.000Z</Time>
            <Position>
              <LatitudeDegrees>42.71870571188628673553466796875</LatitudeDegrees>
              <LongitudeDegrees>-0.233494006097316741943359375</LongitudeDegrees>
            </Position>
            <AltitudeMeters>1572.800048828125</AltitudeMeters>
            <DistanceMeters>5667.8316682449</DistanceMeters>
          </Trackpoint>
          <Trackpoint>
            <Time>2021-07-17T10:41:50.000Z</Time>
            <Position>
              <LatitudeDegrees>42.7187083102762699127197265625</LatitudeDegrees>
              <LongitudeDegrees>-0.2334903180599212646484375</LongitudeDegrees>
            </Position>
            <AltitudeMeters>1573</AltitudeMeters>
            <DistanceMeters>5668.2566406309</DistanceMeters>
          </Trackpoint>
          <Trackpoint>
            <Time>2021-07-17T10:42:02.000Z</Time>
            <Position>
              <LatitudeDegrees>42.718710489571094512939453125</LatitudeDegrees>
              <LongitudeDegrees>-0.23348688147962093353271484375</LongitudeDegrees>
            </Position>
            <AltitudeMeters>1573</AltitudeMeters>
            <DistanceMeters>5668.6367474884</DistanceMeters>
          </Trackpoint>
          <Trackpoint>
            <Time>2021-07-17T10:42:09.000Z</Time>
            <Position>
              <LatitudeDegrees>42.71871090866625308990478515625</LatitudeDegrees>
              <LongitudeDegrees>-0.233486630022525787353515625</LongitudeDegrees>
            </Position>
            <AltitudeMeters>1573</AltitudeMeters>
            <DistanceMeters>5668.6367474884</DistanceMeters>
          </Trackpoint>
          <Trackpoint>
            <Time>2021-07-17T10:42:25.000Z</Time>
            <Position>
              <LatitudeDegrees>42.71870370022952556610107421875</LatitudeDegrees>
              <LongitudeDegrees>-0.23347866721451282501220703125</LongitudeDegrees>
            </Position>
            <AltitudeMeters>1573.4000244140625</AltitudeMeters>
            <DistanceMeters>5669.6777129889</DistanceMeters>
          </Trackpoint>
          <Trackpoint>
            <Time>2021-07-17T10:42:37.000Z</Time>
            <Position>
              <LatitudeDegrees>42.718696407973766326904296875</LatitudeDegrees>
              <LongitudeDegrees>-0.2334750629961490631103515625</LongitudeDegrees>
            </Position>
            <AltitudeMeters>1573.5999755859375</AltitudeMeters>
            <DistanceMeters>5670.5434475584</DistanceMeters>
          </Trackpoint>
          <Trackpoint>
            <Time>2021-07-17T10:42:45.000Z</Time>
            <Position>
              <LatitudeDegrees>42.7186935581266880035400390625</LatitudeDegrees>
              <LongitudeDegrees>-0.233473889529705047607421875</LongitudeDegrees>
            </Position>
            <AltitudeMeters>1573.5999755859375</AltitudeMeters>
            <DistanceMeters>5670.858615515</DistanceMeters>
          </Trackpoint>
          <Trackpoint>
            <Time>2021-07-17T10:43:00.000Z</Time>
            <Position>
              <LatitudeDegrees>42.71868827752768993377685546875</LatitudeDegrees>
              <LongitudeDegrees>-0.23348419927060604095458984375</LongitudeDegrees>
            </Position>
            <AltitudeMeters>1573.4000244140625</AltitudeMeters>
            <DistanceMeters>5671.882084551</DistanceMeters>
          </Trackpoint>
          <Trackpoint>
            <Time>2021-07-17T10:43:16.000Z</Time>
            <Position>
              <LatitudeDegrees>42.71868743933737277984619140625</LatitudeDegrees>
              <LongitudeDegrees>-0.23349828086793422698974609375</LongitudeDegrees>
            </Position>
            <AltitudeMeters>1573</AltitudeMeters>
            <DistanceMeters>5673.0381344261</DistanceMeters>
          </Trackpoint>
          <Trackpoint>
            <Time>2021-07-17T10:43:19.000Z</Time>
            <Position>
              <LatitudeDegrees>42.71868760697543621063232421875</LatitudeDegrees>
              <LongitudeDegrees>-0.2334995381534099578857421875</LongitudeDegrees>
            </Position>
            <AltitudeMeters>1573</AltitudeMeters>
            <DistanceMeters>5673.1725224943</DistanceMeters>
          </Trackpoint>
          <Trackpoint>
            <Time>2021-07-17T10:43:43.000Z</Time>
            <Position>
              <LatitudeDegrees>42.71868794225156307220458984375</LatitudeDegrees>
              <LongitudeDegrees>-0.23350096307694911956787109375</LongitudeDegrees>
            </Position>
            <AltitudeMeters>1572.800048828125</AltitudeMeters>
            <DistanceMeters>5673.3371135917</DistanceMeters>
          </Trackpoint>
          <Trackpoint>
            <Time>2021-07-17T10:43:44.000Z</Time>
            <Position>
              <LatitudeDegrees>42.71868794225156307220458984375</LatitudeDegrees>
              <LongitudeDegrees>-0.2335010468959808349609375</LongitudeDegrees>
            </Position>
            <AltitudeMeters>1572.800048828125</AltitudeMeters>
            <DistanceMeters>5673.3371135917</DistanceMeters>
          </Trackpoint>
          <Trackpoint>
            <Time>2021-07-17T10:43:46.000Z</Time>
            <Position>
              <LatitudeDegrees>42.71868794225156307220458984375</LatitudeDegrees>
              <LongitudeDegrees>-0.2335010468959808349609375</LongitudeDegrees>
            </Position>
            <AltitudeMeters>1572.800048828125</AltitudeMeters>
            <DistanceMeters>5673.3371135917</DistanceMeters>
          </Trackpoint>
          <Trackpoint>
            <Time>2021-07-17T10:44:10.000Z</Time>
            <Position>
              <LatitudeDegrees>42.718688361346721649169921875</LatitudeDegrees>
              <LongitudeDegrees>-0.23350163362920284271240234375</LongitudeDegrees>
            </Position>
            <AltitudeMeters>1572.800048828125</AltitudeMeters>
            <DistanceMeters>5673.3371135917</DistanceMeters>
          </Trackpoint>
          <Trackpoint>
            <Time>2021-07-17T10:44:27.000Z</Time>
            <Position>
              <LatitudeDegrees>42.71868878044188022613525390625</LatitudeDegrees>
              <LongitudeDegrees>-0.23350196890532970428466796875</LongitudeDegrees>
            </Position>
            <AltitudeMeters>1572.800048828125</AltitudeMeters>
            <DistanceMeters>5673.3371135917</DistanceMeters>
          </Trackpoint>
          <Trackpoint>
            <Time>2021-07-17T10:44:35.000Z</Time>
            <Position>
              <LatitudeDegrees>42.718689031898975372314453125</LatitudeDegrees>
              <LongitudeDegrees>-0.23350213654339313507080078125</LongitudeDegrees>
            </Position>
            <AltitudeMeters>1572.800048828125</AltitudeMeters>
            <DistanceMeters>5673.3371135917</DistanceMeters>
          </Trackpoint>
          <Trackpoint>
            <Time>2021-07-17T10:44:40.000Z</Time>
            <Position>
              <LatitudeDegrees>42.71868911571800708770751953125</LatitudeDegrees>
              <LongitudeDegrees>-0.23350213654339313507080078125</LongitudeDegrees>
            </Position>
            <AltitudeMeters>1572.800048828125</AltitudeMeters>
            <DistanceMeters>5673.3371135917</DistanceMeters>
          </Trackpoint>
          <Trackpoint>
            <Time>2021-07-17T10:44:47.000Z</Time>
            <Position>
              <LatitudeDegrees>42.71868936717510223388671875</LatitudeDegrees>
              <LongitudeDegrees>-0.2335022203624248504638671875</LongitudeDegrees>
            </Position>
            <AltitudeMeters>1572.800048828125</AltitudeMeters>
            <DistanceMeters>5673.3371135917</DistanceMeters>
          </Trackpoint>
          <Trackpoint>
            <Time>2021-07-17T10:44:56.000Z</Time>
            <Position>
              <LatitudeDegrees>42.71868961863219738006591796875</LatitudeDegrees>
              <LongitudeDegrees>-0.2335022203624248504638671875</LongitudeDegrees>
            </Position>
            <AltitudeMeters>1572.800048828125</AltitudeMeters>
            <DistanceMeters>5673.3371135917</DistanceMeters>
          </Trackpoint>
          <Trackpoint>
            <Time>2021-07-17T10:45:14.000Z</Time>
            <Position>
              <LatitudeDegrees>42.718690373003482818603515625</LatitudeDegrees>
              <LongitudeDegrees>-0.23350238800048828125</LongitudeDegrees>
            </Position>
            <AltitudeMeters>1572.800048828125</AltitudeMeters>
            <DistanceMeters>5673.432140306</DistanceMeters>
          </Trackpoint>
          <Trackpoint>
            <Time>2021-07-17T10:45:24.000Z</Time>
            <Position>
              <LatitudeDegrees>42.7186908759176731109619140625</LatitudeDegrees>
              <LongitudeDegrees>-0.2335025556385517120361328125</LongitudeDegrees>
            </Position>
            <AltitudeMeters>1572.800048828125</AltitudeMeters>
            <DistanceMeters>5673.432140306</DistanceMeters>
          </Trackpoint>
          <Trackpoint>
            <Time>2021-07-17T10:45:38.000Z</Time>
            <Position>
              <LatitudeDegrees>42.7186915464699268341064453125</LatitudeDegrees>
              <LongitudeDegrees>-0.233502723276615142822265625</LongitudeDegrees>
            </Position>
            <AltitudeMeters>1572.800048828125</AltitudeMeters>
            <DistanceMeters>5673.5271670204</DistanceMeters>
          </Trackpoint>
          <Trackpoint>
            <Time>2021-07-17T10:45:40.000Z</Time>
            <Position>
              <LatitudeDegrees>42.71869163028895854949951171875</LatitudeDegrees>
              <LongitudeDegrees>-0.233502723276615142822265625</LongitudeDegrees>
            </Position>
            <AltitudeMeters>1572.800048828125</AltitudeMeters>
            <DistanceMeters>5673.5271670204</DistanceMeters>
          </Trackpoint>
          <Trackpoint>
            <Time>2021-07-17T10:45:44.000Z</Time>
            <Position>
              <LatitudeDegrees>42.71869179792702198028564453125</LatitudeDegrees>
              <LongitudeDegrees>-0.233502723276615142822265625</LongitudeDegrees>
            </Position>
            <AltitudeMeters>1572.800048828125</AltitudeMeters>
            <DistanceMeters>5673.5271670204</DistanceMeters>
          </Trackpoint>
          <Trackpoint>
            <Time>2021-07-17T10:45:46.000Z</Time>
            <Position>
              <LatitudeDegrees>42.7186918817460536956787109375</LatitudeDegrees>
              <LongitudeDegrees>-0.233502723276615142822265625</LongitudeDegrees>
            </Position>
            <AltitudeMeters>1572.800048828125</AltitudeMeters>
            <DistanceMeters>5673.5271670204</DistanceMeters>
          </Trackpoint>
          <Trackpoint>
            <Time>2021-07-17T10:45:59.000Z</Time>
            <Position>
              <LatitudeDegrees>42.71869213320314884185791015625</LatitudeDegrees>
              <LongitudeDegrees>-0.2335025556385517120361328125</LongitudeDegrees>
            </Position>
            <AltitudeMeters>1572.800048828125</AltitudeMeters>
            <DistanceMeters>5673.5271670204</DistanceMeters>
          </Trackpoint>
          <Trackpoint>
            <Time>2021-07-17T10:46:01.000Z</Time>
            <Position>
              <LatitudeDegrees>42.7186922170221805572509765625</LatitudeDegrees>
              <LongitudeDegrees>-0.2335025556385517120361328125</LongitudeDegrees>
            </Position>
            <AltitudeMeters>1572.800048828125</AltitudeMeters>
            <DistanceMeters>5673.5271670204</DistanceMeters>
          </Trackpoint>
          <Trackpoint>
            <Time>2021-07-17T10:46:08.000Z</Time>
            <Position>
              <LatitudeDegrees>42.718692384660243988037109375</LatitudeDegrees>
              <LongitudeDegrees>-0.23350247181951999664306640625</LongitudeDegrees>
            </Position>
            <AltitudeMeters>1572.800048828125</AltitudeMeters>
            <DistanceMeters>5673.6221937348</DistanceMeters>
          </Trackpoint>
          <Trackpoint>
            <Time>2021-07-17T10:46:09.000Z</Time>
            <Position>
              <LatitudeDegrees>42.718692384660243988037109375</LatitudeDegrees>
              <LongitudeDegrees>-0.23350247181951999664306640625</LongitudeDegrees>
            </Position>
            <AltitudeMeters>1572.800048828125</AltitudeMeters>
            <DistanceMeters>5673.6221937348</DistanceMeters>
          </Trackpoint>
          <Trackpoint>
            <Time>2021-07-17T10:46:22.000Z</Time>
            <Position>
              <LatitudeDegrees>42.718692719936370849609375</LatitudeDegrees>
              <LongitudeDegrees>-0.2335022203624248504638671875</LongitudeDegrees>
            </Position>
            <AltitudeMeters>1572.800048828125</AltitudeMeters>
            <DistanceMeters>5673.6221937348</DistanceMeters>
          </Trackpoint>
          <Trackpoint>
            <Time>2021-07-17T10:47:35.000Z</Time>
            <Position>
              <LatitudeDegrees>42.718695737421512603759765625</LatitudeDegrees>
              <LongitudeDegrees>-0.233502052724361419677734375</LongitudeDegrees>
            </Position>
            <AltitudeMeters>1572.800048828125</AltitudeMeters>
            <DistanceMeters>5673.964817426</DistanceMeters>
          </Trackpoint>
          <Trackpoint>
            <Time>2021-07-17T10:47:37.000Z</Time>
            <Position>
              <LatitudeDegrees>42.71869582124054431915283203125</LatitudeDegrees>
              <LongitudeDegrees>-0.233502052724361419677734375</LongitudeDegrees>
            </Position>
            <AltitudeMeters>1572.800048828125</AltitudeMeters>
            <DistanceMeters>5673.964817426</DistanceMeters>
          </Trackpoint>
          <Trackpoint>
            <Time>2021-07-17T10:47:49.000Z</Time>
            <Position>
              <LatitudeDegrees>42.71869607269763946533203125</LatitudeDegrees>
              <LongitudeDegrees>-0.23350196890532970428466796875</LongitudeDegrees>
            </Position>
            <AltitudeMeters>1572.800048828125</AltitudeMeters>
            <DistanceMeters>5674.0598441403</DistanceMeters>
          </Trackpoint>
          <Trackpoint>
            <Time>2021-07-17T10:47:54.000Z</Time>
            <Position>
              <LatitudeDegrees>42.7186962403357028961181640625</LatitudeDegrees>
              <LongitudeDegrees>-0.23350196890532970428466796875</LongitudeDegrees>
            </Position>
            <AltitudeMeters>1572.800048828125</AltitudeMeters>
            <DistanceMeters>5674.0598441403</DistanceMeters>
          </Trackpoint>
          <Trackpoint>
            <Time>2021-07-17T10:48:05.000Z</Time>
            <Position>
              <LatitudeDegrees>42.71869649179279804229736328125</LatitudeDegrees>
              <LongitudeDegrees>-0.233502052724361419677734375</LongitudeDegrees>
            </Position>
            <AltitudeMeters>1572.800048828125</AltitudeMeters>
            <DistanceMeters>5674.0598441403</DistanceMeters>
          </Trackpoint>
          <Trackpoint>
            <Time>2021-07-17T10:48:20.000Z</Time>
            <Position>
              <LatitudeDegrees>42.7186969108879566192626953125</LatitudeDegrees>
              <LongitudeDegrees>-0.23350213654339313507080078125</LongitudeDegrees>
            </Position>
            <AltitudeMeters>1572.800048828125</AltitudeMeters>
            <DistanceMeters>5674.0598441403</DistanceMeters>
          </Trackpoint>
          <Trackpoint>
            <Time>2021-07-17T10:48:26.000Z</Time>
            <Position>
              <LatitudeDegrees>42.718697078526020050048828125</LatitudeDegrees>
              <LongitudeDegrees>-0.2335022203624248504638671875</LongitudeDegrees>
            </Position>
            <AltitudeMeters>1572.800048828125</AltitudeMeters>
            <DistanceMeters>5674.0598441403</DistanceMeters>
          </Trackpoint>
          <Trackpoint>
            <Time>2021-07-17T10:48:33.000Z</Time>
            <Position>
              <LatitudeDegrees>42.7186972461640834808349609375</LatitudeDegrees>
              <LongitudeDegrees>-0.2335022203624248504638671875</LongitudeDegrees>
            </Position>
            <AltitudeMeters>1572.800048828125</AltitudeMeters>
            <DistanceMeters>5674.0598441403</DistanceMeters>
          </Trackpoint>
          <Trackpoint>
            <Time>2021-07-17T10:48:49.000Z</Time>
            <Position>
              <LatitudeDegrees>42.718697749078273773193359375</LatitudeDegrees>
              <LongitudeDegrees>-0.23350196890532970428466796875</LongitudeDegrees>
            </Position>
            <AltitudeMeters>1572.800048828125</AltitudeMeters>
            <DistanceMeters>5674.0598441403</DistanceMeters>
          </Trackpoint>
          <Trackpoint>
            <Time>2021-07-17T10:49:05.000Z</Time>
            <Position>
              <LatitudeDegrees>42.71869783289730548858642578125</LatitudeDegrees>
              <LongitudeDegrees>-0.23350171744823455810546875</LongitudeDegrees>
            </Position>
            <AltitudeMeters>1572.800048828125</AltitudeMeters>
            <DistanceMeters>5674.0598441403</DistanceMeters>
          </Trackpoint>
          <Trackpoint>
            <Time>2021-07-17T10:49:16.000Z</Time>
            <Position>
              <LatitudeDegrees>42.71869783289730548858642578125</LatitudeDegrees>
              <LongitudeDegrees>-0.2335015498101711273193359375</LongitudeDegrees>
            </Position>
            <AltitudeMeters>1572.800048828125</AltitudeMeters>
            <DistanceMeters>5674.1942322086</DistanceMeters>
          </Trackpoint>
          <Trackpoint>
            <Time>2021-07-17T10:49:21.000Z</Time>
            <Position>
              <LatitudeDegrees>42.7186979167163372039794921875</LatitudeDegrees>
              <LongitudeDegrees>-0.23350146599113941192626953125</LongitudeDegrees>
            </Position>
            <AltitudeMeters>1572.800048828125</AltitudeMeters>
            <DistanceMeters>5674.1942322086</DistanceMeters>
          </Trackpoint>
          <Trackpoint>
            <Time>2021-07-17T10:49:40.000Z</Time>
            <Position>
              <LatitudeDegrees>42.71869800053536891937255859375</LatitudeDegrees>
              <LongitudeDegrees>-0.2335008792579174041748046875</LongitudeDegrees>
            </Position>
            <AltitudeMeters>1572.800048828125</AltitudeMeters>
            <DistanceMeters>5674.1942322086</DistanceMeters>
          </Trackpoint>
          <Trackpoint>
            <Time>2021-07-17T10:49:51.000Z</Time>
            <Position>
              <LatitudeDegrees>42.71869783289730548858642578125</LatitudeDegrees>
              <LongitudeDegrees>-0.23350037634372711181640625</LongitudeDegrees>
            </Position>
            <AltitudeMeters>1572.800048828125</AltitudeMeters>
            <DistanceMeters>5674.1942322086</DistanceMeters>
          </Trackpoint>
          <Trackpoint>
            <Time>2021-07-17T10:49:52.000Z</Time>
            <Position>
              <LatitudeDegrees>42.7186995930969715118408203125</LatitudeDegrees>
              <LongitudeDegrees>-0.233499370515346527099609375</LongitudeDegrees>
            </Position>
            <AltitudeMeters>1572.800048828125</AltitudeMeters>
            <DistanceMeters>5674.4269991707</DistanceMeters>
          </Trackpoint>
          <Trackpoint>
            <Time>2021-07-17T10:49:57.000Z</Time>
            <Position>
              <LatitudeDegrees>42.71872214041650295257568359375</LatitudeDegrees>
              <LongitudeDegrees>-0.23348939605057239532470703125</LongitudeDegrees>
            </Position>
            <AltitudeMeters>1572.800048828125</AltitudeMeters>
            <DistanceMeters>5677.0638834803</DistanceMeters>
          </Trackpoint>
          <Trackpoint>
            <Time>2021-07-17T10:50:01.000Z</Time>
            <Position>
              <LatitudeDegrees>42.718729935586452484130859375</LatitudeDegrees>
              <LongitudeDegrees>-0.23348269052803516387939453125</LongitudeDegrees>
            </Position>
            <AltitudeMeters>1573</AltitudeMeters>
            <DistanceMeters>5678.0873525162</DistanceMeters>
          </Trackpoint>
          <Trackpoint>
            <Time>2021-07-17T10:50:06.000Z</Time>
            <Position>
              <LatitudeDegrees>42.71872197277843952178955078125</LatitudeDegrees>
              <LongitudeDegrees>-0.23347950540482997894287109375</LongitudeDegrees>
            </Position>
            <AltitudeMeters>1573.199951171875</AltitudeMeters>
            <DistanceMeters>5679.0184203648</DistanceMeters>
          </Trackpoint>
          <Trackpoint>
            <Time>2021-07-17T10:50:07.000Z</Time>
            <Position>
              <LatitudeDegrees>42.71872079931199550628662109375</LatitudeDegrees>
              <LongitudeDegrees>-0.23348051123321056365966796875</LongitudeDegrees>
            </Position>
            <AltitudeMeters>1573.199951171875</AltitudeMeters>
            <DistanceMeters>5679.2084737935</DistanceMeters>
          </Trackpoint>
          <Trackpoint>
            <Time>2021-07-17T10:50:15.000Z</Time>
            <Position>
              <LatitudeDegrees>42.71870822645723819732666015625</LatitudeDegrees>
              <LongitudeDegrees>-0.23348939605057239532470703125</LongitudeDegrees>
            </Position>
            <AltitudeMeters>1573</AltitudeMeters>
            <DistanceMeters>5680.7871761399</DistanceMeters>
          </Trackpoint>
          <Trackpoint>
            <Time>2021-07-17T10:50:29.000Z</Time>
            <Position>
              <LatitudeDegrees>42.71870722062885761260986328125</LatitudeDegrees>
              <LongitudeDegrees>-0.23348964750766754150390625</LongitudeDegrees>
            </Position>
            <AltitudeMeters>1573</AltitudeMeters>
            <DistanceMeters>5680.9215642081</DistanceMeters>
          </Trackpoint>
          <Trackpoint>
            <Time>2021-07-17T10:50:35.000Z</Time>
            <Position>
              <LatitudeDegrees>42.7187059633433818817138671875</LatitudeDegrees>
              <LongitudeDegrees>-0.23348118178546428680419921875</LongitudeDegrees>
            </Position>
            <AltitudeMeters>1573.199951171875</AltitudeMeters>
            <DistanceMeters>5681.6326790237</DistanceMeters>
          </Trackpoint>
          <Trackpoint>
            <Time>2021-07-17T10:50:42.000Z</Time>
            <Position>
              <LatitudeDegrees>42.71870655007660388946533203125</LatitudeDegrees>
              <LongitudeDegrees>-0.23347430862486362457275390625</LongitudeDegrees>
            </Position>
            <AltitudeMeters>1573.4000244140625</AltitudeMeters>
            <DistanceMeters>5682.2028393099</DistanceMeters>
          </Trackpoint>
          <Trackpoint>
            <Time>2021-07-17T10:50:51.000Z</Time>
            <Position>
              <LatitudeDegrees>42.718707807362079620361328125</LatitudeDegrees>
              <LongitudeDegrees>-0.2334713749587535858154296875</LongitudeDegrees>
            </Position>
            <AltitudeMeters>1573.5999755859375</AltitudeMeters>
            <DistanceMeters>5682.4716154464</DistanceMeters>
          </Trackpoint>
          <Trackpoint>
            <Time>2021-07-17T10:50:53.000Z</Time>
            <Position>
              <LatitudeDegrees>42.71870814263820648193359375</LatitudeDegrees>
              <LongitudeDegrees>-0.2334713749587535858154296875</LongitudeDegrees>
            </Position>
            <AltitudeMeters>1573.5999755859375</AltitudeMeters>
            <DistanceMeters>5682.4716154464</DistanceMeters>
          </Trackpoint>
          <Trackpoint>
            <Time>2021-07-17T10:50:58.000Z</Time>
            <Position>
              <LatitudeDegrees>42.71870814263820648193359375</LatitudeDegrees>
              <LongitudeDegrees>-0.2334713749587535858154296875</LongitudeDegrees>
            </Position>
            <AltitudeMeters>1573.5999755859375</AltitudeMeters>
            <DistanceMeters>5682.4716154464</DistanceMeters>
          </Trackpoint>
          <Trackpoint>
            <Time>2021-07-17T10:51:01.000Z</Time>
            <Position>
              <LatitudeDegrees>42.71870814263820648193359375</LatitudeDegrees>
              <LongitudeDegrees>-0.2334723807871341705322265625</LongitudeDegrees>
            </Position>
            <AltitudeMeters>1573.4000244140625</AltitudeMeters>
            <DistanceMeters>5682.6060035146</DistanceMeters>
          </Trackpoint>
          <Trackpoint>
            <Time>2021-07-17T10:51:07.000Z</Time>
            <Position>
              <LatitudeDegrees>42.7187073044478893280029296875</LatitudeDegrees>
              <LongitudeDegrees>-0.23347347043454647064208984375</LongitudeDegrees>
            </Position>
            <AltitudeMeters>1573.4000244140625</AltitudeMeters>
            <DistanceMeters>5682.7403915829</DistanceMeters>
          </Trackpoint>
          <Trackpoint>
            <Time>2021-07-17T10:51:09.000Z</Time>
            <Position>
              <LatitudeDegrees>42.7187069691717624664306640625</LatitudeDegrees>
              <LongitudeDegrees>-0.23347380571067333221435546875</LongitudeDegrees>
            </Position>
            <AltitudeMeters>1573.4000244140625</AltitudeMeters>
            <DistanceMeters>5682.7403915829</DistanceMeters>
          </Trackpoint>
          <Trackpoint>
            <Time>2021-07-17T10:51:14.000Z</Time>
            <Position>
              <LatitudeDegrees>42.71870671771466732025146484375</LatitudeDegrees>
              <LongitudeDegrees>-0.23347464390099048614501953125</LongitudeDegrees>
            </Position>
            <AltitudeMeters>1573.4000244140625</AltitudeMeters>
            <DistanceMeters>5682.8354182973</DistanceMeters>
          </Trackpoint>
          <Trackpoint>
            <Time>2021-07-17T10:51:17.000Z</Time>
            <Position>
              <LatitudeDegrees>42.7187062986195087432861328125</LatitudeDegrees>
              <LongitudeDegrees>-0.233475230634212493896484375</LongitudeDegrees>
            </Position>
            <AltitudeMeters>1573.4000244140625</AltitudeMeters>
            <DistanceMeters>5682.9304450116</DistanceMeters>
          </Trackpoint>
          <Trackpoint>
            <Time>2021-07-17T10:51:22.000Z</Time>
            <Position>
              <LatitudeDegrees>42.718705795705318450927734375</LatitudeDegrees>
              <LongitudeDegrees>-0.2334774099290370941162109375</LongitudeDegrees>
            </Position>
            <AltitudeMeters>1573.4000244140625</AltitudeMeters>
            <DistanceMeters>5683.1204984404</DistanceMeters>
          </Trackpoint>
          <Trackpoint>
            <Time>2021-07-17T10:51:24.000Z</Time>
            <Position>
              <LatitudeDegrees>42.71870571188628673553466796875</LatitudeDegrees>
              <LongitudeDegrees>-0.233478583395481109619140625</LongitudeDegrees>
            </Position>
            <AltitudeMeters>1573.4000244140625</AltitudeMeters>
            <DistanceMeters>5683.2155251547</DistanceMeters>
          </Trackpoint>
          <Trackpoint>
            <Time>2021-07-17T10:51:29.000Z</Time>
            <Position>
              <LatitudeDegrees>42.71870587952435016632080078125</LatitudeDegrees>
              <LongitudeDegrees>-0.233480595052242279052734375</LongitudeDegrees>
            </Position>
            <AltitudeMeters>1573.199951171875</AltitudeMeters>
            <DistanceMeters>5683.4055785835</DistanceMeters>
          </Trackpoint>
          <Trackpoint>
            <Time>2021-07-17T10:51:40.000Z</Time>
            <Position>
              <LatitudeDegrees>42.7187089808285236358642578125</LatitudeDegrees>
              <LongitudeDegrees>-0.23349157534539699554443359375</LongitudeDegrees>
            </Position>
            <AltitudeMeters>1573</AltitudeMeters>
            <DistanceMeters>5684.3653013545</DistanceMeters>
          </Trackpoint>
          <Trackpoint>
            <Time>2021-07-17T10:51:41.000Z</Time>
            <Position>
              <LatitudeDegrees>42.71870923228561878204345703125</LatitudeDegrees>
              <LongitudeDegrees>-0.23349325172603130340576171875</LongitudeDegrees>
            </Position>
            <AltitudeMeters>1572.800048828125</AltitudeMeters>
            <DistanceMeters>5684.4996894228</DistanceMeters>
          </Trackpoint>
          <Trackpoint>
            <Time>2021-07-17T10:51:44.000Z</Time>
            <Position>
              <LatitudeDegrees>42.71871057339012622833251953125</LatitudeDegrees>
              <LongitudeDegrees>-0.2334985323250293731689453125</LongitudeDegrees>
            </Position>
            <AltitudeMeters>1572.5999755859375</AltitudeMeters>
            <DistanceMeters>5684.9554215351</DistanceMeters>
          </Trackpoint>
          <Trackpoint>
            <Time>2021-07-17T10:51:59.000Z</Time>
            <Position>
              <LatitudeDegrees>42.71871359087526798248291015625</LatitudeDegrees>
              <LongitudeDegrees>-0.2335008792579174041748046875</LongitudeDegrees>
            </Position>
            <AltitudeMeters>1572.5999755859375</AltitudeMeters>
            <DistanceMeters>5685.3355283926</DistanceMeters>
          </Trackpoint>
          <Trackpoint>
            <Time>2021-07-17T10:52:02.000Z</Time>
            <Position>
              <LatitudeDegrees>42.7187133394181728363037109375</LatitudeDegrees>
              <LongitudeDegrees>-0.2335008792579174041748046875</LongitudeDegrees>
            </Position>
            <AltitudeMeters>1572.5999755859375</AltitudeMeters>
            <DistanceMeters>5685.3355283926</DistanceMeters>
          </Trackpoint>
          <Trackpoint>
            <Time>2021-07-17T10:52:06.000Z</Time>
            <Position>
              <LatitudeDegrees>42.7187126688659191131591796875</LatitudeDegrees>
              <LongitudeDegrees>-0.2335005439817905426025390625</LongitudeDegrees>
            </Position>
            <AltitudeMeters>1572.5999755859375</AltitudeMeters>
            <DistanceMeters>5685.430555107</DistanceMeters>
          </Trackpoint>
          <Trackpoint>
            <Time>2021-07-17T10:52:19.000Z</Time>
            <Position>
              <LatitudeDegrees>42.71870948374271392822265625</LatitudeDegrees>
              <LongitudeDegrees>-0.23349928669631481170654296875</LongitudeDegrees>
            </Position>
            <AltitudeMeters>1572.5999755859375</AltitudeMeters>
            <DistanceMeters>5685.8106619644</DistanceMeters>
          </Trackpoint>
          <Trackpoint>
            <Time>2021-07-17T10:52:30.000Z</Time>
            <Position>
              <LatitudeDegrees>42.71870152093470096588134765625</LatitudeDegrees>
              <LongitudeDegrees>-0.233498699963092803955078125</LongitudeDegrees>
            </Position>
            <AltitudeMeters>1572.800048828125</AltitudeMeters>
            <DistanceMeters>5686.7020915618</DistanceMeters>
          </Trackpoint>
          <Trackpoint>
            <Time>2021-07-17T10:52:40.000Z</Time>
            <Position>
              <LatitudeDegrees>42.7186975814402103424072265625</LatitudeDegrees>
              <LongitudeDegrees>-0.23349978961050510406494140625</LongitudeDegrees>
            </Position>
            <AltitudeMeters>1572.800048828125</AltitudeMeters>
            <DistanceMeters>5687.1578236741</DistanceMeters>
          </Trackpoint>
          <Trackpoint>
            <Time>2021-07-17T10:52:43.000Z</Time>
            <Position>
              <LatitudeDegrees>42.71869749762117862701416015625</LatitudeDegrees>
              <LongitudeDegrees>-0.23350196890532970428466796875</LongitudeDegrees>
            </Position>
            <AltitudeMeters>1572.800048828125</AltitudeMeters>
            <DistanceMeters>5687.3478771029</DistanceMeters>
          </Trackpoint>
          <Trackpoint>
            <Time>2021-07-17T10:52:48.000Z</Time>
            <Position>
              <LatitudeDegrees>42.71869950927793979644775390625</LatitudeDegrees>
              <LongitudeDegrees>-0.2335082553327083587646484375</LongitudeDegrees>
            </Position>
            <AltitudeMeters>1572.5999755859375</AltitudeMeters>
            <DistanceMeters>5687.9019733031</DistanceMeters>
          </Trackpoint>
          <Trackpoint>
            <Time>2021-07-17T10:53:10.000Z</Time>
            <Position>
              <LatitudeDegrees>42.71871350705623626708984375</LatitudeDegrees>
              <LongitudeDegrees>-0.2335209958255290985107421875</LongitudeDegrees>
            </Position>
            <AltitudeMeters>1572.199951171875</AltitudeMeters>
            <DistanceMeters>5689.7786005472</DistanceMeters>
          </Trackpoint>
          <Trackpoint>
            <Time>2021-07-17T10:53:19.000Z</Time>
            <Position>
              <LatitudeDegrees>42.718708813190460205078125</LatitudeDegrees>
              <LongitudeDegrees>-0.23351890034973621368408203125</LongitudeDegrees>
            </Position>
            <AltitudeMeters>1572.199951171875</AltitudeMeters>
            <DistanceMeters>5690.3161528202</DistanceMeters>
          </Trackpoint>
          <Trackpoint>
            <Time>2021-07-17T10:53:26.000Z</Time>
            <Position>
              <LatitudeDegrees>42.71870411932468414306640625</LatitudeDegrees>
              <LongitudeDegrees>-0.2335156314074993133544921875</LongitudeDegrees>
            </Position>
            <AltitudeMeters>1572.4000244140625</AltitudeMeters>
            <DistanceMeters>5690.9019368289</DistanceMeters>
          </Trackpoint>
          <Trackpoint>
            <Time>2021-07-17T10:53:31.000Z</Time>
            <Position>
              <LatitudeDegrees>42.71870219148695468902587890625</LatitudeDegrees>
              <LongitudeDegrees>-0.2335116080939769744873046875</LongitudeDegrees>
            </Position>
            <AltitudeMeters>1572.4000244140625</AltitudeMeters>
            <DistanceMeters>5691.3051010336</DistanceMeters>
          </Trackpoint>
          <Trackpoint>
            <Time>2021-07-17T10:53:34.000Z</Time>
            <Position>
              <LatitudeDegrees>42.71870143711566925048828125</LatitudeDegrees>
              <LongitudeDegrees>-0.2335099317133426666259765625</LongitudeDegrees>
            </Position>
            <AltitudeMeters>1572.4000244140625</AltitudeMeters>
            <DistanceMeters>5691.469692131</DistanceMeters>
          </Trackpoint>
          <Trackpoint>
            <Time>2021-07-17T10:53:35.000Z</Time>
            <Position>
              <LatitudeDegrees>42.71870135329663753509521484375</LatitudeDegrees>
              <LongitudeDegrees>-0.23350951261818408966064453125</LongitudeDegrees>
            </Position>
            <AltitudeMeters>1572.4000244140625</AltitudeMeters>
            <DistanceMeters>5691.469692131</DistanceMeters>
          </Trackpoint>
          <Trackpoint>
            <Time>2021-07-17T10:53:37.000Z</Time>
            <Position>
              <LatitudeDegrees>42.71870118565857410430908203125</LatitudeDegrees>
              <LongitudeDegrees>-0.2335090935230255126953125</LongitudeDegrees>
            </Position>
            <AltitudeMeters>1572.4000244140625</AltitudeMeters>
            <DistanceMeters>5691.469692131</DistanceMeters>
          </Trackpoint>
          <Trackpoint>
            <Time>2021-07-17T10:53:39.000Z</Time>
            <Position>
              <LatitudeDegrees>42.718701101839542388916015625</LatitudeDegrees>
              <LongitudeDegrees>-0.2335090935230255126953125</LongitudeDegrees>
            </Position>
            <AltitudeMeters>1572.4000244140625</AltitudeMeters>
            <DistanceMeters>5691.469692131</DistanceMeters>
          </Trackpoint>
          <Trackpoint>
            <Time>2021-07-17T10:53:42.000Z</Time>
            <Position>
              <LatitudeDegrees>42.718701101839542388916015625</LatitudeDegrees>
              <LongitudeDegrees>-0.2335089258849620819091796875</LongitudeDegrees>
            </Position>
            <AltitudeMeters>1572.4000244140625</AltitudeMeters>
            <DistanceMeters>5691.469692131</DistanceMeters>
          </Trackpoint>
          <Trackpoint>
            <Time>2021-07-17T10:53:45.000Z</Time>
            <Position>
              <LatitudeDegrees>42.71870101802051067352294921875</LatitudeDegrees>
              <LongitudeDegrees>-0.23350884206593036651611328125</LongitudeDegrees>
            </Position>
            <AltitudeMeters>1572.5999755859375</AltitudeMeters>
            <DistanceMeters>5691.469692131</DistanceMeters>
          </Trackpoint>
          <Trackpoint>
            <Time>2021-07-17T10:53:56.000Z</Time>
            <Position>
              <LatitudeDegrees>42.71870076656341552734375</LatitudeDegrees>
              <LongitudeDegrees>-0.23350842297077178955078125</LongitudeDegrees>
            </Position>
            <AltitudeMeters>1572.5999755859375</AltitudeMeters>
            <DistanceMeters>5691.469692131</DistanceMeters>
          </Trackpoint>
          <Trackpoint>
            <Time>2021-07-17T10:54:00.000Z</Time>
            <Position>
              <LatitudeDegrees>42.71870068274438381195068359375</LatitudeDegrees>
              <LongitudeDegrees>-0.23350833915174007415771484375</LongitudeDegrees>
            </Position>
            <AltitudeMeters>1572.5999755859375</AltitudeMeters>
            <DistanceMeters>5691.469692131</DistanceMeters>
          </Trackpoint>
          <Trackpoint>
            <Time>2021-07-17T10:54:13.000Z</Time>
            <Position>
              <LatitudeDegrees>42.71870034746825695037841796875</LatitudeDegrees>
              <LongitudeDegrees>-0.233508087694644927978515625</LongitudeDegrees>
            </Position>
            <AltitudeMeters>1572.5999755859375</AltitudeMeters>
            <DistanceMeters>5691.469692131</DistanceMeters>
          </Trackpoint>
          <Trackpoint>
            <Time>2021-07-17T10:54:16.000Z</Time>
            <Position>
              <LatitudeDegrees>42.7187002636492252349853515625</LatitudeDegrees>
              <LongitudeDegrees>-0.23350800387561321258544921875</LongitudeDegrees>
            </Position>
            <AltitudeMeters>1572.5999755859375</AltitudeMeters>
            <DistanceMeters>5691.469692131</DistanceMeters>
          </Trackpoint>
          <Trackpoint>
            <Time>2021-07-17T10:54:24.000Z</Time>
            <Position>
              <LatitudeDegrees>42.71870001219213008880615234375</LatitudeDegrees>
              <LongitudeDegrees>-0.23350775241851806640625</LongitudeDegrees>
            </Position>
            <AltitudeMeters>1572.5999755859375</AltitudeMeters>
            <DistanceMeters>5691.469692131</DistanceMeters>
          </Trackpoint>
          <Trackpoint>
            <Time>2021-07-17T10:54:43.000Z</Time>
            <Position>
              <LatitudeDegrees>42.71869984455406665802001953125</LatitudeDegrees>
              <LongitudeDegrees>-0.2335072495043277740478515625</LongitudeDegrees>
            </Position>
            <AltitudeMeters>1572.5999755859375</AltitudeMeters>
            <DistanceMeters>5691.469692131</DistanceMeters>
          </Trackpoint>
          <Trackpoint>
            <Time>2021-07-17T10:54:58.000Z</Time>
            <Position>
              <LatitudeDegrees>42.71870001219213008880615234375</LatitudeDegrees>
              <LongitudeDegrees>-0.2335065789520740509033203125</LongitudeDegrees>
            </Position>
            <AltitudeMeters>1572.5999755859375</AltitudeMeters>
            <DistanceMeters>5691.6040801992</DistanceMeters>
          </Trackpoint>
          <Trackpoint>
            <Time>2021-07-17T10:56:06.000Z</Time>
            <Position>
              <LatitudeDegrees>42.71870252676308155059814453125</LatitudeDegrees>
              <LongitudeDegrees>-0.23350574076175689697265625</LongitudeDegrees>
            </Position>
            <AltitudeMeters>1572.5999755859375</AltitudeMeters>
            <DistanceMeters>5691.9045810552</DistanceMeters>
          </Trackpoint>
          <Trackpoint>
            <Time>2021-07-17T10:56:29.000Z</Time>
            <Position>
              <LatitudeDegrees>42.71870252676308155059814453125</LatitudeDegrees>
              <LongitudeDegrees>-0.2335062436759471893310546875</LongitudeDegrees>
            </Position>
            <AltitudeMeters>1572.5999755859375</AltitudeMeters>
            <DistanceMeters>5691.9045810552</DistanceMeters>
          </Trackpoint>
          <Trackpoint>
            <Time>2021-07-17T10:56:38.000Z</Time>
            <Position>
              <LatitudeDegrees>42.718702442944049835205078125</LatitudeDegrees>
              <LongitudeDegrees>-0.23350632749497890472412109375</LongitudeDegrees>
            </Position>
            <AltitudeMeters>1572.5999755859375</AltitudeMeters>
            <DistanceMeters>5691.9045810552</DistanceMeters>
          </Trackpoint>
          <Trackpoint>
            <Time>2021-07-17T10:57:04.000Z</Time>
            <Position>
              <LatitudeDegrees>42.7187019400298595428466796875</LatitudeDegrees>
              <LongitudeDegrees>-0.2335064113140106201171875</LongitudeDegrees>
            </Position>
            <AltitudeMeters>1572.5999755859375</AltitudeMeters>
            <DistanceMeters>5691.9045810552</DistanceMeters>
          </Trackpoint>
          <Trackpoint>
            <Time>2021-07-17T10:57:07.000Z</Time>
            <Position>
              <LatitudeDegrees>42.7187019400298595428466796875</LatitudeDegrees>
              <LongitudeDegrees>-0.23350649513304233551025390625</LongitudeDegrees>
            </Position>
            <AltitudeMeters>1572.5999755859375</AltitudeMeters>
            <DistanceMeters>5691.9045810552</DistanceMeters>
          </Trackpoint>
          <Trackpoint>
            <Time>2021-07-17T10:57:24.000Z</Time>
            <Position>
              <LatitudeDegrees>42.71870185621082782745361328125</LatitudeDegrees>
              <LongitudeDegrees>-0.2335064113140106201171875</LongitudeDegrees>
            </Position>
            <AltitudeMeters>1572.5999755859375</AltitudeMeters>
            <DistanceMeters>5691.9045810552</DistanceMeters>
          </Trackpoint>
          <Trackpoint>
            <Time>2021-07-17T10:57:26.000Z</Time>
            <Position>
              <LatitudeDegrees>42.71870185621082782745361328125</LatitudeDegrees>
              <LongitudeDegrees>-0.23350632749497890472412109375</LongitudeDegrees>
            </Position>
            <AltitudeMeters>1572.5999755859375</AltitudeMeters>
            <DistanceMeters>5691.9045810552</DistanceMeters>
          </Trackpoint>
          <Trackpoint>
            <Time>2021-07-17T10:57:29.000Z</Time>
            <Position>
              <LatitudeDegrees>42.71870185621082782745361328125</LatitudeDegrees>
              <LongitudeDegrees>-0.2335062436759471893310546875</LongitudeDegrees>
            </Position>
            <AltitudeMeters>1572.5999755859375</AltitudeMeters>
            <DistanceMeters>5691.9045810552</DistanceMeters>
          </Trackpoint>
          <Trackpoint>
            <Time>2021-07-17T10:57:47.000Z</Time>
            <Position>
              <LatitudeDegrees>42.71870185621082782745361328125</LatitudeDegrees>
              <LongitudeDegrees>-0.23350574076175689697265625</LongitudeDegrees>
            </Position>
            <AltitudeMeters>1572.5999755859375</AltitudeMeters>
            <DistanceMeters>5691.9045810552</DistanceMeters>
          </Trackpoint>
          <Trackpoint>
            <Time>2021-07-17T10:57:57.000Z</Time>
            <Position>
              <LatitudeDegrees>42.71870202384889125823974609375</LatitudeDegrees>
              <LongitudeDegrees>-0.2335052378475666046142578125</LongitudeDegrees>
            </Position>
            <AltitudeMeters>1572.5999755859375</AltitudeMeters>
            <DistanceMeters>5691.9045810552</DistanceMeters>
          </Trackpoint>
          <Trackpoint>
            <Time>2021-07-17T10:58:11.000Z</Time>
            <Position>
              <LatitudeDegrees>42.71870202384889125823974609375</LatitudeDegrees>
              <LongitudeDegrees>-0.23350439965724945068359375</LongitudeDegrees>
            </Position>
            <AltitudeMeters>1572.5999755859375</AltitudeMeters>
            <DistanceMeters>5691.9045810552</DistanceMeters>
          </Trackpoint>
          <Trackpoint>
            <Time>2021-07-17T10:58:15.000Z</Time>
            <Position>
              <LatitudeDegrees>42.71870202384889125823974609375</LatitudeDegrees>
              <LongitudeDegrees>-0.23350414820015430450439453125</LongitudeDegrees>
            </Position>
            <AltitudeMeters>1572.5999755859375</AltitudeMeters>
            <DistanceMeters>5691.9045810552</DistanceMeters>
          </Trackpoint>
          <Trackpoint>
            <Time>2021-07-17T10:58:19.000Z</Time>
            <Position>
              <LatitudeDegrees>42.7187019400298595428466796875</LatitudeDegrees>
              <LongitudeDegrees>-0.2335038967430591583251953125</LongitudeDegrees>
            </Position>
            <AltitudeMeters>1572.5999755859375</AltitudeMeters>
            <DistanceMeters>5691.9045810552</DistanceMeters>
          </Trackpoint>
          <Trackpoint>
            <Time>2021-07-17T10:58:22.000Z</Time>
            <Position>
              <LatitudeDegrees>42.7187019400298595428466796875</LatitudeDegrees>
              <LongitudeDegrees>-0.2335037291049957275390625</LongitudeDegrees>
            </Position>
            <AltitudeMeters>1572.5999755859375</AltitudeMeters>
            <DistanceMeters>5691.9045810552</DistanceMeters>
          </Trackpoint>
          <Trackpoint>
            <Time>2021-07-17T10:58:24.000Z</Time>
            <Position>
              <LatitudeDegrees>42.7187019400298595428466796875</LatitudeDegrees>
              <LongitudeDegrees>-0.2335035614669322967529296875</LongitudeDegrees>
            </Position>
            <AltitudeMeters>1572.5999755859375</AltitudeMeters>
            <DistanceMeters>5691.9045810552</DistanceMeters>
          </Trackpoint>
          <Trackpoint>
            <Time>2021-07-17T10:58:28.000Z</Time>
            <Position>
              <LatitudeDegrees>42.71870185621082782745361328125</LatitudeDegrees>
              <LongitudeDegrees>-0.233503393828868865966796875</LongitudeDegrees>
            </Position>
            <AltitudeMeters>1572.5999755859375</AltitudeMeters>
            <DistanceMeters>5691.9045810552</DistanceMeters>
          </Trackpoint>
          <Trackpoint>
            <Time>2021-07-17T10:58:59.000Z</Time>
            <Position>
              <LatitudeDegrees>42.7187016047537326812744140625</LatitudeDegrees>
              <LongitudeDegrees>-0.23350180126726627349853515625</LongitudeDegrees>
            </Position>
            <AltitudeMeters>1572.5999755859375</AltitudeMeters>
            <DistanceMeters>5692.0389691235</DistanceMeters>
          </Trackpoint>
          <Trackpoint>
            <Time>2021-07-17T10:59:01.000Z</Time>
            <Position>
              <LatitudeDegrees>42.71870152093470096588134765625</LatitudeDegrees>
              <LongitudeDegrees>-0.23350171744823455810546875</LongitudeDegrees>
            </Position>
            <AltitudeMeters>1572.5999755859375</AltitudeMeters>
            <DistanceMeters>5692.0389691235</DistanceMeters>
          </Trackpoint>
          <Trackpoint>
            <Time>2021-07-17T10:59:03.000Z</Time>
            <Position>
              <LatitudeDegrees>42.71870152093470096588134765625</LatitudeDegrees>
              <LongitudeDegrees>-0.23350163362920284271240234375</LongitudeDegrees>
            </Position>
            <AltitudeMeters>1572.800048828125</AltitudeMeters>
            <DistanceMeters>5692.0389691235</DistanceMeters>
          </Trackpoint>
          <Trackpoint>
            <Time>2021-07-17T10:59:05.000Z</Time>
            <Position>
              <LatitudeDegrees>42.71870152093470096588134765625</LatitudeDegrees>
              <LongitudeDegrees>-0.2335015498101711273193359375</LongitudeDegrees>
            </Position>
            <AltitudeMeters>1572.800048828125</AltitudeMeters>
            <DistanceMeters>5692.0389691235</DistanceMeters>
          </Trackpoint>
          <Trackpoint>
            <Time>2021-07-17T10:59:25.000Z</Time>
            <Position>
              <LatitudeDegrees>42.71870143711566925048828125</LatitudeDegrees>
              <LongitudeDegrees>-0.233500711619853973388671875</LongitudeDegrees>
            </Position>
            <AltitudeMeters>1572.800048828125</AltitudeMeters>
            <DistanceMeters>5692.1733571917</DistanceMeters>
          </Trackpoint>
          <Trackpoint>
            <Time>2021-07-17T10:59:28.000Z</Time>
            <Position>
              <LatitudeDegrees>42.71870152093470096588134765625</LatitudeDegrees>
              <LongitudeDegrees>-0.2335005439817905426025390625</LongitudeDegrees>
            </Position>
            <AltitudeMeters>1572.800048828125</AltitudeMeters>
            <DistanceMeters>5692.1733571917</DistanceMeters>
          </Trackpoint>
          <Trackpoint>
            <Time>2021-07-17T10:59:45.000Z</Time>
            <Position>
              <LatitudeDegrees>42.7186653949320316314697265625</LatitudeDegrees>
              <LongitudeDegrees>-0.2335183136165142059326171875</LongitudeDegrees>
            </Position>
            <AltitudeMeters>1572.5999755859375</AltitudeMeters>
            <DistanceMeters>5696.4485033556</DistanceMeters>
          </Trackpoint>
          <Trackpoint>
            <Time>2021-07-17T10:59:47.000Z</Time>
            <Position>
              <LatitudeDegrees>42.71864418871700763702392578125</LatitudeDegrees>
              <LongitudeDegrees>-0.2335146255791187286376953125</LongitudeDegrees>
            </Position>
            <AltitudeMeters>1572.5999755859375</AltitudeMeters>
            <DistanceMeters>5698.8298659922</DistanceMeters>
          </Trackpoint>
          <Trackpoint>
            <Time>2021-07-17T10:59:49.000Z</Time>
            <Position>
              <LatitudeDegrees>42.71863647736608982086181640625</LatitudeDegrees>
              <LongitudeDegrees>-0.233514122664928436279296875</LongitudeDegrees>
            </Position>
            <AltitudeMeters>1572.5999755859375</AltitudeMeters>
            <DistanceMeters>5699.6903694892</DistanceMeters>
          </Trackpoint>
          <Trackpoint>
            <Time>2021-07-17T10:59:51.000Z</Time>
            <Position>
              <LatitudeDegrees>42.7186184562742710113525390625</LatitudeDegrees>
              <LongitudeDegrees>-0.2335112728178501129150390625</LongitudeDegrees>
            </Position>
            <AltitudeMeters>1572.800048828125</AltitudeMeters>
            <DistanceMeters>5701.7084290711</DistanceMeters>
          </Trackpoint>
          <Trackpoint>
            <Time>2021-07-17T10:59:56.000Z</Time>
            <Position>
              <LatitudeDegrees>42.718621306121349334716796875</LatitudeDegrees>
              <LongitudeDegrees>-0.23346609435975551605224609375</LongitudeDegrees>
            </Position>
            <AltitudeMeters>1574</AltitudeMeters>
            <DistanceMeters>5705.4156890226</DistanceMeters>
          </Trackpoint>
          <Trackpoint>
            <Time>2021-07-17T11:00:01.000Z</Time>
            <Position>
              <LatitudeDegrees>42.71861585788428783416748046875</LatitudeDegrees>
              <LongitudeDegrees>-0.2334264479577541351318359375</LongitudeDegrees>
            </Position>
            <AltitudeMeters>1575.199951171875</AltitudeMeters>
            <DistanceMeters>5708.7129927754</DistanceMeters>
          </Trackpoint>
          <Trackpoint>
            <Time>2021-07-17T11:00:04.000Z</Time>
            <Position>
              <LatitudeDegrees>42.718601860105991363525390625</LatitudeDegrees>
              <LongitudeDegrees>-0.2334049902856349945068359375</LongitudeDegrees>
            </Position>
            <AltitudeMeters>1575.800048828125</AltitudeMeters>
            <DistanceMeters>5711.0599794884</DistanceMeters>
          </Trackpoint>
          <Trackpoint>
            <Time>2021-07-17T11:00:07.000Z</Time>
            <Position>
              <LatitudeDegrees>42.71857998333871364593505859375</LatitudeDegrees>
              <LongitudeDegrees>-0.23338998667895793914794921875</LongitudeDegrees>
            </Position>
            <AltitudeMeters>1576.199951171875</AltitudeMeters>
            <DistanceMeters>5713.787759353</DistanceMeters>
          </Trackpoint>
          <Trackpoint>
            <Time>2021-07-17T11:00:11.000Z</Time>
            <Position>
              <LatitudeDegrees>42.718557603657245635986328125</LatitudeDegrees>
              <LongitudeDegrees>-0.23337657563388347625732421875</LongitudeDegrees>
            </Position>
            <AltitudeMeters>1576.5999755859375</AltitudeMeters>
            <DistanceMeters>5716.5089103382</DistanceMeters>
          </Trackpoint>
          <Trackpoint>
            <Time>2021-07-17T11:00:15.000Z</Time>
            <Position>
              <LatitudeDegrees>42.718547545373439788818359375</LatitudeDegrees>
              <LongitudeDegrees>-0.23336802609264850616455078125</LongitudeDegrees>
            </Position>
            <AltitudeMeters>1576.800048828125</AltitudeMeters>
            <DistanceMeters>5717.8256391171</DistanceMeters>
          </Trackpoint>
          <Trackpoint>
            <Time>2021-07-17T11:00:17.000Z</Time>
            <Position>
              <LatitudeDegrees>42.71853572688996791839599609375</LatitudeDegrees>
              <LongitudeDegrees>-0.23333986289799213409423828125</LongitudeDegrees>
            </Position>
            <AltitudeMeters>1577.5999755859375</AltitudeMeters>
            <DistanceMeters>5720.4778890204</DistanceMeters>
          </Trackpoint>
          <Trackpoint>
            <Time>2021-07-17T11:00:22.000Z</Time>
            <Position>
              <LatitudeDegrees>42.718510329723358154296875</LatitudeDegrees>
              <LongitudeDegrees>-0.23330817930400371551513671875</LongitudeDegrees>
            </Position>
            <AltitudeMeters>1578.5999755859375</AltitudeMeters>
            <DistanceMeters>5724.3120726951</DistanceMeters>
          </Trackpoint>
          <Trackpoint>
            <Time>2021-07-17T11:00:24.000Z</Time>
            <Position>
              <LatitudeDegrees>42.718494236469268798828125</LatitudeDegrees>
              <LongitudeDegrees>-0.233285464346408843994140625</LongitudeDegrees>
            </Position>
            <AltitudeMeters>1579.199951171875</AltitudeMeters>
            <DistanceMeters>5726.8935831862</DistanceMeters>
          </Trackpoint>
          <Trackpoint>
            <Time>2021-07-17T11:00:27.000Z</Time>
            <Position>
              <LatitudeDegrees>42.71849247626960277557373046875</LatitudeDegrees>
              <LongitudeDegrees>-0.23327431641519069671630859375</LongitudeDegrees>
            </Position>
            <AltitudeMeters>1579.5999755859375</AltitudeMeters>
            <DistanceMeters>5727.8246510347</DistanceMeters>
          </Trackpoint>
          <Trackpoint>
            <Time>2021-07-17T11:00:35.000Z</Time>
            <Position>
              <LatitudeDegrees>42.718493901193141937255859375</LatitudeDegrees>
              <LongitudeDegrees>-0.2332249470055103302001953125</LongitudeDegrees>
            </Position>
            <AltitudeMeters>1580.800048828125</AltitudeMeters>
            <DistanceMeters>5731.8652423541</DistanceMeters>
          </Trackpoint>
          <Trackpoint>
            <Time>2021-07-17T11:00:43.000Z</Time>
            <Position>
              <LatitudeDegrees>42.7184699289500713348388671875</LatitudeDegrees>
              <LongitudeDegrees>-0.23317926563322544097900390625</LongitudeDegrees>
            </Position>
            <AltitudeMeters>1582</AltitudeMeters>
            <DistanceMeters>5736.4551408654</DistanceMeters>
          </Trackpoint>
          <Trackpoint>
            <Time>2021-07-17T11:00:48.000Z</Time>
            <Position>
              <LatitudeDegrees>42.7184893749654293060302734375</LatitudeDegrees>
              <LongitudeDegrees>-0.233182199299335479736328125</LongitudeDegrees>
            </Position>
            <AltitudeMeters>1582</AltitudeMeters>
            <DistanceMeters>5738.6324764236</DistanceMeters>
          </Trackpoint>
          <Trackpoint>
            <Time>2021-07-17T11:00:56.000Z</Time>
            <Position>
              <LatitudeDegrees>42.71851276047527790069580078125</LatitudeDegrees>
              <LongitudeDegrees>-0.23314037360250949859619140625</LongitudeDegrees>
            </Position>
            <AltitudeMeters>1583</AltitudeMeters>
            <DistanceMeters>5742.9307942812</DistanceMeters>
          </Trackpoint>
          <Trackpoint>
            <Time>2021-07-17T11:00:57.000Z</Time>
            <Position>
              <LatitudeDegrees>42.718515694141387939453125</LatitudeDegrees>
              <LongitudeDegrees>-0.2331367693841457366943359375</LongitudeDegrees>
            </Position>
            <AltitudeMeters>1583</AltitudeMeters>
            <DistanceMeters>5743.3765090798</DistanceMeters>
          </Trackpoint>
          <Trackpoint>
            <Time>2021-07-17T11:01:01.000Z</Time>
            <Position>
              <LatitudeDegrees>42.7185235731303691864013671875</LatitudeDegrees>
              <LongitudeDegrees>-0.23311925120651721954345703125</LongitudeDegrees>
            </Position>
            <AltitudeMeters>1583.5999755859375</AltitudeMeters>
            <DistanceMeters>5745.0577032765</DistanceMeters>
          </Trackpoint>
          <Trackpoint>
            <Time>2021-07-17T11:01:06.000Z</Time>
            <Position>
              <LatitudeDegrees>42.71854511462152004241943359375</LatitudeDegrees>
              <LongitudeDegrees>-0.23308999836444854736328125</LongitudeDegrees>
            </Position>
            <AltitudeMeters>1584.199951171875</AltitudeMeters>
            <DistanceMeters>5748.4441759375</DistanceMeters>
          </Trackpoint>
          <Trackpoint>
            <Time>2021-07-17T11:01:09.000Z</Time>
            <Position>
              <LatitudeDegrees>42.71855123341083526611328125</LatitudeDegrees>
              <LongitudeDegrees>-0.2330750785768032073974609375</LongitudeDegrees>
            </Position>
            <AltitudeMeters>1584.5999755859375</AltitudeMeters>
            <DistanceMeters>5749.8407777104</DistanceMeters>
          </Trackpoint>
          <Trackpoint>
            <Time>2021-07-17T11:01:11.000Z</Time>
            <Position>
              <LatitudeDegrees>42.71853916347026824951171875</LatitudeDegrees>
              <LongitudeDegrees>-0.2330646850168704986572265625</LongitudeDegrees>
            </Position>
            <AltitudeMeters>1585</AltitudeMeters>
            <DistanceMeters>5751.4308787777</DistanceMeters>
          </Trackpoint>
          <Trackpoint>
            <Time>2021-07-17T11:01:13.000Z</Time>
            <Position>
              <LatitudeDegrees>42.7185430191457271575927734375</LatitudeDegrees>
              <LongitudeDegrees>-0.23305554874241352081298828125</LongitudeDegrees>
            </Position>
            <AltitudeMeters>1585.199951171875</AltitudeMeters>
            <DistanceMeters>5752.2913822747</DistanceMeters>
          </Trackpoint>
          <Trackpoint>
            <Time>2021-07-17T11:01:14.000Z</Time>
            <Position>
              <LatitudeDegrees>42.7185453660786151885986328125</LatitudeDegrees>
              <LongitudeDegrees>-0.2330469153821468353271484375</LongitudeDegrees>
            </Position>
            <AltitudeMeters>1585.4000244140625</AltitudeMeters>
            <DistanceMeters>5753.0396233719</DistanceMeters>
          </Trackpoint>
          <Trackpoint>
            <Time>2021-07-17T11:01:16.000Z</Time>
            <Position>
              <LatitudeDegrees>42.71853975020349025726318359375</LatitudeDegrees>
              <LongitudeDegrees>-0.23302822373807430267333984375</LongitudeDegrees>
            </Position>
            <AltitudeMeters>1585.800048828125</AltitudeMeters>
            <DistanceMeters>5754.6910116019</DistanceMeters>
          </Trackpoint>
          <Trackpoint>
            <Time>2021-07-17T11:01:19.000Z</Time>
            <Position>
              <LatitudeDegrees>42.7185304462909698486328125</LatitudeDegrees>
              <LongitudeDegrees>-0.233009867370128631591796875</LongitudeDegrees>
            </Position>
            <AltitudeMeters>1586.199951171875</AltitudeMeters>
            <DistanceMeters>5756.5139400512</DistanceMeters>
          </Trackpoint>
          <Trackpoint>
            <Time>2021-07-17T11:01:20.000Z</Time>
            <Position>
              <LatitudeDegrees>42.71852684207260608673095703125</LatitudeDegrees>
              <LongitudeDegrees>-0.23300073109567165374755859375</LongitudeDegrees>
            </Position>
            <AltitudeMeters>1586.5999755859375</AltitudeMeters>
            <DistanceMeters>5757.3638848233</DistanceMeters>
          </Trackpoint>
          <Trackpoint>
            <Time>2021-07-17T11:01:22.000Z</Time>
            <Position>
              <LatitudeDegrees>42.7185269258916378021240234375</LatitudeDegrees>
              <LongitudeDegrees>-0.23298664949834346771240234375</LongitudeDegrees>
            </Position>
            <AltitudeMeters>1586.800048828125</AltitudeMeters>
            <DistanceMeters>5758.5120969817</DistanceMeters>
          </Trackpoint>
          <Trackpoint>
            <Time>2021-07-17T11:01:24.000Z</Time>
            <Position>
              <LatitudeDegrees>42.71852382458746433258056640625</LatitudeDegrees>
              <LongitudeDegrees>-0.2329724840819835662841796875</LongitudeDegrees>
            </Position>
            <AltitudeMeters>1587.199951171875</AltitudeMeters>
            <DistanceMeters>5759.721589596</DistanceMeters>
          </Trackpoint>
          <Trackpoint>
            <Time>2021-07-17T11:01:26.000Z</Time>
            <Position>
              <LatitudeDegrees>42.71852449513971805572509765625</LatitudeDegrees>
              <LongitudeDegrees>-0.23295815102756023406982421875</LongitudeDegrees>
            </Position>
            <AltitudeMeters>1587.4000244140625</AltitudeMeters>
            <DistanceMeters>5760.9008401089</DistanceMeters>
          </Trackpoint>
          <Trackpoint>
            <Time>2021-07-17T11:01:30.000Z</Time>
            <Position>
              <LatitudeDegrees>42.7185249142348766326904296875</LatitudeDegrees>
              <LongitudeDegrees>-0.2329372800886631011962890625</LongitudeDegrees>
            </Position>
            <AltitudeMeters>1587.800048828125</AltitudeMeters>
            <DistanceMeters>5762.6086792968</DistanceMeters>
          </Trackpoint>
          <Trackpoint>
            <Time>2021-07-17T11:01:32.000Z</Time>
            <Position>
              <LatitudeDegrees>42.718527428805828094482421875</LatitudeDegrees>
              <LongitudeDegrees>-0.2329262159764766693115234375</LongitudeDegrees>
            </Position>
            <AltitudeMeters>1588</AltitudeMeters>
            <DistanceMeters>5763.5589464405</DistanceMeters>
          </Trackpoint>
          <Trackpoint>
            <Time>2021-07-17T11:01:39.000Z</Time>
            <Position>
              <LatitudeDegrees>42.7185292728245258331298828125</LatitudeDegrees>
              <LongitudeDegrees>-0.23291003890335559844970703125</LongitudeDegrees>
            </Position>
            <AltitudeMeters>1588.199951171875</AltitudeMeters>
            <DistanceMeters>5764.8994632111</DistanceMeters>
          </Trackpoint>
          <Trackpoint>
            <Time>2021-07-17T11:01:42.000Z</Time>
            <Position>
              <LatitudeDegrees>42.71852918900549411773681640625</LatitudeDegrees>
              <LongitudeDegrees>-0.23291020654141902923583984375</LongitudeDegrees>
            </Position>
            <AltitudeMeters>1588.199951171875</AltitudeMeters>
            <DistanceMeters>5764.8994632111</DistanceMeters>
          </Trackpoint>
          <Trackpoint>
            <Time>2021-07-17T11:01:43.000Z</Time>
            <Position>
              <LatitudeDegrees>42.71852918900549411773681640625</LatitudeDegrees>
              <LongitudeDegrees>-0.23291020654141902923583984375</LongitudeDegrees>
            </Position>
            <AltitudeMeters>1588.199951171875</AltitudeMeters>
            <DistanceMeters>5764.8994632111</DistanceMeters>
          </Trackpoint>
          <Trackpoint>
            <Time>2021-07-17T11:01:57.000Z</Time>
            <Position>
              <LatitudeDegrees>42.71852575242519378662109375</LatitudeDegrees>
              <LongitudeDegrees>-0.23291020654141902923583984375</LongitudeDegrees>
            </Position>
            <AltitudeMeters>1588.199951171875</AltitudeMeters>
            <DistanceMeters>5765.2795700686</DistanceMeters>
          </Trackpoint>
          <Trackpoint>
            <Time>2021-07-17T11:02:02.000Z</Time>
            <Position>
              <LatitudeDegrees>42.7185239084064960479736328125</LatitudeDegrees>
              <LongitudeDegrees>-0.2329067699611186981201171875</LongitudeDegrees>
            </Position>
            <AltitudeMeters>1588.4000244140625</AltitudeMeters>
            <DistanceMeters>5765.6351274763</DistanceMeters>
          </Trackpoint>
          <Trackpoint>
            <Time>2021-07-17T11:02:16.000Z</Time>
            <Position>
              <LatitudeDegrees>42.71850856952369213104248046875</LatitudeDegrees>
              <LongitudeDegrees>-0.23275195620954036712646484375</LongitudeDegrees>
            </Position>
            <AltitudeMeters>1592</AltitudeMeters>
            <DistanceMeters>5778.4090650581</DistanceMeters>
          </Trackpoint>
          <Trackpoint>
            <Time>2021-07-17T11:02:18.000Z</Time>
            <Position>
              <LatitudeDegrees>42.7185091562569141387939453125</LatitudeDegrees>
              <LongitudeDegrees>-0.23271448910236358642578125</LongitudeDegrees>
            </Position>
            <AltitudeMeters>1592.800048828125</AltitudeMeters>
            <DistanceMeters>5781.473584515</DistanceMeters>
          </Trackpoint>
          <Trackpoint>
            <Time>2021-07-17T11:02:21.000Z</Time>
            <Position>
              <LatitudeDegrees>42.71850354038178920745849609375</LatitudeDegrees>
              <LongitudeDegrees>-0.23265204392373561859130859375</LongitudeDegrees>
            </Position>
            <AltitudeMeters>1594.4000244140625</AltitudeMeters>
            <DistanceMeters>5786.6173306188</DistanceMeters>
          </Trackpoint>
          <Trackpoint>
            <Time>2021-07-17T11:02:24.000Z</Time>
            <Position>
              <LatitudeDegrees>42.71849197335541248321533203125</LatitudeDegrees>
              <LongitudeDegrees>-0.23260376416146755218505859375</LongitudeDegrees>
            </Position>
            <AltitudeMeters>1595.4000244140625</AltitudeMeters>
            <DistanceMeters>5790.7692477581</DistanceMeters>
          </Trackpoint>
          <Trackpoint>
            <Time>2021-07-17T11:02:26.000Z</Time>
            <Position>
              <LatitudeDegrees>42.71849012933671474456787109375</LatitudeDegrees>
              <LongitudeDegrees>-0.23258029483258724212646484375</LongitudeDegrees>
            </Position>
            <AltitudeMeters>1596</AltitudeMeters>
            <DistanceMeters>5792.7004187944</DistanceMeters>
          </Trackpoint>
          <Trackpoint>
            <Time>2021-07-17T11:02:32.000Z</Time>
            <Position>
              <LatitudeDegrees>42.71849381737411022186279296875</LatitudeDegrees>
              <LongitudeDegrees>-0.2325222082436084747314453125</LongitudeDegrees>
            </Position>
            <AltitudeMeters>1597.199951171875</AltitudeMeters>
            <DistanceMeters>5797.4688286432</DistanceMeters>
          </Trackpoint>
          <Trackpoint>
            <Time>2021-07-17T11:02:34.000Z</Time>
            <Position>
              <LatitudeDegrees>42.7184897102415561676025390625</LatitudeDegrees>
              <LongitudeDegrees>-0.23250720463693141937255859375</LongitudeDegrees>
            </Position>
            <AltitudeMeters>1597.5999755859375</AltitudeMeters>
            <DistanceMeters>5798.7786815068</DistanceMeters>
          </Trackpoint>
          <Trackpoint>
            <Time>2021-07-17T11:02:38.000Z</Time>
            <Position>
              <LatitudeDegrees>42.7184803225100040435791015625</LatitudeDegrees>
              <LongitudeDegrees>-0.23247443139553070068359375</LongitudeDegrees>
            </Position>
            <AltitudeMeters>1598.4000244140625</AltitudeMeters>
            <DistanceMeters>5801.6547117609</DistanceMeters>
          </Trackpoint>
          <Trackpoint>
            <Time>2021-07-17T11:02:41.000Z</Time>
            <Position>
              <LatitudeDegrees>42.71848208270967006683349609375</LatitudeDegrees>
              <LongitudeDegrees>-0.23245372809469699859619140625</LongitudeDegrees>
            </Position>
            <AltitudeMeters>1598.800048828125</AltitudeMeters>
            <DistanceMeters>5803.3572553106</DistanceMeters>
          </Trackpoint>
          <Trackpoint>
            <Time>2021-07-17T11:02:42.000Z</Time>
            <Position>
              <LatitudeDegrees>42.71848124451935291290283203125</LatitudeDegrees>
              <LongitudeDegrees>-0.23244584910571575164794921875</LongitudeDegrees>
            </Position>
            <AltitudeMeters>1599</AltitudeMeters>
            <DistanceMeters>5804.0017578446</DistanceMeters>
          </Trackpoint>
          <Trackpoint>
            <Time>2021-07-17T11:02:44.000Z</Time>
            <Position>
              <LatitudeDegrees>42.718477807939052581787109375</LatitudeDegrees>
              <LongitudeDegrees>-0.2324253134429454803466796875</LongitudeDegrees>
            </Position>
            <AltitudeMeters>1599.4000244140625</AltitudeMeters>
            <DistanceMeters>5805.7280038371</DistanceMeters>
          </Trackpoint>
          <Trackpoint>
            <Time>2021-07-17T11:02:47.000Z</Time>
            <Position>
              <LatitudeDegrees>42.71847671829164028167724609375</LatitudeDegrees>
              <LongitudeDegrees>-0.23240075446665287017822265625</LongitudeDegrees>
            </Position>
            <AltitudeMeters>1600</AltitudeMeters>
            <DistanceMeters>5807.7393402702</DistanceMeters>
          </Trackpoint>
          <Trackpoint>
            <Time>2021-07-17T11:02:49.000Z</Time>
            <Position>
              <LatitudeDegrees>42.71847403608262538909912109375</LatitudeDegrees>
              <LongitudeDegrees>-0.23238164372742176055908203125</LongitudeDegrees>
            </Position>
            <AltitudeMeters>1600.5999755859375</AltitudeMeters>
            <DistanceMeters>5809.3265993315</DistanceMeters>
          </Trackpoint>
          <Trackpoint>
            <Time>2021-07-17T11:02:50.000Z</Time>
            <Position>
              <LatitudeDegrees>42.71847571246325969696044921875</LatitudeDegrees>
              <LongitudeDegrees>-0.23237242363393306732177734375</LongitudeDegrees>
            </Position>
            <AltitudeMeters>1600.800048828125</AltitudeMeters>
            <DistanceMeters>5810.1044265114</DistanceMeters>
          </Trackpoint>
          <Trackpoint>
            <Time>2021-07-17T11:02:54.000Z</Time>
            <Position>
              <LatitudeDegrees>42.71846783347427845001220703125</LatitudeDegrees>
              <LongitudeDegrees>-0.2323669753968715667724609375</LongitudeDegrees>
            </Position>
            <AltitudeMeters>1601</AltitudeMeters>
            <DistanceMeters>5811.0873904881</DistanceMeters>
          </Trackpoint>
          <Trackpoint>
            <Time>2021-07-17T11:02:59.000Z</Time>
            <Position>
              <LatitudeDegrees>42.71846934221684932708740234375</LatitudeDegrees>
              <LongitudeDegrees>-0.2323632873594760894775390625</LongitudeDegrees>
            </Position>
            <AltitudeMeters>1601</AltitudeMeters>
            <DistanceMeters>5811.4165726828</DistanceMeters>
          </Trackpoint>
          <Trackpoint>
            <Time>2021-07-17T11:03:02.000Z</Time>
            <Position>
              <LatitudeDegrees>42.7184682525694370269775390625</LatitudeDegrees>
              <LongitudeDegrees>-0.23233856074512004852294921875</LongitudeDegrees>
            </Position>
            <AltitudeMeters>1601.5999755859375</AltitudeMeters>
            <DistanceMeters>5813.4413330898</DistanceMeters>
          </Trackpoint>
          <Trackpoint>
            <Time>2021-07-17T11:03:09.000Z</Time>
            <Position>
              <LatitudeDegrees>42.7184595353901386260986328125</LatitudeDegrees>
              <LongitudeDegrees>-0.2322878502309322357177734375</LongitudeDegrees>
            </Position>
            <AltitudeMeters>1603</AltitudeMeters>
            <DistanceMeters>5817.7006080957</DistanceMeters>
          </Trackpoint>
          <Trackpoint>
            <Time>2021-07-17T11:03:11.000Z</Time>
            <Position>
              <LatitudeDegrees>42.7184575237333774566650390625</LatitudeDegrees>
              <LongitudeDegrees>-0.2322730980813503265380859375</LongitudeDegrees>
            </Position>
            <AltitudeMeters>1603.4000244140625</AltitudeMeters>
            <DistanceMeters>5818.9322950862</DistanceMeters>
          </Trackpoint>
          <Trackpoint>
            <Time>2021-07-17T11:03:15.000Z</Time>
            <Position>
              <LatitudeDegrees>42.718467414379119873046875</LatitudeDegrees>
              <LongitudeDegrees>-0.23225071839988231658935546875</LongitudeDegrees>
            </Position>
            <AltitudeMeters>1603.800048828125</AltitudeMeters>
            <DistanceMeters>5821.0698681681</DistanceMeters>
          </Trackpoint>
          <Trackpoint>
            <Time>2021-07-17T11:03:19.000Z</Time>
            <Position>
              <LatitudeDegrees>42.718458361923694610595703125</LatitudeDegrees>
              <LongitudeDegrees>-0.23225138895213603973388671875</LongitudeDegrees>
            </Position>
            <AltitudeMeters>1604</AltitudeMeters>
            <DistanceMeters>5822.0844758335</DistanceMeters>
          </Trackpoint>
          <Trackpoint>
            <Time>2021-07-17T11:03:27.000Z</Time>
            <Position>
              <LatitudeDegrees>42.7184514887630939483642578125</LatitudeDegrees>
              <LongitudeDegrees>-0.23225390352308750152587890625</LongitudeDegrees>
            </Position>
            <AltitudeMeters>1604</AltitudeMeters>
            <DistanceMeters>5822.8795263671</DistanceMeters>
          </Trackpoint>
          <Trackpoint>
            <Time>2021-07-17T11:03:38.000Z</Time>
            <Position>
              <LatitudeDegrees>42.7184514887630939483642578125</LatitudeDegrees>
              <LongitudeDegrees>-0.23225021548569202423095703125</LongitudeDegrees>
            </Position>
            <AltitudeMeters>1604</AltitudeMeters>
            <DistanceMeters>5823.1800272231</DistanceMeters>
          </Trackpoint>
          <Trackpoint>
            <Time>2021-07-17T11:03:42.000Z</Time>
            <Position>
              <LatitudeDegrees>42.71843715570867061614990234375</LatitudeDegrees>
              <LongitudeDegrees>-0.23219238035380840301513671875</LongitudeDegrees>
            </Position>
            <AltitudeMeters>1605.5999755859375</AltitudeMeters>
            <DistanceMeters>5828.1723223852</DistanceMeters>
          </Trackpoint>
          <Trackpoint>
            <Time>2021-07-17T11:03:44.000Z</Time>
            <Position>
              <LatitudeDegrees>42.7184213139116764068603515625</LatitudeDegrees>
              <LongitudeDegrees>-0.23214661516249179840087890625</LongitudeDegrees>
            </Position>
            <AltitudeMeters>1606.800048828125</AltitudeMeters>
            <DistanceMeters>5832.310078412</DistanceMeters>
          </Trackpoint>
          <Trackpoint>
            <Time>2021-07-17T11:03:55.000Z</Time>
            <Position>
              <LatitudeDegrees>42.718385942280292510986328125</LatitudeDegrees>
              <LongitudeDegrees>-0.23198786191642284393310546875</LongitudeDegrees>
            </Position>
            <AltitudeMeters>1610.5999755859375</AltitudeMeters>
            <DistanceMeters>5845.8759531692</DistanceMeters>
          </Trackpoint>
          <Trackpoint>
            <Time>2021-07-17T11:04:03.000Z</Time>
            <Position>
              <LatitudeDegrees>42.71838895976543426513671875</LatitudeDegrees>
              <LongitudeDegrees>-0.23191661573946475982666015625</LongitudeDegrees>
            </Position>
            <AltitudeMeters>1612</AltitudeMeters>
            <DistanceMeters>5851.7121718377</DistanceMeters>
          </Trackpoint>
          <Trackpoint>
            <Time>2021-07-17T11:04:05.000Z</Time>
            <Position>
              <LatitudeDegrees>42.71839206106960773468017578125</LatitudeDegrees>
              <LongitudeDegrees>-0.2319039590656757354736328125</LongitudeDegrees>
            </Position>
            <AltitudeMeters>1612.199951171875</AltitudeMeters>
            <DistanceMeters>5852.8039456653</DistanceMeters>
          </Trackpoint>
          <Trackpoint>
            <Time>2021-07-17T11:04:07.000Z</Time>
            <Position>
              <LatitudeDegrees>42.718399353325366973876953125</LatitudeDegrees>
              <LongitudeDegrees>-0.23188929073512554168701171875</LongitudeDegrees>
            </Position>
            <AltitudeMeters>1612.5999755859375</AltitudeMeters>
            <DistanceMeters>5854.2513494566</DistanceMeters>
          </Trackpoint>
          <Trackpoint>
            <Time>2021-07-17T11:04:11.000Z</Time>
            <Position>
              <LatitudeDegrees>42.71839256398379802703857421875</LatitudeDegrees>
              <LongitudeDegrees>-0.23185140453279018402099609375</LongitudeDegrees>
            </Position>
            <AltitudeMeters>1613.199951171875</AltitudeMeters>
            <DistanceMeters>5857.4400586117</DistanceMeters>
          </Trackpoint>
          <Trackpoint>
            <Time>2021-07-17T11:04:19.000Z</Time>
            <Position>
              <LatitudeDegrees>42.718395330011844635009765625</LatitudeDegrees>
              <LongitudeDegrees>-0.23177412338554859161376953125</LongitudeDegrees>
            </Position>
            <AltitudeMeters>1614.4000244140625</AltitudeMeters>
            <DistanceMeters>5863.7662975259</DistanceMeters>
          </Trackpoint>
          <Trackpoint>
            <Time>2021-07-17T11:04:20.000Z</Time>
            <Position>
              <LatitudeDegrees>42.71839239634573459625244140625</LatitudeDegrees>
              <LongitudeDegrees>-0.23176892660558223724365234375</LongitudeDegrees>
            </Position>
            <AltitudeMeters>1614.4000244140625</AltitudeMeters>
            <DistanceMeters>5864.3038497989</DistanceMeters>
          </Trackpoint>
          <Trackpoint>
            <Time>2021-07-17T11:04:27.000Z</Time>
            <Position>
              <LatitudeDegrees>42.71837177686393260955810546875</LatitudeDegrees>
              <LongitudeDegrees>-0.23172886110842227935791015625</LongitudeDegrees>
            </Position>
            <AltitudeMeters>1615.199951171875</AltitudeMeters>
            <DistanceMeters>5868.304011728</DistanceMeters>
          </Trackpoint>
          <Trackpoint>
            <Time>2021-07-17T11:04:35.000Z</Time>
            <Position>
              <LatitudeDegrees>42.71837697364389896392822265625</LatitudeDegrees>
              <LongitudeDegrees>-0.23167069070041179656982421875</LongitudeDegrees>
            </Position>
            <AltitudeMeters>1616</AltitudeMeters>
            <DistanceMeters>5873.0969768304</DistanceMeters>
          </Trackpoint>
          <Trackpoint>
            <Time>2021-07-17T11:04:39.000Z</Time>
            <Position>
              <LatitudeDegrees>42.7183757163584232330322265625</LatitudeDegrees>
              <LongitudeDegrees>-0.231635235249996185302734375</LongitudeDegrees>
            </Position>
            <AltitudeMeters>1616.4000244140625</AltitudeMeters>
            <DistanceMeters>5875.9995724485</DistanceMeters>
          </Trackpoint>
          <Trackpoint>
            <Time>2021-07-17T11:04:40.000Z</Time>
            <Position>
              <LatitudeDegrees>42.71837429143488407135009765625</LatitudeDegrees>
              <LongitudeDegrees>-0.2316286973655223846435546875</LongitudeDegrees>
            </Position>
            <AltitudeMeters>1616.5999755859375</AltitudeMeters>
            <DistanceMeters>5876.5617580723</DistanceMeters>
          </Trackpoint>
          <Trackpoint>
            <Time>2021-07-17T11:04:42.000Z</Time>
            <Position>
              <LatitudeDegrees>42.71836875937879085540771484375</LatitudeDegrees>
              <LongitudeDegrees>-0.23161335848271846771240234375</LongitudeDegrees>
            </Position>
            <AltitudeMeters>1616.800048828125</AltitudeMeters>
            <DistanceMeters>5877.9583598451</DistanceMeters>
          </Trackpoint>
          <Trackpoint>
            <Time>2021-07-17T11:04:43.000Z</Time>
            <Position>
              <LatitudeDegrees>42.71836641244590282440185546875</LatitudeDegrees>
              <LongitudeDegrees>-0.231606401503086090087890625</LongitudeDegrees>
            </Position>
            <AltitudeMeters>1616.800048828125</AltitudeMeters>
            <DistanceMeters>5878.5814916828</DistanceMeters>
          </Trackpoint>
          <Trackpoint>
            <Time>2021-07-17T11:04:44.000Z</Time>
            <Position>
              <LatitudeDegrees>42.71836607716977596282958984375</LatitudeDegrees>
              <LongitudeDegrees>-0.23159642703831195831298828125</LongitudeDegrees>
            </Position>
            <AltitudeMeters>1617</AltitudeMeters>
            <DistanceMeters>5879.3989423888</DistanceMeters>
          </Trackpoint>
          <Trackpoint>
            <Time>2021-07-17T11:04:45.000Z</Time>
            <Position>
              <LatitudeDegrees>42.7183641493320465087890625</LatitudeDegrees>
              <LongitudeDegrees>-0.23158569820225238800048828125</LongitudeDegrees>
            </Position>
            <AltitudeMeters>1617.199951171875</AltitudeMeters>
            <DistanceMeters>5880.3004449567</DistanceMeters>
          </Trackpoint>
          <Trackpoint>
            <Time>2021-07-17T11:04:54.000Z</Time>
            <Position>
              <LatitudeDegrees>42.71834763698279857635498046875</LatitudeDegrees>
              <LongitudeDegrees>-0.23150087334215641021728515625</LongitudeDegrees>
            </Position>
            <AltitudeMeters>1618.5999755859375</AltitudeMeters>
            <DistanceMeters>5887.4760631101</DistanceMeters>
          </Trackpoint>
          <Trackpoint>
            <Time>2021-07-17T11:05:01.000Z</Time>
            <Position>
              <LatitudeDegrees>42.7183405123651027679443359375</LatitudeDegrees>
              <LongitudeDegrees>-0.23148125968873500823974609375</LongitudeDegrees>
            </Position>
            <AltitudeMeters>1619</AltitudeMeters>
            <DistanceMeters>5889.2665035972</DistanceMeters>
          </Trackpoint>
          <Trackpoint>
            <Time>2021-07-17T11:05:02.000Z</Time>
            <Position>
              <LatitudeDegrees>42.71834068000316619873046875</LatitudeDegrees>
              <LongitudeDegrees>-0.2314811758697032928466796875</LongitudeDegrees>
            </Position>
            <AltitudeMeters>1619</AltitudeMeters>
            <DistanceMeters>5889.3615303116</DistanceMeters>
          </Trackpoint>
          <Trackpoint>
            <Time>2021-07-17T11:05:11.000Z</Time>
            <Position>
              <LatitudeDegrees>42.71832249127328395843505859375</LatitudeDegrees>
              <LongitudeDegrees>-0.23141437210142612457275390625</LongitudeDegrees>
            </Position>
            <AltitudeMeters>1620.199951171875</AltitudeMeters>
            <DistanceMeters>5895.1884580981</DistanceMeters>
          </Trackpoint>
          <Trackpoint>
            <Time>2021-07-17T11:05:18.000Z</Time>
            <Position>
              <LatitudeDegrees>42.718308158218860626220703125</LatitudeDegrees>
              <LongitudeDegrees>-0.23134815506637096405029296875</LongitudeDegrees>
            </Position>
            <AltitudeMeters>1621.4000244140625</AltitudeMeters>
            <DistanceMeters>5900.8335568369</DistanceMeters>
          </Trackpoint>
          <Trackpoint>
            <Time>2021-07-17T11:05:28.000Z</Time>
            <Position>
              <LatitudeDegrees>42.71829751320183277130126953125</LatitudeDegrees>
              <LongitudeDegrees>-0.2312538586556911468505859375</LongitudeDegrees>
            </Position>
            <AltitudeMeters>1623</AltitudeMeters>
            <DistanceMeters>5908.6350128056</DistanceMeters>
          </Trackpoint>
          <Trackpoint>
            <Time>2021-07-17T11:05:36.000Z</Time>
            <Position>
              <LatitudeDegrees>42.71827404387295246124267578125</LatitudeDegrees>
              <LongitudeDegrees>-0.23123030550777912139892578125</LongitudeDegrees>
            </Position>
            <AltitudeMeters>1623.5999755859375</AltitudeMeters>
            <DistanceMeters>5911.8798655193</DistanceMeters>
          </Trackpoint>
          <Trackpoint>
            <Time>2021-07-17T11:05:50.000Z</Time>
            <Position>
              <LatitudeDegrees>42.71827991120517253875732421875</LatitudeDegrees>
              <LongitudeDegrees>-0.23123323917388916015625</LongitudeDegrees>
            </Position>
            <AltitudeMeters>1623.4000244140625</AltitudeMeters>
            <DistanceMeters>5912.5651129017</DistanceMeters>
          </Trackpoint>
          <Trackpoint>
            <Time>2021-07-17T11:06:01.000Z</Time>
            <Position>
              <LatitudeDegrees>42.7182784862816333770751953125</LatitudeDegrees>
              <LongitudeDegrees>-0.231238938868045806884765625</LongitudeDegrees>
            </Position>
            <AltitudeMeters>1623.4000244140625</AltitudeMeters>
            <DistanceMeters>5913.0588861938</DistanceMeters>
          </Trackpoint>
          <Trackpoint>
            <Time>2021-07-17T11:06:05.000Z</Time>
            <Position>
              <LatitudeDegrees>42.7182784862816333770751953125</LatitudeDegrees>
              <LongitudeDegrees>-0.23123935796320438385009765625</LongitudeDegrees>
            </Position>
            <AltitudeMeters>1623.4000244140625</AltitudeMeters>
            <DistanceMeters>5913.0588861938</DistanceMeters>
          </Trackpoint>
          <Trackpoint>
            <Time>2021-07-17T11:06:06.000Z</Time>
            <Position>
              <LatitudeDegrees>42.7182784862816333770751953125</LatitudeDegrees>
              <LongitudeDegrees>-0.23123935796320438385009765625</LongitudeDegrees>
            </Position>
            <AltitudeMeters>1623.4000244140625</AltitudeMeters>
            <DistanceMeters>5913.0588861938</DistanceMeters>
          </Trackpoint>
          <Trackpoint>
            <Time>2021-07-17T11:06:07.000Z</Time>
            <Position>
              <LatitudeDegrees>42.7182784862816333770751953125</LatitudeDegrees>
              <LongitudeDegrees>-0.23123935796320438385009765625</LongitudeDegrees>
            </Position>
            <AltitudeMeters>1623.4000244140625</AltitudeMeters>
            <DistanceMeters>5913.0588861938</DistanceMeters>
          </Trackpoint>
          <Trackpoint>
            <Time>2021-07-17T11:06:16.000Z</Time>
            <Position>
              <LatitudeDegrees>42.7182781510055065155029296875</LatitudeDegrees>
              <LongitudeDegrees>-0.231238938868045806884765625</LongitudeDegrees>
            </Position>
            <AltitudeMeters>1623.4000244140625</AltitudeMeters>
            <DistanceMeters>5913.0588861938</DistanceMeters>
          </Trackpoint>
          <Trackpoint>
            <Time>2021-07-17T11:06:17.000Z</Time>
            <Position>
              <LatitudeDegrees>42.7182781510055065155029296875</LatitudeDegrees>
              <LongitudeDegrees>-0.231238938868045806884765625</LongitudeDegrees>
            </Position>
            <AltitudeMeters>1623.4000244140625</AltitudeMeters>
            <DistanceMeters>5913.0588861938</DistanceMeters>
          </Trackpoint>
          <Trackpoint>
            <Time>2021-07-17T11:06:18.000Z</Time>
            <Position>
              <LatitudeDegrees>42.7182781510055065155029296875</LatitudeDegrees>
              <LongitudeDegrees>-0.231238938868045806884765625</LongitudeDegrees>
            </Position>
            <AltitudeMeters>1623.4000244140625</AltitudeMeters>
            <DistanceMeters>5913.0588861938</DistanceMeters>
          </Trackpoint>
          <Trackpoint>
            <Time>2021-07-17T11:06:19.000Z</Time>
            <Position>
              <LatitudeDegrees>42.7182781510055065155029296875</LatitudeDegrees>
              <LongitudeDegrees>-0.231238938868045806884765625</LongitudeDegrees>
            </Position>
            <AltitudeMeters>1623.4000244140625</AltitudeMeters>
            <DistanceMeters>5913.0588861938</DistanceMeters>
          </Trackpoint>
          <Trackpoint>
            <Time>2021-07-17T11:06:22.000Z</Time>
            <Position>
              <LatitudeDegrees>42.71827840246260166168212890625</LatitudeDegrees>
              <LongitudeDegrees>-0.231238268315792083740234375</LongitudeDegrees>
            </Position>
            <AltitudeMeters>1623.4000244140625</AltitudeMeters>
            <DistanceMeters>5913.0588861938</DistanceMeters>
          </Trackpoint>
          <Trackpoint>
            <Time>2021-07-17T11:06:25.000Z</Time>
            <Position>
              <LatitudeDegrees>42.71827898919582366943359375</LatitudeDegrees>
              <LongitudeDegrees>-0.23123717866837978363037109375</LongitudeDegrees>
            </Position>
            <AltitudeMeters>1623.4000244140625</AltitudeMeters>
            <DistanceMeters>5913.1932742621</DistanceMeters>
          </Trackpoint>
          <Trackpoint>
            <Time>2021-07-17T11:06:36.000Z</Time>
            <Position>
              <LatitudeDegrees>42.71828074939548969268798828125</LatitudeDegrees>
              <LongitudeDegrees>-0.23115285672247409820556640625</LongitudeDegrees>
            </Position>
            <AltitudeMeters>1625</AltitudeMeters>
            <DistanceMeters>5920.0917163224</DistanceMeters>
          </Trackpoint>
          <Trackpoint>
            <Time>2021-07-17T11:06:41.000Z</Time>
            <Position>
              <LatitudeDegrees>42.71827538497745990753173828125</LatitudeDegrees>
              <LongitudeDegrees>-0.23105763830244541168212890625</LongitudeDegrees>
            </Position>
            <AltitudeMeters>1627</AltitudeMeters>
            <DistanceMeters>5927.9012704904</DistanceMeters>
          </Trackpoint>
          <Trackpoint>
            <Time>2021-07-17T11:06:44.000Z</Time>
            <Position>
              <LatitudeDegrees>42.71826650016009807586669921875</LatitudeDegrees>
              <LongitudeDegrees>-0.23102939128875732421875</LongitudeDegrees>
            </Position>
            <AltitudeMeters>1627.5999755859375</AltitudeMeters>
            <DistanceMeters>5930.4154410317</DistanceMeters>
          </Trackpoint>
          <Trackpoint>
            <Time>2021-07-17T11:06:49.000Z</Time>
            <Position>
              <LatitudeDegrees>42.71823875606060028076171875</LatitudeDegrees>
              <LongitudeDegrees>-0.230968706309795379638671875</LongitudeDegrees>
            </Position>
            <AltitudeMeters>1628.800048828125</AltitudeMeters>
            <DistanceMeters>5936.2609358152</DistanceMeters>
          </Trackpoint>
          <Trackpoint>
            <Time>2021-07-17T11:06:54.000Z</Time>
            <Position>
              <LatitudeDegrees>42.71820313297212123870849609375</LatitudeDegrees>
              <LongitudeDegrees>-0.2309102006256580352783203125</LongitudeDegrees>
            </Position>
            <AltitudeMeters>1629.800048828125</AltitudeMeters>
            <DistanceMeters>5942.4748401332</DistanceMeters>
          </Trackpoint>
          <Trackpoint>
            <Time>2021-07-17T11:07:01.000Z</Time>
            <Position>
              <LatitudeDegrees>42.71813641302287578582763671875</LatitudeDegrees>
              <LongitudeDegrees>-0.230886228382587432861328125</LongitudeDegrees>
            </Position>
            <AltitudeMeters>1630.199951171875</AltitudeMeters>
            <DistanceMeters>5950.1549742032</DistanceMeters>
          </Trackpoint>
          <Trackpoint>
            <Time>2021-07-17T11:07:05.000Z</Time>
            <Position>
              <LatitudeDegrees>42.71811981685459613800048828125</LatitudeDegrees>
              <LongitudeDegrees>-0.23086317814886569976806640625</LongitudeDegrees>
            </Position>
            <AltitudeMeters>1630.4000244140625</AltitudeMeters>
            <DistanceMeters>5952.7952808169</DistanceMeters>
          </Trackpoint>
          <Trackpoint>
            <Time>2021-07-17T11:07:06.000Z</Time>
            <Position>
              <LatitudeDegrees>42.7181199006736278533935546875</LatitudeDegrees>
              <LongitudeDegrees>-0.23085781373083591461181640625</LongitudeDegrees>
            </Position>
            <AltitudeMeters>1630.5999755859375</AltitudeMeters>
            <DistanceMeters>5953.2307479286</DistanceMeters>
          </Trackpoint>
          <Trackpoint>
            <Time>2021-07-17T11:07:09.000Z</Time>
            <Position>
              <LatitudeDegrees>42.718104310333728790283203125</LatitudeDegrees>
              <LongitudeDegrees>-0.23085412569344043731689453125</LongitudeDegrees>
            </Position>
            <AltitudeMeters>1630.800048828125</AltitudeMeters>
            <DistanceMeters>5954.9906673075</DistanceMeters>
          </Trackpoint>
          <Trackpoint>
            <Time>2021-07-17T11:07:12.000Z</Time>
            <Position>
              <LatitudeDegrees>42.7180994488298892974853515625</LatitudeDegrees>
              <LongitudeDegrees>-0.23083333857357501983642578125</LongitudeDegrees>
            </Position>
            <AltitudeMeters>1631.199951171875</AltitudeMeters>
            <DistanceMeters>5956.7735265022</DistanceMeters>
          </Trackpoint>
          <Trackpoint>
            <Time>2021-07-17T11:07:17.000Z</Time>
            <Position>
              <LatitudeDegrees>42.71806868724524974822998046875</LatitudeDegrees>
              <LongitudeDegrees>-0.23079863749444484710693359375</LongitudeDegrees>
            </Position>
            <AltitudeMeters>1632.199951171875</AltitudeMeters>
            <DistanceMeters>5961.2205330698</DistanceMeters>
          </Trackpoint>
          <Trackpoint>
            <Time>2021-07-17T11:07:19.000Z</Time>
            <Position>
              <LatitudeDegrees>42.718059718608856201171875</LatitudeDegrees>
              <LongitudeDegrees>-0.230778940021991729736328125</LongitudeDegrees>
            </Position>
            <AltitudeMeters>1632.800048828125</AltitudeMeters>
            <DistanceMeters>5963.1163100674</DistanceMeters>
          </Trackpoint>
          <Trackpoint>
            <Time>2021-07-17T11:07:20.000Z</Time>
            <Position>
              <LatitudeDegrees>42.71805175580084323883056640625</LatitudeDegrees>
              <LongitudeDegrees>-0.2307754196226596832275390625</LongitudeDegrees>
            </Position>
            <AltitudeMeters>1633</AltitudeMeters>
            <DistanceMeters>5964.047377916</DistanceMeters>
          </Trackpoint>
          <Trackpoint>
            <Time>2021-07-17T11:07:23.000Z</Time>
            <Position>
              <LatitudeDegrees>42.71803130395710468292236328125</LatitudeDegrees>
              <LongitudeDegrees>-0.2307663671672344207763671875</LongitudeDegrees>
            </Position>
            <AltitudeMeters>1633.5999755859375</AltitudeMeters>
            <DistanceMeters>5966.4400894459</DistanceMeters>
          </Trackpoint>
          <Trackpoint>
            <Time>2021-07-17T11:07:29.000Z</Time>
            <Position>
              <LatitudeDegrees>42.7179961837828159332275390625</LatitudeDegrees>
              <LongitudeDegrees>-0.23074164055287837982177734375</LongitudeDegrees>
            </Position>
            <AltitudeMeters>1634.800048828125</AltitudeMeters>
            <DistanceMeters>5970.8421962198</DistanceMeters>
          </Trackpoint>
          <Trackpoint>
            <Time>2021-07-17T11:07:40.000Z</Time>
            <Position>
              <LatitudeDegrees>42.71794396452605724334716796875</LatitudeDegrees>
              <LongitudeDegrees>-0.23067290894687175750732421875</LongitudeDegrees>
            </Position>
            <AltitudeMeters>1637</AltitudeMeters>
            <DistanceMeters>5978.927847304</DistanceMeters>
          </Trackpoint>
          <Trackpoint>
            <Time>2021-07-17T11:07:49.000Z</Time>
            <Position>
              <LatitudeDegrees>42.71790389902889728546142578125</LatitudeDegrees>
              <LongitudeDegrees>-0.23061700165271759033203125</LongitudeDegrees>
            </Position>
            <AltitudeMeters>1637.800048828125</AltitudeMeters>
            <DistanceMeters>5985.3137556357</DistanceMeters>
          </Trackpoint>
          <Trackpoint>
            <Time>2021-07-17T11:07:56.000Z</Time>
            <Position>
              <LatitudeDegrees>42.71786861121654510498046875</LatitudeDegrees>
              <LongitudeDegrees>-0.230584479868412017822265625</LongitudeDegrees>
            </Position>
            <AltitudeMeters>1638.199951171875</AltitudeMeters>
            <DistanceMeters>5990.0565312388</DistanceMeters>
          </Trackpoint>
          <Trackpoint>
            <Time>2021-07-17T11:07:59.000Z</Time>
            <Position>
              <LatitudeDegrees>42.717855870723724365234375</LatitudeDegrees>
              <LongitudeDegrees>-0.23056595586240291595458984375</LongitudeDegrees>
            </Position>
            <AltitudeMeters>1638.5999755859375</AltitudeMeters>
            <DistanceMeters>5992.1319460079</DistanceMeters>
          </Trackpoint>
          <Trackpoint>
            <Time>2021-07-17T11:08:08.000Z</Time>
            <Position>
              <LatitudeDegrees>42.71783164702355861663818359375</LatitudeDegrees>
              <LongitudeDegrees>-0.2305108867585659027099609375</LongitudeDegrees>
            </Position>
            <AltitudeMeters>1639.199951171875</AltitudeMeters>
            <DistanceMeters>5997.3816882213</DistanceMeters>
          </Trackpoint>
          <Trackpoint>
            <Time>2021-07-17T11:08:11.000Z</Time>
            <Position>
              <LatitudeDegrees>42.71782678551971912384033203125</LatitudeDegrees>
              <LongitudeDegrees>-0.23050460033118724822998046875</LongitudeDegrees>
            </Position>
            <AltitudeMeters>1639.4000244140625</AltitudeMeters>
            <DistanceMeters>5998.1299293185</DistanceMeters>
          </Trackpoint>
          <Trackpoint>
            <Time>2021-07-17T11:08:19.000Z</Time>
            <Position>
              <LatitudeDegrees>42.71783701144158840179443359375</LatitudeDegrees>
              <LongitudeDegrees>-0.230478532612323760986328125</LongitudeDegrees>
            </Position>
            <AltitudeMeters>1639</AltitudeMeters>
            <DistanceMeters>6000.5470473254</DistanceMeters>
          </Trackpoint>
          <Trackpoint>
            <Time>2021-07-17T11:08:56.000Z</Time>
            <Position>
              <LatitudeDegrees>42.71779795177280902862548828125</LatitudeDegrees>
              <LongitudeDegrees>-0.230327658355236053466796875</LongitudeDegrees>
            </Position>
            <AltitudeMeters>1642.4000244140625</AltitudeMeters>
            <DistanceMeters>6013.6283297018</DistanceMeters>
          </Trackpoint>
          <Trackpoint>
            <Time>2021-07-17T11:09:11.000Z</Time>
            <Position>
              <LatitudeDegrees>42.71779350936412811279296875</LatitudeDegrees>
              <LongitudeDegrees>-0.23014895617961883544921875</LongitudeDegrees>
            </Position>
            <AltitudeMeters>1644.4000244140625</AltitudeMeters>
            <DistanceMeters>6028.2494797843</DistanceMeters>
          </Trackpoint>
          <Trackpoint>
            <Time>2021-07-17T11:09:18.000Z</Time>
            <Position>
              <LatitudeDegrees>42.71777347661554813385009765625</LatitudeDegrees>
              <LongitudeDegrees>-0.23007594980299472808837890625</LongitudeDegrees>
            </Position>
            <AltitudeMeters>1646.199951171875</AltitudeMeters>
            <DistanceMeters>6034.6226488426</DistanceMeters>
          </Trackpoint>
          <Trackpoint>
            <Time>2021-07-17T11:09:25.000Z</Time>
            <Position>
              <LatitudeDegrees>42.71775336004793643951416015625</LatitudeDegrees>
              <LongitudeDegrees>-0.23006019182503223419189453125</LongitudeDegrees>
            </Position>
            <AltitudeMeters>1647.199951171875</AltitudeMeters>
            <DistanceMeters>6037.2059077324</DistanceMeters>
          </Trackpoint>
          <Trackpoint>
            <Time>2021-07-17T11:09:33.000Z</Time>
            <Position>
              <LatitudeDegrees>42.71772838197648525238037109375</LatitudeDegrees>
              <LongitudeDegrees>-0.230028927326202392578125</LongitudeDegrees>
            </Position>
            <AltitudeMeters>1648.4000244140625</AltitudeMeters>
            <DistanceMeters>6040.9831449214</DistanceMeters>
          </Trackpoint>
          <Trackpoint>
            <Time>2021-07-17T11:09:40.000Z</Time>
            <Position>
              <LatitudeDegrees>42.71768563427031040191650390625</LatitudeDegrees>
              <LongitudeDegrees>-0.2300133369863033294677734375</LongitudeDegrees>
            </Position>
            <AltitudeMeters>1650</AltitudeMeters>
            <DistanceMeters>6045.9089763644</DistanceMeters>
          </Trackpoint>
          <Trackpoint>
            <Time>2021-07-17T11:09:48.000Z</Time>
            <Position>
              <LatitudeDegrees>42.717619836330413818359375</LatitudeDegrees>
              <LongitudeDegrees>-0.2299690805375576019287109375</LongitudeDegrees>
            </Position>
            <AltitudeMeters>1652.5999755859375</AltitudeMeters>
            <DistanceMeters>6054.0768527572</DistanceMeters>
          </Trackpoint>
          <Trackpoint>
            <Time>2021-07-17T11:09:53.000Z</Time>
            <Position>
              <LatitudeDegrees>42.71760835312306880950927734375</LatitudeDegrees>
              <LongitudeDegrees>-0.2299479581415653228759765625</LongitudeDegrees>
            </Position>
            <AltitudeMeters>1653.199951171875</AltitudeMeters>
            <DistanceMeters>6056.2228581128</DistanceMeters>
          </Trackpoint>
          <Trackpoint>
            <Time>2021-07-17T11:10:02.000Z</Time>
            <Position>
              <LatitudeDegrees>42.71761472336947917938232421875</LatitudeDegrees>
              <LongitudeDegrees>-0.22988475859165191650390625</LongitudeDegrees>
            </Position>
            <AltitudeMeters>1654.199951171875</AltitudeMeters>
            <DistanceMeters>6061.4398160772</DistanceMeters>
          </Trackpoint>
          <Trackpoint>
            <Time>2021-07-17T11:10:11.000Z</Time>
            <Position>
              <LatitudeDegrees>42.7176173217594623565673828125</LatitudeDegrees>
              <LongitudeDegrees>-0.22982801310718059539794921875</LongitudeDegrees>
            </Position>
            <AltitudeMeters>1655.4000244140625</AltitudeMeters>
            <DistanceMeters>6066.0903034799</DistanceMeters>
          </Trackpoint>
          <Trackpoint>
            <Time>2021-07-17T11:10:14.000Z</Time>
            <Position>
              <LatitudeDegrees>42.71760919131338596343994140625</LatitudeDegrees>
              <LongitudeDegrees>-0.22980538196861743927001953125</LongitudeDegrees>
            </Position>
            <AltitudeMeters>1656.199951171875</AltitudeMeters>
            <DistanceMeters>6068.1504335556</DistanceMeters>
          </Trackpoint>
          <Trackpoint>
            <Time>2021-07-17T11:10:20.000Z</Time>
            <Position>
              <LatitudeDegrees>42.71757633425295352935791015625</LatitudeDegrees>
              <LongitudeDegrees>-0.229786522686481475830078125</LongitudeDegrees>
            </Position>
            <AltitudeMeters>1658</AltitudeMeters>
            <DistanceMeters>6072.1188656538</DistanceMeters>
          </Trackpoint>
          <Trackpoint>
            <Time>2021-07-17T11:10:26.000Z</Time>
            <Position>
              <LatitudeDegrees>42.71755856461822986602783203125</LatitudeDegrees>
              <LongitudeDegrees>-0.2297580242156982421875</LongitudeDegrees>
            </Position>
            <AltitudeMeters>1659.4000244140625</AltitudeMeters>
            <DistanceMeters>6075.1745323639</DistanceMeters>
          </Trackpoint>
          <Trackpoint>
            <Time>2021-07-17T11:10:35.000Z</Time>
            <Position>
              <LatitudeDegrees>42.717573903501033782958984375</LatitudeDegrees>
              <LongitudeDegrees>-0.2296976745128631591796875</LongitudeDegrees>
            </Position>
            <AltitudeMeters>1660.199951171875</AltitudeMeters>
            <DistanceMeters>6080.3966804718</DistanceMeters>
          </Trackpoint>
          <Trackpoint>
            <Time>2021-07-17T11:10:44.000Z</Time>
            <Position>
              <LatitudeDegrees>42.7176018990576267242431640625</LatitudeDegrees>
              <LongitudeDegrees>-0.22962349466979503631591796875</LongitudeDegrees>
            </Position>
            <AltitudeMeters>1661</AltitudeMeters>
            <DistanceMeters>6087.2161301333</DistanceMeters>
          </Trackpoint>
          <Trackpoint>
            <Time>2021-07-17T11:10:52.000Z</Time>
            <Position>
              <LatitudeDegrees>42.71765001118183135986328125</LatitudeDegrees>
              <LongitudeDegrees>-0.2296086587011814117431640625</LongitudeDegrees>
            </Position>
            <AltitudeMeters>1659.5999755859375</AltitudeMeters>
            <DistanceMeters>6092.7071614797</DistanceMeters>
          </Trackpoint>
          <Trackpoint>
            <Time>2021-07-17T11:11:02.000Z</Time>
            <Position>
              <LatitudeDegrees>42.71768948994576930999755859375</LatitudeDegrees>
              <LongitudeDegrees>-0.22954135201871395111083984375</LongitudeDegrees>
            </Position>
            <AltitudeMeters>1659.5999755859375</AltitudeMeters>
            <DistanceMeters>6099.7506861643</DistanceMeters>
          </Trackpoint>
          <Trackpoint>
            <Time>2021-07-17T11:11:10.000Z</Time>
            <Position>
              <LatitudeDegrees>42.71769016049802303314208984375</LatitudeDegrees>
              <LongitudeDegrees>-0.22947848774492740631103515625</LongitudeDegrees>
            </Position>
            <AltitudeMeters>1660.800048828125</AltitudeMeters>
            <DistanceMeters>6104.8926764237</DistanceMeters>
          </Trackpoint>
          <Trackpoint>
            <Time>2021-07-17T11:11:18.000Z</Time>
            <Position>
              <LatitudeDegrees>42.71769963204860687255859375</LatitudeDegrees>
              <LongitudeDegrees>-0.2294242568314075469970703125</LongitudeDegrees>
            </Position>
            <AltitudeMeters>1661.5999755859375</AltitudeMeters>
            <DistanceMeters>6109.4519785604</DistanceMeters>
          </Trackpoint>
          <Trackpoint>
            <Time>2021-07-17T11:11:30.000Z</Time>
            <Position>
              <LatitudeDegrees>42.7177202515304088592529296875</LatitudeDegrees>
              <LongitudeDegrees>-0.22932593710720539093017578125</LongitudeDegrees>
            </Position>
            <AltitudeMeters>1663</AltitudeMeters>
            <DistanceMeters>6117.8132495062</DistanceMeters>
          </Trackpoint>
          <Trackpoint>
            <Time>2021-07-17T11:11:37.000Z</Time>
            <Position>
              <LatitudeDegrees>42.71771228872239589691162109375</LatitudeDegrees>
              <LongitudeDegrees>-0.22927514277398586273193359375</LongitudeDegrees>
            </Position>
            <AltitudeMeters>1664.800048828125</AltitudeMeters>
            <DistanceMeters>6122.060847973</DistanceMeters>
          </Trackpoint>
          <Trackpoint>
            <Time>2021-07-17T11:11:46.000Z</Time>
            <Position>
              <LatitudeDegrees>42.71770994178950786590576171875</LatitudeDegrees>
              <LongitudeDegrees>-0.22920674644410610198974609375</LongitudeDegrees>
            </Position>
            <AltitudeMeters>1666.5999755859375</AltitudeMeters>
            <DistanceMeters>6127.6601716298</DistanceMeters>
          </Trackpoint>
          <Trackpoint>
            <Time>2021-07-17T11:11:52.000Z</Time>
            <Position>
              <LatitudeDegrees>42.71771170198917388916015625</LatitudeDegrees>
              <LongitudeDegrees>-0.22916533984243869781494140625</LongitudeDegrees>
            </Position>
            <AltitudeMeters>1667.199951171875</AltitudeMeters>
            <DistanceMeters>6131.051973126</DistanceMeters>
          </Trackpoint>
          <Trackpoint>
            <Time>2021-07-17T11:12:03.000Z</Time>
            <Position>
              <LatitudeDegrees>42.71771815605461597442626953125</LatitudeDegrees>
              <LongitudeDegrees>-0.22909107618033885955810546875</LongitudeDegrees>
            </Position>
            <AltitudeMeters>1668.199951171875</AltitudeMeters>
            <DistanceMeters>6137.167737725</DistanceMeters>
          </Trackpoint>
          <Trackpoint>
            <Time>2021-07-17T11:12:14.000Z</Time>
            <Position>
              <LatitudeDegrees>42.7177135460078716278076171875</LatitudeDegrees>
              <LongitudeDegrees>-0.229024775326251983642578125</LongitudeDegrees>
            </Position>
            <AltitudeMeters>1670.199951171875</AltitudeMeters>
            <DistanceMeters>6142.6133571611</DistanceMeters>
          </Trackpoint>
          <Trackpoint>
            <Time>2021-07-17T11:12:22.000Z</Time>
            <Position>
              <LatitudeDegrees>42.71775461733341217041015625</LatitudeDegrees>
              <LongitudeDegrees>-0.22899049334228038787841796875</LongitudeDegrees>
            </Position>
            <AltitudeMeters>1670.4000244140625</AltitudeMeters>
            <DistanceMeters>6147.9762662106</DistanceMeters>
          </Trackpoint>
          <Trackpoint>
            <Time>2021-07-17T11:12:30.000Z</Time>
            <Position>
              <LatitudeDegrees>42.71776626817882061004638671875</LatitudeDegrees>
              <LongitudeDegrees>-0.2289454825222492218017578125</LongitudeDegrees>
            </Position>
            <AltitudeMeters>1671.4000244140625</AltitudeMeters>
            <DistanceMeters>6151.8781515094</DistanceMeters>
          </Trackpoint>
          <Trackpoint>
            <Time>2021-07-17T11:12:36.000Z</Time>
            <Position>
              <LatitudeDegrees>42.7177715487778186798095703125</LatitudeDegrees>
              <LongitudeDegrees>-0.22890332154929637908935546875</LongitudeDegrees>
            </Position>
            <AltitudeMeters>1672.5999755859375</AltitudeMeters>
            <DistanceMeters>6155.3774062383</DistanceMeters>
          </Trackpoint>
          <Trackpoint>
            <Time>2021-07-17T11:12:43.000Z</Time>
            <Position>
              <LatitudeDegrees>42.71778001450002193450927734375</LatitudeDegrees>
              <LongitudeDegrees>-0.22884406149387359619140625</LongitudeDegrees>
            </Position>
            <AltitudeMeters>1674</AltitudeMeters>
            <DistanceMeters>6160.3151391593</DistanceMeters>
          </Trackpoint>
          <Trackpoint>
            <Time>2021-07-17T11:12:48.000Z</Time>
            <Position>
              <LatitudeDegrees>42.71777330897748470306396484375</LatitudeDegrees>
              <LongitudeDegrees>-0.22880692966282367706298828125</LongitudeDegrees>
            </Position>
            <AltitudeMeters>1674.800048828125</AltitudeMeters>
            <DistanceMeters>6163.4423700092</DistanceMeters>
          </Trackpoint>
          <Trackpoint>
            <Time>2021-07-17T11:12:53.000Z</Time>
            <Position>
              <LatitudeDegrees>42.717754952609539031982421875</LatitudeDegrees>
              <LongitudeDegrees>-0.2287795208394527435302734375</LongitudeDegrees>
            </Position>
            <AltitudeMeters>1675.5999755859375</AltitudeMeters>
            <DistanceMeters>6166.4772798881</DistanceMeters>
          </Trackpoint>
          <Trackpoint>
            <Time>2021-07-17T11:13:06.000Z</Time>
            <Position>
              <LatitudeDegrees>42.7177111990749835968017578125</LatitudeDegrees>
              <LongitudeDegrees>-0.228790752589702606201171875</LongitudeDegrees>
            </Position>
            <AltitudeMeters>1675.800048828125</AltitudeMeters>
            <DistanceMeters>6171.4332669671</DistanceMeters>
          </Trackpoint>
          <Trackpoint>
            <Time>2021-07-17T11:13:18.000Z</Time>
            <Position>
              <LatitudeDegrees>42.7177111990749835968017578125</LatitudeDegrees>
              <LongitudeDegrees>-0.22879586555063724517822265625</LongitudeDegrees>
            </Position>
            <AltitudeMeters>1675.5999755859375</AltitudeMeters>
            <DistanceMeters>6171.8582393531</DistanceMeters>
          </Trackpoint>
          <Trackpoint>
            <Time>2021-07-17T11:13:23.000Z</Time>
            <Position>
              <LatitudeDegrees>42.71770809777081012725830078125</LatitudeDegrees>
              <LongitudeDegrees>-0.22877893410623073577880859375</LongitudeDegrees>
            </Position>
            <AltitudeMeters>1676</AltitudeMeters>
            <DistanceMeters>6173.2836400687</DistanceMeters>
          </Trackpoint>
          <Trackpoint>
            <Time>2021-07-17T11:13:26.000Z</Time>
            <Position>
              <LatitudeDegrees>42.71769703365862369537353515625</LatitudeDegrees>
              <LongitudeDegrees>-0.2287369407713413238525390625</LongitudeDegrees>
            </Position>
            <AltitudeMeters>1677</AltitudeMeters>
            <DistanceMeters>6176.9319729316</DistanceMeters>
          </Trackpoint>
          <Trackpoint>
            <Time>2021-07-17T11:13:29.000Z</Time>
            <Position>
              <LatitudeDegrees>42.71769049577414989471435546875</LatitudeDegrees>
              <LongitudeDegrees>-0.22869830019772052764892578125</LongitudeDegrees>
            </Position>
            <AltitudeMeters>1677.5999755859375</AltitudeMeters>
            <DistanceMeters>6180.1740415583</DistanceMeters>
          </Trackpoint>
          <Trackpoint>
            <Time>2021-07-17T11:13:33.000Z</Time>
            <Position>
              <LatitudeDegrees>42.71769250743091106414794921875</LatitudeDegrees>
              <LongitudeDegrees>-0.22865228354930877685546875</LongitudeDegrees>
            </Position>
            <AltitudeMeters>1678.5999755859375</AltitudeMeters>
            <DistanceMeters>6183.9440999561</DistanceMeters>
          </Trackpoint>
          <Trackpoint>
            <Time>2021-07-17T11:13:43.000Z</Time>
            <Position>
              <LatitudeDegrees>42.7177070081233978271484375</LatitudeDegrees>
              <LongitudeDegrees>-0.22854608483612537384033203125</LongitudeDegrees>
            </Position>
            <AltitudeMeters>1681.199951171875</AltitudeMeters>
            <DistanceMeters>6192.7774962765</DistanceMeters>
          </Trackpoint>
          <Trackpoint>
            <Time>2021-07-17T11:13:44.000Z</Time>
            <Position>
              <LatitudeDegrees>42.7177011407911777496337890625</LatitudeDegrees>
              <LongitudeDegrees>-0.22853560745716094970703125</LongitudeDegrees>
            </Position>
            <AltitudeMeters>1681.4000244140625</AltitudeMeters>
            <DistanceMeters>6193.860967521</DistanceMeters>
          </Trackpoint>
          <Trackpoint>
            <Time>2021-07-17T11:13:54.000Z</Time>
            <Position>
              <LatitudeDegrees>42.71767037920653820037841796875</LatitudeDegrees>
              <LongitudeDegrees>-0.2284402213990688323974609375</LongitudeDegrees>
            </Position>
            <AltitudeMeters>1684.800048828125</AltitudeMeters>
            <DistanceMeters>6202.3800475406</DistanceMeters>
          </Trackpoint>
          <Trackpoint>
            <Time>2021-07-17T11:14:06.000Z</Time>
            <Position>
              <LatitudeDegrees>42.717602066695690155029296875</LatitudeDegrees>
              <LongitudeDegrees>-0.22832346148788928985595703125</LongitudeDegrees>
            </Position>
            <AltitudeMeters>1686.199951171875</AltitudeMeters>
            <DistanceMeters>6214.5857102089</DistanceMeters>
          </Trackpoint>
          <Trackpoint>
            <Time>2021-07-17T11:14:14.000Z</Time>
            <Position>
              <LatitudeDegrees>42.7175438962876796722412109375</LatitudeDegrees>
              <LongitudeDegrees>-0.22827702574431896209716796875</LongitudeDegrees>
            </Position>
            <AltitudeMeters>1687.199951171875</AltitudeMeters>
            <DistanceMeters>6222.0910161225</DistanceMeters>
          </Trackpoint>
          <Trackpoint>
            <Time>2021-07-17T11:14:20.000Z</Time>
            <Position>
              <LatitudeDegrees>42.7175395376980304718017578125</LatitudeDegrees>
              <LongitudeDegrees>-0.22824601270258426666259765625</LongitudeDegrees>
            </Position>
            <AltitudeMeters>1688.199951171875</AltitudeMeters>
            <DistanceMeters>6224.6725266136</DistanceMeters>
          </Trackpoint>
          <Trackpoint>
            <Time>2021-07-17T11:14:28.000Z</Time>
            <Position>
              <LatitudeDegrees>42.71752721630036830902099609375</LatitudeDegrees>
              <LongitudeDegrees>-0.22817862220108509063720703125</LongitudeDegrees>
            </Position>
            <AltitudeMeters>1690.199951171875</AltitudeMeters>
            <DistanceMeters>6230.3511182508</DistanceMeters>
          </Trackpoint>
          <Trackpoint>
            <Time>2021-07-17T11:14:37.000Z</Time>
            <Position>
              <LatitudeDegrees>42.71752755157649517059326171875</LatitudeDegrees>
              <LongitudeDegrees>-0.228110812604427337646484375</LongitudeDegrees>
            </Position>
            <AltitudeMeters>1691.5999755859375</AltitudeMeters>
            <DistanceMeters>6235.8953386843</DistanceMeters>
          </Trackpoint>
          <Trackpoint>
            <Time>2021-07-17T11:14:44.000Z</Time>
            <Position>
              <LatitudeDegrees>42.71749955601990222930908203125</LatitudeDegrees>
              <LongitudeDegrees>-0.22805415093898773193359375</LongitudeDegrees>
            </Position>
            <AltitudeMeters>1694</AltitudeMeters>
            <DistanceMeters>6241.4785119652</DistanceMeters>
          </Trackpoint>
          <Trackpoint>
            <Time>2021-07-17T11:14:48.000Z</Time>
            <Position>
              <LatitudeDegrees>42.717502824962139129638671875</LatitudeDegrees>
              <LongitudeDegrees>-0.2280186116695404052734375</LongitudeDegrees>
            </Position>
            <AltitudeMeters>1694.4000244140625</AltitudeMeters>
            <DistanceMeters>6244.4074320088</DistanceMeters>
          </Trackpoint>
          <Trackpoint>
            <Time>2021-07-17T11:14:52.000Z</Time>
            <Position>
              <LatitudeDegrees>42.71750005893409252166748046875</LatitudeDegrees>
              <LongitudeDegrees>-0.227985419332981109619140625</LongitudeDegrees>
            </Position>
            <AltitudeMeters>1694.800048828125</AltitudeMeters>
            <DistanceMeters>6247.1418246828</DistanceMeters>
          </Trackpoint>
          <Trackpoint>
            <Time>2021-07-17T11:14:58.000Z</Time>
            <Position>
              <LatitudeDegrees>42.71749452687799930572509765625</LatitudeDegrees>
              <LongitudeDegrees>-0.22793068550527095794677734375</LongitudeDegrees>
            </Position>
            <AltitudeMeters>1696.800048828125</AltitudeMeters>
            <DistanceMeters>6251.660342453</DistanceMeters>
          </Trackpoint>
          <Trackpoint>
            <Time>2021-07-17T11:15:04.000Z</Time>
            <Position>
              <LatitudeDegrees>42.7174969576299190521240234375</LatitudeDegrees>
              <LongitudeDegrees>-0.2278863452374935150146484375</LongitudeDegrees>
            </Position>
            <AltitudeMeters>1698</AltitudeMeters>
            <DistanceMeters>6255.2962786342</DistanceMeters>
          </Trackpoint>
          <Trackpoint>
            <Time>2021-07-17T11:15:11.000Z</Time>
            <Position>
              <LatitudeDegrees>42.71752201952040195465087890625</LatitudeDegrees>
              <LongitudeDegrees>-0.227836556732654571533203125</LongitudeDegrees>
            </Position>
            <AltitudeMeters>1698.800048828125</AltitudeMeters>
            <DistanceMeters>6260.2321824264</DistanceMeters>
          </Trackpoint>
          <Trackpoint>
            <Time>2021-07-17T11:15:19.000Z</Time>
            <Position>
              <LatitudeDegrees>42.71752260625362396240234375</LatitudeDegrees>
              <LongitudeDegrees>-0.2277834154665470123291015625</LongitudeDegrees>
            </Position>
            <AltitudeMeters>1700.5999755859375</AltitudeMeters>
            <DistanceMeters>6264.5785510165</DistanceMeters>
          </Trackpoint>
          <Trackpoint>
            <Time>2021-07-17T11:15:33.000Z</Time>
            <Position>
              <LatitudeDegrees>42.71745496429502964019775390625</LatitudeDegrees>
              <LongitudeDegrees>-0.2277998439967632293701171875</LongitudeDegrees>
            </Position>
            <AltitudeMeters>1702.199951171875</AltitudeMeters>
            <DistanceMeters>6272.2268733949</DistanceMeters>
          </Trackpoint>
          <Trackpoint>
            <Time>2021-07-17T11:15:47.000Z</Time>
            <Position>
              <LatitudeDegrees>42.7174496836960315704345703125</LatitudeDegrees>
              <LongitudeDegrees>-0.22779406048357486724853515625</LongitudeDegrees>
            </Position>
            <AltitudeMeters>1702.4000244140625</AltitudeMeters>
            <DistanceMeters>6272.9870871098</DistanceMeters>
          </Trackpoint>
          <Trackpoint>
            <Time>2021-07-17T11:15:54.000Z</Time>
            <Position>
              <LatitudeDegrees>42.71744993515312671661376953125</LatitudeDegrees>
              <LongitudeDegrees>-0.2277938090264797210693359375</LongitudeDegrees>
            </Position>
            <AltitudeMeters>1702.4000244140625</AltitudeMeters>
            <DistanceMeters>6272.9870871098</DistanceMeters>
          </Trackpoint>
          <Trackpoint>
            <Time>2021-07-17T11:15:56.000Z</Time>
            <Position>
              <LatitudeDegrees>42.71744993515312671661376953125</LatitudeDegrees>
              <LongitudeDegrees>-0.2277931384742259979248046875</LongitudeDegrees>
            </Position>
            <AltitudeMeters>1702.4000244140625</AltitudeMeters>
            <DistanceMeters>6273.1214751781</DistanceMeters>
          </Trackpoint>
          <Trackpoint>
            <Time>2021-07-17T11:16:08.000Z</Time>
            <Position>
              <LatitudeDegrees>42.71743820048868656158447265625</LatitudeDegrees>
              <LongitudeDegrees>-0.2277341298758983612060546875</LongitudeDegrees>
            </Position>
            <AltitudeMeters>1704</AltitudeMeters>
            <DistanceMeters>6278.1210003152</DistanceMeters>
          </Trackpoint>
          <Trackpoint>
            <Time>2021-07-17T11:16:21.000Z</Time>
            <Position>
              <LatitudeDegrees>42.7174226939678192138671875</LatitudeDegrees>
              <LongitudeDegrees>-0.2276332117617130279541015625</LongitudeDegrees>
            </Position>
            <AltitudeMeters>1707</AltitudeMeters>
            <DistanceMeters>6286.5521782736</DistanceMeters>
          </Trackpoint>
          <Trackpoint>
            <Time>2021-07-17T11:16:34.000Z</Time>
            <Position>
              <LatitudeDegrees>42.71740601398050785064697265625</LatitudeDegrees>
              <LongitudeDegrees>-0.22755349986255168914794921875</LongitudeDegrees>
            </Position>
            <AltitudeMeters>1709.5999755859375</AltitudeMeters>
            <DistanceMeters>6293.3291221862</DistanceMeters>
          </Trackpoint>
          <Trackpoint>
            <Time>2021-07-17T11:17:32.000Z</Time>
            <Position>
              <LatitudeDegrees>42.71741674281656742095947265625</LatitudeDegrees>
              <LongitudeDegrees>-0.22719710133969783782958984375</LongitudeDegrees>
            </Position>
            <AltitudeMeters>1718.4000244140625</AltitudeMeters>
            <DistanceMeters>6322.4978349201</DistanceMeters>
          </Trackpoint>
          <Trackpoint>
            <Time>2021-07-17T11:18:08.000Z</Time>
            <Position>
              <LatitudeDegrees>42.71726670674979686737060546875</LatitudeDegrees>
              <LongitudeDegrees>-0.2272050641477108001708984375</LongitudeDegrees>
            </Position>
            <AltitudeMeters>1722.199951171875</AltitudeMeters>
            <DistanceMeters>6339.2101137716</DistanceMeters>
          </Trackpoint>
          <Trackpoint>
            <Time>2021-07-17T11:18:18.000Z</Time>
            <Position>
              <LatitudeDegrees>42.717194370925426483154296875</LatitudeDegrees>
              <LongitudeDegrees>-0.2273297868669033050537109375</LongitudeDegrees>
            </Position>
            <AltitudeMeters>1722.199951171875</AltitudeMeters>
            <DistanceMeters>6352.2041265986</DistanceMeters>
          </Trackpoint>
          <Trackpoint>
            <Time>2021-07-17T11:18:26.000Z</Time>
            <Position>
              <LatitudeDegrees>42.7171885035932064056396484375</LatitudeDegrees>
              <LongitudeDegrees>-0.22735216654837131500244140625</LongitudeDegrees>
            </Position>
            <AltitudeMeters>1721.800048828125</AltitudeMeters>
            <DistanceMeters>6354.1469523638</DistanceMeters>
          </Trackpoint>
          <Trackpoint>
            <Time>2021-07-17T11:18:35.000Z</Time>
            <Position>
              <LatitudeDegrees>42.7171754278242588043212890625</LatitudeDegrees>
              <LongitudeDegrees>-0.22738250903785228729248046875</LongitudeDegrees>
            </Position>
            <AltitudeMeters>1721.5999755859375</AltitudeMeters>
            <DistanceMeters>6357.0261206769</DistanceMeters>
          </Trackpoint>
          <Trackpoint>
            <Time>2021-07-17T11:18:36.000Z</Time>
            <Position>
              <LatitudeDegrees>42.7171683870255947113037109375</LatitudeDegrees>
              <LongitudeDegrees>-0.22738133557140827178955078125</LongitudeDegrees>
            </Position>
            <AltitudeMeters>1722</AltitudeMeters>
            <DistanceMeters>6357.8097310381</DistanceMeters>
          </Trackpoint>
          <Trackpoint>
            <Time>2021-07-17T11:18:44.000Z</Time>
            <Position>
              <LatitudeDegrees>42.71714047528803348541259765625</LatitudeDegrees>
              <LongitudeDegrees>-0.2274250052869319915771484375</LongitudeDegrees>
            </Position>
            <AltitudeMeters>1722.199951171875</AltitudeMeters>
            <DistanceMeters>6362.5420232503</DistanceMeters>
          </Trackpoint>
          <Trackpoint>
            <Time>2021-07-17T11:18:52.000Z</Time>
            <Position>
              <LatitudeDegrees>42.717111892998218536376953125</LatitudeDegrees>
              <LongitudeDegrees>-0.22748175077140331268310546875</LongitudeDegrees>
            </Position>
            <AltitudeMeters>1722.5999755859375</AltitudeMeters>
            <DistanceMeters>6368.1686961582</DistanceMeters>
          </Trackpoint>
          <Trackpoint>
            <Time>2021-07-17T11:18:58.000Z</Time>
            <Position>
              <LatitudeDegrees>42.71708850748836994171142578125</LatitudeDegrees>
              <LongitudeDegrees>-0.227491557598114013671875</LongitudeDegrees>
            </Position>
            <AltitudeMeters>1723.4000244140625</AltitudeMeters>
            <DistanceMeters>6370.8931635991</DistanceMeters>
          </Trackpoint>
          <Trackpoint>
            <Time>2021-07-17T11:19:11.000Z</Time>
            <Position>
              <LatitudeDegrees>42.717081718146800994873046875</LatitudeDegrees>
              <LongitudeDegrees>-0.22754897363483905792236328125</LongitudeDegrees>
            </Position>
            <AltitudeMeters>1722.800048828125</AltitudeMeters>
            <DistanceMeters>6375.6501975036</DistanceMeters>
          </Trackpoint>
          <Trackpoint>
            <Time>2021-07-17T11:19:20.000Z</Time>
            <Position>
              <LatitudeDegrees>42.717066295444965362548828125</LatitudeDegrees>
              <LongitudeDegrees>-0.2275825850665569305419921875</LongitudeDegrees>
            </Position>
            <AltitudeMeters>1723</AltitudeMeters>
            <DistanceMeters>6378.8922661304</DistanceMeters>
          </Trackpoint>
          <Trackpoint>
            <Time>2021-07-17T11:19:29.000Z</Time>
            <Position>
              <LatitudeDegrees>42.717032097280025482177734375</LatitudeDegrees>
              <LongitudeDegrees>-0.22764922119677066802978515625</LongitudeDegrees>
            </Position>
            <AltitudeMeters>1723.5999755859375</AltitudeMeters>
            <DistanceMeters>6385.5387038202</DistanceMeters>
          </Trackpoint>
          <Trackpoint>
            <Time>2021-07-17T11:19:39.000Z</Time>
            <Position>
              <LatitudeDegrees>42.71698373369872570037841796875</LatitudeDegrees>
              <LongitudeDegrees>-0.2276865206658840179443359375</LongitudeDegrees>
            </Position>
            <AltitudeMeters>1725.199951171875</AltitudeMeters>
            <DistanceMeters>6391.7256654368</DistanceMeters>
          </Trackpoint>
          <Trackpoint>
            <Time>2021-07-17T11:19:48.000Z</Time>
            <Position>
              <LatitudeDegrees>42.7169296704232692718505859375</LatitudeDegrees>
              <LongitudeDegrees>-0.22767855785787105560302734375</LongitudeDegrees>
            </Position>
            <AltitudeMeters>1727.800048828125</AltitudeMeters>
            <DistanceMeters>6397.7776064525</DistanceMeters>
          </Trackpoint>
          <Trackpoint>
            <Time>2021-07-17T11:20:00.000Z</Time>
            <Position>
              <LatitudeDegrees>42.7169045247137546539306640625</LatitudeDegrees>
              <LongitudeDegrees>-0.22760043852031230926513671875</LongitudeDegrees>
            </Position>
            <AltitudeMeters>1730.199951171875</AltitudeMeters>
            <DistanceMeters>6404.7515573934</DistanceMeters>
          </Trackpoint>
          <Trackpoint>
            <Time>2021-07-17T11:20:10.000Z</Time>
            <Position>
              <LatitudeDegrees>42.71689631044864654541015625</LatitudeDegrees>
              <LongitudeDegrees>-0.2275165356695652008056640625</LongitudeDegrees>
            </Position>
            <AltitudeMeters>1731.800048828125</AltitudeMeters>
            <DistanceMeters>6411.6728690852</DistanceMeters>
          </Trackpoint>
          <Trackpoint>
            <Time>2021-07-17T11:20:20.000Z</Time>
            <Position>
              <LatitudeDegrees>42.7168941311538219451904296875</LatitudeDegrees>
              <LongitudeDegrees>-0.22745710797607898712158203125</LongitudeDegrees>
            </Position>
            <AltitudeMeters>1733.199951171875</AltitudeMeters>
            <DistanceMeters>6416.5387565106</DistanceMeters>
          </Trackpoint>
          <Trackpoint>
            <Time>2021-07-17T11:20:28.000Z</Time>
            <Position>
              <LatitudeDegrees>42.71690175868570804595947265625</LatitudeDegrees>
              <LongitudeDegrees>-0.2274075709283351898193359375</LongitudeDegrees>
            </Position>
            <AltitudeMeters>1734</AltitudeMeters>
            <DistanceMeters>6420.6765125374</DistanceMeters>
          </Trackpoint>
          <Trackpoint>
            <Time>2021-07-17T11:20:36.000Z</Time>
            <Position>
              <LatitudeDegrees>42.71687895990908145904541015625</LatitudeDegrees>
              <LongitudeDegrees>-0.227353759109973907470703125</LongitudeDegrees>
            </Position>
            <AltitudeMeters>1736.800048828125</AltitudeMeters>
            <DistanceMeters>6425.7566659285</DistanceMeters>
          </Trackpoint>
          <Trackpoint>
            <Time>2021-07-17T11:20:45.000Z</Time>
            <Position>
              <LatitudeDegrees>42.71688558161258697509765625</LatitudeDegrees>
              <LongitudeDegrees>-0.22730338387191295623779296875</LongitudeDegrees>
            </Position>
            <AltitudeMeters>1738</AltitudeMeters>
            <DistanceMeters>6429.9421585281</DistanceMeters>
          </Trackpoint>
          <Trackpoint>
            <Time>2021-07-17T11:20:53.000Z</Time>
            <Position>
              <LatitudeDegrees>42.71685498766601085662841796875</LatitudeDegrees>
              <LongitudeDegrees>-0.22724412381649017333984375</LongitudeDegrees>
            </Position>
            <AltitudeMeters>1740.800048828125</AltitudeMeters>
            <DistanceMeters>6435.8651516046</DistanceMeters>
          </Trackpoint>
          <Trackpoint>
            <Time>2021-07-17T11:20:58.000Z</Time>
            <Position>
              <LatitudeDegrees>42.7168555743992328643798828125</LatitudeDegrees>
              <LongitudeDegrees>-0.22723280824720859527587890625</LongitudeDegrees>
            </Position>
            <AltitudeMeters>1740.800048828125</AltitudeMeters>
            <DistanceMeters>6436.7913574469</DistanceMeters>
          </Trackpoint>
          <Trackpoint>
            <Time>2021-07-17T11:21:05.000Z</Time>
            <Position>
              <LatitudeDegrees>42.71684241481125354766845703125</LatitudeDegrees>
              <LongitudeDegrees>-0.227200873196125030517578125</LongitudeDegrees>
            </Position>
            <AltitudeMeters>1742</AltitudeMeters>
            <DistanceMeters>6439.7843218356</DistanceMeters>
          </Trackpoint>
          <Trackpoint>
            <Time>2021-07-17T11:21:12.000Z</Time>
            <Position>
              <LatitudeDegrees>42.7168552391231060028076171875</LatitudeDegrees>
              <LongitudeDegrees>-0.227175392210483551025390625</LongitudeDegrees>
            </Position>
            <AltitudeMeters>1742</AltitudeMeters>
            <DistanceMeters>6442.3092444026</DistanceMeters>
          </Trackpoint>
          <Trackpoint>
            <Time>2021-07-17T11:21:16.000Z</Time>
            <Position>
              <LatitudeDegrees>42.7168575860559940338134765625</LatitudeDegrees>
              <LongitudeDegrees>-0.22715158760547637939453125</LongitudeDegrees>
            </Position>
            <AltitudeMeters>1742.199951171875</AltitudeMeters>
            <DistanceMeters>6444.2728743682</DistanceMeters>
          </Trackpoint>
          <Trackpoint>
            <Time>2021-07-17T11:21:19.000Z</Time>
            <Position>
              <LatitudeDegrees>42.71685414947569370269775390625</LatitudeDegrees>
              <LongitudeDegrees>-0.2271292917430400848388671875</LongitudeDegrees>
            </Position>
            <AltitudeMeters>1743</AltitudeMeters>
            <DistanceMeters>6446.1350100653</DistanceMeters>
          </Trackpoint>
          <Trackpoint>
            <Time>2021-07-17T11:21:25.000Z</Time>
            <Position>
              <LatitudeDegrees>42.7168428339064121246337890625</LatitudeDegrees>
              <LongitudeDegrees>-0.2271158806979656219482421875</LongitudeDegrees>
            </Position>
            <AltitudeMeters>1743.800048828125</AltitudeMeters>
            <DistanceMeters>6447.8027221342</DistanceMeters>
          </Trackpoint>
          <Trackpoint>
            <Time>2021-07-17T11:21:35.000Z</Time>
            <Position>
              <LatitudeDegrees>42.71684342063963413238525390625</LatitudeDegrees>
              <LongitudeDegrees>-0.22711445577442646026611328125</LongitudeDegrees>
            </Position>
            <AltitudeMeters>1743.800048828125</AltitudeMeters>
            <DistanceMeters>6447.9371102024</DistanceMeters>
          </Trackpoint>
          <Trackpoint>
            <Time>2021-07-17T11:21:41.000Z</Time>
            <Position>
              <LatitudeDegrees>42.71684140898287296295166015625</LatitudeDegrees>
              <LongitudeDegrees>-0.227065421640872955322265625</LongitudeDegrees>
            </Position>
            <AltitudeMeters>1745</AltitudeMeters>
            <DistanceMeters>6451.9530430367</DistanceMeters>
          </Trackpoint>
          <Trackpoint>
            <Time>2021-07-17T11:21:46.000Z</Time>
            <Position>
              <LatitudeDegrees>42.71684207953512668609619140625</LatitudeDegrees>
              <LongitudeDegrees>-0.2270146273076534271240234375</LongitudeDegrees>
            </Position>
            <AltitudeMeters>1746.199951171875</AltitudeMeters>
            <DistanceMeters>6456.1082212712</DistanceMeters>
          </Trackpoint>
          <Trackpoint>
            <Time>2021-07-17T11:21:51.000Z</Time>
            <Position>
              <LatitudeDegrees>42.7168679796159267425537109375</LatitudeDegrees>
              <LongitudeDegrees>-0.22698487155139446258544921875</LongitudeDegrees>
            </Position>
            <AltitudeMeters>1745.5999755859375</AltitudeMeters>
            <DistanceMeters>6459.8806741173</DistanceMeters>
          </Trackpoint>
          <Trackpoint>
            <Time>2021-07-17T11:21:54.000Z</Time>
            <Position>
              <LatitudeDegrees>42.7168669737875461578369140625</LatitudeDegrees>
              <LongitudeDegrees>-0.226965509355068206787109375</LongitudeDegrees>
            </Position>
            <AltitudeMeters>1746</AltitudeMeters>
            <DistanceMeters>6461.4650860749</DistanceMeters>
          </Trackpoint>
          <Trackpoint>
            <Time>2021-07-17T11:21:59.000Z</Time>
            <Position>
              <LatitudeDegrees>42.71691332571208477020263671875</LatitudeDegrees>
              <LongitudeDegrees>-0.2269566245377063751220703125</LongitudeDegrees>
            </Position>
            <AltitudeMeters>1744.5999755859375</AltitudeMeters>
            <DistanceMeters>6466.674249128</DistanceMeters>
          </Trackpoint>
          <Trackpoint>
            <Time>2021-07-17T11:22:06.000Z</Time>
            <Position>
              <LatitudeDegrees>42.71694450639188289642333984375</LatitudeDegrees>
              <LongitudeDegrees>-0.22692418657243251800537109375</LongitudeDegrees>
            </Position>
            <AltitudeMeters>1744.199951171875</AltitudeMeters>
            <DistanceMeters>6471.0434117025</DistanceMeters>
          </Trackpoint>
          <Trackpoint>
            <Time>2021-07-17T11:22:16.000Z</Time>
            <Position>
              <LatitudeDegrees>42.71697836928069591522216796875</LatitudeDegrees>
              <LongitudeDegrees>-0.226859562098979949951171875</LongitudeDegrees>
            </Position>
            <AltitudeMeters>1743.800048828125</AltitudeMeters>
            <DistanceMeters>6477.5345084271</DistanceMeters>
          </Trackpoint>
          <Trackpoint>
            <Time>2021-07-17T11:22:25.000Z</Time>
            <Position>
              <LatitudeDegrees>42.71697007119655609130859375</LatitudeDegrees>
              <LongitudeDegrees>-0.2268023975193500518798828125</LongitudeDegrees>
            </Position>
            <AltitudeMeters>1744.199951171875</AltitudeMeters>
            <DistanceMeters>6482.2991293123</DistanceMeters>
          </Trackpoint>
          <Trackpoint>
            <Time>2021-07-17T11:22:33.000Z</Time>
            <Position>
              <LatitudeDegrees>42.7169712446630001068115234375</LatitudeDegrees>
              <LongitudeDegrees>-0.2267537824809551239013671875</LongitudeDegrees>
            </Position>
            <AltitudeMeters>1744.4000244140625</AltitudeMeters>
            <DistanceMeters>6486.2766529049</DistanceMeters>
          </Trackpoint>
          <Trackpoint>
            <Time>2021-07-17T11:22:41.000Z</Time>
            <Position>
              <LatitudeDegrees>42.71696127019822597503662109375</LatitudeDegrees>
              <LongitudeDegrees>-0.22670391015708446502685546875</LongitudeDegrees>
            </Position>
            <AltitudeMeters>1744.800048828125</AltitudeMeters>
            <DistanceMeters>6490.5040068388</DistanceMeters>
          </Trackpoint>
          <Trackpoint>
            <Time>2021-07-17T11:22:47.000Z</Time>
            <Position>
              <LatitudeDegrees>42.71694266237318515777587890625</LatitudeDegrees>
              <LongitudeDegrees>-0.2266743220388889312744140625</LongitudeDegrees>
            </Position>
            <AltitudeMeters>1745.4000244140625</AltitudeMeters>
            <DistanceMeters>6493.6898828444</DistanceMeters>
          </Trackpoint>
          <Trackpoint>
            <Time>2021-07-17T11:22:50.000Z</Time>
            <Position>
              <LatitudeDegrees>42.71695523522794246673583984375</LatitudeDegrees>
              <LongitudeDegrees>-0.22664573974907398223876953125</LongitudeDegrees>
            </Position>
            <AltitudeMeters>1745.199951171875</AltitudeMeters>
            <DistanceMeters>6496.4143502854</DistanceMeters>
          </Trackpoint>
          <Trackpoint>
            <Time>2021-07-17T11:22:57.000Z</Time>
            <Position>
              <LatitudeDegrees>42.71695355884730815887451171875</LatitudeDegrees>
              <LongitudeDegrees>-0.2266211807727813720703125</LongitudeDegrees>
            </Position>
            <AltitudeMeters>1745.4000244140625</AltitudeMeters>
            <DistanceMeters>6498.4301713091</DistanceMeters>
          </Trackpoint>
          <Trackpoint>
            <Time>2021-07-17T11:23:02.000Z</Time>
            <Position>
              <LatitudeDegrees>42.71698926575481891632080078125</LatitudeDegrees>
              <LongitudeDegrees>-0.22658891044557094573974609375</LongitudeDegrees>
            </Position>
            <AltitudeMeters>1744.5999755859375</AltitudeMeters>
            <DistanceMeters>6503.2004745111</DistanceMeters>
          </Trackpoint>
          <Trackpoint>
            <Time>2021-07-17T11:23:15.000Z</Time>
            <Position>
              <LatitudeDegrees>42.71703184582293033599853515625</LatitudeDegrees>
              <LongitudeDegrees>-0.226486735045909881591796875</LongitudeDegrees>
            </Position>
            <AltitudeMeters>1745.5999755859375</AltitudeMeters>
            <DistanceMeters>6512.8061666311</DistanceMeters>
          </Trackpoint>
          <Trackpoint>
            <Time>2021-07-17T11:23:21.000Z</Time>
            <Position>
              <LatitudeDegrees>42.7170523814857006072998046875</LatitudeDegrees>
              <LongitudeDegrees>-0.2264366112649440765380859375</LongitudeDegrees>
            </Position>
            <AltitudeMeters>1746.199951171875</AltitudeMeters>
            <DistanceMeters>6517.4991780787</DistanceMeters>
          </Trackpoint>
          <Trackpoint>
            <Time>2021-07-17T11:23:26.000Z</Time>
            <Position>
              <LatitudeDegrees>42.71706118248403072357177734375</LatitudeDegrees>
              <LongitudeDegrees>-0.22638313472270965576171875</LongitudeDegrees>
            </Position>
            <AltitudeMeters>1747.199951171875</AltitudeMeters>
            <DistanceMeters>6521.9805718364</DistanceMeters>
          </Trackpoint>
          <Trackpoint>
            <Time>2021-07-17T11:23:34.000Z</Time>
            <Position>
              <LatitudeDegrees>42.7170418202877044677734375</LatitudeDegrees>
              <LongitudeDegrees>-0.2263202704489231109619140625</LongitudeDegrees>
            </Position>
            <AltitudeMeters>1748.4000244140625</AltitudeMeters>
            <DistanceMeters>6527.5556523847</DistanceMeters>
          </Trackpoint>
          <Trackpoint>
            <Time>2021-07-17T11:23:40.000Z</Time>
            <Position>
              <LatitudeDegrees>42.71704919636249542236328125</LatitudeDegrees>
              <LongitudeDegrees>-0.22628129459917545318603515625</LongitudeDegrees>
            </Position>
            <AltitudeMeters>1750</AltitudeMeters>
            <DistanceMeters>6530.847474332</DistanceMeters>
          </Trackpoint>
          <Trackpoint>
            <Time>2021-07-17T11:23:45.000Z</Time>
            <Position>
              <LatitudeDegrees>42.71705565042793750762939453125</LatitudeDegrees>
              <LongitudeDegrees>-0.22623904980719089508056640625</LongitudeDegrees>
            </Position>
            <AltitudeMeters>1752.199951171875</AltitudeMeters>
            <DistanceMeters>6534.3750011341</DistanceMeters>
          </Trackpoint>
          <Trackpoint>
            <Time>2021-07-17T11:23:54.000Z</Time>
            <Position>
              <LatitudeDegrees>42.71706570871174335479736328125</LatitudeDegrees>
              <LongitudeDegrees>-0.22620468400418758392333984375</LongitudeDegrees>
            </Position>
            <AltitudeMeters>1754</AltitudeMeters>
            <DistanceMeters>6537.3979859771</DistanceMeters>
          </Trackpoint>
          <Trackpoint>
            <Time>2021-07-17T11:24:03.000Z</Time>
            <Position>
              <LatitudeDegrees>42.71707735955715179443359375</LatitudeDegrees>
              <LongitudeDegrees>-0.226098485291004180908203125</LongitudeDegrees>
            </Position>
            <AltitudeMeters>1759.800048828125</AltitudeMeters>
            <DistanceMeters>6546.1785777954</DistanceMeters>
          </Trackpoint>
          <Trackpoint>
            <Time>2021-07-17T11:24:08.000Z</Time>
            <Position>
              <LatitudeDegrees>42.71706017665565013885498046875</LatitudeDegrees>
              <LongitudeDegrees>-0.226040147244930267333984375</LongitudeDegrees>
            </Position>
            <AltitudeMeters>1763.5999755859375</AltitudeMeters>
            <DistanceMeters>6551.317054566</DistanceMeters>
          </Trackpoint>
          <Trackpoint>
            <Time>2021-07-17T11:24:12.000Z</Time>
            <Position>
              <LatitudeDegrees>42.717064283788204193115234375</LatitudeDegrees>
              <LongitudeDegrees>-0.225994549691677093505859375</LongitudeDegrees>
            </Position>
            <AltitudeMeters>1764.800048828125</AltitudeMeters>
            <DistanceMeters>6555.0739162193</DistanceMeters>
          </Trackpoint>
          <Trackpoint>
            <Time>2021-07-17T11:24:19.000Z</Time>
            <Position>
              <LatitudeDegrees>42.71708565764129161834716796875</LatitudeDegrees>
              <LongitudeDegrees>-0.22591299377381801605224609375</LongitudeDegrees>
            </Position>
            <AltitudeMeters>1766.800048828125</AltitudeMeters>
            <DistanceMeters>6562.1551600714</DistanceMeters>
          </Trackpoint>
          <Trackpoint>
            <Time>2021-07-17T11:24:26.000Z</Time>
            <Position>
              <LatitudeDegrees>42.71712421439588069915771484375</LatitudeDegrees>
              <LongitudeDegrees>-0.2258783765137195587158203125</LongitudeDegrees>
            </Position>
            <AltitudeMeters>1766.800048828125</AltitudeMeters>
            <DistanceMeters>6567.2953938866</DistanceMeters>
          </Trackpoint>
          <Trackpoint>
            <Time>2021-07-17T11:24:35.000Z</Time>
            <Position>
              <LatitudeDegrees>42.71718640811741352081298828125</LatitudeDegrees>
              <LongitudeDegrees>-0.2258314378559589385986328125</LongitudeDegrees>
            </Position>
            <AltitudeMeters>1766.4000244140625</AltitudeMeters>
            <DistanceMeters>6575.2106115316</DistanceMeters>
          </Trackpoint>
          <Trackpoint>
            <Time>2021-07-17T11:24:37.000Z</Time>
            <Position>
              <LatitudeDegrees>42.7172019146382808685302734375</LatitudeDegrees>
              <LongitudeDegrees>-0.22582179866731166839599609375</LongitudeDegrees>
            </Position>
            <AltitudeMeters>1766.199951171875</AltitudeMeters>
            <DistanceMeters>6577.1063885293</DistanceMeters>
          </Trackpoint>
          <Trackpoint>
            <Time>2021-07-17T11:24:43.000Z</Time>
            <Position>
              <LatitudeDegrees>42.71725513972342014312744140625</LatitudeDegrees>
              <LongitudeDegrees>-0.2258133329451084136962890625</LongitudeDegrees>
            </Position>
            <AltitudeMeters>1765.199951171875</AltitudeMeters>
            <DistanceMeters>6583.0711602088</DistanceMeters>
          </Trackpoint>
          <Trackpoint>
            <Time>2021-07-17T11:24:47.000Z</Time>
            <Position>
              <LatitudeDegrees>42.7172689698636531829833984375</LatitudeDegrees>
              <LongitudeDegrees>-0.22581190802156925201416015625</LongitudeDegrees>
            </Position>
            <AltitudeMeters>1765</AltitudeMeters>
            <DistanceMeters>6584.6151615628</DistanceMeters>
          </Trackpoint>
          <Trackpoint>
            <Time>2021-07-17T11:24:50.000Z</Time>
            <Position>
              <LatitudeDegrees>42.7172595821321010589599609375</LatitudeDegrees>
              <LongitudeDegrees>-0.2258119918406009674072265625</LongitudeDegrees>
            </Position>
            <AltitudeMeters>1765.199951171875</AltitudeMeters>
            <DistanceMeters>6585.6647659293</DistanceMeters>
          </Trackpoint>
          <Trackpoint>
            <Time>2021-07-17T11:24:58.000Z</Time>
            <Position>
              <LatitudeDegrees>42.717260755598545074462890625</LatitudeDegrees>
              <LongitudeDegrees>-0.22581157274544239044189453125</LongitudeDegrees>
            </Position>
            <AltitudeMeters>1765.199951171875</AltitudeMeters>
            <DistanceMeters>6585.7991539976</DistanceMeters>
          </Trackpoint>
          <Trackpoint>
            <Time>2021-07-17T11:25:05.000Z</Time>
            <Position>
              <LatitudeDegrees>42.717260755598545074462890625</LatitudeDegrees>
              <LongitudeDegrees>-0.22581157274544239044189453125</LongitudeDegrees>
            </Position>
            <AltitudeMeters>1765.199951171875</AltitudeMeters>
            <DistanceMeters>6585.7991539976</DistanceMeters>
          </Trackpoint>
          <Trackpoint>
            <Time>2021-07-17T11:25:09.000Z</Time>
            <Position>
              <LatitudeDegrees>42.7172622643411159515380859375</LatitudeDegrees>
              <LongitudeDegrees>-0.22581157274544239044189453125</LongitudeDegrees>
            </Position>
            <AltitudeMeters>1765</AltitudeMeters>
            <DistanceMeters>6585.9637450949</DistanceMeters>
          </Trackpoint>
          <Trackpoint>
            <Time>2021-07-17T11:25:12.000Z</Time>
            <Position>
              <LatitudeDegrees>42.7172632701694965362548828125</LatitudeDegrees>
              <LongitudeDegrees>-0.22581157274544239044189453125</LongitudeDegrees>
            </Position>
            <AltitudeMeters>1765</AltitudeMeters>
            <DistanceMeters>6586.0981331632</DistanceMeters>
          </Trackpoint>
          <Trackpoint>
            <Time>2021-07-17T11:25:30.000Z</Time>
            <Position>
              <LatitudeDegrees>42.71731071174144744873046875</LatitudeDegrees>
              <LongitudeDegrees>-0.22579028271138668060302734375</LongitudeDegrees>
            </Position>
            <AltitudeMeters>1765.199951171875</AltitudeMeters>
            <DistanceMeters>6591.6586171119</DistanceMeters>
          </Trackpoint>
          <Trackpoint>
            <Time>2021-07-17T11:25:32.000Z</Time>
            <Position>
              <LatitudeDegrees>42.7173343487083911895751953125</LatitudeDegrees>
              <LongitudeDegrees>-0.225765220820903778076171875</LongitudeDegrees>
            </Position>
            <AltitudeMeters>1766</AltitudeMeters>
            <DistanceMeters>6594.9940412497</DistanceMeters>
          </Trackpoint>
          <Trackpoint>
            <Time>2021-07-17T11:25:38.000Z</Time>
            <Position>
              <LatitudeDegrees>42.71738715469837188720703125</LatitudeDegrees>
              <LongitudeDegrees>-0.225701518356800079345703125</LongitudeDegrees>
            </Position>
            <AltitudeMeters>1768</AltitudeMeters>
            <DistanceMeters>6602.8474113615</DistanceMeters>
          </Trackpoint>
          <Trackpoint>
            <Time>2021-07-17T11:25:41.000Z</Time>
            <Position>
              <LatitudeDegrees>42.71738539449870586395263671875</LatitudeDegrees>
              <LongitudeDegrees>-0.22568986751139163970947265625</LongitudeDegrees>
            </Position>
            <AltitudeMeters>1768.4000244140625</AltitudeMeters>
            <DistanceMeters>6603.8118271814</DistanceMeters>
          </Trackpoint>
          <Trackpoint>
            <Time>2021-07-17T11:25:43.000Z</Time>
            <Position>
              <LatitudeDegrees>42.71738044917583465576171875</LatitudeDegrees>
              <LongitudeDegrees>-0.22567528299987316131591796875</LongitudeDegrees>
            </Position>
            <AltitudeMeters>1768.800048828125</AltitudeMeters>
            <DistanceMeters>6605.1285559603</DistanceMeters>
          </Trackpoint>
          <Trackpoint>
            <Time>2021-07-17T11:25:50.000Z</Time>
            <Position>
              <LatitudeDegrees>42.71738179028034210205078125</LatitudeDegrees>
              <LongitudeDegrees>-0.22563387639820575714111328125</LongitudeDegrees>
            </Position>
            <AltitudeMeters>1770.199951171875</AltitudeMeters>
            <DistanceMeters>6608.5176940862</DistanceMeters>
          </Trackpoint>
          <Trackpoint>
            <Time>2021-07-17T11:25:57.000Z</Time>
            <Position>
              <LatitudeDegrees>42.71738522686064243316650390625</LatitudeDegrees>
              <LongitudeDegrees>-0.22559314034879207611083984375</LongitudeDegrees>
            </Position>
            <AltitudeMeters>1772</AltitudeMeters>
            <DistanceMeters>6611.8720159624</DistanceMeters>
          </Trackpoint>
          <Trackpoint>
            <Time>2021-07-17T11:26:03.000Z</Time>
            <Position>
              <LatitudeDegrees>42.71741221658885478973388671875</LatitudeDegrees>
              <LongitudeDegrees>-0.2255585230886936187744140625</LongitudeDegrees>
            </Position>
            <AltitudeMeters>1773.199951171875</AltitudeMeters>
            <DistanceMeters>6615.9988457594</DistanceMeters>
          </Trackpoint>
          <Trackpoint>
            <Time>2021-07-17T11:26:04.000Z</Time>
            <Position>
              <LatitudeDegrees>42.71741104312241077423095703125</LatitudeDegrees>
              <LongitudeDegrees>-0.2255548350512981414794921875</LongitudeDegrees>
            </Position>
            <AltitudeMeters>1773.4000244140625</AltitudeMeters>
            <DistanceMeters>6616.3140137161</DistanceMeters>
          </Trackpoint>
          <Trackpoint>
            <Time>2021-07-17T11:26:06.000Z</Time>
            <Position>
              <LatitudeDegrees>42.71741255186498165130615234375</LatitudeDegrees>
              <LongitudeDegrees>-0.2255491353571414947509765625</LongitudeDegrees>
            </Position>
            <AltitudeMeters>1773.5999755859375</AltitudeMeters>
            <DistanceMeters>6616.7985567869</DistanceMeters>
          </Trackpoint>
          <Trackpoint>
            <Time>2021-07-17T11:26:10.000Z</Time>
            <Position>
              <LatitudeDegrees>42.71741339005529880523681640625</LatitudeDegrees>
              <LongitudeDegrees>-0.225521139800548553466796875</LongitudeDegrees>
            </Position>
            <AltitudeMeters>1774.800048828125</AltitudeMeters>
            <DistanceMeters>6619.0871031241</DistanceMeters>
          </Trackpoint>
          <Trackpoint>
            <Time>2021-07-17T11:26:15.000Z</Time>
            <Position>
              <LatitudeDegrees>42.7174382843077182769775390625</LatitudeDegrees>
              <LongitudeDegrees>-0.2254891209304332733154296875</LongitudeDegrees>
            </Position>
            <AltitudeMeters>1775.800048828125</AltitudeMeters>
            <DistanceMeters>6622.8976625216</DistanceMeters>
          </Trackpoint>
          <Trackpoint>
            <Time>2021-07-17T11:26:17.000Z</Time>
            <Position>
              <LatitudeDegrees>42.7174399606883525848388671875</LatitudeDegrees>
              <LongitudeDegrees>-0.22547495551407337188720703125</LongitudeDegrees>
            </Position>
            <AltitudeMeters>1776.4000244140625</AltitudeMeters>
            <DistanceMeters>6624.0692305391</DistanceMeters>
          </Trackpoint>
          <Trackpoint>
            <Time>2021-07-17T11:26:19.000Z</Time>
            <Position>
              <LatitudeDegrees>42.71745194680988788604736328125</LatitudeDegrees>
              <LongitudeDegrees>-0.225462801754474639892578125</LongitudeDegrees>
            </Position>
            <AltitudeMeters>1776.800048828125</AltitudeMeters>
            <DistanceMeters>6625.736942608</DistanceMeters>
          </Trackpoint>
          <Trackpoint>
            <Time>2021-07-17T11:26:24.000Z</Time>
            <Position>
              <LatitudeDegrees>42.717449180781841278076171875</LatitudeDegrees>
              <LongitudeDegrees>-0.22547495551407337188720703125</LongitudeDegrees>
            </Position>
            <AltitudeMeters>1776.4000244140625</AltitudeMeters>
            <DistanceMeters>6626.7779081085</DistanceMeters>
          </Trackpoint>
          <Trackpoint>
            <Time>2021-07-17T11:26:31.000Z</Time>
            <Position>
              <LatitudeDegrees>42.7174533717334270477294921875</LatitudeDegrees>
              <LongitudeDegrees>-0.22548191249370574951171875</LongitudeDegrees>
            </Position>
            <AltitudeMeters>1776</AltitudeMeters>
            <DistanceMeters>6627.5139818729</DistanceMeters>
          </Trackpoint>
          <Trackpoint>
            <Time>2021-07-17T11:26:41.000Z</Time>
            <Position>
              <LatitudeDegrees>42.71745781414210796356201171875</LatitudeDegrees>
              <LongitudeDegrees>-0.22546824999153614044189453125</LongitudeDegrees>
            </Position>
            <AltitudeMeters>1776.5999755859375</AltitudeMeters>
            <DistanceMeters>6628.7309175889</DistanceMeters>
          </Trackpoint>
          <Trackpoint>
            <Time>2021-07-17T11:27:02.000Z</Time>
            <Position>
              <LatitudeDegrees>42.71748631261289119720458984375</LatitudeDegrees>
              <LongitudeDegrees>-0.22539817728102207183837890625</LongitudeDegrees>
            </Position>
            <AltitudeMeters>1778.800048828125</AltitudeMeters>
            <DistanceMeters>6635.280181907</DistanceMeters>
          </Trackpoint>
          <Trackpoint>
            <Time>2021-07-17T11:27:59.000Z</Time>
            <Position>
              <LatitudeDegrees>42.71748832426965236663818359375</LatitudeDegrees>
              <LongitudeDegrees>-0.22516750730574131011962890625</LongitudeDegrees>
            </Position>
            <AltitudeMeters>1784.800048828125</AltitudeMeters>
            <DistanceMeters>6654.1446003338</DistanceMeters>
          </Trackpoint>
          <Trackpoint>
            <Time>2021-07-17T11:28:03.000Z</Time>
            <Position>
              <LatitudeDegrees>42.71748648025095462799072265625</LatitudeDegrees>
              <LongitudeDegrees>-0.2251642383635044097900390625</LongitudeDegrees>
            </Position>
            <AltitudeMeters>1784.800048828125</AltitudeMeters>
            <DistanceMeters>6654.4737825285</DistanceMeters>
          </Trackpoint>
          <Trackpoint>
            <Time>2021-07-17T11:28:16.000Z</Time>
            <Position>
              <LatitudeDegrees>42.71748580969870090484619140625</LatitudeDegrees>
              <LongitudeDegrees>-0.22511168383061885833740234375</LongitudeDegrees>
            </Position>
            <AltitudeMeters>1785</AltitudeMeters>
            <DistanceMeters>6658.772100386</DistanceMeters>
          </Trackpoint>
          <Trackpoint>
            <Time>2021-07-17T11:28:33.000Z</Time>
            <Position>
              <LatitudeDegrees>42.71755202673375606536865234375</LatitudeDegrees>
              <LongitudeDegrees>-0.2249895595014095306396484375</LongitudeDegrees>
            </Position>
            <AltitudeMeters>1785.800048828125</AltitudeMeters>
            <DistanceMeters>6671.1842772382</DistanceMeters>
          </Trackpoint>
          <Trackpoint>
            <Time>2021-07-17T11:28:36.000Z</Time>
            <Position>
              <LatitudeDegrees>42.71758119575679302215576171875</LatitudeDegrees>
              <LongitudeDegrees>-0.2249624021351337432861328125</LongitudeDegrees>
            </Position>
            <AltitudeMeters>1786</AltitudeMeters>
            <DistanceMeters>6675.1184291195</DistanceMeters>
          </Trackpoint>
          <Trackpoint>
            <Time>2021-07-17T11:28:39.000Z</Time>
            <Position>
              <LatitudeDegrees>42.71758890710771083831787109375</LatitudeDegrees>
              <LongitudeDegrees>-0.224964581429958343505859375</LongitudeDegrees>
            </Position>
            <AltitudeMeters>1786</AltitudeMeters>
            <DistanceMeters>6675.9996706154</DistanceMeters>
          </Trackpoint>
          <Trackpoint>
            <Time>2021-07-17T11:28:43.000Z</Time>
            <Position>
              <LatitudeDegrees>42.71758966147899627685546875</LatitudeDegrees>
              <LongitudeDegrees>-0.2249694429337978363037109375</LongitudeDegrees>
            </Position>
            <AltitudeMeters>1786</AltitudeMeters>
            <DistanceMeters>6676.391475796</DistanceMeters>
          </Trackpoint>
          <Trackpoint>
            <Time>2021-07-17T11:28:56.000Z</Time>
            <Position>
              <LatitudeDegrees>42.71758966147899627685546875</LatitudeDegrees>
              <LongitudeDegrees>-0.2249694429337978363037109375</LongitudeDegrees>
            </Position>
            <AltitudeMeters>1786</AltitudeMeters>
            <DistanceMeters>6676.391475796</DistanceMeters>
          </Trackpoint>
          <Trackpoint>
            <Time>2021-07-17T11:29:13.000Z</Time>
            <Position>
              <LatitudeDegrees>42.7175988815724849700927734375</LatitudeDegrees>
              <LongitudeDegrees>-0.22497992031276226043701171875</LongitudeDegrees>
            </Position>
            <AltitudeMeters>1786</AltitudeMeters>
            <DistanceMeters>6677.7286201921</DistanceMeters>
          </Trackpoint>
          <Trackpoint>
            <Time>2021-07-17T11:29:19.000Z</Time>
            <Position>
              <LatitudeDegrees>42.7175965346395969390869140625</LatitudeDegrees>
              <LongitudeDegrees>-0.22497992031276226043701171875</LongitudeDegrees>
            </Position>
            <AltitudeMeters>1786</AltitudeMeters>
            <DistanceMeters>6677.9973963286</DistanceMeters>
          </Trackpoint>
          <Trackpoint>
            <Time>2021-07-17T11:29:27.000Z</Time>
            <Position>
              <LatitudeDegrees>42.7175965346395969390869140625</LatitudeDegrees>
              <LongitudeDegrees>-0.2249741367995738983154296875</LongitudeDegrees>
            </Position>
            <AltitudeMeters>1786</AltitudeMeters>
            <DistanceMeters>6678.4725299005</DistanceMeters>
          </Trackpoint>
          <Trackpoint>
            <Time>2021-07-17T11:29:36.000Z</Time>
            <Position>
              <LatitudeDegrees>42.71759527735412120819091796875</LatitudeDegrees>
              <LongitudeDegrees>-0.22497229278087615966796875</LongitudeDegrees>
            </Position>
            <AltitudeMeters>1786</AltitudeMeters>
            <DistanceMeters>6678.6850160935</DistanceMeters>
          </Trackpoint>
          <Trackpoint>
            <Time>2021-07-17T11:29:45.000Z</Time>
            <Position>
              <LatitudeDegrees>42.71759427152574062347412109375</LatitudeDegrees>
              <LongitudeDegrees>-0.22497405298054218292236328125</LongitudeDegrees>
            </Position>
            <AltitudeMeters>1786</AltitudeMeters>
            <DistanceMeters>6678.8750695222</DistanceMeters>
          </Trackpoint>
          <Trackpoint>
            <Time>2021-07-17T11:29:49.000Z</Time>
            <Position>
              <LatitudeDegrees>42.7175747416913509368896484375</LatitudeDegrees>
              <LongitudeDegrees>-0.2249805070459842681884765625</LongitudeDegrees>
            </Position>
            <AltitudeMeters>1785.800048828125</AltitudeMeters>
            <DistanceMeters>6681.113750479</DistanceMeters>
          </Trackpoint>
          <Trackpoint>
            <Time>2021-07-17T11:30:06.000Z</Time>
            <Position>
              <LatitudeDegrees>42.7175616659224033355712890625</LatitudeDegrees>
              <LongitudeDegrees>-0.22498914040625095367431640625</LongitudeDegrees>
            </Position>
            <AltitudeMeters>1785.800048828125</AltitudeMeters>
            <DistanceMeters>6682.7292046233</DistanceMeters>
          </Trackpoint>
          <Trackpoint>
            <Time>2021-07-17T11:30:22.000Z</Time>
            <Position>
              <LatitudeDegrees>42.71756057627499103546142578125</LatitudeDegrees>
              <LongitudeDegrees>-0.225000120699405670166015625</LongitudeDegrees>
            </Position>
            <AltitudeMeters>1785.800048828125</AltitudeMeters>
            <DistanceMeters>6683.6357017035</DistanceMeters>
          </Trackpoint>
          <Trackpoint>
            <Time>2021-07-17T11:30:36.000Z</Time>
            <Position>
              <LatitudeDegrees>42.717611789703369140625</LatitudeDegrees>
              <LongitudeDegrees>-0.2250408567488193511962890625</LongitudeDegrees>
            </Position>
            <AltitudeMeters>1785.800048828125</AltitudeMeters>
            <DistanceMeters>6690.2385199708</DistanceMeters>
          </Trackpoint>
          <Trackpoint>
            <Time>2021-07-17T11:30:42.000Z</Time>
            <Position>
              <LatitudeDegrees>42.71765881218016147613525390625</LatitudeDegrees>
              <LongitudeDegrees>-0.22510103881359100341796875</LongitudeDegrees>
            </Position>
            <AltitudeMeters>1785.800048828125</AltitudeMeters>
            <DistanceMeters>6697.4229417954</DistanceMeters>
          </Trackpoint>
          <Trackpoint>
            <Time>2021-07-17T11:30:51.000Z</Time>
            <Position>
              <LatitudeDegrees>42.71765814162790775299072265625</LatitudeDegrees>
              <LongitudeDegrees>-0.22511822171509265899658203125</LongitudeDegrees>
            </Position>
            <AltitudeMeters>1785.4000244140625</AltitudeMeters>
            <DistanceMeters>6698.8324157461</DistanceMeters>
          </Trackpoint>
          <Trackpoint>
            <Time>2021-07-17T11:30:53.000Z</Time>
            <Position>
              <LatitudeDegrees>42.71765814162790775299072265625</LatitudeDegrees>
              <LongitudeDegrees>-0.22511822171509265899658203125</LongitudeDegrees>
            </Position>
            <AltitudeMeters>1785.4000244140625</AltitudeMeters>
            <DistanceMeters>6698.8324157461</DistanceMeters>
          </Trackpoint>
          <Trackpoint>
            <Time>2021-07-17T11:30:55.000Z</Time>
            <Position>
              <LatitudeDegrees>42.71765814162790775299072265625</LatitudeDegrees>
              <LongitudeDegrees>-0.22511822171509265899658203125</LongitudeDegrees>
            </Position>
            <AltitudeMeters>1785.4000244140625</AltitudeMeters>
            <DistanceMeters>6698.8324157461</DistanceMeters>
          </Trackpoint>
          <Trackpoint>
            <Time>2021-07-17T11:30:58.000Z</Time>
            <Position>
              <LatitudeDegrees>42.71765814162790775299072265625</LatitudeDegrees>
              <LongitudeDegrees>-0.22511822171509265899658203125</LongitudeDegrees>
            </Position>
            <AltitudeMeters>1785.4000244140625</AltitudeMeters>
            <DistanceMeters>6698.8324157461</DistanceMeters>
          </Trackpoint>
          <Trackpoint>
            <Time>2021-07-17T11:31:03.000Z</Time>
            <Position>
              <LatitudeDegrees>42.71765814162790775299072265625</LatitudeDegrees>
              <LongitudeDegrees>-0.22511822171509265899658203125</LongitudeDegrees>
            </Position>
            <AltitudeMeters>1785.4000244140625</AltitudeMeters>
            <DistanceMeters>6698.8324157461</DistanceMeters>
          </Trackpoint>
          <Trackpoint>
            <Time>2021-07-17T11:31:09.000Z</Time>
            <Position>
              <LatitudeDegrees>42.71765897981822490692138671875</LatitudeDegrees>
              <LongitudeDegrees>-0.2251256816089153289794921875</LongitudeDegrees>
            </Position>
            <AltitudeMeters>1785.4000244140625</AltitudeMeters>
            <DistanceMeters>6699.4482592414</DistanceMeters>
          </Trackpoint>
          <Trackpoint>
            <Time>2021-07-17T11:31:21.000Z</Time>
            <Position>
              <LatitudeDegrees>42.71766719408333301544189453125</LatitudeDegrees>
              <LongitudeDegrees>-0.2251256816089153289794921875</LongitudeDegrees>
            </Position>
            <AltitudeMeters>1785.4000244140625</AltitudeMeters>
            <DistanceMeters>6700.359723466</DistanceMeters>
          </Trackpoint>
          <Trackpoint>
            <Time>2021-07-17T11:31:26.000Z</Time>
            <Position>
              <LatitudeDegrees>42.71766719408333301544189453125</LatitudeDegrees>
              <LongitudeDegrees>-0.2251209877431392669677734375</LongitudeDegrees>
            </Position>
            <AltitudeMeters>1785.4000244140625</AltitudeMeters>
            <DistanceMeters>6700.7398303235</DistanceMeters>
          </Trackpoint>
          <Trackpoint>
            <Time>2021-07-17T11:31:33.000Z</Time>
            <Position>
              <LatitudeDegrees>42.71763324737548828125</LatitudeDegrees>
              <LongitudeDegrees>-0.225057788193225860595703125</LongitudeDegrees>
            </Position>
            <AltitudeMeters>1785.800048828125</AltitudeMeters>
            <DistanceMeters>6707.1412744498</DistanceMeters>
          </Trackpoint>
          <Trackpoint>
            <Time>2021-07-17T11:31:39.000Z</Time>
            <Position>
              <LatitudeDegrees>42.71759812720119953155517578125</LatitudeDegrees>
              <LongitudeDegrees>-0.22503725253045558929443359375</LongitudeDegrees>
            </Position>
            <AltitudeMeters>1785.800048828125</AltitudeMeters>
            <DistanceMeters>6711.3963071489</DistanceMeters>
          </Trackpoint>
          <Trackpoint>
            <Time>2021-07-17T11:31:43.000Z</Time>
            <Position>
              <LatitudeDegrees>42.7176008932292461395263671875</LatitudeDegrees>
              <LongitudeDegrees>-0.225034654140472412109375</LongitudeDegrees>
            </Position>
            <AltitudeMeters>1785.800048828125</AltitudeMeters>
            <DistanceMeters>6711.7764140064</DistanceMeters>
          </Trackpoint>
          <Trackpoint>
            <Time>2021-07-17T11:31:44.000Z</Time>
            <Position>
              <LatitudeDegrees>42.71760231815278530120849609375</LatitudeDegrees>
              <LongitudeDegrees>-0.22503406740725040435791015625</LongitudeDegrees>
            </Position>
            <AltitudeMeters>1785.800048828125</AltitudeMeters>
            <DistanceMeters>6711.9108020746</DistanceMeters>
          </Trackpoint>
          <Trackpoint>
            <Time>2021-07-17T11:31:45.000Z</Time>
            <Position>
              <LatitudeDegrees>42.71760575473308563232421875</LatitudeDegrees>
              <LongitudeDegrees>-0.2250331453979015350341796875</LongitudeDegrees>
            </Position>
            <AltitudeMeters>1785.800048828125</AltitudeMeters>
            <DistanceMeters>6712.3026072552</DistanceMeters>
          </Trackpoint>
          <Trackpoint>
            <Time>2021-07-17T11:31:46.000Z</Time>
            <Position>
              <LatitudeDegrees>42.7176065929234027862548828125</LatitudeDegrees>
              <LongitudeDegrees>-0.22503239102661609649658203125</LongitudeDegrees>
            </Position>
            <AltitudeMeters>1785.800048828125</AltitudeMeters>
            <DistanceMeters>6712.4369953235</DistanceMeters>
          </Trackpoint>
          <Trackpoint>
            <Time>2021-07-17T11:31:47.000Z</Time>
            <Position>
              <LatitudeDegrees>42.71760365925729274749755859375</LatitudeDegrees>
              <LongitudeDegrees>-0.22503021173179149627685546875</LongitudeDegrees>
            </Position>
            <AltitudeMeters>1785.800048828125</AltitudeMeters>
            <DistanceMeters>6712.817102181</DistanceMeters>
          </Trackpoint>
          <Trackpoint>
            <Time>2021-07-17T11:31:48.000Z</Time>
            <Position>
              <LatitudeDegrees>42.71760365925729274749755859375</LatitudeDegrees>
              <LongitudeDegrees>-0.22503021173179149627685546875</LongitudeDegrees>
            </Position>
            <AltitudeMeters>1785.800048828125</AltitudeMeters>
            <DistanceMeters>6712.9121288953</DistanceMeters>
          </Trackpoint>
          <Trackpoint>
            <Time>2021-07-17T11:31:49.000Z</Time>
            <Position>
              <LatitudeDegrees>42.71760365925729274749755859375</LatitudeDegrees>
              <LongitudeDegrees>-0.22503021173179149627685546875</LongitudeDegrees>
            </Position>
            <AltitudeMeters>1785.800048828125</AltitudeMeters>
            <DistanceMeters>6713.0071556097</DistanceMeters>
          </Trackpoint>
          <Trackpoint>
            <Time>2021-07-17T11:31:54.000Z</Time>
            <Position>
              <LatitudeDegrees>42.71760365925729274749755859375</LatitudeDegrees>
              <LongitudeDegrees>-0.22503021173179149627685546875</LongitudeDegrees>
            </Position>
            <AltitudeMeters>1785.800048828125</AltitudeMeters>
            <DistanceMeters>6713.1021823241</DistanceMeters>
          </Trackpoint>
          <Trackpoint>
            <Time>2021-07-17T11:31:57.000Z</Time>
            <Position>
              <LatitudeDegrees>42.71760365925729274749755859375</LatitudeDegrees>
              <LongitudeDegrees>-0.22503021173179149627685546875</LongitudeDegrees>
            </Position>
            <AltitudeMeters>1785.800048828125</AltitudeMeters>
            <DistanceMeters>6713.1972090385</DistanceMeters>
          </Trackpoint>
          <Trackpoint>
            <Time>2021-07-17T11:32:04.000Z</Time>
            <Position>
              <LatitudeDegrees>42.717602066695690155029296875</LatitudeDegrees>
              <LongitudeDegrees>-0.2250271104276180267333984375</LongitudeDegrees>
            </Position>
            <AltitudeMeters>1785.800048828125</AltitudeMeters>
            <DistanceMeters>6713.4977098944</DistanceMeters>
          </Trackpoint>
          <Trackpoint>
            <Time>2021-07-17T11:32:06.000Z</Time>
            <Position>
              <LatitudeDegrees>42.71760097704827785491943359375</LatitudeDegrees>
              <LongitudeDegrees>-0.22502501495182514190673828125</LongitudeDegrees>
            </Position>
            <AltitudeMeters>1785.800048828125</AltitudeMeters>
            <DistanceMeters>6713.6877633232</DistanceMeters>
          </Trackpoint>
          <Trackpoint>
            <Time>2021-07-17T11:32:08.000Z</Time>
            <Position>
              <LatitudeDegrees>42.71759913302958011627197265625</LatitudeDegrees>
              <LongitudeDegrees>-0.22502333857119083404541015625</LongitudeDegrees>
            </Position>
            <AltitudeMeters>1785.800048828125</AltitudeMeters>
            <DistanceMeters>6713.9205302853</DistanceMeters>
          </Trackpoint>
          <Trackpoint>
            <Time>2021-07-17T11:32:10.000Z</Time>
            <Position>
              <LatitudeDegrees>42.71759913302958011627197265625</LatitudeDegrees>
              <LongitudeDegrees>-0.225020907819271087646484375</LongitudeDegrees>
            </Position>
            <AltitudeMeters>1785.800048828125</AltitudeMeters>
            <DistanceMeters>6714.110583714</DistanceMeters>
          </Trackpoint>
          <Trackpoint>
            <Time>2021-07-17T11:32:13.000Z</Time>
            <Position>
              <LatitudeDegrees>42.7175868116319179534912109375</LatitudeDegrees>
              <LongitudeDegrees>-0.2250043116509914398193359375</LongitudeDegrees>
            </Position>
            <AltitudeMeters>1785.800048828125</AltitudeMeters>
            <DistanceMeters>6716.0394153539</DistanceMeters>
          </Trackpoint>
          <Trackpoint>
            <Time>2021-07-17T11:32:15.000Z</Time>
            <Position>
              <LatitudeDegrees>42.717575244605541229248046875</LatitudeDegrees>
              <LongitudeDegrees>-0.22499509155750274658203125</LongitudeDegrees>
            </Position>
            <AltitudeMeters>1785.800048828125</AltitudeMeters>
            <DistanceMeters>6717.5358975483</DistanceMeters>
          </Trackpoint>
          <Trackpoint>
            <Time>2021-07-17T11:32:19.000Z</Time>
            <Position>
              <LatitudeDegrees>42.71754808723926544189453125</LatitudeDegrees>
              <LongitudeDegrees>-0.2249486558139324188232421875</LongitudeDegrees>
            </Position>
            <AltitudeMeters>1785.800048828125</AltitudeMeters>
            <DistanceMeters>6722.3906374506</DistanceMeters>
          </Trackpoint>
          <Trackpoint>
            <Time>2021-07-17T11:32:25.000Z</Time>
            <Position>
              <LatitudeDegrees>42.7175514400005340576171875</LatitudeDegrees>
              <LongitudeDegrees>-0.22492409683763980865478515625</LongitudeDegrees>
            </Position>
            <AltitudeMeters>1786</AltitudeMeters>
            <DistanceMeters>6724.4331592539</DistanceMeters>
          </Trackpoint>
          <Trackpoint>
            <Time>2021-07-17T11:32:33.000Z</Time>
            <Position>
              <LatitudeDegrees>42.717566192150115966796875</LatitudeDegrees>
              <LongitudeDegrees>-0.22493398748338222503662109375</LongitudeDegrees>
            </Position>
            <AltitudeMeters>1786</AltitudeMeters>
            <DistanceMeters>6726.2659681466</DistanceMeters>
          </Trackpoint>
          <Trackpoint>
            <Time>2021-07-17T11:32:34.000Z</Time>
            <Position>
              <LatitudeDegrees>42.717566192150115966796875</LatitudeDegrees>
              <LongitudeDegrees>-0.22493398748338222503662109375</LongitudeDegrees>
            </Position>
            <AltitudeMeters>1786</AltitudeMeters>
            <DistanceMeters>6726.2659681466</DistanceMeters>
          </Trackpoint>
          <Trackpoint>
            <Time>2021-07-17T11:32:44.000Z</Time>
            <Position>
              <LatitudeDegrees>42.71756560541689395904541015625</LatitudeDegrees>
              <LongitudeDegrees>-0.22493398748338222503662109375</LongitudeDegrees>
            </Position>
            <AltitudeMeters>1786</AltitudeMeters>
            <DistanceMeters>6726.360994861</DistanceMeters>
          </Trackpoint>
          <Trackpoint>
            <Time>2021-07-17T11:32:47.000Z</Time>
            <Position>
              <LatitudeDegrees>42.71756560541689395904541015625</LatitudeDegrees>
              <LongitudeDegrees>-0.22493616677820682525634765625</LongitudeDegrees>
            </Position>
            <AltitudeMeters>1786</AltitudeMeters>
            <DistanceMeters>6726.5510482897</DistanceMeters>
          </Trackpoint>
          <Trackpoint>
            <Time>2021-07-17T11:32:53.000Z</Time>
            <Position>
              <LatitudeDegrees>42.7175660245120525360107421875</LatitudeDegrees>
              <LongitudeDegrees>-0.224961899220943450927734375</LongitudeDegrees>
            </Position>
            <AltitudeMeters>1785.800048828125</AltitudeMeters>
            <DistanceMeters>6728.6545542815</DistanceMeters>
          </Trackpoint>
          <Trackpoint>
            <Time>2021-07-17T11:33:07.000Z</Time>
            <Position>
              <LatitudeDegrees>42.71756644360721111297607421875</LatitudeDegrees>
              <LongitudeDegrees>-0.22497070021927356719970703125</LongitudeDegrees>
            </Position>
            <AltitudeMeters>1785.800048828125</AltitudeMeters>
            <DistanceMeters>6729.3782561771</DistanceMeters>
          </Trackpoint>
          <Trackpoint>
            <Time>2021-07-17T11:33:36.000Z</Time>
            <Position>
              <LatitudeDegrees>42.71756242029368877410888671875</LatitudeDegrees>
              <LongitudeDegrees>-0.22499081678688526153564453125</LongitudeDegrees>
            </Position>
            <AltitudeMeters>1785.800048828125</AltitudeMeters>
            <DistanceMeters>6731.0834496016</DistanceMeters>
          </Trackpoint>
          <Trackpoint>
            <Time>2021-07-17T11:33:39.000Z</Time>
            <Position>
              <LatitudeDegrees>42.7175616659224033355712890625</LatitudeDegrees>
              <LongitudeDegrees>-0.2249811775982379913330078125</LongitudeDegrees>
            </Position>
            <AltitudeMeters>1785.800048828125</AltitudeMeters>
            <DistanceMeters>6731.8785001353</DistanceMeters>
          </Trackpoint>
          <Trackpoint>
            <Time>2021-07-17T11:33:46.000Z</Time>
            <Position>
              <LatitudeDegrees>42.7175603248178958892822265625</LatitudeDegrees>
              <LongitudeDegrees>-0.2249741367995738983154296875</LongitudeDegrees>
            </Position>
            <AltitudeMeters>1785.800048828125</AltitudeMeters>
            <DistanceMeters>6732.4795018472</DistanceMeters>
          </Trackpoint>
          <Trackpoint>
            <Time>2021-07-17T11:34:01.000Z</Time>
            <Position>
              <LatitudeDegrees>42.71755856461822986602783203125</LatitudeDegrees>
              <LongitudeDegrees>-0.22497623227536678314208984375</LongitudeDegrees>
            </Position>
            <AltitudeMeters>1785.800048828125</AltitudeMeters>
            <DistanceMeters>6732.7309189014</DistanceMeters>
          </Trackpoint>
          <Trackpoint>
            <Time>2021-07-17T11:34:06.000Z</Time>
            <Position>
              <LatitudeDegrees>42.71755856461822986602783203125</LatitudeDegrees>
              <LongitudeDegrees>-0.2249796688556671142578125</LongitudeDegrees>
            </Position>
            <AltitudeMeters>1785.800048828125</AltitudeMeters>
            <DistanceMeters>6732.9996950379</DistanceMeters>
          </Trackpoint>
          <Trackpoint>
            <Time>2021-07-17T11:34:09.000Z</Time>
            <Position>
              <LatitudeDegrees>42.71755940280854701995849609375</LatitudeDegrees>
              <LongitudeDegrees>-0.2249798364937305450439453125</LongitudeDegrees>
            </Position>
            <AltitudeMeters>1785.800048828125</AltitudeMeters>
            <DistanceMeters>6733.0947217522</DistanceMeters>
          </Trackpoint>
          <Trackpoint>
            <Time>2021-07-17T11:34:59.000Z</Time>
            <Position>
              <LatitudeDegrees>42.7175541222095489501953125</LatitudeDegrees>
              <LongitudeDegrees>-0.2249828539788722991943359375</LongitudeDegrees>
            </Position>
            <AltitudeMeters>1785.800048828125</AltitudeMeters>
            <DistanceMeters>6733.7250576655</DistanceMeters>
          </Trackpoint>
          <Trackpoint>
            <Time>2021-07-17T11:35:07.000Z</Time>
            <Position>
              <LatitudeDegrees>42.7175599895417690277099609375</LatitudeDegrees>
              <LongitudeDegrees>-0.2249868772923946380615234375</LongitudeDegrees>
            </Position>
            <AltitudeMeters>1785.800048828125</AltitudeMeters>
            <DistanceMeters>6734.4487595611</DistanceMeters>
          </Trackpoint>
          <Trackpoint>
            <Time>2021-07-17T11:35:37.000Z</Time>
            <Position>
              <LatitudeDegrees>42.71757164038717746734619140625</LatitudeDegrees>
              <LongitudeDegrees>-0.22499400191009044647216796875</LongitudeDegrees>
            </Position>
            <AltitudeMeters>1785.800048828125</AltitudeMeters>
            <DistanceMeters>6735.8709891922</DistanceMeters>
          </Trackpoint>
          <Trackpoint>
            <Time>2021-07-17T11:36:13.000Z</Time>
            <Position>
              <LatitudeDegrees>42.7175744064152240753173828125</LatitudeDegrees>
              <LongitudeDegrees>-0.22498629055917263031005859375</LongitudeDegrees>
            </Position>
            <AltitudeMeters>1785.800048828125</AltitudeMeters>
            <DistanceMeters>6736.5692900786</DistanceMeters>
          </Trackpoint>
          <Trackpoint>
            <Time>2021-07-17T11:36:30.000Z</Time>
            <Position>
              <LatitudeDegrees>42.717574574053287506103515625</LatitudeDegrees>
              <LongitudeDegrees>-0.224986039102077484130859375</LongitudeDegrees>
            </Position>
            <AltitudeMeters>1785.800048828125</AltitudeMeters>
            <DistanceMeters>6736.5692900786</DistanceMeters>
          </Trackpoint>
          <Trackpoint>
            <Time>2021-07-17T11:36:33.000Z</Time>
            <Position>
              <LatitudeDegrees>42.71757465787231922149658203125</LatitudeDegrees>
              <LongitudeDegrees>-0.224986039102077484130859375</LongitudeDegrees>
            </Position>
            <AltitudeMeters>1785.800048828125</AltitudeMeters>
            <DistanceMeters>6736.5692900786</DistanceMeters>
          </Trackpoint>
          <Trackpoint>
            <Time>2021-07-17T11:36:48.000Z</Time>
            <Position>
              <LatitudeDegrees>42.71757516078650951385498046875</LatitudeDegrees>
              <LongitudeDegrees>-0.2249858714640140533447265625</LongitudeDegrees>
            </Position>
            <AltitudeMeters>1785.800048828125</AltitudeMeters>
            <DistanceMeters>6736.5692900786</DistanceMeters>
          </Trackpoint>
          <Trackpoint>
            <Time>2021-07-17T11:36:54.000Z</Time>
            <Position>
              <LatitudeDegrees>42.71757532842457294464111328125</LatitudeDegrees>
              <LongitudeDegrees>-0.22498570382595062255859375</LongitudeDegrees>
            </Position>
            <AltitudeMeters>1785.800048828125</AltitudeMeters>
            <DistanceMeters>6736.5692900786</DistanceMeters>
          </Trackpoint>
          <Trackpoint>
            <Time>2021-07-17T11:37:31.000Z</Time>
            <Position>
              <LatitudeDegrees>42.717575915157794952392578125</LatitudeDegrees>
              <LongitudeDegrees>-0.2249845303595066070556640625</LongitudeDegrees>
            </Position>
            <AltitudeMeters>1785.800048828125</AltitudeMeters>
            <DistanceMeters>6736.664316793</DistanceMeters>
          </Trackpoint>
          <Trackpoint>
            <Time>2021-07-17T11:37:36.000Z</Time>
            <Position>
              <LatitudeDegrees>42.71757599897682666778564453125</LatitudeDegrees>
              <LongitudeDegrees>-0.22498427890241146087646484375</LongitudeDegrees>
            </Position>
            <AltitudeMeters>1785.800048828125</AltitudeMeters>
            <DistanceMeters>6736.664316793</DistanceMeters>
          </Trackpoint>
          <Trackpoint>
            <Time>2021-07-17T11:37:55.000Z</Time>
            <Position>
              <LatitudeDegrees>42.71762159653007984161376953125</LatitudeDegrees>
              <LongitudeDegrees>-0.2250247634947299957275390625</LongitudeDegrees>
            </Position>
            <AltitudeMeters>1785.800048828125</AltitudeMeters>
            <DistanceMeters>6742.7237136954</DistanceMeters>
          </Trackpoint>
          <Trackpoint>
            <Time>2021-07-17T11:38:03.000Z</Time>
            <Position>
              <LatitudeDegrees>42.71769133396446704864501953125</LatitudeDegrees>
              <LongitudeDegrees>-0.22511939518153667449951171875</LongitudeDegrees>
            </Position>
            <AltitudeMeters>1785.199951171875</AltitudeMeters>
            <DistanceMeters>6753.6839649213</DistanceMeters>
          </Trackpoint>
          <Trackpoint>
            <Time>2021-07-17T11:38:04.000Z</Time>
            <Position>
              <LatitudeDegrees>42.71769435144960880279541015625</LatitudeDegrees>
              <LongitudeDegrees>-0.2251276932656764984130859375</LongitudeDegrees>
            </Position>
            <AltitudeMeters>1785</AltitudeMeters>
            <DistanceMeters>6754.4382160836</DistanceMeters>
          </Trackpoint>
          <Trackpoint>
            <Time>2021-07-17T11:38:10.000Z</Time>
            <Position>
              <LatitudeDegrees>42.71772234700620174407958984375</LatitudeDegrees>
              <LongitudeDegrees>-0.22514931857585906982421875</LongitudeDegrees>
            </Position>
            <AltitudeMeters>1784.5999755859375</AltitudeMeters>
            <DistanceMeters>6758.0228776827</DistanceMeters>
          </Trackpoint>
          <Trackpoint>
            <Time>2021-07-17T11:38:14.000Z</Time>
            <Position>
              <LatitudeDegrees>42.71776325069367885589599609375</LatitudeDegrees>
              <LongitudeDegrees>-0.22517756558954715728759765625</LongitudeDegrees>
            </Position>
            <AltitudeMeters>1783.800048828125</AltitudeMeters>
            <DistanceMeters>6763.1278557059</DistanceMeters>
          </Trackpoint>
          <Trackpoint>
            <Time>2021-07-17T11:38:17.000Z</Time>
            <Position>
              <LatitudeDegrees>42.71778219379484653472900390625</LatitudeDegrees>
              <LongitudeDegrees>-0.22517706267535686492919921875</LongitudeDegrees>
            </Position>
            <AltitudeMeters>1783.800048828125</AltitudeMeters>
            <DistanceMeters>6765.2356501955</DistanceMeters>
          </Trackpoint>
          <Trackpoint>
            <Time>2021-07-17T11:38:19.000Z</Time>
            <Position>
              <LatitudeDegrees>42.71779996342957019805908203125</LatitudeDegrees>
              <LongitudeDegrees>-0.225163064897060394287109375</LongitudeDegrees>
            </Position>
            <AltitudeMeters>1783.800048828125</AltitudeMeters>
            <DistanceMeters>6767.5202473557</DistanceMeters>
          </Trackpoint>
          <Trackpoint>
            <Time>2021-07-17T11:38:22.000Z</Time>
            <Position>
              <LatitudeDegrees>42.71781790070235729217529296875</LatitudeDegrees>
              <LongitudeDegrees>-0.22518192417919635772705078125</LongitudeDegrees>
            </Position>
            <AltitudeMeters>1783.4000244140625</AltitudeMeters>
            <DistanceMeters>6770.0415910088</DistanceMeters>
          </Trackpoint>
          <Trackpoint>
            <Time>2021-07-17T11:38:24.000Z</Time>
            <Position>
              <LatitudeDegrees>42.7178362570703029632568359375</LatitudeDegrees>
              <LongitudeDegrees>-0.22519064135849475860595703125</LongitudeDegrees>
            </Position>
            <AltitudeMeters>1783.199951171875</AltitudeMeters>
            <DistanceMeters>6772.2064488966</DistanceMeters>
          </Trackpoint>
          <Trackpoint>
            <Time>2021-07-17T11:38:28.000Z</Time>
            <Position>
              <LatitudeDegrees>42.71786584518849849700927734375</LatitudeDegrees>
              <LongitudeDegrees>-0.225217379629611968994140625</LongitudeDegrees>
            </Position>
            <AltitudeMeters>1782.800048828125</AltitudeMeters>
            <DistanceMeters>6776.1589205597</DistanceMeters>
          </Trackpoint>
          <Trackpoint>
            <Time>2021-07-17T11:38:31.000Z</Time>
            <Position>
              <LatitudeDegrees>42.71787825040519237518310546875</LatitudeDegrees>
              <LongitudeDegrees>-0.2252403460443019866943359375</LongitudeDegrees>
            </Position>
            <AltitudeMeters>1782.4000244140625</AltitudeMeters>
            <DistanceMeters>6778.490466403</DistanceMeters>
          </Trackpoint>
          <Trackpoint>
            <Time>2021-07-17T11:38:40.000Z</Time>
            <Position>
              <LatitudeDegrees>42.71794974803924560546875</LatitudeDegrees>
              <LongitudeDegrees>-0.22526004351675510406494140625</LongitudeDegrees>
            </Position>
            <AltitudeMeters>1782.199951171875</AltitudeMeters>
            <DistanceMeters>6786.6095524378</DistanceMeters>
          </Trackpoint>
          <Trackpoint>
            <Time>2021-07-17T11:38:44.000Z</Time>
            <Position>
              <LatitudeDegrees>42.71797296591103076934814453125</LatitudeDegrees>
              <LongitudeDegrees>-0.22529876790940761566162109375</LongitudeDegrees>
            </Position>
            <AltitudeMeters>1781.4000244140625</AltitudeMeters>
            <DistanceMeters>6790.6968059682</DistanceMeters>
          </Trackpoint>
          <Trackpoint>
            <Time>2021-07-17T11:38:46.000Z</Time>
            <Position>
              <LatitudeDegrees>42.71798285655677318572998046875</LatitudeDegrees>
              <LongitudeDegrees>-0.225322656333446502685546875</LongitudeDegrees>
            </Position>
            <AltitudeMeters>1781</AltitudeMeters>
            <DistanceMeters>6792.9415292597</DistanceMeters>
          </Trackpoint>
          <Trackpoint>
            <Time>2021-07-17T11:38:47.000Z</Time>
            <Position>
              <LatitudeDegrees>42.71798587404191493988037109375</LatitudeDegrees>
              <LongitudeDegrees>-0.22533304989337921142578125</LongitudeDegrees>
            </Position>
            <AltitudeMeters>1780.800048828125</AltitudeMeters>
            <DistanceMeters>6793.8579337061</DistanceMeters>
          </Trackpoint>
          <Trackpoint>
            <Time>2021-07-17T11:38:51.000Z</Time>
            <Position>
              <LatitudeDegrees>42.71799358539283275604248046875</LatitudeDegrees>
              <LongitudeDegrees>-0.225376971065998077392578125</LongitudeDegrees>
            </Position>
            <AltitudeMeters>1780.4000244140625</AltitudeMeters>
            <DistanceMeters>6797.5493271224</DistanceMeters>
          </Trackpoint>
          <Trackpoint>
            <Time>2021-07-17T11:38:57.000Z</Time>
            <Position>
              <LatitudeDegrees>42.71802912466228008270263671875</LatitudeDegrees>
              <LongitudeDegrees>-0.22541343234479427337646484375</LongitudeDegrees>
            </Position>
            <AltitudeMeters>1780.4000244140625</AltitudeMeters>
            <DistanceMeters>6802.5034918123</DistanceMeters>
          </Trackpoint>
          <Trackpoint>
            <Time>2021-07-17T11:38:58.000Z</Time>
            <Position>
              <LatitudeDegrees>42.71804052405059337615966796875</LatitudeDegrees>
              <LongitudeDegrees>-0.22542558610439300537109375</LongitudeDegrees>
            </Position>
            <AltitudeMeters>1780.4000244140625</AltitudeMeters>
            <DistanceMeters>6804.1161486313</DistanceMeters>
          </Trackpoint>
          <Trackpoint>
            <Time>2021-07-17T11:39:03.000Z</Time>
            <Position>
              <LatitudeDegrees>42.71808193065226078033447265625</LatitudeDegrees>
              <LongitudeDegrees>-0.225477553904056549072265625</LongitudeDegrees>
            </Position>
            <AltitudeMeters>1780.5999755859375</AltitudeMeters>
            <DistanceMeters>6810.3850315209</DistanceMeters>
          </Trackpoint>
          <Trackpoint>
            <Time>2021-07-17T11:39:12.000Z</Time>
            <Position>
              <LatitudeDegrees>42.7181329764425754547119140625</LatitudeDegrees>
              <LongitudeDegrees>-0.2255317009985446929931640625</LongitudeDegrees>
            </Position>
            <AltitudeMeters>1780.4000244140625</AltitudeMeters>
            <DistanceMeters>6817.5882821237</DistanceMeters>
          </Trackpoint>
          <Trackpoint>
            <Time>2021-07-17T11:39:21.000Z</Time>
            <Position>
              <LatitudeDegrees>42.71816859953105449676513671875</LatitudeDegrees>
              <LongitudeDegrees>-0.22560118697583675384521484375</LongitudeDegrees>
            </Position>
            <AltitudeMeters>1779.4000244140625</AltitudeMeters>
            <DistanceMeters>6824.517417456</DistanceMeters>
          </Trackpoint>
          <Trackpoint>
            <Time>2021-07-17T11:39:31.000Z</Time>
            <Position>
              <LatitudeDegrees>42.71821235306560993194580078125</LatitudeDegrees>
              <LongitudeDegrees>-0.22568249143660068511962890625</LongitudeDegrees>
            </Position>
            <AltitudeMeters>1779</AltitudeMeters>
            <DistanceMeters>6832.7590334997</DistanceMeters>
          </Trackpoint>
          <Trackpoint>
            <Time>2021-07-17T11:39:39.000Z</Time>
            <Position>
              <LatitudeDegrees>42.718252837657928466796875</LatitudeDegrees>
              <LongitudeDegrees>-0.22573613561689853668212890625</LongitudeDegrees>
            </Position>
            <AltitudeMeters>1780.800048828125</AltitudeMeters>
            <DistanceMeters>6839.0480504995</DistanceMeters>
          </Trackpoint>
          <Trackpoint>
            <Time>2021-07-17T11:39:41.000Z</Time>
            <Position>
              <LatitudeDegrees>42.71826901473104953765869140625</LatitudeDegrees>
              <LongitudeDegrees>-0.22574569098651409149169921875</LongitudeDegrees>
            </Position>
            <AltitudeMeters>1781.199951171875</AltitudeMeters>
            <DistanceMeters>6841.0093797848</DistanceMeters>
          </Trackpoint>
          <Trackpoint>
            <Time>2021-07-17T11:39:48.000Z</Time>
            <Position>
              <LatitudeDegrees>42.71830170415341854095458984375</LatitudeDegrees>
              <LongitudeDegrees>-0.2257875166833400726318359375</LongitudeDegrees>
            </Position>
            <AltitudeMeters>1781.5999755859375</AltitudeMeters>
            <DistanceMeters>6846.0016749468</DistanceMeters>
          </Trackpoint>
          <Trackpoint>
            <Time>2021-07-17T11:39:49.000Z</Time>
            <Position>
              <LatitudeDegrees>42.71830715239048004150390625</LatitudeDegrees>
              <LongitudeDegrees>-0.22578977979719638824462890625</LongitudeDegrees>
            </Position>
            <AltitudeMeters>1781.5999755859375</AltitudeMeters>
            <DistanceMeters>6846.6320108601</DistanceMeters>
          </Trackpoint>
          <Trackpoint>
            <Time>2021-07-17T11:39:57.000Z</Time>
            <Position>
              <LatitudeDegrees>42.718312181532382965087890625</LatitudeDegrees>
              <LongitudeDegrees>-0.225849710404872894287109375</LongitudeDegrees>
            </Position>
            <AltitudeMeters>1780.4000244140625</AltitudeMeters>
            <DistanceMeters>6851.5651696875</DistanceMeters>
          </Trackpoint>
          <Trackpoint>
            <Time>2021-07-17T11:40:05.000Z</Time>
            <Position>
              <LatitudeDegrees>42.71831343881785869598388671875</LatitudeDegrees>
              <LongitudeDegrees>-0.22594098933041095733642578125</LongitudeDegrees>
            </Position>
            <AltitudeMeters>1779.199951171875</AltitudeMeters>
            <DistanceMeters>6859.0306657736</DistanceMeters>
          </Trackpoint>
          <Trackpoint>
            <Time>2021-07-17T11:40:16.000Z</Time>
            <Position>
              <LatitudeDegrees>42.71829986013472080230712890625</LatitudeDegrees>
              <LongitudeDegrees>-0.226087756454944610595703125</LongitudeDegrees>
            </Position>
            <AltitudeMeters>1776.800048828125</AltitudeMeters>
            <DistanceMeters>6871.1270850247</DistanceMeters>
          </Trackpoint>
          <Trackpoint>
            <Time>2021-07-17T11:40:23.000Z</Time>
            <Position>
              <LatitudeDegrees>42.71831327117979526519775390625</LatitudeDegrees>
              <LongitudeDegrees>-0.226166546344757080078125</LongitudeDegrees>
            </Position>
            <AltitudeMeters>1776</AltitudeMeters>
            <DistanceMeters>6877.7401524082</DistanceMeters>
          </Trackpoint>
          <Trackpoint>
            <Time>2021-07-17T11:40:31.000Z</Time>
            <Position>
              <LatitudeDegrees>42.71831394173204898834228515625</LatitudeDegrees>
              <LongitudeDegrees>-0.2262295782566070556640625</LongitudeDegrees>
            </Position>
            <AltitudeMeters>1775</AltitudeMeters>
            <DistanceMeters>6882.8944210176</DistanceMeters>
          </Trackpoint>
          <Trackpoint>
            <Time>2021-07-17T11:40:32.000Z</Time>
            <Position>
              <LatitudeDegrees>42.71831360645592212677001953125</LatitudeDegrees>
              <LongitudeDegrees>-0.22623284719884395599365234375</LongitudeDegrees>
            </Position>
            <AltitudeMeters>1774.800048828125</AltitudeMeters>
            <DistanceMeters>6883.1631971541</DistanceMeters>
          </Trackpoint>
          <Trackpoint>
            <Time>2021-07-17T11:40:38.000Z</Time>
            <Position>
              <LatitudeDegrees>42.718315534293651580810546875</LatitudeDegrees>
              <LongitudeDegrees>-0.2262270636856555938720703125</LongitudeDegrees>
            </Position>
            <AltitudeMeters>1775</AltitudeMeters>
            <DistanceMeters>6883.6922835079</DistanceMeters>
          </Trackpoint>
          <Trackpoint>
            <Time>2021-07-17T11:40:49.000Z</Time>
            <Position>
              <LatitudeDegrees>42.7183089964091777801513671875</LatitudeDegrees>
              <LongitudeDegrees>-0.2262183465063571929931640625</LongitudeDegrees>
            </Position>
            <AltitudeMeters>1775</AltitudeMeters>
            <DistanceMeters>6884.7068911732</DistanceMeters>
          </Trackpoint>
          <Trackpoint>
            <Time>2021-07-17T11:41:02.000Z</Time>
            <Position>
              <LatitudeDegrees>42.71831519901752471923828125</LatitudeDegrees>
              <LongitudeDegrees>-0.22623066790401935577392578125</LongitudeDegrees>
            </Position>
            <AltitudeMeters>1775</AltitudeMeters>
            <DistanceMeters>6885.9312247429</DistanceMeters>
          </Trackpoint>
          <Trackpoint>
            <Time>2021-07-17T11:41:04.000Z</Time>
            <Position>
              <LatitudeDegrees>42.7183157019317150115966796875</LatitudeDegrees>
              <LongitudeDegrees>-0.2262310869991779327392578125</LongitudeDegrees>
            </Position>
            <AltitudeMeters>1775</AltitudeMeters>
            <DistanceMeters>6885.9312247429</DistanceMeters>
          </Trackpoint>
          <Trackpoint>
            <Time>2021-07-17T11:41:11.000Z</Time>
            <Position>
              <LatitudeDegrees>42.7183170430362224578857421875</LatitudeDegrees>
              <LongitudeDegrees>-0.226230584084987640380859375</LongitudeDegrees>
            </Position>
            <AltitudeMeters>1775</AltitudeMeters>
            <DistanceMeters>6886.0656128111</DistanceMeters>
          </Trackpoint>
          <Trackpoint>
            <Time>2021-07-17T11:41:13.000Z</Time>
            <Position>
              <LatitudeDegrees>42.7183170430362224578857421875</LatitudeDegrees>
              <LongitudeDegrees>-0.226230584084987640380859375</LongitudeDegrees>
            </Position>
            <AltitudeMeters>1775</AltitudeMeters>
            <DistanceMeters>6886.0656128111</DistanceMeters>
          </Trackpoint>
          <Trackpoint>
            <Time>2021-07-17T11:41:14.000Z</Time>
            <Position>
              <LatitudeDegrees>42.7183170430362224578857421875</LatitudeDegrees>
              <LongitudeDegrees>-0.226230584084987640380859375</LongitudeDegrees>
            </Position>
            <AltitudeMeters>1775</AltitudeMeters>
            <DistanceMeters>6886.0656128111</DistanceMeters>
          </Trackpoint>
          <Trackpoint>
            <Time>2021-07-17T11:41:15.000Z</Time>
            <Position>
              <LatitudeDegrees>42.7183170430362224578857421875</LatitudeDegrees>
              <LongitudeDegrees>-0.226230584084987640380859375</LongitudeDegrees>
            </Position>
            <AltitudeMeters>1775</AltitudeMeters>
            <DistanceMeters>6886.0656128111</DistanceMeters>
          </Trackpoint>
          <Trackpoint>
            <Time>2021-07-17T11:41:23.000Z</Time>
            <Position>
              <LatitudeDegrees>42.7183173783123493194580078125</LatitudeDegrees>
              <LongitudeDegrees>-0.2262046001851558685302734375</LongitudeDegrees>
            </Position>
            <AltitudeMeters>1775.4000244140625</AltitudeMeters>
            <DistanceMeters>6888.1904747412</DistanceMeters>
          </Trackpoint>
          <Trackpoint>
            <Time>2021-07-17T11:41:33.000Z</Time>
            <Position>
              <LatitudeDegrees>42.718317210674285888671875</LatitudeDegrees>
              <LongitudeDegrees>-0.226191692054271697998046875</LongitudeDegrees>
            </Position>
            <AltitudeMeters>1775.5999755859375</AltitudeMeters>
            <DistanceMeters>6889.2486474488</DistanceMeters>
          </Trackpoint>
          <Trackpoint>
            <Time>2021-07-17T11:41:41.000Z</Time>
            <Position>
              <LatitudeDegrees>42.71831695921719074249267578125</LatitudeDegrees>
              <LongitudeDegrees>-0.22618867456912994384765625</LongitudeDegrees>
            </Position>
            <AltitudeMeters>1775.800048828125</AltitudeMeters>
            <DistanceMeters>6889.4814144109</DistanceMeters>
          </Trackpoint>
          <Trackpoint>
            <Time>2021-07-17T11:41:55.000Z</Time>
            <Position>
              <LatitudeDegrees>42.71831477992236614227294921875</LatitudeDegrees>
              <LongitudeDegrees>-0.22618875838816165924072265625</LongitudeDegrees>
            </Position>
            <AltitudeMeters>1775.5999755859375</AltitudeMeters>
            <DistanceMeters>6889.7141813731</DistanceMeters>
          </Trackpoint>
          <Trackpoint>
            <Time>2021-07-17T11:42:05.000Z</Time>
            <Position>
              <LatitudeDegrees>42.7183140255510807037353515625</LatitudeDegrees>
              <LongitudeDegrees>-0.22619110532104969024658203125</LongitudeDegrees>
            </Position>
            <AltitudeMeters>1775.5999755859375</AltitudeMeters>
            <DistanceMeters>6889.9042348018</DistanceMeters>
          </Trackpoint>
          <Trackpoint>
            <Time>2021-07-17T11:42:35.000Z</Time>
            <Position>
              <LatitudeDegrees>42.7183267660439014434814453125</LatitudeDegrees>
              <LongitudeDegrees>-0.22619898431003093719482421875</LongitudeDegrees>
            </Position>
            <AltitudeMeters>1775.800048828125</AltitudeMeters>
            <DistanceMeters>6891.4598891615</DistanceMeters>
          </Trackpoint>
          <Trackpoint>
            <Time>2021-07-17T11:42:44.000Z</Time>
            <Position>
              <LatitudeDegrees>42.718327604234218597412109375</LatitudeDegrees>
              <LongitudeDegrees>-0.22620283998548984527587890625</LongitudeDegrees>
            </Position>
            <AltitudeMeters>1775.800048828125</AltitudeMeters>
            <DistanceMeters>6891.7890713563</DistanceMeters>
          </Trackpoint>
          <Trackpoint>
            <Time>2021-07-17T11:42:59.000Z</Time>
            <Position>
              <LatitudeDegrees>42.71831980906426906585693359375</LatitudeDegrees>
              <LongitudeDegrees>-0.226194374263286590576171875</LongitudeDegrees>
            </Position>
            <AltitudeMeters>1775.800048828125</AltitudeMeters>
            <DistanceMeters>6892.8972637567</DistanceMeters>
          </Trackpoint>
          <Trackpoint>
            <Time>2021-07-17T11:43:20.000Z</Time>
            <Position>
              <LatitudeDegrees>42.71831628866493701934814453125</LatitudeDegrees>
              <LongitudeDegrees>-0.226193703711032867431640625</LongitudeDegrees>
            </Position>
            <AltitudeMeters>1775.5999755859375</AltitudeMeters>
            <DistanceMeters>6893.3004279614</DistanceMeters>
          </Trackpoint>
          <Trackpoint>
            <Time>2021-07-17T11:43:24.000Z</Time>
            <Position>
              <LatitudeDegrees>42.7183177135884761810302734375</LatitudeDegrees>
              <LongitudeDegrees>-0.2261945419013500213623046875</LongitudeDegrees>
            </Position>
            <AltitudeMeters>1775.5999755859375</AltitudeMeters>
            <DistanceMeters>6893.4904813902</DistanceMeters>
          </Trackpoint>
          <Trackpoint>
            <Time>2021-07-17T11:43:46.000Z</Time>
            <Position>
              <LatitudeDegrees>42.718324251472949981689453125</LatitudeDegrees>
              <LongitudeDegrees>-0.22619538009166717529296875</LongitudeDegrees>
            </Position>
            <AltitudeMeters>1775.800048828125</AltitudeMeters>
            <DistanceMeters>6894.2265551546</DistanceMeters>
          </Trackpoint>
          <Trackpoint>
            <Time>2021-07-17T11:43:48.000Z</Time>
            <Position>
              <LatitudeDegrees>42.71832450293004512786865234375</LatitudeDegrees>
              <LongitudeDegrees>-0.2261952124536037445068359375</LongitudeDegrees>
            </Position>
            <AltitudeMeters>1775.800048828125</AltitudeMeters>
            <DistanceMeters>6894.2265551546</DistanceMeters>
          </Trackpoint>
          <Trackpoint>
            <Time>2021-07-17T11:43:52.000Z</Time>
            <Position>
              <LatitudeDegrees>42.71832416765391826629638671875</LatitudeDegrees>
              <LongitudeDegrees>-0.2261955477297306060791015625</LongitudeDegrees>
            </Position>
            <AltitudeMeters>1775.800048828125</AltitudeMeters>
            <DistanceMeters>6894.2265551546</DistanceMeters>
          </Trackpoint>
          <Trackpoint>
            <Time>2021-07-17T11:44:03.000Z</Time>
            <Position>
              <LatitudeDegrees>42.71832332946360111236572265625</LatitudeDegrees>
              <LongitudeDegrees>-0.22619663737714290618896484375</LongitudeDegrees>
            </Position>
            <AltitudeMeters>1775.800048828125</AltitudeMeters>
            <DistanceMeters>6894.3609432228</DistanceMeters>
          </Trackpoint>
          <Trackpoint>
            <Time>2021-07-17T11:44:16.000Z</Time>
            <Position>
              <LatitudeDegrees>42.7183234132826328277587890625</LatitudeDegrees>
              <LongitudeDegrees>-0.2261968888342380523681640625</LongitudeDegrees>
            </Position>
            <AltitudeMeters>1775.800048828125</AltitudeMeters>
            <DistanceMeters>6894.3609432228</DistanceMeters>
          </Trackpoint>
          <Trackpoint>
            <Time>2021-07-17T11:44:49.000Z</Time>
            <Position>
              <LatitudeDegrees>42.71832349710166454315185546875</LatitudeDegrees>
              <LongitudeDegrees>-0.2261975593864917755126953125</LongitudeDegrees>
            </Position>
            <AltitudeMeters>1775.800048828125</AltitudeMeters>
            <DistanceMeters>6894.4559699372</DistanceMeters>
          </Trackpoint>
          <Trackpoint>
            <Time>2021-07-17T11:44:51.000Z</Time>
            <Position>
              <LatitudeDegrees>42.7183234132826328277587890625</LatitudeDegrees>
              <LongitudeDegrees>-0.2261975593864917755126953125</LongitudeDegrees>
            </Position>
            <AltitudeMeters>1775.800048828125</AltitudeMeters>
            <DistanceMeters>6894.4559699372</DistanceMeters>
          </Trackpoint>
          <Trackpoint>
            <Time>2021-07-17T11:45:12.000Z</Time>
            <Position>
              <LatitudeDegrees>42.71832324564456939697265625</LatitudeDegrees>
              <LongitudeDegrees>-0.22619781084358692169189453125</LongitudeDegrees>
            </Position>
            <AltitudeMeters>1775.800048828125</AltitudeMeters>
            <DistanceMeters>6894.4559699372</DistanceMeters>
          </Trackpoint>
          <Trackpoint>
            <Time>2021-07-17T11:45:39.000Z</Time>
            <Position>
              <LatitudeDegrees>42.71832324564456939697265625</LatitudeDegrees>
              <LongitudeDegrees>-0.2261982299387454986572265625</LongitudeDegrees>
            </Position>
            <AltitudeMeters>1775.800048828125</AltitudeMeters>
            <DistanceMeters>6894.4559699372</DistanceMeters>
          </Trackpoint>
          <Trackpoint>
            <Time>2021-07-17T11:45:44.000Z</Time>
            <Position>
              <LatitudeDegrees>42.71832316182553768157958984375</LatitudeDegrees>
              <LongitudeDegrees>-0.2261982299387454986572265625</LongitudeDegrees>
            </Position>
            <AltitudeMeters>1775.800048828125</AltitudeMeters>
            <DistanceMeters>6894.4559699372</DistanceMeters>
          </Trackpoint>
          <Trackpoint>
            <Time>2021-07-17T11:46:17.000Z</Time>
            <Position>
              <LatitudeDegrees>42.71832366473972797393798828125</LatitudeDegrees>
              <LongitudeDegrees>-0.2261989004909992218017578125</LongitudeDegrees>
            </Position>
            <AltitudeMeters>1775.800048828125</AltitudeMeters>
            <DistanceMeters>6894.5903580055</DistanceMeters>
          </Trackpoint>
          <Trackpoint>
            <Time>2021-07-17T11:46:28.000Z</Time>
            <Position>
              <LatitudeDegrees>42.71832400001585483551025390625</LatitudeDegrees>
              <LongitudeDegrees>-0.2261992357671260833740234375</LongitudeDegrees>
            </Position>
            <AltitudeMeters>1775.800048828125</AltitudeMeters>
            <DistanceMeters>6894.5903580055</DistanceMeters>
          </Trackpoint>
          <Trackpoint>
            <Time>2021-07-17T11:46:42.000Z</Time>
            <Position>
              <LatitudeDegrees>42.7183244191110134124755859375</LatitudeDegrees>
              <LongitudeDegrees>-0.2261995710432529449462890625</LongitudeDegrees>
            </Position>
            <AltitudeMeters>1775.800048828125</AltitudeMeters>
            <DistanceMeters>6894.5903580055</DistanceMeters>
          </Trackpoint>
          <Trackpoint>
            <Time>2021-07-17T11:46:46.000Z</Time>
            <Position>
              <LatitudeDegrees>42.71832450293004512786865234375</LatitudeDegrees>
              <LongitudeDegrees>-0.22619965486228466033935546875</LongitudeDegrees>
            </Position>
            <AltitudeMeters>1775.800048828125</AltitudeMeters>
            <DistanceMeters>6894.5903580055</DistanceMeters>
          </Trackpoint>
          <Trackpoint>
            <Time>2021-07-17T11:46:55.000Z</Time>
            <Position>
              <LatitudeDegrees>42.71832467056810855865478515625</LatitudeDegrees>
              <LongitudeDegrees>-0.22619982250034809112548828125</LongitudeDegrees>
            </Position>
            <AltitudeMeters>1775.800048828125</AltitudeMeters>
            <DistanceMeters>6894.5903580055</DistanceMeters>
          </Trackpoint>
          <Trackpoint>
            <Time>2021-07-17T11:46:59.000Z</Time>
            <Position>
              <LatitudeDegrees>42.7183247543871402740478515625</LatitudeDegrees>
              <LongitudeDegrees>-0.22619982250034809112548828125</LongitudeDegrees>
            </Position>
            <AltitudeMeters>1775.800048828125</AltitudeMeters>
            <DistanceMeters>6894.5903580055</DistanceMeters>
          </Trackpoint>
          <Trackpoint>
            <Time>2021-07-17T11:47:30.000Z</Time>
            <Position>
              <LatitudeDegrees>42.71832534112036228179931640625</LatitudeDegrees>
              <LongitudeDegrees>-0.226199738681316375732421875</LongitudeDegrees>
            </Position>
            <AltitudeMeters>1775.800048828125</AltitudeMeters>
            <DistanceMeters>6894.5903580055</DistanceMeters>
          </Trackpoint>
          <Trackpoint>
            <Time>2021-07-17T11:47:49.000Z</Time>
            <Position>
              <LatitudeDegrees>42.71832525730133056640625</LatitudeDegrees>
              <LongitudeDegrees>-0.2261999063193798065185546875</LongitudeDegrees>
            </Position>
            <AltitudeMeters>1775.800048828125</AltitudeMeters>
            <DistanceMeters>6894.5903580055</DistanceMeters>
          </Trackpoint>
          <Trackpoint>
            <Time>2021-07-17T11:47:51.000Z</Time>
            <Position>
              <LatitudeDegrees>42.71832525730133056640625</LatitudeDegrees>
              <LongitudeDegrees>-0.2261999063193798065185546875</LongitudeDegrees>
            </Position>
            <AltitudeMeters>1775.800048828125</AltitudeMeters>
            <DistanceMeters>6894.5903580055</DistanceMeters>
          </Trackpoint>
          <Trackpoint>
            <Time>2021-07-17T11:47:52.000Z</Time>
            <Position>
              <LatitudeDegrees>42.71832525730133056640625</LatitudeDegrees>
              <LongitudeDegrees>-0.2261999063193798065185546875</LongitudeDegrees>
            </Position>
            <AltitudeMeters>1775.800048828125</AltitudeMeters>
            <DistanceMeters>6894.5903580055</DistanceMeters>
          </Trackpoint>
          <Trackpoint>
            <Time>2021-07-17T11:47:53.000Z</Time>
            <Position>
              <LatitudeDegrees>42.71832525730133056640625</LatitudeDegrees>
              <LongitudeDegrees>-0.2261999063193798065185546875</LongitudeDegrees>
            </Position>
            <AltitudeMeters>1775.800048828125</AltitudeMeters>
            <DistanceMeters>6894.5903580055</DistanceMeters>
          </Trackpoint>
          <Trackpoint>
            <Time>2021-07-17T11:47:55.000Z</Time>
            <Position>
              <LatitudeDegrees>42.71832525730133056640625</LatitudeDegrees>
              <LongitudeDegrees>-0.2261999063193798065185546875</LongitudeDegrees>
            </Position>
            <AltitudeMeters>1775.800048828125</AltitudeMeters>
            <DistanceMeters>6894.5903580055</DistanceMeters>
          </Trackpoint>
          <Trackpoint>
            <Time>2021-07-17T11:48:01.000Z</Time>
            <Position>
              <LatitudeDegrees>42.71832525730133056640625</LatitudeDegrees>
              <LongitudeDegrees>-0.22619999013841152191162109375</LongitudeDegrees>
            </Position>
            <AltitudeMeters>1775.800048828125</AltitudeMeters>
            <DistanceMeters>6894.5903580055</DistanceMeters>
          </Trackpoint>
          <Trackpoint>
            <Time>2021-07-17T11:48:03.000Z</Time>
            <Position>
              <LatitudeDegrees>42.71832517348229885101318359375</LatitudeDegrees>
              <LongitudeDegrees>-0.22619999013841152191162109375</LongitudeDegrees>
            </Position>
            <AltitudeMeters>1775.800048828125</AltitudeMeters>
            <DistanceMeters>6894.5903580055</DistanceMeters>
          </Trackpoint>
          <Trackpoint>
            <Time>2021-07-17T11:48:09.000Z</Time>
            <Position>
              <LatitudeDegrees>42.7183250896632671356201171875</LatitudeDegrees>
              <LongitudeDegrees>-0.2262000739574432373046875</LongitudeDegrees>
            </Position>
            <AltitudeMeters>1775.800048828125</AltitudeMeters>
            <DistanceMeters>6894.5903580055</DistanceMeters>
          </Trackpoint>
          <Trackpoint>
            <Time>2021-07-17T11:48:16.000Z</Time>
            <Position>
              <LatitudeDegrees>42.71832483820617198944091796875</LatitudeDegrees>
              <LongitudeDegrees>-0.22620015777647495269775390625</LongitudeDegrees>
            </Position>
            <AltitudeMeters>1775.800048828125</AltitudeMeters>
            <DistanceMeters>6894.5903580055</DistanceMeters>
          </Trackpoint>
          <Trackpoint>
            <Time>2021-07-17T11:48:21.000Z</Time>
            <Position>
              <LatitudeDegrees>42.71832467056810855865478515625</LatitudeDegrees>
              <LongitudeDegrees>-0.2262002415955066680908203125</LongitudeDegrees>
            </Position>
            <AltitudeMeters>1775.800048828125</AltitudeMeters>
            <DistanceMeters>6894.5903580055</DistanceMeters>
          </Trackpoint>
          <Trackpoint>
            <Time>2021-07-17T11:48:45.000Z</Time>
            <Position>
              <LatitudeDegrees>42.718324251472949981689453125</LatitudeDegrees>
              <LongitudeDegrees>-0.22620133124291896820068359375</LongitudeDegrees>
            </Position>
            <AltitudeMeters>1775.800048828125</AltitudeMeters>
            <DistanceMeters>6894.6853847198</DistanceMeters>
          </Trackpoint>
          <Trackpoint>
            <Time>2021-07-17T11:49:00.000Z</Time>
            <Position>
              <LatitudeDegrees>42.71832458674907684326171875</LatitudeDegrees>
              <LongitudeDegrees>-0.22620233707129955291748046875</LongitudeDegrees>
            </Position>
            <AltitudeMeters>1775.800048828125</AltitudeMeters>
            <DistanceMeters>6894.7804114342</DistanceMeters>
          </Trackpoint>
          <Trackpoint>
            <Time>2021-07-17T11:49:16.000Z</Time>
            <Position>
              <LatitudeDegrees>42.71832483820617198944091796875</LatitudeDegrees>
              <LongitudeDegrees>-0.22620317526161670684814453125</LongitudeDegrees>
            </Position>
            <AltitudeMeters>1775.800048828125</AltitudeMeters>
            <DistanceMeters>6894.7804114342</DistanceMeters>
          </Trackpoint>
          <Trackpoint>
            <Time>2021-07-17T11:49:31.000Z</Time>
            <Position>
              <LatitudeDegrees>42.718324922025203704833984375</LatitudeDegrees>
              <LongitudeDegrees>-0.226203091442584991455078125</LongitudeDegrees>
            </Position>
            <AltitudeMeters>1775.800048828125</AltitudeMeters>
            <DistanceMeters>6894.7804114342</DistanceMeters>
          </Trackpoint>
          <Trackpoint>
            <Time>2021-07-17T11:49:51.000Z</Time>
            <Position>
              <LatitudeDegrees>42.71832525730133056640625</LatitudeDegrees>
              <LongitudeDegrees>-0.22620267234742641448974609375</LongitudeDegrees>
            </Position>
            <AltitudeMeters>1775.800048828125</AltitudeMeters>
            <DistanceMeters>6894.7804114342</DistanceMeters>
          </Trackpoint>
          <Trackpoint>
            <Time>2021-07-17T11:50:05.000Z</Time>
            <Position>
              <LatitudeDegrees>42.718325592577457427978515625</LatitudeDegrees>
              <LongitudeDegrees>-0.22620233707129955291748046875</LongitudeDegrees>
            </Position>
            <AltitudeMeters>1775.800048828125</AltitudeMeters>
            <DistanceMeters>6894.7804114342</DistanceMeters>
          </Trackpoint>
          <Trackpoint>
            <Time>2021-07-17T11:50:07.000Z</Time>
            <Position>
              <LatitudeDegrees>42.71832567639648914337158203125</LatitudeDegrees>
              <LongitudeDegrees>-0.22620233707129955291748046875</LongitudeDegrees>
            </Position>
            <AltitudeMeters>1775.800048828125</AltitudeMeters>
            <DistanceMeters>6894.7804114342</DistanceMeters>
          </Trackpoint>
          <Trackpoint>
            <Time>2021-07-17T11:50:14.000Z</Time>
            <Position>
              <LatitudeDegrees>42.71832584403455257415771484375</LatitudeDegrees>
              <LongitudeDegrees>-0.22620208561420440673828125</LongitudeDegrees>
            </Position>
            <AltitudeMeters>1775.800048828125</AltitudeMeters>
            <DistanceMeters>6894.7804114342</DistanceMeters>
          </Trackpoint>
          <Trackpoint>
            <Time>2021-07-17T11:50:16.000Z</Time>
            <Position>
              <LatitudeDegrees>42.71832584403455257415771484375</LatitudeDegrees>
              <LongitudeDegrees>-0.22620208561420440673828125</LongitudeDegrees>
            </Position>
            <AltitudeMeters>1775.800048828125</AltitudeMeters>
            <DistanceMeters>6894.7804114342</DistanceMeters>
          </Trackpoint>
          <Trackpoint>
            <Time>2021-07-17T11:50:18.000Z</Time>
            <Position>
              <LatitudeDegrees>42.71832592785358428955078125</LatitudeDegrees>
              <LongitudeDegrees>-0.22620208561420440673828125</LongitudeDegrees>
            </Position>
            <AltitudeMeters>1775.800048828125</AltitudeMeters>
            <DistanceMeters>6894.7804114342</DistanceMeters>
          </Trackpoint>
          <Trackpoint>
            <Time>2021-07-17T11:50:19.000Z</Time>
            <Position>
              <LatitudeDegrees>42.71832592785358428955078125</LatitudeDegrees>
              <LongitudeDegrees>-0.22620200179517269134521484375</LongitudeDegrees>
            </Position>
            <AltitudeMeters>1775.800048828125</AltitudeMeters>
            <DistanceMeters>6894.7804114342</DistanceMeters>
          </Trackpoint>
          <Trackpoint>
            <Time>2021-07-17T11:50:21.000Z</Time>
            <Position>
              <LatitudeDegrees>42.71832601167261600494384765625</LatitudeDegrees>
              <LongitudeDegrees>-0.22620200179517269134521484375</LongitudeDegrees>
            </Position>
            <AltitudeMeters>1775.800048828125</AltitudeMeters>
            <DistanceMeters>6894.7804114342</DistanceMeters>
          </Trackpoint>
          <Trackpoint>
            <Time>2021-07-17T11:50:31.000Z</Time>
            <Position>
              <LatitudeDegrees>42.718326263129711151123046875</LatitudeDegrees>
              <LongitudeDegrees>-0.22620183415710926055908203125</LongitudeDegrees>
            </Position>
            <AltitudeMeters>1775.800048828125</AltitudeMeters>
            <DistanceMeters>6894.7804114342</DistanceMeters>
          </Trackpoint>
          <Trackpoint>
            <Time>2021-07-17T11:50:38.000Z</Time>
            <Position>
              <LatitudeDegrees>42.7183264307677745819091796875</LatitudeDegrees>
              <LongitudeDegrees>-0.226201750338077545166015625</LongitudeDegrees>
            </Position>
            <AltitudeMeters>1775.800048828125</AltitudeMeters>
            <DistanceMeters>6894.7804114342</DistanceMeters>
          </Trackpoint>
          <Trackpoint>
            <Time>2021-07-17T11:50:44.000Z</Time>
            <Position>
              <LatitudeDegrees>42.71832668222486972808837890625</LatitudeDegrees>
              <LongitudeDegrees>-0.22620166651904582977294921875</LongitudeDegrees>
            </Position>
            <AltitudeMeters>1775.800048828125</AltitudeMeters>
            <DistanceMeters>6894.7804114342</DistanceMeters>
          </Trackpoint>
          <Trackpoint>
            <Time>2021-07-17T11:50:58.000Z</Time>
            <Position>
              <LatitudeDegrees>42.71832718513906002044677734375</LatitudeDegrees>
              <LongitudeDegrees>-0.22620141506195068359375</LongitudeDegrees>
            </Position>
            <AltitudeMeters>1775.800048828125</AltitudeMeters>
            <DistanceMeters>6894.7804114342</DistanceMeters>
          </Trackpoint>
          <Trackpoint>
            <Time>2021-07-17T11:51:38.000Z</Time>
            <Position>
              <LatitudeDegrees>42.71832861006259918212890625</LatitudeDegrees>
              <LongitudeDegrees>-0.22620116360485553741455078125</LongitudeDegrees>
            </Position>
            <AltitudeMeters>1775.800048828125</AltitudeMeters>
            <DistanceMeters>6894.9450025316</DistanceMeters>
          </Trackpoint>
          <Trackpoint>
            <Time>2021-07-17T11:52:13.000Z</Time>
            <Position>
              <LatitudeDegrees>42.71832953207194805145263671875</LatitudeDegrees>
              <LongitudeDegrees>-0.226201079785823822021484375</LongitudeDegrees>
            </Position>
            <AltitudeMeters>1776</AltitudeMeters>
            <DistanceMeters>6895.0793905998</DistanceMeters>
          </Trackpoint>
          <Trackpoint>
            <Time>2021-07-17T11:52:40.000Z</Time>
            <Position>
              <LatitudeDegrees>42.7183301188051700592041015625</LatitudeDegrees>
              <LongitudeDegrees>-0.22620099596679210662841796875</LongitudeDegrees>
            </Position>
            <AltitudeMeters>1776</AltitudeMeters>
            <DistanceMeters>6895.2137786681</DistanceMeters>
          </Trackpoint>
          <Trackpoint>
            <Time>2021-07-17T11:52:56.000Z</Time>
            <Position>
              <LatitudeDegrees>42.71833020262420177459716796875</LatitudeDegrees>
              <LongitudeDegrees>-0.22620116360485553741455078125</LongitudeDegrees>
            </Position>
            <AltitudeMeters>1776</AltitudeMeters>
            <DistanceMeters>6895.2137786681</DistanceMeters>
          </Trackpoint>
          <Trackpoint>
            <Time>2021-07-17T11:53:14.000Z</Time>
            <Position>
              <LatitudeDegrees>42.7183304540812969207763671875</LatitudeDegrees>
              <LongitudeDegrees>-0.2262012474238872528076171875</LongitudeDegrees>
            </Position>
            <AltitudeMeters>1776</AltitudeMeters>
            <DistanceMeters>6895.2137786681</DistanceMeters>
          </Trackpoint>
          <Trackpoint>
            <Time>2021-07-17T11:53:28.000Z</Time>
            <Position>
              <LatitudeDegrees>42.71833070553839206695556640625</LatitudeDegrees>
              <LongitudeDegrees>-0.2262012474238872528076171875</LongitudeDegrees>
            </Position>
            <AltitudeMeters>1776</AltitudeMeters>
            <DistanceMeters>6895.2137786681</DistanceMeters>
          </Trackpoint>
          <Trackpoint>
            <Time>2021-07-17T11:53:34.000Z</Time>
            <Position>
              <LatitudeDegrees>42.71833087317645549774169921875</LatitudeDegrees>
              <LongitudeDegrees>-0.2262012474238872528076171875</LongitudeDegrees>
            </Position>
            <AltitudeMeters>1776</AltitudeMeters>
            <DistanceMeters>6895.2137786681</DistanceMeters>
          </Trackpoint>
          <Trackpoint>
            <Time>2021-07-17T11:53:47.000Z</Time>
            <Position>
              <LatitudeDegrees>42.71833129227161407470703125</LatitudeDegrees>
              <LongitudeDegrees>-0.22620116360485553741455078125</LongitudeDegrees>
            </Position>
            <AltitudeMeters>1776</AltitudeMeters>
            <DistanceMeters>6895.2137786681</DistanceMeters>
          </Trackpoint>
          <Trackpoint>
            <Time>2021-07-17T11:54:10.000Z</Time>
            <Position>
              <LatitudeDegrees>42.7183319628238677978515625</LatitudeDegrees>
              <LongitudeDegrees>-0.2262012474238872528076171875</LongitudeDegrees>
            </Position>
            <AltitudeMeters>1776</AltitudeMeters>
            <DistanceMeters>6895.3088053824</DistanceMeters>
          </Trackpoint>
          <Trackpoint>
            <Time>2021-07-17T11:54:11.000Z</Time>
            <Position>
              <LatitudeDegrees>42.7183319628238677978515625</LatitudeDegrees>
              <LongitudeDegrees>-0.2262012474238872528076171875</LongitudeDegrees>
            </Position>
            <AltitudeMeters>1776</AltitudeMeters>
            <DistanceMeters>6895.3088053824</DistanceMeters>
          </Trackpoint>
          <Trackpoint>
            <Time>2021-07-17T11:54:16.000Z</Time>
            <Position>
              <LatitudeDegrees>42.7183321304619312286376953125</LatitudeDegrees>
              <LongitudeDegrees>-0.2262012474238872528076171875</LongitudeDegrees>
            </Position>
            <AltitudeMeters>1776</AltitudeMeters>
            <DistanceMeters>6895.3088053824</DistanceMeters>
          </Trackpoint>
          <Trackpoint>
            <Time>2021-07-17T11:54:19.000Z</Time>
            <Position>
              <LatitudeDegrees>42.7183321304619312286376953125</LatitudeDegrees>
              <LongitudeDegrees>-0.2262012474238872528076171875</LongitudeDegrees>
            </Position>
            <AltitudeMeters>1776</AltitudeMeters>
            <DistanceMeters>6895.3088053824</DistanceMeters>
          </Trackpoint>
          <Trackpoint>
            <Time>2021-07-17T11:54:24.000Z</Time>
            <Position>
              <LatitudeDegrees>42.7183321304619312286376953125</LatitudeDegrees>
              <LongitudeDegrees>-0.2262012474238872528076171875</LongitudeDegrees>
            </Position>
            <AltitudeMeters>1776</AltitudeMeters>
            <DistanceMeters>6895.3088053824</DistanceMeters>
          </Trackpoint>
          <Trackpoint>
            <Time>2021-07-17T11:54:25.000Z</Time>
            <Position>
              <LatitudeDegrees>42.7183321304619312286376953125</LatitudeDegrees>
              <LongitudeDegrees>-0.2262012474238872528076171875</LongitudeDegrees>
            </Position>
            <AltitudeMeters>1776</AltitudeMeters>
            <DistanceMeters>6895.3088053824</DistanceMeters>
          </Trackpoint>
          <Trackpoint>
            <Time>2021-07-17T11:54:27.000Z</Time>
            <Position>
              <LatitudeDegrees>42.7183321304619312286376953125</LatitudeDegrees>
              <LongitudeDegrees>-0.2262012474238872528076171875</LongitudeDegrees>
            </Position>
            <AltitudeMeters>1776</AltitudeMeters>
            <DistanceMeters>6895.3088053824</DistanceMeters>
          </Trackpoint>
          <Trackpoint>
            <Time>2021-07-17T11:54:37.000Z</Time>
            <Position>
              <LatitudeDegrees>42.7183321304619312286376953125</LatitudeDegrees>
              <LongitudeDegrees>-0.22620141506195068359375</LongitudeDegrees>
            </Position>
            <AltitudeMeters>1776</AltitudeMeters>
            <DistanceMeters>6895.3088053824</DistanceMeters>
          </Trackpoint>
          <Trackpoint>
            <Time>2021-07-17T11:54:42.000Z</Time>
            <Position>
              <LatitudeDegrees>42.7183321304619312286376953125</LatitudeDegrees>
              <LongitudeDegrees>-0.22620141506195068359375</LongitudeDegrees>
            </Position>
            <AltitudeMeters>1776</AltitudeMeters>
            <DistanceMeters>6895.3088053824</DistanceMeters>
          </Trackpoint>
          <Trackpoint>
            <Time>2021-07-17T11:54:45.000Z</Time>
            <Position>
              <LatitudeDegrees>42.7183321304619312286376953125</LatitudeDegrees>
              <LongitudeDegrees>-0.22620149888098239898681640625</LongitudeDegrees>
            </Position>
            <AltitudeMeters>1776</AltitudeMeters>
            <DistanceMeters>6895.3088053824</DistanceMeters>
          </Trackpoint>
          <Trackpoint>
            <Time>2021-07-17T11:55:05.000Z</Time>
            <Position>
              <LatitudeDegrees>42.71833204664289951324462890625</LatitudeDegrees>
              <LongitudeDegrees>-0.226201750338077545166015625</LongitudeDegrees>
            </Position>
            <AltitudeMeters>1776</AltitudeMeters>
            <DistanceMeters>6895.3088053824</DistanceMeters>
          </Trackpoint>
          <Trackpoint>
            <Time>2021-07-17T11:55:26.000Z</Time>
            <Position>
              <LatitudeDegrees>42.71833037026226520538330078125</LatitudeDegrees>
              <LongitudeDegrees>-0.22620233707129955291748046875</LongitudeDegrees>
            </Position>
            <AltitudeMeters>1776</AltitudeMeters>
            <DistanceMeters>6895.4988588112</DistanceMeters>
          </Trackpoint>
          <Trackpoint>
            <Time>2021-07-17T11:55:37.000Z</Time>
            <Position>
              <LatitudeDegrees>42.71832902915775775909423828125</LatitudeDegrees>
              <LongitudeDegrees>-0.2262027561664581298828125</LongitudeDegrees>
            </Position>
            <AltitudeMeters>1775.800048828125</AltitudeMeters>
            <DistanceMeters>6895.6332468794</DistanceMeters>
          </Trackpoint>
          <Trackpoint>
            <Time>2021-07-17T11:55:47.000Z</Time>
            <Position>
              <LatitudeDegrees>42.718327604234218597412109375</LatitudeDegrees>
              <LongitudeDegrees>-0.22620317526161670684814453125</LongitudeDegrees>
            </Position>
            <AltitudeMeters>1775.800048828125</AltitudeMeters>
            <DistanceMeters>6895.7676349477</DistanceMeters>
          </Trackpoint>
          <Trackpoint>
            <Time>2021-07-17T11:55:59.000Z</Time>
            <Position>
              <LatitudeDegrees>42.71832592785358428955078125</LatitudeDegrees>
              <LongitudeDegrees>-0.22620367817580699920654296875</LongitudeDegrees>
            </Position>
            <AltitudeMeters>1775.800048828125</AltitudeMeters>
            <DistanceMeters>6895.9576883764</DistanceMeters>
          </Trackpoint>
          <Trackpoint>
            <Time>2021-07-17T11:56:04.000Z</Time>
            <Position>
              <LatitudeDegrees>42.7183227427303791046142578125</LatitudeDegrees>
              <LongitudeDegrees>-0.22619948722422122955322265625</LongitudeDegrees>
            </Position>
            <AltitudeMeters>1775.800048828125</AltitudeMeters>
            <DistanceMeters>6896.4422314473</DistanceMeters>
          </Trackpoint>
          <Trackpoint>
            <Time>2021-07-17T11:56:07.000Z</Time>
            <Position>
              <LatitudeDegrees>42.7183091640472412109375</LatitudeDegrees>
              <LongitudeDegrees>-0.22618842311203479766845703125</LongitudeDegrees>
            </Position>
            <AltitudeMeters>1775.4000244140625</AltitudeMeters>
            <DistanceMeters>6898.2047144392</DistanceMeters>
          </Trackpoint>
          <Trackpoint>
            <Time>2021-07-17T11:56:10.000Z</Time>
            <Position>
              <LatitudeDegrees>42.71832450293004512786865234375</LatitudeDegrees>
              <LongitudeDegrees>-0.22617585025727748870849609375</LongitudeDegrees>
            </Position>
            <AltitudeMeters>1776.199951171875</AltitudeMeters>
            <DistanceMeters>6900.1980116161</DistanceMeters>
          </Trackpoint>
          <Trackpoint>
            <Time>2021-07-17T11:56:14.000Z</Time>
            <Position>
              <LatitudeDegrees>42.71829483099281787872314453125</LatitudeDegrees>
              <LongitudeDegrees>-0.2261610142886638641357421875</LongitudeDegrees>
            </Position>
            <AltitudeMeters>1775.5999755859375</AltitudeMeters>
            <DistanceMeters>6903.7152839581</DistanceMeters>
          </Trackpoint>
          <Trackpoint>
            <Time>2021-07-17T11:56:17.000Z</Time>
            <Position>
              <LatitudeDegrees>42.71829776465892791748046875</LatitudeDegrees>
              <LongitudeDegrees>-0.2261697314679622650146484375</LongitudeDegrees>
            </Position>
            <AltitudeMeters>1775.4000244140625</AltitudeMeters>
            <DistanceMeters>6904.4988943193</DistanceMeters>
          </Trackpoint>
          <Trackpoint>
            <Time>2021-07-17T11:56:21.000Z</Time>
            <Position>
              <LatitudeDegrees>42.7182650752365589141845703125</LatitudeDegrees>
              <LongitudeDegrees>-0.22619730792939662933349609375</LongitudeDegrees>
            </Position>
            <AltitudeMeters>1774</AltitudeMeters>
            <DistanceMeters>6908.7803724731</DistanceMeters>
          </Trackpoint>
          <Trackpoint>
            <Time>2021-07-17T11:56:23.000Z</Time>
            <Position>
              <LatitudeDegrees>42.71825074218213558197021484375</LatitudeDegrees>
              <LongitudeDegrees>-0.22619982250034809112548828125</LongitudeDegrees>
            </Position>
            <AltitudeMeters>1773.4000244140625</AltitudeMeters>
            <DistanceMeters>6910.3930292921</DistanceMeters>
          </Trackpoint>
          <Trackpoint>
            <Time>2021-07-17T11:56:26.000Z</Time>
            <Position>
              <LatitudeDegrees>42.71823615767061710357666015625</LatitudeDegrees>
              <LongitudeDegrees>-0.22618507035076618194580078125</LongitudeDegrees>
            </Position>
            <AltitudeMeters>1773.199951171875</AltitudeMeters>
            <DistanceMeters>6912.4155585574</DistanceMeters>
          </Trackpoint>
          <Trackpoint>
            <Time>2021-07-17T11:56:32.000Z</Time>
            <Position>
              <LatitudeDegrees>42.71818553097546100616455078125</LatitudeDegrees>
              <LongitudeDegrees>-0.22622379474341869354248046875</LongitudeDegrees>
            </Position>
            <AltitudeMeters>1770.800048828125</AltitudeMeters>
            <DistanceMeters>6918.8787724352</DistanceMeters>
          </Trackpoint>
          <Trackpoint>
            <Time>2021-07-17T11:56:40.000Z</Time>
            <Position>
              <LatitudeDegrees>42.718139849603176116943359375</LatitudeDegrees>
              <LongitudeDegrees>-0.22621775977313518524169921875</LongitudeDegrees>
            </Position>
            <AltitudeMeters>1769</AltitudeMeters>
            <DistanceMeters>6923.9872869867</DistanceMeters>
          </Trackpoint>
          <Trackpoint>
            <Time>2021-07-17T11:56:44.000Z</Time>
            <Position>
              <LatitudeDegrees>42.71812501363456249237060546875</LatitudeDegrees>
              <LongitudeDegrees>-0.22623284719884395599365234375</LongitudeDegrees>
            </Position>
            <AltitudeMeters>1768.199951171875</AltitudeMeters>
            <DistanceMeters>6926.0474170624</DistanceMeters>
          </Trackpoint>
          <Trackpoint>
            <Time>2021-07-17T11:56:50.000Z</Time>
            <Position>
              <LatitudeDegrees>42.718102969229221343994140625</LatitudeDegrees>
              <LongitudeDegrees>-0.22621960379183292388916015625</LongitudeDegrees>
            </Position>
            <AltitudeMeters>1767.5999755859375</AltitudeMeters>
            <DistanceMeters>6928.7318166232</DistanceMeters>
          </Trackpoint>
          <Trackpoint>
            <Time>2021-07-17T11:56:56.000Z</Time>
            <Position>
              <LatitudeDegrees>42.71802225150167942047119140625</LatitudeDegrees>
              <LongitudeDegrees>-0.22618624381721019744873046875</LongitudeDegrees>
            </Position>
            <AltitudeMeters>1766</AltitudeMeters>
            <DistanceMeters>6938.1207253056</DistanceMeters>
          </Trackpoint>
          <Trackpoint>
            <Time>2021-07-17T11:57:00.000Z</Time>
            <Position>
              <LatitudeDegrees>42.7180233411490917205810546875</LatitudeDegrees>
              <LongitudeDegrees>-0.2261759340763092041015625</LongitudeDegrees>
            </Position>
            <AltitudeMeters>1766.199951171875</AltitudeMeters>
            <DistanceMeters>6938.9706700776</DistanceMeters>
          </Trackpoint>
          <Trackpoint>
            <Time>2021-07-17T11:57:01.000Z</Time>
            <Position>
              <LatitudeDegrees>42.71802962757647037506103515625</LatitudeDegrees>
              <LongitudeDegrees>-0.22617719136178493499755859375</LongitudeDegrees>
            </Position>
            <AltitudeMeters>1766.199951171875</AltitudeMeters>
            <DistanceMeters>6939.675407053</DistanceMeters>
          </Trackpoint>
          <Trackpoint>
            <Time>2021-07-17T11:57:07.000Z</Time>
            <Position>
              <LatitudeDegrees>42.718009762465953826904296875</LatitudeDegrees>
              <LongitudeDegrees>-0.22618205286562442779541015625</LongitudeDegrees>
            </Position>
            <AltitudeMeters>1765.800048828125</AltitudeMeters>
            <DistanceMeters>6941.922140845</DistanceMeters>
          </Trackpoint>
          <Trackpoint>
            <Time>2021-07-17T11:57:09.000Z</Time>
            <Position>
              <LatitudeDegrees>42.7180045656859874725341796875</LatitudeDegrees>
              <LongitudeDegrees>-0.2261848188936710357666015625</LongitudeDegrees>
            </Position>
            <AltitudeMeters>1765.5999755859375</AltitudeMeters>
            <DistanceMeters>6942.5379843402</DistanceMeters>
          </Trackpoint>
          <Trackpoint>
            <Time>2021-07-17T11:57:11.000Z</Time>
            <Position>
              <LatitudeDegrees>42.71800280548632144927978515625</LatitudeDegrees>
              <LongitudeDegrees>-0.22619043476879596710205078125</LongitudeDegrees>
            </Position>
            <AltitudeMeters>1765.4000244140625</AltitudeMeters>
            <DistanceMeters>6943.0408184485</DistanceMeters>
          </Trackpoint>
          <Trackpoint>
            <Time>2021-07-17T11:57:17.000Z</Time>
            <Position>
              <LatitudeDegrees>42.718033231794834136962890625</LatitudeDegrees>
              <LongitudeDegrees>-0.22619797848165035247802734375</LongitudeDegrees>
            </Position>
            <AltitudeMeters>1766.199951171875</AltitudeMeters>
            <DistanceMeters>6946.4828324366</DistanceMeters>
          </Trackpoint>
          <Trackpoint>
            <Time>2021-07-17T11:57:20.000Z</Time>
            <Position>
              <LatitudeDegrees>42.71804052405059337615966796875</LatitudeDegrees>
              <LongitudeDegrees>-0.226197056472301483154296875</LongitudeDegrees>
            </Position>
            <AltitudeMeters>1766.4000244140625</AltitudeMeters>
            <DistanceMeters>6947.3002831427</DistanceMeters>
          </Trackpoint>
          <Trackpoint>
            <Time>2021-07-17T11:57:25.000Z</Time>
            <Position>
              <LatitudeDegrees>42.71804538555443286895751953125</LatitudeDegrees>
              <LongitudeDegrees>-0.2261968888342380523681640625</LongitudeDegrees>
            </Position>
            <AltitudeMeters>1766.4000244140625</AltitudeMeters>
            <DistanceMeters>6947.8378354157</DistanceMeters>
          </Trackpoint>
          <Trackpoint>
            <Time>2021-07-17T11:57:28.000Z</Time>
            <Position>
              <LatitudeDegrees>42.71798193454742431640625</LatitudeDegrees>
              <LongitudeDegrees>-0.22619982250034809112548828125</LongitudeDegrees>
            </Position>
            <AltitudeMeters>1764.800048828125</AltitudeMeters>
            <DistanceMeters>6954.9037601718</DistanceMeters>
          </Trackpoint>
          <Trackpoint>
            <Time>2021-07-17T11:57:33.000Z</Time>
            <Position>
              <LatitudeDegrees>42.71795854903757572174072265625</LatitudeDegrees>
              <LongitudeDegrees>-0.22620418108999729156494140625</LongitudeDegrees>
            </Position>
            <AltitudeMeters>1764.199951171875</AltitudeMeters>
            <DistanceMeters>6957.5303508143</DistanceMeters>
          </Trackpoint>
          <Trackpoint>
            <Time>2021-07-17T11:57:37.000Z</Time>
            <Position>
              <LatitudeDegrees>42.71800364367663860321044921875</LatitudeDegrees>
              <LongitudeDegrees>-0.22620418108999729156494140625</LongitudeDegrees>
            </Position>
            <AltitudeMeters>1765.4000244140625</AltitudeMeters>
            <DistanceMeters>6962.5497046849</DistanceMeters>
          </Trackpoint>
          <Trackpoint>
            <Time>2021-07-17T11:57:38.000Z</Time>
            <Position>
              <LatitudeDegrees>42.71802560426294803619384765625</LatitudeDegrees>
              <LongitudeDegrees>-0.2262005768716335296630859375</LongitudeDegrees>
            </Position>
            <AltitudeMeters>1766</AltitudeMeters>
            <DistanceMeters>6965.0130786659</DistanceMeters>
          </Trackpoint>
          <Trackpoint>
            <Time>2021-07-17T11:57:44.000Z</Time>
            <Position>
              <LatitudeDegrees>42.7180468104779720306396484375</LatitudeDegrees>
              <LongitudeDegrees>-0.22620317526161670684814453125</LongitudeDegrees>
            </Position>
            <AltitudeMeters>1766.4000244140625</AltitudeMeters>
            <DistanceMeters>6967.3849424109</DistanceMeters>
          </Trackpoint>
          <Trackpoint>
            <Time>2021-07-17T11:57:50.000Z</Time>
            <Position>
              <LatitudeDegrees>42.71804027259349822998046875</LatitudeDegrees>
              <LongitudeDegrees>-0.2262059412896633148193359375</LongitudeDegrees>
            </Position>
            <AltitudeMeters>1766.199951171875</AltitudeMeters>
            <DistanceMeters>6968.1451561258</DistanceMeters>
          </Trackpoint>
          <Trackpoint>
            <Time>2021-07-17T11:57:55.000Z</Time>
            <Position>
              <LatitudeDegrees>42.71805695258080959320068359375</LatitudeDegrees>
              <LongitudeDegrees>-0.22619848139584064483642578125</LongitudeDegrees>
            </Position>
            <AltitudeMeters>1766.800048828125</AltitudeMeters>
            <DistanceMeters>6970.1018759351</DistanceMeters>
          </Trackpoint>
          <Trackpoint>
            <Time>2021-07-17T11:58:00.000Z</Time>
            <Position>
              <LatitudeDegrees>42.71808587014675140380859375</LatitudeDegrees>
              <LongitudeDegrees>-0.2261841483414173126220703125</LongitudeDegrees>
            </Position>
            <AltitudeMeters>1767.5999755859375</AltitudeMeters>
            <DistanceMeters>6973.5267948102</DistanceMeters>
          </Trackpoint>
          <Trackpoint>
            <Time>2021-07-17T11:58:03.000Z</Time>
            <Position>
              <LatitudeDegrees>42.718133814632892608642578125</LatitudeDegrees>
              <LongitudeDegrees>-0.22615489549934864044189453125</LongitudeDegrees>
            </Position>
            <AltitudeMeters>1769.4000244140625</AltitudeMeters>
            <DistanceMeters>6979.3753783626</DistanceMeters>
          </Trackpoint>
          <Trackpoint>
            <Time>2021-07-17T11:58:06.000Z</Time>
            <Position>
              <LatitudeDegrees>42.71818016655743122100830078125</LatitudeDegrees>
              <LongitudeDegrees>-0.22616059519350528717041015625</LongitudeDegrees>
            </Position>
            <AltitudeMeters>1771.199951171875</AltitudeMeters>
            <DistanceMeters>6984.5549881081</DistanceMeters>
          </Trackpoint>
          <Trackpoint>
            <Time>2021-07-17T11:58:09.000Z</Time>
            <Position>
              <LatitudeDegrees>42.71818921901285648345947265625</LatitudeDegrees>
              <LongitudeDegrees>-0.22617819719016551971435546875</LongitudeDegrees>
            </Position>
            <AltitudeMeters>1771.4000244140625</AltitudeMeters>
            <DistanceMeters>6986.3123401342</DistanceMeters>
          </Trackpoint>
          <Trackpoint>
            <Time>2021-07-17T11:58:10.000Z</Time>
            <Position>
              <LatitudeDegrees>42.71818435750901699066162109375</LatitudeDegrees>
              <LongitudeDegrees>-0.22617383860051631927490234375</LongitudeDegrees>
            </Position>
            <AltitudeMeters>1771.199951171875</AltitudeMeters>
            <DistanceMeters>6986.9638104657</DistanceMeters>
          </Trackpoint>
          <Trackpoint>
            <Time>2021-07-17T11:58:13.000Z</Time>
            <Position>
              <LatitudeDegrees>42.71817840635776519775390625</LatitudeDegrees>
              <LongitudeDegrees>-0.226177275180816650390625</LongitudeDegrees>
            </Position>
            <AltitudeMeters>1771</AltitudeMeters>
            <DistanceMeters>6987.6875123614</DistanceMeters>
          </Trackpoint>
          <Trackpoint>
            <Time>2021-07-17T11:58:17.000Z</Time>
            <Position>
              <LatitudeDegrees>42.71815384738147258758544921875</LatitudeDegrees>
              <LongitudeDegrees>-0.22618188522756099700927734375</LongitudeDegrees>
            </Position>
            <AltitudeMeters>1770</AltitudeMeters>
            <DistanceMeters>6990.4465619155</DistanceMeters>
          </Trackpoint>
          <Trackpoint>
            <Time>2021-07-17T11:58:19.000Z</Time>
            <Position>
              <LatitudeDegrees>42.7181490696966648101806640625</LatitudeDegrees>
              <LongitudeDegrees>-0.22617585025727748870849609375</LongitudeDegrees>
            </Position>
            <AltitudeMeters>1769.800048828125</AltitudeMeters>
            <DistanceMeters>6991.1702638112</DistanceMeters>
          </Trackpoint>
          <Trackpoint>
            <Time>2021-07-17T11:58:23.000Z</Time>
            <Position>
              <LatitudeDegrees>42.71815937943756580352783203125</LatitudeDegrees>
              <LongitudeDegrees>-0.22618942894041538238525390625</LongitudeDegrees>
            </Position>
            <AltitudeMeters>1770</AltitudeMeters>
            <DistanceMeters>6992.766033706</DistanceMeters>
          </Trackpoint>
          <Trackpoint>
            <Time>2021-07-17T11:58:28.000Z</Time>
            <Position>
              <LatitudeDegrees>42.71821553818881511688232421875</LatitudeDegrees>
              <LongitudeDegrees>-0.22618465125560760498046875</LongitudeDegrees>
            </Position>
            <AltitudeMeters>1772.4000244140625</AltitudeMeters>
            <DistanceMeters>6999.0291521044</DistanceMeters>
          </Trackpoint>
          <Trackpoint>
            <Time>2021-07-17T11:58:29.000Z</Time>
            <Position>
              <LatitudeDegrees>42.71821503527462482452392578125</LatitudeDegrees>
              <LongitudeDegrees>-0.22618071176111698150634765625</LongitudeDegrees>
            </Position>
            <AltitudeMeters>1772.4000244140625</AltitudeMeters>
            <DistanceMeters>6999.344320061</DistanceMeters>
          </Trackpoint>
          <Trackpoint>
            <Time>2021-07-17T11:58:32.000Z</Time>
            <Position>
              <LatitudeDegrees>42.7182040549814701080322265625</LatitudeDegrees>
              <LongitudeDegrees>-0.2261871658265590667724609375</LongitudeDegrees>
            </Position>
            <AltitudeMeters>1771.800048828125</AltitudeMeters>
            <DistanceMeters>7000.6746940622</DistanceMeters>
          </Trackpoint>
          <Trackpoint>
            <Time>2021-07-17T11:58:34.000Z</Time>
            <Position>
              <LatitudeDegrees>42.71820791065692901611328125</LatitudeDegrees>
              <LongitudeDegrees>-0.22619328461587429046630859375</LongitudeDegrees>
            </Position>
            <AltitudeMeters>1772</AltitudeMeters>
            <DistanceMeters>7001.3398810628</DistanceMeters>
          </Trackpoint>
          <Trackpoint>
            <Time>2021-07-17T11:58:39.000Z</Time>
            <Position>
              <LatitudeDegrees>42.71817932836711406707763671875</LatitudeDegrees>
              <LongitudeDegrees>-0.22621273063123226165771484375</LongitudeDegrees>
            </Position>
            <AltitudeMeters>1770.5999755859375</AltitudeMeters>
            <DistanceMeters>7004.8954551404</DistanceMeters>
          </Trackpoint>
          <Trackpoint>
            <Time>2021-07-17T11:58:43.000Z</Time>
            <Position>
              <LatitudeDegrees>42.71821285597980022430419921875</LatitudeDegrees>
              <LongitudeDegrees>-0.226217843592166900634765625</LongitudeDegrees>
            </Position>
            <AltitudeMeters>1771.800048828125</AltitudeMeters>
            <DistanceMeters>7008.649912402</DistanceMeters>
          </Trackpoint>
          <Trackpoint>
            <Time>2021-07-17T11:58:46.000Z</Time>
            <Position>
              <LatitudeDegrees>42.71821604110300540924072265625</LatitudeDegrees>
              <LongitudeDegrees>-0.22623469121754169464111328125</LongitudeDegrees>
            </Position>
            <AltitudeMeters>1771.5999755859375</AltitudeMeters>
            <DistanceMeters>7010.0721420331</DistanceMeters>
          </Trackpoint>
          <Trackpoint>
            <Time>2021-07-17T11:58:52.000Z</Time>
            <Position>
              <LatitudeDegrees>42.718182764947414398193359375</LatitudeDegrees>
              <LongitudeDegrees>-0.22625782527029514312744140625</LongitudeDegrees>
            </Position>
            <AltitudeMeters>1770.199951171875</AltitudeMeters>
            <DistanceMeters>7014.2316644175</DistanceMeters>
          </Trackpoint>
          <Trackpoint>
            <Time>2021-07-17T11:58:57.000Z</Time>
            <Position>
              <LatitudeDegrees>42.7182005345821380615234375</LatitudeDegrees>
              <LongitudeDegrees>-0.22624709643423557281494140625</LongitudeDegrees>
            </Position>
            <AltitudeMeters>1771</AltitudeMeters>
            <DistanceMeters>7016.3944356948</DistanceMeters>
          </Trackpoint>
          <Trackpoint>
            <Time>2021-07-17T11:59:01.000Z</Time>
            <Position>
              <LatitudeDegrees>42.718203552067279815673828125</LatitudeDegrees>
              <LongitudeDegrees>-0.226237289607524871826171875</LongitudeDegrees>
            </Position>
            <AltitudeMeters>1771.199951171875</AltitudeMeters>
            <DistanceMeters>7017.2653699181</DistanceMeters>
          </Trackpoint>
          <Trackpoint>
            <Time>2021-07-17T11:59:10.000Z</Time>
            <Position>
              <LatitudeDegrees>42.718204557895660400390625</LatitudeDegrees>
              <LongitudeDegrees>-0.22623502649366855621337890625</LongitudeDegrees>
            </Position>
            <AltitudeMeters>1771.199951171875</AltitudeMeters>
            <DistanceMeters>7017.4981368802</DistanceMeters>
          </Trackpoint>
          <Trackpoint>
            <Time>2021-07-17T11:59:28.000Z</Time>
            <Position>
              <LatitudeDegrees>42.71825560368597507476806640625</LatitudeDegrees>
              <LongitudeDegrees>-0.22622488439083099365234375</LongitudeDegrees>
            </Position>
            <AltitudeMeters>1773.199951171875</AltitudeMeters>
            <DistanceMeters>7023.2391976725</DistanceMeters>
          </Trackpoint>
          <Trackpoint>
            <Time>2021-07-17T12:00:01.000Z</Time>
            <Position>
              <LatitudeDegrees>42.7183163724839687347412109375</LatitudeDegrees>
              <LongitudeDegrees>-0.22618993185460567474365234375</LongitudeDegrees>
            </Position>
            <AltitudeMeters>1775.5999755859375</AltitudeMeters>
            <DistanceMeters>7030.5821253207</DistanceMeters>
          </Trackpoint>
          <Trackpoint>
            <Time>2021-07-17T12:00:03.000Z</Time>
            <Position>
              <LatitudeDegrees>42.718317545950412750244140625</LatitudeDegrees>
              <LongitudeDegrees>-0.2261895127594470977783203125</LongitudeDegrees>
            </Position>
            <AltitudeMeters>1775.800048828125</AltitudeMeters>
            <DistanceMeters>7030.716513389</DistanceMeters>
          </Trackpoint>
          <Trackpoint>
            <Time>2021-07-17T12:00:06.000Z</Time>
            <Position>
              <LatitudeDegrees>42.71831947378814220428466796875</LatitudeDegrees>
              <LongitudeDegrees>-0.22618942894041538238525390625</LongitudeDegrees>
            </Position>
            <AltitudeMeters>1775.800048828125</AltitudeMeters>
            <DistanceMeters>7030.928999582</DistanceMeters>
          </Trackpoint>
          <Trackpoint>
            <Time>2021-07-17T12:00:09.000Z</Time>
            <Position>
              <LatitudeDegrees>42.71831980906426906585693359375</LatitudeDegrees>
              <LongitudeDegrees>-0.22618942894041538238525390625</LongitudeDegrees>
            </Position>
            <AltitudeMeters>1775.800048828125</AltitudeMeters>
            <DistanceMeters>7030.928999582</DistanceMeters>
          </Trackpoint>
          <Trackpoint>
            <Time>2021-07-17T12:00:13.000Z</Time>
            <Position>
              <LatitudeDegrees>42.71831980906426906585693359375</LatitudeDegrees>
              <LongitudeDegrees>-0.226189680397510528564453125</LongitudeDegrees>
            </Position>
            <AltitudeMeters>1775.800048828125</AltitudeMeters>
            <DistanceMeters>7030.928999582</DistanceMeters>
          </Trackpoint>
          <Trackpoint>
            <Time>2021-07-17T12:00:19.000Z</Time>
            <Position>
              <LatitudeDegrees>42.718317545950412750244140625</LatitudeDegrees>
              <LongitudeDegrees>-0.22619378753006458282470703125</LongitudeDegrees>
            </Position>
            <AltitudeMeters>1775.5999755859375</AltitudeMeters>
            <DistanceMeters>7031.3321637867</DistanceMeters>
          </Trackpoint>
          <Trackpoint>
            <Time>2021-07-17T12:00:34.000Z</Time>
            <Position>
              <LatitudeDegrees>42.718316204845905303955078125</LatitudeDegrees>
              <LongitudeDegrees>-0.226196385920047760009765625</LongitudeDegrees>
            </Position>
            <AltitudeMeters>1775.5999755859375</AltitudeMeters>
            <DistanceMeters>7031.6009399232</DistanceMeters>
          </Trackpoint>
          <Trackpoint>
            <Time>2021-07-17T12:00:51.000Z</Time>
            <Position>
              <LatitudeDegrees>42.718313522636890411376953125</LatitudeDegrees>
              <LongitudeDegrees>-0.22619177587330341339111328125</LongitudeDegrees>
            </Position>
            <AltitudeMeters>1775.5999755859375</AltitudeMeters>
            <DistanceMeters>7032.0854829941</DistanceMeters>
          </Trackpoint>
          <Trackpoint>
            <Time>2021-07-17T12:00:58.000Z</Time>
            <Position>
              <LatitudeDegrees>42.718307487666606903076171875</LatitudeDegrees>
              <LongitudeDegrees>-0.226194374263286590576171875</LongitudeDegrees>
            </Position>
            <AltitudeMeters>1775.4000244140625</AltitudeMeters>
            <DistanceMeters>7032.7965978096</DistanceMeters>
          </Trackpoint>
          <Trackpoint>
            <Time>2021-07-17T12:01:02.000Z</Time>
            <Position>
              <LatitudeDegrees>42.71830354817211627960205078125</LatitudeDegrees>
              <LongitudeDegrees>-0.226197056472301483154296875</LongitudeDegrees>
            </Position>
            <AltitudeMeters>1775.199951171875</AltitudeMeters>
            <DistanceMeters>7033.2903711017</DistanceMeters>
          </Trackpoint>
          <Trackpoint>
            <Time>2021-07-17T12:01:09.000Z</Time>
            <Position>
              <LatitudeDegrees>42.7182892151176929473876953125</LatitudeDegrees>
              <LongitudeDegrees>-0.22619948722422122955322265625</LongitudeDegrees>
            </Position>
            <AltitudeMeters>1774.5999755859375</AltitudeMeters>
            <DistanceMeters>7034.8974186626</DistanceMeters>
          </Trackpoint>
          <Trackpoint>
            <Time>2021-07-17T12:01:11.000Z</Time>
            <Position>
              <LatitudeDegrees>42.7182877063751220703125</LatitudeDegrees>
              <LongitudeDegrees>-0.22619999013841152191162109375</LongitudeDegrees>
            </Position>
            <AltitudeMeters>1774.5999755859375</AltitudeMeters>
            <DistanceMeters>7035.06200976</DistanceMeters>
          </Trackpoint>
          <Trackpoint>
            <Time>2021-07-17T12:01:23.000Z</Time>
            <Position>
              <LatitudeDegrees>42.71828661672770977020263671875</LatitudeDegrees>
              <LongitudeDegrees>-0.22620015777647495269775390625</LongitudeDegrees>
            </Position>
            <AltitudeMeters>1774.5999755859375</AltitudeMeters>
            <DistanceMeters>7035.1570364743</DistanceMeters>
          </Trackpoint>
          <Trackpoint>
            <Time>2021-07-17T12:01:30.000Z</Time>
            <Position>
              <LatitudeDegrees>42.718351744115352630615234375</LatitudeDegrees>
              <LongitudeDegrees>-0.2262032590806484222412109375</LongitudeDegrees>
            </Position>
            <AltitudeMeters>1776.5999755859375</AltitudeMeters>
            <DistanceMeters>7042.4096356833</DistanceMeters>
          </Trackpoint>
          <Trackpoint>
            <Time>2021-07-17T12:01:37.000Z</Time>
            <Position>
              <LatitudeDegrees>42.71844587288796901702880859375</LatitudeDegrees>
              <LongitudeDegrees>-0.22624072618782520294189453125</LongitudeDegrees>
            </Position>
            <AltitudeMeters>1778.5999755859375</AltitudeMeters>
            <DistanceMeters>7053.3253060099</DistanceMeters>
          </Trackpoint>
          <Trackpoint>
            <Time>2021-07-17T12:01:38.000Z</Time>
            <Position>
              <LatitudeDegrees>42.7184508182108402252197265625</LatitudeDegrees>
              <LongitudeDegrees>-0.22624525241553783416748046875</LongitudeDegrees>
            </Position>
            <AltitudeMeters>1778.5999755859375</AltitudeMeters>
            <DistanceMeters>7053.9904930105</DistanceMeters>
          </Trackpoint>
          <Trackpoint>
            <Time>2021-07-17T12:01:39.000Z</Time>
            <Position>
              <LatitudeDegrees>42.7184501476585865020751953125</LatitudeDegrees>
              <LongitudeDegrees>-0.226245336234569549560546875</LongitudeDegrees>
            </Position>
            <AltitudeMeters>1778.5999755859375</AltitudeMeters>
            <DistanceMeters>7054.0855197248</DistanceMeters>
          </Trackpoint>
          <Trackpoint>
            <Time>2021-07-17T12:01:42.000Z</Time>
            <Position>
              <LatitudeDegrees>42.71844771690666675567626953125</LatitudeDegrees>
              <LongitudeDegrees>-0.22624039091169834136962890625</LongitudeDegrees>
            </Position>
            <AltitudeMeters>1778.5999755859375</AltitudeMeters>
            <DistanceMeters>7054.5606532967</DistanceMeters>
          </Trackpoint>
          <Trackpoint>
            <Time>2021-07-17T12:01:44.000Z</Time>
            <Position>
              <LatitudeDegrees>42.7184514887630939483642578125</LatitudeDegrees>
              <LongitudeDegrees>-0.22623988799750804901123046875</LongitudeDegrees>
            </Position>
            <AltitudeMeters>1778.800048828125</AltitudeMeters>
            <DistanceMeters>7054.9856256827</DistanceMeters>
          </Trackpoint>
          <Trackpoint>
            <Time>2021-07-17T12:01:47.000Z</Time>
            <Position>
              <LatitudeDegrees>42.71845727227628231048583984375</LatitudeDegrees>
              <LongitudeDegrees>-0.22623368538916110992431640625</LongitudeDegrees>
            </Position>
            <AltitudeMeters>1779</AltitudeMeters>
            <DistanceMeters>7055.8085811695</DistanceMeters>
          </Trackpoint>
          <Trackpoint>
            <Time>2021-07-17T12:01:52.000Z</Time>
            <Position>
              <LatitudeDegrees>42.71845408715307712554931640625</LatitudeDegrees>
              <LongitudeDegrees>-0.22623502649366855621337890625</LongitudeDegrees>
            </Position>
            <AltitudeMeters>1779</AltitudeMeters>
            <DistanceMeters>7056.1641385773</DistanceMeters>
          </Trackpoint>
          <Trackpoint>
            <Time>2021-07-17T12:01:56.000Z</Time>
            <Position>
              <LatitudeDegrees>42.71845408715307712554931640625</LatitudeDegrees>
              <LongitudeDegrees>-0.22623502649366855621337890625</LongitudeDegrees>
            </Position>
            <AltitudeMeters>1779</AltitudeMeters>
            <DistanceMeters>7056.1641385773</DistanceMeters>
          </Trackpoint>
          <Trackpoint>
            <Time>2021-07-17T12:02:01.000Z</Time>
            <Position>
              <LatitudeDegrees>42.7184541709721088409423828125</LatitudeDegrees>
              <LongitudeDegrees>-0.22623502649366855621337890625</LongitudeDegrees>
            </Position>
            <AltitudeMeters>1779</AltitudeMeters>
            <DistanceMeters>7056.1641385773</DistanceMeters>
          </Trackpoint>
          <Trackpoint>
            <Time>2021-07-17T12:02:28.000Z</Time>
            <Position>
              <LatitudeDegrees>42.7184672467410564422607421875</LatitudeDegrees>
              <LongitudeDegrees>-0.22628716193139553070068359375</LongitudeDegrees>
            </Position>
            <AltitudeMeters>1778.5999755859375</AltitudeMeters>
            <DistanceMeters>7060.6696476324</DistanceMeters>
          </Trackpoint>
          <Trackpoint>
            <Time>2021-07-17T12:02:31.000Z</Time>
            <Position>
              <LatitudeDegrees>42.7184672467410564422607421875</LatitudeDegrees>
              <LongitudeDegrees>-0.22628766484558582305908203125</LongitudeDegrees>
            </Position>
            <AltitudeMeters>1778.5999755859375</AltitudeMeters>
            <DistanceMeters>7060.6696476324</DistanceMeters>
          </Trackpoint>
          <Trackpoint>
            <Time>2021-07-17T12:02:43.000Z</Time>
            <Position>
              <LatitudeDegrees>42.71846900694072246551513671875</LatitudeDegrees>
              <LongitudeDegrees>-0.22628883831202983856201171875</LongitudeDegrees>
            </Position>
            <AltitudeMeters>1778.5999755859375</AltitudeMeters>
            <DistanceMeters>7060.8821338255</DistanceMeters>
          </Trackpoint>
          <Trackpoint>
            <Time>2021-07-17T12:02:51.000Z</Time>
            <Position>
              <LatitudeDegrees>42.71847336553037166595458984375</LatitudeDegrees>
              <LongitudeDegrees>-0.2262874133884906768798828125</LongitudeDegrees>
            </Position>
            <AltitudeMeters>1778.800048828125</AltitudeMeters>
            <DistanceMeters>7061.3849679337</DistanceMeters>
          </Trackpoint>
          <Trackpoint>
            <Time>2021-07-17T12:03:00.000Z</Time>
            <Position>
              <LatitudeDegrees>42.71847554482519626617431640625</LatitudeDegrees>
              <LongitudeDegrees>-0.22627894766628742218017578125</LongitudeDegrees>
            </Position>
            <AltitudeMeters>1779</AltitudeMeters>
            <DistanceMeters>7062.1148819767</DistanceMeters>
          </Trackpoint>
          <Trackpoint>
            <Time>2021-07-17T12:03:11.000Z</Time>
            <Position>
              <LatitudeDegrees>42.71847671829164028167724609375</LatitudeDegrees>
              <LongitudeDegrees>-0.22627039812505245208740234375</LongitudeDegrees>
            </Position>
            <AltitudeMeters>1779.199951171875</AltitudeMeters>
            <DistanceMeters>7062.8259967923</DistanceMeters>
          </Trackpoint>
          <Trackpoint>
            <Time>2021-07-17T12:03:23.000Z</Time>
            <Position>
              <LatitudeDegrees>42.718482501804828643798828125</LatitudeDegrees>
              <LongitudeDegrees>-0.2262679673731327056884765625</LongitudeDegrees>
            </Position>
            <AltitudeMeters>1779.4000244140625</AltitudeMeters>
            <DistanceMeters>7063.4979371335</DistanceMeters>
          </Trackpoint>
          <Trackpoint>
            <Time>2021-07-17T12:03:25.000Z</Time>
            <Position>
              <LatitudeDegrees>42.7184826694428920745849609375</LatitudeDegrees>
              <LongitudeDegrees>-0.22626771591603755950927734375</LongitudeDegrees>
            </Position>
            <AltitudeMeters>1779.4000244140625</AltitudeMeters>
            <DistanceMeters>7063.4979371335</DistanceMeters>
          </Trackpoint>
          <Trackpoint>
            <Time>2021-07-17T12:03:40.000Z</Time>
            <Position>
              <LatitudeDegrees>42.71848375909030437469482421875</LatitudeDegrees>
              <LongitudeDegrees>-0.22626084275543689727783203125</LongitudeDegrees>
            </Position>
            <AltitudeMeters>1779.4000244140625</AltitudeMeters>
            <DistanceMeters>7064.0680974197</DistanceMeters>
          </Trackpoint>
          <Trackpoint>
            <Time>2021-07-17T12:03:58.000Z</Time>
            <Position>
              <LatitudeDegrees>42.71848577074706554412841796875</LatitudeDegrees>
              <LongitudeDegrees>-0.2262522093951702117919921875</LongitudeDegrees>
            </Position>
            <AltitudeMeters>1779.5999755859375</AltitudeMeters>
            <DistanceMeters>7064.8041711841</DistanceMeters>
          </Trackpoint>
          <Trackpoint>
            <Time>2021-07-17T12:04:00.000Z</Time>
            <Position>
              <LatitudeDegrees>42.71848007105290889739990234375</LatitudeDegrees>
              <LongitudeDegrees>-0.2262468449771404266357421875</LongitudeDegrees>
            </Position>
            <AltitudeMeters>1779.5999755859375</AltitudeMeters>
            <DistanceMeters>7065.5703010483</DistanceMeters>
          </Trackpoint>
          <Trackpoint>
            <Time>2021-07-17T12:04:01.000Z</Time>
            <Position>
              <LatitudeDegrees>42.71846473217010498046875</LatitudeDegrees>
              <LongitudeDegrees>-0.22623687051236629486083984375</LongitudeDegrees>
            </Position>
            <AltitudeMeters>1779.199951171875</AltitudeMeters>
            <DistanceMeters>7067.4613087881</DistanceMeters>
          </Trackpoint>
          <Trackpoint>
            <Time>2021-07-17T12:04:03.000Z</Time>
            <Position>
              <LatitudeDegrees>42.7184338867664337158203125</LatitudeDegrees>
              <LongitudeDegrees>-0.22622488439083099365234375</LongitudeDegrees>
            </Position>
            <AltitudeMeters>1778.5999755859375</AltitudeMeters>
            <DistanceMeters>7071.0295587494</DistanceMeters>
          </Trackpoint>
          <Trackpoint>
            <Time>2021-07-17T12:04:11.000Z</Time>
            <Position>
              <LatitudeDegrees>42.718338668346405029296875</LatitudeDegrees>
              <LongitudeDegrees>-0.22618104703724384307861328125</LongitudeDegrees>
            </Position>
            <AltitudeMeters>1776.5999755859375</AltitudeMeters>
            <DistanceMeters>7082.2169114082</DistanceMeters>
          </Trackpoint>
          <Trackpoint>
            <Time>2021-07-17T12:04:12.000Z</Time>
            <Position>
              <LatitudeDegrees>42.71833690814673900604248046875</LatitudeDegrees>
              <LongitudeDegrees>-0.22617987357079982757568359375</LongitudeDegrees>
            </Position>
            <AltitudeMeters>1776.5999755859375</AltitudeMeters>
            <DistanceMeters>7082.4293976012</DistanceMeters>
          </Trackpoint>
          <Trackpoint>
            <Time>2021-07-17T12:04:19.000Z</Time>
            <Position>
              <LatitudeDegrees>42.7183328010141849517822265625</LatitudeDegrees>
              <LongitudeDegrees>-0.2261828072369098663330078125</LongitudeDegrees>
            </Position>
            <AltitudeMeters>1776.4000244140625</AltitudeMeters>
            <DistanceMeters>7082.9322317095</DistanceMeters>
          </Trackpoint>
          <Trackpoint>
            <Time>2021-07-17T12:04:22.000Z</Time>
            <Position>
              <LatitudeDegrees>42.71832601167261600494384765625</LatitudeDegrees>
              <LongitudeDegrees>-0.22618071176111698150634765625</LongitudeDegrees>
            </Position>
            <AltitudeMeters>1776.199951171875</AltitudeMeters>
            <DistanceMeters>7083.7042323865</DistanceMeters>
          </Trackpoint>
          <Trackpoint>
            <Time>2021-07-17T12:04:24.000Z</Time>
            <Position>
              <LatitudeDegrees>42.71832525730133056640625</LatitudeDegrees>
              <LongitudeDegrees>-0.226184986531734466552734375</LongitudeDegrees>
            </Position>
            <AltitudeMeters>1776</AltitudeMeters>
            <DistanceMeters>7084.0597897942</DistanceMeters>
          </Trackpoint>
          <Trackpoint>
            <Time>2021-07-17T12:04:28.000Z</Time>
            <Position>
              <LatitudeDegrees>42.71832550875842571258544921875</LatitudeDegrees>
              <LongitudeDegrees>-0.22618154995143413543701171875</LongitudeDegrees>
            </Position>
            <AltitudeMeters>1776.199951171875</AltitudeMeters>
            <DistanceMeters>7084.3285659307</DistanceMeters>
          </Trackpoint>
          <Trackpoint>
            <Time>2021-07-17T12:04:35.000Z</Time>
            <Position>
              <LatitudeDegrees>42.71832550875842571258544921875</LatitudeDegrees>
              <LongitudeDegrees>-0.22618154995143413543701171875</LongitudeDegrees>
            </Position>
            <AltitudeMeters>1776.199951171875</AltitudeMeters>
            <DistanceMeters>7084.3285659307</DistanceMeters>
          </Trackpoint>
          <Trackpoint>
            <Time>2021-07-17T12:04:55.000Z</Time>
            <Position>
              <LatitudeDegrees>42.71833824925124645233154296875</LatitudeDegrees>
              <LongitudeDegrees>-0.22618657909333705902099609375</LongitudeDegrees>
            </Position>
            <AltitudeMeters>1776.4000244140625</AltitudeMeters>
            <DistanceMeters>7085.8068346815</DistanceMeters>
          </Trackpoint>
          <Trackpoint>
            <Time>2021-07-17T12:05:02.000Z</Time>
            <Position>
              <LatitudeDegrees>42.71833824925124645233154296875</LatitudeDegrees>
              <LongitudeDegrees>-0.22619403898715972900390625</LongitudeDegrees>
            </Position>
            <AltitudeMeters>1776.4000244140625</AltitudeMeters>
            <DistanceMeters>7086.4153025395</DistanceMeters>
          </Trackpoint>
          <Trackpoint>
            <Time>2021-07-17T12:05:13.000Z</Time>
            <Position>
              <LatitudeDegrees>42.71833556704223155975341796875</LatitudeDegrees>
              <LongitudeDegrees>-0.226194374263286590576171875</LongitudeDegrees>
            </Position>
            <AltitudeMeters>1776.199951171875</AltitudeMeters>
            <DistanceMeters>7086.7158033954</DistanceMeters>
          </Trackpoint>
          <Trackpoint>
            <Time>2021-07-17T12:05:21.000Z</Time>
            <Position>
              <LatitudeDegrees>42.7183331362903118133544921875</LatitudeDegrees>
              <LongitudeDegrees>-0.2261935360729694366455078125</LongitudeDegrees>
            </Position>
            <AltitudeMeters>1776.199951171875</AltitudeMeters>
            <DistanceMeters>7087.0008835385</DistanceMeters>
          </Trackpoint>
          <Trackpoint>
            <Time>2021-07-17T12:05:25.000Z</Time>
            <Position>
              <LatitudeDegrees>42.71833187900483608245849609375</LatitudeDegrees>
              <LongitudeDegrees>-0.2261920273303985595703125</LongitudeDegrees>
            </Position>
            <AltitudeMeters>1776.199951171875</AltitudeMeters>
            <DistanceMeters>7087.1909369673</DistanceMeters>
          </Trackpoint>
          <Trackpoint>
            <Time>2021-07-17T12:05:40.000Z</Time>
            <Position>
              <LatitudeDegrees>42.71833187900483608245849609375</LatitudeDegrees>
              <LongitudeDegrees>-0.22619135677814483642578125</LongitudeDegrees>
            </Position>
            <AltitudeMeters>1776.199951171875</AltitudeMeters>
            <DistanceMeters>7087.2859636817</DistanceMeters>
          </Trackpoint>
          <Trackpoint>
            <Time>2021-07-17T12:05:52.000Z</Time>
            <Position>
              <LatitudeDegrees>42.71834864281117916107177734375</LatitudeDegrees>
              <LongitudeDegrees>-0.226193033158779144287109375</LongitudeDegrees>
            </Position>
            <AltitudeMeters>1776.5999755859375</AltitudeMeters>
            <DistanceMeters>7089.1577728761</DistanceMeters>
          </Trackpoint>
          <Trackpoint>
            <Time>2021-07-17T12:05:55.000Z</Time>
            <Position>
              <LatitudeDegrees>42.71835031919181346893310546875</LatitudeDegrees>
              <LongitudeDegrees>-0.226193033158779144287109375</LongitudeDegrees>
            </Position>
            <AltitudeMeters>1776.800048828125</AltitudeMeters>
            <DistanceMeters>7089.3702590691</DistanceMeters>
          </Trackpoint>
          <Trackpoint>
            <Time>2021-07-17T12:05:58.000Z</Time>
            <Position>
              <LatitudeDegrees>42.7183505706489086151123046875</LatitudeDegrees>
              <LongitudeDegrees>-0.226193033158779144287109375</LongitudeDegrees>
            </Position>
            <AltitudeMeters>1776.800048828125</AltitudeMeters>
            <DistanceMeters>7089.3702590691</DistanceMeters>
          </Trackpoint>
          <Trackpoint>
            <Time>2021-07-17T12:06:33.000Z</Time>
            <Position>
              <LatitudeDegrees>42.718322910368442535400390625</LatitudeDegrees>
              <LongitudeDegrees>-0.2261761017143726348876953125</LongitudeDegrees>
            </Position>
            <AltitudeMeters>1776.199951171875</AltitudeMeters>
            <DistanceMeters>7092.7460488244</DistanceMeters>
          </Trackpoint>
          <Trackpoint>
            <Time>2021-07-17T12:06:43.000Z</Time>
            <Position>
              <LatitudeDegrees>42.71832400001585483551025390625</LatitudeDegrees>
              <LongitudeDegrees>-0.22618490271270275115966796875</LongitudeDegrees>
            </Position>
            <AltitudeMeters>1776</AltitudeMeters>
            <DistanceMeters>7093.4697507201</DistanceMeters>
          </Trackpoint>
          <Trackpoint>
            <Time>2021-07-17T12:06:52.000Z</Time>
            <Position>
              <LatitudeDegrees>42.718325592577457427978515625</LatitudeDegrees>
              <LongitudeDegrees>-0.22618959657847881317138671875</LongitudeDegrees>
            </Position>
            <AltitudeMeters>1776</AltitudeMeters>
            <DistanceMeters>7093.8839625649</DistanceMeters>
          </Trackpoint>
          <Trackpoint>
            <Time>2021-07-17T12:06:57.000Z</Time>
            <Position>
              <LatitudeDegrees>42.7183284424245357513427734375</LatitudeDegrees>
              <LongitudeDegrees>-0.2261908538639545440673828125</LongitudeDegrees>
            </Position>
            <AltitudeMeters>1776</AltitudeMeters>
            <DistanceMeters>7094.2131447597</DistanceMeters>
          </Trackpoint>
          <Trackpoint>
            <Time>2021-07-17T12:07:07.000Z</Time>
            <Position>
              <LatitudeDegrees>42.71833472885191440582275390625</LatitudeDegrees>
              <LongitudeDegrees>-0.2261938713490962982177734375</LongitudeDegrees>
            </Position>
            <AltitudeMeters>1776.199951171875</AltitudeMeters>
            <DistanceMeters>7094.9492185241</DistanceMeters>
          </Trackpoint>
          <Trackpoint>
            <Time>2021-07-17T12:07:19.000Z</Time>
            <Position>
              <LatitudeDegrees>42.7183373272418975830078125</LatitudeDegrees>
              <LongitudeDegrees>-0.22619646973907947540283203125</LongitudeDegrees>
            </Position>
            <AltitudeMeters>1776.199951171875</AltitudeMeters>
            <DistanceMeters>7095.3047759318</DistanceMeters>
          </Trackpoint>
          <Trackpoint>
            <Time>2021-07-17T12:07:29.000Z</Time>
            <Position>
              <LatitudeDegrees>42.718338333070278167724609375</LatitudeDegrees>
              <LongitudeDegrees>-0.22619697265326976776123046875</LongitudeDegrees>
            </Position>
            <AltitudeMeters>1776.199951171875</AltitudeMeters>
            <DistanceMeters>7095.4391640001</DistanceMeters>
          </Trackpoint>
          <Trackpoint>
            <Time>2021-07-17T12:07:31.000Z</Time>
            <Position>
              <LatitudeDegrees>42.71833858452737331390380859375</LatitudeDegrees>
              <LongitudeDegrees>-0.2261968888342380523681640625</LongitudeDegrees>
            </Position>
            <AltitudeMeters>1776.199951171875</AltitudeMeters>
            <DistanceMeters>7095.4391640001</DistanceMeters>
          </Trackpoint>
          <Trackpoint>
            <Time>2021-07-17T12:07:34.000Z</Time>
            <Position>
              <LatitudeDegrees>42.71833891980350017547607421875</LatitudeDegrees>
              <LongitudeDegrees>-0.22619680501520633697509765625</LongitudeDegrees>
            </Position>
            <AltitudeMeters>1776.4000244140625</AltitudeMeters>
            <DistanceMeters>7095.4391640001</DistanceMeters>
          </Trackpoint>
          <Trackpoint>
            <Time>2021-07-17T12:07:37.000Z</Time>
            <Position>
              <LatitudeDegrees>42.7183391712605953216552734375</LatitudeDegrees>
              <LongitudeDegrees>-0.22619663737714290618896484375</LongitudeDegrees>
            </Position>
            <AltitudeMeters>1776.4000244140625</AltitudeMeters>
            <DistanceMeters>7095.4391640001</DistanceMeters>
          </Trackpoint>
          <Trackpoint>
            <Time>2021-07-17T12:07:39.000Z</Time>
            <Position>
              <LatitudeDegrees>42.71833925507962703704833984375</LatitudeDegrees>
              <LongitudeDegrees>-0.22619663737714290618896484375</LongitudeDegrees>
            </Position>
            <AltitudeMeters>1776.4000244140625</AltitudeMeters>
            <DistanceMeters>7095.4391640001</DistanceMeters>
          </Trackpoint>
          <Trackpoint>
            <Time>2021-07-17T12:07:42.000Z</Time>
            <Position>
              <LatitudeDegrees>42.71833933889865875244140625</LatitudeDegrees>
              <LongitudeDegrees>-0.2261965535581111907958984375</LongitudeDegrees>
            </Position>
            <AltitudeMeters>1776.4000244140625</AltitudeMeters>
            <DistanceMeters>7095.4391640001</DistanceMeters>
          </Trackpoint>
          <Trackpoint>
            <Time>2021-07-17T12:07:49.000Z</Time>
            <Position>
              <LatitudeDegrees>42.71833942271769046783447265625</LatitudeDegrees>
              <LongitudeDegrees>-0.22619646973907947540283203125</LongitudeDegrees>
            </Position>
            <AltitudeMeters>1776.4000244140625</AltitudeMeters>
            <DistanceMeters>7095.4391640001</DistanceMeters>
          </Trackpoint>
          <Trackpoint>
            <Time>2021-07-17T12:07:59.000Z</Time>
            <Position>
              <LatitudeDegrees>42.71833933889865875244140625</LatitudeDegrees>
              <LongitudeDegrees>-0.22619630210101604461669921875</LongitudeDegrees>
            </Position>
            <AltitudeMeters>1776.4000244140625</AltitudeMeters>
            <DistanceMeters>7095.4391640001</DistanceMeters>
          </Trackpoint>
          <Trackpoint>
            <Time>2021-07-17T12:08:09.000Z</Time>
            <Position>
              <LatitudeDegrees>42.71833925507962703704833984375</LatitudeDegrees>
              <LongitudeDegrees>-0.2261962182819843292236328125</LongitudeDegrees>
            </Position>
            <AltitudeMeters>1776.4000244140625</AltitudeMeters>
            <DistanceMeters>7095.4391640001</DistanceMeters>
          </Trackpoint>
          <Trackpoint>
            <Time>2021-07-17T12:08:15.000Z</Time>
            <Position>
              <LatitudeDegrees>42.7183391712605953216552734375</LatitudeDegrees>
              <LongitudeDegrees>-0.22619613446295261383056640625</LongitudeDegrees>
            </Position>
            <AltitudeMeters>1776.4000244140625</AltitudeMeters>
            <DistanceMeters>7095.4391640001</DistanceMeters>
          </Trackpoint>
          <Trackpoint>
            <Time>2021-07-17T12:08:16.000Z</Time>
            <Position>
              <LatitudeDegrees>42.7183391712605953216552734375</LatitudeDegrees>
              <LongitudeDegrees>-0.2261960506439208984375</LongitudeDegrees>
            </Position>
            <AltitudeMeters>1776.4000244140625</AltitudeMeters>
            <DistanceMeters>7095.4391640001</DistanceMeters>
          </Trackpoint>
          <Trackpoint>
            <Time>2021-07-17T12:08:18.000Z</Time>
            <Position>
              <LatitudeDegrees>42.7183391712605953216552734375</LatitudeDegrees>
              <LongitudeDegrees>-0.2261960506439208984375</LongitudeDegrees>
            </Position>
            <AltitudeMeters>1776.4000244140625</AltitudeMeters>
            <DistanceMeters>7095.4391640001</DistanceMeters>
          </Trackpoint>
          <Trackpoint>
            <Time>2021-07-17T12:08:27.000Z</Time>
            <Position>
              <LatitudeDegrees>42.71833908744156360626220703125</LatitudeDegrees>
              <LongitudeDegrees>-0.22619596682488918304443359375</LongitudeDegrees>
            </Position>
            <AltitudeMeters>1776.4000244140625</AltitudeMeters>
            <DistanceMeters>7095.4391640001</DistanceMeters>
          </Trackpoint>
          <Trackpoint>
            <Time>2021-07-17T12:08:40.000Z</Time>
            <Position>
              <LatitudeDegrees>42.718339003622531890869140625</LatitudeDegrees>
              <LongitudeDegrees>-0.226195715367794036865234375</LongitudeDegrees>
            </Position>
            <AltitudeMeters>1776.4000244140625</AltitudeMeters>
            <DistanceMeters>7095.4391640001</DistanceMeters>
          </Trackpoint>
          <Trackpoint>
            <Time>2021-07-17T12:08:44.000Z</Time>
            <Position>
              <LatitudeDegrees>42.71833891980350017547607421875</LatitudeDegrees>
              <LongitudeDegrees>-0.2261955477297306060791015625</LongitudeDegrees>
            </Position>
            <AltitudeMeters>1776.4000244140625</AltitudeMeters>
            <DistanceMeters>7095.4391640001</DistanceMeters>
          </Trackpoint>
          <Trackpoint>
            <Time>2021-07-17T12:08:48.000Z</Time>
            <Position>
              <LatitudeDegrees>42.71833891980350017547607421875</LatitudeDegrees>
              <LongitudeDegrees>-0.22619546391069889068603515625</LongitudeDegrees>
            </Position>
            <AltitudeMeters>1776.4000244140625</AltitudeMeters>
            <DistanceMeters>7095.4391640001</DistanceMeters>
          </Trackpoint>
          <Trackpoint>
            <Time>2021-07-17T12:08:56.000Z</Time>
            <Position>
              <LatitudeDegrees>42.7183388359844684600830078125</LatitudeDegrees>
              <LongitudeDegrees>-0.22619529627263545989990234375</LongitudeDegrees>
            </Position>
            <AltitudeMeters>1776.4000244140625</AltitudeMeters>
            <DistanceMeters>7095.4391640001</DistanceMeters>
          </Trackpoint>
          <Trackpoint>
            <Time>2021-07-17T12:08:58.000Z</Time>
            <Position>
              <LatitudeDegrees>42.71833875216543674468994140625</LatitudeDegrees>
              <LongitudeDegrees>-0.22619529627263545989990234375</LongitudeDegrees>
            </Position>
            <AltitudeMeters>1776.4000244140625</AltitudeMeters>
            <DistanceMeters>7095.5341907144</DistanceMeters>
          </Trackpoint>
          <Trackpoint>
            <Time>2021-07-17T12:09:01.000Z</Time>
            <Position>
              <LatitudeDegrees>42.71833875216543674468994140625</LatitudeDegrees>
              <LongitudeDegrees>-0.2261952124536037445068359375</LongitudeDegrees>
            </Position>
            <AltitudeMeters>1776.4000244140625</AltitudeMeters>
            <DistanceMeters>7095.5341907144</DistanceMeters>
          </Trackpoint>
          <Trackpoint>
            <Time>2021-07-17T12:09:27.000Z</Time>
            <Position>
              <LatitudeDegrees>42.7183388359844684600830078125</LatitudeDegrees>
              <LongitudeDegrees>-0.22619496099650859832763671875</LongitudeDegrees>
            </Position>
            <AltitudeMeters>1776.4000244140625</AltitudeMeters>
            <DistanceMeters>7095.6292174288</DistanceMeters>
          </Trackpoint>
          <Trackpoint>
            <Time>2021-07-17T12:09:39.000Z</Time>
            <Position>
              <LatitudeDegrees>42.718339003622531890869140625</LatitudeDegrees>
              <LongitudeDegrees>-0.22619496099650859832763671875</LongitudeDegrees>
            </Position>
            <AltitudeMeters>1776.4000244140625</AltitudeMeters>
            <DistanceMeters>7095.6292174288</DistanceMeters>
          </Trackpoint>
          <Trackpoint>
            <Time>2021-07-17T12:09:57.000Z</Time>
            <Position>
              <LatitudeDegrees>42.7183388359844684600830078125</LatitudeDegrees>
              <LongitudeDegrees>-0.2261947095394134521484375</LongitudeDegrees>
            </Position>
            <AltitudeMeters>1776.4000244140625</AltitudeMeters>
            <DistanceMeters>7095.6292174288</DistanceMeters>
          </Trackpoint>
          <Trackpoint>
            <Time>2021-07-17T12:10:00.000Z</Time>
            <Position>
              <LatitudeDegrees>42.7183388359844684600830078125</LatitudeDegrees>
              <LongitudeDegrees>-0.2261947095394134521484375</LongitudeDegrees>
            </Position>
            <AltitudeMeters>1776.4000244140625</AltitudeMeters>
            <DistanceMeters>7095.7242441432</DistanceMeters>
          </Trackpoint>
          <Trackpoint>
            <Time>2021-07-17T12:10:02.000Z</Time>
            <Position>
              <LatitudeDegrees>42.7183388359844684600830078125</LatitudeDegrees>
              <LongitudeDegrees>-0.22619462572038173675537109375</LongitudeDegrees>
            </Position>
            <AltitudeMeters>1776.4000244140625</AltitudeMeters>
            <DistanceMeters>7095.8192708576</DistanceMeters>
          </Trackpoint>
          <Trackpoint>
            <Time>2021-07-17T12:10:13.000Z</Time>
            <Position>
              <LatitudeDegrees>42.718338668346405029296875</LatitudeDegrees>
              <LongitudeDegrees>-0.226194374263286590576171875</LongitudeDegrees>
            </Position>
            <AltitudeMeters>1776.4000244140625</AltitudeMeters>
            <DistanceMeters>7095.8192708576</DistanceMeters>
          </Trackpoint>
          <Trackpoint>
            <Time>2021-07-17T12:10:26.000Z</Time>
            <Position>
              <LatitudeDegrees>42.71833841688930988311767578125</LatitudeDegrees>
              <LongitudeDegrees>-0.22619429044425487518310546875</LongitudeDegrees>
            </Position>
            <AltitudeMeters>1776.4000244140625</AltitudeMeters>
            <DistanceMeters>7095.8192708576</DistanceMeters>
          </Trackpoint>
          <Trackpoint>
            <Time>2021-07-17T12:10:42.000Z</Time>
            <Position>
              <LatitudeDegrees>42.71833523176610469818115234375</LatitudeDegrees>
              <LongitudeDegrees>-0.22614852525293827056884765625</LongitudeDegrees>
            </Position>
            <AltitudeMeters>1777</AltitudeMeters>
            <DistanceMeters>7099.5773341298</DistanceMeters>
          </Trackpoint>
          <Trackpoint>
            <Time>2021-07-17T12:10:46.000Z</Time>
            <Position>
              <LatitudeDegrees>42.718318887054920196533203125</LatitudeDegrees>
              <LongitudeDegrees>-0.2260792069137096405029296875</LongitudeDegrees>
            </Position>
            <AltitudeMeters>1777.5999755859375</AltitudeMeters>
            <DistanceMeters>7105.5299822772</DistanceMeters>
          </Trackpoint>
          <Trackpoint>
            <Time>2021-07-17T12:10:48.000Z</Time>
            <Position>
              <LatitudeDegrees>42.71831997670233249664306640625</LatitudeDegrees>
              <LongitudeDegrees>-0.22604945115745067596435546875</LongitudeDegrees>
            </Position>
            <AltitudeMeters>1778</AltitudeMeters>
            <DistanceMeters>7107.9657080876</DistanceMeters>
          </Trackpoint>
          <Trackpoint>
            <Time>2021-07-17T12:10:58.000Z</Time>
            <Position>
              <LatitudeDegrees>42.71831394173204898834228515625</LatitudeDegrees>
              <LongitudeDegrees>-0.22590042091906070709228515625</LongitudeDegrees>
            </Position>
            <AltitudeMeters>1779.800048828125</AltitudeMeters>
            <DistanceMeters>7120.1706309067</DistanceMeters>
          </Trackpoint>
          <Trackpoint>
            <Time>2021-07-17T12:11:05.000Z</Time>
            <Position>
              <LatitudeDegrees>42.71828125230967998504638671875</LatitudeDegrees>
              <LongitudeDegrees>-0.22582330740988254547119140625</LongitudeDegrees>
            </Position>
            <AltitudeMeters>1780</AltitudeMeters>
            <DistanceMeters>7127.4511905504</DistanceMeters>
          </Trackpoint>
          <Trackpoint>
            <Time>2021-07-17T12:11:06.000Z</Time>
            <Position>
              <LatitudeDegrees>42.7182801626622676849365234375</LatitudeDegrees>
              <LongitudeDegrees>-0.2258176915347576141357421875</LongitudeDegrees>
            </Position>
            <AltitudeMeters>1780.199951171875</AltitudeMeters>
            <DistanceMeters>7127.9263241223</DistanceMeters>
          </Trackpoint>
          <Trackpoint>
            <Time>2021-07-17T12:11:20.000Z</Time>
            <Position>
              <LatitudeDegrees>42.71830203942954540252685546875</LatitudeDegrees>
              <LongitudeDegrees>-0.22582364268600940704345703125</LongitudeDegrees>
            </Position>
            <AltitudeMeters>1780.5999755859375</AltitudeMeters>
            <DistanceMeters>7130.4079590944</DistanceMeters>
          </Trackpoint>
          <Trackpoint>
            <Time>2021-07-17T12:11:23.000Z</Time>
            <Position>
              <LatitudeDegrees>42.71830203942954540252685546875</LatitudeDegrees>
              <LongitudeDegrees>-0.22582364268600940704345703125</LongitudeDegrees>
            </Position>
            <AltitudeMeters>1780.5999755859375</AltitudeMeters>
            <DistanceMeters>7130.4079590944</DistanceMeters>
          </Trackpoint>
          <Trackpoint>
            <Time>2021-07-17T12:11:38.000Z</Time>
            <Position>
              <LatitudeDegrees>42.71828527562320232391357421875</LatitudeDegrees>
              <LongitudeDegrees>-0.22582347504794597625732421875</LongitudeDegrees>
            </Position>
            <AltitudeMeters>1780.199951171875</AltitudeMeters>
            <DistanceMeters>7132.2749378054</DistanceMeters>
          </Trackpoint>
          <Trackpoint>
            <Time>2021-07-17T12:11:42.000Z</Time>
            <Position>
              <LatitudeDegrees>42.71828175522387027740478515625</LatitudeDegrees>
              <LongitudeDegrees>-0.22582280449569225311279296875</LongitudeDegrees>
            </Position>
            <AltitudeMeters>1780.199951171875</AltitudeMeters>
            <DistanceMeters>7132.6781020101</DistanceMeters>
          </Trackpoint>
          <Trackpoint>
            <Time>2021-07-17T12:11:47.000Z</Time>
            <Position>
              <LatitudeDegrees>42.71828033030033111572265625</LatitudeDegrees>
              <LongitudeDegrees>-0.2258217148482799530029296875</LongitudeDegrees>
            </Position>
            <AltitudeMeters>1780.199951171875</AltitudeMeters>
            <DistanceMeters>7132.8426931075</DistanceMeters>
          </Trackpoint>
          <Trackpoint>
            <Time>2021-07-17T12:11:56.000Z</Time>
            <Position>
              <LatitudeDegrees>42.7183083258569240570068359375</LatitudeDegrees>
              <LongitudeDegrees>-0.225900001823902130126953125</LongitudeDegrees>
            </Position>
            <AltitudeMeters>1779.5999755859375</AltitudeMeters>
            <DistanceMeters>7139.9620904893</DistanceMeters>
          </Trackpoint>
          <Trackpoint>
            <Time>2021-07-17T12:12:02.000Z</Time>
            <Position>
              <LatitudeDegrees>42.71831159479916095733642578125</LatitudeDegrees>
              <LongitudeDegrees>-0.22601106204092502593994140625</LongitudeDegrees>
            </Position>
            <AltitudeMeters>1778</AltitudeMeters>
            <DistanceMeters>7149.0509374629</DistanceMeters>
          </Trackpoint>
          <Trackpoint>
            <Time>2021-07-17T12:12:04.000Z</Time>
            <Position>
              <LatitudeDegrees>42.71831293590366840362548828125</LatitudeDegrees>
              <LongitudeDegrees>-0.22604651749134063720703125</LongitudeDegrees>
            </Position>
            <AltitudeMeters>1777.5999755859375</AltitudeMeters>
            <DistanceMeters>7151.953533081</DistanceMeters>
          </Trackpoint>
          <Trackpoint>
            <Time>2021-07-17T12:12:08.000Z</Time>
            <Position>
              <LatitudeDegrees>42.71833070553839206695556640625</LatitudeDegrees>
              <LongitudeDegrees>-0.2260926179587841033935546875</LongitudeDegrees>
            </Position>
            <AltitudeMeters>1777.800048828125</AltitudeMeters>
            <DistanceMeters>7156.2096267532</DistanceMeters>
          </Trackpoint>
          <Trackpoint>
            <Time>2021-07-17T12:12:11.000Z</Time>
            <Position>
              <LatitudeDegrees>42.7183277718722820281982421875</LatitudeDegrees>
              <LongitudeDegrees>-0.226127319037914276123046875</LongitudeDegrees>
            </Position>
            <AltitudeMeters>1777.199951171875</AltitudeMeters>
            <DistanceMeters>7159.0667562752</DistanceMeters>
          </Trackpoint>
          <Trackpoint>
            <Time>2021-07-17T12:12:18.000Z</Time>
            <Position>
              <LatitudeDegrees>42.71833456121385097503662109375</LatitudeDegrees>
              <LongitudeDegrees>-0.2261771075427532196044921875</LongitudeDegrees>
            </Position>
            <AltitudeMeters>1776.5999755859375</AltitudeMeters>
            <DistanceMeters>7163.2088747239</DistanceMeters>
          </Trackpoint>
          <Trackpoint>
            <Time>2021-07-17T12:12:19.000Z</Time>
            <Position>
              <LatitudeDegrees>42.71833799779415130615234375</LatitudeDegrees>
              <LongitudeDegrees>-0.2261824719607830047607421875</LongitudeDegrees>
            </Position>
            <AltitudeMeters>1776.5999755859375</AltitudeMeters>
            <DistanceMeters>7163.7790350101</DistanceMeters>
          </Trackpoint>
          <Trackpoint>
            <Time>2021-07-17T12:12:26.000Z</Time>
            <Position>
              <LatitudeDegrees>42.71834176965057849884033203125</LatitudeDegrees>
              <LongitudeDegrees>-0.22618959657847881317138671875</LongitudeDegrees>
            </Position>
            <AltitudeMeters>1776.5999755859375</AltitudeMeters>
            <DistanceMeters>7164.4901498257</DistanceMeters>
          </Trackpoint>
          <Trackpoint>
            <Time>2021-07-17T12:12:58.000Z</Time>
            <Position>
              <LatitudeDegrees>42.7183388359844684600830078125</LatitudeDegrees>
              <LongitudeDegrees>-0.226185321807861328125</LongitudeDegrees>
            </Position>
            <AltitudeMeters>1776.5999755859375</AltitudeMeters>
            <DistanceMeters>7164.9556837499</DistanceMeters>
          </Trackpoint>
          <Trackpoint>
            <Time>2021-07-17T12:13:02.000Z</Time>
            <Position>
              <LatitudeDegrees>42.7183388359844684600830078125</LatitudeDegrees>
              <LongitudeDegrees>-0.22618523798882961273193359375</LongitudeDegrees>
            </Position>
            <AltitudeMeters>1776.5999755859375</AltitudeMeters>
            <DistanceMeters>7165.0507104643</DistanceMeters>
          </Trackpoint>
          <Trackpoint>
            <Time>2021-07-17T12:13:16.000Z</Time>
            <Position>
              <LatitudeDegrees>42.7183373272418975830078125</LatitudeDegrees>
              <LongitudeDegrees>-0.2261828072369098663330078125</LongitudeDegrees>
            </Position>
            <AltitudeMeters>1776.5999755859375</AltitudeMeters>
            <DistanceMeters>7165.3021275184</DistanceMeters>
          </Trackpoint>
          <Trackpoint>
            <Time>2021-07-17T12:13:33.000Z</Time>
            <Position>
              <LatitudeDegrees>42.718338333070278167724609375</LatitudeDegrees>
              <LongitudeDegrees>-0.22618020884692668914794921875</LongitudeDegrees>
            </Position>
            <AltitudeMeters>1776.5999755859375</AltitudeMeters>
            <DistanceMeters>7165.5348944806</DistanceMeters>
          </Trackpoint>
          <Trackpoint>
            <Time>2021-07-17T12:13:48.000Z</Time>
            <Position>
              <LatitudeDegrees>42.71833405829966068267822265625</LatitudeDegrees>
              <LongitudeDegrees>-0.2261811308562755584716796875</LongitudeDegrees>
            </Position>
            <AltitudeMeters>1776.4000244140625</AltitudeMeters>
            <DistanceMeters>7166.0194375515</DistanceMeters>
          </Trackpoint>
          <Trackpoint>
            <Time>2021-07-17T12:14:00.000Z</Time>
            <Position>
              <LatitudeDegrees>42.71833020262420177459716796875</LatitudeDegrees>
              <LongitudeDegrees>-0.2261710725724697113037109375</LongitudeDegrees>
            </Position>
            <AltitudeMeters>1776.4000244140625</AltitudeMeters>
            <DistanceMeters>7166.9505054</DistanceMeters>
          </Trackpoint>
          <Trackpoint>
            <Time>2021-07-17T12:14:11.000Z</Time>
            <Position>
              <LatitudeDegrees>42.71833053790032863616943359375</LatitudeDegrees>
              <LongitudeDegrees>-0.22617115639150142669677734375</LongitudeDegrees>
            </Position>
            <AltitudeMeters>1776.4000244140625</AltitudeMeters>
            <DistanceMeters>7166.9505054</DistanceMeters>
          </Trackpoint>
          <Trackpoint>
            <Time>2021-07-17T12:14:23.000Z</Time>
            <Position>
              <LatitudeDegrees>42.71837613545358180999755859375</LatitudeDegrees>
              <LongitudeDegrees>-0.22619294933974742889404296875</LongitudeDegrees>
            </Position>
            <AltitudeMeters>1777.5999755859375</AltitudeMeters>
            <DistanceMeters>7172.3293867825</DistanceMeters>
          </Trackpoint>
          <Trackpoint>
            <Time>2021-07-17T12:14:28.000Z</Time>
            <Position>
              <LatitudeDegrees>42.71839432418346405029296875</LatitudeDegrees>
              <LongitudeDegrees>-0.2261787839233875274658203125</LongitudeDegrees>
            </Position>
            <AltitudeMeters>1778.4000244140625</AltitudeMeters>
            <DistanceMeters>7174.6609326257</DistanceMeters>
          </Trackpoint>
          <Trackpoint>
            <Time>2021-07-17T12:14:33.000Z</Time>
            <Position>
              <LatitudeDegrees>42.71834378130733966827392578125</LatitudeDegrees>
              <LongitudeDegrees>-0.226164869964122772216796875</LongitudeDegrees>
            </Position>
            <AltitudeMeters>1777</AltitudeMeters>
            <DistanceMeters>7180.4004203091</DistanceMeters>
          </Trackpoint>
          <Trackpoint>
            <Time>2021-07-17T12:14:35.000Z</Time>
            <Position>
              <LatitudeDegrees>42.71833238191902637481689453125</LatitudeDegrees>
              <LongitudeDegrees>-0.22616595961153507232666015625</LongitudeDegrees>
            </Position>
            <AltitudeMeters>1776.5999755859375</AltitudeMeters>
            <DistanceMeters>7181.6682348094</DistanceMeters>
          </Trackpoint>
          <Trackpoint>
            <Time>2021-07-17T12:14:42.000Z</Time>
            <Position>
              <LatitudeDegrees>42.71832584403455257415771484375</LatitudeDegrees>
              <LongitudeDegrees>-0.22616763599216938018798828125</LongitudeDegrees>
            </Position>
            <AltitudeMeters>1776.4000244140625</AltitudeMeters>
            <DistanceMeters>7182.4043085738</DistanceMeters>
          </Trackpoint>
          <Trackpoint>
            <Time>2021-07-17T12:14:45.000Z</Time>
            <Position>
              <LatitudeDegrees>42.7183212339878082275390625</LatitudeDegrees>
              <LongitudeDegrees>-0.2261566556990146636962890625</LongitudeDegrees>
            </Position>
            <AltitudeMeters>1776.4000244140625</AltitudeMeters>
            <DistanceMeters>7183.4365629128</DistanceMeters>
          </Trackpoint>
          <Trackpoint>
            <Time>2021-07-17T12:14:47.000Z</Time>
            <Position>
              <LatitudeDegrees>42.71832198835909366607666015625</LatitudeDegrees>
              <LongitudeDegrees>-0.2261571586132049560546875</LongitudeDegrees>
            </Position>
            <AltitudeMeters>1776.4000244140625</AltitudeMeters>
            <DistanceMeters>7183.4365629128</DistanceMeters>
          </Trackpoint>
          <Trackpoint>
            <Time>2021-07-17T12:14:48.000Z</Time>
            <Position>
              <LatitudeDegrees>42.71832198835909366607666015625</LatitudeDegrees>
              <LongitudeDegrees>-0.2261571586132049560546875</LongitudeDegrees>
            </Position>
            <AltitudeMeters>1776.4000244140625</AltitudeMeters>
            <DistanceMeters>7183.4365629128</DistanceMeters>
          </Trackpoint>
          <Trackpoint>
            <Time>2021-07-17T12:14:52.000Z</Time>
            <Position>
              <LatitudeDegrees>42.71832198835909366607666015625</LatitudeDegrees>
              <LongitudeDegrees>-0.2261571586132049560546875</LongitudeDegrees>
            </Position>
            <AltitudeMeters>1776.4000244140625</AltitudeMeters>
            <DistanceMeters>7183.4365629128</DistanceMeters>
          </Trackpoint>
          <Trackpoint>
            <Time>2021-07-17T12:14:57.000Z</Time>
            <Position>
              <LatitudeDegrees>42.7183224074542522430419921875</LatitudeDegrees>
              <LongitudeDegrees>-0.2261603437364101409912109375</LongitudeDegrees>
            </Position>
            <AltitudeMeters>1776.4000244140625</AltitudeMeters>
            <DistanceMeters>7183.7053390493</DistanceMeters>
          </Trackpoint>
          <Trackpoint>
            <Time>2021-07-17T12:15:07.000Z</Time>
            <Position>
              <LatitudeDegrees>42.7183254249393939971923828125</LatitudeDegrees>
              <LongitudeDegrees>-0.226167552173137664794921875</LongitudeDegrees>
            </Position>
            <AltitudeMeters>1776.4000244140625</AltitudeMeters>
            <DistanceMeters>7184.3772793905</DistanceMeters>
          </Trackpoint>
          <Trackpoint>
            <Time>2021-07-17T12:15:27.000Z</Time>
            <Position>
              <LatitudeDegrees>42.718336321413516998291015625</LatitudeDegrees>
              <LongitudeDegrees>-0.2261821366846561431884765625</LongitudeDegrees>
            </Position>
            <AltitudeMeters>1776.4000244140625</AltitudeMeters>
            <DistanceMeters>7186.082472815</DistanceMeters>
          </Trackpoint>
          <Trackpoint>
            <Time>2021-07-17T12:15:32.000Z</Time>
            <Position>
              <LatitudeDegrees>42.7183378301560878753662109375</LatitudeDegrees>
              <LongitudeDegrees>-0.22618540562689304351806640625</LongitudeDegrees>
            </Position>
            <AltitudeMeters>1776.4000244140625</AltitudeMeters>
            <DistanceMeters>7186.4116550097</DistanceMeters>
          </Trackpoint>
          <Trackpoint>
            <Time>2021-07-17T12:15:34.000Z</Time>
            <Position>
              <LatitudeDegrees>42.71833841688930988311767578125</LatitudeDegrees>
              <LongitudeDegrees>-0.22618624381721019744873046875</LongitudeDegrees>
            </Position>
            <AltitudeMeters>1776.4000244140625</AltitudeMeters>
            <DistanceMeters>7186.5066817241</DistanceMeters>
          </Trackpoint>
          <Trackpoint>
            <Time>2021-07-17T12:15:47.000Z</Time>
            <Position>
              <LatitudeDegrees>42.71833841688930988311767578125</LatitudeDegrees>
              <LongitudeDegrees>-0.2261898480355739593505859375</LongitudeDegrees>
            </Position>
            <AltitudeMeters>1776.4000244140625</AltitudeMeters>
            <DistanceMeters>7186.7917618672</DistanceMeters>
          </Trackpoint>
          <Trackpoint>
            <Time>2021-07-17T12:16:07.000Z</Time>
            <Position>
              <LatitudeDegrees>42.7183368243277072906494140625</LatitudeDegrees>
              <LongitudeDegrees>-0.22618775255978107452392578125</LongitudeDegrees>
            </Position>
            <AltitudeMeters>1776.4000244140625</AltitudeMeters>
            <DistanceMeters>7187.0245288293</DistanceMeters>
          </Trackpoint>
          <Trackpoint>
            <Time>2021-07-17T12:16:15.000Z</Time>
            <Position>
              <LatitudeDegrees>42.71833623759448528289794921875</LatitudeDegrees>
              <LongitudeDegrees>-0.22618758492171764373779296875</LongitudeDegrees>
            </Position>
            <AltitudeMeters>1776.4000244140625</AltitudeMeters>
            <DistanceMeters>7187.0245288293</DistanceMeters>
          </Trackpoint>
          <Trackpoint>
            <Time>2021-07-17T12:16:43.000Z</Time>
            <Position>
              <LatitudeDegrees>42.7183348126709461212158203125</LatitudeDegrees>
              <LongitudeDegrees>-0.226192362606525421142578125</LongitudeDegrees>
            </Position>
            <AltitudeMeters>1776.199951171875</AltitudeMeters>
            <DistanceMeters>7187.4387406742</DistanceMeters>
          </Trackpoint>
          <Trackpoint>
            <Time>2021-07-17T12:17:21.000Z</Time>
            <Position>
              <LatitudeDegrees>42.7183311246335506439208984375</LatitudeDegrees>
              <LongitudeDegrees>-0.22618624381721019744873046875</LongitudeDegrees>
            </Position>
            <AltitudeMeters>1776.199951171875</AltitudeMeters>
            <DistanceMeters>7188.0832432083</DistanceMeters>
          </Trackpoint>
          <Trackpoint>
            <Time>2021-07-17T12:17:31.000Z</Time>
            <Position>
              <LatitudeDegrees>42.71833137609064579010009765625</LatitudeDegrees>
              <LongitudeDegrees>-0.22618171758949756622314453125</LongitudeDegrees>
            </Position>
            <AltitudeMeters>1776.4000244140625</AltitudeMeters>
            <DistanceMeters>7188.4633500658</DistanceMeters>
          </Trackpoint>
          <Trackpoint>
            <Time>2021-07-17T12:17:55.000Z</Time>
            <Position>
              <LatitudeDegrees>42.71833129227161407470703125</LatitudeDegrees>
              <LongitudeDegrees>-0.22618196904659271240234375</LongitudeDegrees>
            </Position>
            <AltitudeMeters>1776.4000244140625</AltitudeMeters>
            <DistanceMeters>7188.4633500658</DistanceMeters>
          </Trackpoint>
          <Trackpoint>
            <Time>2021-07-17T12:17:58.000Z</Time>
            <Position>
              <LatitudeDegrees>42.7183311246335506439208984375</LatitudeDegrees>
              <LongitudeDegrees>-0.2261838130652904510498046875</LongitudeDegrees>
            </Position>
            <AltitudeMeters>1776.199951171875</AltitudeMeters>
            <DistanceMeters>7188.6279411631</DistanceMeters>
          </Trackpoint>
          <Trackpoint>
            <Time>2021-07-17T12:18:01.000Z</Time>
            <Position>
              <LatitudeDegrees>42.71833120845258235931396484375</LatitudeDegrees>
              <LongitudeDegrees>-0.22618523798882961273193359375</LongitudeDegrees>
            </Position>
            <AltitudeMeters>1776.199951171875</AltitudeMeters>
            <DistanceMeters>7188.7623292314</DistanceMeters>
          </Trackpoint>
          <Trackpoint>
            <Time>2021-07-17T12:18:17.000Z</Time>
            <Position>
              <LatitudeDegrees>42.71833120845258235931396484375</LatitudeDegrees>
              <LongitudeDegrees>-0.2261861599981784820556640625</LongitudeDegrees>
            </Position>
            <AltitudeMeters>1776.199951171875</AltitudeMeters>
            <DistanceMeters>7188.8573559458</DistanceMeters>
          </Trackpoint>
          <Trackpoint>
            <Time>2021-07-17T12:18:46.000Z</Time>
            <Position>
              <LatitudeDegrees>42.71833129227161407470703125</LatitudeDegrees>
              <LongitudeDegrees>-0.2261868305504322052001953125</LongitudeDegrees>
            </Position>
            <AltitudeMeters>1776.199951171875</AltitudeMeters>
            <DistanceMeters>7188.9523826601</DistanceMeters>
          </Trackpoint>
          <Trackpoint>
            <Time>2021-07-17T12:19:28.000Z</Time>
            <Position>
              <LatitudeDegrees>42.7183311246335506439208984375</LatitudeDegrees>
              <LongitudeDegrees>-0.22618758492171764373779296875</LongitudeDegrees>
            </Position>
            <AltitudeMeters>1776.199951171875</AltitudeMeters>
            <DistanceMeters>7189.0474093745</DistanceMeters>
          </Trackpoint>
          <Trackpoint>
            <Time>2021-07-17T12:19:56.000Z</Time>
            <Position>
              <LatitudeDegrees>42.71833087317645549774169921875</LatitudeDegrees>
              <LongitudeDegrees>-0.22618775255978107452392578125</LongitudeDegrees>
            </Position>
            <AltitudeMeters>1776.199951171875</AltitudeMeters>
            <DistanceMeters>7189.0474093745</DistanceMeters>
          </Trackpoint>
          <Trackpoint>
            <Time>2021-07-17T12:20:09.000Z</Time>
            <Position>
              <LatitudeDegrees>42.718330956995487213134765625</LatitudeDegrees>
              <LongitudeDegrees>-0.22618775255978107452392578125</LongitudeDegrees>
            </Position>
            <AltitudeMeters>1776.199951171875</AltitudeMeters>
            <DistanceMeters>7189.0474093745</DistanceMeters>
          </Trackpoint>
          <Trackpoint>
            <Time>2021-07-17T12:20:11.000Z</Time>
            <Position>
              <LatitudeDegrees>42.718330956995487213134765625</LatitudeDegrees>
              <LongitudeDegrees>-0.2261878363788127899169921875</LongitudeDegrees>
            </Position>
            <AltitudeMeters>1776.199951171875</AltitudeMeters>
            <DistanceMeters>7189.0474093745</DistanceMeters>
          </Trackpoint>
          <Trackpoint>
            <Time>2021-07-17T12:20:18.000Z</Time>
            <Position>
              <LatitudeDegrees>42.7183311246335506439208984375</LatitudeDegrees>
              <LongitudeDegrees>-0.2261878363788127899169921875</LongitudeDegrees>
            </Position>
            <AltitudeMeters>1776.199951171875</AltitudeMeters>
            <DistanceMeters>7189.1424360889</DistanceMeters>
          </Trackpoint>
          <Trackpoint>
            <Time>2021-07-17T12:20:20.000Z</Time>
            <Position>
              <LatitudeDegrees>42.71833120845258235931396484375</LatitudeDegrees>
              <LongitudeDegrees>-0.2261878363788127899169921875</LongitudeDegrees>
            </Position>
            <AltitudeMeters>1776.199951171875</AltitudeMeters>
            <DistanceMeters>7189.1424360889</DistanceMeters>
          </Trackpoint>
          <Trackpoint>
            <Time>2021-07-17T12:20:27.000Z</Time>
            <Position>
              <LatitudeDegrees>42.71833129227161407470703125</LatitudeDegrees>
              <LongitudeDegrees>-0.22618792019784450531005859375</LongitudeDegrees>
            </Position>
            <AltitudeMeters>1776.199951171875</AltitudeMeters>
            <DistanceMeters>7189.1424360889</DistanceMeters>
          </Trackpoint>
          <Trackpoint>
            <Time>2021-07-17T12:20:31.000Z</Time>
            <Position>
              <LatitudeDegrees>42.71833137609064579010009765625</LatitudeDegrees>
              <LongitudeDegrees>-0.22618792019784450531005859375</LongitudeDegrees>
            </Position>
            <AltitudeMeters>1776.199951171875</AltitudeMeters>
            <DistanceMeters>7189.1424360889</DistanceMeters>
          </Trackpoint>
          <Trackpoint>
            <Time>2021-07-17T12:20:42.000Z</Time>
            <Position>
              <LatitudeDegrees>42.718331627547740936279296875</LatitudeDegrees>
              <LongitudeDegrees>-0.226188004016876220703125</LongitudeDegrees>
            </Position>
            <AltitudeMeters>1776.199951171875</AltitudeMeters>
            <DistanceMeters>7189.1424360889</DistanceMeters>
          </Trackpoint>
          <Trackpoint>
            <Time>2021-07-17T12:21:03.000Z</Time>
            <Position>
              <LatitudeDegrees>42.71833171136677265167236328125</LatitudeDegrees>
              <LongitudeDegrees>-0.22618808783590793609619140625</LongitudeDegrees>
            </Position>
            <AltitudeMeters>1776.199951171875</AltitudeMeters>
            <DistanceMeters>7189.1424360889</DistanceMeters>
          </Trackpoint>
          <Trackpoint>
            <Time>2021-07-17T12:21:13.000Z</Time>
            <Position>
              <LatitudeDegrees>42.71833171136677265167236328125</LatitudeDegrees>
              <LongitudeDegrees>-0.2261881716549396514892578125</LongitudeDegrees>
            </Position>
            <AltitudeMeters>1776.199951171875</AltitudeMeters>
            <DistanceMeters>7189.2374628032</DistanceMeters>
          </Trackpoint>
          <Trackpoint>
            <Time>2021-07-17T12:21:34.000Z</Time>
            <Position>
              <LatitudeDegrees>42.7183317951858043670654296875</LatitudeDegrees>
              <LongitudeDegrees>-0.22618842311203479766845703125</LongitudeDegrees>
            </Position>
            <AltitudeMeters>1776.199951171875</AltitudeMeters>
            <DistanceMeters>7189.2374628032</DistanceMeters>
          </Trackpoint>
          <Trackpoint>
            <Time>2021-07-17T12:21:47.000Z</Time>
            <Position>
              <LatitudeDegrees>42.7183319628238677978515625</LatitudeDegrees>
              <LongitudeDegrees>-0.22618859075009822845458984375</LongitudeDegrees>
            </Position>
            <AltitudeMeters>1776.199951171875</AltitudeMeters>
            <DistanceMeters>7189.2374628032</DistanceMeters>
          </Trackpoint>
          <Trackpoint>
            <Time>2021-07-17T12:21:49.000Z</Time>
            <Position>
              <LatitudeDegrees>42.7183319628238677978515625</LatitudeDegrees>
              <LongitudeDegrees>-0.22618859075009822845458984375</LongitudeDegrees>
            </Position>
            <AltitudeMeters>1776.199951171875</AltitudeMeters>
            <DistanceMeters>7189.2374628032</DistanceMeters>
          </Trackpoint>
          <Trackpoint>
            <Time>2021-07-17T12:21:52.000Z</Time>
            <Position>
              <LatitudeDegrees>42.71833204664289951324462890625</LatitudeDegrees>
              <LongitudeDegrees>-0.22618867456912994384765625</LongitudeDegrees>
            </Position>
            <AltitudeMeters>1776.199951171875</AltitudeMeters>
            <DistanceMeters>7189.2374628032</DistanceMeters>
          </Trackpoint>
          <Trackpoint>
            <Time>2021-07-17T12:21:55.000Z</Time>
            <Position>
              <LatitudeDegrees>42.71833204664289951324462890625</LatitudeDegrees>
              <LongitudeDegrees>-0.22618867456912994384765625</LongitudeDegrees>
            </Position>
            <AltitudeMeters>1776.199951171875</AltitudeMeters>
            <DistanceMeters>7189.2374628032</DistanceMeters>
          </Trackpoint>
          <Trackpoint>
            <Time>2021-07-17T12:21:57.000Z</Time>
            <Position>
              <LatitudeDegrees>42.71833204664289951324462890625</LatitudeDegrees>
              <LongitudeDegrees>-0.22618875838816165924072265625</LongitudeDegrees>
            </Position>
            <AltitudeMeters>1776.199951171875</AltitudeMeters>
            <DistanceMeters>7189.2374628032</DistanceMeters>
          </Trackpoint>
          <Trackpoint>
            <Time>2021-07-17T12:22:01.000Z</Time>
            <Position>
              <LatitudeDegrees>42.71833204664289951324462890625</LatitudeDegrees>
              <LongitudeDegrees>-0.22618875838816165924072265625</LongitudeDegrees>
            </Position>
            <AltitudeMeters>1776.199951171875</AltitudeMeters>
            <DistanceMeters>7189.2374628032</DistanceMeters>
          </Trackpoint>
          <Trackpoint>
            <Time>2021-07-17T12:22:12.000Z</Time>
            <Position>
              <LatitudeDegrees>42.7183319628238677978515625</LatitudeDegrees>
              <LongitudeDegrees>-0.2261888422071933746337890625</LongitudeDegrees>
            </Position>
            <AltitudeMeters>1776.199951171875</AltitudeMeters>
            <DistanceMeters>7189.2374628032</DistanceMeters>
          </Trackpoint>
          <Trackpoint>
            <Time>2021-07-17T12:22:31.000Z</Time>
            <Position>
              <LatitudeDegrees>42.71833154372870922088623046875</LatitudeDegrees>
              <LongitudeDegrees>-0.22618909366428852081298828125</LongitudeDegrees>
            </Position>
            <AltitudeMeters>1776.199951171875</AltitudeMeters>
            <DistanceMeters>7189.3324895176</DistanceMeters>
          </Trackpoint>
          <Trackpoint>
            <Time>2021-07-17T12:22:51.000Z</Time>
            <Position>
              <LatitudeDegrees>42.7183311246335506439208984375</LatitudeDegrees>
              <LongitudeDegrees>-0.2261895127594470977783203125</LongitudeDegrees>
            </Position>
            <AltitudeMeters>1776.199951171875</AltitudeMeters>
            <DistanceMeters>7189.4668775859</DistanceMeters>
          </Trackpoint>
          <Trackpoint>
            <Time>2021-07-17T12:23:00.000Z</Time>
            <Position>
              <LatitudeDegrees>42.71833104081451892852783203125</LatitudeDegrees>
              <LongitudeDegrees>-0.22618976421654224395751953125</LongitudeDegrees>
            </Position>
            <AltitudeMeters>1776.199951171875</AltitudeMeters>
            <DistanceMeters>7189.4668775859</DistanceMeters>
          </Trackpoint>
          <Trackpoint>
            <Time>2021-07-17T12:23:08.000Z</Time>
            <Position>
              <LatitudeDegrees>42.71833104081451892852783203125</LatitudeDegrees>
              <LongitudeDegrees>-0.2261898480355739593505859375</LongitudeDegrees>
            </Position>
            <AltitudeMeters>1776.199951171875</AltitudeMeters>
            <DistanceMeters>7189.4668775859</DistanceMeters>
          </Trackpoint>
          <Trackpoint>
            <Time>2021-07-17T12:23:31.000Z</Time>
            <Position>
              <LatitudeDegrees>42.71833137609064579010009765625</LatitudeDegrees>
              <LongitudeDegrees>-0.2261898480355739593505859375</LongitudeDegrees>
            </Position>
            <AltitudeMeters>1776.199951171875</AltitudeMeters>
            <DistanceMeters>7189.4668775859</DistanceMeters>
          </Trackpoint>
          <Trackpoint>
            <Time>2021-07-17T12:23:49.000Z</Time>
            <Position>
              <LatitudeDegrees>42.718331627547740936279296875</LatitudeDegrees>
              <LongitudeDegrees>-0.22619009949266910552978515625</LongitudeDegrees>
            </Position>
            <AltitudeMeters>1776.199951171875</AltitudeMeters>
            <DistanceMeters>7189.4668775859</DistanceMeters>
          </Trackpoint>
          <Trackpoint>
            <Time>2021-07-17T12:24:29.000Z</Time>
            <Position>
              <LatitudeDegrees>42.718332298099994659423828125</LatitudeDegrees>
              <LongitudeDegrees>-0.226191021502017974853515625</LongitudeDegrees>
            </Position>
            <AltitudeMeters>1776.199951171875</AltitudeMeters>
            <DistanceMeters>7189.5619043002</DistanceMeters>
          </Trackpoint>
          <Trackpoint>
            <Time>2021-07-17T12:24:37.000Z</Time>
            <Position>
              <LatitudeDegrees>42.7183324657380580902099609375</LatitudeDegrees>
              <LongitudeDegrees>-0.2261911891400814056396484375</LongitudeDegrees>
            </Position>
            <AltitudeMeters>1776.199951171875</AltitudeMeters>
            <DistanceMeters>7189.5619043002</DistanceMeters>
          </Trackpoint>
          <Trackpoint>
            <Time>2021-07-17T12:25:00.000Z</Time>
            <Position>
              <LatitudeDegrees>42.718332968652248382568359375</LatitudeDegrees>
              <LongitudeDegrees>-0.22619177587330341339111328125</LongitudeDegrees>
            </Position>
            <AltitudeMeters>1776.199951171875</AltitudeMeters>
            <DistanceMeters>7189.5619043002</DistanceMeters>
          </Trackpoint>
          <Trackpoint>
            <Time>2021-07-17T12:25:04.000Z</Time>
            <Position>
              <LatitudeDegrees>42.7183331362903118133544921875</LatitudeDegrees>
              <LongitudeDegrees>-0.2261918596923351287841796875</LongitudeDegrees>
            </Position>
            <AltitudeMeters>1776.199951171875</AltitudeMeters>
            <DistanceMeters>7189.5619043002</DistanceMeters>
          </Trackpoint>
          <Trackpoint>
            <Time>2021-07-17T12:25:11.000Z</Time>
            <Position>
              <LatitudeDegrees>42.718333303928375244140625</LatitudeDegrees>
              <LongitudeDegrees>-0.22619211114943027496337890625</LongitudeDegrees>
            </Position>
            <AltitudeMeters>1776.199951171875</AltitudeMeters>
            <DistanceMeters>7189.5619043002</DistanceMeters>
          </Trackpoint>
          <Trackpoint>
            <Time>2021-07-17T12:25:23.000Z</Time>
            <Position>
              <LatitudeDegrees>42.718333639204502105712890625</LatitudeDegrees>
              <LongitudeDegrees>-0.2261925302445888519287109375</LongitudeDegrees>
            </Position>
            <AltitudeMeters>1776.199951171875</AltitudeMeters>
            <DistanceMeters>7189.5619043002</DistanceMeters>
          </Trackpoint>
          <Trackpoint>
            <Time>2021-07-17T12:25:35.000Z</Time>
            <Position>
              <LatitudeDegrees>42.71833397448062896728515625</LatitudeDegrees>
              <LongitudeDegrees>-0.22619278170168399810791015625</LongitudeDegrees>
            </Position>
            <AltitudeMeters>1776.199951171875</AltitudeMeters>
            <DistanceMeters>7189.5619043002</DistanceMeters>
          </Trackpoint>
          <Trackpoint>
            <Time>2021-07-17T12:26:07.000Z</Time>
            <Position>
              <LatitudeDegrees>42.718334980309009552001953125</LatitudeDegrees>
              <LongitudeDegrees>-0.226193033158779144287109375</LongitudeDegrees>
            </Position>
            <AltitudeMeters>1776.199951171875</AltitudeMeters>
            <DistanceMeters>7189.6569310146</DistanceMeters>
          </Trackpoint>
          <Trackpoint>
            <Time>2021-07-17T12:26:48.000Z</Time>
            <Position>
              <LatitudeDegrees>42.71833598613739013671875</LatitudeDegrees>
              <LongitudeDegrees>-0.2261928655207157135009765625</LongitudeDegrees>
            </Position>
            <AltitudeMeters>1776.199951171875</AltitudeMeters>
            <DistanceMeters>7189.7913190828</DistanceMeters>
          </Trackpoint>
          <Trackpoint>
            <Time>2021-07-17T12:26:50.000Z</Time>
            <Position>
              <LatitudeDegrees>42.71833606995642185211181640625</LatitudeDegrees>
              <LongitudeDegrees>-0.2261928655207157135009765625</LongitudeDegrees>
            </Position>
            <AltitudeMeters>1776.199951171875</AltitudeMeters>
            <DistanceMeters>7189.7913190828</DistanceMeters>
          </Trackpoint>
          <Trackpoint>
            <Time>2021-07-17T12:26:56.000Z</Time>
            <Position>
              <LatitudeDegrees>42.7183361537754535675048828125</LatitudeDegrees>
              <LongitudeDegrees>-0.2261928655207157135009765625</LongitudeDegrees>
            </Position>
            <AltitudeMeters>1776.199951171875</AltitudeMeters>
            <DistanceMeters>7189.7913190828</DistanceMeters>
          </Trackpoint>
          <Trackpoint>
            <Time>2021-07-17T12:27:04.000Z</Time>
            <Position>
              <LatitudeDegrees>42.718336321413516998291015625</LatitudeDegrees>
              <LongitudeDegrees>-0.2261928655207157135009765625</LongitudeDegrees>
            </Position>
            <AltitudeMeters>1776.199951171875</AltitudeMeters>
            <DistanceMeters>7189.7913190828</DistanceMeters>
          </Trackpoint>
          <Trackpoint>
            <Time>2021-07-17T12:27:24.000Z</Time>
            <Position>
              <LatitudeDegrees>42.71833665668964385986328125</LatitudeDegrees>
              <LongitudeDegrees>-0.22619261406362056732177734375</LongitudeDegrees>
            </Position>
            <AltitudeMeters>1776.4000244140625</AltitudeMeters>
            <DistanceMeters>7189.8863457972</DistanceMeters>
          </Trackpoint>
          <Trackpoint>
            <Time>2021-07-17T12:27:52.000Z</Time>
            <Position>
              <LatitudeDegrees>42.7183374948799610137939453125</LatitudeDegrees>
              <LongitudeDegrees>-0.2261918596923351287841796875</LongitudeDegrees>
            </Position>
            <AltitudeMeters>1776.4000244140625</AltitudeMeters>
            <DistanceMeters>7190.0207338655</DistanceMeters>
          </Trackpoint>
          <Trackpoint>
            <Time>2021-07-17T12:28:04.000Z</Time>
            <Position>
              <LatitudeDegrees>42.71833791397511959075927734375</LatitudeDegrees>
              <LongitudeDegrees>-0.2261915244162082672119140625</LongitudeDegrees>
            </Position>
            <AltitudeMeters>1776.4000244140625</AltitudeMeters>
            <DistanceMeters>7190.0207338655</DistanceMeters>
          </Trackpoint>
          <Trackpoint>
            <Time>2021-07-17T12:28:07.000Z</Time>
            <Position>
              <LatitudeDegrees>42.71833799779415130615234375</LatitudeDegrees>
              <LongitudeDegrees>-0.22619144059717655181884765625</LongitudeDegrees>
            </Position>
            <AltitudeMeters>1776.4000244140625</AltitudeMeters>
            <DistanceMeters>7190.0207338655</DistanceMeters>
          </Trackpoint>
          <Trackpoint>
            <Time>2021-07-17T12:28:19.000Z</Time>
            <Position>
              <LatitudeDegrees>42.71833841688930988311767578125</LatitudeDegrees>
              <LongitudeDegrees>-0.22619110532104969024658203125</LongitudeDegrees>
            </Position>
            <AltitudeMeters>1776.4000244140625</AltitudeMeters>
            <DistanceMeters>7190.0207338655</DistanceMeters>
          </Trackpoint>
          <Trackpoint>
            <Time>2021-07-17T12:28:39.000Z</Time>
            <Position>
              <LatitudeDegrees>42.71833875216543674468994140625</LatitudeDegrees>
              <LongitudeDegrees>-0.22619009949266910552978515625</LongitudeDegrees>
            </Position>
            <AltitudeMeters>1776.4000244140625</AltitudeMeters>
            <DistanceMeters>7190.1157605798</DistanceMeters>
          </Trackpoint>
          <Trackpoint>
            <Time>2021-07-17T12:28:40.000Z</Time>
            <Position>
              <LatitudeDegrees>42.71833875216543674468994140625</LatitudeDegrees>
              <LongitudeDegrees>-0.22619009949266910552978515625</LongitudeDegrees>
            </Position>
            <AltitudeMeters>1776.4000244140625</AltitudeMeters>
            <DistanceMeters>7190.1157605798</DistanceMeters>
          </Trackpoint>
          <Trackpoint>
            <Time>2021-07-17T12:28:47.000Z</Time>
            <Position>
              <LatitudeDegrees>42.71833875216543674468994140625</LatitudeDegrees>
              <LongitudeDegrees>-0.226189680397510528564453125</LongitudeDegrees>
            </Position>
            <AltitudeMeters>1776.4000244140625</AltitudeMeters>
            <DistanceMeters>7190.1157605798</DistanceMeters>
          </Trackpoint>
          <Trackpoint>
            <Time>2021-07-17T12:28:57.000Z</Time>
            <Position>
              <LatitudeDegrees>42.71833875216543674468994140625</LatitudeDegrees>
              <LongitudeDegrees>-0.2261893451213836669921875</LongitudeDegrees>
            </Position>
            <AltitudeMeters>1776.4000244140625</AltitudeMeters>
            <DistanceMeters>7190.1157605798</DistanceMeters>
          </Trackpoint>
          <Trackpoint>
            <Time>2021-07-17T12:29:00.000Z</Time>
            <Position>
              <LatitudeDegrees>42.71833875216543674468994140625</LatitudeDegrees>
              <LongitudeDegrees>-0.22618926130235195159912109375</LongitudeDegrees>
            </Position>
            <AltitudeMeters>1776.4000244140625</AltitudeMeters>
            <DistanceMeters>7190.1157605798</DistanceMeters>
          </Trackpoint>
          <Trackpoint>
            <Time>2021-07-17T12:29:05.000Z</Time>
            <Position>
              <LatitudeDegrees>42.718338668346405029296875</LatitudeDegrees>
              <LongitudeDegrees>-0.22618909366428852081298828125</LongitudeDegrees>
            </Position>
            <AltitudeMeters>1776.4000244140625</AltitudeMeters>
            <DistanceMeters>7190.1157605798</DistanceMeters>
          </Trackpoint>
          <Trackpoint>
            <Time>2021-07-17T12:29:23.000Z</Time>
            <Position>
              <LatitudeDegrees>42.71833875216543674468994140625</LatitudeDegrees>
              <LongitudeDegrees>-0.22618867456912994384765625</LongitudeDegrees>
            </Position>
            <AltitudeMeters>1776.4000244140625</AltitudeMeters>
            <DistanceMeters>7190.1157605798</DistanceMeters>
          </Trackpoint>
          <Trackpoint>
            <Time>2021-07-17T12:29:26.000Z</Time>
            <Position>
              <LatitudeDegrees>42.71833875216543674468994140625</LatitudeDegrees>
              <LongitudeDegrees>-0.22618859075009822845458984375</LongitudeDegrees>
            </Position>
            <AltitudeMeters>1776.4000244140625</AltitudeMeters>
            <DistanceMeters>7190.1157605798</DistanceMeters>
          </Trackpoint>
          <Trackpoint>
            <Time>2021-07-17T12:29:28.000Z</Time>
            <Position>
              <LatitudeDegrees>42.71833875216543674468994140625</LatitudeDegrees>
              <LongitudeDegrees>-0.2261885069310665130615234375</LongitudeDegrees>
            </Position>
            <AltitudeMeters>1776.4000244140625</AltitudeMeters>
            <DistanceMeters>7190.1157605798</DistanceMeters>
          </Trackpoint>
          <Trackpoint>
            <Time>2021-07-17T12:29:36.000Z</Time>
            <Position>
              <LatitudeDegrees>42.71833875216543674468994140625</LatitudeDegrees>
              <LongitudeDegrees>-0.226188339293003082275390625</LongitudeDegrees>
            </Position>
            <AltitudeMeters>1776.4000244140625</AltitudeMeters>
            <DistanceMeters>7190.1157605798</DistanceMeters>
          </Trackpoint>
          <Trackpoint>
            <Time>2021-07-17T12:29:38.000Z</Time>
            <Position>
              <LatitudeDegrees>42.71833875216543674468994140625</LatitudeDegrees>
              <LongitudeDegrees>-0.226188339293003082275390625</LongitudeDegrees>
            </Position>
            <AltitudeMeters>1776.4000244140625</AltitudeMeters>
            <DistanceMeters>7190.1157605798</DistanceMeters>
          </Trackpoint>
          <Trackpoint>
            <Time>2021-07-17T12:30:03.000Z</Time>
            <Position>
              <LatitudeDegrees>42.71833824925124645233154296875</LatitudeDegrees>
              <LongitudeDegrees>-0.22618875838816165924072265625</LongitudeDegrees>
            </Position>
            <AltitudeMeters>1776.4000244140625</AltitudeMeters>
            <DistanceMeters>7190.1157605798</DistanceMeters>
          </Trackpoint>
          <Trackpoint>
            <Time>2021-07-17T12:30:05.000Z</Time>
            <Position>
              <LatitudeDegrees>42.71833824925124645233154296875</LatitudeDegrees>
              <LongitudeDegrees>-0.2261888422071933746337890625</LongitudeDegrees>
            </Position>
            <AltitudeMeters>1776.4000244140625</AltitudeMeters>
            <DistanceMeters>7190.1157605798</DistanceMeters>
          </Trackpoint>
          <Trackpoint>
            <Time>2021-07-17T12:30:09.000Z</Time>
            <Position>
              <LatitudeDegrees>42.7183381654322147369384765625</LatitudeDegrees>
              <LongitudeDegrees>-0.22618892602622509002685546875</LongitudeDegrees>
            </Position>
            <AltitudeMeters>1776.4000244140625</AltitudeMeters>
            <DistanceMeters>7190.1157605798</DistanceMeters>
          </Trackpoint>
          <Trackpoint>
            <Time>2021-07-17T12:30:15.000Z</Time>
            <Position>
              <LatitudeDegrees>42.71833808161318302154541015625</LatitudeDegrees>
              <LongitudeDegrees>-0.22618892602622509002685546875</LongitudeDegrees>
            </Position>
            <AltitudeMeters>1776.4000244140625</AltitudeMeters>
            <DistanceMeters>7190.1157605798</DistanceMeters>
          </Trackpoint>
          <Trackpoint>
            <Time>2021-07-17T12:30:22.000Z</Time>
            <Position>
              <LatitudeDegrees>42.71833808161318302154541015625</LatitudeDegrees>
              <LongitudeDegrees>-0.2261888422071933746337890625</LongitudeDegrees>
            </Position>
            <AltitudeMeters>1776.4000244140625</AltitudeMeters>
            <DistanceMeters>7190.1157605798</DistanceMeters>
          </Trackpoint>
          <Trackpoint>
            <Time>2021-07-17T12:30:28.000Z</Time>
            <Position>
              <LatitudeDegrees>42.71833808161318302154541015625</LatitudeDegrees>
              <LongitudeDegrees>-0.22618867456912994384765625</LongitudeDegrees>
            </Position>
            <AltitudeMeters>1776.4000244140625</AltitudeMeters>
            <DistanceMeters>7190.1157605798</DistanceMeters>
          </Trackpoint>
          <Trackpoint>
            <Time>2021-07-17T12:30:31.000Z</Time>
            <Position>
              <LatitudeDegrees>42.71833808161318302154541015625</LatitudeDegrees>
              <LongitudeDegrees>-0.22618859075009822845458984375</LongitudeDegrees>
            </Position>
            <AltitudeMeters>1776.4000244140625</AltitudeMeters>
            <DistanceMeters>7190.1157605798</DistanceMeters>
          </Trackpoint>
          <Trackpoint>
            <Time>2021-07-17T12:30:35.000Z</Time>
            <Position>
              <LatitudeDegrees>42.71833808161318302154541015625</LatitudeDegrees>
              <LongitudeDegrees>-0.22618842311203479766845703125</LongitudeDegrees>
            </Position>
            <AltitudeMeters>1776.4000244140625</AltitudeMeters>
            <DistanceMeters>7190.1157605798</DistanceMeters>
          </Trackpoint>
          <Trackpoint>
            <Time>2021-07-17T12:30:43.000Z</Time>
            <Position>
              <LatitudeDegrees>42.71833808161318302154541015625</LatitudeDegrees>
              <LongitudeDegrees>-0.22618808783590793609619140625</LongitudeDegrees>
            </Position>
            <AltitudeMeters>1776.4000244140625</AltitudeMeters>
            <DistanceMeters>7190.1157605798</DistanceMeters>
          </Trackpoint>
          <Trackpoint>
            <Time>2021-07-17T12:30:53.000Z</Time>
            <Position>
              <LatitudeDegrees>42.7183381654322147369384765625</LatitudeDegrees>
              <LongitudeDegrees>-0.226187668740749359130859375</LongitudeDegrees>
            </Position>
            <AltitudeMeters>1776.4000244140625</AltitudeMeters>
            <DistanceMeters>7190.1157605798</DistanceMeters>
          </Trackpoint>
          <Trackpoint>
            <Time>2021-07-17T12:30:55.000Z</Time>
            <Position>
              <LatitudeDegrees>42.7183381654322147369384765625</LatitudeDegrees>
              <LongitudeDegrees>-0.22618758492171764373779296875</LongitudeDegrees>
            </Position>
            <AltitudeMeters>1776.4000244140625</AltitudeMeters>
            <DistanceMeters>7190.1157605798</DistanceMeters>
          </Trackpoint>
          <Trackpoint>
            <Time>2021-07-17T12:30:58.000Z</Time>
            <Position>
              <LatitudeDegrees>42.71833824925124645233154296875</LatitudeDegrees>
              <LongitudeDegrees>-0.2261875011026859283447265625</LongitudeDegrees>
            </Position>
            <AltitudeMeters>1776.4000244140625</AltitudeMeters>
            <DistanceMeters>7190.1157605798</DistanceMeters>
          </Trackpoint>
          <Trackpoint>
            <Time>2021-07-17T12:31:00.000Z</Time>
            <Position>
              <LatitudeDegrees>42.71833824925124645233154296875</LatitudeDegrees>
              <LongitudeDegrees>-0.2261875011026859283447265625</LongitudeDegrees>
            </Position>
            <AltitudeMeters>1776.4000244140625</AltitudeMeters>
            <DistanceMeters>7190.1157605798</DistanceMeters>
          </Trackpoint>
          <Trackpoint>
            <Time>2021-07-17T12:31:01.000Z</Time>
            <Position>
              <LatitudeDegrees>42.71833824925124645233154296875</LatitudeDegrees>
              <LongitudeDegrees>-0.2261875011026859283447265625</LongitudeDegrees>
            </Position>
            <AltitudeMeters>1776.4000244140625</AltitudeMeters>
            <DistanceMeters>7190.1157605798</DistanceMeters>
          </Trackpoint>
          <Trackpoint>
            <Time>2021-07-17T12:31:31.000Z</Time>
            <Position>
              <LatitudeDegrees>42.71833942271769046783447265625</LatitudeDegrees>
              <LongitudeDegrees>-0.226188004016876220703125</LongitudeDegrees>
            </Position>
            <AltitudeMeters>1776.4000244140625</AltitudeMeters>
            <DistanceMeters>7190.2501486481</DistanceMeters>
          </Trackpoint>
          <Trackpoint>
            <Time>2021-07-17T12:31:35.000Z</Time>
            <Position>
              <LatitudeDegrees>42.718339674174785614013671875</LatitudeDegrees>
              <LongitudeDegrees>-0.226188004016876220703125</LongitudeDegrees>
            </Position>
            <AltitudeMeters>1776.4000244140625</AltitudeMeters>
            <DistanceMeters>7190.2501486481</DistanceMeters>
          </Trackpoint>
          <Trackpoint>
            <Time>2021-07-17T12:31:37.000Z</Time>
            <Position>
              <LatitudeDegrees>42.7183398418128490447998046875</LatitudeDegrees>
              <LongitudeDegrees>-0.22618792019784450531005859375</LongitudeDegrees>
            </Position>
            <AltitudeMeters>1776.4000244140625</AltitudeMeters>
            <DistanceMeters>7190.2501486481</DistanceMeters>
          </Trackpoint>
          <Trackpoint>
            <Time>2021-07-17T12:31:48.000Z</Time>
            <Position>
              <LatitudeDegrees>42.7183401770889759063720703125</LatitudeDegrees>
              <LongitudeDegrees>-0.2261875011026859283447265625</LongitudeDegrees>
            </Position>
            <AltitudeMeters>1776.5999755859375</AltitudeMeters>
            <DistanceMeters>7190.2501486481</DistanceMeters>
          </Trackpoint>
          <Trackpoint>
            <Time>2021-07-17T12:31:50.000Z</Time>
            <Position>
              <LatitudeDegrees>42.7183401770889759063720703125</LatitudeDegrees>
              <LongitudeDegrees>-0.22618741728365421295166015625</LongitudeDegrees>
            </Position>
            <AltitudeMeters>1776.5999755859375</AltitudeMeters>
            <DistanceMeters>7190.2501486481</DistanceMeters>
          </Trackpoint>
          <Trackpoint>
            <Time>2021-07-17T12:32:26.000Z</Time>
            <Position>
              <LatitudeDegrees>42.71833858452737331390380859375</LatitudeDegrees>
              <LongitudeDegrees>-0.22618557326495647430419921875</LongitudeDegrees>
            </Position>
            <AltitudeMeters>1776.4000244140625</AltitudeMeters>
            <DistanceMeters>7190.4829156102</DistanceMeters>
          </Trackpoint>
          <Trackpoint>
            <Time>2021-07-17T12:32:39.000Z</Time>
            <Position>
              <LatitudeDegrees>42.71833774633705615997314453125</LatitudeDegrees>
              <LongitudeDegrees>-0.226185321807861328125</LongitudeDegrees>
            </Position>
            <AltitudeMeters>1776.4000244140625</AltitudeMeters>
            <DistanceMeters>7190.6173036785</DistanceMeters>
          </Trackpoint>
          <Trackpoint>
            <Time>2021-07-17T12:32:43.000Z</Time>
            <Position>
              <LatitudeDegrees>42.71833757869899272918701171875</LatitudeDegrees>
              <LongitudeDegrees>-0.22618523798882961273193359375</LongitudeDegrees>
            </Position>
            <AltitudeMeters>1776.4000244140625</AltitudeMeters>
            <DistanceMeters>7190.6173036785</DistanceMeters>
          </Trackpoint>
          <Trackpoint>
            <Time>2021-07-17T12:33:07.000Z</Time>
            <Position>
              <LatitudeDegrees>42.71833741106092929840087890625</LatitudeDegrees>
              <LongitudeDegrees>-0.2261851541697978973388671875</LongitudeDegrees>
            </Position>
            <AltitudeMeters>1776.4000244140625</AltitudeMeters>
            <DistanceMeters>7190.6173036785</DistanceMeters>
          </Trackpoint>
          <Trackpoint>
            <Time>2021-07-17T12:33:22.000Z</Time>
            <Position>
              <LatitudeDegrees>42.7183374948799610137939453125</LatitudeDegrees>
              <LongitudeDegrees>-0.2261851541697978973388671875</LongitudeDegrees>
            </Position>
            <AltitudeMeters>1776.4000244140625</AltitudeMeters>
            <DistanceMeters>7190.6173036785</DistanceMeters>
          </Trackpoint>
          <Trackpoint>
            <Time>2021-07-17T12:33:24.000Z</Time>
            <Position>
              <LatitudeDegrees>42.7183374948799610137939453125</LatitudeDegrees>
              <LongitudeDegrees>-0.2261851541697978973388671875</LongitudeDegrees>
            </Position>
            <AltitudeMeters>1776.4000244140625</AltitudeMeters>
            <DistanceMeters>7190.6173036785</DistanceMeters>
          </Trackpoint>
          <Trackpoint>
            <Time>2021-07-17T12:33:31.000Z</Time>
            <Position>
              <LatitudeDegrees>42.7183374948799610137939453125</LatitudeDegrees>
              <LongitudeDegrees>-0.22618523798882961273193359375</LongitudeDegrees>
            </Position>
            <AltitudeMeters>1776.4000244140625</AltitudeMeters>
            <DistanceMeters>7190.6173036785</DistanceMeters>
          </Trackpoint>
          <Trackpoint>
            <Time>2021-07-17T12:33:36.000Z</Time>
            <Position>
              <LatitudeDegrees>42.71833741106092929840087890625</LatitudeDegrees>
              <LongitudeDegrees>-0.22618523798882961273193359375</LongitudeDegrees>
            </Position>
            <AltitudeMeters>1776.4000244140625</AltitudeMeters>
            <DistanceMeters>7190.6173036785</DistanceMeters>
          </Trackpoint>
          <Trackpoint>
            <Time>2021-07-17T12:33:50.000Z</Time>
            <Position>
              <LatitudeDegrees>42.71833724342286586761474609375</LatitudeDegrees>
              <LongitudeDegrees>-0.22618540562689304351806640625</LongitudeDegrees>
            </Position>
            <AltitudeMeters>1776.4000244140625</AltitudeMeters>
            <DistanceMeters>7190.6173036785</DistanceMeters>
          </Trackpoint>
          <Trackpoint>
            <Time>2021-07-17T12:33:54.000Z</Time>
            <Position>
              <LatitudeDegrees>42.7183371596038341522216796875</LatitudeDegrees>
              <LongitudeDegrees>-0.22618557326495647430419921875</LongitudeDegrees>
            </Position>
            <AltitudeMeters>1776.4000244140625</AltitudeMeters>
            <DistanceMeters>7190.6173036785</DistanceMeters>
          </Trackpoint>
          <Trackpoint>
            <Time>2021-07-17T12:34:17.000Z</Time>
            <Position>
              <LatitudeDegrees>42.7183371596038341522216796875</LatitudeDegrees>
              <LongitudeDegrees>-0.2261868305504322052001953125</LongitudeDegrees>
            </Position>
            <AltitudeMeters>1776.4000244140625</AltitudeMeters>
            <DistanceMeters>7190.6173036785</DistanceMeters>
          </Trackpoint>
          <Trackpoint>
            <Time>2021-07-17T12:34:23.000Z</Time>
            <Position>
              <LatitudeDegrees>42.71833741106092929840087890625</LatitudeDegrees>
              <LongitudeDegrees>-0.22618708200752735137939453125</LongitudeDegrees>
            </Position>
            <AltitudeMeters>1776.4000244140625</AltitudeMeters>
            <DistanceMeters>7190.6173036785</DistanceMeters>
          </Trackpoint>
          <Trackpoint>
            <Time>2021-07-17T12:34:40.000Z</Time>
            <Position>
              <LatitudeDegrees>42.71833841688930988311767578125</LatitudeDegrees>
              <LongitudeDegrees>-0.2261881716549396514892578125</LongitudeDegrees>
            </Position>
            <AltitudeMeters>1776.4000244140625</AltitudeMeters>
            <DistanceMeters>7190.7516917467</DistanceMeters>
          </Trackpoint>
          <Trackpoint>
            <Time>2021-07-17T12:34:45.000Z</Time>
            <Position>
              <LatitudeDegrees>42.7183388359844684600830078125</LatitudeDegrees>
              <LongitudeDegrees>-0.22618867456912994384765625</LongitudeDegrees>
            </Position>
            <AltitudeMeters>1776.4000244140625</AltitudeMeters>
            <DistanceMeters>7190.7516917467</DistanceMeters>
          </Trackpoint>
          <Trackpoint>
            <Time>2021-07-17T12:34:48.000Z</Time>
            <Position>
              <LatitudeDegrees>42.71833908744156360626220703125</LatitudeDegrees>
              <LongitudeDegrees>-0.226189009845256805419921875</LongitudeDegrees>
            </Position>
            <AltitudeMeters>1776.4000244140625</AltitudeMeters>
            <DistanceMeters>7190.8467184611</DistanceMeters>
          </Trackpoint>
          <Trackpoint>
            <Time>2021-07-17T12:34:52.000Z</Time>
            <Position>
              <LatitudeDegrees>42.7183395065367221832275390625</LatitudeDegrees>
              <LongitudeDegrees>-0.22618959657847881317138671875</LongitudeDegrees>
            </Position>
            <AltitudeMeters>1776.4000244140625</AltitudeMeters>
            <DistanceMeters>7190.8467184611</DistanceMeters>
          </Trackpoint>
          <Trackpoint>
            <Time>2021-07-17T12:34:56.000Z</Time>
            <Position>
              <LatitudeDegrees>42.71833975799381732940673828125</LatitudeDegrees>
              <LongitudeDegrees>-0.22618993185460567474365234375</LongitudeDegrees>
            </Position>
            <AltitudeMeters>1776.4000244140625</AltitudeMeters>
            <DistanceMeters>7190.8467184611</DistanceMeters>
          </Trackpoint>
          <Trackpoint>
            <Time>2021-07-17T12:35:15.000Z</Time>
            <Position>
              <LatitudeDegrees>42.71834076382219791412353515625</LatitudeDegrees>
              <LongitudeDegrees>-0.22619093768298625946044921875</LongitudeDegrees>
            </Position>
            <AltitudeMeters>1776.4000244140625</AltitudeMeters>
            <DistanceMeters>7190.9811065293</DistanceMeters>
          </Trackpoint>
          <Trackpoint>
            <Time>2021-07-17T12:35:17.000Z</Time>
            <Position>
              <LatitudeDegrees>42.7183408476412296295166015625</LatitudeDegrees>
              <LongitudeDegrees>-0.226191021502017974853515625</LongitudeDegrees>
            </Position>
            <AltitudeMeters>1776.4000244140625</AltitudeMeters>
            <DistanceMeters>7191.0761332437</DistanceMeters>
          </Trackpoint>
          <Trackpoint>
            <Time>2021-07-17T12:35:50.000Z</Time>
            <Position>
              <LatitudeDegrees>42.718341015279293060302734375</LatitudeDegrees>
              <LongitudeDegrees>-0.22619135677814483642578125</LongitudeDegrees>
            </Position>
            <AltitudeMeters>1776.4000244140625</AltitudeMeters>
            <DistanceMeters>7191.1711599581</DistanceMeters>
          </Trackpoint>
          <Trackpoint>
            <Time>2021-07-17T12:35:52.000Z</Time>
            <Position>
              <LatitudeDegrees>42.71834093146026134490966796875</LatitudeDegrees>
              <LongitudeDegrees>-0.22619135677814483642578125</LongitudeDegrees>
            </Position>
            <AltitudeMeters>1776.4000244140625</AltitudeMeters>
            <DistanceMeters>7191.1711599581</DistanceMeters>
          </Trackpoint>
          <Trackpoint>
            <Time>2021-07-17T12:35:59.000Z</Time>
            <Position>
              <LatitudeDegrees>42.71834076382219791412353515625</LatitudeDegrees>
              <LongitudeDegrees>-0.22619144059717655181884765625</LongitudeDegrees>
            </Position>
            <AltitudeMeters>1776.4000244140625</AltitudeMeters>
            <DistanceMeters>7191.1711599581</DistanceMeters>
          </Trackpoint>
          <Trackpoint>
            <Time>2021-07-17T12:36:05.000Z</Time>
            <Position>
              <LatitudeDegrees>42.71834059618413448333740234375</LatitudeDegrees>
              <LongitudeDegrees>-0.22619144059717655181884765625</LongitudeDegrees>
            </Position>
            <AltitudeMeters>1776.4000244140625</AltitudeMeters>
            <DistanceMeters>7191.1711599581</DistanceMeters>
          </Trackpoint>
          <Trackpoint>
            <Time>2021-07-17T12:36:12.000Z</Time>
            <Position>
              <LatitudeDegrees>42.71834042854607105255126953125</LatitudeDegrees>
              <LongitudeDegrees>-0.2261915244162082672119140625</LongitudeDegrees>
            </Position>
            <AltitudeMeters>1776.4000244140625</AltitudeMeters>
            <DistanceMeters>7191.3055480263</DistanceMeters>
          </Trackpoint>
          <Trackpoint>
            <Time>2021-07-17T12:36:23.000Z</Time>
            <Position>
              <LatitudeDegrees>42.71834026090800762176513671875</LatitudeDegrees>
              <LongitudeDegrees>-0.22619160823523998260498046875</LongitudeDegrees>
            </Position>
            <AltitudeMeters>1776.4000244140625</AltitudeMeters>
            <DistanceMeters>7191.4005747407</DistanceMeters>
          </Trackpoint>
          <Trackpoint>
            <Time>2021-07-17T12:36:50.000Z</Time>
            <Position>
              <LatitudeDegrees>42.7183398418128490447998046875</LatitudeDegrees>
              <LongitudeDegrees>-0.22619194351136684417724609375</LongitudeDegrees>
            </Position>
            <AltitudeMeters>1776.4000244140625</AltitudeMeters>
            <DistanceMeters>7191.4005747407</DistanceMeters>
          </Trackpoint>
          <Trackpoint>
            <Time>2021-07-17T12:36:52.000Z</Time>
            <Position>
              <LatitudeDegrees>42.7183398418128490447998046875</LatitudeDegrees>
              <LongitudeDegrees>-0.22619194351136684417724609375</LongitudeDegrees>
            </Position>
            <AltitudeMeters>1776.4000244140625</AltitudeMeters>
            <DistanceMeters>7191.4005747407</DistanceMeters>
          </Trackpoint>
          <Trackpoint>
            <Time>2021-07-17T12:37:01.000Z</Time>
            <Position>
              <LatitudeDegrees>42.71833992563188076019287109375</LatitudeDegrees>
              <LongitudeDegrees>-0.22619194351136684417724609375</LongitudeDegrees>
            </Position>
            <AltitudeMeters>1776.4000244140625</AltitudeMeters>
            <DistanceMeters>7191.4005747407</DistanceMeters>
          </Trackpoint>
          <Trackpoint>
            <Time>2021-07-17T12:37:07.000Z</Time>
            <Position>
              <LatitudeDegrees>42.7183400094509124755859375</LatitudeDegrees>
              <LongitudeDegrees>-0.22619194351136684417724609375</LongitudeDegrees>
            </Position>
            <AltitudeMeters>1776.4000244140625</AltitudeMeters>
            <DistanceMeters>7191.4005747407</DistanceMeters>
          </Trackpoint>
          <Trackpoint>
            <Time>2021-07-17T12:37:24.000Z</Time>
            <Position>
              <LatitudeDegrees>42.71834076382219791412353515625</LatitudeDegrees>
              <LongitudeDegrees>-0.2261918596923351287841796875</LongitudeDegrees>
            </Position>
            <AltitudeMeters>1776.4000244140625</AltitudeMeters>
            <DistanceMeters>7191.534962809</DistanceMeters>
          </Trackpoint>
          <Trackpoint>
            <Time>2021-07-17T12:37:34.000Z</Time>
            <Position>
              <LatitudeDegrees>42.7183411829173564910888671875</LatitudeDegrees>
              <LongitudeDegrees>-0.22619177587330341339111328125</LongitudeDegrees>
            </Position>
            <AltitudeMeters>1776.4000244140625</AltitudeMeters>
            <DistanceMeters>7191.534962809</DistanceMeters>
          </Trackpoint>
          <Trackpoint>
            <Time>2021-07-17T12:37:57.000Z</Time>
            <Position>
              <LatitudeDegrees>42.71834176965057849884033203125</LatitudeDegrees>
              <LongitudeDegrees>-0.2261915244162082672119140625</LongitudeDegrees>
            </Position>
            <AltitudeMeters>1776.4000244140625</AltitudeMeters>
            <DistanceMeters>7191.534962809</DistanceMeters>
          </Trackpoint>
          <Trackpoint>
            <Time>2021-07-17T12:38:00.000Z</Time>
            <Position>
              <LatitudeDegrees>42.7183418534696102142333984375</LatitudeDegrees>
              <LongitudeDegrees>-0.2261915244162082672119140625</LongitudeDegrees>
            </Position>
            <AltitudeMeters>1776.4000244140625</AltitudeMeters>
            <DistanceMeters>7191.534962809</DistanceMeters>
          </Trackpoint>
          <Trackpoint>
            <Time>2021-07-17T12:38:11.000Z</Time>
            <Position>
              <LatitudeDegrees>42.71834210492670536041259765625</LatitudeDegrees>
              <LongitudeDegrees>-0.2261911891400814056396484375</LongitudeDegrees>
            </Position>
            <AltitudeMeters>1776.5999755859375</AltitudeMeters>
            <DistanceMeters>7191.534962809</DistanceMeters>
          </Trackpoint>
          <Trackpoint>
            <Time>2021-07-17T12:38:21.000Z</Time>
            <Position>
              <LatitudeDegrees>42.71834227256476879119873046875</LatitudeDegrees>
              <LongitudeDegrees>-0.22619077004492282867431640625</LongitudeDegrees>
            </Position>
            <AltitudeMeters>1776.5999755859375</AltitudeMeters>
            <DistanceMeters>7191.534962809</DistanceMeters>
          </Trackpoint>
          <Trackpoint>
            <Time>2021-07-17T12:38:30.000Z</Time>
            <Position>
              <LatitudeDegrees>42.71834227256476879119873046875</LatitudeDegrees>
              <LongitudeDegrees>-0.226190350949764251708984375</LongitudeDegrees>
            </Position>
            <AltitudeMeters>1776.5999755859375</AltitudeMeters>
            <DistanceMeters>7191.6299895233</DistanceMeters>
          </Trackpoint>
          <Trackpoint>
            <Time>2021-07-17T12:38:50.000Z</Time>
            <Position>
              <LatitudeDegrees>42.71834227256476879119873046875</LatitudeDegrees>
              <LongitudeDegrees>-0.22618959657847881317138671875</LongitudeDegrees>
            </Position>
            <AltitudeMeters>1776.5999755859375</AltitudeMeters>
            <DistanceMeters>7191.7643775916</DistanceMeters>
          </Trackpoint>
          <Trackpoint>
            <Time>2021-07-17T12:39:05.000Z</Time>
            <Position>
              <LatitudeDegrees>42.7183426916599273681640625</LatitudeDegrees>
              <LongitudeDegrees>-0.2261891774833202362060546875</LongitudeDegrees>
            </Position>
            <AltitudeMeters>1776.5999755859375</AltitudeMeters>
            <DistanceMeters>7191.7643775916</DistanceMeters>
          </Trackpoint>
          <Trackpoint>
            <Time>2021-07-17T12:39:23.000Z</Time>
            <Position>
              <LatitudeDegrees>42.71834311075508594512939453125</LatitudeDegrees>
              <LongitudeDegrees>-0.226189009845256805419921875</LongitudeDegrees>
            </Position>
            <AltitudeMeters>1776.5999755859375</AltitudeMeters>
            <DistanceMeters>7191.7643775916</DistanceMeters>
          </Trackpoint>
          <Trackpoint>
            <Time>2021-07-17T12:39:25.000Z</Time>
            <Position>
              <LatitudeDegrees>42.7183431945741176605224609375</LatitudeDegrees>
              <LongitudeDegrees>-0.226189009845256805419921875</LongitudeDegrees>
            </Position>
            <AltitudeMeters>1776.5999755859375</AltitudeMeters>
            <DistanceMeters>7191.7643775916</DistanceMeters>
          </Trackpoint>
          <Trackpoint>
            <Time>2021-07-17T12:39:27.000Z</Time>
            <Position>
              <LatitudeDegrees>42.71834327839314937591552734375</LatitudeDegrees>
              <LongitudeDegrees>-0.226189009845256805419921875</LongitudeDegrees>
            </Position>
            <AltitudeMeters>1776.5999755859375</AltitudeMeters>
            <DistanceMeters>7191.7643775916</DistanceMeters>
          </Trackpoint>
          <Trackpoint>
            <Time>2021-07-17T12:39:40.000Z</Time>
            <Position>
              <LatitudeDegrees>42.7183435298502445220947265625</LatitudeDegrees>
              <LongitudeDegrees>-0.22618892602622509002685546875</LongitudeDegrees>
            </Position>
            <AltitudeMeters>1776.5999755859375</AltitudeMeters>
            <DistanceMeters>7191.8594043059</DistanceMeters>
          </Trackpoint>
          <Trackpoint>
            <Time>2021-07-17T12:39:56.000Z</Time>
            <Position>
              <LatitudeDegrees>42.71834378130733966827392578125</LatitudeDegrees>
              <LongitudeDegrees>-0.22618909366428852081298828125</LongitudeDegrees>
            </Position>
            <AltitudeMeters>1776.5999755859375</AltitudeMeters>
            <DistanceMeters>7191.8594043059</DistanceMeters>
          </Trackpoint>
          <Trackpoint>
            <Time>2021-07-17T12:40:08.000Z</Time>
            <Position>
              <LatitudeDegrees>42.718343697488307952880859375</LatitudeDegrees>
              <LongitudeDegrees>-0.22618926130235195159912109375</LongitudeDegrees>
            </Position>
            <AltitudeMeters>1776.5999755859375</AltitudeMeters>
            <DistanceMeters>7191.8594043059</DistanceMeters>
          </Trackpoint>
          <Trackpoint>
            <Time>2021-07-17T12:40:21.000Z</Time>
            <Position>
              <LatitudeDegrees>42.71834344603121280670166015625</LatitudeDegrees>
              <LongitudeDegrees>-0.2261893451213836669921875</LongitudeDegrees>
            </Position>
            <AltitudeMeters>1776.5999755859375</AltitudeMeters>
            <DistanceMeters>7191.8594043059</DistanceMeters>
          </Trackpoint>
          <Trackpoint>
            <Time>2021-07-17T12:40:27.000Z</Time>
            <Position>
              <LatitudeDegrees>42.71834327839314937591552734375</LatitudeDegrees>
              <LongitudeDegrees>-0.2261893451213836669921875</LongitudeDegrees>
            </Position>
            <AltitudeMeters>1776.5999755859375</AltitudeMeters>
            <DistanceMeters>7191.8594043059</DistanceMeters>
          </Trackpoint>
          <Trackpoint>
            <Time>2021-07-17T12:40:31.000Z</Time>
            <Position>
              <LatitudeDegrees>42.7183431945741176605224609375</LatitudeDegrees>
              <LongitudeDegrees>-0.22618942894041538238525390625</LongitudeDegrees>
            </Position>
            <AltitudeMeters>1776.5999755859375</AltitudeMeters>
            <DistanceMeters>7191.8594043059</DistanceMeters>
          </Trackpoint>
          <Trackpoint>
            <Time>2021-07-17T12:40:45.000Z</Time>
            <Position>
              <LatitudeDegrees>42.7183428592979907989501953125</LatitudeDegrees>
              <LongitudeDegrees>-0.22618959657847881317138671875</LongitudeDegrees>
            </Position>
            <AltitudeMeters>1776.5999755859375</AltitudeMeters>
            <DistanceMeters>7191.8594043059</DistanceMeters>
          </Trackpoint>
          <Trackpoint>
            <Time>2021-07-17T12:40:56.000Z</Time>
            <Position>
              <LatitudeDegrees>42.7183426916599273681640625</LatitudeDegrees>
              <LongitudeDegrees>-0.22618976421654224395751953125</LongitudeDegrees>
            </Position>
            <AltitudeMeters>1776.5999755859375</AltitudeMeters>
            <DistanceMeters>7191.8594043059</DistanceMeters>
          </Trackpoint>
          <Trackpoint>
            <Time>2021-07-17T12:41:05.000Z</Time>
            <Position>
              <LatitudeDegrees>42.71834260784089565277099609375</LatitudeDegrees>
              <LongitudeDegrees>-0.226189680397510528564453125</LongitudeDegrees>
            </Position>
            <AltitudeMeters>1776.5999755859375</AltitudeMeters>
            <DistanceMeters>7191.8594043059</DistanceMeters>
          </Trackpoint>
          <Trackpoint>
            <Time>2021-07-17T12:41:27.000Z</Time>
            <Position>
              <LatitudeDegrees>42.71834260784089565277099609375</LatitudeDegrees>
              <LongitudeDegrees>-0.22618926130235195159912109375</LongitudeDegrees>
            </Position>
            <AltitudeMeters>1776.5999755859375</AltitudeMeters>
            <DistanceMeters>7191.8594043059</DistanceMeters>
          </Trackpoint>
          <Trackpoint>
            <Time>2021-07-17T12:41:51.000Z</Time>
            <Position>
              <LatitudeDegrees>42.71834244020283222198486328125</LatitudeDegrees>
              <LongitudeDegrees>-0.22618859075009822845458984375</LongitudeDegrees>
            </Position>
            <AltitudeMeters>1776.5999755859375</AltitudeMeters>
            <DistanceMeters>7191.9937923742</DistanceMeters>
          </Trackpoint>
          <Trackpoint>
            <Time>2021-07-17T12:41:57.000Z</Time>
            <Position>
              <LatitudeDegrees>42.71834244020283222198486328125</LatitudeDegrees>
              <LongitudeDegrees>-0.2261881716549396514892578125</LongitudeDegrees>
            </Position>
            <AltitudeMeters>1776.5999755859375</AltitudeMeters>
            <DistanceMeters>7191.9937923742</DistanceMeters>
          </Trackpoint>
          <Trackpoint>
            <Time>2021-07-17T12:42:21.000Z</Time>
            <Position>
              <LatitudeDegrees>42.7183421887457370758056640625</LatitudeDegrees>
              <LongitudeDegrees>-0.22618624381721019744873046875</LongitudeDegrees>
            </Position>
            <AltitudeMeters>1776.5999755859375</AltitudeMeters>
            <DistanceMeters>7192.1838458029</DistanceMeters>
          </Trackpoint>
          <Trackpoint>
            <Time>2021-07-17T12:42:37.000Z</Time>
            <Position>
              <LatitudeDegrees>42.71834210492670536041259765625</LatitudeDegrees>
              <LongitudeDegrees>-0.22618490271270275115966796875</LongitudeDegrees>
            </Position>
            <AltitudeMeters>1776.5999755859375</AltitudeMeters>
            <DistanceMeters>7192.3182338712</DistanceMeters>
          </Trackpoint>
          <Trackpoint>
            <Time>2021-07-17T12:42:51.000Z</Time>
            <Position>
              <LatitudeDegrees>42.71834202110767364501953125</LatitudeDegrees>
              <LongitudeDegrees>-0.226183645427227020263671875</LongitudeDegrees>
            </Position>
            <AltitudeMeters>1776.5999755859375</AltitudeMeters>
            <DistanceMeters>7192.4526219394</DistanceMeters>
          </Trackpoint>
          <Trackpoint>
            <Time>2021-07-17T12:42:59.000Z</Time>
            <Position>
              <LatitudeDegrees>42.71834193728864192962646484375</LatitudeDegrees>
              <LongitudeDegrees>-0.226182974874973297119140625</LongitudeDegrees>
            </Position>
            <AltitudeMeters>1776.5999755859375</AltitudeMeters>
            <DistanceMeters>7192.5870100077</DistanceMeters>
          </Trackpoint>
          <Trackpoint>
            <Time>2021-07-17T12:43:06.000Z</Time>
            <Position>
              <LatitudeDegrees>42.71833397448062896728515625</LatitudeDegrees>
              <LongitudeDegrees>-0.2261120639741420745849609375</LongitudeDegrees>
            </Position>
            <AltitudeMeters>1777.5999755859375</AltitudeMeters>
            <DistanceMeters>7198.452552715</DistanceMeters>
          </Trackpoint>
          <Trackpoint>
            <Time>2021-07-17T12:43:15.000Z</Time>
            <Position>
              <LatitudeDegrees>42.71833154372870922088623046875</LatitudeDegrees>
              <LongitudeDegrees>-0.2259357087314128875732421875</LongitudeDegrees>
            </Position>
            <AltitudeMeters>1780</AltitudeMeters>
            <DistanceMeters>7212.8762807765</DistanceMeters>
          </Trackpoint>
          <Trackpoint>
            <Time>2021-07-17T12:43:19.000Z</Time>
            <Position>
              <LatitudeDegrees>42.71833154372870922088623046875</LatitudeDegrees>
              <LongitudeDegrees>-0.2258777059614658355712890625</LongitudeDegrees>
            </Position>
            <AltitudeMeters>1780.800048828125</AltitudeMeters>
            <DistanceMeters>7217.6200082664</DistanceMeters>
          </Trackpoint>
          <Trackpoint>
            <Time>2021-07-17T12:43:22.000Z</Time>
            <Position>
              <LatitudeDegrees>42.7183341421186923980712890625</LatitudeDegrees>
              <LongitudeDegrees>-0.22584208287298679351806640625</LongitudeDegrees>
            </Position>
            <AltitudeMeters>1781.4000244140625</AltitudeMeters>
            <DistanceMeters>7220.5473863673</DistanceMeters>
          </Trackpoint>
          <Trackpoint>
            <Time>2021-07-17T12:43:24.000Z</Time>
            <Position>
              <LatitudeDegrees>42.71833573468029499053955078125</LatitudeDegrees>
              <LongitudeDegrees>-0.22582280449569225311279296875</LongitudeDegrees>
            </Position>
            <AltitudeMeters>1781.800048828125</AltitudeMeters>
            <DistanceMeters>7222.1317983249</DistanceMeters>
          </Trackpoint>
          <Trackpoint>
            <Time>2021-07-17T12:43:30.000Z</Time>
            <Position>
              <LatitudeDegrees>42.7183158695697784423828125</LatitudeDegrees>
              <LongitudeDegrees>-0.2257818169891834259033203125</LongitudeDegrees>
            </Position>
            <AltitudeMeters>1782.199951171875</AltitudeMeters>
            <DistanceMeters>7226.1477311591</DistanceMeters>
          </Trackpoint>
          <Trackpoint>
            <Time>2021-07-17T12:43:31.000Z</Time>
            <Position>
              <LatitudeDegrees>42.71831293590366840362548828125</LatitudeDegrees>
              <LongitudeDegrees>-0.2257816493511199951171875</LongitudeDegrees>
            </Position>
            <AltitudeMeters>1782</AltitudeMeters>
            <DistanceMeters>7226.4769133538</DistanceMeters>
          </Trackpoint>
          <Trackpoint>
            <Time>2021-07-17T12:43:39.000Z</Time>
            <Position>
              <LatitudeDegrees>42.718283347785472869873046875</LatitudeDegrees>
              <LongitudeDegrees>-0.22574954666197299957275390625</LongitudeDegrees>
            </Position>
            <AltitudeMeters>1781.800048828125</AltitudeMeters>
            <DistanceMeters>7230.6882160188</DistanceMeters>
          </Trackpoint>
          <Trackpoint>
            <Time>2021-07-17T12:43:40.000Z</Time>
            <Position>
              <LatitudeDegrees>42.7182794921100139617919921875</LatitudeDegrees>
              <LongitudeDegrees>-0.2257422544062137603759765625</LongitudeDegrees>
            </Position>
            <AltitudeMeters>1781.5999755859375</AltitudeMeters>
            <DistanceMeters>7231.4242897832</DistanceMeters>
          </Trackpoint>
          <Trackpoint>
            <Time>2021-07-17T12:43:42.000Z</Time>
            <Position>
              <LatitudeDegrees>42.71827018819749355316162109375</LatitudeDegrees>
              <LongitudeDegrees>-0.2257306873798370361328125</LongitudeDegrees>
            </Position>
            <AltitudeMeters>1781.199951171875</AltitudeMeters>
            <DistanceMeters>7232.8273424068</DistanceMeters>
          </Trackpoint>
          <Trackpoint>
            <Time>2021-07-17T12:43:46.000Z</Time>
            <Position>
              <LatitudeDegrees>42.71826423704624176025390625</LatitudeDegrees>
              <LongitudeDegrees>-0.2257194556295871734619140625</LongitudeDegrees>
            </Position>
            <AltitudeMeters>1780.800048828125</AltitudeMeters>
            <DistanceMeters>7233.9597163976</DistanceMeters>
          </Trackpoint>
          <Trackpoint>
            <Time>2021-07-17T12:43:48.000Z</Time>
            <Position>
              <LatitudeDegrees>42.7182595431804656982421875</LatitudeDegrees>
              <LongitudeDegrees>-0.22572607733309268951416015625</LongitudeDegrees>
            </Position>
            <AltitudeMeters>1780.800048828125</AltitudeMeters>
            <DistanceMeters>7234.7079574948</DistanceMeters>
          </Trackpoint>
          <Trackpoint>
            <Time>2021-07-17T12:43:53.000Z</Time>
            <Position>
              <LatitudeDegrees>42.7182503230869770050048828125</LatitudeDegrees>
              <LongitudeDegrees>-0.22572557441890239715576171875</LongitudeDegrees>
            </Position>
            <AltitudeMeters>1780.5999755859375</AltitudeMeters>
            <DistanceMeters>7235.7314265308</DistanceMeters>
          </Trackpoint>
          <Trackpoint>
            <Time>2021-07-17T12:44:01.000Z</Time>
            <Position>
              <LatitudeDegrees>42.71825225092470645904541015625</LatitudeDegrees>
              <LongitudeDegrees>-0.22572557441890239715576171875</LongitudeDegrees>
            </Position>
            <AltitudeMeters>1780.5999755859375</AltitudeMeters>
            <DistanceMeters>7235.9641934929</DistanceMeters>
          </Trackpoint>
          <Trackpoint>
            <Time>2021-07-17T12:44:03.000Z</Time>
            <Position>
              <LatitudeDegrees>42.71825426258146762847900390625</LatitudeDegrees>
              <LongitudeDegrees>-0.22572557441890239715576171875</LongitudeDegrees>
            </Position>
            <AltitudeMeters>1780.5999755859375</AltitudeMeters>
            <DistanceMeters>7236.196960455</DistanceMeters>
          </Trackpoint>
          <Trackpoint>
            <Time>2021-07-17T12:44:09.000Z</Time>
            <Position>
              <LatitudeDegrees>42.718226350843906402587890625</LatitudeDegrees>
              <LongitudeDegrees>-0.22566723637282848358154296875</LongitudeDegrees>
            </Position>
            <AltitudeMeters>1779.199951171875</AltitudeMeters>
            <DistanceMeters>7241.8890527137</DistanceMeters>
          </Trackpoint>
          <Trackpoint>
            <Time>2021-07-17T12:44:14.000Z</Time>
            <Position>
              <LatitudeDegrees>42.7181926555931568145751953125</LatitudeDegrees>
              <LongitudeDegrees>-0.2256014384329319000244140625</LongitudeDegrees>
            </Position>
            <AltitudeMeters>1779.5999755859375</AltitudeMeters>
            <DistanceMeters>7248.447961478</DistanceMeters>
          </Trackpoint>
          <Trackpoint>
            <Time>2021-07-17T12:44:18.000Z</Time>
            <Position>
              <LatitudeDegrees>42.71817597560584545135498046875</LatitudeDegrees>
              <LongitudeDegrees>-0.22556983865797519683837890625</LongitudeDegrees>
            </Position>
            <AltitudeMeters>1780</AltitudeMeters>
            <DistanceMeters>7251.6310018124</DistanceMeters>
          </Trackpoint>
          <Trackpoint>
            <Time>2021-07-17T12:44:24.000Z</Time>
            <Position>
              <LatitudeDegrees>42.718158625066280364990234375</LatitudeDegrees>
              <LongitudeDegrees>-0.22553597576916217803955078125</LongitudeDegrees>
            </Position>
            <AltitudeMeters>1780.4000244140625</AltitudeMeters>
            <DistanceMeters>7255.0067915677</DistanceMeters>
          </Trackpoint>
          <Trackpoint>
            <Time>2021-07-17T12:44:26.000Z</Time>
            <Position>
              <LatitudeDegrees>42.71815937943756580352783203125</LatitudeDegrees>
              <LongitudeDegrees>-0.2255390770733356475830078125</LongitudeDegrees>
            </Position>
            <AltitudeMeters>1780.199951171875</AltitudeMeters>
            <DistanceMeters>7255.2582086218</DistanceMeters>
          </Trackpoint>
          <Trackpoint>
            <Time>2021-07-17T12:44:39.000Z</Time>
            <Position>
              <LatitudeDegrees>42.7181638218462467193603515625</LatitudeDegrees>
              <LongitudeDegrees>-0.22556246258318424224853515625</LongitudeDegrees>
            </Position>
            <AltitudeMeters>1780</AltitudeMeters>
            <DistanceMeters>7257.2333017902</DistanceMeters>
          </Trackpoint>
          <Trackpoint>
            <Time>2021-07-17T12:44:46.000Z</Time>
            <Position>
              <LatitudeDegrees>42.71816457621753215789794921875</LatitudeDegrees>
              <LongitudeDegrees>-0.22555206902325153350830078125</LongitudeDegrees>
            </Position>
            <AltitudeMeters>1780.199951171875</AltitudeMeters>
            <DistanceMeters>7258.0832465623</DistanceMeters>
          </Trackpoint>
          <Trackpoint>
            <Time>2021-07-17T12:44:58.000Z</Time>
            <Position>
              <LatitudeDegrees>42.71816901862621307373046875</LatitudeDegrees>
              <LongitudeDegrees>-0.22554469294846057891845703125</LongitudeDegrees>
            </Position>
            <AltitudeMeters>1780.199951171875</AltitudeMeters>
            <DistanceMeters>7258.8610737421</DistanceMeters>
          </Trackpoint>
          <Trackpoint>
            <Time>2021-07-17T12:45:10.000Z</Time>
            <Position>
              <LatitudeDegrees>42.7181148715317249298095703125</LatitudeDegrees>
              <LongitudeDegrees>-0.22549691610038280487060546875</LongitudeDegrees>
            </Position>
            <AltitudeMeters>1780.800048828125</AltitudeMeters>
            <DistanceMeters>7266.0429813333</DistanceMeters>
          </Trackpoint>
          <Trackpoint>
            <Time>2021-07-17T12:45:19.000Z</Time>
            <Position>
              <LatitudeDegrees>42.7180203236639499664306640625</LatitudeDegrees>
              <LongitudeDegrees>-0.22540555335581302642822265625</LongitudeDegrees>
            </Position>
            <AltitudeMeters>1780.4000244140625</AltitudeMeters>
            <DistanceMeters>7278.9487846794</DistanceMeters>
          </Trackpoint>
          <Trackpoint>
            <Time>2021-07-17T12:45:21.000Z</Time>
            <Position>
              <LatitudeDegrees>42.7180052362382411956787109375</LatitudeDegrees>
              <LongitudeDegrees>-0.22539029829204082489013671875</LongitudeDegrees>
            </Position>
            <AltitudeMeters>1780.4000244140625</AltitudeMeters>
            <DistanceMeters>7281.0436873387</DistanceMeters>
          </Trackpoint>
          <Trackpoint>
            <Time>2021-07-17T12:45:24.000Z</Time>
            <Position>
              <LatitudeDegrees>42.7179955132305622100830078125</LatitudeDegrees>
              <LongitudeDegrees>-0.22536867298185825347900390625</LongitudeDegrees>
            </Position>
            <AltitudeMeters>1780.4000244140625</AltitudeMeters>
            <DistanceMeters>7283.1191021078</DistanceMeters>
          </Trackpoint>
          <Trackpoint>
            <Time>2021-07-17T12:45:26.000Z</Time>
            <Position>
              <LatitudeDegrees>42.71798855625092983245849609375</LatitudeDegrees>
              <LongitudeDegrees>-0.2253536693751811981201171875</LongitudeDegrees>
            </Position>
            <AltitudeMeters>1780.5999755859375</AltitudeMeters>
            <DistanceMeters>7284.5696219496</DistanceMeters>
          </Trackpoint>
          <Trackpoint>
            <Time>2021-07-17T12:45:30.000Z</Time>
            <Position>
              <LatitudeDegrees>42.71797112189233303070068359375</LatitudeDegrees>
              <LongitudeDegrees>-0.22530279122292995452880859375</LongitudeDegrees>
            </Position>
            <AltitudeMeters>1781.199951171875</AltitudeMeters>
            <DistanceMeters>7289.1614874198</DistanceMeters>
          </Trackpoint>
          <Trackpoint>
            <Time>2021-07-17T12:45:34.000Z</Time>
            <Position>
              <LatitudeDegrees>42.7179376780986785888671875</LatitudeDegrees>
              <LongitudeDegrees>-0.225253589451313018798828125</LongitudeDegrees>
            </Position>
            <AltitudeMeters>1782.199951171875</AltitudeMeters>
            <DistanceMeters>7294.643466479</DistanceMeters>
          </Trackpoint>
          <Trackpoint>
            <Time>2021-07-17T12:45:42.000Z</Time>
            <Position>
              <LatitudeDegrees>42.717872969806194305419921875</LatitudeDegrees>
              <LongitudeDegrees>-0.2252215705811977386474609375</LongitudeDegrees>
            </Position>
            <AltitudeMeters>1782.5999755859375</AltitudeMeters>
            <DistanceMeters>7302.3065329093</DistanceMeters>
          </Trackpoint>
          <Trackpoint>
            <Time>2021-07-17T12:45:49.000Z</Time>
            <Position>
              <LatitudeDegrees>42.7178248576819896697998046875</LatitudeDegrees>
              <LongitudeDegrees>-0.22518024779856204986572265625</LongitudeDegrees>
            </Position>
            <AltitudeMeters>1783.4000244140625</AltitudeMeters>
            <DistanceMeters>7308.6384788512</DistanceMeters>
          </Trackpoint>
          <Trackpoint>
            <Time>2021-07-17T12:45:52.000Z</Time>
            <Position>
              <LatitudeDegrees>42.71780683659017086029052734375</LatitudeDegrees>
              <LongitudeDegrees>-0.225164406001567840576171875</LongitudeDegrees>
            </Position>
            <AltitudeMeters>1783.800048828125</AltitudeMeters>
            <DistanceMeters>7311.0274134071</DistanceMeters>
          </Trackpoint>
          <Trackpoint>
            <Time>2021-07-17T12:46:00.000Z</Time>
            <Position>
              <LatitudeDegrees>42.71773408167064189910888671875</LatitudeDegrees>
              <LongitudeDegrees>-0.2251327224075794219970703125</LongitudeDegrees>
            </Position>
            <AltitudeMeters>1784.800048828125</AltitudeMeters>
            <DistanceMeters>7319.5289857239</DistanceMeters>
          </Trackpoint>
          <Trackpoint>
            <Time>2021-07-17T12:46:03.000Z</Time>
            <Position>
              <LatitudeDegrees>42.71771128289401531219482421875</LatitudeDegrees>
              <LongitudeDegrees>-0.22511310875415802001953125</LongitudeDegrees>
            </Position>
            <AltitudeMeters>1785.199951171875</AltitudeMeters>
            <DistanceMeters>7322.530987771</DistanceMeters>
          </Trackpoint>
          <Trackpoint>
            <Time>2021-07-17T12:46:11.000Z</Time>
            <Position>
              <LatitudeDegrees>42.7176614105701446533203125</LatitudeDegrees>
              <LongitudeDegrees>-0.22505133412778377532958984375</LongitudeDegrees>
            </Position>
            <AltitudeMeters>1786</AltitudeMeters>
            <DistanceMeters>7330.0362936847</DistanceMeters>
          </Trackpoint>
          <Trackpoint>
            <Time>2021-07-17T12:46:19.000Z</Time>
            <Position>
              <LatitudeDegrees>42.71760030649602413177490234375</LatitudeDegrees>
              <LongitudeDegrees>-0.2249741367995738983154296875</LongitudeDegrees>
            </Position>
            <AltitudeMeters>1786</AltitudeMeters>
            <DistanceMeters>7339.3149115137</DistanceMeters>
          </Trackpoint>
          <Trackpoint>
            <Time>2021-07-17T12:46:23.000Z</Time>
            <Position>
              <LatitudeDegrees>42.71755739115178585052490234375</LatitudeDegrees>
              <LongitudeDegrees>-0.22493901662528514862060546875</LongitudeDegrees>
            </Position>
            <AltitudeMeters>1786</AltitudeMeters>
            <DistanceMeters>7344.8867516778</DistanceMeters>
          </Trackpoint>
          <Trackpoint>
            <Time>2021-07-17T12:46:29.000Z</Time>
            <Position>
              <LatitudeDegrees>42.71750994957983493804931640625</LatitudeDegrees>
              <LongitudeDegrees>-0.224871374666690826416015625</LongitudeDegrees>
            </Position>
            <AltitudeMeters>1785</AltitudeMeters>
            <DistanceMeters>7352.5333028595</DistanceMeters>
          </Trackpoint>
          <Trackpoint>
            <Time>2021-07-17T12:46:30.000Z</Time>
            <Position>
              <LatitudeDegrees>42.71750827319920063018798828125</LatitudeDegrees>
              <LongitudeDegrees>-0.22485821507871150970458984375</LongitudeDegrees>
            </Position>
            <AltitudeMeters>1784.800048828125</AltitudeMeters>
            <DistanceMeters>7353.6250766871</DistanceMeters>
          </Trackpoint>
          <Trackpoint>
            <Time>2021-07-17T12:46:39.000Z</Time>
            <Position>
              <LatitudeDegrees>42.71744473837316036224365234375</LatitudeDegrees>
              <LongitudeDegrees>-0.2247709594666957855224609375</LongitudeDegrees>
            </Position>
            <AltitudeMeters>1783.199951171875</AltitudeMeters>
            <DistanceMeters>7363.6709780572</DistanceMeters>
          </Trackpoint>
          <Trackpoint>
            <Time>2021-07-17T12:46:52.000Z</Time>
            <Position>
              <LatitudeDegrees>42.71736209280788898468017578125</LatitudeDegrees>
              <LongitudeDegrees>-0.2246656827628612518310546875</LongitudeDegrees>
            </Position>
            <AltitudeMeters>1784</AltitudeMeters>
            <DistanceMeters>7376.2698146595</DistanceMeters>
          </Trackpoint>
          <Trackpoint>
            <Time>2021-07-17T12:47:03.000Z</Time>
            <Position>
              <LatitudeDegrees>42.71730266511440277099609375</LatitudeDegrees>
              <LongitudeDegrees>-0.22461145184934139251708984375</LongitudeDegrees>
            </Position>
            <AltitudeMeters>1784.199951171875</AltitudeMeters>
            <DistanceMeters>7384.2339377715</DistanceMeters>
          </Trackpoint>
          <Trackpoint>
            <Time>2021-07-17T12:47:04.000Z</Time>
            <Position>
              <LatitudeDegrees>42.71729822270572185516357421875</LatitudeDegrees>
              <LongitudeDegrees>-0.2246073447167873382568359375</LongitudeDegrees>
            </Position>
            <AltitudeMeters>1784.4000244140625</AltitudeMeters>
            <DistanceMeters>7384.8273794125</DistanceMeters>
          </Trackpoint>
          <Trackpoint>
            <Time>2021-07-17T12:47:07.000Z</Time>
            <Position>
              <LatitudeDegrees>42.71729336120188236236572265625</LatitudeDegrees>
              <LongitudeDegrees>-0.22457809187471866607666015625</LongitudeDegrees>
            </Position>
            <AltitudeMeters>1784.800048828125</AltitudeMeters>
            <DistanceMeters>7387.2797315307</DistanceMeters>
          </Trackpoint>
          <Trackpoint>
            <Time>2021-07-17T12:47:10.000Z</Time>
            <Position>
              <LatitudeDegrees>42.71728254854679107666015625</LatitudeDegrees>
              <LongitudeDegrees>-0.2245526947081089019775390625</LongitudeDegrees>
            </Position>
            <AltitudeMeters>1785.4000244140625</AltitudeMeters>
            <DistanceMeters>7389.6799791786</DistanceMeters>
          </Trackpoint>
          <Trackpoint>
            <Time>2021-07-17T12:47:11.000Z</Time>
            <Position>
              <LatitudeDegrees>42.7172766812145709991455078125</LatitudeDegrees>
              <LongitudeDegrees>-0.2245473302900791168212890625</LongitudeDegrees>
            </Position>
            <AltitudeMeters>1785.5999755859375</AltitudeMeters>
            <DistanceMeters>7390.4635895398</DistanceMeters>
          </Trackpoint>
          <Trackpoint>
            <Time>2021-07-17T12:47:12.000Z</Time>
            <Position>
              <LatitudeDegrees>42.7172706462442874908447265625</LatitudeDegrees>
              <LongitudeDegrees>-0.22454179823398590087890625</LongitudeDegrees>
            </Position>
            <AltitudeMeters>1785.800048828125</AltitudeMeters>
            <DistanceMeters>7391.2754981433</DistanceMeters>
          </Trackpoint>
          <Trackpoint>
            <Time>2021-07-17T12:47:19.000Z</Time>
            <Position>
              <LatitudeDegrees>42.71724893711507320404052734375</LatitudeDegrees>
              <LongitudeDegrees>-0.22451371885836124420166015625</LongitudeDegrees>
            </Position>
            <AltitudeMeters>1786.4000244140625</AltitudeMeters>
            <DistanceMeters>7394.6082138566</DistanceMeters>
          </Trackpoint>
          <Trackpoint>
            <Time>2021-07-17T12:47:25.000Z</Time>
            <Position>
              <LatitudeDegrees>42.7172364480793476104736328125</LatitudeDegrees>
              <LongitudeDegrees>-0.22451254539191722869873046875</LongitudeDegrees>
            </Position>
            <AltitudeMeters>1786.800048828125</AltitudeMeters>
            <DistanceMeters>7396.0015790046</DistanceMeters>
          </Trackpoint>
          <Trackpoint>
            <Time>2021-07-17T12:47:42.000Z</Time>
            <Position>
              <LatitudeDegrees>42.71724306978285312652587890625</LatitudeDegrees>
              <LongitudeDegrees>-0.22451153956353664398193359375</LongitudeDegrees>
            </Position>
            <AltitudeMeters>1786.5999755859375</AltitudeMeters>
            <DistanceMeters>7396.7498201018</DistanceMeters>
          </Trackpoint>
          <Trackpoint>
            <Time>2021-07-17T12:47:49.000Z</Time>
            <Position>
              <LatitudeDegrees>42.71722488105297088623046875</LatitudeDegrees>
              <LongitudeDegrees>-0.2244893275201320648193359375</LongitudeDegrees>
            </Position>
            <AltitudeMeters>1787.199951171875</AltitudeMeters>
            <DistanceMeters>7399.4709710869</DistanceMeters>
          </Trackpoint>
          <Trackpoint>
            <Time>2021-07-17T12:48:03.000Z</Time>
            <Position>
              <LatitudeDegrees>42.717221193015575408935546875</LatitudeDegrees>
              <LongitudeDegrees>-0.22447985596954822540283203125</LongitudeDegrees>
            </Position>
            <AltitudeMeters>1787.4000244140625</AltitudeMeters>
            <DistanceMeters>7400.3419053102</DistanceMeters>
          </Trackpoint>
          <Trackpoint>
            <Time>2021-07-17T12:48:04.000Z</Time>
            <Position>
              <LatitudeDegrees>42.717221193015575408935546875</LatitudeDegrees>
              <LongitudeDegrees>-0.22447985596954822540283203125</LongitudeDegrees>
            </Position>
            <AltitudeMeters>1787.4000244140625</AltitudeMeters>
            <DistanceMeters>7400.3419053102</DistanceMeters>
          </Trackpoint>
          <Trackpoint>
            <Time>2021-07-17T12:48:14.000Z</Time>
            <Position>
              <LatitudeDegrees>42.71719135344028472900390625</LatitudeDegrees>
              <LongitudeDegrees>-0.2243924327194690704345703125</LongitudeDegrees>
            </Position>
            <AltitudeMeters>1789.4000244140625</AltitudeMeters>
            <DistanceMeters>7408.2251144339</DistanceMeters>
          </Trackpoint>
          <Trackpoint>
            <Time>2021-07-17T12:48:17.000Z</Time>
            <Position>
              <LatitudeDegrees>42.71717349998652935028076171875</LatitudeDegrees>
              <LongitudeDegrees>-0.22435027174651622772216796875</LongitudeDegrees>
            </Position>
            <AltitudeMeters>1790.800048828125</AltitudeMeters>
            <DistanceMeters>7412.204907655</DistanceMeters>
          </Trackpoint>
          <Trackpoint>
            <Time>2021-07-17T12:48:19.000Z</Time>
            <Position>
              <LatitudeDegrees>42.7171657048165798187255859375</LatitudeDegrees>
              <LongitudeDegrees>-0.2243394590914249420166015625</LongitudeDegrees>
            </Position>
            <AltitudeMeters>1791.199951171875</AltitudeMeters>
            <DistanceMeters>7413.4365946455</DistanceMeters>
          </Trackpoint>
          <Trackpoint>
            <Time>2021-07-17T12:48:20.000Z</Time>
            <Position>
              <LatitudeDegrees>42.7171640284359455108642578125</LatitudeDegrees>
              <LongitudeDegrees>-0.22433870472013950347900390625</LongitudeDegrees>
            </Position>
            <AltitudeMeters>1791.199951171875</AltitudeMeters>
            <DistanceMeters>7413.6490808385</DistanceMeters>
          </Trackpoint>
          <Trackpoint>
            <Time>2021-07-17T12:48:25.000Z</Time>
            <Position>
              <LatitudeDegrees>42.71716344170272350311279296875</LatitudeDegrees>
              <LongitudeDegrees>-0.22433971054852008819580078125</LongitudeDegrees>
            </Position>
            <AltitudeMeters>1791.199951171875</AltitudeMeters>
            <DistanceMeters>7413.7834689067</DistanceMeters>
          </Trackpoint>
          <Trackpoint>
            <Time>2021-07-17T12:48:39.000Z</Time>
            <Position>
              <LatitudeDegrees>42.71716143004596233367919921875</LatitudeDegrees>
              <LongitudeDegrees>-0.22434926591813564300537109375</LongitudeDegrees>
            </Position>
            <AltitudeMeters>1791.199951171875</AltitudeMeters>
            <DistanceMeters>7414.5953775102</DistanceMeters>
          </Trackpoint>
          <Trackpoint>
            <Time>2021-07-17T12:48:43.000Z</Time>
            <Position>
              <LatitudeDegrees>42.71716075949370861053466796875</LatitudeDegrees>
              <LongitudeDegrees>-0.224344991147518157958984375</LongitudeDegrees>
            </Position>
            <AltitudeMeters>1791.4000244140625</AltitudeMeters>
            <DistanceMeters>7414.950934918</DistanceMeters>
          </Trackpoint>
          <Trackpoint>
            <Time>2021-07-17T12:48:45.000Z</Time>
            <Position>
              <LatitudeDegrees>42.71716042421758174896240234375</LatitudeDegrees>
              <LongitudeDegrees>-0.2243439853191375732421875</LongitudeDegrees>
            </Position>
            <AltitudeMeters>1791.4000244140625</AltitudeMeters>
            <DistanceMeters>7414.950934918</DistanceMeters>
          </Trackpoint>
          <Trackpoint>
            <Time>2021-07-17T12:48:49.000Z</Time>
            <Position>
              <LatitudeDegrees>42.7171603403985500335693359375</LatitudeDegrees>
              <LongitudeDegrees>-0.22434239275753498077392578125</LongitudeDegrees>
            </Position>
            <AltitudeMeters>1791.4000244140625</AltitudeMeters>
            <DistanceMeters>7415.0853229862</DistanceMeters>
          </Trackpoint>
          <Trackpoint>
            <Time>2021-07-17T12:48:52.000Z</Time>
            <Position>
              <LatitudeDegrees>42.7171596698462963104248046875</LatitudeDegrees>
              <LongitudeDegrees>-0.22434239275753498077392578125</LongitudeDegrees>
            </Position>
            <AltitudeMeters>1791.4000244140625</AltitudeMeters>
            <DistanceMeters>7415.2197110545</DistanceMeters>
          </Trackpoint>
          <Trackpoint>
            <Time>2021-07-17T12:48:59.000Z</Time>
            <Position>
              <LatitudeDegrees>42.717158831655979156494140625</LatitudeDegrees>
              <LongitudeDegrees>-0.22434021346271038055419921875</LongitudeDegrees>
            </Position>
            <AltitudeMeters>1791.4000244140625</AltitudeMeters>
            <DistanceMeters>7415.4321972475</DistanceMeters>
          </Trackpoint>
          <Trackpoint>
            <Time>2021-07-17T12:49:06.000Z</Time>
            <Position>
              <LatitudeDegrees>42.71715824492275714874267578125</LatitudeDegrees>
              <LongitudeDegrees>-0.2243240363895893096923828125</LongitudeDegrees>
            </Position>
            <AltitudeMeters>1791.5999755859375</AltitudeMeters>
            <DistanceMeters>7416.7557662219</DistanceMeters>
          </Trackpoint>
          <Trackpoint>
            <Time>2021-07-17T12:49:09.000Z</Time>
            <Position>
              <LatitudeDegrees>42.71715774200856685638427734375</LatitudeDegrees>
              <LongitudeDegrees>-0.22432194091379642486572265625</LongitudeDegrees>
            </Position>
            <AltitudeMeters>1791.5999755859375</AltitudeMeters>
            <DistanceMeters>7416.9458196507</DistanceMeters>
          </Trackpoint>
          <Trackpoint>
            <Time>2021-07-17T12:49:23.000Z</Time>
            <Position>
              <LatitudeDegrees>42.7171375416219234466552734375</LatitudeDegrees>
              <LongitudeDegrees>-0.2242447435855865478515625</LongitudeDegrees>
            </Position>
            <AltitudeMeters>1792.800048828125</AltitudeMeters>
            <DistanceMeters>7423.6470561154</DistanceMeters>
          </Trackpoint>
          <Trackpoint>
            <Time>2021-07-17T12:49:29.000Z</Time>
            <Position>
              <LatitudeDegrees>42.717122621834278106689453125</LatitudeDegrees>
              <LongitudeDegrees>-0.2241698093712329864501953125</LongitudeDegrees>
            </Position>
            <AltitudeMeters>1793.5999755859375</AltitudeMeters>
            <DistanceMeters>7429.9960923608</DistanceMeters>
          </Trackpoint>
          <Trackpoint>
            <Time>2021-07-17T12:49:31.000Z</Time>
            <Position>
              <LatitudeDegrees>42.7171234600245952606201171875</LatitudeDegrees>
              <LongitudeDegrees>-0.2241661213338375091552734375</LongitudeDegrees>
            </Position>
            <AltitudeMeters>1793.5999755859375</AltitudeMeters>
            <DistanceMeters>7430.3112603174</DistanceMeters>
          </Trackpoint>
          <Trackpoint>
            <Time>2021-07-17T12:49:32.000Z</Time>
            <Position>
              <LatitudeDegrees>42.7171234600245952606201171875</LatitudeDegrees>
              <LongitudeDegrees>-0.22416218183934688568115234375</LongitudeDegrees>
            </Position>
            <AltitudeMeters>1793.5999755859375</AltitudeMeters>
            <DistanceMeters>7430.6117611734</DistanceMeters>
          </Trackpoint>
          <Trackpoint>
            <Time>2021-07-17T12:49:35.000Z</Time>
            <Position>
              <LatitudeDegrees>42.71712136454880237579345703125</LatitudeDegrees>
              <LongitudeDegrees>-0.2241382934153079986572265625</LongitudeDegrees>
            </Position>
            <AltitudeMeters>1793.800048828125</AltitudeMeters>
            <DistanceMeters>7432.5799844317</DistanceMeters>
          </Trackpoint>
          <Trackpoint>
            <Time>2021-07-17T12:49:39.000Z</Time>
            <Position>
              <LatitudeDegrees>42.71711147390305995941162109375</LatitudeDegrees>
              <LongitudeDegrees>-0.224111638963222503662109375</LongitudeDegrees>
            </Position>
            <AltitudeMeters>1794.4000244140625</AltitudeMeters>
            <DistanceMeters>7435.0231136811</DistanceMeters>
          </Trackpoint>
          <Trackpoint>
            <Time>2021-07-17T12:49:48.000Z</Time>
            <Position>
              <LatitudeDegrees>42.71710242144763469696044921875</LatitudeDegrees>
              <LongitudeDegrees>-0.22410317324101924896240234375</LongitudeDegrees>
            </Position>
            <AltitudeMeters>1794.800048828125</AltitudeMeters>
            <DistanceMeters>7436.2474472507</DistanceMeters>
          </Trackpoint>
          <Trackpoint>
            <Time>2021-07-17T12:49:55.000Z</Time>
            <Position>
              <LatitudeDegrees>42.71710954606533050537109375</LatitudeDegrees>
              <LongitudeDegrees>-0.22404416464269161224365234375</LongitudeDegrees>
            </Position>
            <AltitudeMeters>1794.4000244140625</AltitudeMeters>
            <DistanceMeters>7441.1374004636</DistanceMeters>
          </Trackpoint>
          <Trackpoint>
            <Time>2021-07-17T12:50:02.000Z</Time>
            <Position>
              <LatitudeDegrees>42.71712454967200756072998046875</LatitudeDegrees>
              <LongitudeDegrees>-0.2239693142473697662353515625</LongitudeDegrees>
            </Position>
            <AltitudeMeters>1793.4000244140625</AltitudeMeters>
            <DistanceMeters>7447.4821684489</DistanceMeters>
          </Trackpoint>
          <Trackpoint>
            <Time>2021-07-17T12:50:10.000Z</Time>
            <Position>
              <LatitudeDegrees>42.71713108755648136138916015625</LatitudeDegrees>
              <LongitudeDegrees>-0.2239186875522136688232421875</LongitudeDegrees>
            </Position>
            <AltitudeMeters>1792.800048828125</AltitudeMeters>
            <DistanceMeters>7451.6870334499</DistanceMeters>
          </Trackpoint>
          <Trackpoint>
            <Time>2021-07-17T12:50:16.000Z</Time>
            <Position>
              <LatitudeDegrees>42.71715254522860050201416015625</LatitudeDegrees>
              <LongitudeDegrees>-0.223838053643703460693359375</LongitudeDegrees>
            </Position>
            <AltitudeMeters>1791.4000244140625</AltitudeMeters>
            <DistanceMeters>7458.6997216872</DistanceMeters>
          </Trackpoint>
          <Trackpoint>
            <Time>2021-07-17T12:50:18.000Z</Time>
            <Position>
              <LatitudeDegrees>42.71714868955314159393310546875</LatitudeDegrees>
              <LongitudeDegrees>-0.2238157577812671661376953125</LongitudeDegrees>
            </Position>
            <AltitudeMeters>1791.4000244140625</AltitudeMeters>
            <DistanceMeters>7460.5715308816</DistanceMeters>
          </Trackpoint>
          <Trackpoint>
            <Time>2021-07-17T12:50:24.000Z</Time>
            <Position>
              <LatitudeDegrees>42.71714567206799983978271484375</LatitudeDegrees>
              <LongitudeDegrees>-0.22377091459929943084716796875</LongitudeDegrees>
            </Position>
            <AltitudeMeters>1791</AltitudeMeters>
            <DistanceMeters>7464.2543524655</DistanceMeters>
          </Trackpoint>
          <Trackpoint>
            <Time>2021-07-17T12:50:25.000Z</Time>
            <Position>
              <LatitudeDegrees>42.717149443924427032470703125</LatitudeDegrees>
              <LongitudeDegrees>-0.22376588545739650726318359375</LongitudeDegrees>
            </Position>
            <AltitudeMeters>1790.800048828125</AltitudeMeters>
            <DistanceMeters>7464.8477941066</DistanceMeters>
          </Trackpoint>
          <Trackpoint>
            <Time>2021-07-17T12:50:26.000Z</Time>
            <Position>
              <LatitudeDegrees>42.7171536348760128021240234375</LatitudeDegrees>
              <LongitudeDegrees>-0.2237594313919544219970703125</LongitudeDegrees>
            </Position>
            <AltitudeMeters>1790.5999755859375</AltitudeMeters>
            <DistanceMeters>7465.5589089221</DistanceMeters>
          </Trackpoint>
          <Trackpoint>
            <Time>2021-07-17T12:50:30.000Z</Time>
            <Position>
              <LatitudeDegrees>42.71716126240789890289306640625</LatitudeDegrees>
              <LongitudeDegrees>-0.223719365894794464111328125</LongitudeDegrees>
            </Position>
            <AltitudeMeters>1789.800048828125</AltitudeMeters>
            <DistanceMeters>7468.9453815831</DistanceMeters>
          </Trackpoint>
          <Trackpoint>
            <Time>2021-07-17T12:50:33.000Z</Time>
            <Position>
              <LatitudeDegrees>42.71715757437050342559814453125</LatitudeDegrees>
              <LongitudeDegrees>-0.22369514219462871551513671875</LongitudeDegrees>
            </Position>
            <AltitudeMeters>1789.5999755859375</AltitudeMeters>
            <DistanceMeters>7470.9679108485</DistanceMeters>
          </Trackpoint>
          <Trackpoint>
            <Time>2021-07-17T12:50:35.000Z</Time>
            <Position>
              <LatitudeDegrees>42.71716059185564517974853515625</LatitudeDegrees>
              <LongitudeDegrees>-0.22367812693119049072265625</LongitudeDegrees>
            </Position>
            <AltitudeMeters>1789.4000244140625</AltitudeMeters>
            <DistanceMeters>7472.3964756094</DistanceMeters>
          </Trackpoint>
          <Trackpoint>
            <Time>2021-07-17T12:50:38.000Z</Time>
            <Position>
              <LatitudeDegrees>42.71715958602726459503173828125</LatitudeDegrees>
              <LongitudeDegrees>-0.2236662246286869049072265625</LongitudeDegrees>
            </Position>
            <AltitudeMeters>1789.199951171875</AltitudeMeters>
            <DistanceMeters>7473.3748355141</DistanceMeters>
          </Trackpoint>
          <Trackpoint>
            <Time>2021-07-17T12:50:39.000Z</Time>
            <Position>
              <LatitudeDegrees>42.71716008894145488739013671875</LatitudeDegrees>
              <LongitudeDegrees>-0.22366479970514774322509765625</LongitudeDegrees>
            </Position>
            <AltitudeMeters>1789.199951171875</AltitudeMeters>
            <DistanceMeters>7473.5092235824</DistanceMeters>
          </Trackpoint>
          <Trackpoint>
            <Time>2021-07-17T12:50:47.000Z</Time>
            <Position>
              <LatitudeDegrees>42.71715916693210601806640625</LatitudeDegrees>
              <LongitudeDegrees>-0.22360864095389842987060546875</LongitudeDegrees>
            </Position>
            <AltitudeMeters>1788.5999755859375</AltitudeMeters>
            <DistanceMeters>7478.1030551693</DistanceMeters>
          </Trackpoint>
          <Trackpoint>
            <Time>2021-07-17T12:50:55.000Z</Time>
            <Position>
              <LatitudeDegrees>42.717134021222591400146484375</LatitudeDegrees>
              <LongitudeDegrees>-0.22351317107677459716796875</LongitudeDegrees>
            </Position>
            <AltitudeMeters>1788.199951171875</AltitudeMeters>
            <DistanceMeters>7486.3960077314</DistanceMeters>
          </Trackpoint>
          <Trackpoint>
            <Time>2021-07-17T12:50:57.000Z</Time>
            <Position>
              <LatitudeDegrees>42.71712622605264186859130859375</LatitudeDegrees>
              <LongitudeDegrees>-0.223484672605991363525390625</LongitudeDegrees>
            </Position>
            <AltitudeMeters>1788</AltitudeMeters>
            <DistanceMeters>7488.8812788007</DistanceMeters>
          </Trackpoint>
          <Trackpoint>
            <Time>2021-07-17T12:51:04.000Z</Time>
            <Position>
              <LatitudeDegrees>42.71712161600589752197265625</LatitudeDegrees>
              <LongitudeDegrees>-0.2233969978988170623779296875</LongitudeDegrees>
            </Position>
            <AltitudeMeters>1787.5999755859375</AltitudeMeters>
            <DistanceMeters>7496.0682139791</DistanceMeters>
          </Trackpoint>
          <Trackpoint>
            <Time>2021-07-17T12:51:08.000Z</Time>
            <Position>
              <LatitudeDegrees>42.71711935289204120635986328125</LatitudeDegrees>
              <LongitudeDegrees>-0.2233416773378849029541015625</LongitudeDegrees>
            </Position>
            <AltitudeMeters>1788</AltitudeMeters>
            <DistanceMeters>7500.5977099423</DistanceMeters>
          </Trackpoint>
          <Trackpoint>
            <Time>2021-07-17T12:51:20.000Z</Time>
            <Position>
              <LatitudeDegrees>42.71710812114179134368896484375</LatitudeDegrees>
              <LongitudeDegrees>-0.22318451665341854095458984375</LongitudeDegrees>
            </Position>
            <AltitudeMeters>1787.800048828125</AltitudeMeters>
            <DistanceMeters>7513.5101586436</DistanceMeters>
          </Trackpoint>
          <Trackpoint>
            <Time>2021-07-17T12:51:24.000Z</Time>
            <Position>
              <LatitudeDegrees>42.717104516923427581787109375</LatitudeDegrees>
              <LongitudeDegrees>-0.2231328003108501434326171875</LongitudeDegrees>
            </Position>
            <AltitudeMeters>1788</AltitudeMeters>
            <DistanceMeters>7517.7588199399</DistanceMeters>
          </Trackpoint>
          <Trackpoint>
            <Time>2021-07-17T12:51:28.000Z</Time>
            <Position>
              <LatitudeDegrees>42.71711767651140689849853515625</LatitudeDegrees>
              <LongitudeDegrees>-0.2230902202427387237548828125</LongitudeDegrees>
            </Position>
            <AltitudeMeters>1787.800048828125</AltitudeMeters>
            <DistanceMeters>7521.5360571289</DistanceMeters>
          </Trackpoint>
          <Trackpoint>
            <Time>2021-07-17T12:51:35.000Z</Time>
            <Position>
              <LatitudeDegrees>42.7171261422336101531982421875</LatitudeDegrees>
              <LongitudeDegrees>-0.2229894697666168212890625</LongitudeDegrees>
            </Position>
            <AltitudeMeters>1789.199951171875</AltitudeMeters>
            <DistanceMeters>7529.829009691</DistanceMeters>
          </Trackpoint>
          <Trackpoint>
            <Time>2021-07-17T12:51:36.000Z</Time>
            <Position>
              <LatitudeDegrees>42.7171237953007221221923828125</LatitudeDegrees>
              <LongitudeDegrees>-0.222980082035064697265625</LongitudeDegrees>
            </Position>
            <AltitudeMeters>1789.5999755859375</AltitudeMeters>
            <DistanceMeters>7530.646460397</DistanceMeters>
          </Trackpoint>
          <Trackpoint>
            <Time>2021-07-17T12:51:37.000Z</Time>
            <Position>
              <LatitudeDegrees>42.71712589077651500701904296875</LatitudeDegrees>
              <LongitudeDegrees>-0.2229718677699565887451171875</LongitudeDegrees>
            </Position>
            <AltitudeMeters>1789.5999755859375</AltitudeMeters>
            <DistanceMeters>7531.3575752126</DistanceMeters>
          </Trackpoint>
          <Trackpoint>
            <Time>2021-07-17T12:51:41.000Z</Time>
            <Position>
              <LatitudeDegrees>42.717130668461322784423828125</LatitudeDegrees>
              <LongitudeDegrees>-0.22293456830084323883056640625</LongitudeDegrees>
            </Position>
            <AltitudeMeters>1790</AltitudeMeters>
            <DistanceMeters>7534.4514208827</DistanceMeters>
          </Trackpoint>
          <Trackpoint>
            <Time>2021-07-17T12:51:50.000Z</Time>
            <Position>
              <LatitudeDegrees>42.71711600013077259063720703125</LatitudeDegrees>
              <LongitudeDegrees>-0.22282124496996402740478515625</LongitudeDegrees>
            </Position>
            <AltitudeMeters>1793</AltitudeMeters>
            <DistanceMeters>7543.8605052939</DistanceMeters>
          </Trackpoint>
          <Trackpoint>
            <Time>2021-07-17T12:51:56.000Z</Time>
            <Position>
              <LatitudeDegrees>42.71709588356316089630126953125</LatitudeDegrees>
              <LongitudeDegrees>-0.2227613143622875213623046875</LongitudeDegrees>
            </Position>
            <AltitudeMeters>1795.5999755859375</AltitudeMeters>
            <DistanceMeters>7549.2486121755</DistanceMeters>
          </Trackpoint>
          <Trackpoint>
            <Time>2021-07-17T12:51:57.000Z</Time>
            <Position>
              <LatitudeDegrees>42.71709236316382884979248046875</LatitudeDegrees>
              <LongitudeDegrees>-0.2227522619068622589111328125</LongitudeDegrees>
            </Position>
            <AltitudeMeters>1796</AltitudeMeters>
            <DistanceMeters>7550.0878653927</DistanceMeters>
          </Trackpoint>
          <Trackpoint>
            <Time>2021-07-17T12:52:00.000Z</Time>
            <Position>
              <LatitudeDegrees>42.71709403954446315765380859375</LatitudeDegrees>
              <LongitudeDegrees>-0.22271077148616313934326171875</LongitudeDegrees>
            </Position>
            <AltitudeMeters>1796.4000244140625</AltitudeMeters>
            <DistanceMeters>7553.4876444808</DistanceMeters>
          </Trackpoint>
          <Trackpoint>
            <Time>2021-07-17T12:52:04.000Z</Time>
            <Position>
              <LatitudeDegrees>42.71709789521992206573486328125</LatitudeDegrees>
              <LongitudeDegrees>-0.22264723666012287139892578125</LongitudeDegrees>
            </Position>
            <AltitudeMeters>1797.4000244140625</AltitudeMeters>
            <DistanceMeters>7558.701139479</DistanceMeters>
          </Trackpoint>
          <Trackpoint>
            <Time>2021-07-17T12:52:11.000Z</Time>
            <Position>
              <LatitudeDegrees>42.7170875854790210723876953125</LatitudeDegrees>
              <LongitudeDegrees>-0.22253927774727344512939453125</LongitudeDegrees>
            </Position>
            <AltitudeMeters>1800.4000244140625</AltitudeMeters>
            <DistanceMeters>7567.6037784669</DistanceMeters>
          </Trackpoint>
          <Trackpoint>
            <Time>2021-07-17T12:52:16.000Z</Time>
            <Position>
              <LatitudeDegrees>42.71708364598453044891357421875</LatitudeDegrees>
              <LongitudeDegrees>-0.22247138433158397674560546875</LongitudeDegrees>
            </Position>
            <AltitudeMeters>1801.800048828125</AltitudeMeters>
            <DistanceMeters>7573.173997732</DistanceMeters>
          </Trackpoint>
          <Trackpoint>
            <Time>2021-07-17T12:52:19.000Z</Time>
            <Position>
              <LatitudeDegrees>42.717079035937786102294921875</LatitudeDegrees>
              <LongitudeDegrees>-0.22244162857532501220703125</LongitudeDegrees>
            </Position>
            <AltitudeMeters>1802.800048828125</AltitudeMeters>
            <DistanceMeters>7575.6610848564</DistanceMeters>
          </Trackpoint>
          <Trackpoint>
            <Time>2021-07-17T12:52:22.000Z</Time>
            <Position>
              <LatitudeDegrees>42.7170671336352825164794921875</LatitudeDegrees>
              <LongitudeDegrees>-0.22241354919970035552978515625</LongitudeDegrees>
            </Position>
            <AltitudeMeters>1804</AltitudeMeters>
            <DistanceMeters>7578.3116318704</DistanceMeters>
          </Trackpoint>
          <Trackpoint>
            <Time>2021-07-17T12:52:26.000Z</Time>
            <Position>
              <LatitudeDegrees>42.7170781977474689483642578125</LatitudeDegrees>
              <LongitudeDegrees>-0.222370885312557220458984375</LongitudeDegrees>
            </Position>
            <AltitudeMeters>1803</AltitudeMeters>
            <DistanceMeters>7582.0115772604</DistanceMeters>
          </Trackpoint>
          <Trackpoint>
            <Time>2021-07-17T12:52:28.000Z</Time>
            <Position>
              <LatitudeDegrees>42.7170792035758495330810546875</LatitudeDegrees>
              <LongitudeDegrees>-0.22236476652324199676513671875</LongitudeDegrees>
            </Position>
            <AltitudeMeters>1802.800048828125</AltitudeMeters>
            <DistanceMeters>7582.5320600106</DistanceMeters>
          </Trackpoint>
          <Trackpoint>
            <Time>2021-07-17T12:52:32.000Z</Time>
            <Position>
              <LatitudeDegrees>42.71707090549170970916748046875</LatitudeDegrees>
              <LongitudeDegrees>-0.22235554642975330352783203125</LongitudeDegrees>
            </Position>
            <AltitudeMeters>1803.5999755859375</AltitudeMeters>
            <DistanceMeters>7583.7227413289</DistanceMeters>
          </Trackpoint>
          <Trackpoint>
            <Time>2021-07-17T12:52:34.000Z</Time>
            <Position>
              <LatitudeDegrees>42.717066965997219085693359375</LatitudeDegrees>
              <LongitudeDegrees>-0.22235504351556301116943359375</LongitudeDegrees>
            </Position>
            <AltitudeMeters>1803.800048828125</AltitudeMeters>
            <DistanceMeters>7584.1582084406</DistanceMeters>
          </Trackpoint>
          <Trackpoint>
            <Time>2021-07-17T12:52:41.000Z</Time>
            <Position>
              <LatitudeDegrees>42.71707870066165924072265625</LatitudeDegrees>
              <LongitudeDegrees>-0.22233031690120697021484375</LongitudeDegrees>
            </Position>
            <AltitudeMeters>1802.5999755859375</AltitudeMeters>
            <DistanceMeters>7586.565968619</DistanceMeters>
          </Trackpoint>
          <Trackpoint>
            <Time>2021-07-17T12:52:47.000Z</Time>
            <Position>
              <LatitudeDegrees>42.71707291714847087860107421875</LatitudeDegrees>
              <LongitudeDegrees>-0.222242139279842376708984375</LongitudeDegrees>
            </Position>
            <AltitudeMeters>1802.199951171875</AltitudeMeters>
            <DistanceMeters>7593.8048589763</DistanceMeters>
          </Trackpoint>
          <Trackpoint>
            <Time>2021-07-17T12:52:48.000Z</Time>
            <Position>
              <LatitudeDegrees>42.7170745097100734710693359375</LatitudeDegrees>
              <LongitudeDegrees>-0.22222177125513553619384765625</LongitudeDegrees>
            </Position>
            <AltitudeMeters>1801.800048828125</AltitudeMeters>
            <DistanceMeters>7595.4779769332</DistanceMeters>
          </Trackpoint>
          <Trackpoint>
            <Time>2021-07-17T12:52:56.000Z</Time>
            <Position>
              <LatitudeDegrees>42.71704609505832195281982421875</LatitudeDegrees>
              <LongitudeDegrees>-0.22208531387150287628173828125</LongitudeDegrees>
            </Position>
            <AltitudeMeters>1802.5999755859375</AltitudeMeters>
            <DistanceMeters>7607.0759085897</DistanceMeters>
          </Trackpoint>
          <Trackpoint>
            <Time>2021-07-17T12:53:04.000Z</Time>
            <Position>
              <LatitudeDegrees>42.71703938953578472137451171875</LatitudeDegrees>
              <LongitudeDegrees>-0.22197232581675052642822265625</LongitudeDegrees>
            </Position>
            <AltitudeMeters>1801.800048828125</AltitudeMeters>
            <DistanceMeters>7616.3457633588</DistanceMeters>
          </Trackpoint>
          <Trackpoint>
            <Time>2021-07-17T12:53:07.000Z</Time>
            <Position>
              <LatitudeDegrees>42.7170433290302753448486328125</LatitudeDegrees>
              <LongitudeDegrees>-0.22193376906216144561767578125</LongitudeDegrees>
            </Position>
            <AltitudeMeters>1801</AltitudeMeters>
            <DistanceMeters>7619.5288036932</DistanceMeters>
          </Trackpoint>
          <Trackpoint>
            <Time>2021-07-17T12:53:10.000Z</Time>
            <Position>
              <LatitudeDegrees>42.71702882833778858184814453125</LatitudeDegrees>
              <LongitudeDegrees>-0.221890099346637725830078125</LongitudeDegrees>
            </Position>
            <AltitudeMeters>1801.5999755859375</AltitudeMeters>
            <DistanceMeters>7623.4468554992</DistanceMeters>
          </Trackpoint>
          <Trackpoint>
            <Time>2021-07-17T12:53:11.000Z</Time>
            <Position>
              <LatitudeDegrees>42.7170255593955516815185546875</LatitudeDegrees>
              <LongitudeDegrees>-0.2218781970441341400146484375</LongitudeDegrees>
            </Position>
            <AltitudeMeters>1801.5999755859375</AltitudeMeters>
            <DistanceMeters>7624.4878209997</DistanceMeters>
          </Trackpoint>
          <Trackpoint>
            <Time>2021-07-17T12:53:12.000Z</Time>
            <Position>
              <LatitudeDegrees>42.71702480502426624298095703125</LatitudeDegrees>
              <LongitudeDegrees>-0.221864618360996246337890625</LongitudeDegrees>
            </Position>
            <AltitudeMeters>1801.5999755859375</AltitudeMeters>
            <DistanceMeters>7625.6041321343</DistanceMeters>
          </Trackpoint>
          <Trackpoint>
            <Time>2021-07-17T12:53:14.000Z</Time>
            <Position>
              <LatitudeDegrees>42.7170238830149173736572265625</LatitudeDegrees>
              <LongitudeDegrees>-0.22183586843311786651611328125</LongitudeDegrees>
            </Position>
            <AltitudeMeters>1801.5999755859375</AltitudeMeters>
            <DistanceMeters>7627.9588013121</DistanceMeters>
          </Trackpoint>
          <Trackpoint>
            <Time>2021-07-17T12:53:20.000Z</Time>
            <Position>
              <LatitudeDegrees>42.71701835095882415771484375</LatitudeDegrees>
              <LongitudeDegrees>-0.2217529714107513427734375</LongitudeDegrees>
            </Position>
            <AltitudeMeters>1801.4000244140625</AltitudeMeters>
            <DistanceMeters>7634.7663230572</DistanceMeters>
          </Trackpoint>
          <Trackpoint>
            <Time>2021-07-17T12:53:23.000Z</Time>
            <Position>
              <LatitudeDegrees>42.7170242182910442352294921875</LatitudeDegrees>
              <LongitudeDegrees>-0.2217135764658451080322265625</LongitudeDegrees>
            </Position>
            <AltitudeMeters>1800.800048828125</AltitudeMeters>
            <DistanceMeters>7638.052654055</DistanceMeters>
          </Trackpoint>
          <Trackpoint>
            <Time>2021-07-17T12:53:25.000Z</Time>
            <Position>
              <LatitudeDegrees>42.71702639758586883544921875</LatitudeDegrees>
              <LongitudeDegrees>-0.2216941304504871368408203125</LongitudeDegrees>
            </Position>
            <AltitudeMeters>1800.5999755859375</AltitudeMeters>
            <DistanceMeters>7639.6597016159</DistanceMeters>
          </Trackpoint>
          <Trackpoint>
            <Time>2021-07-17T12:53:27.000Z</Time>
            <Position>
              <LatitudeDegrees>42.7170238830149173736572265625</LatitudeDegrees>
              <LongitudeDegrees>-0.22168985567986965179443359375</LongitudeDegrees>
            </Position>
            <AltitudeMeters>1800.5999755859375</AltitudeMeters>
            <DistanceMeters>7640.1054164145</DistanceMeters>
          </Trackpoint>
          <Trackpoint>
            <Time>2021-07-17T12:53:29.000Z</Time>
            <Position>
              <LatitudeDegrees>42.71702061407268047332763671875</LatitudeDegrees>
              <LongitudeDegrees>-0.22169237025082111358642578125</LongitudeDegrees>
            </Position>
            <AltitudeMeters>1800.800048828125</AltitudeMeters>
            <DistanceMeters>7640.5303888006</DistanceMeters>
          </Trackpoint>
          <Trackpoint>
            <Time>2021-07-17T12:53:36.000Z</Time>
            <Position>
              <LatitudeDegrees>42.7170349471271038055419921875</LatitudeDegrees>
              <LongitudeDegrees>-0.221716426312923431396484375</LongitudeDegrees>
            </Position>
            <AltitudeMeters>1800.199951171875</AltitudeMeters>
            <DistanceMeters>7643.0660178011</DistanceMeters>
          </Trackpoint>
          <Trackpoint>
            <Time>2021-07-17T12:53:39.000Z</Time>
            <Position>
              <LatitudeDegrees>42.7170386351644992828369140625</LatitudeDegrees>
              <LongitudeDegrees>-0.22168600000441074371337890625</LongitudeDegrees>
            </Position>
            <AltitudeMeters>1799.800048828125</AltitudeMeters>
            <DistanceMeters>7645.5873614541</DistanceMeters>
          </Trackpoint>
          <Trackpoint>
            <Time>2021-07-17T12:53:46.000Z</Time>
            <Position>
              <LatitudeDegrees>42.7170657925307750701904296875</LatitudeDegrees>
              <LongitudeDegrees>-0.22160746157169342041015625</LongitudeDegrees>
            </Position>
            <AltitudeMeters>1797.5999755859375</AltitudeMeters>
            <DistanceMeters>7652.685163683</DistanceMeters>
          </Trackpoint>
          <Trackpoint>
            <Time>2021-07-17T12:53:56.000Z</Time>
            <Position>
              <LatitudeDegrees>42.71708381362259387969970703125</LatitudeDegrees>
              <LongitudeDegrees>-0.22149614989757537841796875</LongitudeDegrees>
            </Position>
            <AltitudeMeters>1795.800048828125</AltitudeMeters>
            <DistanceMeters>7662.0065045492</DistanceMeters>
          </Trackpoint>
          <Trackpoint>
            <Time>2021-07-17T12:54:03.000Z</Time>
            <Position>
              <LatitudeDegrees>42.717078365385532379150390625</LatitudeDegrees>
              <LongitudeDegrees>-0.22144627757370471954345703125</LongitudeDegrees>
            </Position>
            <AltitudeMeters>1795.4000244140625</AltitudeMeters>
            <DistanceMeters>7666.1289557457</DistanceMeters>
          </Trackpoint>
          <Trackpoint>
            <Time>2021-07-17T12:54:12.000Z</Time>
            <Position>
              <LatitudeDegrees>42.7170678041875362396240234375</LatitudeDegrees>
              <LongitudeDegrees>-0.22142347879707813262939453125</LongitudeDegrees>
            </Position>
            <AltitudeMeters>1795.800048828125</AltitudeMeters>
            <DistanceMeters>7668.3330839468</DistanceMeters>
          </Trackpoint>
          <Trackpoint>
            <Time>2021-07-17T12:54:14.000Z</Time>
            <Position>
              <LatitudeDegrees>42.71706252358853816986083984375</LatitudeDegrees>
              <LongitudeDegrees>-0.221428759396076202392578125</LongitudeDegrees>
            </Position>
            <AltitudeMeters>1796.199951171875</AltitudeMeters>
            <DistanceMeters>7669.0691577112</DistanceMeters>
          </Trackpoint>
          <Trackpoint>
            <Time>2021-07-17T12:54:24.000Z</Time>
            <Position>
              <LatitudeDegrees>42.71706252358853816986083984375</LatitudeDegrees>
              <LongitudeDegrees>-0.221428759396076202392578125</LongitudeDegrees>
            </Position>
            <AltitudeMeters>1796.199951171875</AltitudeMeters>
            <DistanceMeters>7669.0691577112</DistanceMeters>
          </Trackpoint>
          <Trackpoint>
            <Time>2021-07-17T12:54:45.000Z</Time>
            <Position>
              <LatitudeDegrees>42.7170901000499725341796875</LatitudeDegrees>
              <LongitudeDegrees>-0.2214101515710353851318359375</LongitudeDegrees>
            </Position>
            <AltitudeMeters>1794.4000244140625</AltitudeMeters>
            <DistanceMeters>7672.4953946232</DistanceMeters>
          </Trackpoint>
          <Trackpoint>
            <Time>2021-07-17T12:54:52.000Z</Time>
            <Position>
              <LatitudeDegrees>42.7170795388519763946533203125</LatitudeDegrees>
              <LongitudeDegrees>-0.2213521488010883331298828125</LongitudeDegrees>
            </Position>
            <AltitudeMeters>1794.4000244140625</AltitudeMeters>
            <DistanceMeters>7677.381653122</DistanceMeters>
          </Trackpoint>
          <Trackpoint>
            <Time>2021-07-17T12:54:57.000Z</Time>
            <Position>
              <LatitudeDegrees>42.717050202190876007080078125</LatitudeDegrees>
              <LongitudeDegrees>-0.22127226926386356353759765625</LongitudeDegrees>
            </Position>
            <AltitudeMeters>1795.4000244140625</AltitudeMeters>
            <DistanceMeters>7684.6845040364</DistanceMeters>
          </Trackpoint>
          <Trackpoint>
            <Time>2021-07-17T12:54:59.000Z</Time>
            <Position>
              <LatitudeDegrees>42.71703436039388179779052734375</LatitudeDegrees>
              <LongitudeDegrees>-0.22125466726720333099365234375</LongitudeDegrees>
            </Position>
            <AltitudeMeters>1796</AltitudeMeters>
            <DistanceMeters>7686.9591982582</DistanceMeters>
          </Trackpoint>
          <Trackpoint>
            <Time>2021-07-17T12:55:00.000Z</Time>
            <Position>
              <LatitudeDegrees>42.71703243255615234375</LatitudeDegrees>
              <LongitudeDegrees>-0.22125014103949069976806640625</LongitudeDegrees>
            </Position>
            <AltitudeMeters>1796</AltitudeMeters>
            <DistanceMeters>7687.3841706442</DistanceMeters>
          </Trackpoint>
          <Trackpoint>
            <Time>2021-07-17T12:55:02.000Z</Time>
            <Position>
              <LatitudeDegrees>42.71702581085264682769775390625</LatitudeDegrees>
              <LongitudeDegrees>-0.22123505361378192901611328125</LongitudeDegrees>
            </Position>
            <AltitudeMeters>1796.199951171875</AltitudeMeters>
            <DistanceMeters>7688.8221857712</DistanceMeters>
          </Trackpoint>
          <Trackpoint>
            <Time>2021-07-17T12:55:04.000Z</Time>
            <Position>
              <LatitudeDegrees>42.7170158363878726959228515625</LatitudeDegrees>
              <LongitudeDegrees>-0.221211500465869903564453125</LongitudeDegrees>
            </Position>
            <AltitudeMeters>1796.4000244140625</AltitudeMeters>
            <DistanceMeters>7691.0467041217</DistanceMeters>
          </Trackpoint>
          <Trackpoint>
            <Time>2021-07-17T12:55:05.000Z</Time>
            <Position>
              <LatitudeDegrees>42.71701256744563579559326171875</LatitudeDegrees>
              <LongitudeDegrees>-0.2212031185626983642578125</LongitudeDegrees>
            </Position>
            <AltitudeMeters>1796.4000244140625</AltitudeMeters>
            <DistanceMeters>7691.8187047987</DistanceMeters>
          </Trackpoint>
          <Trackpoint>
            <Time>2021-07-17T12:55:07.000Z</Time>
            <Position>
              <LatitudeDegrees>42.717002928256988525390625</LatitudeDegrees>
              <LongitudeDegrees>-0.2211818285286426544189453125</LongitudeDegrees>
            </Position>
            <AltitudeMeters>1796.800048828125</AltitudeMeters>
            <DistanceMeters>7693.8656428705</DistanceMeters>
          </Trackpoint>
          <Trackpoint>
            <Time>2021-07-17T12:55:10.000Z</Time>
            <Position>
              <LatitudeDegrees>42.716989181935787200927734375</LatitudeDegrees>
              <LongitudeDegrees>-0.221161209046840667724609375</LongitudeDegrees>
            </Position>
            <AltitudeMeters>1797.4000244140625</AltitudeMeters>
            <DistanceMeters>7696.1403370922</DistanceMeters>
          </Trackpoint>
          <Trackpoint>
            <Time>2021-07-17T12:55:11.000Z</Time>
            <Position>
              <LatitudeDegrees>42.71698323078453540802001953125</LatitudeDegrees>
              <LongitudeDegrees>-0.221157856285572052001953125</LongitudeDegrees>
            </Position>
            <AltitudeMeters>1797.800048828125</AltitudeMeters>
            <DistanceMeters>7696.8514519078</DistanceMeters>
          </Trackpoint>
          <Trackpoint>
            <Time>2021-07-17T12:55:14.000Z</Time>
            <Position>
              <LatitudeDegrees>42.71697434596717357635498046875</LatitudeDegrees>
              <LongitudeDegrees>-0.2211385779082775115966796875</LongitudeDegrees>
            </Position>
            <AltitudeMeters>1798.199951171875</AltitudeMeters>
            <DistanceMeters>7698.7135876049</DistanceMeters>
          </Trackpoint>
          <Trackpoint>
            <Time>2021-07-17T12:55:18.000Z</Time>
            <Position>
              <LatitudeDegrees>42.716969065368175506591796875</LatitudeDegrees>
              <LongitudeDegrees>-0.22111167199909687042236328125</LongitudeDegrees>
            </Position>
            <AltitudeMeters>1798.199951171875</AltitudeMeters>
            <DistanceMeters>7700.9902658603</DistanceMeters>
          </Trackpoint>
          <Trackpoint>
            <Time>2021-07-17T12:55:19.000Z</Time>
            <Position>
              <LatitudeDegrees>42.7169655449688434600830078125</LatitudeDegrees>
              <LongitudeDegrees>-0.22110454738140106201171875</LongitudeDegrees>
            </Position>
            <AltitudeMeters>1798.4000244140625</AltitudeMeters>
            <DistanceMeters>7701.6950028357</DistanceMeters>
          </Trackpoint>
          <Trackpoint>
            <Time>2021-07-17T12:55:26.000Z</Time>
            <Position>
              <LatitudeDegrees>42.71693394519388675689697265625</LatitudeDegrees>
              <LongitudeDegrees>-0.22104880772531032562255859375</LongitudeDegrees>
            </Position>
            <AltitudeMeters>1801</AltitudeMeters>
            <DistanceMeters>7707.4525553214</DistanceMeters>
          </Trackpoint>
          <Trackpoint>
            <Time>2021-07-17T12:55:27.000Z</Time>
            <Position>
              <LatitudeDegrees>42.71693377755582332611083984375</LatitudeDegrees>
              <LongitudeDegrees>-0.22103606723248958587646484375</LongitudeDegrees>
            </Position>
            <AltitudeMeters>1801.199951171875</AltitudeMeters>
            <DistanceMeters>7708.4935208219</DistanceMeters>
          </Trackpoint>
          <Trackpoint>
            <Time>2021-07-17T12:55:33.000Z</Time>
            <Position>
              <LatitudeDegrees>42.71692355163395404815673828125</LatitudeDegrees>
              <LongitudeDegrees>-0.2209947444498538970947265625</LongitudeDegrees>
            </Position>
            <AltitudeMeters>1801.800048828125</AltitudeMeters>
            <DistanceMeters>7712.0592392114</DistanceMeters>
          </Trackpoint>
          <Trackpoint>
            <Time>2021-07-17T12:55:34.000Z</Time>
            <Position>
              <LatitudeDegrees>42.71692522801458835601806640625</LatitudeDegrees>
              <LongitudeDegrees>-0.220995247364044189453125</LongitudeDegrees>
            </Position>
            <AltitudeMeters>1801.800048828125</AltitudeMeters>
            <DistanceMeters>7712.2492926401</DistanceMeters>
          </Trackpoint>
          <Trackpoint>
            <Time>2021-07-17T12:55:35.000Z</Time>
            <Position>
              <LatitudeDegrees>42.71692489273846149444580078125</LatitudeDegrees>
              <LongitudeDegrees>-0.22099616937339305877685546875</LongitudeDegrees>
            </Position>
            <AltitudeMeters>1801.800048828125</AltitudeMeters>
            <DistanceMeters>7712.3443193545</DistanceMeters>
          </Trackpoint>
          <Trackpoint>
            <Time>2021-07-17T12:55:43.000Z</Time>
            <Position>
              <LatitudeDegrees>42.71692254580557346343994140625</LatitudeDegrees>
              <LongitudeDegrees>-0.2209407649934291839599609375</LongitudeDegrees>
            </Position>
            <AltitudeMeters>1801.800048828125</AltitudeMeters>
            <DistanceMeters>7716.8837724543</DistanceMeters>
          </Trackpoint>
          <Trackpoint>
            <Time>2021-07-17T12:55:51.000Z</Time>
            <Position>
              <LatitudeDegrees>42.71693788468837738037109375</LatitudeDegrees>
              <LongitudeDegrees>-0.22086340002715587615966796875</LongitudeDegrees>
            </Position>
            <AltitudeMeters>1800.199951171875</AltitudeMeters>
            <DistanceMeters>7723.436482847</DistanceMeters>
          </Trackpoint>
          <Trackpoint>
            <Time>2021-07-17T12:55:52.000Z</Time>
            <Position>
              <LatitudeDegrees>42.71693511866033077239990234375</LatitudeDegrees>
              <LongitudeDegrees>-0.220851413905620574951171875</LongitudeDegrees>
            </Position>
            <AltitudeMeters>1800.4000244140625</AltitudeMeters>
            <DistanceMeters>7724.4599518829</DistanceMeters>
          </Trackpoint>
          <Trackpoint>
            <Time>2021-07-17T12:56:01.000Z</Time>
            <Position>
              <LatitudeDegrees>42.7169045247137546539306640625</LatitudeDegrees>
              <LongitudeDegrees>-0.22075979970395565032958984375</LongitudeDegrees>
            </Position>
            <AltitudeMeters>1803.800048828125</AltitudeMeters>
            <DistanceMeters>7732.6895067512</DistanceMeters>
          </Trackpoint>
          <Trackpoint>
            <Time>2021-07-17T12:56:04.000Z</Time>
            <Position>
              <LatitudeDegrees>42.71690796129405498504638671875</LatitudeDegrees>
              <LongitudeDegrees>-0.2207687683403491973876953125</LongitudeDegrees>
            </Position>
            <AltitudeMeters>1803.4000244140625</AltitudeMeters>
            <DistanceMeters>7733.512462238</DistanceMeters>
          </Trackpoint>
          <Trackpoint>
            <Time>2021-07-17T12:56:07.000Z</Time>
            <Position>
              <LatitudeDegrees>42.71690997295081615447998046875</LatitudeDegrees>
              <LongitudeDegrees>-0.220774300396442413330078125</LongitudeDegrees>
            </Position>
            <AltitudeMeters>1803</AltitudeMeters>
            <DistanceMeters>7734.0152963463</DistanceMeters>
          </Trackpoint>
          <Trackpoint>
            <Time>2021-07-17T12:56:08.000Z</Time>
            <Position>
              <LatitudeDegrees>42.71690863184630870819091796875</LatitudeDegrees>
              <LongitudeDegrees>-0.2207644097506999969482421875</LongitudeDegrees>
            </Position>
            <AltitudeMeters>1803.199951171875</AltitudeMeters>
            <DistanceMeters>7734.8327470524</DistanceMeters>
          </Trackpoint>
          <Trackpoint>
            <Time>2021-07-17T12:56:16.000Z</Time>
            <Position>
              <LatitudeDegrees>42.71691751666367053985595703125</LatitudeDegrees>
              <LongitudeDegrees>-0.2206755615770816802978515625</LongitudeDegrees>
            </Position>
            <AltitudeMeters>1802.4000244140625</AltitudeMeters>
            <DistanceMeters>7742.1652142461</DistanceMeters>
          </Trackpoint>
          <Trackpoint>
            <Time>2021-07-17T12:56:24.000Z</Time>
            <Position>
              <LatitudeDegrees>42.71690377034246921539306640625</LatitudeDegrees>
              <LongitudeDegrees>-0.22062619216740131378173828125</LongitudeDegrees>
            </Position>
            <AltitudeMeters>1803.800048828125</AltitudeMeters>
            <DistanceMeters>7746.4823982566</DistanceMeters>
          </Trackpoint>
          <Trackpoint>
            <Time>2021-07-17T12:56:28.000Z</Time>
            <Position>
              <LatitudeDegrees>42.71690511144697666168212890625</LatitudeDegrees>
              <LongitudeDegrees>-0.22063373588025569915771484375</LongitudeDegrees>
            </Position>
            <AltitudeMeters>1803.5999755859375</AltitudeMeters>
            <DistanceMeters>7747.1198568356</DistanceMeters>
          </Trackpoint>
          <Trackpoint>
            <Time>2021-07-17T12:56:33.000Z</Time>
            <Position>
              <LatitudeDegrees>42.716904692351818084716796875</LatitudeDegrees>
              <LongitudeDegrees>-0.22063423879444599151611328125</LongitudeDegrees>
            </Position>
            <AltitudeMeters>1803.800048828125</AltitudeMeters>
            <DistanceMeters>7747.1198568356</DistanceMeters>
          </Trackpoint>
          <Trackpoint>
            <Time>2021-07-17T12:56:41.000Z</Time>
            <Position>
              <LatitudeDegrees>42.716904692351818084716796875</LatitudeDegrees>
              <LongitudeDegrees>-0.22063423879444599151611328125</LongitudeDegrees>
            </Position>
            <AltitudeMeters>1803.800048828125</AltitudeMeters>
            <DistanceMeters>7747.1198568356</DistanceMeters>
          </Trackpoint>
          <Trackpoint>
            <Time>2021-07-17T12:56:44.000Z</Time>
            <Position>
              <LatitudeDegrees>42.716904021799564361572265625</LatitudeDegrees>
              <LongitudeDegrees>-0.22063423879444599151611328125</LongitudeDegrees>
            </Position>
            <AltitudeMeters>1803.800048828125</AltitudeMeters>
            <DistanceMeters>7747.1198568356</DistanceMeters>
          </Trackpoint>
          <Trackpoint>
            <Time>2021-07-17T12:56:46.000Z</Time>
            <Position>
              <LatitudeDegrees>42.716903351247310638427734375</LatitudeDegrees>
              <LongitudeDegrees>-0.22063423879444599151611328125</LongitudeDegrees>
            </Position>
            <AltitudeMeters>1803.800048828125</AltitudeMeters>
            <DistanceMeters>7747.1198568356</DistanceMeters>
          </Trackpoint>
          <Trackpoint>
            <Time>2021-07-17T12:56:49.000Z</Time>
            <Position>
              <LatitudeDegrees>42.716894634068012237548828125</LatitudeDegrees>
              <LongitudeDegrees>-0.22060691379010677337646484375</LongitudeDegrees>
            </Position>
            <AltitudeMeters>1804.5999755859375</AltitudeMeters>
            <DistanceMeters>7749.5574356138</DistanceMeters>
          </Trackpoint>
          <Trackpoint>
            <Time>2021-07-17T12:56:56.000Z</Time>
            <Position>
              <LatitudeDegrees>42.7168703265488147735595703125</LatitudeDegrees>
              <LongitudeDegrees>-0.22046442143619060516357421875</LongitudeDegrees>
            </Position>
            <AltitudeMeters>1806</AltitudeMeters>
            <DistanceMeters>7761.519861012</DistanceMeters>
          </Trackpoint>
          <Trackpoint>
            <Time>2021-07-17T12:56:58.000Z</Time>
            <Position>
              <LatitudeDegrees>42.71687409840524196624755859375</LatitudeDegrees>
              <LongitudeDegrees>-0.22045033983886241912841796875</LongitudeDegrees>
            </Position>
            <AltitudeMeters>1805.5999755859375</AltitudeMeters>
            <DistanceMeters>7762.7441945817</DistanceMeters>
          </Trackpoint>
          <Trackpoint>
            <Time>2021-07-17T12:57:04.000Z</Time>
            <Position>
              <LatitudeDegrees>42.716873846948146820068359375</LatitudeDegrees>
              <LongitudeDegrees>-0.22045117802917957305908203125</LongitudeDegrees>
            </Position>
            <AltitudeMeters>1805.5999755859375</AltitudeMeters>
            <DistanceMeters>7762.839221296</DistanceMeters>
          </Trackpoint>
          <Trackpoint>
            <Time>2021-07-17T12:57:14.000Z</Time>
            <Position>
              <LatitudeDegrees>42.71687082946300506591796875</LatitudeDegrees>
              <LongitudeDegrees>-0.2204532735049724578857421875</LongitudeDegrees>
            </Position>
            <AltitudeMeters>1805.800048828125</AltitudeMeters>
            <DistanceMeters>7763.2193281535</DistanceMeters>
          </Trackpoint>
          <Trackpoint>
            <Time>2021-07-17T12:57:17.000Z</Time>
            <Position>
              <LatitudeDegrees>42.71687082946300506591796875</LatitudeDegrees>
              <LongitudeDegrees>-0.2204532735049724578857421875</LongitudeDegrees>
            </Position>
            <AltitudeMeters>1805.800048828125</AltitudeMeters>
            <DistanceMeters>NAN</DistanceMeters>
          </Trackpoint>
          <Trackpoint>
            <Time>2021-07-17T12:57:24.000Z</Time>
            <Position>
              <LatitudeDegrees>42.716867811977863311767578125</LatitudeDegrees>
              <LongitudeDegrees>-0.2204536087810993194580078125</LongitudeDegrees>
            </Position>
            <AltitudeMeters>1806.199951171875</AltitudeMeters>
            <DistanceMeters>NAN</DistanceMeters>
          </Trackpoint>
          <Trackpoint>
            <Time>2021-07-17T12:57:30.000Z</Time>
            <Position>
              <LatitudeDegrees>42.716863453388214111328125</LatitudeDegrees>
              <LongitudeDegrees>-0.22046308033168315887451171875</LongitudeDegrees>
            </Position>
            <AltitudeMeters>1806.5999755859375</AltitudeMeters>
            <DistanceMeters>NAN</DistanceMeters>
          </Trackpoint>
          <Trackpoint>
            <Time>2021-07-17T12:57:34.000Z</Time>
            <Position>
              <LatitudeDegrees>42.716863453388214111328125</LatitudeDegrees>
              <LongitudeDegrees>-0.220463164150714874267578125</LongitudeDegrees>
            </Position>
            <AltitudeMeters>1806.5999755859375</AltitudeMeters>
            <DistanceMeters>NAN</DistanceMeters>
          </Trackpoint>
          <Trackpoint>
            <Time>2021-07-17T12:57:38.000Z</Time>
            <Position>
              <LatitudeDegrees>42.71685414947569370269775390625</LatitudeDegrees>
              <LongitudeDegrees>-0.22040449082851409912109375</LongitudeDegrees>
            </Position>
            <AltitudeMeters>1807</AltitudeMeters>
            <DistanceMeters>NAN</DistanceMeters>
          </Trackpoint>
          <Trackpoint>
            <Time>2021-07-17T12:57:46.000Z</Time>
            <Position>
              <LatitudeDegrees>42.716829590499401092529296875</LatitudeDegrees>
              <LongitudeDegrees>-0.2202517725527286529541015625</LongitudeDegrees>
            </Position>
            <AltitudeMeters>1810</AltitudeMeters>
            <DistanceMeters>NAN</DistanceMeters>
          </Trackpoint>
          <Trackpoint>
            <Time>2021-07-17T12:57:56.000Z</Time>
            <Position>
              <LatitudeDegrees>42.7167895250022411346435546875</LatitudeDegrees>
              <LongitudeDegrees>-0.22010802291333675384521484375</LongitudeDegrees>
            </Position>
            <AltitudeMeters>1813.199951171875</AltitudeMeters>
            <DistanceMeters>NAN</DistanceMeters>
          </Trackpoint>
          <Trackpoint>
            <Time>2021-07-17T12:58:04.000Z</Time>
            <Position>
              <LatitudeDegrees>42.7167358808219432830810546875</LatitudeDegrees>
              <LongitudeDegrees>-0.22000693716108798980712890625</LongitudeDegrees>
            </Position>
            <AltitudeMeters>1816</AltitudeMeters>
            <DistanceMeters>NAN</DistanceMeters>
          </Trackpoint>
          <Trackpoint>
            <Time>2021-07-17T12:58:05.000Z</Time>
            <Position>
              <LatitudeDegrees>42.71672741509974002838134765625</LatitudeDegrees>
              <LongitudeDegrees>-0.2199966274201869964599609375</LongitudeDegrees>
            </Position>
            <AltitudeMeters>1816.5999755859375</AltitudeMeters>
            <DistanceMeters>NAN</DistanceMeters>
          </Trackpoint>
          <Trackpoint>
            <Time>2021-07-17T12:58:08.000Z</Time>
            <Position>
              <LatitudeDegrees>42.71671148948371410369873046875</LatitudeDegrees>
              <LongitudeDegrees>-0.21997206844389438629150390625</LongitudeDegrees>
            </Position>
            <AltitudeMeters>1817.199951171875</AltitudeMeters>
            <DistanceMeters>NAN</DistanceMeters>
          </Trackpoint>
          <Trackpoint>
            <Time>2021-07-17T12:58:11.000Z</Time>
            <Position>
              <LatitudeDegrees>42.7167119085788726806640625</LatitudeDegrees>
              <LongitudeDegrees>-0.21995346061885356903076171875</LongitudeDegrees>
            </Position>
            <AltitudeMeters>1816.800048828125</AltitudeMeters>
            <DistanceMeters>NAN</DistanceMeters>
          </Trackpoint>
          <Trackpoint>
            <Time>2021-07-17T12:58:12.000Z</Time>
            <Position>
              <LatitudeDegrees>42.71671081893146038055419921875</LatitudeDegrees>
              <LongitudeDegrees>-0.2199483476579189300537109375</LongitudeDegrees>
            </Position>
            <AltitudeMeters>1816.800048828125</AltitudeMeters>
            <DistanceMeters>NAN</DistanceMeters>
          </Trackpoint>
          <Trackpoint>
            <Time>2021-07-17T12:58:15.000Z</Time>
            <Position>
              <LatitudeDegrees>42.716708220541477203369140625</LatitudeDegrees>
              <LongitudeDegrees>-0.2199285663664340972900390625</LongitudeDegrees>
            </Position>
            <AltitudeMeters>1816.5999755859375</AltitudeMeters>
            <DistanceMeters>NAN</DistanceMeters>
          </Trackpoint>
          <Trackpoint>
            <Time>2021-07-17T12:58:18.000Z</Time>
            <Position>
              <LatitudeDegrees>42.71670310758054256439208984375</LatitudeDegrees>
              <LongitudeDegrees>-0.21991088055074214935302734375</LongitudeDegrees>
            </Position>
            <AltitudeMeters>1816.5999755859375</AltitudeMeters>
            <DistanceMeters>NAN</DistanceMeters>
          </Trackpoint>
          <Trackpoint>
            <Time>2021-07-17T12:58:20.000Z</Time>
            <Position>
              <LatitudeDegrees>42.71669975481927394866943359375</LatitudeDegrees>
              <LongitudeDegrees>-0.21990157663822174072265625</LongitudeDegrees>
            </Position>
            <AltitudeMeters>1816.5999755859375</AltitudeMeters>
            <DistanceMeters>NAN</DistanceMeters>
          </Trackpoint>
          <Trackpoint>
            <Time>2021-07-17T12:58:27.000Z</Time>
            <Position>
              <LatitudeDegrees>42.71668441593647003173828125</LatitudeDegrees>
              <LongitudeDegrees>-0.21984801627695560455322265625</LongitudeDegrees>
            </Position>
            <AltitudeMeters>1816.4000244140625</AltitudeMeters>
            <DistanceMeters>NAN</DistanceMeters>
          </Trackpoint>
          <Trackpoint>
            <Time>2021-07-17T12:58:35.000Z</Time>
            <Position>
              <LatitudeDegrees>42.71667963825166225433349609375</LatitudeDegrees>
              <LongitudeDegrees>-0.21979269571602344512939453125</LongitudeDegrees>
            </Position>
            <AltitudeMeters>1815.199951171875</AltitudeMeters>
            <DistanceMeters>NAN</DistanceMeters>
          </Trackpoint>
          <Trackpoint>
            <Time>2021-07-17T12:58:36.000Z</Time>
            <Position>
              <LatitudeDegrees>42.71668282337486743927001953125</LatitudeDegrees>
              <LongitudeDegrees>-0.219782888889312744140625</LongitudeDegrees>
            </Position>
            <AltitudeMeters>1814.5999755859375</AltitudeMeters>
            <DistanceMeters>NAN</DistanceMeters>
          </Trackpoint>
          <Trackpoint>
            <Time>2021-07-17T12:58:39.000Z</Time>
            <Position>
              <LatitudeDegrees>42.7166869305074214935302734375</LatitudeDegrees>
              <LongitudeDegrees>-0.21974659524857997894287109375</LongitudeDegrees>
            </Position>
            <AltitudeMeters>1813.199951171875</AltitudeMeters>
            <DistanceMeters>NAN</DistanceMeters>
          </Trackpoint>
          <Trackpoint>
            <Time>2021-07-17T12:58:40.000Z</Time>
            <Position>
              <LatitudeDegrees>42.7166850864887237548828125</LatitudeDegrees>
              <LongitudeDegrees>-0.21973737515509128570556640625</LongitudeDegrees>
            </Position>
            <AltitudeMeters>1813.199951171875</AltitudeMeters>
            <DistanceMeters>NAN</DistanceMeters>
          </Trackpoint>
          <Trackpoint>
            <Time>2021-07-17T12:58:43.000Z</Time>
            <Position>
              <LatitudeDegrees>42.7166825719177722930908203125</LatitudeDegrees>
              <LongitudeDegrees>-0.21970334462821483612060546875</LongitudeDegrees>
            </Position>
            <AltitudeMeters>1812.4000244140625</AltitudeMeters>
            <DistanceMeters>NAN</DistanceMeters>
          </Trackpoint>
          <Trackpoint>
            <Time>2021-07-17T12:58:48.000Z</Time>
            <Position>
              <LatitudeDegrees>42.71668433211743831634521484375</LatitudeDegrees>
              <LongitudeDegrees>-0.21964115090668201446533203125</LongitudeDegrees>
            </Position>
            <AltitudeMeters>1810.4000244140625</AltitudeMeters>
            <DistanceMeters>NAN</DistanceMeters>
          </Trackpoint>
          <Trackpoint>
            <Time>2021-07-17T12:58:53.000Z</Time>
            <Position>
              <LatitudeDegrees>42.7166805602610111236572265625</LatitudeDegrees>
              <LongitudeDegrees>-0.2195621095597743988037109375</LongitudeDegrees>
            </Position>
            <AltitudeMeters>1809.5999755859375</AltitudeMeters>
            <DistanceMeters>NAN</DistanceMeters>
          </Trackpoint>
          <Trackpoint>
            <Time>2021-07-17T12:58:58.000Z</Time>
            <Position>
              <LatitudeDegrees>42.7166822366416454315185546875</LatitudeDegrees>
              <LongitudeDegrees>-0.2194920368492603302001953125</LongitudeDegrees>
            </Position>
            <AltitudeMeters>1808.5999755859375</AltitudeMeters>
            <DistanceMeters>NAN</DistanceMeters>
          </Trackpoint>
          <Trackpoint>
            <Time>2021-07-17T12:59:01.000Z</Time>
            <Position>
              <LatitudeDegrees>42.71668114699423313140869140625</LatitudeDegrees>
              <LongitudeDegrees>-0.2194491215050220489501953125</LongitudeDegrees>
            </Position>
            <AltitudeMeters>1808</AltitudeMeters>
            <DistanceMeters>NAN</DistanceMeters>
          </Trackpoint>
          <Trackpoint>
            <Time>2021-07-17T12:59:05.000Z</Time>
            <Position>
              <LatitudeDegrees>42.71667595021426677703857421875</LatitudeDegrees>
              <LongitudeDegrees>-0.21939287893474102020263671875</LongitudeDegrees>
            </Position>
            <AltitudeMeters>1807.4000244140625</AltitudeMeters>
            <DistanceMeters>NAN</DistanceMeters>
          </Trackpoint>
          <Trackpoint>
            <Time>2021-07-17T12:59:10.000Z</Time>
            <Position>
              <LatitudeDegrees>42.71667301654815673828125</LatitudeDegrees>
              <LongitudeDegrees>-0.21932582370936870574951171875</LongitudeDegrees>
            </Position>
            <AltitudeMeters>1807.800048828125</AltitudeMeters>
            <DistanceMeters>NAN</DistanceMeters>
          </Trackpoint>
          <Trackpoint>
            <Time>2021-07-17T12:59:19.000Z</Time>
            <Position>
              <LatitudeDegrees>42.716668657958507537841796875</LatitudeDegrees>
              <LongitudeDegrees>-0.2191968262195587158203125</LongitudeDegrees>
            </Position>
            <AltitudeMeters>1810.800048828125</AltitudeMeters>
            <DistanceMeters>NAN</DistanceMeters>
          </Trackpoint>
          <Trackpoint>
            <Time>2021-07-17T12:59:28.000Z</Time>
            <Position>
              <LatitudeDegrees>42.71662582643330097198486328125</LatitudeDegrees>
              <LongitudeDegrees>-0.21910403855144977569580078125</LongitudeDegrees>
            </Position>
            <AltitudeMeters>1814.800048828125</AltitudeMeters>
            <DistanceMeters>NAN</DistanceMeters>
          </Trackpoint>
          <Trackpoint>
            <Time>2021-07-17T12:59:35.000Z</Time>
            <Position>
              <LatitudeDegrees>42.71660394966602325439453125</LatitudeDegrees>
              <LongitudeDegrees>-0.2190548367798328399658203125</LongitudeDegrees>
            </Position>
            <AltitudeMeters>1817</AltitudeMeters>
            <DistanceMeters>NAN</DistanceMeters>
          </Trackpoint>
          <Trackpoint>
            <Time>2021-07-17T12:59:37.000Z</Time>
            <Position>
              <LatitudeDegrees>42.716600596904754638671875</LatitudeDegrees>
              <LongitudeDegrees>-0.21905190311372280120849609375</LongitudeDegrees>
            </Position>
            <AltitudeMeters>1817.199951171875</AltitudeMeters>
            <DistanceMeters>NAN</DistanceMeters>
          </Trackpoint>
          <Trackpoint>
            <Time>2021-07-17T12:59:41.000Z</Time>
            <Position>
              <LatitudeDegrees>42.71659850142896175384521484375</LatitudeDegrees>
              <LongitudeDegrees>-0.219040252268314361572265625</LongitudeDegrees>
            </Position>
            <AltitudeMeters>1817.5999755859375</AltitudeMeters>
            <DistanceMeters>NAN</DistanceMeters>
          </Trackpoint>
          <Trackpoint>
            <Time>2021-07-17T12:59:55.000Z</Time>
            <Position>
              <LatitudeDegrees>42.71659531630575656890869140625</LatitudeDegrees>
              <LongitudeDegrees>-0.219017453491687774658203125</LongitudeDegrees>
            </Position>
            <AltitudeMeters>1818.4000244140625</AltitudeMeters>
            <DistanceMeters>NAN</DistanceMeters>
          </Trackpoint>
          <Trackpoint>
            <Time>2021-07-17T12:59:57.000Z</Time>
            <Position>
              <LatitudeDegrees>42.71659590303897857666015625</LatitudeDegrees>
              <LongitudeDegrees>-0.21901778876781463623046875</LongitudeDegrees>
            </Position>
            <AltitudeMeters>1818.4000244140625</AltitudeMeters>
            <DistanceMeters>NAN</DistanceMeters>
          </Trackpoint>
          <Trackpoint>
            <Time>2021-07-17T13:00:04.000Z</Time>
            <Position>
              <LatitudeDegrees>42.71659590303897857666015625</LatitudeDegrees>
              <LongitudeDegrees>-0.21901778876781463623046875</LongitudeDegrees>
            </Position>
            <AltitudeMeters>1818.4000244140625</AltitudeMeters>
            <DistanceMeters>NAN</DistanceMeters>
          </Trackpoint>
          <Trackpoint>
            <Time>2021-07-17T13:00:36.000Z</Time>
            <Position>
              <LatitudeDegrees>42.7166027761995792388916015625</LatitudeDegrees>
              <LongitudeDegrees>-0.2190291881561279296875</LongitudeDegrees>
            </Position>
            <AltitudeMeters>1817.5999755859375</AltitudeMeters>
            <DistanceMeters>NAN</DistanceMeters>
          </Trackpoint>
          <Trackpoint>
            <Time>2021-07-17T13:00:38.000Z</Time>
            <Position>
              <LatitudeDegrees>42.71660302765667438507080078125</LatitudeDegrees>
              <LongitudeDegrees>-0.21902893669903278350830078125</LongitudeDegrees>
            </Position>
            <AltitudeMeters>1817.5999755859375</AltitudeMeters>
            <DistanceMeters>NAN</DistanceMeters>
          </Trackpoint>
          <Trackpoint>
            <Time>2021-07-17T13:00:40.000Z</Time>
            <Position>
              <LatitudeDegrees>42.71660403348505496978759765625</LatitudeDegrees>
              <LongitudeDegrees>-0.21902876906096935272216796875</LongitudeDegrees>
            </Position>
            <AltitudeMeters>1817.5999755859375</AltitudeMeters>
            <DistanceMeters>NAN</DistanceMeters>
          </Trackpoint>
          <Trackpoint>
            <Time>2021-07-17T13:00:49.000Z</Time>
            <Position>
              <LatitudeDegrees>42.7166098169982433319091796875</LatitudeDegrees>
              <LongitudeDegrees>-0.21902047097682952880859375</LongitudeDegrees>
            </Position>
            <AltitudeMeters>1817.4000244140625</AltitudeMeters>
            <DistanceMeters>NAN</DistanceMeters>
          </Trackpoint>
          <Trackpoint>
            <Time>2021-07-17T13:01:06.000Z</Time>
            <Position>
              <LatitudeDegrees>42.71661090664565563201904296875</LatitudeDegrees>
              <LongitudeDegrees>-0.21901586093008518218994140625</LongitudeDegrees>
            </Position>
            <AltitudeMeters>1817.5999755859375</AltitudeMeters>
            <DistanceMeters>NAN</DistanceMeters>
          </Trackpoint>
          <Trackpoint>
            <Time>2021-07-17T13:01:13.000Z</Time>
            <Position>
              <LatitudeDegrees>42.7166118286550045013427734375</LatitudeDegrees>
              <LongitudeDegrees>-0.2190182916820049285888671875</LongitudeDegrees>
            </Position>
            <AltitudeMeters>1817.4000244140625</AltitudeMeters>
            <DistanceMeters>NAN</DistanceMeters>
          </Trackpoint>
          <Trackpoint>
            <Time>2021-07-17T13:02:26.000Z</Time>
            <Position>
              <LatitudeDegrees>42.71661627106368541717529296875</LatitudeDegrees>
              <LongitudeDegrees>-0.21901267580687999725341796875</LongitudeDegrees>
            </Position>
            <AltitudeMeters>1817.199951171875</AltitudeMeters>
            <DistanceMeters>NAN</DistanceMeters>
          </Trackpoint>
          <Trackpoint>
            <Time>2021-07-17T13:02:28.000Z</Time>
            <Position>
              <LatitudeDegrees>42.716616354882717132568359375</LatitudeDegrees>
              <LongitudeDegrees>-0.21901267580687999725341796875</LongitudeDegrees>
            </Position>
            <AltitudeMeters>1817.199951171875</AltitudeMeters>
            <DistanceMeters>NAN</DistanceMeters>
          </Trackpoint>
          <Trackpoint>
            <Time>2021-07-17T13:02:40.000Z</Time>
            <Position>
              <LatitudeDegrees>42.71661643870174884796142578125</LatitudeDegrees>
              <LongitudeDegrees>-0.21901200525462627410888671875</LongitudeDegrees>
            </Position>
            <AltitudeMeters>1817.199951171875</AltitudeMeters>
            <DistanceMeters>NAN</DistanceMeters>
          </Trackpoint>
          <Trackpoint>
            <Time>2021-07-17T13:02:49.000Z</Time>
            <Position>
              <LatitudeDegrees>42.716615684330463409423828125</LatitudeDegrees>
              <LongitudeDegrees>-0.2190048806369304656982421875</LongitudeDegrees>
            </Position>
            <AltitudeMeters>1817.5999755859375</AltitudeMeters>
            <DistanceMeters>NAN</DistanceMeters>
          </Trackpoint>
          <Trackpoint>
            <Time>2021-07-17T13:02:52.000Z</Time>
            <Position>
              <LatitudeDegrees>42.71661593578755855560302734375</LatitudeDegrees>
              <LongitudeDegrees>-0.21899322979152202606201171875</LongitudeDegrees>
            </Position>
            <AltitudeMeters>1817.800048828125</AltitudeMeters>
            <DistanceMeters>NAN</DistanceMeters>
          </Trackpoint>
          <Trackpoint>
            <Time>2021-07-17T13:02:55.000Z</Time>
            <Position>
              <LatitudeDegrees>42.7166168577969074249267578125</LatitudeDegrees>
              <LongitudeDegrees>-0.218979902565479278564453125</LongitudeDegrees>
            </Position>
            <AltitudeMeters>1818</AltitudeMeters>
            <DistanceMeters>NAN</DistanceMeters>
          </Trackpoint>
          <Trackpoint>
            <Time>2021-07-17T13:02:57.000Z</Time>
            <Position>
              <LatitudeDegrees>42.71661761216819286346435546875</LatitudeDegrees>
              <LongitudeDegrees>-0.21897093392908573150634765625</LongitudeDegrees>
            </Position>
            <AltitudeMeters>1818.199951171875</AltitudeMeters>
            <DistanceMeters>NAN</DistanceMeters>
          </Trackpoint>
          <Trackpoint>
            <Time>2021-07-17T13:03:02.000Z</Time>
            <Position>
              <LatitudeDegrees>42.7166192047297954559326171875</LatitudeDegrees>
              <LongitudeDegrees>-0.21895182318985462188720703125</LongitudeDegrees>
            </Position>
            <AltitudeMeters>1818.5999755859375</AltitudeMeters>
            <DistanceMeters>NAN</DistanceMeters>
          </Trackpoint>
          <Trackpoint>
            <Time>2021-07-17T13:03:06.000Z</Time>
            <Position>
              <LatitudeDegrees>42.716619707643985748291015625</LatitudeDegrees>
              <LongitudeDegrees>-0.21894000470638275146484375</LongitudeDegrees>
            </Position>
            <AltitudeMeters>1819</AltitudeMeters>
            <DistanceMeters>NAN</DistanceMeters>
          </Trackpoint>
          <Trackpoint>
            <Time>2021-07-17T13:03:17.000Z</Time>
            <Position>
              <LatitudeDegrees>42.7166198752820491790771484375</LatitudeDegrees>
              <LongitudeDegrees>-0.21892257034778594970703125</LongitudeDegrees>
            </Position>
            <AltitudeMeters>1819.4000244140625</AltitudeMeters>
            <DistanceMeters>NAN</DistanceMeters>
          </Trackpoint>
          <Trackpoint>
            <Time>2021-07-17T13:03:19.000Z</Time>
            <Position>
              <LatitudeDegrees>42.7166198752820491790771484375</LatitudeDegrees>
              <LongitudeDegrees>-0.21892231889069080352783203125</LongitudeDegrees>
            </Position>
            <AltitudeMeters>1819.4000244140625</AltitudeMeters>
            <DistanceMeters>NAN</DistanceMeters>
          </Trackpoint>
          <Trackpoint>
            <Time>2021-07-17T13:03:21.000Z</Time>
            <Position>
              <LatitudeDegrees>42.7166198752820491790771484375</LatitudeDegrees>
              <LongitudeDegrees>-0.21892215125262737274169921875</LongitudeDegrees>
            </Position>
            <AltitudeMeters>1819.4000244140625</AltitudeMeters>
            <DistanceMeters>NAN</DistanceMeters>
          </Trackpoint>
          <Trackpoint>
            <Time>2021-07-17T13:03:24.000Z</Time>
            <Position>
              <LatitudeDegrees>42.7166198752820491790771484375</LatitudeDegrees>
              <LongitudeDegrees>-0.2189217321574687957763671875</LongitudeDegrees>
            </Position>
            <AltitudeMeters>1819.4000244140625</AltitudeMeters>
            <DistanceMeters>NAN</DistanceMeters>
          </Trackpoint>
          <Trackpoint>
            <Time>2021-07-17T13:03:27.000Z</Time>
            <Position>
              <LatitudeDegrees>42.71661979146301746368408203125</LatitudeDegrees>
              <LongitudeDegrees>-0.21892131306231021881103515625</LongitudeDegrees>
            </Position>
            <AltitudeMeters>1819.4000244140625</AltitudeMeters>
            <DistanceMeters>NAN</DistanceMeters>
          </Trackpoint>
          <Trackpoint>
            <Time>2021-07-17T13:03:34.000Z</Time>
            <Position>
              <LatitudeDegrees>42.7166195400059223175048828125</LatitudeDegrees>
              <LongitudeDegrees>-0.21892047487199306488037109375</LongitudeDegrees>
            </Position>
            <AltitudeMeters>1819.4000244140625</AltitudeMeters>
            <DistanceMeters>NAN</DistanceMeters>
          </Trackpoint>
          <Trackpoint>
            <Time>2021-07-17T13:03:40.000Z</Time>
            <Position>
              <LatitudeDegrees>42.71661937236785888671875</LatitudeDegrees>
              <LongitudeDegrees>-0.21891963668167591094970703125</LongitudeDegrees>
            </Position>
            <AltitudeMeters>1819.4000244140625</AltitudeMeters>
            <DistanceMeters>NAN</DistanceMeters>
          </Trackpoint>
          <Trackpoint>
            <Time>2021-07-17T13:03:42.000Z</Time>
            <Position>
              <LatitudeDegrees>42.71661928854882717132568359375</LatitudeDegrees>
              <LongitudeDegrees>-0.2189193852245807647705078125</LongitudeDegrees>
            </Position>
            <AltitudeMeters>1819.4000244140625</AltitudeMeters>
            <DistanceMeters>NAN</DistanceMeters>
          </Trackpoint>
          <Trackpoint>
            <Time>2021-07-17T13:03:44.000Z</Time>
            <Position>
              <LatitudeDegrees>42.7166192047297954559326171875</LatitudeDegrees>
              <LongitudeDegrees>-0.21891913376748561859130859375</LongitudeDegrees>
            </Position>
            <AltitudeMeters>1819.4000244140625</AltitudeMeters>
            <DistanceMeters>NAN</DistanceMeters>
          </Trackpoint>
          <Trackpoint>
            <Time>2021-07-17T13:03:46.000Z</Time>
            <Position>
              <LatitudeDegrees>42.71661912091076374053955078125</LatitudeDegrees>
              <LongitudeDegrees>-0.218918882310390472412109375</LongitudeDegrees>
            </Position>
            <AltitudeMeters>1819.4000244140625</AltitudeMeters>
            <DistanceMeters>NAN</DistanceMeters>
          </Trackpoint>
          <Trackpoint>
            <Time>2021-07-17T13:03:48.000Z</Time>
            <Position>
              <LatitudeDegrees>42.716619037091732025146484375</LatitudeDegrees>
              <LongitudeDegrees>-0.21891863085329532623291015625</LongitudeDegrees>
            </Position>
            <AltitudeMeters>1819.4000244140625</AltitudeMeters>
            <DistanceMeters>NAN</DistanceMeters>
          </Trackpoint>
          <Trackpoint>
            <Time>2021-07-17T13:03:53.000Z</Time>
            <Position>
              <LatitudeDegrees>42.71661878563463687896728515625</LatitudeDegrees>
              <LongitudeDegrees>-0.2189178764820098876953125</LongitudeDegrees>
            </Position>
            <AltitudeMeters>1819.4000244140625</AltitudeMeters>
            <DistanceMeters>NAN</DistanceMeters>
          </Trackpoint>
          <Trackpoint>
            <Time>2021-07-17T13:03:58.000Z</Time>
            <Position>
              <LatitudeDegrees>42.7166185341775417327880859375</LatitudeDegrees>
              <LongitudeDegrees>-0.2189170382916927337646484375</LongitudeDegrees>
            </Position>
            <AltitudeMeters>1819.5999755859375</AltitudeMeters>
            <DistanceMeters>NAN</DistanceMeters>
          </Trackpoint>
          <Trackpoint>
            <Time>2021-07-17T13:04:01.000Z</Time>
            <Position>
              <LatitudeDegrees>42.716618366539478302001953125</LatitudeDegrees>
              <LongitudeDegrees>-0.2189163677394390106201171875</LongitudeDegrees>
            </Position>
            <AltitudeMeters>1819.5999755859375</AltitudeMeters>
            <DistanceMeters>NAN</DistanceMeters>
          </Trackpoint>
          <Trackpoint>
            <Time>2021-07-17T13:04:03.000Z</Time>
            <Position>
              <LatitudeDegrees>42.7166181989014148712158203125</LatitudeDegrees>
              <LongitudeDegrees>-0.21891594864428043365478515625</LongitudeDegrees>
            </Position>
            <AltitudeMeters>1819.5999755859375</AltitudeMeters>
            <DistanceMeters>NAN</DistanceMeters>
          </Trackpoint>
          <Trackpoint>
            <Time>2021-07-17T13:04:05.000Z</Time>
            <Position>
              <LatitudeDegrees>42.71659682504832744598388671875</LatitudeDegrees>
              <LongitudeDegrees>-0.2188561856746673583984375</LongitudeDegrees>
            </Position>
            <AltitudeMeters>1820</AltitudeMeters>
            <DistanceMeters>NAN</DistanceMeters>
          </Trackpoint>
          <Trackpoint>
            <Time>2021-07-17T13:04:07.000Z</Time>
            <Position>
              <LatitudeDegrees>42.716568410396575927734375</LatitudeDegrees>
              <LongitudeDegrees>-0.21878519095480442047119140625</LongitudeDegrees>
            </Position>
            <AltitudeMeters>1821.199951171875</AltitudeMeters>
            <DistanceMeters>NAN</DistanceMeters>
          </Trackpoint>
          <Trackpoint>
            <Time>2021-07-17T13:04:08.000Z</Time>
            <Position>
              <LatitudeDegrees>42.71655608899891376495361328125</LatitudeDegrees>
              <LongitudeDegrees>-0.2187490649521350860595703125</LongitudeDegrees>
            </Position>
            <AltitudeMeters>1822.4000244140625</AltitudeMeters>
            <DistanceMeters>NAN</DistanceMeters>
          </Trackpoint>
          <Trackpoint>
            <Time>2021-07-17T13:04:09.000Z</Time>
            <Position>
              <LatitudeDegrees>42.71654603071510791778564453125</LatitudeDegrees>
              <LongitudeDegrees>-0.21871109493076801300048828125</LongitudeDegrees>
            </Position>
            <AltitudeMeters>1823.5999755859375</AltitudeMeters>
            <DistanceMeters>NAN</DistanceMeters>
          </Trackpoint>
          <Trackpoint>
            <Time>2021-07-17T13:04:12.000Z</Time>
            <Position>
              <LatitudeDegrees>42.71650764159858226776123046875</LatitudeDegrees>
              <LongitudeDegrees>-0.2186062373220920562744140625</LongitudeDegrees>
            </Position>
            <AltitudeMeters>1825.4000244140625</AltitudeMeters>
            <DistanceMeters>NAN</DistanceMeters>
          </Trackpoint>
          <Trackpoint>
            <Time>2021-07-17T13:04:13.000Z</Time>
            <Position>
              <LatitudeDegrees>42.716495990753173828125</LatitudeDegrees>
              <LongitudeDegrees>-0.21857321262359619140625</LongitudeDegrees>
            </Position>
            <AltitudeMeters>1825.800048828125</AltitudeMeters>
            <DistanceMeters>NAN</DistanceMeters>
          </Trackpoint>
          <Trackpoint>
            <Time>2021-07-17T13:04:17.000Z</Time>
            <Position>
              <LatitudeDegrees>42.7164877764880657196044921875</LatitudeDegrees>
              <LongitudeDegrees>-0.21854664199054241180419921875</LongitudeDegrees>
            </Position>
            <AltitudeMeters>1826.199951171875</AltitudeMeters>
            <DistanceMeters>NAN</DistanceMeters>
          </Trackpoint>
          <Trackpoint>
            <Time>2021-07-17T13:04:18.000Z</Time>
            <Position>
              <LatitudeDegrees>42.71648534573614597320556640625</LatitudeDegrees>
              <LongitudeDegrees>-0.21853758953511714935302734375</LongitudeDegrees>
            </Position>
            <AltitudeMeters>1826.4000244140625</AltitudeMeters>
            <DistanceMeters>NAN</DistanceMeters>
          </Trackpoint>
          <Trackpoint>
            <Time>2021-07-17T13:04:22.000Z</Time>
            <Position>
              <LatitudeDegrees>42.71647411398589611053466796875</LatitudeDegrees>
              <LongitudeDegrees>-0.2184996195137500762939453125</LongitudeDegrees>
            </Position>
            <AltitudeMeters>1827.199951171875</AltitudeMeters>
            <DistanceMeters>NAN</DistanceMeters>
          </Trackpoint>
          <Trackpoint>
            <Time>2021-07-17T13:04:27.000Z</Time>
            <Position>
              <LatitudeDegrees>42.716471850872039794921875</LatitudeDegrees>
              <LongitudeDegrees>-0.218446142971515655517578125</LongitudeDegrees>
            </Position>
            <AltitudeMeters>1827.4000244140625</AltitudeMeters>
            <DistanceMeters>NAN</DistanceMeters>
          </Trackpoint>
          <Trackpoint>
            <Time>2021-07-17T13:04:35.000Z</Time>
            <Position>
              <LatitudeDegrees>42.7164639718830585479736328125</LatitudeDegrees>
              <LongitudeDegrees>-0.2183742262423038482666015625</LongitudeDegrees>
            </Position>
            <AltitudeMeters>1827.5999755859375</AltitudeMeters>
            <DistanceMeters>NAN</DistanceMeters>
          </Trackpoint>
          <Trackpoint>
            <Time>2021-07-17T13:04:36.000Z</Time>
            <Position>
              <LatitudeDegrees>42.71646455861628055572509765625</LatitudeDegrees>
              <LongitudeDegrees>-0.2183733880519866943359375</LongitudeDegrees>
            </Position>
            <AltitudeMeters>1827.5999755859375</AltitudeMeters>
            <DistanceMeters>NAN</DistanceMeters>
          </Trackpoint>
          <Trackpoint>
            <Time>2021-07-17T13:04:40.000Z</Time>
            <Position>
              <LatitudeDegrees>42.71646154113113880157470703125</LatitudeDegrees>
              <LongitudeDegrees>-0.2183591388165950775146484375</LongitudeDegrees>
            </Position>
            <AltitudeMeters>1827.5999755859375</AltitudeMeters>
            <DistanceMeters>NAN</DistanceMeters>
          </Trackpoint>
          <Trackpoint>
            <Time>2021-07-17T13:04:45.000Z</Time>
            <Position>
              <LatitudeDegrees>42.71646237932145595550537109375</LatitudeDegrees>
              <LongitudeDegrees>-0.21831764839589595794677734375</LongitudeDegrees>
            </Position>
            <AltitudeMeters>1827.800048828125</AltitudeMeters>
            <DistanceMeters>NAN</DistanceMeters>
          </Trackpoint>
          <Trackpoint>
            <Time>2021-07-17T13:04:55.000Z</Time>
            <Position>
              <LatitudeDegrees>42.71643807180225849151611328125</LatitudeDegrees>
              <LongitudeDegrees>-0.2181931771337985992431640625</LongitudeDegrees>
            </Position>
            <AltitudeMeters>1829.199951171875</AltitudeMeters>
            <DistanceMeters>NAN</DistanceMeters>
          </Trackpoint>
          <Trackpoint>
            <Time>2021-07-17T13:05:08.000Z</Time>
            <Position>
              <LatitudeDegrees>42.716407142579555511474609375</LatitudeDegrees>
              <LongitudeDegrees>-0.21805076859891414642333984375</LongitudeDegrees>
            </Position>
            <AltitudeMeters>1832</AltitudeMeters>
            <DistanceMeters>NAN</DistanceMeters>
          </Trackpoint>
          <Trackpoint>
            <Time>2021-07-17T13:05:16.000Z</Time>
            <Position>
              <LatitudeDegrees>42.7163945697247982025146484375</LatitudeDegrees>
              <LongitudeDegrees>-0.21799745969474315643310546875</LongitudeDegrees>
            </Position>
            <AltitudeMeters>1832.4000244140625</AltitudeMeters>
            <DistanceMeters>NAN</DistanceMeters>
          </Trackpoint>
          <Trackpoint>
            <Time>2021-07-17T13:05:26.000Z</Time>
            <Position>
              <LatitudeDegrees>42.71639230661094188690185546875</LatitudeDegrees>
              <LongitudeDegrees>-0.217986144125461578369140625</LongitudeDegrees>
            </Position>
            <AltitudeMeters>1832.199951171875</AltitudeMeters>
            <DistanceMeters>NAN</DistanceMeters>
          </Trackpoint>
          <Trackpoint>
            <Time>2021-07-17T13:05:34.000Z</Time>
            <Position>
              <LatitudeDegrees>42.71637772209942340850830078125</LatitudeDegrees>
              <LongitudeDegrees>-0.21792436949908733367919921875</LongitudeDegrees>
            </Position>
            <AltitudeMeters>1832.5999755859375</AltitudeMeters>
            <DistanceMeters>NAN</DistanceMeters>
          </Trackpoint>
          <Trackpoint>
            <Time>2021-07-17T13:05:35.000Z</Time>
            <Position>
              <LatitudeDegrees>42.716378979384899139404296875</LatitudeDegrees>
              <LongitudeDegrees>-0.2179133892059326171875</LongitudeDegrees>
            </Position>
            <AltitudeMeters>1832.800048828125</AltitudeMeters>
            <DistanceMeters>NAN</DistanceMeters>
          </Trackpoint>
          <Trackpoint>
            <Time>2021-07-17T13:05:37.000Z</Time>
            <Position>
              <LatitudeDegrees>42.716380320489406585693359375</LatitudeDegrees>
              <LongitudeDegrees>-0.21789721213281154632568359375</LongitudeDegrees>
            </Position>
            <AltitudeMeters>1832.800048828125</AltitudeMeters>
            <DistanceMeters>NAN</DistanceMeters>
          </Trackpoint>
          <Trackpoint>
            <Time>2021-07-17T13:05:39.000Z</Time>
            <Position>
              <LatitudeDegrees>42.71638040430843830108642578125</LatitudeDegrees>
              <LongitudeDegrees>-0.21787491627037525177001953125</LongitudeDegrees>
            </Position>
            <AltitudeMeters>1833</AltitudeMeters>
            <DistanceMeters>NAN</DistanceMeters>
          </Trackpoint>
          <Trackpoint>
            <Time>2021-07-17T13:05:41.000Z</Time>
            <Position>
              <LatitudeDegrees>42.71638610400259494781494140625</LatitudeDegrees>
              <LongitudeDegrees>-0.21785647608339786529541015625</LongitudeDegrees>
            </Position>
            <AltitudeMeters>1833</AltitudeMeters>
            <DistanceMeters>NAN</DistanceMeters>
          </Trackpoint>
          <Trackpoint>
            <Time>2021-07-17T13:05:43.000Z</Time>
            <Position>
              <LatitudeDegrees>42.71639448590576648712158203125</LatitudeDegrees>
              <LongitudeDegrees>-0.21783468313515186309814453125</LongitudeDegrees>
            </Position>
            <AltitudeMeters>1833.199951171875</AltitudeMeters>
            <DistanceMeters>NAN</DistanceMeters>
          </Trackpoint>
          <Trackpoint>
            <Time>2021-07-17T13:05:44.000Z</Time>
            <Position>
              <LatitudeDegrees>42.71640144288539886474609375</LatitudeDegrees>
              <LongitudeDegrees>-0.21782428957521915435791015625</LongitudeDegrees>
            </Position>
            <AltitudeMeters>1833.199951171875</AltitudeMeters>
            <DistanceMeters>NAN</DistanceMeters>
          </Trackpoint>
          <Trackpoint>
            <Time>2021-07-17T13:05:45.000Z</Time>
            <Position>
              <LatitudeDegrees>42.7164032869040966033935546875</LatitudeDegrees>
              <LongitudeDegrees>-0.21781506948173046112060546875</LongitudeDegrees>
            </Position>
            <AltitudeMeters>1833.4000244140625</AltitudeMeters>
            <DistanceMeters>NAN</DistanceMeters>
          </Trackpoint>
          <Trackpoint>
            <Time>2021-07-17T13:05:47.000Z</Time>
            <Position>
              <LatitudeDegrees>42.7164022810757160186767578125</LatitudeDegrees>
              <LongitudeDegrees>-0.21779763512313365936279296875</LongitudeDegrees>
            </Position>
            <AltitudeMeters>1833.4000244140625</AltitudeMeters>
            <DistanceMeters>NAN</DistanceMeters>
          </Trackpoint>
          <Trackpoint>
            <Time>2021-07-17T13:05:49.000Z</Time>
            <Position>
              <LatitudeDegrees>42.7164056338369846343994140625</LatitudeDegrees>
              <LongitudeDegrees>-0.217781625688076019287109375</LongitudeDegrees>
            </Position>
            <AltitudeMeters>1833.5999755859375</AltitudeMeters>
            <DistanceMeters>NAN</DistanceMeters>
          </Trackpoint>
          <Trackpoint>
            <Time>2021-07-17T13:05:52.000Z</Time>
            <Position>
              <LatitudeDegrees>42.716415189206600189208984375</LatitudeDegrees>
              <LongitudeDegrees>-0.21775337867438793182373046875</LongitudeDegrees>
            </Position>
            <AltitudeMeters>1833.800048828125</AltitudeMeters>
            <DistanceMeters>NAN</DistanceMeters>
          </Trackpoint>
          <Trackpoint>
            <Time>2021-07-17T13:05:54.000Z</Time>
            <Position>
              <LatitudeDegrees>42.7164160273969173431396484375</LatitudeDegrees>
              <LongitudeDegrees>-0.2177321724593639373779296875</LongitudeDegrees>
            </Position>
            <AltitudeMeters>1833.800048828125</AltitudeMeters>
            <DistanceMeters>NAN</DistanceMeters>
          </Trackpoint>
          <Trackpoint>
            <Time>2021-07-17T13:05:56.000Z</Time>
            <Position>
              <LatitudeDegrees>42.71642097271978855133056640625</LatitudeDegrees>
              <LongitudeDegrees>-0.21771364845335483551025390625</LongitudeDegrees>
            </Position>
            <AltitudeMeters>1834</AltitudeMeters>
            <DistanceMeters>NAN</DistanceMeters>
          </Trackpoint>
          <Trackpoint>
            <Time>2021-07-17T13:05:58.000Z</Time>
            <Position>
              <LatitudeDegrees>42.7164234034717082977294921875</LatitudeDegrees>
              <LongitudeDegrees>-0.21769118495285511016845703125</LongitudeDegrees>
            </Position>
            <AltitudeMeters>1834.4000244140625</AltitudeMeters>
            <DistanceMeters>NAN</DistanceMeters>
          </Trackpoint>
          <Trackpoint>
            <Time>2021-07-17T13:06:00.000Z</Time>
            <Position>
              <LatitudeDegrees>42.716422565281391143798828125</LatitudeDegrees>
              <LongitudeDegrees>-0.2176758460700511932373046875</LongitudeDegrees>
            </Position>
            <AltitudeMeters>1834.5999755859375</AltitudeMeters>
            <DistanceMeters>NAN</DistanceMeters>
          </Trackpoint>
          <Trackpoint>
            <Time>2021-07-17T13:06:01.000Z</Time>
            <Position>
              <LatitudeDegrees>42.71642281673848628997802734375</LatitudeDegrees>
              <LongitudeDegrees>-0.217672325670719146728515625</LongitudeDegrees>
            </Position>
            <AltitudeMeters>1834.5999755859375</AltitudeMeters>
            <DistanceMeters>NAN</DistanceMeters>
          </Trackpoint>
          <Trackpoint>
            <Time>2021-07-17T13:06:02.000Z</Time>
            <Position>
              <LatitudeDegrees>42.71642365492880344390869140625</LatitudeDegrees>
              <LongitudeDegrees>-0.2176651172339916229248046875</LongitudeDegrees>
            </Position>
            <AltitudeMeters>1834.5999755859375</AltitudeMeters>
            <DistanceMeters>NAN</DistanceMeters>
          </Trackpoint>
          <Trackpoint>
            <Time>2021-07-17T13:06:04.000Z</Time>
            <Position>
              <LatitudeDegrees>42.71643170155584812164306640625</LatitudeDegrees>
              <LongitudeDegrees>-0.21764743141829967498779296875</LongitudeDegrees>
            </Position>
            <AltitudeMeters>1834.800048828125</AltitudeMeters>
            <DistanceMeters>NAN</DistanceMeters>
          </Trackpoint>
          <Trackpoint>
            <Time>2021-07-17T13:06:08.000Z</Time>
            <Position>
              <LatitudeDegrees>42.71644159220159053802490234375</LatitudeDegrees>
              <LongitudeDegrees>-0.21761574782431125640869140625</LongitudeDegrees>
            </Position>
            <AltitudeMeters>1835</AltitudeMeters>
            <DistanceMeters>NAN</DistanceMeters>
          </Trackpoint>
          <Trackpoint>
            <Time>2021-07-17T13:06:09.000Z</Time>
            <Position>
              <LatitudeDegrees>42.7164383232593536376953125</LatitudeDegrees>
              <LongitudeDegrees>-0.2176084555685520172119140625</LongitudeDegrees>
            </Position>
            <AltitudeMeters>1835</AltitudeMeters>
            <DistanceMeters>NAN</DistanceMeters>
          </Trackpoint>
          <Trackpoint>
            <Time>2021-07-17T13:06:19.000Z</Time>
            <Position>
              <LatitudeDegrees>42.71643119864165782928466796875</LatitudeDegrees>
              <LongitudeDegrees>-0.21754869259893894195556640625</LongitudeDegrees>
            </Position>
            <AltitudeMeters>1835.800048828125</AltitudeMeters>
            <DistanceMeters>NAN</DistanceMeters>
          </Trackpoint>
          <Trackpoint>
            <Time>2021-07-17T13:06:31.000Z</Time>
            <Position>
              <LatitudeDegrees>42.716433294117450714111328125</LatitudeDegrees>
              <LongitudeDegrees>-0.217557661235332489013671875</LongitudeDegrees>
            </Position>
            <AltitudeMeters>1835.5999755859375</AltitudeMeters>
            <DistanceMeters>NAN</DistanceMeters>
          </Trackpoint>
          <Trackpoint>
            <Time>2021-07-17T13:06:43.000Z</Time>
            <Position>
              <LatitudeDegrees>42.71647176705300807952880859375</LatitudeDegrees>
              <LongitudeDegrees>-0.21750661544501781463623046875</LongitudeDegrees>
            </Position>
            <AltitudeMeters>1836</AltitudeMeters>
            <DistanceMeters>NAN</DistanceMeters>
          </Trackpoint>
          <Trackpoint>
            <Time>2021-07-17T13:06:46.000Z</Time>
            <Position>
              <LatitudeDegrees>42.7164995111525058746337890625</LatitudeDegrees>
              <LongitudeDegrees>-0.21745665930211544036865234375</LongitudeDegrees>
            </Position>
            <AltitudeMeters>1836.199951171875</AltitudeMeters>
            <DistanceMeters>NAN</DistanceMeters>
          </Trackpoint>
          <Trackpoint>
            <Time>2021-07-17T13:06:47.000Z</Time>
            <Position>
              <LatitudeDegrees>42.71650604903697967529296875</LatitudeDegrees>
              <LongitudeDegrees>-0.21744274534285068511962890625</LongitudeDegrees>
            </Position>
            <AltitudeMeters>1836.4000244140625</AltitudeMeters>
            <DistanceMeters>NAN</DistanceMeters>
          </Trackpoint>
          <Trackpoint>
            <Time>2021-07-17T13:06:52.000Z</Time>
            <Position>
              <LatitudeDegrees>42.71651367656886577606201171875</LatitudeDegrees>
              <LongitudeDegrees>-0.21738256327807903289794921875</LongitudeDegrees>
            </Position>
            <AltitudeMeters>1836.5999755859375</AltitudeMeters>
            <DistanceMeters>NAN</DistanceMeters>
          </Trackpoint>
          <Trackpoint>
            <Time>2021-07-17T13:07:00.000Z</Time>
            <Position>
              <LatitudeDegrees>42.7165296860039234161376953125</LatitudeDegrees>
              <LongitudeDegrees>-0.21730310283601284027099609375</LongitudeDegrees>
            </Position>
            <AltitudeMeters>1837</AltitudeMeters>
            <DistanceMeters>NAN</DistanceMeters>
          </Trackpoint>
          <Trackpoint>
            <Time>2021-07-17T13:07:11.000Z</Time>
            <Position>
              <LatitudeDegrees>42.7165601961314678192138671875</LatitudeDegrees>
              <LongitudeDegrees>-0.21717133931815624237060546875</LongitudeDegrees>
            </Position>
            <AltitudeMeters>1837.5999755859375</AltitudeMeters>
            <DistanceMeters>NAN</DistanceMeters>
          </Trackpoint>
          <Trackpoint>
            <Time>2021-07-17T13:07:19.000Z</Time>
            <Position>
              <LatitudeDegrees>42.716559357941150665283203125</LatitudeDegrees>
              <LongitudeDegrees>-0.2171008475124835968017578125</LongitudeDegrees>
            </Position>
            <AltitudeMeters>1838.199951171875</AltitudeMeters>
            <DistanceMeters>NAN</DistanceMeters>
          </Trackpoint>
          <Trackpoint>
            <Time>2021-07-17T13:07:25.000Z</Time>
            <Position>
              <LatitudeDegrees>42.7165692485868930816650390625</LatitudeDegrees>
              <LongitudeDegrees>-0.2170612849295139312744140625</LongitudeDegrees>
            </Position>
            <AltitudeMeters>1838.5999755859375</AltitudeMeters>
            <DistanceMeters>NAN</DistanceMeters>
          </Trackpoint>
          <Trackpoint>
            <Time>2021-07-17T13:07:36.000Z</Time>
            <Position>
              <LatitudeDegrees>42.71656849421560764312744140625</LatitudeDegrees>
              <LongitudeDegrees>-0.21705935709178447723388671875</LongitudeDegrees>
            </Position>
            <AltitudeMeters>1838.5999755859375</AltitudeMeters>
            <DistanceMeters>NAN</DistanceMeters>
          </Trackpoint>
          <Trackpoint>
            <Time>2021-07-17T13:07:52.000Z</Time>
            <Position>
              <LatitudeDegrees>42.7165648899972438812255859375</LatitudeDegrees>
              <LongitudeDegrees>-0.217046700417995452880859375</LongitudeDegrees>
            </Position>
            <AltitudeMeters>1838.800048828125</AltitudeMeters>
            <DistanceMeters>NAN</DistanceMeters>
          </Trackpoint>
          <Trackpoint>
            <Time>2021-07-17T13:07:55.000Z</Time>
            <Position>
              <LatitudeDegrees>42.71655424498021602630615234375</LatitudeDegrees>
              <LongitudeDegrees>-0.2169975824654102325439453125</LongitudeDegrees>
            </Position>
            <AltitudeMeters>1839.4000244140625</AltitudeMeters>
            <DistanceMeters>NAN</DistanceMeters>
          </Trackpoint>
          <Trackpoint>
            <Time>2021-07-17T13:07:56.000Z</Time>
            <Position>
              <LatitudeDegrees>42.71654871292412281036376953125</LatitudeDegrees>
              <LongitudeDegrees>-0.21697872318327426910400390625</LongitudeDegrees>
            </Position>
            <AltitudeMeters>1839.800048828125</AltitudeMeters>
            <DistanceMeters>NAN</DistanceMeters>
          </Trackpoint>
          <Trackpoint>
            <Time>2021-07-17T13:07:58.000Z</Time>
            <Position>
              <LatitudeDegrees>42.7165471203625202178955078125</LatitudeDegrees>
              <LongitudeDegrees>-0.21693748421967029571533203125</LongitudeDegrees>
            </Position>
            <AltitudeMeters>1840.199951171875</AltitudeMeters>
            <DistanceMeters>NAN</DistanceMeters>
          </Trackpoint>
          <Trackpoint>
            <Time>2021-07-17T13:08:02.000Z</Time>
            <Position>
              <LatitudeDegrees>42.71652390249073505401611328125</LatitudeDegrees>
              <LongitudeDegrees>-0.21690177731215953826904296875</LongitudeDegrees>
            </Position>
            <AltitudeMeters>1840.800048828125</AltitudeMeters>
            <DistanceMeters>NAN</DistanceMeters>
          </Trackpoint>
          <Trackpoint>
            <Time>2021-07-17T13:08:08.000Z</Time>
            <Position>
              <LatitudeDegrees>42.71648048423230648040771484375</LatitudeDegrees>
              <LongitudeDegrees>-0.21686573512852191925048828125</LongitudeDegrees>
            </Position>
            <AltitudeMeters>1841.5999755859375</AltitudeMeters>
            <DistanceMeters>NAN</DistanceMeters>
          </Trackpoint>
          <Trackpoint>
            <Time>2021-07-17T13:08:11.000Z</Time>
            <Position>
              <LatitudeDegrees>42.7164649777114391326904296875</LatitudeDegrees>
              <LongitudeDegrees>-0.2168440259993076324462890625</LongitudeDegrees>
            </Position>
            <AltitudeMeters>1842</AltitudeMeters>
            <DistanceMeters>NAN</DistanceMeters>
          </Trackpoint>
          <Trackpoint>
            <Time>2021-07-17T13:08:12.000Z</Time>
            <Position>
              <LatitudeDegrees>42.7164633013308048248291015625</LatitudeDegrees>
              <LongitudeDegrees>-0.21683690138161182403564453125</LongitudeDegrees>
            </Position>
            <AltitudeMeters>1842.199951171875</AltitudeMeters>
            <DistanceMeters>NAN</DistanceMeters>
          </Trackpoint>
          <Trackpoint>
            <Time>2021-07-17T13:08:21.000Z</Time>
            <Position>
              <LatitudeDegrees>42.71640555001795291900634765625</LatitudeDegrees>
              <LongitudeDegrees>-0.216754339635372161865234375</LongitudeDegrees>
            </Position>
            <AltitudeMeters>1843.199951171875</AltitudeMeters>
            <DistanceMeters>NAN</DistanceMeters>
          </Trackpoint>
          <Trackpoint>
            <Time>2021-07-17T13:08:24.000Z</Time>
            <Position>
              <LatitudeDegrees>42.71638291887938976287841796875</LatitudeDegrees>
              <LongitudeDegrees>-0.2167357318103313446044921875</LongitudeDegrees>
            </Position>
            <AltitudeMeters>1843.5999755859375</AltitudeMeters>
            <DistanceMeters>NAN</DistanceMeters>
          </Trackpoint>
          <Trackpoint>
            <Time>2021-07-17T13:08:29.000Z</Time>
            <Position>
              <LatitudeDegrees>42.716356180608272552490234375</LatitudeDegrees>
              <LongitudeDegrees>-0.216698683798313140869140625</LongitudeDegrees>
            </Position>
            <AltitudeMeters>1844.199951171875</AltitudeMeters>
            <DistanceMeters>NAN</DistanceMeters>
          </Trackpoint>
          <Trackpoint>
            <Time>2021-07-17T13:08:30.000Z</Time>
            <Position>
              <LatitudeDegrees>42.71635190583765506744384765625</LatitudeDegrees>
              <LongitudeDegrees>-0.216692648828029632568359375</LongitudeDegrees>
            </Position>
            <AltitudeMeters>1844.199951171875</AltitudeMeters>
            <DistanceMeters>NAN</DistanceMeters>
          </Trackpoint>
          <Trackpoint>
            <Time>2021-07-17T13:08:36.000Z</Time>
            <Position>
              <LatitudeDegrees>42.7163224853575229644775390625</LatitudeDegrees>
              <LongitudeDegrees>-0.21664939820766448974609375</LongitudeDegrees>
            </Position>
            <AltitudeMeters>1845.199951171875</AltitudeMeters>
            <DistanceMeters>NAN</DistanceMeters>
          </Trackpoint>
          <Trackpoint>
            <Time>2021-07-17T13:08:38.000Z</Time>
            <Position>
              <LatitudeDegrees>42.71630354225635528564453125</LatitudeDegrees>
              <LongitudeDegrees>-0.2166378311812877655029296875</LongitudeDegrees>
            </Position>
            <AltitudeMeters>1845.5999755859375</AltitudeMeters>
            <DistanceMeters>NAN</DistanceMeters>
          </Trackpoint>
          <Trackpoint>
            <Time>2021-07-17T13:08:48.000Z</Time>
            <Position>
              <LatitudeDegrees>42.716244198381900787353515625</LatitudeDegrees>
              <LongitudeDegrees>-0.21657697856426239013671875</LongitudeDegrees>
            </Position>
            <AltitudeMeters>1847</AltitudeMeters>
            <DistanceMeters>NAN</DistanceMeters>
          </Trackpoint>
          <Trackpoint>
            <Time>2021-07-17T13:08:55.000Z</Time>
            <Position>
              <LatitudeDegrees>42.7161994390189647674560546875</LatitudeDegrees>
              <LongitudeDegrees>-0.216567926108837127685546875</LongitudeDegrees>
            </Position>
            <AltitudeMeters>1847.800048828125</AltitudeMeters>
            <DistanceMeters>NAN</DistanceMeters>
          </Trackpoint>
          <Trackpoint>
            <Time>2021-07-17T13:08:56.000Z</Time>
            <Position>
              <LatitudeDegrees>42.71619784645736217498779296875</LatitudeDegrees>
              <LongitudeDegrees>-0.21656147204339504241943359375</LongitudeDegrees>
            </Position>
            <AltitudeMeters>1848</AltitudeMeters>
            <DistanceMeters>NAN</DistanceMeters>
          </Trackpoint>
          <Trackpoint>
            <Time>2021-07-17T13:09:08.000Z</Time>
            <Position>
              <LatitudeDegrees>42.71614554338157176971435546875</LatitudeDegrees>
              <LongitudeDegrees>-0.21647731773555278778076171875</LongitudeDegrees>
            </Position>
            <AltitudeMeters>1851</AltitudeMeters>
            <DistanceMeters>NAN</DistanceMeters>
          </Trackpoint>
          <Trackpoint>
            <Time>2021-07-17T13:09:16.000Z</Time>
            <Position>
              <LatitudeDegrees>42.71613464690744876861572265625</LatitudeDegrees>
              <LongitudeDegrees>-0.2164249308407306671142578125</LongitudeDegrees>
            </Position>
            <AltitudeMeters>1852.5999755859375</AltitudeMeters>
            <DistanceMeters>NAN</DistanceMeters>
          </Trackpoint>
          <Trackpoint>
            <Time>2021-07-17T13:09:24.000Z</Time>
            <Position>
              <LatitudeDegrees>42.71612928248941898345947265625</LatitudeDegrees>
              <LongitudeDegrees>-0.2163572050631046295166015625</LongitudeDegrees>
            </Position>
            <AltitudeMeters>1854</AltitudeMeters>
            <DistanceMeters>NAN</DistanceMeters>
          </Trackpoint>
          <Trackpoint>
            <Time>2021-07-17T13:09:33.000Z</Time>
            <Position>
              <LatitudeDegrees>42.71609793417155742645263671875</LatitudeDegrees>
              <LongitudeDegrees>-0.2162703685462474822998046875</LongitudeDegrees>
            </Position>
            <AltitudeMeters>1856</AltitudeMeters>
            <DistanceMeters>NAN</DistanceMeters>
          </Trackpoint>
          <Trackpoint>
            <Time>2021-07-17T13:09:43.000Z</Time>
            <Position>
              <LatitudeDegrees>42.71608536131680011749267578125</LatitudeDegrees>
              <LongitudeDegrees>-0.21619970910251140594482421875</LongitudeDegrees>
            </Position>
            <AltitudeMeters>1857.199951171875</AltitudeMeters>
            <DistanceMeters>NAN</DistanceMeters>
          </Trackpoint>
          <Trackpoint>
            <Time>2021-07-17T13:09:50.000Z</Time>
            <Position>
              <LatitudeDegrees>42.71607010625302791595458984375</LatitudeDegrees>
              <LongitudeDegrees>-0.21615595556795597076416015625</LongitudeDegrees>
            </Position>
            <AltitudeMeters>1858.4000244140625</AltitudeMeters>
            <DistanceMeters>NAN</DistanceMeters>
          </Trackpoint>
          <Trackpoint>
            <Time>2021-07-17T13:10:00.000Z</Time>
            <Position>
              <LatitudeDegrees>42.71603222005069255828857421875</LatitudeDegrees>
              <LongitudeDegrees>-0.21605788730084896087646484375</LongitudeDegrees>
            </Position>
            <AltitudeMeters>1860</AltitudeMeters>
            <DistanceMeters>NAN</DistanceMeters>
          </Trackpoint>
          <Trackpoint>
            <Time>2021-07-17T13:10:07.000Z</Time>
            <Position>
              <LatitudeDegrees>42.7160271070897579193115234375</LatitudeDegrees>
              <LongitudeDegrees>-0.2160055004060268402099609375</LongitudeDegrees>
            </Position>
            <AltitudeMeters>1860.199951171875</AltitudeMeters>
            <DistanceMeters>NAN</DistanceMeters>
          </Trackpoint>
          <Trackpoint>
            <Time>2021-07-17T13:10:14.000Z</Time>
            <Position>
              <LatitudeDegrees>42.71602232940495014190673828125</LatitudeDegrees>
              <LongitudeDegrees>-0.21598530001938343048095703125</LongitudeDegrees>
            </Position>
            <AltitudeMeters>1860.4000244140625</AltitudeMeters>
            <DistanceMeters>NAN</DistanceMeters>
          </Trackpoint>
          <Trackpoint>
            <Time>2021-07-17T13:10:21.000Z</Time>
            <Position>
              <LatitudeDegrees>42.7160348184406757354736328125</LatitudeDegrees>
              <LongitudeDegrees>-0.215993262827396392822265625</LongitudeDegrees>
            </Position>
            <AltitudeMeters>1860</AltitudeMeters>
            <DistanceMeters>NAN</DistanceMeters>
          </Trackpoint>
          <Trackpoint>
            <Time>2021-07-17T13:10:36.000Z</Time>
            <Position>
              <LatitudeDegrees>42.715983353555202484130859375</LatitudeDegrees>
              <LongitudeDegrees>-0.21593852899968624114990234375</LongitudeDegrees>
            </Position>
            <AltitudeMeters>1861.800048828125</AltitudeMeters>
            <DistanceMeters>NAN</DistanceMeters>
          </Trackpoint>
          <Trackpoint>
            <Time>2021-07-17T13:10:38.000Z</Time>
            <Position>
              <LatitudeDegrees>42.71596214734017848968505859375</LatitudeDegrees>
              <LongitudeDegrees>-0.21591472439467906951904296875</LongitudeDegrees>
            </Position>
            <AltitudeMeters>1862.4000244140625</AltitudeMeters>
            <DistanceMeters>NAN</DistanceMeters>
          </Trackpoint>
          <Trackpoint>
            <Time>2021-07-17T13:10:44.000Z</Time>
            <Position>
              <LatitudeDegrees>42.7159305475652217864990234375</LatitudeDegrees>
              <LongitudeDegrees>-0.21586954593658447265625</LongitudeDegrees>
            </Position>
            <AltitudeMeters>1863.5999755859375</AltitudeMeters>
            <DistanceMeters>NAN</DistanceMeters>
          </Trackpoint>
          <Trackpoint>
            <Time>2021-07-17T13:10:51.000Z</Time>
            <Position>
              <LatitudeDegrees>42.71591755561530590057373046875</LatitudeDegrees>
              <LongitudeDegrees>-0.21583559922873973846435546875</LongitudeDegrees>
            </Position>
            <AltitudeMeters>1864</AltitudeMeters>
            <DistanceMeters>NAN</DistanceMeters>
          </Trackpoint>
          <Trackpoint>
            <Time>2021-07-17T13:10:58.000Z</Time>
            <Position>
              <LatitudeDegrees>42.7159452997148036956787109375</LatitudeDegrees>
              <LongitudeDegrees>-0.2157818712294101715087890625</LongitudeDegrees>
            </Position>
            <AltitudeMeters>1863.4000244140625</AltitudeMeters>
            <DistanceMeters>NAN</DistanceMeters>
          </Trackpoint>
          <Trackpoint>
            <Time>2021-07-17T13:11:06.000Z</Time>
            <Position>
              <LatitudeDegrees>42.71599651314318180084228515625</LatitudeDegrees>
              <LongitudeDegrees>-0.215733759105205535888671875</LongitudeDegrees>
            </Position>
            <AltitudeMeters>1862</AltitudeMeters>
            <DistanceMeters>NAN</DistanceMeters>
          </Trackpoint>
          <Trackpoint>
            <Time>2021-07-17T13:11:15.000Z</Time>
            <Position>
              <LatitudeDegrees>42.7160398475825786590576171875</LatitudeDegrees>
              <LongitudeDegrees>-0.21563527174293994903564453125</LongitudeDegrees>
            </Position>
            <AltitudeMeters>1860.4000244140625</AltitudeMeters>
            <DistanceMeters>NAN</DistanceMeters>
          </Trackpoint>
          <Trackpoint>
            <Time>2021-07-17T13:11:23.000Z</Time>
            <Position>
              <LatitudeDegrees>42.71607555449008941650390625</LatitudeDegrees>
              <LongitudeDegrees>-0.2155543863773345947265625</LongitudeDegrees>
            </Position>
            <AltitudeMeters>1859</AltitudeMeters>
            <DistanceMeters>NAN</DistanceMeters>
          </Trackpoint>
          <Trackpoint>
            <Time>2021-07-17T13:11:32.000Z</Time>
            <Position>
              <LatitudeDegrees>42.7160990238189697265625</LatitudeDegrees>
              <LongitudeDegrees>-0.21548490040004253387451171875</LongitudeDegrees>
            </Position>
            <AltitudeMeters>1858.199951171875</AltitudeMeters>
            <DistanceMeters>NAN</DistanceMeters>
          </Trackpoint>
          <Trackpoint>
            <Time>2021-07-17T13:11:43.000Z</Time>
            <Position>
              <LatitudeDegrees>42.71613263525068759918212890625</LatitudeDegrees>
              <LongitudeDegrees>-0.21539286710321903228759765625</LongitudeDegrees>
            </Position>
            <AltitudeMeters>1857.800048828125</AltitudeMeters>
            <DistanceMeters>NAN</DistanceMeters>
          </Trackpoint>
          <Trackpoint>
            <Time>2021-07-17T13:11:53.000Z</Time>
            <Position>
              <LatitudeDegrees>42.71619063802063465118408203125</LatitudeDegrees>
              <LongitudeDegrees>-0.21532832644879817962646484375</LongitudeDegrees>
            </Position>
            <AltitudeMeters>1857</AltitudeMeters>
            <DistanceMeters>NAN</DistanceMeters>
          </Trackpoint>
          <Trackpoint>
            <Time>2021-07-17T13:12:02.000Z</Time>
            <Position>
              <LatitudeDegrees>42.71623439155519008636474609375</LatitudeDegrees>
              <LongitudeDegrees>-0.21525121293962001800537109375</LongitudeDegrees>
            </Position>
            <AltitudeMeters>1857.199951171875</AltitudeMeters>
            <DistanceMeters>NAN</DistanceMeters>
          </Trackpoint>
          <Trackpoint>
            <Time>2021-07-17T13:12:05.000Z</Time>
            <Position>
              <LatitudeDegrees>42.71625459194183349609375</LatitudeDegrees>
              <LongitudeDegrees>-0.215216763317584991455078125</LongitudeDegrees>
            </Position>
            <AltitudeMeters>1857.199951171875</AltitudeMeters>
            <DistanceMeters>NAN</DistanceMeters>
          </Trackpoint>
          <Trackpoint>
            <Time>2021-07-17T13:12:13.000Z</Time>
            <Position>
              <LatitudeDegrees>42.71629390306770801544189453125</LatitudeDegrees>
              <LongitudeDegrees>-0.215130262076854705810546875</LongitudeDegrees>
            </Position>
            <AltitudeMeters>1857.800048828125</AltitudeMeters>
            <DistanceMeters>NAN</DistanceMeters>
          </Trackpoint>
          <Trackpoint>
            <Time>2021-07-17T13:12:20.000Z</Time>
            <Position>
              <LatitudeDegrees>42.71629859693348407745361328125</LatitudeDegrees>
              <LongitudeDegrees>-0.21506697870790958404541015625</LongitudeDegrees>
            </Position>
            <AltitudeMeters>1858.5999755859375</AltitudeMeters>
            <DistanceMeters>NAN</DistanceMeters>
          </Trackpoint>
          <Trackpoint>
            <Time>2021-07-17T13:12:27.000Z</Time>
            <Position>
              <LatitudeDegrees>42.71629742346704006195068359375</LatitudeDegrees>
              <LongitudeDegrees>-0.21502305753529071807861328125</LongitudeDegrees>
            </Position>
            <AltitudeMeters>1859.5999755859375</AltitudeMeters>
            <DistanceMeters>NAN</DistanceMeters>
          </Trackpoint>
          <Trackpoint>
            <Time>2021-07-17T13:12:35.000Z</Time>
            <Position>
              <LatitudeDegrees>42.71630496717989444732666015625</LatitudeDegrees>
              <LongitudeDegrees>-0.21493487991392612457275390625</LongitudeDegrees>
            </Position>
            <AltitudeMeters>1861.199951171875</AltitudeMeters>
            <DistanceMeters>NAN</DistanceMeters>
          </Trackpoint>
          <Trackpoint>
            <Time>2021-07-17T13:12:46.000Z</Time>
            <Position>
              <LatitudeDegrees>42.716333381831645965576171875</LatitudeDegrees>
              <LongitudeDegrees>-0.2148045413196086883544921875</LongitudeDegrees>
            </Position>
            <AltitudeMeters>1862</AltitudeMeters>
            <DistanceMeters>NAN</DistanceMeters>
          </Trackpoint>
          <Trackpoint>
            <Time>2021-07-17T13:12:51.000Z</Time>
            <Position>
              <LatitudeDegrees>42.71635450422763824462890625</LatitudeDegrees>
              <LongitudeDegrees>-0.21474930457770824432373046875</LongitudeDegrees>
            </Position>
            <AltitudeMeters>1862</AltitudeMeters>
            <DistanceMeters>NAN</DistanceMeters>
          </Trackpoint>
          <Trackpoint>
            <Time>2021-07-17T13:12:55.000Z</Time>
            <Position>
              <LatitudeDegrees>42.71635827608406543731689453125</LatitudeDegrees>
              <LongitudeDegrees>-0.2147014439105987548828125</LongitudeDegrees>
            </Position>
            <AltitudeMeters>1862.199951171875</AltitudeMeters>
            <DistanceMeters>NAN</DistanceMeters>
          </Trackpoint>
          <Trackpoint>
            <Time>2021-07-17T13:13:03.000Z</Time>
            <Position>
              <LatitudeDegrees>42.71639406681060791015625</LatitudeDegrees>
              <LongitudeDegrees>-0.21463765762746334075927734375</LongitudeDegrees>
            </Position>
            <AltitudeMeters>1862.199951171875</AltitudeMeters>
            <DistanceMeters>NAN</DistanceMeters>
          </Trackpoint>
          <Trackpoint>
            <Time>2021-07-17T13:13:11.000Z</Time>
            <Position>
              <LatitudeDegrees>42.7163912169635295867919921875</LatitudeDegrees>
              <LongitudeDegrees>-0.21455132402479648590087890625</LongitudeDegrees>
            </Position>
            <AltitudeMeters>1864</AltitudeMeters>
            <DistanceMeters>NAN</DistanceMeters>
          </Trackpoint>
          <Trackpoint>
            <Time>2021-07-17T13:13:20.000Z</Time>
            <Position>
              <LatitudeDegrees>42.7163781411945819854736328125</LatitudeDegrees>
              <LongitudeDegrees>-0.21446851082146167755126953125</LongitudeDegrees>
            </Position>
            <AltitudeMeters>1866</AltitudeMeters>
            <DistanceMeters>NAN</DistanceMeters>
          </Trackpoint>
          <Trackpoint>
            <Time>2021-07-17T13:13:28.000Z</Time>
            <Position>
              <LatitudeDegrees>42.71640504710376262664794921875</LatitudeDegrees>
              <LongitudeDegrees>-0.21441302262246608734130859375</LongitudeDegrees>
            </Position>
            <AltitudeMeters>1866.800048828125</AltitudeMeters>
            <DistanceMeters>NAN</DistanceMeters>
          </Trackpoint>
          <Trackpoint>
            <Time>2021-07-17T13:13:36.000Z</Time>
            <Position>
              <LatitudeDegrees>42.7164361439645290374755859375</LatitudeDegrees>
              <LongitudeDegrees>-0.21433733403682708740234375</LongitudeDegrees>
            </Position>
            <AltitudeMeters>1867.800048828125</AltitudeMeters>
            <DistanceMeters>NAN</DistanceMeters>
          </Trackpoint>
          <Trackpoint>
            <Time>2021-07-17T13:13:42.000Z</Time>
            <Position>
              <LatitudeDegrees>42.7164626307785511016845703125</LatitudeDegrees>
              <LongitudeDegrees>-0.21428796462714672088623046875</LongitudeDegrees>
            </Position>
            <AltitudeMeters>1868.5999755859375</AltitudeMeters>
            <DistanceMeters>NAN</DistanceMeters>
          </Trackpoint>
          <Trackpoint>
            <Time>2021-07-17T13:13:50.000Z</Time>
            <Position>
              <LatitudeDegrees>42.71648651920258998870849609375</LatitudeDegrees>
              <LongitudeDegrees>-0.214236080646514892578125</LongitudeDegrees>
            </Position>
            <AltitudeMeters>1869.4000244140625</AltitudeMeters>
            <DistanceMeters>NAN</DistanceMeters>
          </Trackpoint>
          <Trackpoint>
            <Time>2021-07-17T13:13:59.000Z</Time>
            <Position>
              <LatitudeDegrees>42.7165192924439907073974609375</LatitudeDegrees>
              <LongitudeDegrees>-0.214195512235164642333984375</LongitudeDegrees>
            </Position>
            <AltitudeMeters>1869.5999755859375</AltitudeMeters>
            <DistanceMeters>NAN</DistanceMeters>
          </Trackpoint>
          <Trackpoint>
            <Time>2021-07-17T13:14:04.000Z</Time>
            <Position>
              <LatitudeDegrees>42.716505713760852813720703125</LatitudeDegrees>
              <LongitudeDegrees>-0.21415871568024158477783203125</LongitudeDegrees>
            </Position>
            <AltitudeMeters>1870.800048828125</AltitudeMeters>
            <DistanceMeters>NAN</DistanceMeters>
          </Trackpoint>
          <Trackpoint>
            <Time>2021-07-17T13:14:13.000Z</Time>
            <Position>
              <LatitudeDegrees>42.71649087779223918914794921875</LatitudeDegrees>
              <LongitudeDegrees>-0.21411328576505184173583984375</LongitudeDegrees>
            </Position>
            <AltitudeMeters>1872.199951171875</AltitudeMeters>
            <DistanceMeters>NAN</DistanceMeters>
          </Trackpoint>
          <Trackpoint>
            <Time>2021-07-17T13:14:22.000Z</Time>
            <Position>
              <LatitudeDegrees>42.71645684726536273956298828125</LatitudeDegrees>
              <LongitudeDegrees>-0.2141153812408447265625</LongitudeDegrees>
            </Position>
            <AltitudeMeters>1873</AltitudeMeters>
            <DistanceMeters>NAN</DistanceMeters>
          </Trackpoint>
          <Trackpoint>
            <Time>2021-07-17T13:14:32.000Z</Time>
            <Position>
              <LatitudeDegrees>42.71644846536219120025634765625</LatitudeDegrees>
              <LongitudeDegrees>-0.21412434987723827362060546875</LongitudeDegrees>
            </Position>
            <AltitudeMeters>1873</AltitudeMeters>
            <DistanceMeters>NAN</DistanceMeters>
          </Trackpoint>
          <Trackpoint>
            <Time>2021-07-17T13:14:38.000Z</Time>
            <Position>
              <LatitudeDegrees>42.71644846536219120025634765625</LatitudeDegrees>
              <LongitudeDegrees>-0.21412434987723827362060546875</LongitudeDegrees>
            </Position>
            <AltitudeMeters>1873</AltitudeMeters>
            <DistanceMeters>NAN</DistanceMeters>
          </Trackpoint>
          <Trackpoint>
            <Time>2021-07-17T13:14:44.000Z</Time>
            <Position>
              <LatitudeDegrees>42.71644293330609798431396484375</LatitudeDegrees>
              <LongitudeDegrees>-0.21412736736238002777099609375</LongitudeDegrees>
            </Position>
            <AltitudeMeters>1873</AltitudeMeters>
            <DistanceMeters>NAN</DistanceMeters>
          </Trackpoint>
          <Trackpoint>
            <Time>2021-07-17T13:14:57.000Z</Time>
            <Position>
              <LatitudeDegrees>42.71639783866703510284423828125</LatitudeDegrees>
              <LongitudeDegrees>-0.21412787027657032012939453125</LongitudeDegrees>
            </Position>
            <AltitudeMeters>1873.4000244140625</AltitudeMeters>
            <DistanceMeters>NAN</DistanceMeters>
          </Trackpoint>
          <Trackpoint>
            <Time>2021-07-17T13:15:04.000Z</Time>
            <Position>
              <LatitudeDegrees>42.71639783866703510284423828125</LatitudeDegrees>
              <LongitudeDegrees>-0.214123092591762542724609375</LongitudeDegrees>
            </Position>
            <AltitudeMeters>1873.5999755859375</AltitudeMeters>
            <DistanceMeters>NAN</DistanceMeters>
          </Trackpoint>
          <Trackpoint>
            <Time>2021-07-17T13:15:08.000Z</Time>
            <Position>
              <LatitudeDegrees>42.71639934740960597991943359375</LatitudeDegrees>
              <LongitudeDegrees>-0.21412141621112823486328125</LongitudeDegrees>
            </Position>
            <AltitudeMeters>1873.5999755859375</AltitudeMeters>
            <DistanceMeters>NAN</DistanceMeters>
          </Trackpoint>
          <Trackpoint>
            <Time>2021-07-17T13:15:14.000Z</Time>
            <Position>
              <LatitudeDegrees>42.7164059691131114959716796875</LatitudeDegrees>
              <LongitudeDegrees>-0.2141175605356693267822265625</LongitudeDegrees>
            </Position>
            <AltitudeMeters>1873.5999755859375</AltitudeMeters>
            <DistanceMeters>NAN</DistanceMeters>
          </Trackpoint>
          <Trackpoint>
            <Time>2021-07-17T13:15:16.000Z</Time>
            <Position>
              <LatitudeDegrees>42.7164061367511749267578125</LatitudeDegrees>
              <LongitudeDegrees>-0.214115716516971588134765625</LongitudeDegrees>
            </Position>
            <AltitudeMeters>1873.800048828125</AltitudeMeters>
            <DistanceMeters>NAN</DistanceMeters>
          </Trackpoint>
          <Trackpoint>
            <Time>2021-07-17T13:15:25.000Z</Time>
            <Position>
              <LatitudeDegrees>42.7164177037775516510009765625</LatitudeDegrees>
              <LongitudeDegrees>-0.21409903652966022491455078125</LongitudeDegrees>
            </Position>
            <AltitudeMeters>1874.199951171875</AltitudeMeters>
            <DistanceMeters>NAN</DistanceMeters>
          </Trackpoint>
          <Trackpoint>
            <Time>2021-07-17T13:15:53.000Z</Time>
            <Position>
              <LatitudeDegrees>42.71642633713781833648681640625</LatitudeDegrees>
              <LongitudeDegrees>-0.2140850387513637542724609375</LongitudeDegrees>
            </Position>
            <AltitudeMeters>1874.4000244140625</AltitudeMeters>
            <DistanceMeters>NAN</DistanceMeters>
          </Trackpoint>
          <Trackpoint>
            <Time>2021-07-17T13:16:07.000Z</Time>
            <Position>
              <LatitudeDegrees>42.71642533130943775177001953125</LatitudeDegrees>
              <LongitudeDegrees>-0.21410800516605377197265625</LongitudeDegrees>
            </Position>
            <AltitudeMeters>1873.5999755859375</AltitudeMeters>
            <DistanceMeters>NAN</DistanceMeters>
          </Trackpoint>
          <Trackpoint>
            <Time>2021-07-17T13:16:19.000Z</Time>
            <Position>
              <LatitudeDegrees>42.71642566658556461334228515625</LatitudeDegrees>
              <LongitudeDegrees>-0.21410725079476833343505859375</LongitudeDegrees>
            </Position>
            <AltitudeMeters>1873.800048828125</AltitudeMeters>
            <DistanceMeters>NAN</DistanceMeters>
          </Trackpoint>
          <Trackpoint>
            <Time>2021-07-17T13:16:29.000Z</Time>
            <Position>
              <LatitudeDegrees>42.71640890277922153472900390625</LatitudeDegrees>
              <LongitudeDegrees>-0.21402175538241863250732421875</LongitudeDegrees>
            </Position>
            <AltitudeMeters>1876.4000244140625</AltitudeMeters>
            <DistanceMeters>NAN</DistanceMeters>
          </Trackpoint>
          <Trackpoint>
            <Time>2021-07-17T13:16:34.000Z</Time>
            <Position>
              <LatitudeDegrees>42.7163861878216266632080078125</LatitudeDegrees>
              <LongitudeDegrees>-0.2139445580542087554931640625</LongitudeDegrees>
            </Position>
            <AltitudeMeters>1878.800048828125</AltitudeMeters>
            <DistanceMeters>NAN</DistanceMeters>
          </Trackpoint>
          <Trackpoint>
            <Time>2021-07-17T13:16:37.000Z</Time>
            <Position>
              <LatitudeDegrees>42.7163685858249664306640625</LatitudeDegrees>
              <LongitudeDegrees>-0.2139204181730747222900390625</LongitudeDegrees>
            </Position>
            <AltitudeMeters>1879.5999755859375</AltitudeMeters>
            <DistanceMeters>NAN</DistanceMeters>
          </Trackpoint>
          <Trackpoint>
            <Time>2021-07-17T13:16:38.000Z</Time>
            <Position>
              <LatitudeDegrees>42.71636397577822208404541015625</LatitudeDegrees>
              <LongitudeDegrees>-0.2139167301356792449951171875</LongitudeDegrees>
            </Position>
            <AltitudeMeters>1879.800048828125</AltitudeMeters>
            <DistanceMeters>NAN</DistanceMeters>
          </Trackpoint>
          <Trackpoint>
            <Time>2021-07-17T13:16:41.000Z</Time>
            <Position>
              <LatitudeDegrees>42.71634855307638645172119140625</LatitudeDegrees>
              <LongitudeDegrees>-0.21390013396739959716796875</LongitudeDegrees>
            </Position>
            <AltitudeMeters>1880.800048828125</AltitudeMeters>
            <DistanceMeters>NAN</DistanceMeters>
          </Trackpoint>
          <Trackpoint>
            <Time>2021-07-17T13:16:44.000Z</Time>
            <Position>
              <LatitudeDegrees>42.7163345552980899810791015625</LatitudeDegrees>
              <LongitudeDegrees>-0.213874988257884979248046875</LongitudeDegrees>
            </Position>
            <AltitudeMeters>1882.800048828125</AltitudeMeters>
            <DistanceMeters>NAN</DistanceMeters>
          </Trackpoint>
          <Trackpoint>
            <Time>2021-07-17T13:16:47.000Z</Time>
            <Position>
              <LatitudeDegrees>42.716322652995586395263671875</LatitudeDegrees>
              <LongitudeDegrees>-0.2138550393283367156982421875</LongitudeDegrees>
            </Position>
            <AltitudeMeters>1884.4000244140625</AltitudeMeters>
            <DistanceMeters>NAN</DistanceMeters>
          </Trackpoint>
          <Trackpoint>
            <Time>2021-07-17T13:16:50.000Z</Time>
            <Position>
              <LatitudeDegrees>42.7163130976259708404541015625</LatitudeDegrees>
              <LongitudeDegrees>-0.21383198909461498260498046875</LongitudeDegrees>
            </Position>
            <AltitudeMeters>1886.199951171875</AltitudeMeters>
            <DistanceMeters>NAN</DistanceMeters>
          </Trackpoint>
          <Trackpoint>
            <Time>2021-07-17T13:16:53.000Z</Time>
            <Position>
              <LatitudeDegrees>42.71631854586303234100341796875</LatitudeDegrees>
              <LongitudeDegrees>-0.21379577927291393280029296875</LongitudeDegrees>
            </Position>
            <AltitudeMeters>1887.4000244140625</AltitudeMeters>
            <DistanceMeters>NAN</DistanceMeters>
          </Trackpoint>
          <Trackpoint>
            <Time>2021-07-17T13:16:57.000Z</Time>
            <Position>
              <LatitudeDegrees>42.716322652995586395263671875</LatitudeDegrees>
              <LongitudeDegrees>-0.2137376926839351654052734375</LongitudeDegrees>
            </Position>
            <AltitudeMeters>1888.4000244140625</AltitudeMeters>
            <DistanceMeters>NAN</DistanceMeters>
          </Trackpoint>
          <Trackpoint>
            <Time>2021-07-17T13:16:59.000Z</Time>
            <Position>
              <LatitudeDegrees>42.716321647167205810546875</LatitudeDegrees>
              <LongitudeDegrees>-0.21370609290897846221923828125</LongitudeDegrees>
            </Position>
            <AltitudeMeters>1889.199951171875</AltitudeMeters>
            <DistanceMeters>NAN</DistanceMeters>
          </Trackpoint>
          <Trackpoint>
            <Time>2021-07-17T13:17:02.000Z</Time>
            <Position>
              <LatitudeDegrees>42.71631368435919284820556640625</LatitudeDegrees>
              <LongitudeDegrees>-0.2136659435927867889404296875</LongitudeDegrees>
            </Position>
            <AltitudeMeters>1890.4000244140625</AltitudeMeters>
            <DistanceMeters>NAN</DistanceMeters>
          </Trackpoint>
          <Trackpoint>
            <Time>2021-07-17T13:17:06.000Z</Time>
            <Position>
              <LatitudeDegrees>42.716315947473049163818359375</LatitudeDegrees>
              <LongitudeDegrees>-0.21363459527492523193359375</LongitudeDegrees>
            </Position>
            <AltitudeMeters>1891.199951171875</AltitudeMeters>
            <DistanceMeters>NAN</DistanceMeters>
          </Trackpoint>
          <Trackpoint>
            <Time>2021-07-17T13:17:09.000Z</Time>
            <Position>
              <LatitudeDegrees>42.7163149416446685791015625</LatitudeDegrees>
              <LongitudeDegrees>-0.2136283926665782928466796875</LongitudeDegrees>
            </Position>
            <AltitudeMeters>1891.4000244140625</AltitudeMeters>
            <DistanceMeters>NAN</DistanceMeters>
          </Trackpoint>
          <Trackpoint>
            <Time>2021-07-17T13:17:11.000Z</Time>
            <Position>
              <LatitudeDegrees>42.7163147740066051483154296875</LatitudeDegrees>
              <LongitudeDegrees>-0.21361850202083587646484375</LongitudeDegrees>
            </Position>
            <AltitudeMeters>1891.5999755859375</AltitudeMeters>
            <DistanceMeters>NAN</DistanceMeters>
          </Trackpoint>
          <Trackpoint>
            <Time>2021-07-17T13:17:20.000Z</Time>
            <Position>
              <LatitudeDegrees>42.716313935816287994384765625</LatitudeDegrees>
              <LongitudeDegrees>-0.2135911770164966583251953125</LongitudeDegrees>
            </Position>
            <AltitudeMeters>1892.4000244140625</AltitudeMeters>
            <DistanceMeters>NAN</DistanceMeters>
          </Trackpoint>
          <Trackpoint>
            <Time>2021-07-17T13:17:51.000Z</Time>
            <Position>
              <LatitudeDegrees>42.71629222668707370758056640625</LatitudeDegrees>
              <LongitudeDegrees>-0.21361087448894977569580078125</LongitudeDegrees>
            </Position>
            <AltitudeMeters>1893</AltitudeMeters>
            <DistanceMeters>NAN</DistanceMeters>
          </Trackpoint>
          <Trackpoint>
            <Time>2021-07-17T13:18:13.000Z</Time>
            <Position>
              <LatitudeDegrees>42.71629893220961093902587890625</LatitudeDegrees>
              <LongitudeDegrees>-0.21361188031733036041259765625</LongitudeDegrees>
            </Position>
            <AltitudeMeters>1892.5999755859375</AltitudeMeters>
            <DistanceMeters>NAN</DistanceMeters>
          </Trackpoint>
          <Trackpoint>
            <Time>2021-07-17T13:18:15.000Z</Time>
            <Position>
              <LatitudeDegrees>42.71629876457154750823974609375</LatitudeDegrees>
              <LongitudeDegrees>-0.2136126346886157989501953125</LongitudeDegrees>
            </Position>
            <AltitudeMeters>1892.5999755859375</AltitudeMeters>
            <DistanceMeters>NAN</DistanceMeters>
          </Trackpoint>
          <Trackpoint>
            <Time>2021-07-17T13:18:18.000Z</Time>
            <Position>
              <LatitudeDegrees>42.71629842929542064666748046875</LatitudeDegrees>
              <LongitudeDegrees>-0.21361338905990123748779296875</LongitudeDegrees>
            </Position>
            <AltitudeMeters>1892.5999755859375</AltitudeMeters>
            <DistanceMeters>NAN</DistanceMeters>
          </Trackpoint>
          <Trackpoint>
            <Time>2021-07-17T13:18:41.000Z</Time>
            <Position>
              <LatitudeDegrees>42.7162706851959228515625</LatitudeDegrees>
              <LongitudeDegrees>-0.21361087448894977569580078125</LongitudeDegrees>
            </Position>
            <AltitudeMeters>1894</AltitudeMeters>
            <DistanceMeters>NAN</DistanceMeters>
          </Trackpoint>
          <Trackpoint>
            <Time>2021-07-17T13:18:54.000Z</Time>
            <Position>
              <LatitudeDegrees>42.7162799052894115447998046875</LatitudeDegrees>
              <LongitudeDegrees>-0.21350341849029064178466796875</LongitudeDegrees>
            </Position>
            <AltitudeMeters>1895.800048828125</AltitudeMeters>
            <DistanceMeters>NAN</DistanceMeters>
          </Trackpoint>
          <Trackpoint>
            <Time>2021-07-17T13:18:56.000Z</Time>
            <Position>
              <LatitudeDegrees>42.716279737651348114013671875</LatitudeDegrees>
              <LongitudeDegrees>-0.21346838213503360748291015625</LongitudeDegrees>
            </Position>
            <AltitudeMeters>1896</AltitudeMeters>
            <DistanceMeters>NAN</DistanceMeters>
          </Trackpoint>
          <Trackpoint>
            <Time>2021-07-17T13:18:58.000Z</Time>
            <Position>
              <LatitudeDegrees>42.71627663634717464447021484375</LatitudeDegrees>
              <LongitudeDegrees>-0.21343049593269824981689453125</LongitudeDegrees>
            </Position>
            <AltitudeMeters>1896.4000244140625</AltitudeMeters>
            <DistanceMeters>NAN</DistanceMeters>
          </Trackpoint>
          <Trackpoint>
            <Time>2021-07-17T13:19:02.000Z</Time>
            <Position>
              <LatitudeDegrees>42.7162638120353221893310546875</LatitudeDegrees>
              <LongitudeDegrees>-0.213393867015838623046875</LongitudeDegrees>
            </Position>
            <AltitudeMeters>1897.199951171875</AltitudeMeters>
            <DistanceMeters>NAN</DistanceMeters>
          </Trackpoint>
          <Trackpoint>
            <Time>2021-07-17T13:19:03.000Z</Time>
            <Position>
              <LatitudeDegrees>42.71626506932079792022705078125</LatitudeDegrees>
              <LongitudeDegrees>-0.213386155664920806884765625</LongitudeDegrees>
            </Position>
            <AltitudeMeters>1897.199951171875</AltitudeMeters>
            <DistanceMeters>NAN</DistanceMeters>
          </Trackpoint>
          <Trackpoint>
            <Time>2021-07-17T13:19:09.000Z</Time>
            <Position>
              <LatitudeDegrees>42.7162721939384937286376953125</LatitudeDegrees>
              <LongitudeDegrees>-0.21332136355340480804443359375</LongitudeDegrees>
            </Position>
            <AltitudeMeters>1897</AltitudeMeters>
            <DistanceMeters>NAN</DistanceMeters>
          </Trackpoint>
          <Trackpoint>
            <Time>2021-07-17T13:19:11.000Z</Time>
            <Position>
              <LatitudeDegrees>42.7162742055952548980712890625</LatitudeDegrees>
              <LongitudeDegrees>-0.2132932841777801513671875</LongitudeDegrees>
            </Position>
            <AltitudeMeters>1897</AltitudeMeters>
            <DistanceMeters>NAN</DistanceMeters>
          </Trackpoint>
          <Trackpoint>
            <Time>2021-07-17T13:19:14.000Z</Time>
            <Position>
              <LatitudeDegrees>42.7162731997668743133544921875</LatitudeDegrees>
              <LongitudeDegrees>-0.21325481124222278594970703125</LongitudeDegrees>
            </Position>
            <AltitudeMeters>1897.199951171875</AltitudeMeters>
            <DistanceMeters>NAN</DistanceMeters>
          </Trackpoint>
          <Trackpoint>
            <Time>2021-07-17T13:19:16.000Z</Time>
            <Position>
              <LatitudeDegrees>42.7162725292146205902099609375</LatitudeDegrees>
              <LongitudeDegrees>-0.21323519758880138397216796875</LongitudeDegrees>
            </Position>
            <AltitudeMeters>1897.4000244140625</AltitudeMeters>
            <DistanceMeters>NAN</DistanceMeters>
          </Trackpoint>
          <Trackpoint>
            <Time>2021-07-17T13:19:17.000Z</Time>
            <Position>
              <LatitudeDegrees>42.71626926027238368988037109375</LatitudeDegrees>
              <LongitudeDegrees>-0.21322329528629779815673828125</LongitudeDegrees>
            </Position>
            <AltitudeMeters>1897.5999755859375</AltitudeMeters>
            <DistanceMeters>NAN</DistanceMeters>
          </Trackpoint>
          <Trackpoint>
            <Time>2021-07-17T13:19:26.000Z</Time>
            <Position>
              <LatitudeDegrees>42.7162453718483448028564453125</LatitudeDegrees>
              <LongitudeDegrees>-0.21309337578713893890380859375</LongitudeDegrees>
            </Position>
            <AltitudeMeters>1898.4000244140625</AltitudeMeters>
            <DistanceMeters>NAN</DistanceMeters>
          </Trackpoint>
          <Trackpoint>
            <Time>2021-07-17T13:19:35.000Z</Time>
            <Position>
              <LatitudeDegrees>42.71622039377689361572265625</LatitudeDegrees>
              <LongitudeDegrees>-0.21296530030667781829833984375</LongitudeDegrees>
            </Position>
            <AltitudeMeters>1899.199951171875</AltitudeMeters>
            <DistanceMeters>NAN</DistanceMeters>
          </Trackpoint>
          <Trackpoint>
            <Time>2021-07-17T13:19:43.000Z</Time>
            <Position>
              <LatitudeDegrees>42.7162011153995990753173828125</LatitudeDegrees>
              <LongitudeDegrees>-0.212873518466949462890625</LongitudeDegrees>
            </Position>
            <AltitudeMeters>1899</AltitudeMeters>
            <DistanceMeters>NAN</DistanceMeters>
          </Trackpoint>
          <Trackpoint>
            <Time>2021-07-17T13:19:44.000Z</Time>
            <Position>
              <LatitudeDegrees>42.71620019339025020599365234375</LatitudeDegrees>
              <LongitudeDegrees>-0.21286287344992160797119140625</LongitudeDegrees>
            </Position>
            <AltitudeMeters>1898.800048828125</AltitudeMeters>
            <DistanceMeters>NAN</DistanceMeters>
          </Trackpoint>
          <Trackpoint>
            <Time>2021-07-17T13:19:46.000Z</Time>
            <Position>
              <LatitudeDegrees>42.71619449369609355926513671875</LatitudeDegrees>
              <LongitudeDegrees>-0.21284024231135845184326171875</LongitudeDegrees>
            </Position>
            <AltitudeMeters>1898.4000244140625</AltitudeMeters>
            <DistanceMeters>NAN</DistanceMeters>
          </Trackpoint>
          <Trackpoint>
            <Time>2021-07-17T13:19:48.000Z</Time>
            <Position>
              <LatitudeDegrees>42.71618426777422428131103515625</LatitudeDegrees>
              <LongitudeDegrees>-0.21281140856444835662841796875</LongitudeDegrees>
            </Position>
            <AltitudeMeters>1898</AltitudeMeters>
            <DistanceMeters>NAN</DistanceMeters>
          </Trackpoint>
          <Trackpoint>
            <Time>2021-07-17T13:19:50.000Z</Time>
            <Position>
              <LatitudeDegrees>42.7161719463765621185302734375</LatitudeDegrees>
              <LongitudeDegrees>-0.21278894506394863128662109375</LongitudeDegrees>
            </Position>
            <AltitudeMeters>1897.5999755859375</AltitudeMeters>
            <DistanceMeters>NAN</DistanceMeters>
          </Trackpoint>
          <Trackpoint>
            <Time>2021-07-17T13:19:52.000Z</Time>
            <Position>
              <LatitudeDegrees>42.71616230718791484832763671875</LatitudeDegrees>
              <LongitudeDegrees>-0.21276430226862430572509765625</LongitudeDegrees>
            </Position>
            <AltitudeMeters>1897.5999755859375</AltitudeMeters>
            <DistanceMeters>NAN</DistanceMeters>
          </Trackpoint>
          <Trackpoint>
            <Time>2021-07-17T13:20:00.000Z</Time>
            <Position>
              <LatitudeDegrees>42.7161561883985996246337890625</LatitudeDegrees>
              <LongitudeDegrees>-0.21264980547130107879638671875</LongitudeDegrees>
            </Position>
            <AltitudeMeters>1896.4000244140625</AltitudeMeters>
            <DistanceMeters>NAN</DistanceMeters>
          </Trackpoint>
          <Trackpoint>
            <Time>2021-07-17T13:20:01.000Z</Time>
            <Position>
              <LatitudeDegrees>42.71615467965602874755859375</LatitudeDegrees>
              <LongitudeDegrees>-0.21263455040752887725830078125</LongitudeDegrees>
            </Position>
            <AltitudeMeters>1896.5999755859375</AltitudeMeters>
            <DistanceMeters>NAN</DistanceMeters>
          </Trackpoint>
          <Trackpoint>
            <Time>2021-07-17T13:20:04.000Z</Time>
            <Position>
              <LatitudeDegrees>42.71614386700093746185302734375</LatitudeDegrees>
              <LongitudeDegrees>-0.21259280852973461151123046875</LongitudeDegrees>
            </Position>
            <AltitudeMeters>1896.800048828125</AltitudeMeters>
            <DistanceMeters>NAN</DistanceMeters>
          </Trackpoint>
          <Trackpoint>
            <Time>2021-07-17T13:20:10.000Z</Time>
            <Position>
              <LatitudeDegrees>42.7161246724426746368408203125</LatitudeDegrees>
              <LongitudeDegrees>-0.212520472705364227294921875</LongitudeDegrees>
            </Position>
            <AltitudeMeters>1897.5999755859375</AltitudeMeters>
            <DistanceMeters>NAN</DistanceMeters>
          </Trackpoint>
          <Trackpoint>
            <Time>2021-07-17T13:20:21.000Z</Time>
            <Position>
              <LatitudeDegrees>42.71609072573482990264892578125</LatitudeDegrees>
              <LongitudeDegrees>-0.212387032806873321533203125</LongitudeDegrees>
            </Position>
            <AltitudeMeters>1896.5999755859375</AltitudeMeters>
            <DistanceMeters>NAN</DistanceMeters>
          </Trackpoint>
          <Trackpoint>
            <Time>2021-07-17T13:20:30.000Z</Time>
            <Position>
              <LatitudeDegrees>42.71607060916721820831298828125</LatitudeDegrees>
              <LongitudeDegrees>-0.21230681799352169036865234375</LongitudeDegrees>
            </Position>
            <AltitudeMeters>1896.800048828125</AltitudeMeters>
            <DistanceMeters>NAN</DistanceMeters>
          </Trackpoint>
          <Trackpoint>
            <Time>2021-07-17T13:20:33.000Z</Time>
            <Position>
              <LatitudeDegrees>42.71606893278658390045166015625</LatitudeDegrees>
              <LongitudeDegrees>-0.21229625679552555084228515625</LongitudeDegrees>
            </Position>
            <AltitudeMeters>1896.800048828125</AltitudeMeters>
            <DistanceMeters>NAN</DistanceMeters>
          </Trackpoint>
          <Trackpoint>
            <Time>2021-07-17T13:20:38.000Z</Time>
            <Position>
              <LatitudeDegrees>42.716065831482410430908203125</LatitudeDegrees>
              <LongitudeDegrees>-0.21231436170637607574462890625</LongitudeDegrees>
            </Position>
            <AltitudeMeters>1896.800048828125</AltitudeMeters>
            <DistanceMeters>NAN</DistanceMeters>
          </Trackpoint>
          <Trackpoint>
            <Time>2021-07-17T13:20:45.000Z</Time>
            <Position>
              <LatitudeDegrees>42.71606641821563243865966796875</LatitudeDegrees>
              <LongitudeDegrees>-0.21231494843959808349609375</LongitudeDegrees>
            </Position>
            <AltitudeMeters>1896.800048828125</AltitudeMeters>
            <DistanceMeters>NAN</DistanceMeters>
          </Trackpoint>
          <Trackpoint>
            <Time>2021-07-17T13:21:09.000Z</Time>
            <Position>
              <LatitudeDegrees>42.71606474183499813079833984375</LatitudeDegrees>
              <LongitudeDegrees>-0.21231721155345439910888671875</LongitudeDegrees>
            </Position>
            <AltitudeMeters>1896.800048828125</AltitudeMeters>
            <DistanceMeters>NAN</DistanceMeters>
          </Trackpoint>
          <Trackpoint>
            <Time>2021-07-17T13:21:40.000Z</Time>
            <Position>
              <LatitudeDegrees>42.716069184243679046630859375</LatitudeDegrees>
              <LongitudeDegrees>-0.2122638188302516937255859375</LongitudeDegrees>
            </Position>
            <AltitudeMeters>1896.800048828125</AltitudeMeters>
            <DistanceMeters>NAN</DistanceMeters>
          </Trackpoint>
          <Trackpoint>
            <Time>2021-07-17T13:21:43.000Z</Time>
            <Position>
              <LatitudeDegrees>42.716071195900440216064453125</LatitudeDegrees>
              <LongitudeDegrees>-0.21226407028734683990478515625</LongitudeDegrees>
            </Position>
            <AltitudeMeters>1896.800048828125</AltitudeMeters>
            <DistanceMeters>NAN</DistanceMeters>
          </Trackpoint>
          <Trackpoint>
            <Time>2021-07-17T13:21:46.000Z</Time>
            <Position>
              <LatitudeDegrees>42.71607999689877033233642578125</LatitudeDegrees>
              <LongitudeDegrees>-0.21226675249636173248291015625</LongitudeDegrees>
            </Position>
            <AltitudeMeters>1896.5999755859375</AltitudeMeters>
            <DistanceMeters>NAN</DistanceMeters>
          </Trackpoint>
          <Trackpoint>
            <Time>2021-07-17T13:21:51.000Z</Time>
            <Position>
              <LatitudeDegrees>42.7160827629268169403076171875</LatitudeDegrees>
              <LongitudeDegrees>-0.21226859651505947113037109375</LongitudeDegrees>
            </Position>
            <AltitudeMeters>1896.5999755859375</AltitudeMeters>
            <DistanceMeters>NAN</DistanceMeters>
          </Trackpoint>
          <Trackpoint>
            <Time>2021-07-17T13:21:53.000Z</Time>
            <Position>
              <LatitudeDegrees>42.7160827629268169403076171875</LatitudeDegrees>
              <LongitudeDegrees>-0.21226859651505947113037109375</LongitudeDegrees>
            </Position>
            <AltitudeMeters>1896.5999755859375</AltitudeMeters>
            <DistanceMeters>NAN</DistanceMeters>
          </Trackpoint>
          <Trackpoint>
            <Time>2021-07-17T13:22:10.000Z</Time>
            <Position>
              <LatitudeDegrees>42.71601076237857341766357421875</LatitudeDegrees>
              <LongitudeDegrees>-0.21218947134912014007568359375</LongitudeDegrees>
            </Position>
            <AltitudeMeters>1895.5999755859375</AltitudeMeters>
            <DistanceMeters>NAN</DistanceMeters>
          </Trackpoint>
          <Trackpoint>
            <Time>2021-07-17T13:22:14.000Z</Time>
            <Position>
              <LatitudeDegrees>42.71596080623567104339599609375</LatitudeDegrees>
              <LongitudeDegrees>-0.21213465370237827301025390625</LongitudeDegrees>
            </Position>
            <AltitudeMeters>1894.5999755859375</AltitudeMeters>
            <DistanceMeters>NAN</DistanceMeters>
          </Trackpoint>
          <Trackpoint>
            <Time>2021-07-17T13:22:16.000Z</Time>
            <Position>
              <LatitudeDegrees>42.71596013568341732025146484375</LatitudeDegrees>
              <LongitudeDegrees>-0.21211110055446624755859375</LongitudeDegrees>
            </Position>
            <AltitudeMeters>1894.5999755859375</AltitudeMeters>
            <DistanceMeters>NAN</DistanceMeters>
          </Trackpoint>
          <Trackpoint>
            <Time>2021-07-17T13:22:17.000Z</Time>
            <Position>
              <LatitudeDegrees>42.7159617282450199127197265625</LatitudeDegrees>
              <LongitudeDegrees>-0.21209777332842350006103515625</LongitudeDegrees>
            </Position>
            <AltitudeMeters>1894.5999755859375</AltitudeMeters>
            <DistanceMeters>NAN</DistanceMeters>
          </Trackpoint>
          <Trackpoint>
            <Time>2021-07-17T13:22:20.000Z</Time>
            <Position>
              <LatitudeDegrees>42.71594320423901081085205078125</LatitudeDegrees>
              <LongitudeDegrees>-0.21207153797149658203125</LongitudeDegrees>
            </Position>
            <AltitudeMeters>1894.5999755859375</AltitudeMeters>
            <DistanceMeters>NAN</DistanceMeters>
          </Trackpoint>
          <Trackpoint>
            <Time>2021-07-17T13:22:22.000Z</Time>
            <Position>
              <LatitudeDegrees>42.71593272686004638671875</LatitudeDegrees>
              <LongitudeDegrees>-0.21205100230872631072998046875</LongitudeDegrees>
            </Position>
            <AltitudeMeters>1894.5999755859375</AltitudeMeters>
            <DistanceMeters>NAN</DistanceMeters>
          </Trackpoint>
          <Trackpoint>
            <Time>2021-07-17T13:22:23.000Z</Time>
            <Position>
              <LatitudeDegrees>42.71593230776488780975341796875</LatitudeDegrees>
              <LongitudeDegrees>-0.21203708834946155548095703125</LongitudeDegrees>
            </Position>
            <AltitudeMeters>1894.5999755859375</AltitudeMeters>
            <DistanceMeters>NAN</DistanceMeters>
          </Trackpoint>
          <Trackpoint>
            <Time>2021-07-17T13:22:27.000Z</Time>
            <Position>
              <LatitudeDegrees>42.715916968882083892822265625</LatitudeDegrees>
              <LongitudeDegrees>-0.2119821868836879730224609375</LongitudeDegrees>
            </Position>
            <AltitudeMeters>1894.800048828125</AltitudeMeters>
            <DistanceMeters>NAN</DistanceMeters>
          </Trackpoint>
          <Trackpoint>
            <Time>2021-07-17T13:22:30.000Z</Time>
            <Position>
              <LatitudeDegrees>42.71589743904769420623779296875</LatitudeDegrees>
              <LongitudeDegrees>-0.21196064539253711700439453125</LongitudeDegrees>
            </Position>
            <AltitudeMeters>1894.5999755859375</AltitudeMeters>
            <DistanceMeters>NAN</DistanceMeters>
          </Trackpoint>
          <Trackpoint>
            <Time>2021-07-17T13:22:32.000Z</Time>
            <Position>
              <LatitudeDegrees>42.71588017232716083526611328125</LatitudeDegrees>
              <LongitudeDegrees>-0.21195880137383937835693359375</LongitudeDegrees>
            </Position>
            <AltitudeMeters>1895.5999755859375</AltitudeMeters>
            <DistanceMeters>NAN</DistanceMeters>
          </Trackpoint>
          <Trackpoint>
            <Time>2021-07-17T13:22:34.000Z</Time>
            <Position>
              <LatitudeDegrees>42.715871036052703857421875</LatitudeDegrees>
              <LongitudeDegrees>-0.21195494569838047027587890625</LongitudeDegrees>
            </Position>
            <AltitudeMeters>1896.4000244140625</AltitudeMeters>
            <DistanceMeters>NAN</DistanceMeters>
          </Trackpoint>
          <Trackpoint>
            <Time>2021-07-17T13:22:38.000Z</Time>
            <Position>
              <LatitudeDegrees>42.715838514268398284912109375</LatitudeDegrees>
              <LongitudeDegrees>-0.21191152743995189666748046875</LongitudeDegrees>
            </Position>
            <AltitudeMeters>1898.800048828125</AltitudeMeters>
            <DistanceMeters>NAN</DistanceMeters>
          </Trackpoint>
          <Trackpoint>
            <Time>2021-07-17T13:22:42.000Z</Time>
            <Position>
              <LatitudeDegrees>42.71581060253083705902099609375</LatitudeDegrees>
              <LongitudeDegrees>-0.21187012083828449249267578125</LongitudeDegrees>
            </Position>
            <AltitudeMeters>1899</AltitudeMeters>
            <DistanceMeters>NAN</DistanceMeters>
          </Trackpoint>
          <Trackpoint>
            <Time>2021-07-17T13:22:48.000Z</Time>
            <Position>
              <LatitudeDegrees>42.71578411571681499481201171875</LatitudeDegrees>
              <LongitudeDegrees>-0.211818404495716094970703125</LongitudeDegrees>
            </Position>
            <AltitudeMeters>1900.5999755859375</AltitudeMeters>
            <DistanceMeters>NAN</DistanceMeters>
          </Trackpoint>
          <Trackpoint>
            <Time>2021-07-17T13:22:49.000Z</Time>
            <Position>
              <LatitudeDegrees>42.715774476528167724609375</LatitudeDegrees>
              <LongitudeDegrees>-0.21181077696382999420166015625</LongitudeDegrees>
            </Position>
            <AltitudeMeters>1901.199951171875</AltitudeMeters>
            <DistanceMeters>NAN</DistanceMeters>
          </Trackpoint>
          <Trackpoint>
            <Time>2021-07-17T13:22:51.000Z</Time>
            <Position>
              <LatitudeDegrees>42.7157521806657314300537109375</LatitudeDegrees>
              <LongitudeDegrees>-0.2117994613945484161376953125</LongitudeDegrees>
            </Position>
            <AltitudeMeters>1902.4000244140625</AltitudeMeters>
            <DistanceMeters>NAN</DistanceMeters>
          </Trackpoint>
          <Trackpoint>
            <Time>2021-07-17T13:22:57.000Z</Time>
            <Position>
              <LatitudeDegrees>42.71570348180830478668212890625</LatitudeDegrees>
              <LongitudeDegrees>-0.2117645926773548126220703125</LongitudeDegrees>
            </Position>
            <AltitudeMeters>1904.800048828125</AltitudeMeters>
            <DistanceMeters>NAN</DistanceMeters>
          </Trackpoint>
          <Trackpoint>
            <Time>2021-07-17T13:23:04.000Z</Time>
            <Position>
              <LatitudeDegrees>42.715682946145534515380859375</LatitudeDegrees>
              <LongitudeDegrees>-0.21169267594814300537109375</LongitudeDegrees>
            </Position>
            <AltitudeMeters>1905.199951171875</AltitudeMeters>
            <DistanceMeters>NAN</DistanceMeters>
          </Trackpoint>
          <Trackpoint>
            <Time>2021-07-17T13:23:05.000Z</Time>
            <Position>
              <LatitudeDegrees>42.715680934488773345947265625</LatitudeDegrees>
              <LongitudeDegrees>-0.21168102510273456573486328125</LongitudeDegrees>
            </Position>
            <AltitudeMeters>1905.199951171875</AltitudeMeters>
            <DistanceMeters>NAN</DistanceMeters>
          </Trackpoint>
          <Trackpoint>
            <Time>2021-07-17T13:23:09.000Z</Time>
            <Position>
              <LatitudeDegrees>42.71566743962466716766357421875</LatitudeDegrees>
              <LongitudeDegrees>-0.21163408644497394561767578125</LongitudeDegrees>
            </Position>
            <AltitudeMeters>1905.4000244140625</AltitudeMeters>
            <DistanceMeters>NAN</DistanceMeters>
          </Trackpoint>
          <Trackpoint>
            <Time>2021-07-17T13:23:15.000Z</Time>
            <Position>
              <LatitudeDegrees>42.71565050818026065826416015625</LatitudeDegrees>
              <LongitudeDegrees>-0.21156870760023593902587890625</LongitudeDegrees>
            </Position>
            <AltitudeMeters>1906.199951171875</AltitudeMeters>
            <DistanceMeters>NAN</DistanceMeters>
          </Trackpoint>
          <Trackpoint>
            <Time>2021-07-17T13:23:19.000Z</Time>
            <Position>
              <LatitudeDegrees>42.71563290618360042572021484375</LatitudeDegrees>
              <LongitudeDegrees>-0.21151640452444553375244140625</LongitudeDegrees>
            </Position>
            <AltitudeMeters>1906</AltitudeMeters>
            <DistanceMeters>NAN</DistanceMeters>
          </Trackpoint>
          <Trackpoint>
            <Time>2021-07-17T13:23:22.000Z</Time>
            <Position>
              <LatitudeDegrees>42.71562553010880947113037109375</LatitudeDegrees>
              <LongitudeDegrees>-0.2114786021411418914794921875</LongitudeDegrees>
            </Position>
            <AltitudeMeters>1905.4000244140625</AltitudeMeters>
            <DistanceMeters>NAN</DistanceMeters>
          </Trackpoint>
          <Trackpoint>
            <Time>2021-07-17T13:23:27.000Z</Time>
            <Position>
              <LatitudeDegrees>42.71562184207141399383544921875</LatitudeDegrees>
              <LongitudeDegrees>-0.21145521663129329681396484375</LongitudeDegrees>
            </Position>
            <AltitudeMeters>1905</AltitudeMeters>
            <DistanceMeters>NAN</DistanceMeters>
          </Trackpoint>
          <Trackpoint>
            <Time>2021-07-17T13:23:29.000Z</Time>
            <Position>
              <LatitudeDegrees>42.7156230993568897247314453125</LatitudeDegrees>
              <LongitudeDegrees>-0.21145521663129329681396484375</LongitudeDegrees>
            </Position>
            <AltitudeMeters>1905</AltitudeMeters>
            <DistanceMeters>NAN</DistanceMeters>
          </Trackpoint>
          <Trackpoint>
            <Time>2021-07-17T13:23:41.000Z</Time>
            <Position>
              <LatitudeDegrees>42.715613543987274169921875</LatitudeDegrees>
              <LongitudeDegrees>-0.2114497683942317962646484375</LongitudeDegrees>
            </Position>
            <AltitudeMeters>1905.199951171875</AltitudeMeters>
            <DistanceMeters>NAN</DistanceMeters>
          </Trackpoint>
          <Trackpoint>
            <Time>2021-07-17T13:23:52.000Z</Time>
            <Position>
              <LatitudeDegrees>42.715613543987274169921875</LatitudeDegrees>
              <LongitudeDegrees>-0.21144867874681949615478515625</LongitudeDegrees>
            </Position>
            <AltitudeMeters>1905.199951171875</AltitudeMeters>
            <DistanceMeters>NAN</DistanceMeters>
          </Trackpoint>
          <Trackpoint>
            <Time>2021-07-17T13:23:59.000Z</Time>
            <Position>
              <LatitudeDegrees>42.71560809575021266937255859375</LatitudeDegrees>
              <LongitudeDegrees>-0.21143116056919097900390625</LongitudeDegrees>
            </Position>
            <AltitudeMeters>1905.199951171875</AltitudeMeters>
            <DistanceMeters>NAN</DistanceMeters>
          </Trackpoint>
          <Trackpoint>
            <Time>2021-07-17T13:24:03.000Z</Time>
            <Position>
              <LatitudeDegrees>42.71557305939495563507080078125</LatitudeDegrees>
              <LongitudeDegrees>-0.21135379560291767120361328125</LongitudeDegrees>
            </Position>
            <AltitudeMeters>1905.5999755859375</AltitudeMeters>
            <DistanceMeters>NAN</DistanceMeters>
          </Trackpoint>
          <Trackpoint>
            <Time>2021-07-17T13:24:05.000Z</Time>
            <Position>
              <LatitudeDegrees>42.71554975770413875579833984375</LatitudeDegrees>
              <LongitudeDegrees>-0.21131171844899654388427734375</LongitudeDegrees>
            </Position>
            <AltitudeMeters>1905.199951171875</AltitudeMeters>
            <DistanceMeters>NAN</DistanceMeters>
          </Trackpoint>
          <Trackpoint>
            <Time>2021-07-17T13:24:06.000Z</Time>
            <Position>
              <LatitudeDegrees>42.71553718484938144683837890625</LatitudeDegrees>
              <LongitudeDegrees>-0.21129059605300426483154296875</LongitudeDegrees>
            </Position>
            <AltitudeMeters>1905.5999755859375</AltitudeMeters>
            <DistanceMeters>NAN</DistanceMeters>
          </Trackpoint>
          <Trackpoint>
            <Time>2021-07-17T13:24:09.000Z</Time>
            <Position>
              <LatitudeDegrees>42.715508937835693359375</LatitudeDegrees>
              <LongitudeDegrees>-0.21123804152011871337890625</LongitudeDegrees>
            </Position>
            <AltitudeMeters>1907</AltitudeMeters>
            <DistanceMeters>NAN</DistanceMeters>
          </Trackpoint>
          <Trackpoint>
            <Time>2021-07-17T13:24:11.000Z</Time>
            <Position>
              <LatitudeDegrees>42.71549209021031856536865234375</LatitudeDegrees>
              <LongitudeDegrees>-0.2112172544002532958984375</LongitudeDegrees>
            </Position>
            <AltitudeMeters>1907.5999755859375</AltitudeMeters>
            <DistanceMeters>NAN</DistanceMeters>
          </Trackpoint>
          <Trackpoint>
            <Time>2021-07-17T13:24:22.000Z</Time>
            <Position>
              <LatitudeDegrees>42.71542738191783428192138671875</LatitudeDegrees>
              <LongitudeDegrees>-0.21110720001161098480224609375</LongitudeDegrees>
            </Position>
            <AltitudeMeters>1908.5999755859375</AltitudeMeters>
            <DistanceMeters>NAN</DistanceMeters>
          </Trackpoint>
          <Trackpoint>
            <Time>2021-07-17T13:24:23.000Z</Time>
            <Position>
              <LatitudeDegrees>42.715425789356231689453125</LatitudeDegrees>
              <LongitudeDegrees>-0.21110736764967441558837890625</LongitudeDegrees>
            </Position>
            <AltitudeMeters>1908.5999755859375</AltitudeMeters>
            <DistanceMeters>NAN</DistanceMeters>
          </Trackpoint>
          <Trackpoint>
            <Time>2021-07-17T13:24:27.000Z</Time>
            <Position>
              <LatitudeDegrees>42.715423107147216796875</LatitudeDegrees>
              <LongitudeDegrees>-0.211104266345500946044921875</LongitudeDegrees>
            </Position>
            <AltitudeMeters>1908.5999755859375</AltitudeMeters>
            <DistanceMeters>NAN</DistanceMeters>
          </Trackpoint>
          <Trackpoint>
            <Time>2021-07-17T13:24:30.000Z</Time>
            <Position>
              <LatitudeDegrees>42.71540793590247631072998046875</LatitudeDegrees>
              <LongitudeDegrees>-0.2110829763114452362060546875</LongitudeDegrees>
            </Position>
            <AltitudeMeters>1908.5999755859375</AltitudeMeters>
            <DistanceMeters>NAN</DistanceMeters>
          </Trackpoint>
          <Trackpoint>
            <Time>2021-07-17T13:24:39.000Z</Time>
            <Position>
              <LatitudeDegrees>42.71536887623369693756103515625</LatitudeDegrees>
              <LongitudeDegrees>-0.21096621640026569366455078125</LongitudeDegrees>
            </Position>
            <AltitudeMeters>1908.199951171875</AltitudeMeters>
            <DistanceMeters>NAN</DistanceMeters>
          </Trackpoint>
          <Trackpoint>
            <Time>2021-07-17T13:24:45.000Z</Time>
            <Position>
              <LatitudeDegrees>42.71535613574087619781494140625</LatitudeDegrees>
              <LongitudeDegrees>-0.21091751754283905029296875</LongitudeDegrees>
            </Position>
            <AltitudeMeters>1907.5999755859375</AltitudeMeters>
            <DistanceMeters>NAN</DistanceMeters>
          </Trackpoint>
          <Trackpoint>
            <Time>2021-07-17T13:24:47.000Z</Time>
            <Position>
              <LatitudeDegrees>42.71535228006541728973388671875</LatitudeDegrees>
              <LongitudeDegrees>-0.21090653724968433380126953125</LongitudeDegrees>
            </Position>
            <AltitudeMeters>1907.4000244140625</AltitudeMeters>
            <DistanceMeters>NAN</DistanceMeters>
          </Trackpoint>
          <Trackpoint>
            <Time>2021-07-17T13:24:56.000Z</Time>
            <Position>
              <LatitudeDegrees>42.71535194478929042816162109375</LatitudeDegrees>
              <LongitudeDegrees>-0.21090754307806491851806640625</LongitudeDegrees>
            </Position>
            <AltitudeMeters>1907.4000244140625</AltitudeMeters>
            <DistanceMeters>NAN</DistanceMeters>
          </Trackpoint>
          <Trackpoint>
            <Time>2021-07-17T13:25:01.000Z</Time>
            <Position>
              <LatitudeDegrees>42.71535194478929042816162109375</LatitudeDegrees>
              <LongitudeDegrees>-0.21090754307806491851806640625</LongitudeDegrees>
            </Position>
            <AltitudeMeters>1907.4000244140625</AltitudeMeters>
            <DistanceMeters>NAN</DistanceMeters>
          </Trackpoint>
          <Trackpoint>
            <Time>2021-07-17T13:25:21.000Z</Time>
            <Position>
              <LatitudeDegrees>42.7153545431792736053466796875</LatitudeDegrees>
              <LongitudeDegrees>-0.2108432538807392120361328125</LongitudeDegrees>
            </Position>
            <AltitudeMeters>1906.4000244140625</AltitudeMeters>
            <DistanceMeters>NAN</DistanceMeters>
          </Trackpoint>
          <Trackpoint>
            <Time>2021-07-17T13:25:22.000Z</Time>
            <Position>
              <LatitudeDegrees>42.71535479463636875152587890625</LatitudeDegrees>
              <LongitudeDegrees>-0.21083344705402851104736328125</LongitudeDegrees>
            </Position>
            <AltitudeMeters>1906.199951171875</AltitudeMeters>
            <DistanceMeters>NAN</DistanceMeters>
          </Trackpoint>
          <Trackpoint>
            <Time>2021-07-17T13:25:25.000Z</Time>
            <Position>
              <LatitudeDegrees>42.71534590981900691986083984375</LatitudeDegrees>
              <LongitudeDegrees>-0.21081425249576568603515625</LongitudeDegrees>
            </Position>
            <AltitudeMeters>1906</AltitudeMeters>
            <DistanceMeters>NAN</DistanceMeters>
          </Trackpoint>
          <Trackpoint>
            <Time>2021-07-17T13:25:30.000Z</Time>
            <Position>
              <LatitudeDegrees>42.71533383987843990325927734375</LatitudeDegrees>
              <LongitudeDegrees>-0.21080662496387958526611328125</LongitudeDegrees>
            </Position>
            <AltitudeMeters>1906</AltitudeMeters>
            <DistanceMeters>NAN</DistanceMeters>
          </Trackpoint>
          <Trackpoint>
            <Time>2021-07-17T13:25:42.000Z</Time>
            <Position>
              <LatitudeDegrees>42.7153270505368709564208984375</LatitudeDegrees>
              <LongitudeDegrees>-0.210806541144847869873046875</LongitudeDegrees>
            </Position>
            <AltitudeMeters>1906.4000244140625</AltitudeMeters>
            <DistanceMeters>NAN</DistanceMeters>
          </Trackpoint>
          <Trackpoint>
            <Time>2021-07-17T13:25:57.000Z</Time>
            <Position>
              <LatitudeDegrees>42.71534062922000885009765625</LatitudeDegrees>
              <LongitudeDegrees>-0.2107718400657176971435546875</LongitudeDegrees>
            </Position>
            <AltitudeMeters>1905.199951171875</AltitudeMeters>
            <DistanceMeters>NAN</DistanceMeters>
          </Trackpoint>
          <Trackpoint>
            <Time>2021-07-17T13:26:06.000Z</Time>
            <Position>
              <LatitudeDegrees>42.71534205414354801177978515625</LatitudeDegrees>
              <LongitudeDegrees>-0.2107694931328296661376953125</LongitudeDegrees>
            </Position>
            <AltitudeMeters>1905.199951171875</AltitudeMeters>
            <DistanceMeters>NAN</DistanceMeters>
          </Trackpoint>
          <Trackpoint>
            <Time>2021-07-17T13:26:22.000Z</Time>
            <Position>
              <LatitudeDegrees>42.7153374440968036651611328125</LatitudeDegrees>
              <LongitudeDegrees>-0.2107741869986057281494140625</LongitudeDegrees>
            </Position>
            <AltitudeMeters>1905.4000244140625</AltitudeMeters>
            <DistanceMeters>NAN</DistanceMeters>
          </Trackpoint>
          <Trackpoint>
            <Time>2021-07-17T13:26:30.000Z</Time>
            <Position>
              <LatitudeDegrees>42.7153290621936321258544921875</LatitudeDegrees>
              <LongitudeDegrees>-0.21077946759760379791259765625</LongitudeDegrees>
            </Position>
            <AltitudeMeters>1905.800048828125</AltitudeMeters>
            <DistanceMeters>NAN</DistanceMeters>
          </Trackpoint>
          <Trackpoint>
            <Time>2021-07-17T13:26:35.000Z</Time>
            <Position>
              <LatitudeDegrees>42.7153290621936321258544921875</LatitudeDegrees>
              <LongitudeDegrees>-0.21077946759760379791259765625</LongitudeDegrees>
            </Position>
            <AltitudeMeters>1905.800048828125</AltitudeMeters>
            <DistanceMeters>NAN</DistanceMeters>
          </Trackpoint>
          <Trackpoint>
            <Time>2021-07-17T13:26:45.000Z</Time>
            <Position>
              <LatitudeDegrees>42.7153320796787738800048828125</LatitudeDegrees>
              <LongitudeDegrees>-0.21077343262732028961181640625</LongitudeDegrees>
            </Position>
            <AltitudeMeters>1905.5999755859375</AltitudeMeters>
            <DistanceMeters>NAN</DistanceMeters>
          </Trackpoint>
          <Trackpoint>
            <Time>2021-07-17T13:26:58.000Z</Time>
            <Position>
              <LatitudeDegrees>42.71533166058361530303955078125</LatitudeDegrees>
              <LongitudeDegrees>-0.21073244512081146240234375</LongitudeDegrees>
            </Position>
            <AltitudeMeters>1905.199951171875</AltitudeMeters>
            <DistanceMeters>NAN</DistanceMeters>
          </Trackpoint>
          <Trackpoint>
            <Time>2021-07-17T13:27:02.000Z</Time>
            <Position>
              <LatitudeDegrees>42.71532696671783924102783203125</LatitudeDegrees>
              <LongitudeDegrees>-0.21073185838758945465087890625</LongitudeDegrees>
            </Position>
            <AltitudeMeters>1905.4000244140625</AltitudeMeters>
            <DistanceMeters>NAN</DistanceMeters>
          </Trackpoint>
          <Trackpoint>
            <Time>2021-07-17T13:27:04.000Z</Time>
            <Position>
              <LatitudeDegrees>42.71532663144171237945556640625</LatitudeDegrees>
              <LongitudeDegrees>-0.21073118783533573150634765625</LongitudeDegrees>
            </Position>
            <AltitudeMeters>1905.4000244140625</AltitudeMeters>
            <DistanceMeters>NAN</DistanceMeters>
          </Trackpoint>
          <Trackpoint>
            <Time>2021-07-17T13:27:08.000Z</Time>
            <Position>
              <LatitudeDegrees>42.7153260447084903717041015625</LatitudeDegrees>
              <LongitudeDegrees>-0.21073102019727230072021484375</LongitudeDegrees>
            </Position>
            <AltitudeMeters>1905.4000244140625</AltitudeMeters>
            <DistanceMeters>NAN</DistanceMeters>
          </Trackpoint>
          <Trackpoint>
            <Time>2021-07-17T13:27:39.000Z</Time>
            <Position>
              <LatitudeDegrees>42.715318165719509124755859375</LatitudeDegrees>
              <LongitudeDegrees>-0.210746861994266510009765625</LongitudeDegrees>
            </Position>
            <AltitudeMeters>1905.800048828125</AltitudeMeters>
            <DistanceMeters>NAN</DistanceMeters>
          </Trackpoint>
          <Trackpoint>
            <Time>2021-07-17T13:27:45.000Z</Time>
            <Position>
              <LatitudeDegrees>42.71531690843403339385986328125</LatitudeDegrees>
              <LongitudeDegrees>-0.21074979566037654876708984375</LongitudeDegrees>
            </Position>
            <AltitudeMeters>1905.800048828125</AltitudeMeters>
            <DistanceMeters>NAN</DistanceMeters>
          </Trackpoint>
          <Trackpoint>
            <Time>2021-07-17T13:27:47.000Z</Time>
            <Position>
              <LatitudeDegrees>42.71531640551984310150146484375</LatitudeDegrees>
              <LongitudeDegrees>-0.210750885307788848876953125</LongitudeDegrees>
            </Position>
            <AltitudeMeters>1905.800048828125</AltitudeMeters>
            <DistanceMeters>NAN</DistanceMeters>
          </Trackpoint>
          <Trackpoint>
            <Time>2021-07-17T13:27:50.000Z</Time>
            <Position>
              <LatitudeDegrees>42.71531556732952594757080078125</LatitudeDegrees>
              <LongitudeDegrees>-0.210754238069057464599609375</LongitudeDegrees>
            </Position>
            <AltitudeMeters>1906</AltitudeMeters>
            <DistanceMeters>NAN</DistanceMeters>
          </Trackpoint>
          <Trackpoint>
            <Time>2021-07-17T13:28:03.000Z</Time>
            <Position>
              <LatitudeDegrees>42.71531372331082820892333984375</LatitudeDegrees>
              <LongitudeDegrees>-0.21075733937323093414306640625</LongitudeDegrees>
            </Position>
            <AltitudeMeters>1906</AltitudeMeters>
            <DistanceMeters>NAN</DistanceMeters>
          </Trackpoint>
          <Trackpoint>
            <Time>2021-07-17T13:28:33.000Z</Time>
            <Position>
              <LatitudeDegrees>42.71532612852752208709716796875</LatitudeDegrees>
              <LongitudeDegrees>-0.210742168128490447998046875</LongitudeDegrees>
            </Position>
            <AltitudeMeters>1905.4000244140625</AltitudeMeters>
            <DistanceMeters>NAN</DistanceMeters>
          </Trackpoint>
          <Trackpoint>
            <Time>2021-07-17T13:28:40.000Z</Time>
            <Position>
              <LatitudeDegrees>42.71532746963202953338623046875</LatitudeDegrees>
              <LongitudeDegrees>-0.21074116230010986328125</LongitudeDegrees>
            </Position>
            <AltitudeMeters>1905.4000244140625</AltitudeMeters>
            <DistanceMeters>NAN</DistanceMeters>
          </Trackpoint>
          <Trackpoint>
            <Time>2021-07-17T13:29:49.000Z</Time>
            <Position>
              <LatitudeDegrees>42.715330235660076141357421875</LatitudeDegrees>
              <LongitudeDegrees>-0.21074493415653705596923828125</LongitudeDegrees>
            </Position>
            <AltitudeMeters>1905.199951171875</AltitudeMeters>
            <DistanceMeters>NAN</DistanceMeters>
          </Trackpoint>
          <Trackpoint>
            <Time>2021-07-17T13:29:54.000Z</Time>
            <Position>
              <LatitudeDegrees>42.715330235660076141357421875</LatitudeDegrees>
              <LongitudeDegrees>-0.2107450179755687713623046875</LongitudeDegrees>
            </Position>
            <AltitudeMeters>1905.199951171875</AltitudeMeters>
            <DistanceMeters>NAN</DistanceMeters>
          </Trackpoint>
          <Trackpoint>
            <Time>2021-07-17T13:29:58.000Z</Time>
            <Position>
              <LatitudeDegrees>42.71533031947910785675048828125</LatitudeDegrees>
              <LongitudeDegrees>-0.2107450179755687713623046875</LongitudeDegrees>
            </Position>
            <AltitudeMeters>1905.199951171875</AltitudeMeters>
            <DistanceMeters>NAN</DistanceMeters>
          </Trackpoint>
          <Trackpoint>
            <Time>2021-07-17T13:30:01.000Z</Time>
            <Position>
              <LatitudeDegrees>42.71533031947910785675048828125</LatitudeDegrees>
              <LongitudeDegrees>-0.2107450179755687713623046875</LongitudeDegrees>
            </Position>
            <AltitudeMeters>1905.199951171875</AltitudeMeters>
            <DistanceMeters>NAN</DistanceMeters>
          </Trackpoint>
          <Trackpoint>
            <Time>2021-07-17T13:30:03.000Z</Time>
            <Position>
              <LatitudeDegrees>42.7153304032981395721435546875</LatitudeDegrees>
              <LongitudeDegrees>-0.21074510179460048675537109375</LongitudeDegrees>
            </Position>
            <AltitudeMeters>1905.199951171875</AltitudeMeters>
            <DistanceMeters>NAN</DistanceMeters>
          </Trackpoint>
          <Trackpoint>
            <Time>2021-07-17T13:30:26.000Z</Time>
            <Position>
              <LatitudeDegrees>42.7153305709362030029296875</LatitudeDegrees>
              <LongitudeDegrees>-0.2107451856136322021484375</LongitudeDegrees>
            </Position>
            <AltitudeMeters>1905.199951171875</AltitudeMeters>
            <DistanceMeters>NAN</DistanceMeters>
          </Trackpoint>
          <Trackpoint>
            <Time>2021-07-17T13:30:35.000Z</Time>
            <Position>
              <LatitudeDegrees>42.7153305709362030029296875</LatitudeDegrees>
              <LongitudeDegrees>-0.2107451856136322021484375</LongitudeDegrees>
            </Position>
            <AltitudeMeters>1905.199951171875</AltitudeMeters>
            <DistanceMeters>NAN</DistanceMeters>
          </Trackpoint>
          <Trackpoint>
            <Time>2021-07-17T13:30:46.000Z</Time>
            <Position>
              <LatitudeDegrees>42.7153305709362030029296875</LatitudeDegrees>
              <LongitudeDegrees>-0.21074526943266391754150390625</LongitudeDegrees>
            </Position>
            <AltitudeMeters>1905.199951171875</AltitudeMeters>
            <DistanceMeters>NAN</DistanceMeters>
          </Trackpoint>
          <Trackpoint>
            <Time>2021-07-17T13:30:49.000Z</Time>
            <Position>
              <LatitudeDegrees>42.7153305709362030029296875</LatitudeDegrees>
              <LongitudeDegrees>-0.21074526943266391754150390625</LongitudeDegrees>
            </Position>
            <AltitudeMeters>1905.199951171875</AltitudeMeters>
            <DistanceMeters>NAN</DistanceMeters>
          </Trackpoint>
          <Trackpoint>
            <Time>2021-07-17T13:31:00.000Z</Time>
            <Position>
              <LatitudeDegrees>42.71533048711717128753662109375</LatitudeDegrees>
              <LongitudeDegrees>-0.21074526943266391754150390625</LongitudeDegrees>
            </Position>
            <AltitudeMeters>1905.199951171875</AltitudeMeters>
            <DistanceMeters>NAN</DistanceMeters>
          </Trackpoint>
          <Trackpoint>
            <Time>2021-07-17T13:31:18.000Z</Time>
            <Position>
              <LatitudeDegrees>42.71533065475523471832275390625</LatitudeDegrees>
              <LongitudeDegrees>-0.21074493415653705596923828125</LongitudeDegrees>
            </Position>
            <AltitudeMeters>1905.199951171875</AltitudeMeters>
            <DistanceMeters>NAN</DistanceMeters>
          </Trackpoint>
          <Trackpoint>
            <Time>2021-07-17T13:31:23.000Z</Time>
            <Position>
              <LatitudeDegrees>42.71533065475523471832275390625</LatitudeDegrees>
              <LongitudeDegrees>-0.210744850337505340576171875</LongitudeDegrees>
            </Position>
            <AltitudeMeters>1905.199951171875</AltitudeMeters>
            <DistanceMeters>NAN</DistanceMeters>
          </Trackpoint>
          <Trackpoint>
            <Time>2021-07-17T13:31:28.000Z</Time>
            <Position>
              <LatitudeDegrees>42.7153305709362030029296875</LatitudeDegrees>
              <LongitudeDegrees>-0.21074476651847362518310546875</LongitudeDegrees>
            </Position>
            <AltitudeMeters>1905.199951171875</AltitudeMeters>
            <DistanceMeters>NAN</DistanceMeters>
          </Trackpoint>
          <Trackpoint>
            <Time>2021-07-17T13:31:50.000Z</Time>
            <Position>
              <LatitudeDegrees>42.71533065475523471832275390625</LatitudeDegrees>
              <LongitudeDegrees>-0.210744850337505340576171875</LongitudeDegrees>
            </Position>
            <AltitudeMeters>1905.199951171875</AltitudeMeters>
            <DistanceMeters>NAN</DistanceMeters>
          </Trackpoint>
          <Trackpoint>
            <Time>2021-07-17T13:31:58.000Z</Time>
            <Position>
              <LatitudeDegrees>42.7153307385742664337158203125</LatitudeDegrees>
              <LongitudeDegrees>-0.21074493415653705596923828125</LongitudeDegrees>
            </Position>
            <AltitudeMeters>1905.199951171875</AltitudeMeters>
            <DistanceMeters>NAN</DistanceMeters>
          </Trackpoint>
          <Trackpoint>
            <Time>2021-07-17T13:32:06.000Z</Time>
            <Position>
              <LatitudeDegrees>42.71533082239329814910888671875</LatitudeDegrees>
              <LongitudeDegrees>-0.2107450179755687713623046875</LongitudeDegrees>
            </Position>
            <AltitudeMeters>1905.199951171875</AltitudeMeters>
            <DistanceMeters>NAN</DistanceMeters>
          </Trackpoint>
          <Trackpoint>
            <Time>2021-07-17T13:32:11.000Z</Time>
            <Position>
              <LatitudeDegrees>42.715330906212329864501953125</LatitudeDegrees>
              <LongitudeDegrees>-0.21074510179460048675537109375</LongitudeDegrees>
            </Position>
            <AltitudeMeters>1905.199951171875</AltitudeMeters>
            <DistanceMeters>NAN</DistanceMeters>
          </Trackpoint>
          <Trackpoint>
            <Time>2021-07-17T13:32:14.000Z</Time>
            <Position>
              <LatitudeDegrees>42.715330906212329864501953125</LatitudeDegrees>
              <LongitudeDegrees>-0.21074510179460048675537109375</LongitudeDegrees>
            </Position>
            <AltitudeMeters>1905.199951171875</AltitudeMeters>
            <DistanceMeters>NAN</DistanceMeters>
          </Trackpoint>
          <Trackpoint>
            <Time>2021-07-17T13:32:20.000Z</Time>
            <Position>
              <LatitudeDegrees>42.715330906212329864501953125</LatitudeDegrees>
              <LongitudeDegrees>-0.21074510179460048675537109375</LongitudeDegrees>
            </Position>
            <AltitudeMeters>1905.199951171875</AltitudeMeters>
            <DistanceMeters>NAN</DistanceMeters>
          </Trackpoint>
          <Trackpoint>
            <Time>2021-07-17T13:32:34.000Z</Time>
            <Position>
              <LatitudeDegrees>42.7153307385742664337158203125</LatitudeDegrees>
              <LongitudeDegrees>-0.2107450179755687713623046875</LongitudeDegrees>
            </Position>
            <AltitudeMeters>1905.199951171875</AltitudeMeters>
            <DistanceMeters>NAN</DistanceMeters>
          </Trackpoint>
          <Trackpoint>
            <Time>2021-07-17T13:32:37.000Z</Time>
            <Position>
              <LatitudeDegrees>42.7153307385742664337158203125</LatitudeDegrees>
              <LongitudeDegrees>-0.2107450179755687713623046875</LongitudeDegrees>
            </Position>
            <AltitudeMeters>1905.199951171875</AltitudeMeters>
            <DistanceMeters>NAN</DistanceMeters>
          </Trackpoint>
          <Trackpoint>
            <Time>2021-07-17T13:33:16.000Z</Time>
            <Position>
              <LatitudeDegrees>42.71533031947910785675048828125</LatitudeDegrees>
              <LongitudeDegrees>-0.210744850337505340576171875</LongitudeDegrees>
            </Position>
            <AltitudeMeters>1905.199951171875</AltitudeMeters>
            <DistanceMeters>NAN</DistanceMeters>
          </Trackpoint>
          <Trackpoint>
            <Time>2021-07-17T13:33:19.000Z</Time>
            <Position>
              <LatitudeDegrees>42.71533031947910785675048828125</LatitudeDegrees>
              <LongitudeDegrees>-0.210744850337505340576171875</LongitudeDegrees>
            </Position>
            <AltitudeMeters>1905.199951171875</AltitudeMeters>
            <DistanceMeters>NAN</DistanceMeters>
          </Trackpoint>
          <Trackpoint>
            <Time>2021-07-17T13:33:48.000Z</Time>
            <Position>
              <LatitudeDegrees>42.71532990038394927978515625</LatitudeDegrees>
              <LongitudeDegrees>-0.21074593998491764068603515625</LongitudeDegrees>
            </Position>
            <AltitudeMeters>1905.199951171875</AltitudeMeters>
            <DistanceMeters>NAN</DistanceMeters>
          </Trackpoint>
          <Trackpoint>
            <Time>2021-07-17T13:33:57.000Z</Time>
            <Position>
              <LatitudeDegrees>42.71532990038394927978515625</LatitudeDegrees>
              <LongitudeDegrees>-0.210746191442012786865234375</LongitudeDegrees>
            </Position>
            <AltitudeMeters>1905.199951171875</AltitudeMeters>
            <DistanceMeters>NAN</DistanceMeters>
          </Trackpoint>
          <Trackpoint>
            <Time>2021-07-17T13:35:24.000Z</Time>
            <Position>
              <LatitudeDegrees>42.71533132530748844146728515625</LatitudeDegrees>
              <LongitudeDegrees>-0.2107436768710613250732421875</LongitudeDegrees>
            </Position>
            <AltitudeMeters>1905.199951171875</AltitudeMeters>
            <DistanceMeters>NAN</DistanceMeters>
          </Trackpoint>
          <Trackpoint>
            <Time>2021-07-17T13:35:51.000Z</Time>
            <Position>
              <LatitudeDegrees>42.71533182822167873382568359375</LatitudeDegrees>
              <LongitudeDegrees>-0.21074317395687103271484375</LongitudeDegrees>
            </Position>
            <AltitudeMeters>1905.199951171875</AltitudeMeters>
            <DistanceMeters>NAN</DistanceMeters>
          </Trackpoint>
          <Trackpoint>
            <Time>2021-07-17T13:35:53.000Z</Time>
            <Position>
              <LatitudeDegrees>42.71533182822167873382568359375</LatitudeDegrees>
              <LongitudeDegrees>-0.21074309013783931732177734375</LongitudeDegrees>
            </Position>
            <AltitudeMeters>1905.199951171875</AltitudeMeters>
            <DistanceMeters>NAN</DistanceMeters>
          </Trackpoint>
          <Trackpoint>
            <Time>2021-07-17T13:35:55.000Z</Time>
            <Position>
              <LatitudeDegrees>42.71533182822167873382568359375</LatitudeDegrees>
              <LongitudeDegrees>-0.21074309013783931732177734375</LongitudeDegrees>
            </Position>
            <AltitudeMeters>1905.199951171875</AltitudeMeters>
            <DistanceMeters>NAN</DistanceMeters>
          </Trackpoint>
          <Trackpoint>
            <Time>2021-07-17T13:35:58.000Z</Time>
            <Position>
              <LatitudeDegrees>42.71533182822167873382568359375</LatitudeDegrees>
              <LongitudeDegrees>-0.2107430063188076019287109375</LongitudeDegrees>
            </Position>
            <AltitudeMeters>1905.199951171875</AltitudeMeters>
            <DistanceMeters>NAN</DistanceMeters>
          </Trackpoint>
          <Trackpoint>
            <Time>2021-07-17T13:36:16.000Z</Time>
            <Position>
              <LatitudeDegrees>42.71533166058361530303955078125</LatitudeDegrees>
              <LongitudeDegrees>-0.2107426710426807403564453125</LongitudeDegrees>
            </Position>
            <AltitudeMeters>1905.199951171875</AltitudeMeters>
            <DistanceMeters>NAN</DistanceMeters>
          </Trackpoint>
          <Trackpoint>
            <Time>2021-07-17T13:36:34.000Z</Time>
            <Position>
              <LatitudeDegrees>42.71533233113586902618408203125</LatitudeDegrees>
              <LongitudeDegrees>-0.2107426710426807403564453125</LongitudeDegrees>
            </Position>
            <AltitudeMeters>1905.199951171875</AltitudeMeters>
            <DistanceMeters>NAN</DistanceMeters>
          </Trackpoint>
          <Trackpoint>
            <Time>2021-07-17T13:36:36.000Z</Time>
            <Position>
              <LatitudeDegrees>42.71533249877393245697021484375</LatitudeDegrees>
              <LongitudeDegrees>-0.21074275486171245574951171875</LongitudeDegrees>
            </Position>
            <AltitudeMeters>1905.199951171875</AltitudeMeters>
            <DistanceMeters>NAN</DistanceMeters>
          </Trackpoint>
          <Trackpoint>
            <Time>2021-07-17T13:36:41.000Z</Time>
            <Position>
              <LatitudeDegrees>42.71533283405005931854248046875</LatitudeDegrees>
              <LongitudeDegrees>-0.21074309013783931732177734375</LongitudeDegrees>
            </Position>
            <AltitudeMeters>1905.199951171875</AltitudeMeters>
            <DistanceMeters>NAN</DistanceMeters>
          </Trackpoint>
          <Trackpoint>
            <Time>2021-07-17T13:36:47.000Z</Time>
            <Position>
              <LatitudeDegrees>42.71533316932618618011474609375</LatitudeDegrees>
              <LongitudeDegrees>-0.210743509232997894287109375</LongitudeDegrees>
            </Position>
            <AltitudeMeters>1905.199951171875</AltitudeMeters>
            <DistanceMeters>NAN</DistanceMeters>
          </Trackpoint>
          <Trackpoint>
            <Time>2021-07-17T13:37:00.000Z</Time>
            <Position>
              <LatitudeDegrees>42.71533400751650333404541015625</LatitudeDegrees>
              <LongitudeDegrees>-0.2107443474233150482177734375</LongitudeDegrees>
            </Position>
            <AltitudeMeters>1905.199951171875</AltitudeMeters>
            <DistanceMeters>NAN</DistanceMeters>
          </Trackpoint>
          <Trackpoint>
            <Time>2021-07-17T13:37:14.000Z</Time>
            <Position>
              <LatitudeDegrees>42.7153350971639156341552734375</LatitudeDegrees>
              <LongitudeDegrees>-0.2107450179755687713623046875</LongitudeDegrees>
            </Position>
            <AltitudeMeters>1905</AltitudeMeters>
            <DistanceMeters>NAN</DistanceMeters>
          </Trackpoint>
          <Trackpoint>
            <Time>2021-07-17T13:38:19.000Z</Time>
            <Position>
              <LatitudeDegrees>42.71533736027777194976806640625</LatitudeDegrees>
              <LongitudeDegrees>-0.210746191442012786865234375</LongitudeDegrees>
            </Position>
            <AltitudeMeters>1905</AltitudeMeters>
            <DistanceMeters>NAN</DistanceMeters>
          </Trackpoint>
          <Trackpoint>
            <Time>2021-07-17T13:38:31.000Z</Time>
            <Position>
              <LatitudeDegrees>42.71533719263970851898193359375</LatitudeDegrees>
              <LongitudeDegrees>-0.210746191442012786865234375</LongitudeDegrees>
            </Position>
            <AltitudeMeters>1905</AltitudeMeters>
            <DistanceMeters>NAN</DistanceMeters>
          </Trackpoint>
          <Trackpoint>
            <Time>2021-07-17T13:39:01.000Z</Time>
            <Position>
              <LatitudeDegrees>42.71533652208745479583740234375</LatitudeDegrees>
              <LongitudeDegrees>-0.2107460238039493560791015625</LongitudeDegrees>
            </Position>
            <AltitudeMeters>1905</AltitudeMeters>
            <DistanceMeters>NAN</DistanceMeters>
          </Trackpoint>
          <Trackpoint>
            <Time>2021-07-17T13:39:11.000Z</Time>
            <Position>
              <LatitudeDegrees>42.7153364382684230804443359375</LatitudeDegrees>
              <LongitudeDegrees>-0.21074560470879077911376953125</LongitudeDegrees>
            </Position>
            <AltitudeMeters>1905</AltitudeMeters>
            <DistanceMeters>NAN</DistanceMeters>
          </Trackpoint>
          <Trackpoint>
            <Time>2021-07-17T13:39:18.000Z</Time>
            <Position>
              <LatitudeDegrees>42.7153364382684230804443359375</LatitudeDegrees>
              <LongitudeDegrees>-0.2107451856136322021484375</LongitudeDegrees>
            </Position>
            <AltitudeMeters>1905</AltitudeMeters>
            <DistanceMeters>NAN</DistanceMeters>
          </Trackpoint>
          <Trackpoint>
            <Time>2021-07-17T13:39:21.000Z</Time>
            <Position>
              <LatitudeDegrees>42.71533635444939136505126953125</LatitudeDegrees>
              <LongitudeDegrees>-0.21074510179460048675537109375</LongitudeDegrees>
            </Position>
            <AltitudeMeters>1905</AltitudeMeters>
            <DistanceMeters>NAN</DistanceMeters>
          </Trackpoint>
          <Trackpoint>
            <Time>2021-07-17T13:39:31.000Z</Time>
            <Position>
              <LatitudeDegrees>42.715336270630359649658203125</LatitudeDegrees>
              <LongitudeDegrees>-0.210744850337505340576171875</LongitudeDegrees>
            </Position>
            <AltitudeMeters>1905</AltitudeMeters>
            <DistanceMeters>NAN</DistanceMeters>
          </Trackpoint>
          <Trackpoint>
            <Time>2021-07-17T13:39:34.000Z</Time>
            <Position>
              <LatitudeDegrees>42.715336270630359649658203125</LatitudeDegrees>
              <LongitudeDegrees>-0.21074476651847362518310546875</LongitudeDegrees>
            </Position>
            <AltitudeMeters>1905</AltitudeMeters>
            <DistanceMeters>NAN</DistanceMeters>
          </Trackpoint>
          <Trackpoint>
            <Time>2021-07-17T13:40:01.000Z</Time>
            <Position>
              <LatitudeDegrees>42.71533601917326450347900390625</LatitudeDegrees>
              <LongitudeDegrees>-0.21074476651847362518310546875</LongitudeDegrees>
            </Position>
            <AltitudeMeters>1905</AltitudeMeters>
            <DistanceMeters>NAN</DistanceMeters>
          </Trackpoint>
          <Trackpoint>
            <Time>2021-07-17T13:40:15.000Z</Time>
            <Position>
              <LatitudeDegrees>42.71533601917326450347900390625</LatitudeDegrees>
              <LongitudeDegrees>-0.210744850337505340576171875</LongitudeDegrees>
            </Position>
            <AltitudeMeters>1905</AltitudeMeters>
            <DistanceMeters>NAN</DistanceMeters>
          </Trackpoint>
          <Trackpoint>
            <Time>2021-07-17T13:40:23.000Z</Time>
            <Position>
              <LatitudeDegrees>42.71533601917326450347900390625</LatitudeDegrees>
              <LongitudeDegrees>-0.210744850337505340576171875</LongitudeDegrees>
            </Position>
            <AltitudeMeters>1905</AltitudeMeters>
            <DistanceMeters>NAN</DistanceMeters>
          </Trackpoint>
          <Trackpoint>
            <Time>2021-07-17T13:40:26.000Z</Time>
            <Position>
              <LatitudeDegrees>42.7153361029922962188720703125</LatitudeDegrees>
              <LongitudeDegrees>-0.210744850337505340576171875</LongitudeDegrees>
            </Position>
            <AltitudeMeters>1905</AltitudeMeters>
            <DistanceMeters>NAN</DistanceMeters>
          </Trackpoint>
          <Trackpoint>
            <Time>2021-07-17T13:41:07.000Z</Time>
            <Position>
              <LatitudeDegrees>42.7153364382684230804443359375</LatitudeDegrees>
              <LongitudeDegrees>-0.2107456885278224945068359375</LongitudeDegrees>
            </Position>
            <AltitudeMeters>1905</AltitudeMeters>
            <DistanceMeters>NAN</DistanceMeters>
          </Trackpoint>
          <Trackpoint>
            <Time>2021-07-17T13:41:08.000Z</Time>
            <Position>
              <LatitudeDegrees>42.7153364382684230804443359375</LatitudeDegrees>
              <LongitudeDegrees>-0.2107456885278224945068359375</LongitudeDegrees>
            </Position>
            <AltitudeMeters>1905</AltitudeMeters>
            <DistanceMeters>NAN</DistanceMeters>
          </Trackpoint>
          <Trackpoint>
            <Time>2021-07-17T13:41:28.000Z</Time>
            <Position>
              <LatitudeDegrees>42.7153364382684230804443359375</LatitudeDegrees>
              <LongitudeDegrees>-0.210746191442012786865234375</LongitudeDegrees>
            </Position>
            <AltitudeMeters>1905</AltitudeMeters>
            <DistanceMeters>NAN</DistanceMeters>
          </Trackpoint>
          <Trackpoint>
            <Time>2021-07-17T13:41:34.000Z</Time>
            <Position>
              <LatitudeDegrees>42.71533635444939136505126953125</LatitudeDegrees>
              <LongitudeDegrees>-0.21074627526104450225830078125</LongitudeDegrees>
            </Position>
            <AltitudeMeters>1905</AltitudeMeters>
            <DistanceMeters>NAN</DistanceMeters>
          </Trackpoint>
          <Trackpoint>
            <Time>2021-07-17T13:41:46.000Z</Time>
            <Position>
              <LatitudeDegrees>42.715336270630359649658203125</LatitudeDegrees>
              <LongitudeDegrees>-0.2107463590800762176513671875</LongitudeDegrees>
            </Position>
            <AltitudeMeters>1905</AltitudeMeters>
            <DistanceMeters>NAN</DistanceMeters>
          </Trackpoint>
          <Trackpoint>
            <Time>2021-07-17T13:41:55.000Z</Time>
            <Position>
              <LatitudeDegrees>42.71533618681132793426513671875</LatitudeDegrees>
              <LongitudeDegrees>-0.21074644289910793304443359375</LongitudeDegrees>
            </Position>
            <AltitudeMeters>1905</AltitudeMeters>
            <DistanceMeters>NAN</DistanceMeters>
          </Trackpoint>
          <Trackpoint>
            <Time>2021-07-17T13:42:30.000Z</Time>
            <Position>
              <LatitudeDegrees>42.71533618681132793426513671875</LatitudeDegrees>
              <LongitudeDegrees>-0.2107473649084568023681640625</LongitudeDegrees>
            </Position>
            <AltitudeMeters>1905</AltitudeMeters>
            <DistanceMeters>NAN</DistanceMeters>
          </Trackpoint>
          <Trackpoint>
            <Time>2021-07-17T13:42:35.000Z</Time>
            <Position>
              <LatitudeDegrees>42.71533618681132793426513671875</LatitudeDegrees>
              <LongitudeDegrees>-0.21074744872748851776123046875</LongitudeDegrees>
            </Position>
            <AltitudeMeters>1905</AltitudeMeters>
            <DistanceMeters>NAN</DistanceMeters>
          </Trackpoint>
          <Trackpoint>
            <Time>2021-07-17T13:42:42.000Z</Time>
            <Position>
              <LatitudeDegrees>42.71533618681132793426513671875</LatitudeDegrees>
              <LongitudeDegrees>-0.21074761636555194854736328125</LongitudeDegrees>
            </Position>
            <AltitudeMeters>1905</AltitudeMeters>
            <DistanceMeters>NAN</DistanceMeters>
          </Trackpoint>
          <Trackpoint>
            <Time>2021-07-17T13:42:53.000Z</Time>
            <Position>
              <LatitudeDegrees>42.71533601917326450347900390625</LatitudeDegrees>
              <LongitudeDegrees>-0.21074778400361537933349609375</LongitudeDegrees>
            </Position>
            <AltitudeMeters>1905</AltitudeMeters>
            <DistanceMeters>NAN</DistanceMeters>
          </Trackpoint>
          <Trackpoint>
            <Time>2021-07-17T13:43:24.000Z</Time>
            <Position>
              <LatitudeDegrees>42.7153354324400424957275390625</LatitudeDegrees>
              <LongitudeDegrees>-0.21074795164167881011962890625</LongitudeDegrees>
            </Position>
            <AltitudeMeters>1905</AltitudeMeters>
            <DistanceMeters>NAN</DistanceMeters>
          </Trackpoint>
          <Trackpoint>
            <Time>2021-07-17T13:43:37.000Z</Time>
            <Position>
              <LatitudeDegrees>42.71533518098294734954833984375</LatitudeDegrees>
              <LongitudeDegrees>-0.21074795164167881011962890625</LongitudeDegrees>
            </Position>
            <AltitudeMeters>1905</AltitudeMeters>
            <DistanceMeters>NAN</DistanceMeters>
          </Trackpoint>
          <Trackpoint>
            <Time>2021-07-17T13:43:40.000Z</Time>
            <Position>
              <LatitudeDegrees>42.71533518098294734954833984375</LatitudeDegrees>
              <LongitudeDegrees>-0.21074795164167881011962890625</LongitudeDegrees>
            </Position>
            <AltitudeMeters>1905</AltitudeMeters>
            <DistanceMeters>NAN</DistanceMeters>
          </Trackpoint>
          <Trackpoint>
            <Time>2021-07-17T13:43:46.000Z</Time>
            <Position>
              <LatitudeDegrees>42.7153350971639156341552734375</LatitudeDegrees>
              <LongitudeDegrees>-0.21074795164167881011962890625</LongitudeDegrees>
            </Position>
            <AltitudeMeters>1905</AltitudeMeters>
            <DistanceMeters>NAN</DistanceMeters>
          </Trackpoint>
          <Trackpoint>
            <Time>2021-07-17T13:43:48.000Z</Time>
            <Position>
              <LatitudeDegrees>42.7153350971639156341552734375</LatitudeDegrees>
              <LongitudeDegrees>-0.21074795164167881011962890625</LongitudeDegrees>
            </Position>
            <AltitudeMeters>1905</AltitudeMeters>
            <DistanceMeters>NAN</DistanceMeters>
          </Trackpoint>
          <Trackpoint>
            <Time>2021-07-17T13:43:54.000Z</Time>
            <Position>
              <LatitudeDegrees>42.71533501334488391876220703125</LatitudeDegrees>
              <LongitudeDegrees>-0.2107480354607105255126953125</LongitudeDegrees>
            </Position>
            <AltitudeMeters>1905</AltitudeMeters>
            <DistanceMeters>NAN</DistanceMeters>
          </Trackpoint>
          <Trackpoint>
            <Time>2021-07-17T13:44:13.000Z</Time>
            <Position>
              <LatitudeDegrees>42.715334929525852203369140625</LatitudeDegrees>
              <LongitudeDegrees>-0.21074845455586910247802734375</LongitudeDegrees>
            </Position>
            <AltitudeMeters>1905</AltitudeMeters>
            <DistanceMeters>NAN</DistanceMeters>
          </Trackpoint>
          <Trackpoint>
            <Time>2021-07-17T13:44:35.000Z</Time>
            <Position>
              <LatitudeDegrees>42.71533526480197906494140625</LatitudeDegrees>
              <LongitudeDegrees>-0.21074929274618625640869140625</LongitudeDegrees>
            </Position>
            <AltitudeMeters>1905</AltitudeMeters>
            <DistanceMeters>NAN</DistanceMeters>
          </Trackpoint>
          <Trackpoint>
            <Time>2021-07-17T13:44:56.000Z</Time>
            <Position>
              <LatitudeDegrees>42.7153354324400424957275390625</LatitudeDegrees>
              <LongitudeDegrees>-0.2107497118413448333740234375</LongitudeDegrees>
            </Position>
            <AltitudeMeters>1905</AltitudeMeters>
            <DistanceMeters>NAN</DistanceMeters>
          </Trackpoint>
          <Trackpoint>
            <Time>2021-07-17T13:45:02.000Z</Time>
            <Position>
              <LatitudeDegrees>42.71533551625907421112060546875</LatitudeDegrees>
              <LongitudeDegrees>-0.21074987947940826416015625</LongitudeDegrees>
            </Position>
            <AltitudeMeters>1905</AltitudeMeters>
            <DistanceMeters>NAN</DistanceMeters>
          </Trackpoint>
          <Trackpoint>
            <Time>2021-07-17T13:45:23.000Z</Time>
            <Position>
              <LatitudeDegrees>42.71533551625907421112060546875</LatitudeDegrees>
              <LongitudeDegrees>-0.2107500471174716949462890625</LongitudeDegrees>
            </Position>
            <AltitudeMeters>1905</AltitudeMeters>
            <DistanceMeters>NAN</DistanceMeters>
          </Trackpoint>
          <Trackpoint>
            <Time>2021-07-17T13:45:35.000Z</Time>
            <Position>
              <LatitudeDegrees>42.71533526480197906494140625</LatitudeDegrees>
              <LongitudeDegrees>-0.21074996329843997955322265625</LongitudeDegrees>
            </Position>
            <AltitudeMeters>1905</AltitudeMeters>
            <DistanceMeters>NAN</DistanceMeters>
          </Trackpoint>
          <Trackpoint>
            <Time>2021-07-17T13:45:48.000Z</Time>
            <Position>
              <LatitudeDegrees>42.715334929525852203369140625</LatitudeDegrees>
              <LongitudeDegrees>-0.21075013093650341033935546875</LongitudeDegrees>
            </Position>
            <AltitudeMeters>1905</AltitudeMeters>
            <DistanceMeters>NAN</DistanceMeters>
          </Trackpoint>
          <Trackpoint>
            <Time>2021-07-17T13:46:02.000Z</Time>
            <Position>
              <LatitudeDegrees>42.71533451043069362640380859375</LatitudeDegrees>
              <LongitudeDegrees>-0.2107505500316619873046875</LongitudeDegrees>
            </Position>
            <AltitudeMeters>1905.199951171875</AltitudeMeters>
            <DistanceMeters>NAN</DistanceMeters>
          </Trackpoint>
          <Trackpoint>
            <Time>2021-07-17T13:46:07.000Z</Time>
            <Position>
              <LatitudeDegrees>42.71533434279263019561767578125</LatitudeDegrees>
              <LongitudeDegrees>-0.2107507176697254180908203125</LongitudeDegrees>
            </Position>
            <AltitudeMeters>1905.199951171875</AltitudeMeters>
            <DistanceMeters>NAN</DistanceMeters>
          </Trackpoint>
          <Trackpoint>
            <Time>2021-07-17T13:46:22.000Z</Time>
            <Position>
              <LatitudeDegrees>42.71533417515456676483154296875</LatitudeDegrees>
              <LongitudeDegrees>-0.21075113676488399505615234375</LongitudeDegrees>
            </Position>
            <AltitudeMeters>1905.199951171875</AltitudeMeters>
            <DistanceMeters>NAN</DistanceMeters>
          </Trackpoint>
          <Trackpoint>
            <Time>2021-07-17T13:46:42.000Z</Time>
            <Position>
              <LatitudeDegrees>42.71533400751650333404541015625</LatitudeDegrees>
              <LongitudeDegrees>-0.21075130440294742584228515625</LongitudeDegrees>
            </Position>
            <AltitudeMeters>1905.199951171875</AltitudeMeters>
            <DistanceMeters>NAN</DistanceMeters>
          </Trackpoint>
          <Trackpoint>
            <Time>2021-07-17T13:46:45.000Z</Time>
            <Position>
              <LatitudeDegrees>42.71533392369747161865234375</LatitudeDegrees>
              <LongitudeDegrees>-0.21075130440294742584228515625</LongitudeDegrees>
            </Position>
            <AltitudeMeters>1905.199951171875</AltitudeMeters>
            <DistanceMeters>NAN</DistanceMeters>
          </Trackpoint>
          <Trackpoint>
            <Time>2021-07-17T13:47:24.000Z</Time>
            <Position>
              <LatitudeDegrees>42.715333588421344757080078125</LatitudeDegrees>
              <LongitudeDegrees>-0.21075163967907428741455078125</LongitudeDegrees>
            </Position>
            <AltitudeMeters>1905.199951171875</AltitudeMeters>
            <DistanceMeters>NAN</DistanceMeters>
          </Trackpoint>
          <Trackpoint>
            <Time>2021-07-17T13:47:36.000Z</Time>
            <Position>
              <LatitudeDegrees>42.715333588421344757080078125</LatitudeDegrees>
              <LongitudeDegrees>-0.21075163967907428741455078125</LongitudeDegrees>
            </Position>
            <AltitudeMeters>1905.199951171875</AltitudeMeters>
            <DistanceMeters>NAN</DistanceMeters>
          </Trackpoint>
          <Trackpoint>
            <Time>2021-07-17T13:47:58.000Z</Time>
            <Position>
              <LatitudeDegrees>42.7153334207832813262939453125</LatitudeDegrees>
              <LongitudeDegrees>-0.21075096912682056427001953125</LongitudeDegrees>
            </Position>
            <AltitudeMeters>1905.199951171875</AltitudeMeters>
            <DistanceMeters>NAN</DistanceMeters>
          </Trackpoint>
          <Trackpoint>
            <Time>2021-07-17T13:48:09.000Z</Time>
            <Position>
              <LatitudeDegrees>42.7153334207832813262939453125</LatitudeDegrees>
              <LongitudeDegrees>-0.21075113676488399505615234375</LongitudeDegrees>
            </Position>
            <AltitudeMeters>1905.199951171875</AltitudeMeters>
            <DistanceMeters>NAN</DistanceMeters>
          </Trackpoint>
          <Trackpoint>
            <Time>2021-07-17T13:48:21.000Z</Time>
            <Position>
              <LatitudeDegrees>42.7153334207832813262939453125</LatitudeDegrees>
              <LongitudeDegrees>-0.21075189113616943359375</LongitudeDegrees>
            </Position>
            <AltitudeMeters>1905.199951171875</AltitudeMeters>
            <DistanceMeters>NAN</DistanceMeters>
          </Trackpoint>
          <Trackpoint>
            <Time>2021-07-17T13:48:24.000Z</Time>
            <Position>
              <LatitudeDegrees>42.7153334207832813262939453125</LatitudeDegrees>
              <LongitudeDegrees>-0.21075214259326457977294921875</LongitudeDegrees>
            </Position>
            <AltitudeMeters>1905.199951171875</AltitudeMeters>
            <DistanceMeters>NAN</DistanceMeters>
          </Trackpoint>
          <Trackpoint>
            <Time>2021-07-17T13:48:32.000Z</Time>
            <Position>
              <LatitudeDegrees>42.71533350460231304168701171875</LatitudeDegrees>
              <LongitudeDegrees>-0.2107527293264865875244140625</LongitudeDegrees>
            </Position>
            <AltitudeMeters>1905.199951171875</AltitudeMeters>
            <DistanceMeters>NAN</DistanceMeters>
          </Trackpoint>
          <Trackpoint>
            <Time>2021-07-17T13:48:43.000Z</Time>
            <Position>
              <LatitudeDegrees>42.715333588421344757080078125</LatitudeDegrees>
              <LongitudeDegrees>-0.2107537351548671722412109375</LongitudeDegrees>
            </Position>
            <AltitudeMeters>1905.199951171875</AltitudeMeters>
            <DistanceMeters>NAN</DistanceMeters>
          </Trackpoint>
          <Trackpoint>
            <Time>2021-07-17T13:48:52.000Z</Time>
            <Position>
              <LatitudeDegrees>42.71533367224037647247314453125</LatitudeDegrees>
              <LongitudeDegrees>-0.21075465716421604156494140625</LongitudeDegrees>
            </Position>
            <AltitudeMeters>1905.199951171875</AltitudeMeters>
            <DistanceMeters>NAN</DistanceMeters>
          </Trackpoint>
          <Trackpoint>
            <Time>2021-07-17T13:48:57.000Z</Time>
            <Position>
              <LatitudeDegrees>42.71533367224037647247314453125</LatitudeDegrees>
              <LongitudeDegrees>-0.21075516007840633392333984375</LongitudeDegrees>
            </Position>
            <AltitudeMeters>1905.199951171875</AltitudeMeters>
            <DistanceMeters>NAN</DistanceMeters>
          </Trackpoint>
          <Trackpoint>
            <Time>2021-07-17T13:49:07.000Z</Time>
            <Position>
              <LatitudeDegrees>42.715333588421344757080078125</LatitudeDegrees>
              <LongitudeDegrees>-0.2107559144496917724609375</LongitudeDegrees>
            </Position>
            <AltitudeMeters>1905.199951171875</AltitudeMeters>
            <DistanceMeters>NAN</DistanceMeters>
          </Trackpoint>
          <Trackpoint>
            <Time>2021-07-17T13:49:10.000Z</Time>
            <Position>
              <LatitudeDegrees>42.715333588421344757080078125</LatitudeDegrees>
              <LongitudeDegrees>-0.21075616590678691864013671875</LongitudeDegrees>
            </Position>
            <AltitudeMeters>1905.199951171875</AltitudeMeters>
            <DistanceMeters>NAN</DistanceMeters>
          </Trackpoint>
          <Trackpoint>
            <Time>2021-07-17T13:49:14.000Z</Time>
            <Position>
              <LatitudeDegrees>42.715333588421344757080078125</LatitudeDegrees>
              <LongitudeDegrees>-0.21075650118291378021240234375</LongitudeDegrees>
            </Position>
            <AltitudeMeters>1905.199951171875</AltitudeMeters>
            <DistanceMeters>NAN</DistanceMeters>
          </Trackpoint>
          <Trackpoint>
            <Time>2021-07-17T13:49:30.000Z</Time>
            <Position>
              <LatitudeDegrees>42.71533350460231304168701171875</LatitudeDegrees>
              <LongitudeDegrees>-0.21075767464935779571533203125</LongitudeDegrees>
            </Position>
            <AltitudeMeters>1905.199951171875</AltitudeMeters>
            <DistanceMeters>NAN</DistanceMeters>
          </Trackpoint>
          <Trackpoint>
            <Time>2021-07-17T13:49:38.000Z</Time>
            <Position>
              <LatitudeDegrees>42.71533350460231304168701171875</LatitudeDegrees>
              <LongitudeDegrees>-0.210758261382579803466796875</LongitudeDegrees>
            </Position>
            <AltitudeMeters>1905.199951171875</AltitudeMeters>
            <DistanceMeters>NAN</DistanceMeters>
          </Trackpoint>
          <Trackpoint>
            <Time>2021-07-17T13:49:48.000Z</Time>
            <Position>
              <LatitudeDegrees>42.7153334207832813262939453125</LatitudeDegrees>
              <LongitudeDegrees>-0.21075901575386524200439453125</LongitudeDegrees>
            </Position>
            <AltitudeMeters>1905.199951171875</AltitudeMeters>
            <DistanceMeters>NAN</DistanceMeters>
          </Trackpoint>
          <Trackpoint>
            <Time>2021-07-17T13:50:27.000Z</Time>
            <Position>
              <LatitudeDegrees>42.71533383987843990325927734375</LatitudeDegrees>
              <LongitudeDegrees>-0.2107607759535312652587890625</LongitudeDegrees>
            </Position>
            <AltitudeMeters>1905.4000244140625</AltitudeMeters>
            <DistanceMeters>NAN</DistanceMeters>
          </Trackpoint>
          <Trackpoint>
            <Time>2021-07-17T13:50:33.000Z</Time>
            <Position>
              <LatitudeDegrees>42.7153337560594081878662109375</LatitudeDegrees>
              <LongitudeDegrees>-0.21076102741062641143798828125</LongitudeDegrees>
            </Position>
            <AltitudeMeters>1905.4000244140625</AltitudeMeters>
            <DistanceMeters>NAN</DistanceMeters>
          </Trackpoint>
          <Trackpoint>
            <Time>2021-07-17T13:50:38.000Z</Time>
            <Position>
              <LatitudeDegrees>42.71533367224037647247314453125</LatitudeDegrees>
              <LongitudeDegrees>-0.2107612788677215576171875</LongitudeDegrees>
            </Position>
            <AltitudeMeters>1905.4000244140625</AltitudeMeters>
            <DistanceMeters>NAN</DistanceMeters>
          </Trackpoint>
          <Trackpoint>
            <Time>2021-07-17T13:50:40.000Z</Time>
            <Position>
              <LatitudeDegrees>42.71533367224037647247314453125</LatitudeDegrees>
              <LongitudeDegrees>-0.2107614465057849884033203125</LongitudeDegrees>
            </Position>
            <AltitudeMeters>1905.4000244140625</AltitudeMeters>
            <DistanceMeters>NAN</DistanceMeters>
          </Trackpoint>
          <Trackpoint>
            <Time>2021-07-17T13:50:42.000Z</Time>
            <Position>
              <LatitudeDegrees>42.71533367224037647247314453125</LatitudeDegrees>
              <LongitudeDegrees>-0.21076153032481670379638671875</LongitudeDegrees>
            </Position>
            <AltitudeMeters>1905.4000244140625</AltitudeMeters>
            <DistanceMeters>NAN</DistanceMeters>
          </Trackpoint>
          <Trackpoint>
            <Time>2021-07-17T13:50:47.000Z</Time>
            <Position>
              <LatitudeDegrees>42.715333588421344757080078125</LatitudeDegrees>
              <LongitudeDegrees>-0.2107617817819118499755859375</LongitudeDegrees>
            </Position>
            <AltitudeMeters>1905.4000244140625</AltitudeMeters>
            <DistanceMeters>NAN</DistanceMeters>
          </Trackpoint>
          <Trackpoint>
            <Time>2021-07-17T13:50:50.000Z</Time>
            <Position>
              <LatitudeDegrees>42.71533350460231304168701171875</LatitudeDegrees>
              <LongitudeDegrees>-0.21076194941997528076171875</LongitudeDegrees>
            </Position>
            <AltitudeMeters>1905.4000244140625</AltitudeMeters>
            <DistanceMeters>NAN</DistanceMeters>
          </Trackpoint>
          <Trackpoint>
            <Time>2021-07-17T13:50:53.000Z</Time>
            <Position>
              <LatitudeDegrees>42.71533350460231304168701171875</LatitudeDegrees>
              <LongitudeDegrees>-0.2107621170580387115478515625</LongitudeDegrees>
            </Position>
            <AltitudeMeters>1905.4000244140625</AltitudeMeters>
            <DistanceMeters>NAN</DistanceMeters>
          </Trackpoint>
          <Trackpoint>
            <Time>2021-07-17T13:51:00.000Z</Time>
            <Position>
              <LatitudeDegrees>42.71533333696424961090087890625</LatitudeDegrees>
              <LongitudeDegrees>-0.2107624523341655731201171875</LongitudeDegrees>
            </Position>
            <AltitudeMeters>1905.4000244140625</AltitudeMeters>
            <DistanceMeters>NAN</DistanceMeters>
          </Trackpoint>
          <Trackpoint>
            <Time>2021-07-17T13:51:40.000Z</Time>
            <Position>
              <LatitudeDegrees>42.715332247316837310791015625</LatitudeDegrees>
              <LongitudeDegrees>-0.21076454780995845794677734375</LongitudeDegrees>
            </Position>
            <AltitudeMeters>1905.4000244140625</AltitudeMeters>
            <DistanceMeters>NAN</DistanceMeters>
          </Trackpoint>
          <Trackpoint>
            <Time>2021-07-17T13:51:41.000Z</Time>
            <Position>
              <LatitudeDegrees>42.715332247316837310791015625</LatitudeDegrees>
              <LongitudeDegrees>-0.21076463162899017333984375</LongitudeDegrees>
            </Position>
            <AltitudeMeters>1905.4000244140625</AltitudeMeters>
            <DistanceMeters>NAN</DistanceMeters>
          </Trackpoint>
          <Trackpoint>
            <Time>2021-07-17T13:51:49.000Z</Time>
            <Position>
              <LatitudeDegrees>42.71533216349780559539794921875</LatitudeDegrees>
              <LongitudeDegrees>-0.210764966905117034912109375</LongitudeDegrees>
            </Position>
            <AltitudeMeters>1905.4000244140625</AltitudeMeters>
            <DistanceMeters>NAN</DistanceMeters>
          </Trackpoint>
          <Trackpoint>
            <Time>2021-07-17T13:52:13.000Z</Time>
            <Position>
              <LatitudeDegrees>42.7153317444026470184326171875</LatitudeDegrees>
              <LongitudeDegrees>-0.2107658050954341888427734375</LongitudeDegrees>
            </Position>
            <AltitudeMeters>1905.4000244140625</AltitudeMeters>
            <DistanceMeters>NAN</DistanceMeters>
          </Trackpoint>
          <Trackpoint>
            <Time>2021-07-17T13:52:15.000Z</Time>
            <Position>
              <LatitudeDegrees>42.71533166058361530303955078125</LatitudeDegrees>
              <LongitudeDegrees>-0.21076597273349761962890625</LongitudeDegrees>
            </Position>
            <AltitudeMeters>1905.4000244140625</AltitudeMeters>
            <DistanceMeters>NAN</DistanceMeters>
          </Trackpoint>
          <Trackpoint>
            <Time>2021-07-17T13:52:20.000Z</Time>
            <Position>
              <LatitudeDegrees>42.71533149294555187225341796875</LatitudeDegrees>
              <LongitudeDegrees>-0.210766308009624481201171875</LongitudeDegrees>
            </Position>
            <AltitudeMeters>1905.4000244140625</AltitudeMeters>
            <DistanceMeters>NAN</DistanceMeters>
          </Trackpoint>
          <Trackpoint>
            <Time>2021-07-17T13:52:38.000Z</Time>
            <Position>
              <LatitudeDegrees>42.715330906212329864501953125</LatitudeDegrees>
              <LongitudeDegrees>-0.21076790057122707366943359375</LongitudeDegrees>
            </Position>
            <AltitudeMeters>1905.5999755859375</AltitudeMeters>
            <DistanceMeters>NAN</DistanceMeters>
          </Trackpoint>
          <Trackpoint>
            <Time>2021-07-17T13:52:41.000Z</Time>
            <Position>
              <LatitudeDegrees>42.71533082239329814910888671875</LatitudeDegrees>
              <LongitudeDegrees>-0.2107681520283222198486328125</LongitudeDegrees>
            </Position>
            <AltitudeMeters>1905.5999755859375</AltitudeMeters>
            <DistanceMeters>NAN</DistanceMeters>
          </Trackpoint>
          <Trackpoint>
            <Time>2021-07-17T13:52:44.000Z</Time>
            <Position>
              <LatitudeDegrees>42.71533082239329814910888671875</LatitudeDegrees>
              <LongitudeDegrees>-0.2107684873044490814208984375</LongitudeDegrees>
            </Position>
            <AltitudeMeters>1905.5999755859375</AltitudeMeters>
            <DistanceMeters>NAN</DistanceMeters>
          </Trackpoint>
          <Trackpoint>
            <Time>2021-07-17T13:52:46.000Z</Time>
            <Position>
              <LatitudeDegrees>42.71533082239329814910888671875</LatitudeDegrees>
              <LongitudeDegrees>-0.21076865494251251220703125</LongitudeDegrees>
            </Position>
            <AltitudeMeters>1905.5999755859375</AltitudeMeters>
            <DistanceMeters>NAN</DistanceMeters>
          </Trackpoint>
          <Trackpoint>
            <Time>2021-07-17T13:52:53.000Z</Time>
            <Position>
              <LatitudeDegrees>42.7153307385742664337158203125</LatitudeDegrees>
              <LongitudeDegrees>-0.21076940931379795074462890625</LongitudeDegrees>
            </Position>
            <AltitudeMeters>1905.5999755859375</AltitudeMeters>
            <DistanceMeters>NAN</DistanceMeters>
          </Trackpoint>
          <Trackpoint>
            <Time>2021-07-17T13:52:55.000Z</Time>
            <Position>
              <LatitudeDegrees>42.7153307385742664337158203125</LatitudeDegrees>
              <LongitudeDegrees>-0.21076957695186138153076171875</LongitudeDegrees>
            </Position>
            <AltitudeMeters>1905.5999755859375</AltitudeMeters>
            <DistanceMeters>NAN</DistanceMeters>
          </Trackpoint>
          <Trackpoint>
            <Time>2021-07-17T13:53:02.000Z</Time>
            <Position>
              <LatitudeDegrees>42.71533099003136157989501953125</LatitudeDegrees>
              <LongitudeDegrees>-0.21077024750411510467529296875</LongitudeDegrees>
            </Position>
            <AltitudeMeters>1905.5999755859375</AltitudeMeters>
            <DistanceMeters>NAN</DistanceMeters>
          </Trackpoint>
          <Trackpoint>
            <Time>2021-07-17T13:53:11.000Z</Time>
            <Position>
              <LatitudeDegrees>42.7153314091265201568603515625</LatitudeDegrees>
              <LongitudeDegrees>-0.210771001875400543212890625</LongitudeDegrees>
            </Position>
            <AltitudeMeters>1905.5999755859375</AltitudeMeters>
            <DistanceMeters>NAN</DistanceMeters>
          </Trackpoint>
          <Trackpoint>
            <Time>2021-07-17T13:53:19.000Z</Time>
            <Position>
              <LatitudeDegrees>42.7153317444026470184326171875</LatitudeDegrees>
              <LongitudeDegrees>-0.210771672427654266357421875</LongitudeDegrees>
            </Position>
            <AltitudeMeters>1905.5999755859375</AltitudeMeters>
            <DistanceMeters>NAN</DistanceMeters>
          </Trackpoint>
          <Trackpoint>
            <Time>2021-07-17T13:53:25.000Z</Time>
            <Position>
              <LatitudeDegrees>42.71533182822167873382568359375</LatitudeDegrees>
              <LongitudeDegrees>-0.2107721753418445587158203125</LongitudeDegrees>
            </Position>
            <AltitudeMeters>1905.5999755859375</AltitudeMeters>
            <DistanceMeters>NAN</DistanceMeters>
          </Trackpoint>
          <Trackpoint>
            <Time>2021-07-17T13:53:37.000Z</Time>
            <Position>
              <LatitudeDegrees>42.71533182822167873382568359375</LatitudeDegrees>
              <LongitudeDegrees>-0.210773013532161712646484375</LongitudeDegrees>
            </Position>
            <AltitudeMeters>1905.5999755859375</AltitudeMeters>
            <DistanceMeters>NAN</DistanceMeters>
          </Trackpoint>
          <Trackpoint>
            <Time>2021-07-17T13:53:42.000Z</Time>
            <Position>
              <LatitudeDegrees>42.71533182822167873382568359375</LatitudeDegrees>
              <LongitudeDegrees>-0.21077334880828857421875</LongitudeDegrees>
            </Position>
            <AltitudeMeters>1905.5999755859375</AltitudeMeters>
            <DistanceMeters>NAN</DistanceMeters>
          </Trackpoint>
          <Trackpoint>
            <Time>2021-07-17T13:53:48.000Z</Time>
            <Position>
              <LatitudeDegrees>42.71533182822167873382568359375</LatitudeDegrees>
              <LongitudeDegrees>-0.210773684084415435791015625</LongitudeDegrees>
            </Position>
            <AltitudeMeters>1905.5999755859375</AltitudeMeters>
            <DistanceMeters>NAN</DistanceMeters>
          </Trackpoint>
          <Trackpoint>
            <Time>2021-07-17T13:54:19.000Z</Time>
            <Position>
              <LatitudeDegrees>42.71533182822167873382568359375</LatitudeDegrees>
              <LongitudeDegrees>-0.21077577956020832061767578125</LongitudeDegrees>
            </Position>
            <AltitudeMeters>1905.5999755859375</AltitudeMeters>
            <DistanceMeters>NAN</DistanceMeters>
          </Trackpoint>
          <Trackpoint>
            <Time>2021-07-17T13:54:21.000Z</Time>
            <Position>
              <LatitudeDegrees>42.71533182822167873382568359375</LatitudeDegrees>
              <LongitudeDegrees>-0.21077594719827175140380859375</LongitudeDegrees>
            </Position>
            <AltitudeMeters>1905.5999755859375</AltitudeMeters>
            <DistanceMeters>NAN</DistanceMeters>
          </Trackpoint>
          <Trackpoint>
            <Time>2021-07-17T13:54:25.000Z</Time>
            <Position>
              <LatitudeDegrees>42.71533182822167873382568359375</LatitudeDegrees>
              <LongitudeDegrees>-0.210776366293430328369140625</LongitudeDegrees>
            </Position>
            <AltitudeMeters>1905.5999755859375</AltitudeMeters>
            <DistanceMeters>NAN</DistanceMeters>
          </Trackpoint>
          <Trackpoint>
            <Time>2021-07-17T13:54:31.000Z</Time>
            <Position>
              <LatitudeDegrees>42.71533182822167873382568359375</LatitudeDegrees>
              <LongitudeDegrees>-0.210777036845684051513671875</LongitudeDegrees>
            </Position>
            <AltitudeMeters>1905.5999755859375</AltitudeMeters>
            <DistanceMeters>NAN</DistanceMeters>
          </Trackpoint>
          <Trackpoint>
            <Time>2021-07-17T13:54:40.000Z</Time>
            <Position>
              <LatitudeDegrees>42.7153317444026470184326171875</LatitudeDegrees>
              <LongitudeDegrees>-0.21077804267406463623046875</LongitudeDegrees>
            </Position>
            <AltitudeMeters>1905.5999755859375</AltitudeMeters>
            <DistanceMeters>NAN</DistanceMeters>
          </Trackpoint>
          <Trackpoint>
            <Time>2021-07-17T13:54:43.000Z</Time>
            <Position>
              <LatitudeDegrees>42.7153317444026470184326171875</LatitudeDegrees>
              <LongitudeDegrees>-0.21077829413115978240966796875</LongitudeDegrees>
            </Position>
            <AltitudeMeters>1905.5999755859375</AltitudeMeters>
            <DistanceMeters>NAN</DistanceMeters>
          </Trackpoint>
          <Trackpoint>
            <Time>2021-07-17T13:54:59.000Z</Time>
            <Position>
              <LatitudeDegrees>42.7153317444026470184326171875</LatitudeDegrees>
              <LongitudeDegrees>-0.21077946759760379791259765625</LongitudeDegrees>
            </Position>
            <AltitudeMeters>1905.5999755859375</AltitudeMeters>
            <DistanceMeters>NAN</DistanceMeters>
          </Trackpoint>
          <Trackpoint>
            <Time>2021-07-17T13:55:11.000Z</Time>
            <Position>
              <LatitudeDegrees>42.71533216349780559539794921875</LatitudeDegrees>
              <LongitudeDegrees>-0.21077980287373065948486328125</LongitudeDegrees>
            </Position>
            <AltitudeMeters>1905.5999755859375</AltitudeMeters>
            <DistanceMeters>NAN</DistanceMeters>
          </Trackpoint>
          <Trackpoint>
            <Time>2021-07-17T13:55:28.000Z</Time>
            <Position>
              <LatitudeDegrees>42.71533258259296417236328125</LatitudeDegrees>
              <LongitudeDegrees>-0.21078013814985752105712890625</LongitudeDegrees>
            </Position>
            <AltitudeMeters>1905.5999755859375</AltitudeMeters>
            <DistanceMeters>NAN</DistanceMeters>
          </Trackpoint>
          <Trackpoint>
            <Time>2021-07-17T13:55:34.000Z</Time>
            <Position>
              <LatitudeDegrees>42.7153327502310276031494140625</LatitudeDegrees>
              <LongitudeDegrees>-0.2107802219688892364501953125</LongitudeDegrees>
            </Position>
            <AltitudeMeters>1905.5999755859375</AltitudeMeters>
            <DistanceMeters>NAN</DistanceMeters>
          </Trackpoint>
          <Trackpoint>
            <Time>2021-07-17T13:55:50.000Z</Time>
            <Position>
              <LatitudeDegrees>42.7153330855071544647216796875</LatitudeDegrees>
              <LongitudeDegrees>-0.21078064106404781341552734375</LongitudeDegrees>
            </Position>
            <AltitudeMeters>1905.5999755859375</AltitudeMeters>
            <DistanceMeters>NAN</DistanceMeters>
          </Trackpoint>
          <Trackpoint>
            <Time>2021-07-17T13:56:20.000Z</Time>
            <Position>
              <LatitudeDegrees>42.71533451043069362640380859375</LatitudeDegrees>
              <LongitudeDegrees>-0.21078206598758697509765625</LongitudeDegrees>
            </Position>
            <AltitudeMeters>1905.5999755859375</AltitudeMeters>
            <DistanceMeters>NAN</DistanceMeters>
          </Trackpoint>
          <Trackpoint>
            <Time>2021-07-17T13:56:27.000Z</Time>
            <Position>
              <LatitudeDegrees>42.71533501334488391876220703125</LatitudeDegrees>
              <LongitudeDegrees>-0.21078248508274555206298828125</LongitudeDegrees>
            </Position>
            <AltitudeMeters>1905.5999755859375</AltitudeMeters>
            <DistanceMeters>NAN</DistanceMeters>
          </Trackpoint>
          <Trackpoint>
            <Time>2021-07-17T13:56:29.000Z</Time>
            <Position>
              <LatitudeDegrees>42.71533518098294734954833984375</LatitudeDegrees>
              <LongitudeDegrees>-0.2107825689017772674560546875</LongitudeDegrees>
            </Position>
            <AltitudeMeters>1905.5999755859375</AltitudeMeters>
            <DistanceMeters>NAN</DistanceMeters>
          </Trackpoint>
          <Trackpoint>
            <Time>2021-07-17T13:56:31.000Z</Time>
            <Position>
              <LatitudeDegrees>42.71533534862101078033447265625</LatitudeDegrees>
              <LongitudeDegrees>-0.21078265272080898284912109375</LongitudeDegrees>
            </Position>
            <AltitudeMeters>1905.5999755859375</AltitudeMeters>
            <DistanceMeters>NAN</DistanceMeters>
          </Trackpoint>
          <Trackpoint>
            <Time>2021-07-17T13:56:34.000Z</Time>
            <Position>
              <LatitudeDegrees>42.715335600078105926513671875</LatitudeDegrees>
              <LongitudeDegrees>-0.21078282035887241363525390625</LongitudeDegrees>
            </Position>
            <AltitudeMeters>1905.5999755859375</AltitudeMeters>
            <DistanceMeters>NAN</DistanceMeters>
          </Trackpoint>
          <Trackpoint>
            <Time>2021-07-17T13:56:40.000Z</Time>
            <Position>
              <LatitudeDegrees>42.71533618681132793426513671875</LatitudeDegrees>
              <LongitudeDegrees>-0.210783071815967559814453125</LongitudeDegrees>
            </Position>
            <AltitudeMeters>1905.5999755859375</AltitudeMeters>
            <DistanceMeters>NAN</DistanceMeters>
          </Trackpoint>
          <Trackpoint>
            <Time>2021-07-17T13:56:48.000Z</Time>
            <Position>
              <LatitudeDegrees>42.71533702500164508819580078125</LatitudeDegrees>
              <LongitudeDegrees>-0.21078315563499927520751953125</LongitudeDegrees>
            </Position>
            <AltitudeMeters>1905.4000244140625</AltitudeMeters>
            <DistanceMeters>NAN</DistanceMeters>
          </Trackpoint>
          <Trackpoint>
            <Time>2021-07-17T13:56:51.000Z</Time>
            <Position>
              <LatitudeDegrees>42.71533736027777194976806640625</LatitudeDegrees>
              <LongitudeDegrees>-0.210783071815967559814453125</LongitudeDegrees>
            </Position>
            <AltitudeMeters>1905.4000244140625</AltitudeMeters>
            <DistanceMeters>NAN</DistanceMeters>
          </Trackpoint>
          <Trackpoint>
            <Time>2021-07-17T13:56:53.000Z</Time>
            <Position>
              <LatitudeDegrees>42.71533752791583538055419921875</LatitudeDegrees>
              <LongitudeDegrees>-0.21078298799693584442138671875</LongitudeDegrees>
            </Position>
            <AltitudeMeters>1905.4000244140625</AltitudeMeters>
            <DistanceMeters>NAN</DistanceMeters>
          </Trackpoint>
          <Trackpoint>
            <Time>2021-07-17T13:57:22.000Z</Time>
            <Position>
              <LatitudeDegrees>42.7153411321341991424560546875</LatitudeDegrees>
              <LongitudeDegrees>-0.2107818983495235443115234375</LongitudeDegrees>
            </Position>
            <AltitudeMeters>1905.4000244140625</AltitudeMeters>
            <DistanceMeters>NAN</DistanceMeters>
          </Trackpoint>
          <Trackpoint>
            <Time>2021-07-17T13:57:27.000Z</Time>
            <Position>
              <LatitudeDegrees>42.7153984643518924713134765625</LatitudeDegrees>
              <LongitudeDegrees>-0.21073034964501857757568359375</LongitudeDegrees>
            </Position>
            <AltitudeMeters>1905.5999755859375</AltitudeMeters>
            <DistanceMeters>NAN</DistanceMeters>
          </Trackpoint>
          <Trackpoint>
            <Time>2021-07-17T13:57:29.000Z</Time>
            <Position>
              <LatitudeDegrees>42.7154217660427093505859375</LatitudeDegrees>
              <LongitudeDegrees>-0.2107165195047855377197265625</LongitudeDegrees>
            </Position>
            <AltitudeMeters>1905.800048828125</AltitudeMeters>
            <DistanceMeters>NAN</DistanceMeters>
          </Trackpoint>
          <Trackpoint>
            <Time>2021-07-17T13:57:31.000Z</Time>
            <Position>
              <LatitudeDegrees>42.71544917486608028411865234375</LatitudeDegrees>
              <LongitudeDegrees>-0.2106923796236515045166015625</LongitudeDegrees>
            </Position>
            <AltitudeMeters>1906</AltitudeMeters>
            <DistanceMeters>NAN</DistanceMeters>
          </Trackpoint>
          <Trackpoint>
            <Time>2021-07-17T13:57:34.000Z</Time>
            <Position>
              <LatitudeDegrees>42.71547515876591205596923828125</LatitudeDegrees>
              <LongitudeDegrees>-0.210675783455371856689453125</LongitudeDegrees>
            </Position>
            <AltitudeMeters>1906.199951171875</AltitudeMeters>
            <DistanceMeters>NAN</DistanceMeters>
          </Trackpoint>
          <Trackpoint>
            <Time>2021-07-17T13:57:36.000Z</Time>
            <Position>
              <LatitudeDegrees>42.7154769189655780792236328125</LatitudeDegrees>
              <LongitudeDegrees>-0.21066379733383655548095703125</LongitudeDegrees>
            </Position>
            <AltitudeMeters>1906.4000244140625</AltitudeMeters>
            <DistanceMeters>NAN</DistanceMeters>
          </Trackpoint>
          <Trackpoint>
            <Time>2021-07-17T13:57:41.000Z</Time>
            <Position>
              <LatitudeDegrees>42.71548404358327388763427734375</LatitudeDegrees>
              <LongitudeDegrees>-0.21063990890979766845703125</LongitudeDegrees>
            </Position>
            <AltitudeMeters>1906.4000244140625</AltitudeMeters>
            <DistanceMeters>NAN</DistanceMeters>
          </Trackpoint>
          <Trackpoint>
            <Time>2021-07-17T13:57:47.000Z</Time>
            <Position>
              <LatitudeDegrees>42.715486474335193634033203125</LatitudeDegrees>
              <LongitudeDegrees>-0.21061534993350505828857421875</LongitudeDegrees>
            </Position>
            <AltitudeMeters>1906.5999755859375</AltitudeMeters>
            <DistanceMeters>NAN</DistanceMeters>
          </Trackpoint>
          <Trackpoint>
            <Time>2021-07-17T13:57:49.000Z</Time>
            <Position>
              <LatitudeDegrees>42.715486474335193634033203125</LatitudeDegrees>
              <LongitudeDegrees>-0.21061534993350505828857421875</LongitudeDegrees>
            </Position>
            <AltitudeMeters>1906.5999755859375</AltitudeMeters>
            <DistanceMeters>NAN</DistanceMeters>
          </Trackpoint>
          <Trackpoint>
            <Time>2021-07-17T13:57:51.000Z</Time>
            <Position>
              <LatitudeDegrees>42.715486474335193634033203125</LatitudeDegrees>
              <LongitudeDegrees>-0.21061534993350505828857421875</LongitudeDegrees>
            </Position>
            <AltitudeMeters>1906.5999755859375</AltitudeMeters>
            <DistanceMeters>NAN</DistanceMeters>
          </Trackpoint>
          <Trackpoint>
            <Time>2021-07-17T13:57:55.000Z</Time>
            <Position>
              <LatitudeDegrees>42.715486474335193634033203125</LatitudeDegrees>
              <LongitudeDegrees>-0.21061534993350505828857421875</LongitudeDegrees>
            </Position>
            <AltitudeMeters>1906.5999755859375</AltitudeMeters>
            <DistanceMeters>NAN</DistanceMeters>
          </Trackpoint>
          <Trackpoint>
            <Time>2021-07-17T13:58:08.000Z</Time>
            <Position>
              <LatitudeDegrees>42.71550290286540985107421875</LatitudeDegrees>
              <LongitudeDegrees>-0.2105981670320034027099609375</LongitudeDegrees>
            </Position>
            <AltitudeMeters>1906.800048828125</AltitudeMeters>
            <DistanceMeters>NAN</DistanceMeters>
          </Trackpoint>
          <Trackpoint>
            <Time>2021-07-17T13:58:19.000Z</Time>
            <Position>
              <LatitudeDegrees>42.7155238576233386993408203125</LatitudeDegrees>
              <LongitudeDegrees>-0.21055013872683048248291015625</LongitudeDegrees>
            </Position>
            <AltitudeMeters>1907</AltitudeMeters>
            <DistanceMeters>NAN</DistanceMeters>
          </Trackpoint>
          <Trackpoint>
            <Time>2021-07-17T13:58:23.000Z</Time>
            <Position>
              <LatitudeDegrees>42.71553316153585910797119140625</LatitudeDegrees>
              <LongitudeDegrees>-0.21052633412182331085205078125</LongitudeDegrees>
            </Position>
            <AltitudeMeters>1907</AltitudeMeters>
            <DistanceMeters>NAN</DistanceMeters>
          </Trackpoint>
          <Trackpoint>
            <Time>2021-07-17T13:58:34.000Z</Time>
            <Position>
              <LatitudeDegrees>42.7155402861535549163818359375</LatitudeDegrees>
              <LongitudeDegrees>-0.21047989837825298309326171875</LongitudeDegrees>
            </Position>
            <AltitudeMeters>1907</AltitudeMeters>
            <DistanceMeters>NAN</DistanceMeters>
          </Trackpoint>
          <Trackpoint>
            <Time>2021-07-17T13:58:47.000Z</Time>
            <Position>
              <LatitudeDegrees>42.715589068830013275146484375</LatitudeDegrees>
              <LongitudeDegrees>-0.210388787090778350830078125</LongitudeDegrees>
            </Position>
            <AltitudeMeters>1908</AltitudeMeters>
            <DistanceMeters>NAN</DistanceMeters>
          </Trackpoint>
          <Trackpoint>
            <Time>2021-07-17T13:59:00.000Z</Time>
            <Position>
              <LatitudeDegrees>42.7155952714383602142333984375</LatitudeDegrees>
              <LongitudeDegrees>-0.21032650955021381378173828125</LongitudeDegrees>
            </Position>
            <AltitudeMeters>1908.199951171875</AltitudeMeters>
            <DistanceMeters>NAN</DistanceMeters>
          </Trackpoint>
          <Trackpoint>
            <Time>2021-07-17T13:59:19.000Z</Time>
            <Position>
              <LatitudeDegrees>42.7155934274196624755859375</LatitudeDegrees>
              <LongitudeDegrees>-0.2103249169886112213134765625</LongitudeDegrees>
            </Position>
            <AltitudeMeters>1908.199951171875</AltitudeMeters>
            <DistanceMeters>NAN</DistanceMeters>
          </Trackpoint>
          <Trackpoint>
            <Time>2021-07-17T13:59:34.000Z</Time>
            <Position>
              <LatitudeDegrees>42.7155845426023006439208984375</LatitudeDegrees>
              <LongitudeDegrees>-0.2103218995034694671630859375</LongitudeDegrees>
            </Position>
            <AltitudeMeters>1908.199951171875</AltitudeMeters>
            <DistanceMeters>NAN</DistanceMeters>
          </Trackpoint>
          <Trackpoint>
            <Time>2021-07-17T13:59:42.000Z</Time>
            <Position>
              <LatitudeDegrees>42.7155788429081439971923828125</LatitudeDegrees>
              <LongitudeDegrees>-0.21031863056123256683349609375</LongitudeDegrees>
            </Position>
            <AltitudeMeters>1908</AltitudeMeters>
            <DistanceMeters>NAN</DistanceMeters>
          </Trackpoint>
          <Trackpoint>
            <Time>2021-07-17T13:59:51.000Z</Time>
            <Position>
              <LatitudeDegrees>42.7155711315572261810302734375</LatitudeDegrees>
              <LongitudeDegrees>-0.21031846292316913604736328125</LongitudeDegrees>
            </Position>
            <AltitudeMeters>1908</AltitudeMeters>
            <DistanceMeters>NAN</DistanceMeters>
          </Trackpoint>
          <Trackpoint>
            <Time>2021-07-17T14:00:07.000Z</Time>
            <Position>
              <LatitudeDegrees>42.71556434221565723419189453125</LatitudeDegrees>
              <LongitudeDegrees>-0.2103279344737529754638671875</LongitudeDegrees>
            </Position>
            <AltitudeMeters>1907.800048828125</AltitudeMeters>
            <DistanceMeters>NAN</DistanceMeters>
          </Trackpoint>
          <Trackpoint>
            <Time>2021-07-17T14:00:10.000Z</Time>
            <Position>
              <LatitudeDegrees>42.71556325256824493408203125</LatitudeDegrees>
              <LongitudeDegrees>-0.2103306166827678680419921875</LongitudeDegrees>
            </Position>
            <AltitudeMeters>1907.800048828125</AltitudeMeters>
            <DistanceMeters>NAN</DistanceMeters>
          </Trackpoint>
          <Trackpoint>
            <Time>2021-07-17T14:00:13.000Z</Time>
            <Position>
              <LatitudeDegrees>42.715562917292118072509765625</LatitudeDegrees>
              <LongitudeDegrees>-0.21033170633018016815185546875</LongitudeDegrees>
            </Position>
            <AltitudeMeters>1907.800048828125</AltitudeMeters>
            <DistanceMeters>NAN</DistanceMeters>
          </Trackpoint>
          <Trackpoint>
            <Time>2021-07-17T14:00:16.000Z</Time>
            <Position>
              <LatitudeDegrees>42.7155627496540546417236328125</LatitudeDegrees>
              <LongitudeDegrees>-0.2103321254253387451171875</LongitudeDegrees>
            </Position>
            <AltitudeMeters>1907.800048828125</AltitudeMeters>
            <DistanceMeters>NAN</DistanceMeters>
          </Trackpoint>
          <Trackpoint>
            <Time>2021-07-17T14:00:32.000Z</Time>
            <Position>
              <LatitudeDegrees>42.71556652151048183441162109375</LatitudeDegrees>
              <LongitudeDegrees>-0.2103289403021335601806640625</LongitudeDegrees>
            </Position>
            <AltitudeMeters>1907.800048828125</AltitudeMeters>
            <DistanceMeters>NAN</DistanceMeters>
          </Trackpoint>
          <Trackpoint>
            <Time>2021-07-17T14:00:39.000Z</Time>
            <Position>
              <LatitudeDegrees>42.7155692875385284423828125</LatitudeDegrees>
              <LongitudeDegrees>-0.21031670272350311279296875</LongitudeDegrees>
            </Position>
            <AltitudeMeters>1908</AltitudeMeters>
            <DistanceMeters>NAN</DistanceMeters>
          </Trackpoint>
          <Trackpoint>
            <Time>2021-07-17T14:00:41.000Z</Time>
            <Position>
              <LatitudeDegrees>42.71557121537625789642333984375</LatitudeDegrees>
              <LongitudeDegrees>-0.21030890755355358123779296875</LongitudeDegrees>
            </Position>
            <AltitudeMeters>1908</AltitudeMeters>
            <DistanceMeters>NAN</DistanceMeters>
          </Trackpoint>
          <Trackpoint>
            <Time>2021-07-17T14:01:16.000Z</Time>
            <Position>
              <LatitudeDegrees>42.7155818603932857513427734375</LatitudeDegrees>
              <LongitudeDegrees>-0.2102945744991302490234375</LongitudeDegrees>
            </Position>
            <AltitudeMeters>1908.199951171875</AltitudeMeters>
            <DistanceMeters>NAN</DistanceMeters>
          </Trackpoint>
          <Trackpoint>
            <Time>2021-07-17T14:01:25.000Z</Time>
            <Position>
              <LatitudeDegrees>42.715582363307476043701171875</LatitudeDegrees>
              <LongitudeDegrees>-0.21029465831816196441650390625</LongitudeDegrees>
            </Position>
            <AltitudeMeters>1908.199951171875</AltitudeMeters>
            <DistanceMeters>NAN</DistanceMeters>
          </Trackpoint>
          <Trackpoint>
            <Time>2021-07-17T14:01:35.000Z</Time>
            <Position>
              <LatitudeDegrees>42.715680599212646484375</LatitudeDegrees>
              <LongitudeDegrees>-0.2102592028677463531494140625</LongitudeDegrees>
            </Position>
            <AltitudeMeters>1911.4000244140625</AltitudeMeters>
            <DistanceMeters>NAN</DistanceMeters>
          </Trackpoint>
          <Trackpoint>
            <Time>2021-07-17T14:01:41.000Z</Time>
            <Position>
              <LatitudeDegrees>42.7157454751431941986083984375</LatitudeDegrees>
              <LongitudeDegrees>-0.21022307686507701873779296875</LongitudeDegrees>
            </Position>
            <AltitudeMeters>1914</AltitudeMeters>
            <DistanceMeters>NAN</DistanceMeters>
          </Trackpoint>
          <Trackpoint>
            <Time>2021-07-17T14:01:42.000Z</Time>
            <Position>
              <LatitudeDegrees>42.715751342475414276123046875</LatitudeDegrees>
              <LongitudeDegrees>-0.21022123284637928009033203125</LongitudeDegrees>
            </Position>
            <AltitudeMeters>1914.199951171875</AltitudeMeters>
            <DistanceMeters>NAN</DistanceMeters>
          </Trackpoint>
          <Trackpoint>
            <Time>2021-07-17T14:01:45.000Z</Time>
            <Position>
              <LatitudeDegrees>42.71575771272182464599609375</LatitudeDegrees>
              <LongitudeDegrees>-0.210205726325511932373046875</LongitudeDegrees>
            </Position>
            <AltitudeMeters>1914.5999755859375</AltitudeMeters>
            <DistanceMeters>NAN</DistanceMeters>
          </Trackpoint>
          <Trackpoint>
            <Time>2021-07-17T14:01:47.000Z</Time>
            <Position>
              <LatitudeDegrees>42.71576953120529651641845703125</LatitudeDegrees>
              <LongitudeDegrees>-0.2101899683475494384765625</LongitudeDegrees>
            </Position>
            <AltitudeMeters>1915.4000244140625</AltitudeMeters>
            <DistanceMeters>NAN</DistanceMeters>
          </Trackpoint>
          <Trackpoint>
            <Time>2021-07-17T14:01:49.000Z</Time>
            <Position>
              <LatitudeDegrees>42.715769112110137939453125</LatitudeDegrees>
              <LongitudeDegrees>-0.21019742824137210845947265625</LongitudeDegrees>
            </Position>
            <AltitudeMeters>1915</AltitudeMeters>
            <DistanceMeters>NAN</DistanceMeters>
          </Trackpoint>
          <Trackpoint>
            <Time>2021-07-17T14:01:56.000Z</Time>
            <Position>
              <LatitudeDegrees>42.71579534746706485748291015625</LatitudeDegrees>
              <LongitudeDegrees>-0.2102033793926239013671875</LongitudeDegrees>
            </Position>
            <AltitudeMeters>1916.199951171875</AltitudeMeters>
            <DistanceMeters>NAN</DistanceMeters>
          </Trackpoint>
          <Trackpoint>
            <Time>2021-07-17T14:02:01.000Z</Time>
            <Position>
              <LatitudeDegrees>42.7158299647271633148193359375</LatitudeDegrees>
              <LongitudeDegrees>-0.2101884596049785614013671875</LongitudeDegrees>
            </Position>
            <AltitudeMeters>1917.800048828125</AltitudeMeters>
            <DistanceMeters>NAN</DistanceMeters>
          </Trackpoint>
          <Trackpoint>
            <Time>2021-07-17T14:02:08.000Z</Time>
            <Position>
              <LatitudeDegrees>42.715852595865726470947265625</LatitudeDegrees>
              <LongitudeDegrees>-0.21014026366174221038818359375</LongitudeDegrees>
            </Position>
            <AltitudeMeters>1920</AltitudeMeters>
            <DistanceMeters>NAN</DistanceMeters>
          </Trackpoint>
          <Trackpoint>
            <Time>2021-07-17T14:02:15.000Z</Time>
            <Position>
              <LatitudeDegrees>42.71584128029644489288330078125</LatitudeDegrees>
              <LongitudeDegrees>-0.21010170690715312957763671875</LongitudeDegrees>
            </Position>
            <AltitudeMeters>1920.5999755859375</AltitudeMeters>
            <DistanceMeters>NAN</DistanceMeters>
          </Trackpoint>
          <Trackpoint>
            <Time>2021-07-17T14:02:24.000Z</Time>
            <Position>
              <LatitudeDegrees>42.7158587984740734100341796875</LatitudeDegrees>
              <LongitudeDegrees>-0.21002677269279956817626953125</LongitudeDegrees>
            </Position>
            <AltitudeMeters>1923.5999755859375</AltitudeMeters>
            <DistanceMeters>NAN</DistanceMeters>
          </Trackpoint>
          <Trackpoint>
            <Time>2021-07-17T14:02:31.000Z</Time>
            <Position>
              <LatitudeDegrees>42.715872041881084442138671875</LatitudeDegrees>
              <LongitudeDegrees>-0.21002559922635555267333984375</LongitudeDegrees>
            </Position>
            <AltitudeMeters>1924.199951171875</AltitudeMeters>
            <DistanceMeters>NAN</DistanceMeters>
          </Trackpoint>
          <Trackpoint>
            <Time>2021-07-17T14:02:33.000Z</Time>
            <Position>
              <LatitudeDegrees>42.71588536910712718963623046875</LatitudeDegrees>
              <LongitudeDegrees>-0.21001470275223255157470703125</LongitudeDegrees>
            </Position>
            <AltitudeMeters>1925</AltitudeMeters>
            <DistanceMeters>NAN</DistanceMeters>
          </Trackpoint>
          <Trackpoint>
            <Time>2021-07-17T14:02:40.000Z</Time>
            <Position>
              <LatitudeDegrees>42.715889476239681243896484375</LatitudeDegrees>
              <LongitudeDegrees>-0.2099780738353729248046875</LongitudeDegrees>
            </Position>
            <AltitudeMeters>1926.199951171875</AltitudeMeters>
            <DistanceMeters>NAN</DistanceMeters>
          </Trackpoint>
          <Trackpoint>
            <Time>2021-07-17T14:02:50.000Z</Time>
            <Position>
              <LatitudeDegrees>42.71590112708508968353271484375</LatitudeDegrees>
              <LongitudeDegrees>-0.20993893034756183624267578125</LongitudeDegrees>
            </Position>
            <AltitudeMeters>1927.5999755859375</AltitudeMeters>
            <DistanceMeters>NAN</DistanceMeters>
          </Trackpoint>
          <Trackpoint>
            <Time>2021-07-17T14:03:00.000Z</Time>
            <Position>
              <LatitudeDegrees>42.71591420285403728485107421875</LatitudeDegrees>
              <LongitudeDegrees>-0.20991311408579349517822265625</LongitudeDegrees>
            </Position>
            <AltitudeMeters>1928.800048828125</AltitudeMeters>
            <DistanceMeters>NAN</DistanceMeters>
          </Trackpoint>
          <Trackpoint>
            <Time>2021-07-17T14:03:06.000Z</Time>
            <Position>
              <LatitudeDegrees>42.71594068966805934906005859375</LatitudeDegrees>
              <LongitudeDegrees>-0.20989559590816497802734375</LongitudeDegrees>
            </Position>
            <AltitudeMeters>1930.5999755859375</AltitudeMeters>
            <DistanceMeters>NAN</DistanceMeters>
          </Trackpoint>
          <Trackpoint>
            <Time>2021-07-17T14:03:16.000Z</Time>
            <Position>
              <LatitudeDegrees>42.715965248644351959228515625</LatitudeDegrees>
              <LongitudeDegrees>-0.20985863171517848968505859375</LongitudeDegrees>
            </Position>
            <AltitudeMeters>1933.4000244140625</AltitudeMeters>
            <DistanceMeters>NAN</DistanceMeters>
          </Trackpoint>
          <Trackpoint>
            <Time>2021-07-17T14:03:24.000Z</Time>
            <Position>
              <LatitudeDegrees>42.7159724570810794830322265625</LatitudeDegrees>
              <LongitudeDegrees>-0.20984002389013767242431640625</LongitudeDegrees>
            </Position>
            <AltitudeMeters>1934.5999755859375</AltitudeMeters>
            <DistanceMeters>NAN</DistanceMeters>
          </Trackpoint>
          <Trackpoint>
            <Time>2021-07-17T14:03:32.000Z</Time>
            <Position>
              <LatitudeDegrees>42.71595619618892669677734375</LatitudeDegrees>
              <LongitudeDegrees>-0.20985745824873447418212890625</LongitudeDegrees>
            </Position>
            <AltitudeMeters>1933.199951171875</AltitudeMeters>
            <DistanceMeters>NAN</DistanceMeters>
          </Trackpoint>
          <Trackpoint>
            <Time>2021-07-17T14:03:37.000Z</Time>
            <Position>
              <LatitudeDegrees>42.71595619618892669677734375</LatitudeDegrees>
              <LongitudeDegrees>-0.20985745824873447418212890625</LongitudeDegrees>
            </Position>
            <AltitudeMeters>1933.199951171875</AltitudeMeters>
            <DistanceMeters>NAN</DistanceMeters>
          </Trackpoint>
          <Trackpoint>
            <Time>2021-07-17T14:03:47.000Z</Time>
            <Position>
              <LatitudeDegrees>42.71597203798592090606689453125</LatitudeDegrees>
              <LongitudeDegrees>-0.2098605595529079437255859375</LongitudeDegrees>
            </Position>
            <AltitudeMeters>1933.4000244140625</AltitudeMeters>
            <DistanceMeters>NAN</DistanceMeters>
          </Trackpoint>
          <Trackpoint>
            <Time>2021-07-17T14:03:53.000Z</Time>
            <Position>
              <LatitudeDegrees>42.715975977480411529541015625</LatitudeDegrees>
              <LongitudeDegrees>-0.2098605595529079437255859375</LongitudeDegrees>
            </Position>
            <AltitudeMeters>1933.4000244140625</AltitudeMeters>
            <DistanceMeters>NAN</DistanceMeters>
          </Trackpoint>
          <Trackpoint>
            <Time>2021-07-17T14:04:05.000Z</Time>
            <Position>
              <LatitudeDegrees>42.7159972675144672393798828125</LatitudeDegrees>
              <LongitudeDegrees>-0.2098454721271991729736328125</LongitudeDegrees>
            </Position>
            <AltitudeMeters>1934.800048828125</AltitudeMeters>
            <DistanceMeters>NAN</DistanceMeters>
          </Trackpoint>
          <Trackpoint>
            <Time>2021-07-17T14:04:08.000Z</Time>
            <Position>
              <LatitudeDegrees>42.7159986086189746856689453125</LatitudeDegrees>
              <LongitudeDegrees>-0.2098287083208560943603515625</LongitudeDegrees>
            </Position>
            <AltitudeMeters>1935.800048828125</AltitudeMeters>
            <DistanceMeters>NAN</DistanceMeters>
          </Trackpoint>
          <Trackpoint>
            <Time>2021-07-17T14:04:36.000Z</Time>
            <Position>
              <LatitudeDegrees>42.71602056920528411865234375</LatitudeDegrees>
              <LongitudeDegrees>-0.20970541052520275115966796875</LongitudeDegrees>
            </Position>
            <AltitudeMeters>1943</AltitudeMeters>
            <DistanceMeters>NAN</DistanceMeters>
          </Trackpoint>
          <Trackpoint>
            <Time>2021-07-17T14:04:45.000Z</Time>
            <Position>
              <LatitudeDegrees>42.7160224132239818572998046875</LatitudeDegrees>
              <LongitudeDegrees>-0.2096885628998279571533203125</LongitudeDegrees>
            </Position>
            <AltitudeMeters>1943.800048828125</AltitudeMeters>
            <DistanceMeters>NAN</DistanceMeters>
          </Trackpoint>
          <Trackpoint>
            <Time>2021-07-17T14:04:56.000Z</Time>
            <Position>
              <LatitudeDegrees>42.71602149121463298797607421875</LatitudeDegrees>
              <LongitudeDegrees>-0.20967439748346805572509765625</LongitudeDegrees>
            </Position>
            <AltitudeMeters>1944.4000244140625</AltitudeMeters>
            <DistanceMeters>NAN</DistanceMeters>
          </Trackpoint>
          <Trackpoint>
            <Time>2021-07-17T14:04:58.000Z</Time>
            <Position>
              <LatitudeDegrees>42.71602191030979156494140625</LatitudeDegrees>
              <LongitudeDegrees>-0.20967339165508747100830078125</LongitudeDegrees>
            </Position>
            <AltitudeMeters>1944.5999755859375</AltitudeMeters>
            <DistanceMeters>NAN</DistanceMeters>
          </Trackpoint>
          <Trackpoint>
            <Time>2021-07-17T14:05:00.000Z</Time>
            <Position>
              <LatitudeDegrees>42.71602216176688671112060546875</LatitudeDegrees>
              <LongitudeDegrees>-0.20967163145542144775390625</LongitudeDegrees>
            </Position>
            <AltitudeMeters>1944.5999755859375</AltitudeMeters>
            <DistanceMeters>NAN</DistanceMeters>
          </Trackpoint>
          <Trackpoint>
            <Time>2021-07-17T14:05:13.000Z</Time>
            <Position>
              <LatitudeDegrees>42.716023921966552734375</LatitudeDegrees>
              <LongitudeDegrees>-0.20963600836694240570068359375</LongitudeDegrees>
            </Position>
            <AltitudeMeters>1946.4000244140625</AltitudeMeters>
            <DistanceMeters>NAN</DistanceMeters>
          </Trackpoint>
          <Trackpoint>
            <Time>2021-07-17T14:05:26.000Z</Time>
            <Position>
              <LatitudeDegrees>42.716045714914798736572265625</LatitudeDegrees>
              <LongitudeDegrees>-0.20959518849849700927734375</LongitudeDegrees>
            </Position>
            <AltitudeMeters>1949.199951171875</AltitudeMeters>
            <DistanceMeters>NAN</DistanceMeters>
          </Trackpoint>
          <Trackpoint>
            <Time>2021-07-17T14:05:37.000Z</Time>
            <Position>
              <LatitudeDegrees>42.71605946123600006103515625</LatitudeDegrees>
              <LongitudeDegrees>-0.20958487875759601593017578125</LongitudeDegrees>
            </Position>
            <AltitudeMeters>1950</AltitudeMeters>
            <DistanceMeters>NAN</DistanceMeters>
          </Trackpoint>
          <Trackpoint>
            <Time>2021-07-17T14:05:53.000Z</Time>
            <Position>
              <LatitudeDegrees>42.71608418785035610198974609375</LatitudeDegrees>
              <LongitudeDegrees>-0.20955621264874935150146484375</LongitudeDegrees>
            </Position>
            <AltitudeMeters>1952.199951171875</AltitudeMeters>
            <DistanceMeters>NAN</DistanceMeters>
          </Trackpoint>
          <Trackpoint>
            <Time>2021-07-17T14:06:15.000Z</Time>
            <Position>
              <LatitudeDegrees>42.7161001972854137420654296875</LatitudeDegrees>
              <LongitudeDegrees>-0.20952704362571239471435546875</LongitudeDegrees>
            </Position>
            <AltitudeMeters>1954</AltitudeMeters>
            <DistanceMeters>NAN</DistanceMeters>
          </Trackpoint>
          <Trackpoint>
            <Time>2021-07-17T14:07:12.000Z</Time>
            <Position>
              <LatitudeDegrees>42.71612115204334259033203125</LatitudeDegrees>
              <LongitudeDegrees>-0.209490247070789337158203125</LongitudeDegrees>
            </Position>
            <AltitudeMeters>1956.4000244140625</AltitudeMeters>
            <DistanceMeters>NAN</DistanceMeters>
          </Trackpoint>
          <Trackpoint>
            <Time>2021-07-17T14:07:26.000Z</Time>
            <Position>
              <LatitudeDegrees>42.71612140350043773651123046875</LatitudeDegrees>
              <LongitudeDegrees>-0.209488235414028167724609375</LongitudeDegrees>
            </Position>
            <AltitudeMeters>1956.5999755859375</AltitudeMeters>
            <DistanceMeters>NAN</DistanceMeters>
          </Trackpoint>
          <Trackpoint>
            <Time>2021-07-17T14:07:51.000Z</Time>
            <Position>
              <LatitudeDegrees>42.71612224169075489044189453125</LatitudeDegrees>
              <LongitudeDegrees>-0.2094833739101886749267578125</LongitudeDegrees>
            </Position>
            <AltitudeMeters>1956.800048828125</AltitudeMeters>
            <DistanceMeters>NAN</DistanceMeters>
          </Trackpoint>
          <Trackpoint>
            <Time>2021-07-17T14:07:59.000Z</Time>
            <Position>
              <LatitudeDegrees>42.7161226607859134674072265625</LatitudeDegrees>
              <LongitudeDegrees>-0.209481529891490936279296875</LongitudeDegrees>
            </Position>
            <AltitudeMeters>1957</AltitudeMeters>
            <DistanceMeters>NAN</DistanceMeters>
          </Trackpoint>
          <Trackpoint>
            <Time>2021-07-17T14:08:03.000Z</Time>
            <Position>
              <LatitudeDegrees>42.716122828423976898193359375</LatitudeDegrees>
              <LongitudeDegrees>-0.2094805240631103515625</LongitudeDegrees>
            </Position>
            <AltitudeMeters>1957</AltitudeMeters>
            <DistanceMeters>NAN</DistanceMeters>
          </Trackpoint>
          <Trackpoint>
            <Time>2021-07-17T14:08:59.000Z</Time>
            <Position>
              <LatitudeDegrees>42.7161270193755626678466796875</LatitudeDegrees>
              <LongitudeDegrees>-0.20946283824741840362548828125</LongitudeDegrees>
            </Position>
            <AltitudeMeters>1958</AltitudeMeters>
            <DistanceMeters>NAN</DistanceMeters>
          </Trackpoint>
          <Trackpoint>
            <Time>2021-07-17T14:09:32.000Z</Time>
            <Position>
              <LatitudeDegrees>42.716132886707782745361328125</LatitudeDegrees>
              <LongitudeDegrees>-0.2094491757452487945556640625</LongitudeDegrees>
            </Position>
            <AltitudeMeters>1958.800048828125</AltitudeMeters>
            <DistanceMeters>NAN</DistanceMeters>
          </Trackpoint>
          <Trackpoint>
            <Time>2021-07-17T14:09:33.000Z</Time>
            <Position>
              <LatitudeDegrees>42.7161330543458461761474609375</LatitudeDegrees>
              <LongitudeDegrees>-0.20944875665009021759033203125</LongitudeDegrees>
            </Position>
            <AltitudeMeters>1958.800048828125</AltitudeMeters>
            <DistanceMeters>NAN</DistanceMeters>
          </Trackpoint>
          <Trackpoint>
            <Time>2021-07-17T14:09:43.000Z</Time>
            <Position>
              <LatitudeDegrees>42.7161352336406707763671875</LatitudeDegrees>
              <LongitudeDegrees>-0.2094438113272190093994140625</LongitudeDegrees>
            </Position>
            <AltitudeMeters>1959</AltitudeMeters>
            <DistanceMeters>NAN</DistanceMeters>
          </Trackpoint>
          <Trackpoint>
            <Time>2021-07-17T14:09:55.000Z</Time>
            <Position>
              <LatitudeDegrees>42.7161379158496856689453125</LatitudeDegrees>
              <LongitudeDegrees>-0.20943702198565006256103515625</LongitudeDegrees>
            </Position>
            <AltitudeMeters>1959.4000244140625</AltitudeMeters>
            <DistanceMeters>NAN</DistanceMeters>
          </Trackpoint>
          <Trackpoint>
            <Time>2021-07-17T14:10:06.000Z</Time>
            <Position>
              <LatitudeDegrees>42.7162800729274749755859375</LatitudeDegrees>
              <LongitudeDegrees>-0.20930014550685882568359375</LongitudeDegrees>
            </Position>
            <AltitudeMeters>1965.5999755859375</AltitudeMeters>
            <DistanceMeters>NAN</DistanceMeters>
          </Trackpoint>
          <Trackpoint>
            <Time>2021-07-17T14:10:11.000Z</Time>
            <Position>
              <LatitudeDegrees>42.71641292609274387359619140625</LatitudeDegrees>
              <LongitudeDegrees>-0.20915823988616466522216796875</LongitudeDegrees>
            </Position>
            <AltitudeMeters>1969.800048828125</AltitudeMeters>
            <DistanceMeters>NAN</DistanceMeters>
          </Trackpoint>
          <Trackpoint>
            <Time>2021-07-17T14:10:17.000Z</Time>
            <Position>
              <LatitudeDegrees>42.71643321029841899871826171875</LatitudeDegrees>
              <LongitudeDegrees>-0.20916494540870189666748046875</LongitudeDegrees>
            </Position>
            <AltitudeMeters>1969.4000244140625</AltitudeMeters>
            <DistanceMeters>NAN</DistanceMeters>
          </Trackpoint>
          <Trackpoint>
            <Time>2021-07-17T14:10:18.000Z</Time>
            <Position>
              <LatitudeDegrees>42.7164394967257976531982421875</LatitudeDegrees>
              <LongitudeDegrees>-0.20916461013257503509521484375</LongitudeDegrees>
            </Position>
            <AltitudeMeters>1969.4000244140625</AltitudeMeters>
            <DistanceMeters>NAN</DistanceMeters>
          </Trackpoint>
          <Trackpoint>
            <Time>2021-07-17T14:10:23.000Z</Time>
            <Position>
              <LatitudeDegrees>42.71646237932145595550537109375</LatitudeDegrees>
              <LongitudeDegrees>-0.209161005914211273193359375</LongitudeDegrees>
            </Position>
            <AltitudeMeters>1969.5999755859375</AltitudeMeters>
            <DistanceMeters>NAN</DistanceMeters>
          </Trackpoint>
          <Trackpoint>
            <Time>2021-07-17T14:10:30.000Z</Time>
            <Position>
              <LatitudeDegrees>42.7164747007191181182861328125</LatitudeDegrees>
              <LongitudeDegrees>-0.2091439068317413330078125</LongitudeDegrees>
            </Position>
            <AltitudeMeters>1970.199951171875</AltitudeMeters>
            <DistanceMeters>NAN</DistanceMeters>
          </Trackpoint>
          <Trackpoint>
            <Time>2021-07-17T14:10:36.000Z</Time>
            <Position>
              <LatitudeDegrees>42.716482914984226226806640625</LatitudeDegrees>
              <LongitudeDegrees>-0.20908288657665252685546875</LongitudeDegrees>
            </Position>
            <AltitudeMeters>1972.199951171875</AltitudeMeters>
            <DistanceMeters>NAN</DistanceMeters>
          </Trackpoint>
          <Trackpoint>
            <Time>2021-07-17T14:10:42.000Z</Time>
            <Position>
              <LatitudeDegrees>42.7164490520954132080078125</LatitudeDegrees>
              <LongitudeDegrees>-0.2090455032885074615478515625</LongitudeDegrees>
            </Position>
            <AltitudeMeters>1973.4000244140625</AltitudeMeters>
            <DistanceMeters>NAN</DistanceMeters>
          </Trackpoint>
          <Trackpoint>
            <Time>2021-07-17T14:10:45.000Z</Time>
            <Position>
              <LatitudeDegrees>42.71644209511578083038330078125</LatitudeDegrees>
              <LongitudeDegrees>-0.2090263925492763519287109375</LongitudeDegrees>
            </Position>
            <AltitudeMeters>1974</AltitudeMeters>
            <DistanceMeters>NAN</DistanceMeters>
          </Trackpoint>
          <Trackpoint>
            <Time>2021-07-17T14:10:49.000Z</Time>
            <Position>
              <LatitudeDegrees>42.71642885170876979827880859375</LatitudeDegrees>
              <LongitudeDegrees>-0.2090099640190601348876953125</LongitudeDegrees>
            </Position>
            <AltitudeMeters>1974.5999755859375</AltitudeMeters>
            <DistanceMeters>NAN</DistanceMeters>
          </Trackpoint>
          <Trackpoint>
            <Time>2021-07-17T14:10:50.000Z</Time>
            <Position>
              <LatitudeDegrees>42.7164230681955814361572265625</LatitudeDegrees>
              <LongitudeDegrees>-0.209008790552616119384765625</LongitudeDegrees>
            </Position>
            <AltitudeMeters>1974.5999755859375</AltitudeMeters>
            <DistanceMeters>NAN</DistanceMeters>
          </Trackpoint>
          <Trackpoint>
            <Time>2021-07-17T14:10:55.000Z</Time>
            <Position>
              <LatitudeDegrees>42.7163898758590221405029296875</LatitudeDegrees>
              <LongitudeDegrees>-0.208989679813385009765625</LongitudeDegrees>
            </Position>
            <AltitudeMeters>1975</AltitudeMeters>
            <DistanceMeters>NAN</DistanceMeters>
          </Trackpoint>
          <Trackpoint>
            <Time>2021-07-17T14:10:57.000Z</Time>
            <Position>
              <LatitudeDegrees>42.7163791470229625701904296875</LatitudeDegrees>
              <LongitudeDegrees>-0.20899035036563873291015625</LongitudeDegrees>
            </Position>
            <AltitudeMeters>1975</AltitudeMeters>
            <DistanceMeters>NAN</DistanceMeters>
          </Trackpoint>
          <Trackpoint>
            <Time>2021-07-17T14:10:58.000Z</Time>
            <Position>
              <LatitudeDegrees>42.71637386642396450042724609375</LatitudeDegrees>
              <LongitudeDegrees>-0.208986662328243255615234375</LongitudeDegrees>
            </Position>
            <AltitudeMeters>1975</AltitudeMeters>
            <DistanceMeters>NAN</DistanceMeters>
          </Trackpoint>
          <Trackpoint>
            <Time>2021-07-17T14:11:01.000Z</Time>
            <Position>
              <LatitudeDegrees>42.7163553424179553985595703125</LatitudeDegrees>
              <LongitudeDegrees>-0.20898473449051380157470703125</LongitudeDegrees>
            </Position>
            <AltitudeMeters>1975</AltitudeMeters>
            <DistanceMeters>NAN</DistanceMeters>
          </Trackpoint>
          <Trackpoint>
            <Time>2021-07-17T14:11:03.000Z</Time>
            <Position>
              <LatitudeDegrees>42.71634452976286411285400390625</LatitudeDegrees>
              <LongitudeDegrees>-0.2089848183095455169677734375</LongitudeDegrees>
            </Position>
            <AltitudeMeters>1974.800048828125</AltitudeMeters>
            <DistanceMeters>NAN</DistanceMeters>
          </Trackpoint>
          <Trackpoint>
            <Time>2021-07-17T14:11:05.000Z</Time>
            <Position>
              <LatitudeDegrees>42.71633262746036052703857421875</LatitudeDegrees>
              <LongitudeDegrees>-0.20898364484310150146484375</LongitudeDegrees>
            </Position>
            <AltitudeMeters>1974.800048828125</AltitudeMeters>
            <DistanceMeters>NAN</DistanceMeters>
          </Trackpoint>
          <Trackpoint>
            <Time>2021-07-17T14:11:07.000Z</Time>
            <Position>
              <LatitudeDegrees>42.7163241617381572723388671875</LatitudeDegrees>
              <LongitudeDegrees>-0.208971239626407623291015625</LongitudeDegrees>
            </Position>
            <AltitudeMeters>1975.199951171875</AltitudeMeters>
            <DistanceMeters>NAN</DistanceMeters>
          </Trackpoint>
          <Trackpoint>
            <Time>2021-07-17T14:11:11.000Z</Time>
            <Position>
              <LatitudeDegrees>42.71633899770677089691162109375</LatitudeDegrees>
              <LongitudeDegrees>-0.20891818217933177947998046875</LongitudeDegrees>
            </Position>
            <AltitudeMeters>1977.199951171875</AltitudeMeters>
            <DistanceMeters>NAN</DistanceMeters>
          </Trackpoint>
          <Trackpoint>
            <Time>2021-07-17T14:11:15.000Z</Time>
            <Position>
              <LatitudeDegrees>42.71630815230309963226318359375</LatitudeDegrees>
              <LongitudeDegrees>-0.20891583524644374847412109375</LongitudeDegrees>
            </Position>
            <AltitudeMeters>1976.800048828125</AltitudeMeters>
            <DistanceMeters>NAN</DistanceMeters>
          </Trackpoint>
          <Trackpoint>
            <Time>2021-07-17T14:11:19.000Z</Time>
            <Position>
              <LatitudeDegrees>42.71629574708640575408935546875</LatitudeDegrees>
              <LongitudeDegrees>-0.20890460349619388580322265625</LongitudeDegrees>
            </Position>
            <AltitudeMeters>1976.800048828125</AltitudeMeters>
            <DistanceMeters>NAN</DistanceMeters>
          </Trackpoint>
          <Trackpoint>
            <Time>2021-07-17T14:11:26.000Z</Time>
            <Position>
              <LatitudeDegrees>42.716275043785572052001953125</LatitudeDegrees>
              <LongitudeDegrees>-0.20883746445178985595703125</LongitudeDegrees>
            </Position>
            <AltitudeMeters>1978.199951171875</AltitudeMeters>
            <DistanceMeters>NAN</DistanceMeters>
          </Trackpoint>
          <Trackpoint>
            <Time>2021-07-17T14:11:33.000Z</Time>
            <Position>
              <LatitudeDegrees>42.7162581123411655426025390625</LatitudeDegrees>
              <LongitudeDegrees>-0.20883671008050441741943359375</LongitudeDegrees>
            </Position>
            <AltitudeMeters>1977.800048828125</AltitudeMeters>
            <DistanceMeters>NAN</DistanceMeters>
          </Trackpoint>
          <Trackpoint>
            <Time>2021-07-17T14:11:41.000Z</Time>
            <Position>
              <LatitudeDegrees>42.71621771156787872314453125</LatitudeDegrees>
              <LongitudeDegrees>-0.20882598124444484710693359375</LongitudeDegrees>
            </Position>
            <AltitudeMeters>1977.4000244140625</AltitudeMeters>
            <DistanceMeters>NAN</DistanceMeters>
          </Trackpoint>
          <Trackpoint>
            <Time>2021-07-17T14:11:48.000Z</Time>
            <Position>
              <LatitudeDegrees>42.71620673127472400665283203125</LatitudeDegrees>
              <LongitudeDegrees>-0.2087799645960330963134765625</LongitudeDegrees>
            </Position>
            <AltitudeMeters>1978.800048828125</AltitudeMeters>
            <DistanceMeters>NAN</DistanceMeters>
          </Trackpoint>
          <Trackpoint>
            <Time>2021-07-17T14:11:54.000Z</Time>
            <Position>
              <LatitudeDegrees>42.7161793224513530731201171875</LatitudeDegrees>
              <LongitudeDegrees>-0.20876261405646800994873046875</LongitudeDegrees>
            </Position>
            <AltitudeMeters>1978.800048828125</AltitudeMeters>
            <DistanceMeters>NAN</DistanceMeters>
          </Trackpoint>
          <Trackpoint>
            <Time>2021-07-17T14:12:00.000Z</Time>
            <Position>
              <LatitudeDegrees>42.7161535061895847320556640625</LatitudeDegrees>
              <LongitudeDegrees>-0.20876546390354633331298828125</LongitudeDegrees>
            </Position>
            <AltitudeMeters>1978</AltitudeMeters>
            <DistanceMeters>NAN</DistanceMeters>
          </Trackpoint>
          <Trackpoint>
            <Time>2021-07-17T14:12:06.000Z</Time>
            <Position>
              <LatitudeDegrees>42.7161655761301517486572265625</LatitudeDegrees>
              <LongitudeDegrees>-0.2087437547743320465087890625</LongitudeDegrees>
            </Position>
            <AltitudeMeters>1979</AltitudeMeters>
            <DistanceMeters>NAN</DistanceMeters>
          </Trackpoint>
          <Trackpoint>
            <Time>2021-07-17T14:12:11.000Z</Time>
            <Position>
              <LatitudeDegrees>42.716167755424976348876953125</LatitudeDegrees>
              <LongitudeDegrees>-0.2087518014013767242431640625</LongitudeDegrees>
            </Position>
            <AltitudeMeters>1978.800048828125</AltitudeMeters>
            <DistanceMeters>NAN</DistanceMeters>
          </Trackpoint>
          <Trackpoint>
            <Time>2021-07-17T14:12:21.000Z</Time>
            <Position>
              <LatitudeDegrees>42.71616716869175434112548828125</LatitudeDegrees>
              <LongitudeDegrees>-0.20875842310488224029541015625</LongitudeDegrees>
            </Position>
            <AltitudeMeters>1978.5999755859375</AltitudeMeters>
            <DistanceMeters>NAN</DistanceMeters>
          </Trackpoint>
          <Trackpoint>
            <Time>2021-07-17T14:12:27.000Z</Time>
            <Position>
              <LatitudeDegrees>42.7161669172346591949462890625</LatitudeDegrees>
              <LongitudeDegrees>-0.20875842310488224029541015625</LongitudeDegrees>
            </Position>
            <AltitudeMeters>1978.5999755859375</AltitudeMeters>
            <DistanceMeters>NAN</DistanceMeters>
          </Trackpoint>
          <Trackpoint>
            <Time>2021-07-17T14:12:48.000Z</Time>
            <Position>
              <LatitudeDegrees>42.7161595411598682403564453125</LatitudeDegrees>
              <LongitudeDegrees>-0.20878113806247711181640625</LongitudeDegrees>
            </Position>
            <AltitudeMeters>1977.5999755859375</AltitudeMeters>
            <DistanceMeters>NAN</DistanceMeters>
          </Trackpoint>
          <Trackpoint>
            <Time>2021-07-17T14:12:51.000Z</Time>
            <Position>
              <LatitudeDegrees>42.71616272628307342529296875</LatitudeDegrees>
              <LongitudeDegrees>-0.2087816409766674041748046875</LongitudeDegrees>
            </Position>
            <AltitudeMeters>1977.5999755859375</AltitudeMeters>
            <DistanceMeters>NAN</DistanceMeters>
          </Trackpoint>
          <Trackpoint>
            <Time>2021-07-17T14:12:54.000Z</Time>
            <Position>
              <LatitudeDegrees>42.71616281010210514068603515625</LatitudeDegrees>
              <LongitudeDegrees>-0.20878314971923828125</LongitudeDegrees>
            </Position>
            <AltitudeMeters>1977.5999755859375</AltitudeMeters>
            <DistanceMeters>NAN</DistanceMeters>
          </Trackpoint>
          <Trackpoint>
            <Time>2021-07-17T14:12:58.000Z</Time>
            <Position>
              <LatitudeDegrees>42.71616281010210514068603515625</LatitudeDegrees>
              <LongitudeDegrees>-0.20878314971923828125</LongitudeDegrees>
            </Position>
            <AltitudeMeters>1977.5999755859375</AltitudeMeters>
            <DistanceMeters>NAN</DistanceMeters>
          </Trackpoint>
          <Trackpoint>
            <Time>2021-07-17T14:13:02.000Z</Time>
            <Position>
              <LatitudeDegrees>42.71616549231112003326416015625</LatitudeDegrees>
              <LongitudeDegrees>-0.208782814443111419677734375</LongitudeDegrees>
            </Position>
            <AltitudeMeters>1977.5999755859375</AltitudeMeters>
            <DistanceMeters>NAN</DistanceMeters>
          </Trackpoint>
          <Trackpoint>
            <Time>2021-07-17T14:13:24.000Z</Time>
            <Position>
              <LatitudeDegrees>42.71616716869175434112548828125</LatitudeDegrees>
              <LongitudeDegrees>-0.20872673951089382171630859375</LongitudeDegrees>
            </Position>
            <AltitudeMeters>1979.5999755859375</AltitudeMeters>
            <DistanceMeters>NAN</DistanceMeters>
          </Trackpoint>
          <Trackpoint>
            <Time>2021-07-17T14:13:36.000Z</Time>
            <Position>
              <LatitudeDegrees>42.71613079123198986053466796875</LatitudeDegrees>
              <LongitudeDegrees>-0.2086937986314296722412109375</LongitudeDegrees>
            </Position>
            <AltitudeMeters>1979.5999755859375</AltitudeMeters>
            <DistanceMeters>NAN</DistanceMeters>
          </Trackpoint>
          <Trackpoint>
            <Time>2021-07-17T14:13:42.000Z</Time>
            <Position>
              <LatitudeDegrees>42.71610774099826812744140625</LatitudeDegrees>
              <LongitudeDegrees>-0.2086763642728328704833984375</LongitudeDegrees>
            </Position>
            <AltitudeMeters>1979.5999755859375</AltitudeMeters>
            <DistanceMeters>NAN</DistanceMeters>
          </Trackpoint>
          <Trackpoint>
            <Time>2021-07-17T14:13:50.000Z</Time>
            <Position>
              <LatitudeDegrees>42.71609407849609851837158203125</LatitudeDegrees>
              <LongitudeDegrees>-0.2086528949439525604248046875</LongitudeDegrees>
            </Position>
            <AltitudeMeters>1980</AltitudeMeters>
            <DistanceMeters>NAN</DistanceMeters>
          </Trackpoint>
          <Trackpoint>
            <Time>2021-07-17T14:14:03.000Z</Time>
            <Position>
              <LatitudeDegrees>42.7160467207431793212890625</LatitudeDegrees>
              <LongitudeDegrees>-0.20859715528786182403564453125</LongitudeDegrees>
            </Position>
            <AltitudeMeters>1982.5999755859375</AltitudeMeters>
            <DistanceMeters>NAN</DistanceMeters>
          </Trackpoint>
          <Trackpoint>
            <Time>2021-07-17T14:14:09.000Z</Time>
            <Position>
              <LatitudeDegrees>42.71602132357656955718994140625</LatitudeDegrees>
              <LongitudeDegrees>-0.20857133902609348297119140625</LongitudeDegrees>
            </Position>
            <AltitudeMeters>1984.4000244140625</AltitudeMeters>
            <DistanceMeters>NAN</DistanceMeters>
          </Trackpoint>
          <Trackpoint>
            <Time>2021-07-17T14:14:38.000Z</Time>
            <Position>
              <LatitudeDegrees>42.7159727923572063446044921875</LatitudeDegrees>
              <LongitudeDegrees>-0.208578296005725860595703125</LongitudeDegrees>
            </Position>
            <AltitudeMeters>1984.4000244140625</AltitudeMeters>
            <DistanceMeters>NAN</DistanceMeters>
          </Trackpoint>
          <Trackpoint>
            <Time>2021-07-17T14:14:43.000Z</Time>
            <Position>
              <LatitudeDegrees>42.71597354672849178314208984375</LatitudeDegrees>
              <LongitudeDegrees>-0.20858257077634334564208984375</LongitudeDegrees>
            </Position>
            <AltitudeMeters>1984</AltitudeMeters>
            <DistanceMeters>NAN</DistanceMeters>
          </Trackpoint>
          <Trackpoint>
            <Time>2021-07-17T14:14:47.000Z</Time>
            <Position>
              <LatitudeDegrees>42.7159741334617137908935546875</LatitudeDegrees>
              <LongitudeDegrees>-0.208584330976009368896484375</LongitudeDegrees>
            </Position>
            <AltitudeMeters>1984</AltitudeMeters>
            <DistanceMeters>NAN</DistanceMeters>
          </Trackpoint>
          <Trackpoint>
            <Time>2021-07-17T14:14:50.000Z</Time>
            <Position>
              <LatitudeDegrees>42.7159741334617137908935546875</LatitudeDegrees>
              <LongitudeDegrees>-0.208585672080516815185546875</LongitudeDegrees>
            </Position>
            <AltitudeMeters>1983.800048828125</AltitudeMeters>
            <DistanceMeters>NAN</DistanceMeters>
          </Trackpoint>
          <Trackpoint>
            <Time>2021-07-17T14:14:53.000Z</Time>
            <Position>
              <LatitudeDegrees>42.7159737981855869293212890625</LatitudeDegrees>
              <LongitudeDegrees>-0.20858944393694400787353515625</LongitudeDegrees>
            </Position>
            <AltitudeMeters>1983.5999755859375</AltitudeMeters>
            <DistanceMeters>NAN</DistanceMeters>
          </Trackpoint>
          <Trackpoint>
            <Time>2021-07-17T14:14:59.000Z</Time>
            <Position>
              <LatitudeDegrees>42.7159737981855869293212890625</LatitudeDegrees>
              <LongitudeDegrees>-0.20859732292592525482177734375</LongitudeDegrees>
            </Position>
            <AltitudeMeters>1983</AltitudeMeters>
            <DistanceMeters>NAN</DistanceMeters>
          </Trackpoint>
          <Trackpoint>
            <Time>2021-07-17T14:15:04.000Z</Time>
            <Position>
              <LatitudeDegrees>42.7159743010997772216796875</LatitudeDegrees>
              <LongitudeDegrees>-0.208599083125591278076171875</LongitudeDegrees>
            </Position>
            <AltitudeMeters>1983</AltitudeMeters>
            <DistanceMeters>NAN</DistanceMeters>
          </Trackpoint>
          <Trackpoint>
            <Time>2021-07-17T14:15:10.000Z</Time>
            <Position>
              <LatitudeDegrees>42.71597639657557010650634765625</LatitudeDegrees>
              <LongitudeDegrees>-0.20859866403043270111083984375</LongitudeDegrees>
            </Position>
            <AltitudeMeters>1983</AltitudeMeters>
            <DistanceMeters>NAN</DistanceMeters>
          </Trackpoint>
          <Trackpoint>
            <Time>2021-07-17T14:15:40.000Z</Time>
            <Position>
              <LatitudeDegrees>42.71598846651613712310791015625</LatitudeDegrees>
              <LongitudeDegrees>-0.20858441479504108428955078125</LongitudeDegrees>
            </Position>
            <AltitudeMeters>1983.800048828125</AltitudeMeters>
            <DistanceMeters>NAN</DistanceMeters>
          </Trackpoint>
          <Trackpoint>
            <Time>2021-07-17T14:15:44.000Z</Time>
            <Position>
              <LatitudeDegrees>42.71598846651613712310791015625</LatitudeDegrees>
              <LongitudeDegrees>-0.20858441479504108428955078125</LongitudeDegrees>
            </Position>
            <AltitudeMeters>1983.800048828125</AltitudeMeters>
            <DistanceMeters>NAN</DistanceMeters>
          </Trackpoint>
          <Trackpoint>
            <Time>2021-07-17T14:16:09.000Z</Time>
            <Position>
              <LatitudeDegrees>42.71596315316855907440185546875</LatitudeDegrees>
              <LongitudeDegrees>-0.2085278369486331939697265625</LongitudeDegrees>
            </Position>
            <AltitudeMeters>1987.5999755859375</AltitudeMeters>
            <DistanceMeters>NAN</DistanceMeters>
          </Trackpoint>
          <Trackpoint>
            <Time>2021-07-17T14:16:13.000Z</Time>
            <Position>
              <LatitudeDegrees>42.71592711098492145538330078125</LatitudeDegrees>
              <LongitudeDegrees>-0.20848433487117290496826171875</LongitudeDegrees>
            </Position>
            <AltitudeMeters>1990.800048828125</AltitudeMeters>
            <DistanceMeters>NAN</DistanceMeters>
          </Trackpoint>
          <Trackpoint>
            <Time>2021-07-17T14:16:15.000Z</Time>
            <Position>
              <LatitudeDegrees>42.71591462194919586181640625</LatitudeDegrees>
              <LongitudeDegrees>-0.2084644697606563568115234375</LongitudeDegrees>
            </Position>
            <AltitudeMeters>1992.199951171875</AltitudeMeters>
            <DistanceMeters>NAN</DistanceMeters>
          </Trackpoint>
          <Trackpoint>
            <Time>2021-07-17T14:16:16.000Z</Time>
            <Position>
              <LatitudeDegrees>42.715910933911800384521484375</LatitudeDegrees>
              <LongitudeDegrees>-0.208454914391040802001953125</LongitudeDegrees>
            </Position>
            <AltitudeMeters>1992.800048828125</AltitudeMeters>
            <DistanceMeters>NAN</DistanceMeters>
          </Trackpoint>
          <Trackpoint>
            <Time>2021-07-17T14:16:17.000Z</Time>
            <Position>
              <LatitudeDegrees>42.71590850315988063812255859375</LatitudeDegrees>
              <LongitudeDegrees>-0.20844628103077411651611328125</LongitudeDegrees>
            </Position>
            <AltitudeMeters>1993.4000244140625</AltitudeMeters>
            <DistanceMeters>NAN</DistanceMeters>
          </Trackpoint>
          <Trackpoint>
            <Time>2021-07-17T14:16:19.000Z</Time>
            <Position>
              <LatitudeDegrees>42.71590062417089939117431640625</LatitudeDegrees>
              <LongitudeDegrees>-0.20843286998569965362548828125</LongitudeDegrees>
            </Position>
            <AltitudeMeters>1994.199951171875</AltitudeMeters>
            <DistanceMeters>NAN</DistanceMeters>
          </Trackpoint>
          <Trackpoint>
            <Time>2021-07-17T14:16:20.000Z</Time>
            <Position>
              <LatitudeDegrees>42.71589718759059906005859375</LatitudeDegrees>
              <LongitudeDegrees>-0.2084249071776866912841796875</LongitudeDegrees>
            </Position>
            <AltitudeMeters>1994.800048828125</AltitudeMeters>
            <DistanceMeters>NAN</DistanceMeters>
          </Trackpoint>
          <Trackpoint>
            <Time>2021-07-17T14:16:22.000Z</Time>
            <Position>
              <LatitudeDegrees>42.7158916555345058441162109375</LatitudeDegrees>
              <LongitudeDegrees>-0.20841510035097599029541015625</LongitudeDegrees>
            </Position>
            <AltitudeMeters>1995.4000244140625</AltitudeMeters>
            <DistanceMeters>NAN</DistanceMeters>
          </Trackpoint>
          <Trackpoint>
            <Time>2021-07-17T14:16:24.000Z</Time>
            <Position>
              <LatitudeDegrees>42.7158782444894313812255859375</LatitudeDegrees>
              <LongitudeDegrees>-0.20840696990489959716796875</LongitudeDegrees>
            </Position>
            <AltitudeMeters>1996.4000244140625</AltitudeMeters>
            <DistanceMeters>NAN</DistanceMeters>
          </Trackpoint>
          <Trackpoint>
            <Time>2021-07-17T14:16:26.000Z</Time>
            <Position>
              <LatitudeDegrees>42.7158698625862598419189453125</LatitudeDegrees>
              <LongitudeDegrees>-0.20838894881308078765869140625</LongitudeDegrees>
            </Position>
            <AltitudeMeters>1997.5999755859375</AltitudeMeters>
            <DistanceMeters>NAN</DistanceMeters>
          </Trackpoint>
          <Trackpoint>
            <Time>2021-07-17T14:16:29.000Z</Time>
            <Position>
              <LatitudeDegrees>42.71584966219961643218994140625</LatitudeDegrees>
              <LongitudeDegrees>-0.208377130329608917236328125</LongitudeDegrees>
            </Position>
            <AltitudeMeters>1998.800048828125</AltitudeMeters>
            <DistanceMeters>NAN</DistanceMeters>
          </Trackpoint>
          <Trackpoint>
            <Time>2021-07-17T14:16:30.000Z</Time>
            <Position>
              <LatitudeDegrees>42.7158447168767452239990234375</LatitudeDegrees>
              <LongitudeDegrees>-0.2083732746541500091552734375</LongitudeDegrees>
            </Position>
            <AltitudeMeters>1999.199951171875</AltitudeMeters>
            <DistanceMeters>NAN</DistanceMeters>
          </Trackpoint>
          <Trackpoint>
            <Time>2021-07-17T14:16:31.000Z</Time>
            <Position>
              <LatitudeDegrees>42.71583977155387401580810546875</LatitudeDegrees>
              <LongitudeDegrees>-0.20837218500673770904541015625</LongitudeDegrees>
            </Position>
            <AltitudeMeters>1999.4000244140625</AltitudeMeters>
            <DistanceMeters>NAN</DistanceMeters>
          </Trackpoint>
          <Trackpoint>
            <Time>2021-07-17T14:16:34.000Z</Time>
            <Position>
              <LatitudeDegrees>42.715823762118816375732421875</LatitudeDegrees>
              <LongitudeDegrees>-0.208359695971012115478515625</LongitudeDegrees>
            </Position>
            <AltitudeMeters>2000.5999755859375</AltitudeMeters>
            <DistanceMeters>NAN</DistanceMeters>
          </Trackpoint>
          <Trackpoint>
            <Time>2021-07-17T14:16:36.000Z</Time>
            <Position>
              <LatitudeDegrees>42.715816386044025421142578125</LatitudeDegrees>
              <LongitudeDegrees>-0.2083451114594936370849609375</LongitudeDegrees>
            </Position>
            <AltitudeMeters>2001.5999755859375</AltitudeMeters>
            <DistanceMeters>NAN</DistanceMeters>
          </Trackpoint>
          <Trackpoint>
            <Time>2021-07-17T14:16:38.000Z</Time>
            <Position>
              <LatitudeDegrees>42.71580389700829982757568359375</LatitudeDegrees>
              <LongitudeDegrees>-0.20833899267017841339111328125</LongitudeDegrees>
            </Position>
            <AltitudeMeters>2002.199951171875</AltitudeMeters>
            <DistanceMeters>NAN</DistanceMeters>
          </Trackpoint>
          <Trackpoint>
            <Time>2021-07-17T14:16:41.000Z</Time>
            <Position>
              <LatitudeDegrees>42.71579082123935222625732421875</LatitudeDegrees>
              <LongitudeDegrees>-0.20833790302276611328125</LongitudeDegrees>
            </Position>
            <AltitudeMeters>2002.199951171875</AltitudeMeters>
            <DistanceMeters>NAN</DistanceMeters>
          </Trackpoint>
          <Trackpoint>
            <Time>2021-07-17T14:16:44.000Z</Time>
            <Position>
              <LatitudeDegrees>42.71577673964202404022216796875</LatitudeDegrees>
              <LongitudeDegrees>-0.20832692272961139678955078125</LongitudeDegrees>
            </Position>
            <AltitudeMeters>2002.4000244140625</AltitudeMeters>
            <DistanceMeters>NAN</DistanceMeters>
          </Trackpoint>
          <Trackpoint>
            <Time>2021-07-17T14:16:46.000Z</Time>
            <Position>
              <LatitudeDegrees>42.71577179431915283203125</LatitudeDegrees>
              <LongitudeDegrees>-0.2083142660558223724365234375</LongitudeDegrees>
            </Position>
            <AltitudeMeters>2002.5999755859375</AltitudeMeters>
            <DistanceMeters>NAN</DistanceMeters>
          </Trackpoint>
          <Trackpoint>
            <Time>2021-07-17T14:16:51.000Z</Time>
            <Position>
              <LatitudeDegrees>42.715756706893444061279296875</LatitudeDegrees>
              <LongitudeDegrees>-0.208300687372684478759765625</LongitudeDegrees>
            </Position>
            <AltitudeMeters>2003</AltitudeMeters>
            <DistanceMeters>NAN</DistanceMeters>
          </Trackpoint>
          <Trackpoint>
            <Time>2021-07-17T14:16:54.000Z</Time>
            <Position>
              <LatitudeDegrees>42.71574203856289386749267578125</LatitudeDegrees>
              <LongitudeDegrees>-0.2082995139062404632568359375</LongitudeDegrees>
            </Position>
            <AltitudeMeters>2002.800048828125</AltitudeMeters>
            <DistanceMeters>NAN</DistanceMeters>
          </Trackpoint>
          <Trackpoint>
            <Time>2021-07-17T14:17:00.000Z</Time>
            <Position>
              <LatitudeDegrees>42.71573784761130809783935546875</LatitudeDegrees>
              <LongitudeDegrees>-0.20826749503612518310546875</LongitudeDegrees>
            </Position>
            <AltitudeMeters>2003.800048828125</AltitudeMeters>
            <DistanceMeters>NAN</DistanceMeters>
          </Trackpoint>
          <Trackpoint>
            <Time>2021-07-17T14:17:08.000Z</Time>
            <Position>
              <LatitudeDegrees>42.71570540964603424072265625</LatitudeDegrees>
              <LongitudeDegrees>-0.20825902931392192840576171875</LongitudeDegrees>
            </Position>
            <AltitudeMeters>2003.800048828125</AltitudeMeters>
            <DistanceMeters>NAN</DistanceMeters>
          </Trackpoint>
          <Trackpoint>
            <Time>2021-07-17T14:17:15.000Z</Time>
            <Position>
              <LatitudeDegrees>42.7157075889408588409423828125</LatitudeDegrees>
              <LongitudeDegrees>-0.20826472900807857513427734375</LongitudeDegrees>
            </Position>
            <AltitudeMeters>2003.5999755859375</AltitudeMeters>
            <DistanceMeters>NAN</DistanceMeters>
          </Trackpoint>
          <Trackpoint>
            <Time>2021-07-17T14:17:31.000Z</Time>
            <Position>
              <LatitudeDegrees>42.715706415474414825439453125</LatitudeDegrees>
              <LongitudeDegrees>-0.2082574367523193359375</LongitudeDegrees>
            </Position>
            <AltitudeMeters>2003.800048828125</AltitudeMeters>
            <DistanceMeters>NAN</DistanceMeters>
          </Trackpoint>
          <Trackpoint>
            <Time>2021-07-17T14:17:47.000Z</Time>
            <Position>
              <LatitudeDegrees>42.7156925015151500701904296875</LatitudeDegrees>
              <LongitudeDegrees>-0.20821695216000080108642578125</LongitudeDegrees>
            </Position>
            <AltitudeMeters>2005.199951171875</AltitudeMeters>
            <DistanceMeters>NAN</DistanceMeters>
          </Trackpoint>
          <Trackpoint>
            <Time>2021-07-17T14:18:01.000Z</Time>
            <Position>
              <LatitudeDegrees>42.715659476816654205322265625</LatitudeDegrees>
              <LongitudeDegrees>-0.2081979252398014068603515625</LongitudeDegrees>
            </Position>
            <AltitudeMeters>2005.800048828125</AltitudeMeters>
            <DistanceMeters>NAN</DistanceMeters>
          </Trackpoint>
          <Trackpoint>
            <Time>2021-07-17T14:18:06.000Z</Time>
            <Position>
              <LatitudeDegrees>42.7156465686857700347900390625</LatitudeDegrees>
              <LongitudeDegrees>-0.20819448865950107574462890625</LongitudeDegrees>
            </Position>
            <AltitudeMeters>2006.199951171875</AltitudeMeters>
            <DistanceMeters>NAN</DistanceMeters>
          </Trackpoint>
          <Trackpoint>
            <Time>2021-07-17T14:18:29.000Z</Time>
            <Position>
              <LatitudeDegrees>42.71564279682934284210205078125</LatitudeDegrees>
              <LongitudeDegrees>-0.2081556804478168487548828125</LongitudeDegrees>
            </Position>
            <AltitudeMeters>2008.5999755859375</AltitudeMeters>
            <DistanceMeters>NAN</DistanceMeters>
          </Trackpoint>
          <Trackpoint>
            <Time>2021-07-17T14:18:34.000Z</Time>
            <Position>
              <LatitudeDegrees>42.71564313210546970367431640625</LatitudeDegrees>
              <LongitudeDegrees>-0.2081556804478168487548828125</LongitudeDegrees>
            </Position>
            <AltitudeMeters>2008.5999755859375</AltitudeMeters>
            <DistanceMeters>NAN</DistanceMeters>
          </Trackpoint>
          <Trackpoint>
            <Time>2021-07-17T14:18:41.000Z</Time>
            <Position>
              <LatitudeDegrees>42.71564346738159656524658203125</LatitudeDegrees>
              <LongitudeDegrees>-0.2081697620451450347900390625</LongitudeDegrees>
            </Position>
            <AltitudeMeters>2007.800048828125</AltitudeMeters>
            <DistanceMeters>NAN</DistanceMeters>
          </Trackpoint>
          <Trackpoint>
            <Time>2021-07-17T14:18:48.000Z</Time>
            <Position>
              <LatitudeDegrees>42.71564816124737262725830078125</LatitudeDegrees>
              <LongitudeDegrees>-0.20817470736801624298095703125</LongitudeDegrees>
            </Position>
            <AltitudeMeters>2007.4000244140625</AltitudeMeters>
            <DistanceMeters>NAN</DistanceMeters>
          </Trackpoint>
          <Trackpoint>
            <Time>2021-07-17T14:18:50.000Z</Time>
            <Position>
              <LatitudeDegrees>42.7156559564173221588134765625</LatitudeDegrees>
              <LongitudeDegrees>-0.20817470736801624298095703125</LongitudeDegrees>
            </Position>
            <AltitudeMeters>2007.4000244140625</AltitudeMeters>
            <DistanceMeters>NAN</DistanceMeters>
          </Trackpoint>
          <Trackpoint>
            <Time>2021-07-17T14:18:52.000Z</Time>
            <Position>
              <LatitudeDegrees>42.71565704606473445892333984375</LatitudeDegrees>
              <LongitudeDegrees>-0.20817470736801624298095703125</LongitudeDegrees>
            </Position>
            <AltitudeMeters>2007.199951171875</AltitudeMeters>
            <DistanceMeters>NAN</DistanceMeters>
          </Trackpoint>
          <Trackpoint>
            <Time>2021-07-17T14:18:54.000Z</Time>
            <Position>
              <LatitudeDegrees>42.71565704606473445892333984375</LatitudeDegrees>
              <LongitudeDegrees>-0.20817470736801624298095703125</LongitudeDegrees>
            </Position>
            <AltitudeMeters>2007.199951171875</AltitudeMeters>
            <DistanceMeters>NAN</DistanceMeters>
          </Trackpoint>
          <Trackpoint>
            <Time>2021-07-17T14:18:56.000Z</Time>
            <Position>
              <LatitudeDegrees>42.71565704606473445892333984375</LatitudeDegrees>
              <LongitudeDegrees>-0.208173282444477081298828125</LongitudeDegrees>
            </Position>
            <AltitudeMeters>2007.4000244140625</AltitudeMeters>
            <DistanceMeters>NAN</DistanceMeters>
          </Trackpoint>
          <Trackpoint>
            <Time>2021-07-17T14:19:06.000Z</Time>
            <Position>
              <LatitudeDegrees>42.71564816124737262725830078125</LatitudeDegrees>
              <LongitudeDegrees>-0.20814319141209125518798828125</LongitudeDegrees>
            </Position>
            <AltitudeMeters>2009.4000244140625</AltitudeMeters>
            <DistanceMeters>NAN</DistanceMeters>
          </Trackpoint>
          <Trackpoint>
            <Time>2021-07-17T14:19:09.000Z</Time>
            <Position>
              <LatitudeDegrees>42.71563692949712276458740234375</LatitudeDegrees>
              <LongitudeDegrees>-0.20814218558371067047119140625</LongitudeDegrees>
            </Position>
            <AltitudeMeters>2009.5999755859375</AltitudeMeters>
            <DistanceMeters>NAN</DistanceMeters>
          </Trackpoint>
          <Trackpoint>
            <Time>2021-07-17T14:19:19.000Z</Time>
            <Position>
              <LatitudeDegrees>42.7155996300280094146728515625</LatitudeDegrees>
              <LongitudeDegrees>-0.20813497714698314666748046875</LongitudeDegrees>
            </Position>
            <AltitudeMeters>2010</AltitudeMeters>
            <DistanceMeters>NAN</DistanceMeters>
          </Trackpoint>
          <Trackpoint>
            <Time>2021-07-17T14:19:27.000Z</Time>
            <Position>
              <LatitudeDegrees>42.715589068830013275146484375</LatitudeDegrees>
              <LongitudeDegrees>-0.208101533353328704833984375</LongitudeDegrees>
            </Position>
            <AltitudeMeters>2012</AltitudeMeters>
            <DistanceMeters>NAN</DistanceMeters>
          </Trackpoint>
          <Trackpoint>
            <Time>2021-07-17T14:19:32.000Z</Time>
            <Position>
              <LatitudeDegrees>42.71557356230914592742919921875</LatitudeDegrees>
              <LongitudeDegrees>-0.20809457637369632720947265625</LongitudeDegrees>
            </Position>
            <AltitudeMeters>2012.4000244140625</AltitudeMeters>
            <DistanceMeters>NAN</DistanceMeters>
          </Trackpoint>
          <Trackpoint>
            <Time>2021-07-17T14:19:35.000Z</Time>
            <Position>
              <LatitudeDegrees>42.71555059589445590972900390625</LatitudeDegrees>
              <LongitudeDegrees>-0.208090804517269134521484375</LongitudeDegrees>
            </Position>
            <AltitudeMeters>2012.4000244140625</AltitudeMeters>
            <DistanceMeters>NAN</DistanceMeters>
          </Trackpoint>
          <Trackpoint>
            <Time>2021-07-17T14:19:42.000Z</Time>
            <Position>
              <LatitudeDegrees>42.71553332917392253875732421875</LatitudeDegrees>
              <LongitudeDegrees>-0.20808837376534938812255859375</LongitudeDegrees>
            </Position>
            <AltitudeMeters>2012.4000244140625</AltitudeMeters>
            <DistanceMeters>NAN</DistanceMeters>
          </Trackpoint>
          <Trackpoint>
            <Time>2021-07-17T14:19:48.000Z</Time>
            <Position>
              <LatitudeDegrees>42.7155080996453762054443359375</LatitudeDegrees>
              <LongitudeDegrees>-0.2080882899463176727294921875</LongitudeDegrees>
            </Position>
            <AltitudeMeters>2012.199951171875</AltitudeMeters>
            <DistanceMeters>NAN</DistanceMeters>
          </Trackpoint>
          <Trackpoint>
            <Time>2021-07-17T14:20:07.000Z</Time>
            <Position>
              <LatitudeDegrees>42.7154521085321903228759765625</LatitudeDegrees>
              <LongitudeDegrees>-0.2080500684678554534912109375</LongitudeDegrees>
            </Position>
            <AltitudeMeters>2013.800048828125</AltitudeMeters>
            <DistanceMeters>NAN</DistanceMeters>
          </Trackpoint>
          <Trackpoint>
            <Time>2021-07-17T14:20:20.000Z</Time>
            <Position>
              <LatitudeDegrees>42.7154286392033100128173828125</LatitudeDegrees>
              <LongitudeDegrees>-0.20800388418138027191162109375</LongitudeDegrees>
            </Position>
            <AltitudeMeters>2016.199951171875</AltitudeMeters>
            <DistanceMeters>NAN</DistanceMeters>
          </Trackpoint>
          <Trackpoint>
            <Time>2021-07-17T14:20:22.000Z</Time>
            <Position>
              <LatitudeDegrees>42.7154068462550640106201171875</LatitudeDegrees>
              <LongitudeDegrees>-0.20800489000976085662841796875</LongitudeDegrees>
            </Position>
            <AltitudeMeters>2016</AltitudeMeters>
            <DistanceMeters>NAN</DistanceMeters>
          </Trackpoint>
          <Trackpoint>
            <Time>2021-07-17T14:20:29.000Z</Time>
            <Position>
              <LatitudeDegrees>42.71535630337893962860107421875</LatitudeDegrees>
              <LongitudeDegrees>-0.20798988640308380126953125</LongitudeDegrees>
            </Position>
            <AltitudeMeters>2016.4000244140625</AltitudeMeters>
            <DistanceMeters>NAN</DistanceMeters>
          </Trackpoint>
          <Trackpoint>
            <Time>2021-07-17T14:20:34.000Z</Time>
            <Position>
              <LatitudeDegrees>42.715326882898807525634765625</LatitudeDegrees>
              <LongitudeDegrees>-0.20799114368855953216552734375</LongitudeDegrees>
            </Position>
            <AltitudeMeters>2015.5999755859375</AltitudeMeters>
            <DistanceMeters>NAN</DistanceMeters>
          </Trackpoint>
          <Trackpoint>
            <Time>2021-07-17T14:20:39.000Z</Time>
            <Position>
              <LatitudeDegrees>42.715302072465419769287109375</LatitudeDegrees>
              <LongitudeDegrees>-0.20797840319573879241943359375</LongitudeDegrees>
            </Position>
            <AltitudeMeters>2015.5999755859375</AltitudeMeters>
            <DistanceMeters>NAN</DistanceMeters>
          </Trackpoint>
          <Trackpoint>
            <Time>2021-07-17T14:20:44.000Z</Time>
            <Position>
              <LatitudeDegrees>42.71525873802602291107177734375</LatitudeDegrees>
              <LongitudeDegrees>-0.20800757221877574920654296875</LongitudeDegrees>
            </Position>
            <AltitudeMeters>2012.4000244140625</AltitudeMeters>
            <DistanceMeters>NAN</DistanceMeters>
          </Trackpoint>
          <Trackpoint>
            <Time>2021-07-17T14:20:49.000Z</Time>
            <Position>
              <LatitudeDegrees>42.71524432115256786346435546875</LatitudeDegrees>
              <LongitudeDegrees>-0.208017714321613311767578125</LongitudeDegrees>
            </Position>
            <AltitudeMeters>2011.4000244140625</AltitudeMeters>
            <DistanceMeters>NAN</DistanceMeters>
          </Trackpoint>
          <Trackpoint>
            <Time>2021-07-17T14:21:07.000Z</Time>
            <Position>
              <LatitudeDegrees>42.715248763561248779296875</LatitudeDegrees>
              <LongitudeDegrees>-0.2080185525119304656982421875</LongitudeDegrees>
            </Position>
            <AltitudeMeters>2011.4000244140625</AltitudeMeters>
            <DistanceMeters>NAN</DistanceMeters>
          </Trackpoint>
          <Trackpoint>
            <Time>2021-07-17T14:21:15.000Z</Time>
            <Position>
              <LatitudeDegrees>42.71524784155189990997314453125</LatitudeDegrees>
              <LongitudeDegrees>-0.20802207291126251220703125</LongitudeDegrees>
            </Position>
            <AltitudeMeters>2011.199951171875</AltitudeMeters>
            <DistanceMeters>NAN</DistanceMeters>
          </Trackpoint>
          <Trackpoint>
            <Time>2021-07-17T14:21:20.000Z</Time>
            <Position>
              <LatitudeDegrees>42.71524683572351932525634765625</LatitudeDegrees>
              <LongitudeDegrees>-0.20802953280508518218994140625</LongitudeDegrees>
            </Position>
            <AltitudeMeters>2010.5999755859375</AltitudeMeters>
            <DistanceMeters>NAN</DistanceMeters>
          </Trackpoint>
          <Trackpoint>
            <Time>2021-07-17T14:21:25.000Z</Time>
            <Position>
              <LatitudeDegrees>42.7152472548186779022216796875</LatitudeDegrees>
              <LongitudeDegrees>-0.20803640596568584442138671875</LongitudeDegrees>
            </Position>
            <AltitudeMeters>2010.199951171875</AltitudeMeters>
            <DistanceMeters>NAN</DistanceMeters>
          </Trackpoint>
          <Trackpoint>
            <Time>2021-07-17T14:21:29.000Z</Time>
            <Position>
              <LatitudeDegrees>42.71524784155189990997314453125</LatitudeDegrees>
              <LongitudeDegrees>-0.20804411731660366058349609375</LongitudeDegrees>
            </Position>
            <AltitudeMeters>2009.800048828125</AltitudeMeters>
            <DistanceMeters>NAN</DistanceMeters>
          </Trackpoint>
          <Trackpoint>
            <Time>2021-07-17T14:21:33.000Z</Time>
            <Position>
              <LatitudeDegrees>42.71524683572351932525634765625</LatitudeDegrees>
              <LongitudeDegrees>-0.2080500684678554534912109375</LongitudeDegrees>
            </Position>
            <AltitudeMeters>2009.4000244140625</AltitudeMeters>
            <DistanceMeters>NAN</DistanceMeters>
          </Trackpoint>
          <Trackpoint>
            <Time>2021-07-17T14:21:37.000Z</Time>
            <Position>
              <LatitudeDegrees>42.71524633280932903289794921875</LatitudeDegrees>
              <LongitudeDegrees>-0.20805015228688716888427734375</LongitudeDegrees>
            </Position>
            <AltitudeMeters>2009.4000244140625</AltitudeMeters>
            <DistanceMeters>NAN</DistanceMeters>
          </Trackpoint>
          <Trackpoint>
            <Time>2021-07-17T14:21:52.000Z</Time>
            <Position>
              <LatitudeDegrees>42.7152603305876255035400390625</LatitudeDegrees>
              <LongitudeDegrees>-0.20797437988221645355224609375</LongitudeDegrees>
            </Position>
            <AltitudeMeters>2014.5999755859375</AltitudeMeters>
            <DistanceMeters>NAN</DistanceMeters>
          </Trackpoint>
          <Trackpoint>
            <Time>2021-07-17T14:21:53.000Z</Time>
            <Position>
              <LatitudeDegrees>42.71526695229113101959228515625</LatitudeDegrees>
              <LongitudeDegrees>-0.20795778371393680572509765625</LongitudeDegrees>
            </Position>
            <AltitudeMeters>2015.800048828125</AltitudeMeters>
            <DistanceMeters>NAN</DistanceMeters>
          </Trackpoint>
          <Trackpoint>
            <Time>2021-07-17T14:22:00.000Z</Time>
            <Position>
              <LatitudeDegrees>42.71527382545173168182373046875</LatitudeDegrees>
              <LongitudeDegrees>-0.207866840064525604248046875</LongitudeDegrees>
            </Position>
            <AltitudeMeters>2021.5999755859375</AltitudeMeters>
            <DistanceMeters>NAN</DistanceMeters>
          </Trackpoint>
          <Trackpoint>
            <Time>2021-07-17T14:22:04.000Z</Time>
            <Position>
              <LatitudeDegrees>42.71524549461901187896728515625</LatitudeDegrees>
              <LongitudeDegrees>-0.20785133354365825653076171875</LongitudeDegrees>
            </Position>
            <AltitudeMeters>2021.5999755859375</AltitudeMeters>
            <DistanceMeters>NAN</DistanceMeters>
          </Trackpoint>
          <Trackpoint>
            <Time>2021-07-17T14:22:07.000Z</Time>
            <Position>
              <LatitudeDegrees>42.71522487513720989227294921875</LatitudeDegrees>
              <LongitudeDegrees>-0.2078475616872310638427734375</LongitudeDegrees>
            </Position>
            <AltitudeMeters>2021.199951171875</AltitudeMeters>
            <DistanceMeters>NAN</DistanceMeters>
          </Trackpoint>
          <Trackpoint>
            <Time>2021-07-17T14:22:09.000Z</Time>
            <Position>
              <LatitudeDegrees>42.71520861424505710601806640625</LatitudeDegrees>
              <LongitudeDegrees>-0.20784982480108737945556640625</LongitudeDegrees>
            </Position>
            <AltitudeMeters>2020.4000244140625</AltitudeMeters>
            <DistanceMeters>NAN</DistanceMeters>
          </Trackpoint>
          <Trackpoint>
            <Time>2021-07-17T14:22:12.000Z</Time>
            <Position>
              <LatitudeDegrees>42.71519620902836322784423828125</LatitudeDegrees>
              <LongitudeDegrees>-0.207840688526630401611328125</LongitudeDegrees>
            </Position>
            <AltitudeMeters>2020.5999755859375</AltitudeMeters>
            <DistanceMeters>NAN</DistanceMeters>
          </Trackpoint>
          <Trackpoint>
            <Time>2021-07-17T14:22:15.000Z</Time>
            <Position>
              <LatitudeDegrees>42.71519587375223636627197265625</LatitudeDegrees>
              <LongitudeDegrees>-0.20781478844583034515380859375</LongitudeDegrees>
            </Position>
            <AltitudeMeters>2021.800048828125</AltitudeMeters>
            <DistanceMeters>NAN</DistanceMeters>
          </Trackpoint>
          <Trackpoint>
            <Time>2021-07-17T14:22:19.000Z</Time>
            <Position>
              <LatitudeDegrees>42.7151862345635890960693359375</LatitudeDegrees>
              <LongitudeDegrees>-0.2077751420438289642333984375</LongitudeDegrees>
            </Position>
            <AltitudeMeters>2023.199951171875</AltitudeMeters>
            <DistanceMeters>NAN</DistanceMeters>
          </Trackpoint>
          <Trackpoint>
            <Time>2021-07-17T14:22:21.000Z</Time>
            <Position>
              <LatitudeDegrees>42.71518128924071788787841796875</LatitudeDegrees>
              <LongitudeDegrees>-0.2077627368271350860595703125</LongitudeDegrees>
            </Position>
            <AltitudeMeters>2023.5999755859375</AltitudeMeters>
            <DistanceMeters>NAN</DistanceMeters>
          </Trackpoint>
          <Trackpoint>
            <Time>2021-07-17T14:22:22.000Z</Time>
            <Position>
              <LatitudeDegrees>42.7151818759739398956298828125</LatitudeDegrees>
              <LongitudeDegrees>-0.20775326527655124664306640625</LongitudeDegrees>
            </Position>
            <AltitudeMeters>2024</AltitudeMeters>
            <DistanceMeters>NAN</DistanceMeters>
          </Trackpoint>
          <Trackpoint>
            <Time>2021-07-17T14:22:26.000Z</Time>
            <Position>
              <LatitudeDegrees>42.71516268141567707061767578125</LatitudeDegrees>
              <LongitudeDegrees>-0.20773197524249553680419921875</LongitudeDegrees>
            </Position>
            <AltitudeMeters>2024.199951171875</AltitudeMeters>
            <DistanceMeters>NAN</DistanceMeters>
          </Trackpoint>
          <Trackpoint>
            <Time>2021-07-17T14:22:28.000Z</Time>
            <Position>
              <LatitudeDegrees>42.71515631116926670074462890625</LatitudeDegrees>
              <LongitudeDegrees>-0.2077261917293071746826171875</LongitudeDegrees>
            </Position>
            <AltitudeMeters>2024.199951171875</AltitudeMeters>
            <DistanceMeters>NAN</DistanceMeters>
          </Trackpoint>
          <Trackpoint>
            <Time>2021-07-17T14:22:34.000Z</Time>
            <Position>
              <LatitudeDegrees>42.71513166837394237518310546875</LatitudeDegrees>
              <LongitudeDegrees>-0.20773281343281269073486328125</LongitudeDegrees>
            </Position>
            <AltitudeMeters>2022.5999755859375</AltitudeMeters>
            <DistanceMeters>NAN</DistanceMeters>
          </Trackpoint>
          <Trackpoint>
            <Time>2021-07-17T14:22:40.000Z</Time>
            <Position>
              <LatitudeDegrees>42.71510384045541286468505859375</LatitudeDegrees>
              <LongitudeDegrees>-0.2077184803783893585205078125</LongitudeDegrees>
            </Position>
            <AltitudeMeters>2022</AltitudeMeters>
            <DistanceMeters>NAN</DistanceMeters>
          </Trackpoint>
          <Trackpoint>
            <Time>2021-07-17T14:22:43.000Z</Time>
            <Position>
              <LatitudeDegrees>42.71508179605007171630859375</LatitudeDegrees>
              <LongitudeDegrees>-0.20771604962646961212158203125</LongitudeDegrees>
            </Position>
            <AltitudeMeters>2021.199951171875</AltitudeMeters>
            <DistanceMeters>NAN</DistanceMeters>
          </Trackpoint>
          <Trackpoint>
            <Time>2021-07-17T14:22:52.000Z</Time>
            <Position>
              <LatitudeDegrees>42.71503997035324573516845703125</LatitudeDegrees>
              <LongitudeDegrees>-0.20771286450326442718505859375</LongitudeDegrees>
            </Position>
            <AltitudeMeters>2019.800048828125</AltitudeMeters>
            <DistanceMeters>NAN</DistanceMeters>
          </Trackpoint>
          <Trackpoint>
            <Time>2021-07-17T14:23:00.000Z</Time>
            <Position>
              <LatitudeDegrees>42.71499873138964176177978515625</LatitudeDegrees>
              <LongitudeDegrees>-0.20775653421878814697265625</LongitudeDegrees>
            </Position>
            <AltitudeMeters>2016.800048828125</AltitudeMeters>
            <DistanceMeters>NAN</DistanceMeters>
          </Trackpoint>
          <Trackpoint>
            <Time>2021-07-17T14:23:12.000Z</Time>
            <Position>
              <LatitudeDegrees>42.7150028385221958160400390625</LatitudeDegrees>
              <LongitudeDegrees>-0.2077439613640308380126953125</LongitudeDegrees>
            </Position>
            <AltitudeMeters>2017.5999755859375</AltitudeMeters>
            <DistanceMeters>NAN</DistanceMeters>
          </Trackpoint>
          <Trackpoint>
            <Time>2021-07-17T14:23:23.000Z</Time>
            <Position>
              <LatitudeDegrees>42.7150028385221958160400390625</LatitudeDegrees>
              <LongitudeDegrees>-0.2077439613640308380126953125</LongitudeDegrees>
            </Position>
            <AltitudeMeters>2017.5999755859375</AltitudeMeters>
            <DistanceMeters>NAN</DistanceMeters>
          </Trackpoint>
          <Trackpoint>
            <Time>2021-07-17T14:23:26.000Z</Time>
            <Position>
              <LatitudeDegrees>42.7150028385221958160400390625</LatitudeDegrees>
              <LongitudeDegrees>-0.20774370990693569183349609375</LongitudeDegrees>
            </Position>
            <AltitudeMeters>2017.5999755859375</AltitudeMeters>
            <DistanceMeters>NAN</DistanceMeters>
          </Trackpoint>
          <Trackpoint>
            <Time>2021-07-17T14:23:29.000Z</Time>
            <Position>
              <LatitudeDegrees>42.71500241942703723907470703125</LatitudeDegrees>
              <LongitudeDegrees>-0.2077419497072696685791015625</LongitudeDegrees>
            </Position>
            <AltitudeMeters>2017.5999755859375</AltitudeMeters>
            <DistanceMeters>NAN</DistanceMeters>
          </Trackpoint>
          <Trackpoint>
            <Time>2021-07-17T14:24:05.000Z</Time>
            <Position>
              <LatitudeDegrees>42.7149562351405620574951171875</LatitudeDegrees>
              <LongitudeDegrees>-0.20756031386554241180419921875</LongitudeDegrees>
            </Position>
            <AltitudeMeters>2025.199951171875</AltitudeMeters>
            <DistanceMeters>NAN</DistanceMeters>
          </Trackpoint>
          <Trackpoint>
            <Time>2021-07-17T14:24:17.000Z</Time>
            <Position>
              <LatitudeDegrees>42.7149414829909801483154296875</LatitudeDegrees>
              <LongitudeDegrees>-0.2075572125613689422607421875</LongitudeDegrees>
            </Position>
            <AltitudeMeters>2025</AltitudeMeters>
            <DistanceMeters>NAN</DistanceMeters>
          </Trackpoint>
          <Trackpoint>
            <Time>2021-07-17T14:24:23.000Z</Time>
            <Position>
              <LatitudeDegrees>42.71493469364941120147705078125</LatitudeDegrees>
              <LongitudeDegrees>-0.20755880512297153472900390625</LongitudeDegrees>
            </Position>
            <AltitudeMeters>2024.800048828125</AltitudeMeters>
            <DistanceMeters>NAN</DistanceMeters>
          </Trackpoint>
          <Trackpoint>
            <Time>2021-07-17T14:24:34.000Z</Time>
            <Position>
              <LatitudeDegrees>42.714926563203334808349609375</LatitudeDegrees>
              <LongitudeDegrees>-0.2075614035129547119140625</LongitudeDegrees>
            </Position>
            <AltitudeMeters>2024.4000244140625</AltitudeMeters>
            <DistanceMeters>NAN</DistanceMeters>
          </Trackpoint>
          <Trackpoint>
            <Time>2021-07-17T14:24:36.000Z</Time>
            <Position>
              <LatitudeDegrees>42.7149255573749542236328125</LatitudeDegrees>
              <LongitudeDegrees>-0.20756400190293788909912109375</LongitudeDegrees>
            </Position>
            <AltitudeMeters>2024.4000244140625</AltitudeMeters>
            <DistanceMeters>NAN</DistanceMeters>
          </Trackpoint>
          <Trackpoint>
            <Time>2021-07-17T14:24:37.000Z</Time>
            <Position>
              <LatitudeDegrees>42.71492488682270050048828125</LatitudeDegrees>
              <LongitudeDegrees>-0.2075649239122867584228515625</LongitudeDegrees>
            </Position>
            <AltitudeMeters>2024.199951171875</AltitudeMeters>
            <DistanceMeters>NAN</DistanceMeters>
          </Trackpoint>
          <Trackpoint>
            <Time>2021-07-17T14:24:45.000Z</Time>
            <Position>
              <LatitudeDegrees>42.7149190194904804229736328125</LatitudeDegrees>
              <LongitudeDegrees>-0.2075679413974285125732421875</LongitudeDegrees>
            </Position>
            <AltitudeMeters>2024</AltitudeMeters>
            <DistanceMeters>NAN</DistanceMeters>
          </Trackpoint>
          <Trackpoint>
            <Time>2021-07-17T14:24:47.000Z</Time>
            <Position>
              <LatitudeDegrees>42.7149180136620998382568359375</LatitudeDegrees>
              <LongitudeDegrees>-0.20756752230226993560791015625</LongitudeDegrees>
            </Position>
            <AltitudeMeters>2024</AltitudeMeters>
            <DistanceMeters>NAN</DistanceMeters>
          </Trackpoint>
          <Trackpoint>
            <Time>2021-07-17T14:24:48.000Z</Time>
            <Position>
              <LatitudeDegrees>42.7149175107479095458984375</LatitudeDegrees>
              <LongitudeDegrees>-0.2075672708451747894287109375</LongitudeDegrees>
            </Position>
            <AltitudeMeters>2024</AltitudeMeters>
            <DistanceMeters>NAN</DistanceMeters>
          </Trackpoint>
          <Trackpoint>
            <Time>2021-07-17T14:24:49.000Z</Time>
            <Position>
              <LatitudeDegrees>42.71491692401468753814697265625</LatitudeDegrees>
              <LongitudeDegrees>-0.20756718702614307403564453125</LongitudeDegrees>
            </Position>
            <AltitudeMeters>2024</AltitudeMeters>
            <DistanceMeters>NAN</DistanceMeters>
          </Trackpoint>
          <Trackpoint>
            <Time>2021-07-17T14:24:51.000Z</Time>
            <Position>
              <LatitudeDegrees>42.71491642110049724578857421875</LatitudeDegrees>
              <LongitudeDegrees>-0.207567103207111358642578125</LongitudeDegrees>
            </Position>
            <AltitudeMeters>2024</AltitudeMeters>
            <DistanceMeters>NAN</DistanceMeters>
          </Trackpoint>
          <Trackpoint>
            <Time>2021-07-17T14:24:53.000Z</Time>
            <Position>
              <LatitudeDegrees>42.71491575054824352264404296875</LatitudeDegrees>
              <LongitudeDegrees>-0.207567103207111358642578125</LongitudeDegrees>
            </Position>
            <AltitudeMeters>2024</AltitudeMeters>
            <DistanceMeters>NAN</DistanceMeters>
          </Trackpoint>
          <Trackpoint>
            <Time>2021-07-17T14:25:02.000Z</Time>
            <Position>
              <LatitudeDegrees>42.7149139903485774993896484375</LatitudeDegrees>
              <LongitudeDegrees>-0.2075640857219696044921875</LongitudeDegrees>
            </Position>
            <AltitudeMeters>2024</AltitudeMeters>
            <DistanceMeters>NAN</DistanceMeters>
          </Trackpoint>
          <Trackpoint>
            <Time>2021-07-17T14:25:06.000Z</Time>
            <Position>
              <LatitudeDegrees>42.71491323597729206085205078125</LatitudeDegrees>
              <LongitudeDegrees>-0.2075622417032718658447265625</LongitudeDegrees>
            </Position>
            <AltitudeMeters>2024.199951171875</AltitudeMeters>
            <DistanceMeters>NAN</DistanceMeters>
          </Trackpoint>
          <Trackpoint>
            <Time>2021-07-17T14:25:10.000Z</Time>
            <Position>
              <LatitudeDegrees>42.71491223014891147613525390625</LatitudeDegrees>
              <LongitudeDegrees>-0.2075615711510181427001953125</LongitudeDegrees>
            </Position>
            <AltitudeMeters>2024.199951171875</AltitudeMeters>
            <DistanceMeters>NAN</DistanceMeters>
          </Trackpoint>
          <Trackpoint>
            <Time>2021-07-17T14:25:38.000Z</Time>
            <Position>
              <LatitudeDegrees>42.714910469949245452880859375</LatitudeDegrees>
              <LongitudeDegrees>-0.2075511775910854339599609375</LongitudeDegrees>
            </Position>
            <AltitudeMeters>2024.5999755859375</AltitudeMeters>
            <DistanceMeters>NAN</DistanceMeters>
          </Trackpoint>
          <Trackpoint>
            <Time>2021-07-17T14:25:44.000Z</Time>
            <Position>
              <LatitudeDegrees>42.71491273306310176849365234375</LatitudeDegrees>
              <LongitudeDegrees>-0.20755000412464141845703125</LongitudeDegrees>
            </Position>
            <AltitudeMeters>2024.800048828125</AltitudeMeters>
            <DistanceMeters>NAN</DistanceMeters>
          </Trackpoint>
          <Trackpoint>
            <Time>2021-07-17T14:26:08.000Z</Time>
            <Position>
              <LatitudeDegrees>42.71493134088814258575439453125</LatitudeDegrees>
              <LongitudeDegrees>-0.207545645534992218017578125</LongitudeDegrees>
            </Position>
            <AltitudeMeters>2025.199951171875</AltitudeMeters>
            <DistanceMeters>NAN</DistanceMeters>
          </Trackpoint>
          <Trackpoint>
            <Time>2021-07-17T14:26:16.000Z</Time>
            <Position>
              <LatitudeDegrees>42.7149287424981594085693359375</LatitudeDegrees>
              <LongitudeDegrees>-0.20753181539475917816162109375</LongitudeDegrees>
            </Position>
            <AltitudeMeters>2026</AltitudeMeters>
            <DistanceMeters>NAN</DistanceMeters>
          </Trackpoint>
          <Trackpoint>
            <Time>2021-07-17T14:26:19.000Z</Time>
            <Position>
              <LatitudeDegrees>42.7149230428040027618408203125</LatitudeDegrees>
              <LongitudeDegrees>-0.207531563937664031982421875</LongitudeDegrees>
            </Position>
            <AltitudeMeters>2025.800048828125</AltitudeMeters>
            <DistanceMeters>NAN</DistanceMeters>
          </Trackpoint>
          <Trackpoint>
            <Time>2021-07-17T14:26:28.000Z</Time>
            <Position>
              <LatitudeDegrees>42.7149149961769580841064453125</LatitudeDegrees>
              <LongitudeDegrees>-0.207531563937664031982421875</LongitudeDegrees>
            </Position>
            <AltitudeMeters>2025.800048828125</AltitudeMeters>
            <DistanceMeters>NAN</DistanceMeters>
          </Trackpoint>
          <Trackpoint>
            <Time>2021-07-17T14:26:42.000Z</Time>
            <Position>
              <LatitudeDegrees>42.71491575054824352264404296875</LatitudeDegrees>
              <LongitudeDegrees>-0.20754120312631130218505859375</LongitudeDegrees>
            </Position>
            <AltitudeMeters>2025.199951171875</AltitudeMeters>
            <DistanceMeters>NAN</DistanceMeters>
          </Trackpoint>
          <Trackpoint>
            <Time>2021-07-17T14:26:44.000Z</Time>
            <Position>
              <LatitudeDegrees>42.71491575054824352264404296875</LatitudeDegrees>
              <LongitudeDegrees>-0.2075541950762271881103515625</LongitudeDegrees>
            </Position>
            <AltitudeMeters>2024.5999755859375</AltitudeMeters>
            <DistanceMeters>NAN</DistanceMeters>
          </Trackpoint>
          <Trackpoint>
            <Time>2021-07-17T14:27:24.000Z</Time>
            <Position>
              <LatitudeDegrees>42.71491608582437038421630859375</LatitudeDegrees>
              <LongitudeDegrees>-0.2075843699276447296142578125</LongitudeDegrees>
            </Position>
            <AltitudeMeters>2023.199951171875</AltitudeMeters>
            <DistanceMeters>NAN</DistanceMeters>
          </Trackpoint>
          <Trackpoint>
            <Time>2021-07-17T14:27:34.000Z</Time>
            <Position>
              <LatitudeDegrees>42.71492346189916133880615234375</LatitudeDegrees>
              <LongitudeDegrees>-0.20758110098540782928466796875</LongitudeDegrees>
            </Position>
            <AltitudeMeters>2023.4000244140625</AltitudeMeters>
            <DistanceMeters>NAN</DistanceMeters>
          </Trackpoint>
          <Trackpoint>
            <Time>2021-07-17T14:28:19.000Z</Time>
            <Position>
              <LatitudeDegrees>42.714939974248409271240234375</LatitudeDegrees>
              <LongitudeDegrees>-0.20756400190293788909912109375</LongitudeDegrees>
            </Position>
            <AltitudeMeters>2024.5999755859375</AltitudeMeters>
            <DistanceMeters>NAN</DistanceMeters>
          </Trackpoint>
          <Trackpoint>
            <Time>2021-07-17T14:28:23.000Z</Time>
            <Position>
              <LatitudeDegrees>42.71493938751518726348876953125</LatitudeDegrees>
              <LongitudeDegrees>-0.207565762102603912353515625</LongitudeDegrees>
            </Position>
            <AltitudeMeters>2024.5999755859375</AltitudeMeters>
            <DistanceMeters>NAN</DistanceMeters>
          </Trackpoint>
          <Trackpoint>
            <Time>2021-07-17T14:29:08.000Z</Time>
            <Position>
              <LatitudeDegrees>42.71493586711585521697998046875</LatitudeDegrees>
              <LongitudeDegrees>-0.2075558714568614959716796875</LongitudeDegrees>
            </Position>
            <AltitudeMeters>2025</AltitudeMeters>
            <DistanceMeters>NAN</DistanceMeters>
          </Trackpoint>
          <Trackpoint>
            <Time>2021-07-17T14:29:29.000Z</Time>
            <Position>
              <LatitudeDegrees>42.71493335254490375518798828125</LatitudeDegrees>
              <LongitudeDegrees>-0.207553021609783172607421875</LongitudeDegrees>
            </Position>
            <AltitudeMeters>2025</AltitudeMeters>
            <DistanceMeters>NAN</DistanceMeters>
          </Trackpoint>
          <Trackpoint>
            <Time>2021-07-17T14:30:10.000Z</Time>
            <Position>
              <LatitudeDegrees>42.71493201144039630889892578125</LatitudeDegrees>
              <LongitudeDegrees>-0.20755360834300518035888671875</LongitudeDegrees>
            </Position>
            <AltitudeMeters>2025</AltitudeMeters>
            <DistanceMeters>NAN</DistanceMeters>
          </Trackpoint>
          <Trackpoint>
            <Time>2021-07-17T14:30:44.000Z</Time>
            <Position>
              <LatitudeDegrees>42.71493134088814258575439453125</LatitudeDegrees>
              <LongitudeDegrees>-0.2075538598001003265380859375</LongitudeDegrees>
            </Position>
            <AltitudeMeters>2025</AltitudeMeters>
            <DistanceMeters>NAN</DistanceMeters>
          </Trackpoint>
          <Trackpoint>
            <Time>2021-07-17T14:30:48.000Z</Time>
            <Position>
              <LatitudeDegrees>42.714931257069110870361328125</LatitudeDegrees>
              <LongitudeDegrees>-0.207553692162036895751953125</LongitudeDegrees>
            </Position>
            <AltitudeMeters>2025</AltitudeMeters>
            <DistanceMeters>NAN</DistanceMeters>
          </Trackpoint>
          <Trackpoint>
            <Time>2021-07-17T14:30:55.000Z</Time>
            <Position>
              <LatitudeDegrees>42.71493117325007915496826171875</LatitudeDegrees>
              <LongitudeDegrees>-0.20755344070494174957275390625</LongitudeDegrees>
            </Position>
            <AltitudeMeters>2025</AltitudeMeters>
            <DistanceMeters>NAN</DistanceMeters>
          </Trackpoint>
          <Trackpoint>
            <Time>2021-07-17T14:31:08.000Z</Time>
            <Position>
              <LatitudeDegrees>42.7149307541549205780029296875</LatitudeDegrees>
              <LongitudeDegrees>-0.20755293779075145721435546875</LongitudeDegrees>
            </Position>
            <AltitudeMeters>2025</AltitudeMeters>
            <DistanceMeters>NAN</DistanceMeters>
          </Trackpoint>
          <Trackpoint>
            <Time>2021-07-17T14:31:14.000Z</Time>
            <Position>
              <LatitudeDegrees>42.714930586516857147216796875</LatitudeDegrees>
              <LongitudeDegrees>-0.20755293779075145721435546875</LongitudeDegrees>
            </Position>
            <AltitudeMeters>2025</AltitudeMeters>
            <DistanceMeters>NAN</DistanceMeters>
          </Trackpoint>
          <Trackpoint>
            <Time>2021-07-17T14:31:36.000Z</Time>
            <Position>
              <LatitudeDegrees>42.71493033505976200103759765625</LatitudeDegrees>
              <LongitudeDegrees>-0.2075533568859100341796875</LongitudeDegrees>
            </Position>
            <AltitudeMeters>2025</AltitudeMeters>
            <DistanceMeters>NAN</DistanceMeters>
          </Trackpoint>
          <Trackpoint>
            <Time>2021-07-17T14:31:48.000Z</Time>
            <Position>
              <LatitudeDegrees>42.71493083797395229339599609375</LatitudeDegrees>
              <LongitudeDegrees>-0.2075541950762271881103515625</LongitudeDegrees>
            </Position>
            <AltitudeMeters>2024.800048828125</AltitudeMeters>
            <DistanceMeters>NAN</DistanceMeters>
          </Trackpoint>
          <Trackpoint>
            <Time>2021-07-17T14:32:20.000Z</Time>
            <Position>
              <LatitudeDegrees>42.71493167616426944732666015625</LatitudeDegrees>
              <LongitudeDegrees>-0.20755612291395664215087890625</LongitudeDegrees>
            </Position>
            <AltitudeMeters>2024.800048828125</AltitudeMeters>
            <DistanceMeters>NAN</DistanceMeters>
          </Trackpoint>
          <Trackpoint>
            <Time>2021-07-17T14:32:36.000Z</Time>
            <Position>
              <LatitudeDegrees>42.71493167616426944732666015625</LatitudeDegrees>
              <LongitudeDegrees>-0.20755662582814693450927734375</LongitudeDegrees>
            </Position>
            <AltitudeMeters>2024.800048828125</AltitudeMeters>
            <DistanceMeters>NAN</DistanceMeters>
          </Trackpoint>
          <Trackpoint>
            <Time>2021-07-17T14:32:46.000Z</Time>
            <Position>
              <LatitudeDegrees>42.7149314247071743011474609375</LatitudeDegrees>
              <LongitudeDegrees>-0.20755679346621036529541015625</LongitudeDegrees>
            </Position>
            <AltitudeMeters>2024.800048828125</AltitudeMeters>
            <DistanceMeters>NAN</DistanceMeters>
          </Trackpoint>
          <Trackpoint>
            <Time>2021-07-17T14:32:57.000Z</Time>
            <Position>
              <LatitudeDegrees>42.71493117325007915496826171875</LatitudeDegrees>
              <LongitudeDegrees>-0.207557044923305511474609375</LongitudeDegrees>
            </Position>
            <AltitudeMeters>2024.800048828125</AltitudeMeters>
            <DistanceMeters>NAN</DistanceMeters>
          </Trackpoint>
          <Trackpoint>
            <Time>2021-07-17T14:33:22.000Z</Time>
            <Position>
              <LatitudeDegrees>42.71493033505976200103759765625</LatitudeDegrees>
              <LongitudeDegrees>-0.20755763165652751922607421875</LongitudeDegrees>
            </Position>
            <AltitudeMeters>2024.800048828125</AltitudeMeters>
            <DistanceMeters>NAN</DistanceMeters>
          </Trackpoint>
          <Trackpoint>
            <Time>2021-07-17T14:33:40.000Z</Time>
            <Position>
              <LatitudeDegrees>42.71492983214557170867919921875</LatitudeDegrees>
              <LongitudeDegrees>-0.2075575478374958038330078125</LongitudeDegrees>
            </Position>
            <AltitudeMeters>2024.800048828125</AltitudeMeters>
            <DistanceMeters>NAN</DistanceMeters>
          </Trackpoint>
          <Trackpoint>
            <Time>2021-07-17T14:33:47.000Z</Time>
            <Position>
              <LatitudeDegrees>42.7149295806884765625</LatitudeDegrees>
              <LongitudeDegrees>-0.20755746401846408843994140625</LongitudeDegrees>
            </Position>
            <AltitudeMeters>2024.5999755859375</AltitudeMeters>
            <DistanceMeters>NAN</DistanceMeters>
          </Trackpoint>
          <Trackpoint>
            <Time>2021-07-17T14:34:00.000Z</Time>
            <Position>
              <LatitudeDegrees>42.71492916159331798553466796875</LatitudeDegrees>
              <LongitudeDegrees>-0.207557380199432373046875</LongitudeDegrees>
            </Position>
            <AltitudeMeters>2024.5999755859375</AltitudeMeters>
            <DistanceMeters>NAN</DistanceMeters>
          </Trackpoint>
          <Trackpoint>
            <Time>2021-07-17T14:34:31.000Z</Time>
            <Position>
              <LatitudeDegrees>42.71492849104106426239013671875</LatitudeDegrees>
              <LongitudeDegrees>-0.2075575478374958038330078125</LongitudeDegrees>
            </Position>
            <AltitudeMeters>2024.5999755859375</AltitudeMeters>
            <DistanceMeters>NAN</DistanceMeters>
          </Trackpoint>
          <Trackpoint>
            <Time>2021-07-17T14:35:19.000Z</Time>
            <Position>
              <LatitudeDegrees>42.71492891013622283935546875</LatitudeDegrees>
              <LongitudeDegrees>-0.207557715475559234619140625</LongitudeDegrees>
            </Position>
            <AltitudeMeters>2024.5999755859375</AltitudeMeters>
            <DistanceMeters>NAN</DistanceMeters>
          </Trackpoint>
          <Trackpoint>
            <Time>2021-07-17T14:35:29.000Z</Time>
            <Position>
              <LatitudeDegrees>42.71492916159331798553466796875</LatitudeDegrees>
              <LongitudeDegrees>-0.20755796693265438079833984375</LongitudeDegrees>
            </Position>
            <AltitudeMeters>2024.5999755859375</AltitudeMeters>
            <DistanceMeters>NAN</DistanceMeters>
          </Trackpoint>
          <Trackpoint>
            <Time>2021-07-17T14:35:36.000Z</Time>
            <Position>
              <LatitudeDegrees>42.71492932923138141632080078125</LatitudeDegrees>
              <LongitudeDegrees>-0.20755813457071781158447265625</LongitudeDegrees>
            </Position>
            <AltitudeMeters>2024.5999755859375</AltitudeMeters>
            <DistanceMeters>NAN</DistanceMeters>
          </Trackpoint>
          <Trackpoint>
            <Time>2021-07-17T14:35:41.000Z</Time>
            <Position>
              <LatitudeDegrees>42.7149294130504131317138671875</LatitudeDegrees>
              <LongitudeDegrees>-0.20755813457071781158447265625</LongitudeDegrees>
            </Position>
            <AltitudeMeters>2024.5999755859375</AltitudeMeters>
            <DistanceMeters>NAN</DistanceMeters>
          </Trackpoint>
          <Trackpoint>
            <Time>2021-07-17T14:35:51.000Z</Time>
            <Position>
              <LatitudeDegrees>42.7149295806884765625</LatitudeDegrees>
              <LongitudeDegrees>-0.20755813457071781158447265625</LongitudeDegrees>
            </Position>
            <AltitudeMeters>2024.5999755859375</AltitudeMeters>
            <DistanceMeters>NAN</DistanceMeters>
          </Trackpoint>
          <Trackpoint>
            <Time>2021-07-17T14:36:08.000Z</Time>
            <Position>
              <LatitudeDegrees>42.714929915964603424072265625</LatitudeDegrees>
              <LongitudeDegrees>-0.207558386027812957763671875</LongitudeDegrees>
            </Position>
            <AltitudeMeters>2024.5999755859375</AltitudeMeters>
            <DistanceMeters>NAN</DistanceMeters>
          </Trackpoint>
          <Trackpoint>
            <Time>2021-07-17T14:36:28.000Z</Time>
            <Position>
              <LatitudeDegrees>42.71492983214557170867919921875</LatitudeDegrees>
              <LongitudeDegrees>-0.20755863748490810394287109375</LongitudeDegrees>
            </Position>
            <AltitudeMeters>2024.5999755859375</AltitudeMeters>
            <DistanceMeters>NAN</DistanceMeters>
          </Trackpoint>
          <Trackpoint>
            <Time>2021-07-17T14:36:30.000Z</Time>
            <Position>
              <LatitudeDegrees>42.71492983214557170867919921875</LatitudeDegrees>
              <LongitudeDegrees>-0.2075587213039398193359375</LongitudeDegrees>
            </Position>
            <AltitudeMeters>2024.5999755859375</AltitudeMeters>
            <DistanceMeters>NAN</DistanceMeters>
          </Trackpoint>
          <Trackpoint>
            <Time>2021-07-17T14:36:32.000Z</Time>
            <Position>
              <LatitudeDegrees>42.71492983214557170867919921875</LatitudeDegrees>
              <LongitudeDegrees>-0.2075587213039398193359375</LongitudeDegrees>
            </Position>
            <AltitudeMeters>2024.5999755859375</AltitudeMeters>
            <DistanceMeters>NAN</DistanceMeters>
          </Trackpoint>
          <Trackpoint>
            <Time>2021-07-17T14:36:41.000Z</Time>
            <Position>
              <LatitudeDegrees>42.71492966450750827789306640625</LatitudeDegrees>
              <LongitudeDegrees>-0.20755880512297153472900390625</LongitudeDegrees>
            </Position>
            <AltitudeMeters>2024.5999755859375</AltitudeMeters>
            <DistanceMeters>NAN</DistanceMeters>
          </Trackpoint>
          <Trackpoint>
            <Time>2021-07-17T14:37:05.000Z</Time>
            <Position>
              <LatitudeDegrees>42.71492899395525455474853515625</LatitudeDegrees>
              <LongitudeDegrees>-0.2075587213039398193359375</LongitudeDegrees>
            </Position>
            <AltitudeMeters>2024.5999755859375</AltitudeMeters>
            <DistanceMeters>NAN</DistanceMeters>
          </Trackpoint>
          <Trackpoint>
            <Time>2021-07-17T14:37:13.000Z</Time>
            <Position>
              <LatitudeDegrees>42.7149287424981594085693359375</LatitudeDegrees>
              <LongitudeDegrees>-0.2075587213039398193359375</LongitudeDegrees>
            </Position>
            <AltitudeMeters>2024.5999755859375</AltitudeMeters>
            <DistanceMeters>NAN</DistanceMeters>
          </Trackpoint>
          <Trackpoint>
            <Time>2021-07-17T14:37:16.000Z</Time>
            <Position>
              <LatitudeDegrees>42.71492865867912769317626953125</LatitudeDegrees>
              <LongitudeDegrees>-0.2075587213039398193359375</LongitudeDegrees>
            </Position>
            <AltitudeMeters>2024.5999755859375</AltitudeMeters>
            <DistanceMeters>NAN</DistanceMeters>
          </Trackpoint>
          <Trackpoint>
            <Time>2021-07-17T14:37:20.000Z</Time>
            <Position>
              <LatitudeDegrees>42.714928574860095977783203125</LatitudeDegrees>
              <LongitudeDegrees>-0.20755863748490810394287109375</LongitudeDegrees>
            </Position>
            <AltitudeMeters>2024.5999755859375</AltitudeMeters>
            <DistanceMeters>NAN</DistanceMeters>
          </Trackpoint>
          <Trackpoint>
            <Time>2021-07-17T14:37:25.000Z</Time>
            <Position>
              <LatitudeDegrees>42.71492849104106426239013671875</LatitudeDegrees>
              <LongitudeDegrees>-0.20755863748490810394287109375</LongitudeDegrees>
            </Position>
            <AltitudeMeters>2024.5999755859375</AltitudeMeters>
            <DistanceMeters>NAN</DistanceMeters>
          </Trackpoint>
          <Trackpoint>
            <Time>2021-07-17T14:37:34.000Z</Time>
            <Position>
              <LatitudeDegrees>42.71492832340300083160400390625</LatitudeDegrees>
              <LongitudeDegrees>-0.20755863748490810394287109375</LongitudeDegrees>
            </Position>
            <AltitudeMeters>2024.5999755859375</AltitudeMeters>
            <DistanceMeters>NAN</DistanceMeters>
          </Trackpoint>
          <Trackpoint>
            <Time>2021-07-17T14:37:53.000Z</Time>
            <Position>
              <LatitudeDegrees>42.71492798812687397003173828125</LatitudeDegrees>
              <LongitudeDegrees>-0.2075585536658763885498046875</LongitudeDegrees>
            </Position>
            <AltitudeMeters>2024.5999755859375</AltitudeMeters>
            <DistanceMeters>NAN</DistanceMeters>
          </Trackpoint>
          <Trackpoint>
            <Time>2021-07-17T14:38:06.000Z</Time>
            <Position>
              <LatitudeDegrees>42.71492782048881053924560546875</LatitudeDegrees>
              <LongitudeDegrees>-0.207558386027812957763671875</LongitudeDegrees>
            </Position>
            <AltitudeMeters>2024.5999755859375</AltitudeMeters>
            <DistanceMeters>NAN</DistanceMeters>
          </Trackpoint>
          <Trackpoint>
            <Time>2021-07-17T14:38:13.000Z</Time>
            <Position>
              <LatitudeDegrees>42.7149277366697788238525390625</LatitudeDegrees>
              <LongitudeDegrees>-0.20755830220878124237060546875</LongitudeDegrees>
            </Position>
            <AltitudeMeters>2024.5999755859375</AltitudeMeters>
            <DistanceMeters>NAN</DistanceMeters>
          </Trackpoint>
          <Trackpoint>
            <Time>2021-07-17T14:38:25.000Z</Time>
            <Position>
              <LatitudeDegrees>42.71492756903171539306640625</LatitudeDegrees>
              <LongitudeDegrees>-0.2075582183897495269775390625</LongitudeDegrees>
            </Position>
            <AltitudeMeters>2024.5999755859375</AltitudeMeters>
            <DistanceMeters>NAN</DistanceMeters>
          </Trackpoint>
          <Trackpoint>
            <Time>2021-07-17T14:38:35.000Z</Time>
            <Position>
              <LatitudeDegrees>42.7149274013936519622802734375</LatitudeDegrees>
              <LongitudeDegrees>-0.20755846984684467315673828125</LongitudeDegrees>
            </Position>
            <AltitudeMeters>2024.5999755859375</AltitudeMeters>
            <DistanceMeters>NAN</DistanceMeters>
          </Trackpoint>
          <Trackpoint>
            <Time>2021-07-17T14:38:37.000Z</Time>
            <Position>
              <LatitudeDegrees>42.71492731757462024688720703125</LatitudeDegrees>
              <LongitudeDegrees>-0.2075585536658763885498046875</LongitudeDegrees>
            </Position>
            <AltitudeMeters>2024.5999755859375</AltitudeMeters>
            <DistanceMeters>NAN</DistanceMeters>
          </Trackpoint>
          <Trackpoint>
            <Time>2021-07-17T14:38:39.000Z</Time>
            <Position>
              <LatitudeDegrees>42.714927233755588531494140625</LatitudeDegrees>
              <LongitudeDegrees>-0.20755863748490810394287109375</LongitudeDegrees>
            </Position>
            <AltitudeMeters>2024.5999755859375</AltitudeMeters>
            <DistanceMeters>NAN</DistanceMeters>
          </Trackpoint>
          <Trackpoint>
            <Time>2021-07-17T14:38:41.000Z</Time>
            <Position>
              <LatitudeDegrees>42.714927233755588531494140625</LatitudeDegrees>
              <LongitudeDegrees>-0.20755880512297153472900390625</LongitudeDegrees>
            </Position>
            <AltitudeMeters>2024.5999755859375</AltitudeMeters>
            <DistanceMeters>NAN</DistanceMeters>
          </Trackpoint>
          <Trackpoint>
            <Time>2021-07-17T14:38:54.000Z</Time>
            <Position>
              <LatitudeDegrees>42.71492664702236652374267578125</LatitudeDegrees>
              <LongitudeDegrees>-0.20755981095135211944580078125</LongitudeDegrees>
            </Position>
            <AltitudeMeters>2024.5999755859375</AltitudeMeters>
            <DistanceMeters>NAN</DistanceMeters>
          </Trackpoint>
          <Trackpoint>
            <Time>2021-07-17T14:39:23.000Z</Time>
            <Position>
              <LatitudeDegrees>42.714925222098827362060546875</LatitudeDegrees>
              <LongitudeDegrees>-0.20756182260811328887939453125</LongitudeDegrees>
            </Position>
            <AltitudeMeters>2024.4000244140625</AltitudeMeters>
            <DistanceMeters>NAN</DistanceMeters>
          </Trackpoint>
          <Trackpoint>
            <Time>2021-07-17T14:39:34.000Z</Time>
            <Position>
              <LatitudeDegrees>42.71492480300366878509521484375</LatitudeDegrees>
              <LongitudeDegrees>-0.20756207406520843505859375</LongitudeDegrees>
            </Position>
            <AltitudeMeters>2024.4000244140625</AltitudeMeters>
            <DistanceMeters>NAN</DistanceMeters>
          </Trackpoint>
          <Trackpoint>
            <Time>2021-07-17T14:39:42.000Z</Time>
            <Position>
              <LatitudeDegrees>42.714924551546573638916015625</LatitudeDegrees>
              <LongitudeDegrees>-0.20756215788424015045166015625</LongitudeDegrees>
            </Position>
            <AltitudeMeters>2024.4000244140625</AltitudeMeters>
            <DistanceMeters>NAN</DistanceMeters>
          </Trackpoint>
          <Trackpoint>
            <Time>2021-07-17T14:39:46.000Z</Time>
            <Position>
              <LatitudeDegrees>42.71491415798664093017578125</LatitudeDegrees>
              <LongitudeDegrees>-0.2075260318815708160400390625</LongitudeDegrees>
            </Position>
            <AltitudeMeters>2026</AltitudeMeters>
            <DistanceMeters>NAN</DistanceMeters>
          </Trackpoint>
          <Trackpoint>
            <Time>2021-07-17T14:39:48.000Z</Time>
            <Position>
              <LatitudeDegrees>42.71490477025508880615234375</LatitudeDegrees>
              <LongitudeDegrees>-0.20747800357639789581298828125</LongitudeDegrees>
            </Position>
            <AltitudeMeters>2028.199951171875</AltitudeMeters>
            <DistanceMeters>NAN</DistanceMeters>
          </Trackpoint>
          <Trackpoint>
            <Time>2021-07-17T14:39:49.000Z</Time>
            <Position>
              <LatitudeDegrees>42.71489831618964672088623046875</LatitudeDegrees>
              <LongitudeDegrees>-0.207457803189754486083984375</LongitudeDegrees>
            </Position>
            <AltitudeMeters>2029.199951171875</AltitudeMeters>
            <DistanceMeters>NAN</DistanceMeters>
          </Trackpoint>
          <Trackpoint>
            <Time>2021-07-17T14:39:50.000Z</Time>
            <Position>
              <LatitudeDegrees>42.7148898504674434661865234375</LatitudeDegrees>
              <LongitudeDegrees>-0.20743944682180881500244140625</LongitudeDegrees>
            </Position>
            <AltitudeMeters>2030</AltitudeMeters>
            <DistanceMeters>NAN</DistanceMeters>
          </Trackpoint>
          <Trackpoint>
            <Time>2021-07-17T14:39:51.000Z</Time>
            <Position>
              <LatitudeDegrees>42.71487853489816188812255859375</LatitudeDegrees>
              <LongitudeDegrees>-0.20742259919643402099609375</LongitudeDegrees>
            </Position>
            <AltitudeMeters>2030.5999755859375</AltitudeMeters>
            <DistanceMeters>NAN</DistanceMeters>
          </Trackpoint>
          <Trackpoint>
            <Time>2021-07-17T14:39:53.000Z</Time>
            <Position>
              <LatitudeDegrees>42.71486260928213596343994140625</LatitudeDegrees>
              <LongitudeDegrees>-0.2073865570127964019775390625</LongitudeDegrees>
            </Position>
            <AltitudeMeters>2032</AltitudeMeters>
            <DistanceMeters>NAN</DistanceMeters>
          </Trackpoint>
          <Trackpoint>
            <Time>2021-07-17T14:39:56.000Z</Time>
            <Position>
              <LatitudeDegrees>42.71484844386577606201171875</LatitudeDegrees>
              <LongitudeDegrees>-0.2073691226541996002197265625</LongitudeDegrees>
            </Position>
            <AltitudeMeters>2032.5999755859375</AltitudeMeters>
            <DistanceMeters>NAN</DistanceMeters>
          </Trackpoint>
          <Trackpoint>
            <Time>2021-07-17T14:39:58.000Z</Time>
            <Position>
              <LatitudeDegrees>42.71484534256160259246826171875</LatitudeDegrees>
              <LongitudeDegrees>-0.2073600701987743377685546875</LongitudeDegrees>
            </Position>
            <AltitudeMeters>2033</AltitudeMeters>
            <DistanceMeters>NAN</DistanceMeters>
          </Trackpoint>
          <Trackpoint>
            <Time>2021-07-17T14:40:02.000Z</Time>
            <Position>
              <LatitudeDegrees>42.71483100950717926025390625</LatitudeDegrees>
              <LongitudeDegrees>-0.20734012126922607421875</LongitudeDegrees>
            </Position>
            <AltitudeMeters>2033.5999755859375</AltitudeMeters>
            <DistanceMeters>NAN</DistanceMeters>
          </Trackpoint>
          <Trackpoint>
            <Time>2021-07-17T14:40:06.000Z</Time>
            <Position>
              <LatitudeDegrees>42.71481013856828212738037109375</LatitudeDegrees>
              <LongitudeDegrees>-0.20733417011797428131103515625</LongitudeDegrees>
            </Position>
            <AltitudeMeters>2033.4000244140625</AltitudeMeters>
            <DistanceMeters>NAN</DistanceMeters>
          </Trackpoint>
          <Trackpoint>
            <Time>2021-07-17T14:40:11.000Z</Time>
            <Position>
              <LatitudeDegrees>42.71479052491486072540283203125</LatitudeDegrees>
              <LongitudeDegrees>-0.20735076628625392913818359375</LongitudeDegrees>
            </Position>
            <AltitudeMeters>2032.199951171875</AltitudeMeters>
            <DistanceMeters>NAN</DistanceMeters>
          </Trackpoint>
          <Trackpoint>
            <Time>2021-07-17T14:40:14.000Z</Time>
            <Position>
              <LatitudeDegrees>42.71478013135492801666259765625</LatitudeDegrees>
              <LongitudeDegrees>-0.20734540186822414398193359375</LongitudeDegrees>
            </Position>
            <AltitudeMeters>2032.199951171875</AltitudeMeters>
            <DistanceMeters>NAN</DistanceMeters>
          </Trackpoint>
          <Trackpoint>
            <Time>2021-07-17T14:40:24.000Z</Time>
            <Position>
              <LatitudeDegrees>42.71477334201335906982421875</LatitudeDegrees>
              <LongitudeDegrees>-0.207306258380413055419921875</LongitudeDegrees>
            </Position>
            <AltitudeMeters>2033.800048828125</AltitudeMeters>
            <DistanceMeters>NAN</DistanceMeters>
          </Trackpoint>
          <Trackpoint>
            <Time>2021-07-17T14:40:31.000Z</Time>
            <Position>
              <LatitudeDegrees>42.71475054323673248291015625</LatitudeDegrees>
              <LongitudeDegrees>-0.20729142241179943084716796875</LongitudeDegrees>
            </Position>
            <AltitudeMeters>2034</AltitudeMeters>
            <DistanceMeters>NAN</DistanceMeters>
          </Trackpoint>
          <Trackpoint>
            <Time>2021-07-17T14:40:39.000Z</Time>
            <Position>
              <LatitudeDegrees>42.71470360457897186279296875</LatitudeDegrees>
              <LongitudeDegrees>-0.2072775922715663909912109375</LongitudeDegrees>
            </Position>
            <AltitudeMeters>2033.5999755859375</AltitudeMeters>
            <DistanceMeters>NAN</DistanceMeters>
          </Trackpoint>
          <Trackpoint>
            <Time>2021-07-17T14:40:43.000Z</Time>
            <Position>
              <LatitudeDegrees>42.714686505496501922607421875</LatitudeDegrees>
              <LongitudeDegrees>-0.2072785980999469757080078125</LongitudeDegrees>
            </Position>
            <AltitudeMeters>2033.4000244140625</AltitudeMeters>
            <DistanceMeters>NAN</DistanceMeters>
          </Trackpoint>
          <Trackpoint>
            <Time>2021-07-17T14:40:46.000Z</Time>
            <Position>
              <LatitudeDegrees>42.7146900258958339691162109375</LatitudeDegrees>
              <LongitudeDegrees>-0.20727868191897869110107421875</LongitudeDegrees>
            </Position>
            <AltitudeMeters>2033.4000244140625</AltitudeMeters>
            <DistanceMeters>NAN</DistanceMeters>
          </Trackpoint>
          <Trackpoint>
            <Time>2021-07-17T14:40:48.000Z</Time>
            <Position>
              <LatitudeDegrees>42.71469748578965663909912109375</LatitudeDegrees>
              <LongitudeDegrees>-0.207276083528995513916015625</LongitudeDegrees>
            </Position>
            <AltitudeMeters>2033.5999755859375</AltitudeMeters>
            <DistanceMeters>NAN</DistanceMeters>
          </Trackpoint>
          <Trackpoint>
            <Time>2021-07-17T14:40:55.000Z</Time>
            <Position>
              <LatitudeDegrees>42.71467007696628570556640625</LatitudeDegrees>
              <LongitudeDegrees>-0.20725672133266925811767578125</LongitudeDegrees>
            </Position>
            <AltitudeMeters>2034</AltitudeMeters>
            <DistanceMeters>NAN</DistanceMeters>
          </Trackpoint>
          <Trackpoint>
            <Time>2021-07-17T14:41:02.000Z</Time>
            <Position>
              <LatitudeDegrees>42.7146675623953342437744140625</LatitudeDegrees>
              <LongitudeDegrees>-0.2072269655764102935791015625</LongitudeDegrees>
            </Position>
            <AltitudeMeters>2034.5999755859375</AltitudeMeters>
            <DistanceMeters>NAN</DistanceMeters>
          </Trackpoint>
          <Trackpoint>
            <Time>2021-07-17T14:41:03.000Z</Time>
            <Position>
              <LatitudeDegrees>42.71466203033924102783203125</LatitudeDegrees>
              <LongitudeDegrees>-0.207224451005458831787109375</LongitudeDegrees>
            </Position>
            <AltitudeMeters>2034.4000244140625</AltitudeMeters>
            <DistanceMeters>NAN</DistanceMeters>
          </Trackpoint>
          <Trackpoint>
            <Time>2021-07-17T14:41:13.000Z</Time>
            <Position>
              <LatitudeDegrees>42.71463864482939243316650390625</LatitudeDegrees>
              <LongitudeDegrees>-0.20721212960779666900634765625</LongitudeDegrees>
            </Position>
            <AltitudeMeters>2033.800048828125</AltitudeMeters>
            <DistanceMeters>NAN</DistanceMeters>
          </Trackpoint>
          <Trackpoint>
            <Time>2021-07-17T14:41:15.000Z</Time>
            <Position>
              <LatitudeDegrees>42.7146380580961704254150390625</LatitudeDegrees>
              <LongitudeDegrees>-0.207216739654541015625</LongitudeDegrees>
            </Position>
            <AltitudeMeters>2033.5999755859375</AltitudeMeters>
            <DistanceMeters>NAN</DistanceMeters>
          </Trackpoint>
          <Trackpoint>
            <Time>2021-07-17T14:41:19.000Z</Time>
            <Position>
              <LatitudeDegrees>42.7146380580961704254150390625</LatitudeDegrees>
              <LongitudeDegrees>-0.207216739654541015625</LongitudeDegrees>
            </Position>
            <AltitudeMeters>2033.5999755859375</AltitudeMeters>
            <DistanceMeters>NAN</DistanceMeters>
          </Trackpoint>
          <Trackpoint>
            <Time>2021-07-17T14:41:24.000Z</Time>
            <Position>
              <LatitudeDegrees>42.71463864482939243316650390625</LatitudeDegrees>
              <LongitudeDegrees>-0.207216739654541015625</LongitudeDegrees>
            </Position>
            <AltitudeMeters>2033.5999755859375</AltitudeMeters>
            <DistanceMeters>NAN</DistanceMeters>
          </Trackpoint>
          <Trackpoint>
            <Time>2021-07-17T14:41:30.000Z</Time>
            <Position>
              <LatitudeDegrees>42.7146393992006778717041015625</LatitudeDegrees>
              <LongitudeDegrees>-0.207216739654541015625</LongitudeDegrees>
            </Position>
            <AltitudeMeters>2033.800048828125</AltitudeMeters>
            <DistanceMeters>NAN</DistanceMeters>
          </Trackpoint>
          <Trackpoint>
            <Time>2021-07-17T14:41:34.000Z</Time>
            <Position>
              <LatitudeDegrees>42.7146393992006778717041015625</LatitudeDegrees>
              <LongitudeDegrees>-0.207214392721652984619140625</LongitudeDegrees>
            </Position>
            <AltitudeMeters>2033.800048828125</AltitudeMeters>
            <DistanceMeters>NAN</DistanceMeters>
          </Trackpoint>
          <Trackpoint>
            <Time>2021-07-17T14:41:36.000Z</Time>
            <Position>
              <LatitudeDegrees>42.71463923156261444091796875</LatitudeDegrees>
              <LongitudeDegrees>-0.2072102017700672149658203125</LongitudeDegrees>
            </Position>
            <AltitudeMeters>2033.800048828125</AltitudeMeters>
            <DistanceMeters>NAN</DistanceMeters>
          </Trackpoint>
          <Trackpoint>
            <Time>2021-07-17T14:41:40.000Z</Time>
            <Position>
              <LatitudeDegrees>42.714637555181980133056640625</LatitudeDegrees>
              <LongitudeDegrees>-0.20720592699944972991943359375</LongitudeDegrees>
            </Position>
            <AltitudeMeters>2033.800048828125</AltitudeMeters>
            <DistanceMeters>NAN</DistanceMeters>
          </Trackpoint>
          <Trackpoint>
            <Time>2021-07-17T14:41:42.000Z</Time>
            <Position>
              <LatitudeDegrees>42.71463730372488498687744140625</LatitudeDegrees>
              <LongitudeDegrees>-0.20719486288726329803466796875</LongitudeDegrees>
            </Position>
            <AltitudeMeters>2034.199951171875</AltitudeMeters>
            <DistanceMeters>NAN</DistanceMeters>
          </Trackpoint>
          <Trackpoint>
            <Time>2021-07-17T14:42:01.000Z</Time>
            <Position>
              <LatitudeDegrees>42.71460846997797489166259765625</LatitudeDegrees>
              <LongitudeDegrees>-0.20715328864753246307373046875</LongitudeDegrees>
            </Position>
            <AltitudeMeters>2033.800048828125</AltitudeMeters>
            <DistanceMeters>NAN</DistanceMeters>
          </Trackpoint>
          <Trackpoint>
            <Time>2021-07-17T14:42:12.000Z</Time>
            <Position>
              <LatitudeDegrees>42.71457376889884471893310546875</LatitudeDegrees>
              <LongitudeDegrees>-0.20715328864753246307373046875</LongitudeDegrees>
            </Position>
            <AltitudeMeters>2032.4000244140625</AltitudeMeters>
            <DistanceMeters>NAN</DistanceMeters>
          </Trackpoint>
          <Trackpoint>
            <Time>2021-07-17T14:42:20.000Z</Time>
            <Position>
              <LatitudeDegrees>42.71451861597597599029541015625</LatitudeDegrees>
              <LongitudeDegrees>-0.207170806825160980224609375</LongitudeDegrees>
            </Position>
            <AltitudeMeters>2030</AltitudeMeters>
            <DistanceMeters>NAN</DistanceMeters>
          </Trackpoint>
          <Trackpoint>
            <Time>2021-07-17T14:42:21.000Z</Time>
            <Position>
              <LatitudeDegrees>42.7145109884440898895263671875</LatitudeDegrees>
              <LongitudeDegrees>-0.20717759616672992706298828125</LongitudeDegrees>
            </Position>
            <AltitudeMeters>2029.4000244140625</AltitudeMeters>
            <DistanceMeters>NAN</DistanceMeters>
          </Trackpoint>
          <Trackpoint>
            <Time>2021-07-17T14:42:22.000Z</Time>
            <Position>
              <LatitudeDegrees>42.71450285799801349639892578125</LatitudeDegrees>
              <LongitudeDegrees>-0.20718245767056941986083984375</LongitudeDegrees>
            </Position>
            <AltitudeMeters>2029</AltitudeMeters>
            <DistanceMeters>NAN</DistanceMeters>
          </Trackpoint>
          <Trackpoint>
            <Time>2021-07-17T14:42:24.000Z</Time>
            <Position>
              <LatitudeDegrees>42.71448634564876556396484375</LatitudeDegrees>
              <LongitudeDegrees>-0.20718748681247234344482421875</LongitudeDegrees>
            </Position>
            <AltitudeMeters>2027.800048828125</AltitudeMeters>
            <DistanceMeters>NAN</DistanceMeters>
          </Trackpoint>
          <Trackpoint>
            <Time>2021-07-17T14:42:25.000Z</Time>
            <Position>
              <LatitudeDegrees>42.714481651782989501953125</LatitudeDegrees>
              <LongitudeDegrees>-0.20718446932733058929443359375</LongitudeDegrees>
            </Position>
            <AltitudeMeters>2027.5999755859375</AltitudeMeters>
            <DistanceMeters>NAN</DistanceMeters>
          </Trackpoint>
          <Trackpoint>
            <Time>2021-07-17T14:42:26.000Z</Time>
            <Position>
              <LatitudeDegrees>42.71447427570819854736328125</LatitudeDegrees>
              <LongitudeDegrees>-0.20718262530863285064697265625</LongitudeDegrees>
            </Position>
            <AltitudeMeters>2027.199951171875</AltitudeMeters>
            <DistanceMeters>NAN</DistanceMeters>
          </Trackpoint>
          <Trackpoint>
            <Time>2021-07-17T14:42:27.000Z</Time>
            <Position>
              <LatitudeDegrees>42.714469917118549346923828125</LatitudeDegrees>
              <LongitudeDegrees>-0.2071793563663959503173828125</LongitudeDegrees>
            </Position>
            <AltitudeMeters>2027</AltitudeMeters>
            <DistanceMeters>NAN</DistanceMeters>
          </Trackpoint>
          <Trackpoint>
            <Time>2021-07-17T14:42:29.000Z</Time>
            <Position>
              <LatitudeDegrees>42.71446312777698040008544921875</LatitudeDegrees>
              <LongitudeDegrees>-0.20716301165521144866943359375</LongitudeDegrees>
            </Position>
            <AltitudeMeters>2027.4000244140625</AltitudeMeters>
            <DistanceMeters>NAN</DistanceMeters>
          </Trackpoint>
          <Trackpoint>
            <Time>2021-07-17T14:42:30.000Z</Time>
            <Position>
              <LatitudeDegrees>42.71445876918733119964599609375</LatitudeDegrees>
              <LongitudeDegrees>-0.207155048847198486328125</LongitudeDegrees>
            </Position>
            <AltitudeMeters>2027.5999755859375</AltitudeMeters>
            <DistanceMeters>NAN</DistanceMeters>
          </Trackpoint>
          <Trackpoint>
            <Time>2021-07-17T14:42:32.000Z</Time>
            <Position>
              <LatitudeDegrees>42.7144476212561130523681640625</LatitudeDegrees>
              <LongitudeDegrees>-0.20715094171464443206787109375</LongitudeDegrees>
            </Position>
            <AltitudeMeters>2027.4000244140625</AltitudeMeters>
            <DistanceMeters>NAN</DistanceMeters>
          </Trackpoint>
          <Trackpoint>
            <Time>2021-07-17T14:42:34.000Z</Time>
            <Position>
              <LatitudeDegrees>42.7144435979425907135009765625</LatitudeDegrees>
              <LongitudeDegrees>-0.20713719539344310760498046875</LongitudeDegrees>
            </Position>
            <AltitudeMeters>2028</AltitudeMeters>
            <DistanceMeters>NAN</DistanceMeters>
          </Trackpoint>
          <Trackpoint>
            <Time>2021-07-17T14:42:36.000Z</Time>
            <Position>
              <LatitudeDegrees>42.7144425921142101287841796875</LatitudeDegrees>
              <LongitudeDegrees>-0.2071349322795867919921875</LongitudeDegrees>
            </Position>
            <AltitudeMeters>2028</AltitudeMeters>
            <DistanceMeters>NAN</DistanceMeters>
          </Trackpoint>
          <Trackpoint>
            <Time>2021-07-17T14:42:38.000Z</Time>
            <Position>
              <LatitudeDegrees>42.714443765580654144287109375</LatitudeDegrees>
              <LongitudeDegrees>-0.20713602192699909210205078125</LongitudeDegrees>
            </Position>
            <AltitudeMeters>2028</AltitudeMeters>
            <DistanceMeters>NAN</DistanceMeters>
          </Trackpoint>
          <Trackpoint>
            <Time>2021-07-17T14:42:39.000Z</Time>
            <Position>
              <LatitudeDegrees>42.71444770507514476776123046875</LatitudeDegrees>
              <LongitudeDegrees>-0.20713686011731624603271484375</LongitudeDegrees>
            </Position>
            <AltitudeMeters>2028</AltitudeMeters>
            <DistanceMeters>NAN</DistanceMeters>
          </Trackpoint>
          <Trackpoint>
            <Time>2021-07-17T14:42:44.000Z</Time>
            <Position>
              <LatitudeDegrees>42.7144469507038593292236328125</LatitudeDegrees>
              <LongitudeDegrees>-0.20713417790830135345458984375</LongitudeDegrees>
            </Position>
            <AltitudeMeters>2028.199951171875</AltitudeMeters>
            <DistanceMeters>NAN</DistanceMeters>
          </Trackpoint>
          <Trackpoint>
            <Time>2021-07-17T14:42:52.000Z</Time>
            <Position>
              <LatitudeDegrees>42.71446363069117069244384765625</LatitudeDegrees>
              <LongitudeDegrees>-0.20709813572466373443603515625</LongitudeDegrees>
            </Position>
            <AltitudeMeters>2029.800048828125</AltitudeMeters>
            <DistanceMeters>NAN</DistanceMeters>
          </Trackpoint>
          <Trackpoint>
            <Time>2021-07-17T14:42:56.000Z</Time>
            <Position>
              <LatitudeDegrees>42.71447016857564449310302734375</LatitudeDegrees>
              <LongitudeDegrees>-0.20709008909761905670166015625</LongitudeDegrees>
            </Position>
            <AltitudeMeters>2030.199951171875</AltitudeMeters>
            <DistanceMeters>NAN</DistanceMeters>
          </Trackpoint>
          <Trackpoint>
            <Time>2021-07-17T14:43:00.000Z</Time>
            <Position>
              <LatitudeDegrees>42.71448433399200439453125</LatitudeDegrees>
              <LongitudeDegrees>-0.20706117153167724609375</LongitudeDegrees>
            </Position>
            <AltitudeMeters>2031.5999755859375</AltitudeMeters>
            <DistanceMeters>NAN</DistanceMeters>
          </Trackpoint>
          <Trackpoint>
            <Time>2021-07-17T14:43:09.000Z</Time>
            <Position>
              <LatitudeDegrees>42.71451911889016628265380859375</LatitudeDegrees>
              <LongitudeDegrees>-0.20703074522316455841064453125</LongitudeDegrees>
            </Position>
            <AltitudeMeters>2033.800048828125</AltitudeMeters>
            <DistanceMeters>NAN</DistanceMeters>
          </Trackpoint>
          <Trackpoint>
            <Time>2021-07-17T14:43:15.000Z</Time>
            <Position>
              <LatitudeDegrees>42.7145344577729701995849609375</LatitudeDegrees>
              <LongitudeDegrees>-0.20701624453067779541015625</LongitudeDegrees>
            </Position>
            <AltitudeMeters>2035</AltitudeMeters>
            <DistanceMeters>NAN</DistanceMeters>
          </Trackpoint>
          <Trackpoint>
            <Time>2021-07-17T14:43:16.000Z</Time>
            <Position>
              <LatitudeDegrees>42.71453387103974819183349609375</LatitudeDegrees>
              <LongitudeDegrees>-0.2070154063403606414794921875</LongitudeDegrees>
            </Position>
            <AltitudeMeters>2035</AltitudeMeters>
            <DistanceMeters>NAN</DistanceMeters>
          </Trackpoint>
          <Trackpoint>
            <Time>2021-07-17T14:43:24.000Z</Time>
            <Position>
              <LatitudeDegrees>42.71456102840602397918701171875</LatitudeDegrees>
              <LongitudeDegrees>-0.2069999836385250091552734375</LongitudeDegrees>
            </Position>
            <AltitudeMeters>2036.800048828125</AltitudeMeters>
            <DistanceMeters>NAN</DistanceMeters>
          </Trackpoint>
          <Trackpoint>
            <Time>2021-07-17T14:43:26.000Z</Time>
            <Position>
              <LatitudeDegrees>42.7145646326243877410888671875</LatitudeDegrees>
              <LongitudeDegrees>-0.20699453540146350860595703125</LongitudeDegrees>
            </Position>
            <AltitudeMeters>2037</AltitudeMeters>
            <DistanceMeters>NAN</DistanceMeters>
          </Trackpoint>
          <Trackpoint>
            <Time>2021-07-17T14:43:33.000Z</Time>
            <Position>
              <LatitudeDegrees>42.71460411138832569122314453125</LatitudeDegrees>
              <LongitudeDegrees>-0.20698967389762401580810546875</LongitudeDegrees>
            </Position>
            <AltitudeMeters>2039</AltitudeMeters>
            <DistanceMeters>NAN</DistanceMeters>
          </Trackpoint>
          <Trackpoint>
            <Time>2021-07-17T14:43:40.000Z</Time>
            <Position>
              <LatitudeDegrees>42.7146209590137004852294921875</LatitudeDegrees>
              <LongitudeDegrees>-0.20698397420346736907958984375</LongitudeDegrees>
            </Position>
            <AltitudeMeters>2040</AltitudeMeters>
            <DistanceMeters>NAN</DistanceMeters>
          </Trackpoint>
          <Trackpoint>
            <Time>2021-07-17T14:43:46.000Z</Time>
            <Position>
              <LatitudeDegrees>42.71462925709784030914306640625</LatitudeDegrees>
              <LongitudeDegrees>-0.206967294216156005859375</LongitudeDegrees>
            </Position>
            <AltitudeMeters>2040.800048828125</AltitudeMeters>
            <DistanceMeters>NAN</DistanceMeters>
          </Trackpoint>
          <Trackpoint>
            <Time>2021-07-17T14:43:52.000Z</Time>
            <Position>
              <LatitudeDegrees>42.714666388928890228271484375</LatitudeDegrees>
              <LongitudeDegrees>-0.2069275639951229095458984375</LongitudeDegrees>
            </Position>
            <AltitudeMeters>2043.800048828125</AltitudeMeters>
            <DistanceMeters>NAN</DistanceMeters>
          </Trackpoint>
          <Trackpoint>
            <Time>2021-07-17T14:43:56.000Z</Time>
            <Position>
              <LatitudeDegrees>42.71468348801136016845703125</LatitudeDegrees>
              <LongitudeDegrees>-0.2069118060171604156494140625</LongitudeDegrees>
            </Position>
            <AltitudeMeters>2045</AltitudeMeters>
            <DistanceMeters>NAN</DistanceMeters>
          </Trackpoint>
          <Trackpoint>
            <Time>2021-07-17T14:43:59.000Z</Time>
            <Position>
              <LatitudeDegrees>42.71468885242938995361328125</LatitudeDegrees>
              <LongitudeDegrees>-0.20689864642918109893798828125</LongitudeDegrees>
            </Position>
            <AltitudeMeters>2045.5999755859375</AltitudeMeters>
            <DistanceMeters>NAN</DistanceMeters>
          </Trackpoint>
          <Trackpoint>
            <Time>2021-07-17T14:44:01.000Z</Time>
            <Position>
              <LatitudeDegrees>42.71468809805810451507568359375</LatitudeDegrees>
              <LongitudeDegrees>-0.206899233162403106689453125</LongitudeDegrees>
            </Position>
            <AltitudeMeters>2045.5999755859375</AltitudeMeters>
            <DistanceMeters>NAN</DistanceMeters>
          </Trackpoint>
          <Trackpoint>
            <Time>2021-07-17T14:44:02.000Z</Time>
            <Position>
              <LatitudeDegrees>42.7146920375525951385498046875</LatitudeDegrees>
              <LongitudeDegrees>-0.2068988978862762451171875</LongitudeDegrees>
            </Position>
            <AltitudeMeters>2045.800048828125</AltitudeMeters>
            <DistanceMeters>NAN</DistanceMeters>
          </Trackpoint>
          <Trackpoint>
            <Time>2021-07-17T14:44:04.000Z</Time>
            <Position>
              <LatitudeDegrees>42.71470452658832073211669921875</LatitudeDegrees>
              <LongitudeDegrees>-0.2068957127630710601806640625</LongitudeDegrees>
            </Position>
            <AltitudeMeters>2046.4000244140625</AltitudeMeters>
            <DistanceMeters>NAN</DistanceMeters>
          </Trackpoint>
          <Trackpoint>
            <Time>2021-07-17T14:44:09.000Z</Time>
            <Position>
              <LatitudeDegrees>42.714724056422710418701171875</LatitudeDegrees>
              <LongitudeDegrees>-0.20689562894403934478759765625</LongitudeDegrees>
            </Position>
            <AltitudeMeters>2047.4000244140625</AltitudeMeters>
            <DistanceMeters>NAN</DistanceMeters>
          </Trackpoint>
          <Trackpoint>
            <Time>2021-07-17T14:44:13.000Z</Time>
            <Position>
              <LatitudeDegrees>42.71475322544574737548828125</LatitudeDegrees>
              <LongitudeDegrees>-0.206867717206478118896484375</LongitudeDegrees>
            </Position>
            <AltitudeMeters>2049.60009765625</AltitudeMeters>
            <DistanceMeters>NAN</DistanceMeters>
          </Trackpoint>
          <Trackpoint>
            <Time>2021-07-17T14:44:15.000Z</Time>
            <Position>
              <LatitudeDegrees>42.7147644571959972381591796875</LatitudeDegrees>
              <LongitudeDegrees>-0.20685237832367420196533203125</LongitudeDegrees>
            </Position>
            <AltitudeMeters>2050.60009765625</AltitudeMeters>
            <DistanceMeters>NAN</DistanceMeters>
          </Trackpoint>
          <Trackpoint>
            <Time>2021-07-17T14:44:17.000Z</Time>
            <Position>
              <LatitudeDegrees>42.71478272974491119384765625</LatitudeDegrees>
              <LongitudeDegrees>-0.2068306691944599151611328125</LongitudeDegrees>
            </Position>
            <AltitudeMeters>2052.39990234375</AltitudeMeters>
            <DistanceMeters>NAN</DistanceMeters>
          </Trackpoint>
          <Trackpoint>
            <Time>2021-07-17T14:44:19.000Z</Time>
            <Position>
              <LatitudeDegrees>42.71479270420968532562255859375</LatitudeDegrees>
              <LongitudeDegrees>-0.20680661313235759735107421875</LongitudeDegrees>
            </Position>
            <AltitudeMeters>2054</AltitudeMeters>
            <DistanceMeters>NAN</DistanceMeters>
          </Trackpoint>
          <Trackpoint>
            <Time>2021-07-17T14:44:20.000Z</Time>
            <Position>
              <LatitudeDegrees>42.714793123304843902587890625</LatitudeDegrees>
              <LongitudeDegrees>-0.20679906941950321197509765625</LongitudeDegrees>
            </Position>
            <AltitudeMeters>2054.39990234375</AltitudeMeters>
            <DistanceMeters>NAN</DistanceMeters>
          </Trackpoint>
          <Trackpoint>
            <Time>2021-07-17T14:44:25.000Z</Time>
            <Position>
              <LatitudeDegrees>42.71481365896761417388916015625</LatitudeDegrees>
              <LongitudeDegrees>-0.20676705054938793182373046875</LongitudeDegrees>
            </Position>
            <AltitudeMeters>2056.800048828125</AltitudeMeters>
            <DistanceMeters>NAN</DistanceMeters>
          </Trackpoint>
          <Trackpoint>
            <Time>2021-07-17T14:44:27.000Z</Time>
            <Position>
              <LatitudeDegrees>42.7148187719285488128662109375</LatitudeDegrees>
              <LongitudeDegrees>-0.206748358905315399169921875</LongitudeDegrees>
            </Position>
            <AltitudeMeters>2058</AltitudeMeters>
            <DistanceMeters>NAN</DistanceMeters>
          </Trackpoint>
          <Trackpoint>
            <Time>2021-07-17T14:44:31.000Z</Time>
            <Position>
              <LatitudeDegrees>42.7148378826677799224853515625</LatitudeDegrees>
              <LongitudeDegrees>-0.20673997700214385986328125</LongitudeDegrees>
            </Position>
            <AltitudeMeters>2059.39990234375</AltitudeMeters>
            <DistanceMeters>NAN</DistanceMeters>
          </Trackpoint>
          <Trackpoint>
            <Time>2021-07-17T14:44:33.000Z</Time>
            <Position>
              <LatitudeDegrees>42.7148422412574291229248046875</LatitudeDegrees>
              <LongitudeDegrees>-0.20673930644989013671875</LongitudeDegrees>
            </Position>
            <AltitudeMeters>2059.60009765625</AltitudeMeters>
            <DistanceMeters>NAN</DistanceMeters>
          </Trackpoint>
          <Trackpoint>
            <Time>2021-07-17T14:44:34.000Z</Time>
            <Position>
              <LatitudeDegrees>42.714844085276126861572265625</LatitudeDegrees>
              <LongitudeDegrees>-0.2067334391176700592041015625</LongitudeDegrees>
            </Position>
            <AltitudeMeters>2060</AltitudeMeters>
            <DistanceMeters>NAN</DistanceMeters>
          </Trackpoint>
          <Trackpoint>
            <Time>2021-07-17T14:44:35.000Z</Time>
            <Position>
              <LatitudeDegrees>42.7148465998470783233642578125</LatitudeDegrees>
              <LongitudeDegrees>-0.2067317627370357513427734375</LongitudeDegrees>
            </Position>
            <AltitudeMeters>2060.199951171875</AltitudeMeters>
            <DistanceMeters>NAN</DistanceMeters>
          </Trackpoint>
          <Trackpoint>
            <Time>2021-07-17T14:44:43.000Z</Time>
            <Position>
              <LatitudeDegrees>42.71483905613422393798828125</LatitudeDegrees>
              <LongitudeDegrees>-0.20674626342952251434326171875</LongitudeDegrees>
            </Position>
            <AltitudeMeters>2059.199951171875</AltitudeMeters>
            <DistanceMeters>NAN</DistanceMeters>
          </Trackpoint>
          <Trackpoint>
            <Time>2021-07-17T14:45:14.000Z</Time>
            <Position>
              <LatitudeDegrees>42.71482606418430805206298828125</LatitudeDegrees>
              <LongitudeDegrees>-0.20672011189162731170654296875</LongitudeDegrees>
            </Position>
            <AltitudeMeters>2059.60009765625</AltitudeMeters>
            <DistanceMeters>NAN</DistanceMeters>
          </Trackpoint>
          <Trackpoint>
            <Time>2021-07-17T14:45:16.000Z</Time>
            <Position>
              <LatitudeDegrees>42.71482606418430805206298828125</LatitudeDegrees>
              <LongitudeDegrees>-0.206717513501644134521484375</LongitudeDegrees>
            </Position>
            <AltitudeMeters>2059.60009765625</AltitudeMeters>
            <DistanceMeters>NAN</DistanceMeters>
          </Trackpoint>
          <Trackpoint>
            <Time>2021-07-17T14:45:49.000Z</Time>
            <Position>
              <LatitudeDegrees>42.7148759365081787109375</LatitudeDegrees>
              <LongitudeDegrees>-0.206699073314666748046875</LongitudeDegrees>
            </Position>
            <AltitudeMeters>2063.199951171875</AltitudeMeters>
            <DistanceMeters>NAN</DistanceMeters>
          </Trackpoint>
          <Trackpoint>
            <Time>2021-07-17T14:46:00.000Z</Time>
            <Position>
              <LatitudeDegrees>42.7148787863552570343017578125</LatitudeDegrees>
              <LongitudeDegrees>-0.2066992409527301788330078125</LongitudeDegrees>
            </Position>
            <AltitudeMeters>2063.39990234375</AltitudeMeters>
            <DistanceMeters>NAN</DistanceMeters>
          </Trackpoint>
          <Trackpoint>
            <Time>2021-07-17T14:46:14.000Z</Time>
            <Position>
              <LatitudeDegrees>42.714903093874454498291015625</LatitudeDegrees>
              <LongitudeDegrees>-0.20669798366725444793701171875</LongitudeDegrees>
            </Position>
            <AltitudeMeters>2064.60009765625</AltitudeMeters>
            <DistanceMeters>NAN</DistanceMeters>
          </Trackpoint>
          <Trackpoint>
            <Time>2021-07-17T14:46:16.000Z</Time>
            <Position>
              <LatitudeDegrees>42.7149032615125179290771484375</LatitudeDegrees>
              <LongitudeDegrees>-0.20669798366725444793701171875</LongitudeDegrees>
            </Position>
            <AltitudeMeters>2064.60009765625</AltitudeMeters>
            <DistanceMeters>NAN</DistanceMeters>
          </Trackpoint>
          <Trackpoint>
            <Time>2021-07-17T14:46:19.000Z</Time>
            <Position>
              <LatitudeDegrees>42.71490334533154964447021484375</LatitudeDegrees>
              <LongitudeDegrees>-0.2066977322101593017578125</LongitudeDegrees>
            </Position>
            <AltitudeMeters>2064.60009765625</AltitudeMeters>
            <DistanceMeters>NAN</DistanceMeters>
          </Trackpoint>
          <Trackpoint>
            <Time>2021-07-17T14:46:32.000Z</Time>
            <Position>
              <LatitudeDegrees>42.714908458292484283447265625</LatitudeDegrees>
              <LongitudeDegrees>-0.20669572055339813232421875</LongitudeDegrees>
            </Position>
            <AltitudeMeters>2065</AltitudeMeters>
            <DistanceMeters>NAN</DistanceMeters>
          </Trackpoint>
          <Trackpoint>
            <Time>2021-07-17T14:46:40.000Z</Time>
            <Position>
              <LatitudeDegrees>42.71491105668246746063232421875</LatitudeDegrees>
              <LongitudeDegrees>-0.20668339915573596954345703125</LongitudeDegrees>
            </Position>
            <AltitudeMeters>2065.800048828125</AltitudeMeters>
            <DistanceMeters>NAN</DistanceMeters>
          </Trackpoint>
          <Trackpoint>
            <Time>2021-07-17T14:46:45.000Z</Time>
            <Position>
              <LatitudeDegrees>42.71491390652954578399658203125</LatitudeDegrees>
              <LongitudeDegrees>-0.20668289624154567718505859375</LongitudeDegrees>
            </Position>
            <AltitudeMeters>2066</AltitudeMeters>
            <DistanceMeters>NAN</DistanceMeters>
          </Trackpoint>
          <Trackpoint>
            <Time>2021-07-17T14:46:49.000Z</Time>
            <Position>
              <LatitudeDegrees>42.7149146609008312225341796875</LatitudeDegrees>
              <LongitudeDegrees>-0.20668289624154567718505859375</LongitudeDegrees>
            </Position>
            <AltitudeMeters>2066</AltitudeMeters>
            <DistanceMeters>NAN</DistanceMeters>
          </Trackpoint>
          <Trackpoint>
            <Time>2021-07-17T14:46:55.000Z</Time>
            <Position>
              <LatitudeDegrees>42.7149163372814655303955078125</LatitudeDegrees>
              <LongitudeDegrees>-0.20668289624154567718505859375</LongitudeDegrees>
            </Position>
            <AltitudeMeters>2066</AltitudeMeters>
            <DistanceMeters>NAN</DistanceMeters>
          </Trackpoint>
          <Trackpoint>
            <Time>2021-07-17T14:46:59.000Z</Time>
            <Position>
              <LatitudeDegrees>42.71491692401468753814697265625</LatitudeDegrees>
              <LongitudeDegrees>-0.2066821418702602386474609375</LongitudeDegrees>
            </Position>
            <AltitudeMeters>2066.199951171875</AltitudeMeters>
            <DistanceMeters>NAN</DistanceMeters>
          </Trackpoint>
          <Trackpoint>
            <Time>2021-07-17T14:47:01.000Z</Time>
            <Position>
              <LatitudeDegrees>42.71491709165275096893310546875</LatitudeDegrees>
              <LongitudeDegrees>-0.20668189041316509246826171875</LongitudeDegrees>
            </Position>
            <AltitudeMeters>2066.199951171875</AltitudeMeters>
            <DistanceMeters>NAN</DistanceMeters>
          </Trackpoint>
          <Trackpoint>
            <Time>2021-07-17T14:47:07.000Z</Time>
            <Position>
              <LatitudeDegrees>42.714920528233051300048828125</LatitudeDegrees>
              <LongitudeDegrees>-0.2066757716238498687744140625</LongitudeDegrees>
            </Position>
            <AltitudeMeters>2066.60009765625</AltitudeMeters>
            <DistanceMeters>NAN</DistanceMeters>
          </Trackpoint>
          <Trackpoint>
            <Time>2021-07-17T14:47:23.000Z</Time>
            <Position>
              <LatitudeDegrees>42.7149738371372222900390625</LatitudeDegrees>
              <LongitudeDegrees>-0.2066258154809474945068359375</LongitudeDegrees>
            </Position>
            <AltitudeMeters>2071.60009765625</AltitudeMeters>
            <DistanceMeters>NAN</DistanceMeters>
          </Trackpoint>
          <Trackpoint>
            <Time>2021-07-17T14:47:28.000Z</Time>
            <Position>
              <LatitudeDegrees>42.715034522116184234619140625</LatitudeDegrees>
              <LongitudeDegrees>-0.20656965672969818115234375</LongitudeDegrees>
            </Position>
            <AltitudeMeters>2077.199951171875</AltitudeMeters>
            <DistanceMeters>NAN</DistanceMeters>
          </Trackpoint>
          <Trackpoint>
            <Time>2021-07-17T14:47:30.000Z</Time>
            <Position>
              <LatitudeDegrees>42.71507064811885356903076171875</LatitudeDegrees>
              <LongitudeDegrees>-0.2065507136285305023193359375</LongitudeDegrees>
            </Position>
            <AltitudeMeters>2079.60009765625</AltitudeMeters>
            <DistanceMeters>NAN</DistanceMeters>
          </Trackpoint>
          <Trackpoint>
            <Time>2021-07-17T14:47:33.000Z</Time>
            <Position>
              <LatitudeDegrees>42.71512077189981937408447265625</LatitudeDegrees>
              <LongitudeDegrees>-0.20653420127928256988525390625</LongitudeDegrees>
            </Position>
            <AltitudeMeters>2081.60009765625</AltitudeMeters>
            <DistanceMeters>NAN</DistanceMeters>
          </Trackpoint>
          <Trackpoint>
            <Time>2021-07-17T14:47:35.000Z</Time>
            <Position>
              <LatitudeDegrees>42.71514910273253917694091796875</LatitudeDegrees>
              <LongitudeDegrees>-0.20652028732001781463623046875</LongitudeDegrees>
            </Position>
            <AltitudeMeters>2082.800048828125</AltitudeMeters>
            <DistanceMeters>NAN</DistanceMeters>
          </Trackpoint>
          <Trackpoint>
            <Time>2021-07-17T14:47:38.000Z</Time>
            <Position>
              <LatitudeDegrees>42.71517106331884860992431640625</LatitudeDegrees>
              <LongitudeDegrees>-0.20651408471167087554931640625</LongitudeDegrees>
            </Position>
            <AltitudeMeters>2083.60009765625</AltitudeMeters>
            <DistanceMeters>NAN</DistanceMeters>
          </Trackpoint>
          <Trackpoint>
            <Time>2021-07-17T14:47:39.000Z</Time>
            <Position>
              <LatitudeDegrees>42.71517508663237094879150390625</LatitudeDegrees>
              <LongitudeDegrees>-0.2065153419971466064453125</LongitudeDegrees>
            </Position>
            <AltitudeMeters>2083.60009765625</AltitudeMeters>
            <DistanceMeters>NAN</DistanceMeters>
          </Trackpoint>
          <Trackpoint>
            <Time>2021-07-17T14:47:43.000Z</Time>
            <Position>
              <LatitudeDegrees>42.71518883295357227325439453125</LatitudeDegrees>
              <LongitudeDegrees>-0.2065215446054935455322265625</LongitudeDegrees>
            </Position>
            <AltitudeMeters>2083.60009765625</AltitudeMeters>
            <DistanceMeters>NAN</DistanceMeters>
          </Trackpoint>
          <Trackpoint>
            <Time>2021-07-17T14:47:46.000Z</Time>
            <Position>
              <LatitudeDegrees>42.71520341746509075164794921875</LatitudeDegrees>
              <LongitudeDegrees>-0.20652808248996734619140625</LongitudeDegrees>
            </Position>
            <AltitudeMeters>2083.39990234375</AltitudeMeters>
            <DistanceMeters>NAN</DistanceMeters>
          </Trackpoint>
          <Trackpoint>
            <Time>2021-07-17T14:47:47.000Z</Time>
            <Position>
              <LatitudeDegrees>42.71520677022635936737060546875</LatitudeDegrees>
              <LongitudeDegrees>-0.20652364008128643035888671875</LongitudeDegrees>
            </Position>
            <AltitudeMeters>2083.800048828125</AltitudeMeters>
            <DistanceMeters>NAN</DistanceMeters>
          </Trackpoint>
          <Trackpoint>
            <Time>2021-07-17T14:47:50.000Z</Time>
            <Position>
              <LatitudeDegrees>42.71520249545574188232421875</LatitudeDegrees>
              <LongitudeDegrees>-0.2065242268145084381103515625</LongitudeDegrees>
            </Position>
            <AltitudeMeters>2083.60009765625</AltitudeMeters>
            <DistanceMeters>NAN</DistanceMeters>
          </Trackpoint>
          <Trackpoint>
            <Time>2021-07-17T14:47:52.000Z</Time>
            <Position>
              <LatitudeDegrees>42.71521179936826229095458984375</LatitudeDegrees>
              <LongitudeDegrees>-0.2065072953701019287109375</LongitudeDegrees>
            </Position>
            <AltitudeMeters>2084.60009765625</AltitudeMeters>
            <DistanceMeters>NAN</DistanceMeters>
          </Trackpoint>
          <Trackpoint>
            <Time>2021-07-17T14:47:55.000Z</Time>
            <Position>
              <LatitudeDegrees>42.71522906608879566192626953125</LatitudeDegrees>
              <LongitudeDegrees>-0.2064967341721057891845703125</LongitudeDegrees>
            </Position>
            <AltitudeMeters>2085.60009765625</AltitudeMeters>
            <DistanceMeters>NAN</DistanceMeters>
          </Trackpoint>
          <Trackpoint>
            <Time>2021-07-17T14:47:57.000Z</Time>
            <Position>
              <LatitudeDegrees>42.7152395434677600860595703125</LatitudeDegrees>
              <LongitudeDegrees>-0.20649044774472713470458984375</LongitudeDegrees>
            </Position>
            <AltitudeMeters>2086</AltitudeMeters>
            <DistanceMeters>NAN</DistanceMeters>
          </Trackpoint>
          <Trackpoint>
            <Time>2021-07-17T14:47:58.000Z</Time>
            <Position>
              <LatitudeDegrees>42.71524599753320217132568359375</LatitudeDegrees>
              <LongitudeDegrees>-0.20648575387895107269287109375</LongitudeDegrees>
            </Position>
            <AltitudeMeters>2086.39990234375</AltitudeMeters>
            <DistanceMeters>NAN</DistanceMeters>
          </Trackpoint>
          <Trackpoint>
            <Time>2021-07-17T14:48:03.000Z</Time>
            <Position>
              <LatitudeDegrees>42.71528027951717376708984375</LatitudeDegrees>
              <LongitudeDegrees>-0.2064575068652629852294921875</LongitudeDegrees>
            </Position>
            <AltitudeMeters>2088.39990234375</AltitudeMeters>
            <DistanceMeters>NAN</DistanceMeters>
          </Trackpoint>
          <Trackpoint>
            <Time>2021-07-17T14:48:06.000Z</Time>
            <Position>
              <LatitudeDegrees>42.71528899669647216796875</LatitudeDegrees>
              <LongitudeDegrees>-0.206439234316349029541015625</LongitudeDegrees>
            </Position>
            <AltitudeMeters>2089.39990234375</AltitudeMeters>
            <DistanceMeters>NAN</DistanceMeters>
          </Trackpoint>
          <Trackpoint>
            <Time>2021-07-17T14:48:14.000Z</Time>
            <Position>
              <LatitudeDegrees>42.71532453596591949462890625</LatitudeDegrees>
              <LongitudeDegrees>-0.20645323209464550018310546875</LongitudeDegrees>
            </Position>
            <AltitudeMeters>2089.39990234375</AltitudeMeters>
            <DistanceMeters>NAN</DistanceMeters>
          </Trackpoint>
          <Trackpoint>
            <Time>2021-07-17T14:48:23.000Z</Time>
            <Position>
              <LatitudeDegrees>42.71535714156925678253173828125</LatitudeDegrees>
              <LongitudeDegrees>-0.20641811192035675048828125</LongitudeDegrees>
            </Position>
            <AltitudeMeters>2092</AltitudeMeters>
            <DistanceMeters>NAN</DistanceMeters>
          </Trackpoint>
          <Trackpoint>
            <Time>2021-07-17T14:48:31.000Z</Time>
            <Position>
              <LatitudeDegrees>42.71538714878261089324951171875</LatitudeDegrees>
              <LongitudeDegrees>-0.20642205141484737396240234375</LongitudeDegrees>
            </Position>
            <AltitudeMeters>2092.60009765625</AltitudeMeters>
            <DistanceMeters>NAN</DistanceMeters>
          </Trackpoint>
          <Trackpoint>
            <Time>2021-07-17T14:48:39.000Z</Time>
            <Position>
              <LatitudeDegrees>42.7154145576059818267822265625</LatitudeDegrees>
              <LongitudeDegrees>-0.20637712441384792327880859375</LongitudeDegrees>
            </Position>
            <AltitudeMeters>2095.60009765625</AltitudeMeters>
            <DistanceMeters>NAN</DistanceMeters>
          </Trackpoint>
          <Trackpoint>
            <Time>2021-07-17T14:48:47.000Z</Time>
            <Position>
              <LatitudeDegrees>42.7154527790844440460205078125</LatitudeDegrees>
              <LongitudeDegrees>-0.20630369894206523895263671875</LongitudeDegrees>
            </Position>
            <AltitudeMeters>2100.39990234375</AltitudeMeters>
            <DistanceMeters>NAN</DistanceMeters>
          </Trackpoint>
          <Trackpoint>
            <Time>2021-07-17T14:48:54.000Z</Time>
            <Position>
              <LatitudeDegrees>42.71545956842601299285888671875</LatitudeDegrees>
              <LongitudeDegrees>-0.20629799924790859222412109375</LongitudeDegrees>
            </Position>
            <AltitudeMeters>2100.800048828125</AltitudeMeters>
            <DistanceMeters>NAN</DistanceMeters>
          </Trackpoint>
          <Trackpoint>
            <Time>2021-07-17T14:49:13.000Z</Time>
            <Position>
              <LatitudeDegrees>42.71544791758060455322265625</LatitudeDegrees>
              <LongitudeDegrees>-0.20631543360650539398193359375</LongitudeDegrees>
            </Position>
            <AltitudeMeters>2099.800048828125</AltitudeMeters>
            <DistanceMeters>NAN</DistanceMeters>
          </Trackpoint>
          <Trackpoint>
            <Time>2021-07-17T14:49:15.000Z</Time>
            <Position>
              <LatitudeDegrees>42.7154460735619068145751953125</LatitudeDegrees>
              <LongitudeDegrees>-0.2063153497874736785888671875</LongitudeDegrees>
            </Position>
            <AltitudeMeters>2099.800048828125</AltitudeMeters>
            <DistanceMeters>NAN</DistanceMeters>
          </Trackpoint>
          <Trackpoint>
            <Time>2021-07-17T14:49:19.000Z</Time>
            <Position>
              <LatitudeDegrees>42.7154447324573993682861328125</LatitudeDegrees>
              <LongitudeDegrees>-0.206315182149410247802734375</LongitudeDegrees>
            </Position>
            <AltitudeMeters>2099.60009765625</AltitudeMeters>
            <DistanceMeters>NAN</DistanceMeters>
          </Trackpoint>
          <Trackpoint>
            <Time>2021-07-17T14:49:26.000Z</Time>
            <Position>
              <LatitudeDegrees>42.7154447324573993682861328125</LatitudeDegrees>
              <LongitudeDegrees>-0.206315182149410247802734375</LongitudeDegrees>
            </Position>
            <AltitudeMeters>2099.60009765625</AltitudeMeters>
            <DistanceMeters>NAN</DistanceMeters>
          </Trackpoint>
          <Trackpoint>
            <Time>2021-07-17T14:49:30.000Z</Time>
            <Position>
              <LatitudeDegrees>42.7154450677335262298583984375</LatitudeDegrees>
              <LongitudeDegrees>-0.20631308667361736297607421875</LongitudeDegrees>
            </Position>
            <AltitudeMeters>2099.800048828125</AltitudeMeters>
            <DistanceMeters>NAN</DistanceMeters>
          </Trackpoint>
          <Trackpoint>
            <Time>2021-07-17T14:49:40.000Z</Time>
            <Position>
              <LatitudeDegrees>42.71547046490013599395751953125</LatitudeDegrees>
              <LongitudeDegrees>-0.20627704448997974395751953125</LongitudeDegrees>
            </Position>
            <AltitudeMeters>2102</AltitudeMeters>
            <DistanceMeters>NAN</DistanceMeters>
          </Trackpoint>
          <Trackpoint>
            <Time>2021-07-17T14:49:51.000Z</Time>
            <Position>
              <LatitudeDegrees>42.7154995501041412353515625</LatitudeDegrees>
              <LongitudeDegrees>-0.2062332071363925933837890625</LongitudeDegrees>
            </Position>
            <AltitudeMeters>2104.60009765625</AltitudeMeters>
            <DistanceMeters>NAN</DistanceMeters>
          </Trackpoint>
          <Trackpoint>
            <Time>2021-07-17T14:49:58.000Z</Time>
            <Position>
              <LatitudeDegrees>42.71553785540163516998291015625</LatitudeDegrees>
              <LongitudeDegrees>-0.20620680414140224456787109375</LongitudeDegrees>
            </Position>
            <AltitudeMeters>2106.800048828125</AltitudeMeters>
            <DistanceMeters>NAN</DistanceMeters>
          </Trackpoint>
          <Trackpoint>
            <Time>2021-07-17T14:50:14.000Z</Time>
            <Position>
              <LatitudeDegrees>42.71557264029979705810546875</LatitudeDegrees>
              <LongitudeDegrees>-0.2061252482235431671142578125</LongitudeDegrees>
            </Position>
            <AltitudeMeters>2111</AltitudeMeters>
            <DistanceMeters>NAN</DistanceMeters>
          </Trackpoint>
          <Trackpoint>
            <Time>2021-07-17T14:50:17.000Z</Time>
            <Position>
              <LatitudeDegrees>42.715576998889446258544921875</LatitudeDegrees>
              <LongitudeDegrees>-0.2061101607978343963623046875</LongitudeDegrees>
            </Position>
            <AltitudeMeters>2111.60009765625</AltitudeMeters>
            <DistanceMeters>NAN</DistanceMeters>
          </Trackpoint>
          <Trackpoint>
            <Time>2021-07-17T14:50:26.000Z</Time>
            <Position>
              <LatitudeDegrees>42.71558932028710842132568359375</LatitudeDegrees>
              <LongitudeDegrees>-0.20607051439583301544189453125</LongitudeDegrees>
            </Position>
            <AltitudeMeters>2113.60009765625</AltitudeMeters>
            <DistanceMeters>NAN</DistanceMeters>
          </Trackpoint>
          <Trackpoint>
            <Time>2021-07-17T14:50:51.000Z</Time>
            <Position>
              <LatitudeDegrees>42.71559351123869419097900390625</LatitudeDegrees>
              <LongitudeDegrees>-0.205967836081981658935546875</LongitudeDegrees>
            </Position>
            <AltitudeMeters>2117.800048828125</AltitudeMeters>
            <DistanceMeters>NAN</DistanceMeters>
          </Trackpoint>
          <Trackpoint>
            <Time>2021-07-17T14:51:44.000Z</Time>
            <Position>
              <LatitudeDegrees>42.71555914543569087982177734375</LatitudeDegrees>
              <LongitudeDegrees>-0.20583028905093669891357421875</LongitudeDegrees>
            </Position>
            <AltitudeMeters>2122</AltitudeMeters>
            <DistanceMeters>NAN</DistanceMeters>
          </Trackpoint>
          <Trackpoint>
            <Time>2021-07-17T14:51:55.000Z</Time>
            <Position>
              <LatitudeDegrees>42.7155711315572261810302734375</LatitudeDegrees>
              <LongitudeDegrees>-0.2058077417314052581787109375</LongitudeDegrees>
            </Position>
            <AltitudeMeters>2123</AltitudeMeters>
            <DistanceMeters>NAN</DistanceMeters>
          </Trackpoint>
          <Trackpoint>
            <Time>2021-07-17T14:52:03.000Z</Time>
            <Position>
              <LatitudeDegrees>42.71557205356657505035400390625</LatitudeDegrees>
              <LongitudeDegrees>-0.2058077417314052581787109375</LongitudeDegrees>
            </Position>
            <AltitudeMeters>2123</AltitudeMeters>
            <DistanceMeters>NAN</DistanceMeters>
          </Trackpoint>
          <Trackpoint>
            <Time>2021-07-17T14:52:22.000Z</Time>
            <Position>
              <LatitudeDegrees>42.7155677787959575653076171875</LatitudeDegrees>
              <LongitudeDegrees>-0.20580631680786609649658203125</LongitudeDegrees>
            </Position>
            <AltitudeMeters>2123</AltitudeMeters>
            <DistanceMeters>NAN</DistanceMeters>
          </Trackpoint>
          <Trackpoint>
            <Time>2021-07-17T14:52:25.000Z</Time>
            <Position>
              <LatitudeDegrees>42.7155654318630695343017578125</LatitudeDegrees>
              <LongitudeDegrees>-0.205803550779819488525390625</LongitudeDegrees>
            </Position>
            <AltitudeMeters>2123</AltitudeMeters>
            <DistanceMeters>NAN</DistanceMeters>
          </Trackpoint>
          <Trackpoint>
            <Time>2021-07-17T14:52:30.000Z</Time>
            <Position>
              <LatitudeDegrees>42.7155607379972934722900390625</LatitudeDegrees>
              <LongitudeDegrees>-0.20579759962856769561767578125</LongitudeDegrees>
            </Position>
            <AltitudeMeters>2123</AltitudeMeters>
            <DistanceMeters>NAN</DistanceMeters>
          </Trackpoint>
          <Trackpoint>
            <Time>2021-07-17T14:52:33.000Z</Time>
            <Position>
              <LatitudeDegrees>42.715560235083103179931640625</LatitudeDegrees>
              <LongitudeDegrees>-0.2057956717908382415771484375</LongitudeDegrees>
            </Position>
            <AltitudeMeters>2123</AltitudeMeters>
            <DistanceMeters>NAN</DistanceMeters>
          </Trackpoint>
          <Trackpoint>
            <Time>2021-07-17T14:52:58.000Z</Time>
            <Position>
              <LatitudeDegrees>42.715542130172252655029296875</LatitudeDegrees>
              <LongitudeDegrees>-0.20579659380018711090087890625</LongitudeDegrees>
            </Position>
            <AltitudeMeters>2122.39990234375</AltitudeMeters>
            <DistanceMeters>NAN</DistanceMeters>
          </Trackpoint>
          <Trackpoint>
            <Time>2021-07-17T14:53:00.000Z</Time>
            <Position>
              <LatitudeDegrees>42.7155406214296817779541015625</LatitudeDegrees>
              <LongitudeDegrees>-0.205796845257282257080078125</LongitudeDegrees>
            </Position>
            <AltitudeMeters>2122.39990234375</AltitudeMeters>
            <DistanceMeters>NAN</DistanceMeters>
          </Trackpoint>
          <Trackpoint>
            <Time>2021-07-17T14:53:02.000Z</Time>
            <Position>
              <LatitudeDegrees>42.71553852595388889312744140625</LatitudeDegrees>
              <LongitudeDegrees>-0.205796845257282257080078125</LongitudeDegrees>
            </Position>
            <AltitudeMeters>2122.199951171875</AltitudeMeters>
            <DistanceMeters>NAN</DistanceMeters>
          </Trackpoint>
          <Trackpoint>
            <Time>2021-07-17T14:53:05.000Z</Time>
            <Position>
              <LatitudeDegrees>42.7155329100787639617919921875</LatitudeDegrees>
              <LongitudeDegrees>-0.205796845257282257080078125</LongitudeDegrees>
            </Position>
            <AltitudeMeters>2122</AltitudeMeters>
            <DistanceMeters>NAN</DistanceMeters>
          </Trackpoint>
          <Trackpoint>
            <Time>2021-07-17T14:53:07.000Z</Time>
            <Position>
              <LatitudeDegrees>42.7155278809368610382080078125</LatitudeDegrees>
              <LongitudeDegrees>-0.2057965099811553955078125</LongitudeDegrees>
            </Position>
            <AltitudeMeters>2121.800048828125</AltitudeMeters>
            <DistanceMeters>NAN</DistanceMeters>
          </Trackpoint>
          <Trackpoint>
            <Time>2021-07-17T14:53:27.000Z</Time>
            <Position>
              <LatitudeDegrees>42.715505920350551605224609375</LatitudeDegrees>
              <LongitudeDegrees>-0.205754935741424560546875</LongitudeDegrees>
            </Position>
            <AltitudeMeters>2122</AltitudeMeters>
            <DistanceMeters>NAN</DistanceMeters>
          </Trackpoint>
          <Trackpoint>
            <Time>2021-07-17T14:53:42.000Z</Time>
            <Position>
              <LatitudeDegrees>42.7155050821602344512939453125</LatitudeDegrees>
              <LongitudeDegrees>-0.2057420276105403900146484375</LongitudeDegrees>
            </Position>
            <AltitudeMeters>2122.39990234375</AltitudeMeters>
            <DistanceMeters>NAN</DistanceMeters>
          </Trackpoint>
          <Trackpoint>
            <Time>2021-07-17T14:54:06.000Z</Time>
            <Position>
              <LatitudeDegrees>42.7155013941228389739990234375</LatitudeDegrees>
              <LongitudeDegrees>-0.20562526769936084747314453125</LongitudeDegrees>
            </Position>
            <AltitudeMeters>2126</AltitudeMeters>
            <DistanceMeters>NAN</DistanceMeters>
          </Trackpoint>
          <Trackpoint>
            <Time>2021-07-17T14:54:20.000Z</Time>
            <Position>
              <LatitudeDegrees>42.7155459858477115631103515625</LatitudeDegrees>
              <LongitudeDegrees>-0.2055552788078784942626953125</LongitudeDegrees>
            </Position>
            <AltitudeMeters>2129.800048828125</AltitudeMeters>
            <DistanceMeters>NAN</DistanceMeters>
          </Trackpoint>
          <Trackpoint>
            <Time>2021-07-17T14:54:29.000Z</Time>
            <Position>
              <LatitudeDegrees>42.71556367166340351104736328125</LatitudeDegrees>
              <LongitudeDegrees>-0.2055100165307521820068359375</LongitudeDegrees>
            </Position>
            <AltitudeMeters>2132</AltitudeMeters>
            <DistanceMeters>NAN</DistanceMeters>
          </Trackpoint>
          <Trackpoint>
            <Time>2021-07-17T14:54:33.000Z</Time>
            <Position>
              <LatitudeDegrees>42.715564928948879241943359375</LatitudeDegrees>
              <LongitudeDegrees>-0.20548428408801555633544921875</LongitudeDegrees>
            </Position>
            <AltitudeMeters>2132.60009765625</AltitudeMeters>
            <DistanceMeters>NAN</DistanceMeters>
          </Trackpoint>
          <Trackpoint>
            <Time>2021-07-17T14:54:37.000Z</Time>
            <Position>
              <LatitudeDegrees>42.71556518040597438812255859375</LatitudeDegrees>
              <LongitudeDegrees>-0.205460228025913238525390625</LongitudeDegrees>
            </Position>
            <AltitudeMeters>2133.39990234375</AltitudeMeters>
            <DistanceMeters>NAN</DistanceMeters>
          </Trackpoint>
          <Trackpoint>
            <Time>2021-07-17T14:54:40.000Z</Time>
            <Position>
              <LatitudeDegrees>42.71556325256824493408203125</LatitudeDegrees>
              <LongitudeDegrees>-0.2054436318576335906982421875</LongitudeDegrees>
            </Position>
            <AltitudeMeters>2134</AltitudeMeters>
            <DistanceMeters>NAN</DistanceMeters>
          </Trackpoint>
          <Trackpoint>
            <Time>2021-07-17T14:55:06.000Z</Time>
            <Position>
              <LatitudeDegrees>42.7155617438256740570068359375</LatitudeDegrees>
              <LongitudeDegrees>-0.20535218529403209686279296875</LongitudeDegrees>
            </Position>
            <AltitudeMeters>2136.800048828125</AltitudeMeters>
            <DistanceMeters>NAN</DistanceMeters>
          </Trackpoint>
          <Trackpoint>
            <Time>2021-07-17T14:55:20.000Z</Time>
            <Position>
              <LatitudeDegrees>42.7155627496540546417236328125</LatitudeDegrees>
              <LongitudeDegrees>-0.205348916351795196533203125</LongitudeDegrees>
            </Position>
            <AltitudeMeters>2137</AltitudeMeters>
            <DistanceMeters>NAN</DistanceMeters>
          </Trackpoint>
          <Trackpoint>
            <Time>2021-07-17T14:56:12.000Z</Time>
            <Position>
              <LatitudeDegrees>42.71557657979428768157958984375</LatitudeDegrees>
              <LongitudeDegrees>-0.2053380198776721954345703125</LongitudeDegrees>
            </Position>
            <AltitudeMeters>2137.800048828125</AltitudeMeters>
            <DistanceMeters>NAN</DistanceMeters>
          </Trackpoint>
          <Trackpoint>
            <Time>2021-07-17T14:56:19.000Z</Time>
            <Position>
              <LatitudeDegrees>42.7156666852533817291259765625</LatitudeDegrees>
              <LongitudeDegrees>-0.205120928585529327392578125</LongitudeDegrees>
            </Position>
            <AltitudeMeters>2148.60009765625</AltitudeMeters>
            <DistanceMeters>NAN</DistanceMeters>
          </Trackpoint>
          <Trackpoint>
            <Time>2021-07-17T14:56:26.000Z</Time>
            <Position>
              <LatitudeDegrees>42.71572175435721874237060546875</LatitudeDegrees>
              <LongitudeDegrees>-0.20493778400123119354248046875</LongitudeDegrees>
            </Position>
            <AltitudeMeters>2155.60009765625</AltitudeMeters>
            <DistanceMeters>NAN</DistanceMeters>
          </Trackpoint>
          <Trackpoint>
            <Time>2021-07-17T14:56:33.000Z</Time>
            <Position>
              <LatitudeDegrees>42.71570767275989055633544921875</LatitudeDegrees>
              <LongitudeDegrees>-0.204889588057994842529296875</LongitudeDegrees>
            </Position>
            <AltitudeMeters>2156</AltitudeMeters>
            <DistanceMeters>NAN</DistanceMeters>
          </Trackpoint>
          <Trackpoint>
            <Time>2021-07-17T14:56:41.000Z</Time>
            <Position>
              <LatitudeDegrees>42.715677581727504730224609375</LatitudeDegrees>
              <LongitudeDegrees>-0.20486234687268733978271484375</LongitudeDegrees>
            </Position>
            <AltitudeMeters>2155</AltitudeMeters>
            <DistanceMeters>NAN</DistanceMeters>
          </Trackpoint>
          <Trackpoint>
            <Time>2021-07-17T14:56:43.000Z</Time>
            <Position>
              <LatitudeDegrees>42.71566693671047687530517578125</LatitudeDegrees>
              <LongitudeDegrees>-0.20485698245465755462646484375</LongitudeDegrees>
            </Position>
            <AltitudeMeters>2154.39990234375</AltitudeMeters>
            <DistanceMeters>NAN</DistanceMeters>
          </Trackpoint>
          <Trackpoint>
            <Time>2021-07-17T14:56:49.000Z</Time>
            <Position>
              <LatitudeDegrees>42.715650089085102081298828125</LatitudeDegrees>
              <LongitudeDegrees>-0.20480803214013576507568359375</LongitudeDegrees>
            </Position>
            <AltitudeMeters>2154.199951171875</AltitudeMeters>
            <DistanceMeters>NAN</DistanceMeters>
          </Trackpoint>
          <Trackpoint>
            <Time>2021-07-17T14:56:57.000Z</Time>
            <Position>
              <LatitudeDegrees>42.71559803746640682220458984375</LatitudeDegrees>
              <LongitudeDegrees>-0.204748101532459259033203125</LongitudeDegrees>
            </Position>
            <AltitudeMeters>2152.39990234375</AltitudeMeters>
            <DistanceMeters>NAN</DistanceMeters>
          </Trackpoint>
          <Trackpoint>
            <Time>2021-07-17T14:57:08.000Z</Time>
            <Position>
              <LatitudeDegrees>42.7155409567058086395263671875</LatitudeDegrees>
              <LongitudeDegrees>-0.204676687717437744140625</LongitudeDegrees>
            </Position>
            <AltitudeMeters>2152.199951171875</AltitudeMeters>
            <DistanceMeters>NAN</DistanceMeters>
          </Trackpoint>
          <Trackpoint>
            <Time>2021-07-17T14:57:18.000Z</Time>
            <Position>
              <LatitudeDegrees>42.7155158109962940216064453125</LatitudeDegrees>
              <LongitudeDegrees>-0.20465497858822345733642578125</LongitudeDegrees>
            </Position>
            <AltitudeMeters>2152.39990234375</AltitudeMeters>
            <DistanceMeters>NAN</DistanceMeters>
          </Trackpoint>
          <Trackpoint>
            <Time>2021-07-17T14:57:25.000Z</Time>
            <Position>
              <LatitudeDegrees>42.71550835110247135162353515625</LatitudeDegrees>
              <LongitudeDegrees>-0.20458607934415340423583984375</LongitudeDegrees>
            </Position>
            <AltitudeMeters>2154.60009765625</AltitudeMeters>
            <DistanceMeters>NAN</DistanceMeters>
          </Trackpoint>
          <Trackpoint>
            <Time>2021-07-17T14:57:26.000Z</Time>
            <Position>
              <LatitudeDegrees>42.715505920350551605224609375</LatitudeDegrees>
              <LongitudeDegrees>-0.20457786507904529571533203125</LongitudeDegrees>
            </Position>
            <AltitudeMeters>2154.800048828125</AltitudeMeters>
            <DistanceMeters>NAN</DistanceMeters>
          </Trackpoint>
          <Trackpoint>
            <Time>2021-07-17T14:57:35.000Z</Time>
            <Position>
              <LatitudeDegrees>42.715487815439701080322265625</LatitudeDegrees>
              <LongitudeDegrees>-0.20450703799724578857421875</LongitudeDegrees>
            </Position>
            <AltitudeMeters>2157</AltitudeMeters>
            <DistanceMeters>NAN</DistanceMeters>
          </Trackpoint>
          <Trackpoint>
            <Time>2021-07-17T14:57:39.000Z</Time>
            <Position>
              <LatitudeDegrees>42.71547264419496059417724609375</LatitudeDegrees>
              <LongitudeDegrees>-0.20448289811611175537109375</LongitudeDegrees>
            </Position>
            <AltitudeMeters>2157.39990234375</AltitudeMeters>
            <DistanceMeters>NAN</DistanceMeters>
          </Trackpoint>
          <Trackpoint>
            <Time>2021-07-17T14:57:41.000Z</Time>
            <Position>
              <LatitudeDegrees>42.71546359173953533172607421875</LatitudeDegrees>
              <LongitudeDegrees>-0.20447426475584506988525390625</LongitudeDegrees>
            </Position>
            <AltitudeMeters>2157.39990234375</AltitudeMeters>
            <DistanceMeters>NAN</DistanceMeters>
          </Trackpoint>
          <Trackpoint>
            <Time>2021-07-17T14:57:43.000Z</Time>
            <Position>
              <LatitudeDegrees>42.71546132862567901611328125</LatitudeDegrees>
              <LongitudeDegrees>-0.20445884205400943756103515625</LongitudeDegrees>
            </Position>
            <AltitudeMeters>2157.800048828125</AltitudeMeters>
            <DistanceMeters>NAN</DistanceMeters>
          </Trackpoint>
          <Trackpoint>
            <Time>2021-07-17T14:57:47.000Z</Time>
            <Position>
              <LatitudeDegrees>42.7154380269348621368408203125</LatitudeDegrees>
              <LongitudeDegrees>-0.20443252287805080413818359375</LongitudeDegrees>
            </Position>
            <AltitudeMeters>2157.800048828125</AltitudeMeters>
            <DistanceMeters>NAN</DistanceMeters>
          </Trackpoint>
          <Trackpoint>
            <Time>2021-07-17T14:57:49.000Z</Time>
            <Position>
              <LatitudeDegrees>42.71542268805205821990966796875</LatitudeDegrees>
              <LongitudeDegrees>-0.204419530928134918212890625</LongitudeDegrees>
            </Position>
            <AltitudeMeters>2157.800048828125</AltitudeMeters>
            <DistanceMeters>NAN</DistanceMeters>
          </Trackpoint>
          <Trackpoint>
            <Time>2021-07-17T14:57:54.000Z</Time>
            <Position>
              <LatitudeDegrees>42.7154192514717578887939453125</LatitudeDegrees>
              <LongitudeDegrees>-0.2043717540800571441650390625</LongitudeDegrees>
            </Position>
            <AltitudeMeters>2159</AltitudeMeters>
            <DistanceMeters>NAN</DistanceMeters>
          </Trackpoint>
          <Trackpoint>
            <Time>2021-07-17T14:57:56.000Z</Time>
            <Position>
              <LatitudeDegrees>42.71541816182434558868408203125</LatitudeDegrees>
              <LongitudeDegrees>-0.20436647348105907440185546875</LongitudeDegrees>
            </Position>
            <AltitudeMeters>2159.199951171875</AltitudeMeters>
            <DistanceMeters>NAN</DistanceMeters>
          </Trackpoint>
          <Trackpoint>
            <Time>2021-07-17T14:58:03.000Z</Time>
            <Position>
              <LatitudeDegrees>42.71540977992117404937744140625</LatitudeDegrees>
              <LongitudeDegrees>-0.20438541658222675323486328125</LongitudeDegrees>
            </Position>
            <AltitudeMeters>2158.39990234375</AltitudeMeters>
            <DistanceMeters>NAN</DistanceMeters>
          </Trackpoint>
          <Trackpoint>
            <Time>2021-07-17T14:58:20.000Z</Time>
            <Position>
              <LatitudeDegrees>42.71540977992117404937744140625</LatitudeDegrees>
              <LongitudeDegrees>-0.20439061336219310760498046875</LongitudeDegrees>
            </Position>
            <AltitudeMeters>2158.199951171875</AltitudeMeters>
            <DistanceMeters>NAN</DistanceMeters>
          </Trackpoint>
          <Trackpoint>
            <Time>2021-07-17T14:58:36.000Z</Time>
            <Position>
              <LatitudeDegrees>42.715412043035030364990234375</LatitudeDegrees>
              <LongitudeDegrees>-0.2043489553034305572509765625</LongitudeDegrees>
            </Position>
            <AltitudeMeters>2159.39990234375</AltitudeMeters>
            <DistanceMeters>NAN</DistanceMeters>
          </Trackpoint>
          <Trackpoint>
            <Time>2021-07-17T14:59:46.000Z</Time>
            <Position>
              <LatitudeDegrees>42.7156175673007965087890625</LatitudeDegrees>
              <LongitudeDegrees>-0.20418458618223667144775390625</LongitudeDegrees>
            </Position>
            <AltitudeMeters>2169.60009765625</AltitudeMeters>
            <DistanceMeters>NAN</DistanceMeters>
          </Trackpoint>
          <Trackpoint>
            <Time>2021-07-17T14:59:49.000Z</Time>
            <Position>
              <LatitudeDegrees>42.71561597473919391632080078125</LatitudeDegrees>
              <LongitudeDegrees>-0.20418089814484119415283203125</LongitudeDegrees>
            </Position>
            <AltitudeMeters>2169.60009765625</AltitudeMeters>
            <DistanceMeters>NAN</DistanceMeters>
          </Trackpoint>
          <Trackpoint>
            <Time>2021-07-17T14:59:53.000Z</Time>
            <Position>
              <LatitudeDegrees>42.715612538158893585205078125</LatitudeDegrees>
              <LongitudeDegrees>-0.204178802669048309326171875</LongitudeDegrees>
            </Position>
            <AltitudeMeters>2169.60009765625</AltitudeMeters>
            <DistanceMeters>NAN</DistanceMeters>
          </Trackpoint>
          <Trackpoint>
            <Time>2021-07-17T15:00:13.000Z</Time>
            <Position>
              <LatitudeDegrees>42.7155982889235019683837890625</LatitudeDegrees>
              <LongitudeDegrees>-0.20408199168741703033447265625</LongitudeDegrees>
            </Position>
            <AltitudeMeters>2171.60009765625</AltitudeMeters>
            <DistanceMeters>NAN</DistanceMeters>
          </Trackpoint>
          <Trackpoint>
            <Time>2021-07-17T15:00:32.000Z</Time>
            <Position>
              <LatitudeDegrees>42.7155761606991291046142578125</LatitudeDegrees>
              <LongitudeDegrees>-0.20391267724335193634033203125</LongitudeDegrees>
            </Position>
            <AltitudeMeters>2173.39990234375</AltitudeMeters>
            <DistanceMeters>NAN</DistanceMeters>
          </Trackpoint>
          <Trackpoint>
            <Time>2021-07-17T15:00:36.000Z</Time>
            <Position>
              <LatitudeDegrees>42.7155728079378604888916015625</LatitudeDegrees>
              <LongitudeDegrees>-0.20382919348776340484619140625</LongitudeDegrees>
            </Position>
            <AltitudeMeters>2174.60009765625</AltitudeMeters>
            <DistanceMeters>NAN</DistanceMeters>
          </Trackpoint>
          <Trackpoint>
            <Time>2021-07-17T15:00:43.000Z</Time>
            <Position>
              <LatitudeDegrees>42.71554984152317047119140625</LatitudeDegrees>
              <LongitudeDegrees>-0.20376674830913543701171875</LongitudeDegrees>
            </Position>
            <AltitudeMeters>2175.60009765625</AltitudeMeters>
            <DistanceMeters>NAN</DistanceMeters>
          </Trackpoint>
          <Trackpoint>
            <Time>2021-07-17T15:00:48.000Z</Time>
            <Position>
              <LatitudeDegrees>42.71554053761065006256103515625</LatitudeDegrees>
              <LongitudeDegrees>-0.2037578634917736053466796875</LongitudeDegrees>
            </Position>
            <AltitudeMeters>2175.60009765625</AltitudeMeters>
            <DistanceMeters>NAN</DistanceMeters>
          </Trackpoint>
          <Trackpoint>
            <Time>2021-07-17T15:00:56.000Z</Time>
            <Position>
              <LatitudeDegrees>42.71554808132350444793701171875</LatitudeDegrees>
              <LongitudeDegrees>-0.203772448003292083740234375</LongitudeDegrees>
            </Position>
            <AltitudeMeters>2175.39990234375</AltitudeMeters>
            <DistanceMeters>NAN</DistanceMeters>
          </Trackpoint>
          <Trackpoint>
            <Time>2021-07-17T15:01:03.000Z</Time>
            <Position>
              <LatitudeDegrees>42.71554808132350444793701171875</LatitudeDegrees>
              <LongitudeDegrees>-0.20376943051815032958984375</LongitudeDegrees>
            </Position>
            <AltitudeMeters>2175.39990234375</AltitudeMeters>
            <DistanceMeters>NAN</DistanceMeters>
          </Trackpoint>
          <Trackpoint>
            <Time>2021-07-17T15:01:17.000Z</Time>
            <Position>
              <LatitudeDegrees>42.715554535388946533203125</LatitudeDegrees>
              <LongitudeDegrees>-0.20376046188175678253173828125</LongitudeDegrees>
            </Position>
            <AltitudeMeters>2175.800048828125</AltitudeMeters>
            <DistanceMeters>NAN</DistanceMeters>
          </Trackpoint>
          <Trackpoint>
            <Time>2021-07-17T15:01:48.000Z</Time>
            <Position>
              <LatitudeDegrees>42.715664841234683990478515625</LatitudeDegrees>
              <LongitudeDegrees>-0.203749649226665496826171875</LongitudeDegrees>
            </Position>
            <AltitudeMeters>2179.60009765625</AltitudeMeters>
            <DistanceMeters>NAN</DistanceMeters>
          </Trackpoint>
          <Trackpoint>
            <Time>2021-07-17T15:01:58.000Z</Time>
            <Position>
              <LatitudeDegrees>42.7156707085669040679931640625</LatitudeDegrees>
              <LongitudeDegrees>-0.20376331172883510589599609375</LongitudeDegrees>
            </Position>
            <AltitudeMeters>2179.60009765625</AltitudeMeters>
            <DistanceMeters>NAN</DistanceMeters>
          </Trackpoint>
          <Trackpoint>
            <Time>2021-07-17T15:02:10.000Z</Time>
            <Position>
              <LatitudeDegrees>42.7156831137835979461669921875</LatitudeDegrees>
              <LongitudeDegrees>-0.20376364700496196746826171875</LongitudeDegrees>
            </Position>
            <AltitudeMeters>2180.199951171875</AltitudeMeters>
            <DistanceMeters>NAN</DistanceMeters>
          </Trackpoint>
          <Trackpoint>
            <Time>2021-07-17T15:02:44.000Z</Time>
            <Position>
              <LatitudeDegrees>42.71568889729678630828857421875</LatitudeDegrees>
              <LongitudeDegrees>-0.20361076109111309051513671875</LongitudeDegrees>
            </Position>
            <AltitudeMeters>2184.199951171875</AltitudeMeters>
            <DistanceMeters>NAN</DistanceMeters>
          </Trackpoint>
          <Trackpoint>
            <Time>2021-07-17T15:03:11.000Z</Time>
            <Position>
              <LatitudeDegrees>42.71576366387307643890380859375</LatitudeDegrees>
              <LongitudeDegrees>-0.20363238640129566192626953125</LongitudeDegrees>
            </Position>
            <AltitudeMeters>2186.800048828125</AltitudeMeters>
            <DistanceMeters>NAN</DistanceMeters>
          </Trackpoint>
          <Trackpoint>
            <Time>2021-07-17T15:03:41.000Z</Time>
            <Position>
              <LatitudeDegrees>42.715888805687427520751953125</LatitudeDegrees>
              <LongitudeDegrees>-0.20368955098092555999755859375</LongitudeDegrees>
            </Position>
            <AltitudeMeters>2192.39990234375</AltitudeMeters>
            <DistanceMeters>NAN</DistanceMeters>
          </Trackpoint>
          <Trackpoint>
            <Time>2021-07-17T15:03:56.000Z</Time>
            <Position>
              <LatitudeDegrees>42.716010175645351409912109375</LatitudeDegrees>
              <LongitudeDegrees>-0.203779153525829315185546875</LongitudeDegrees>
            </Position>
            <AltitudeMeters>2197.39990234375</AltitudeMeters>
            <DistanceMeters>NAN</DistanceMeters>
          </Trackpoint>
          <Trackpoint>
            <Time>2021-07-17T15:04:03.000Z</Time>
            <Position>
              <LatitudeDegrees>42.71606775932013988494873046875</LatitudeDegrees>
              <LongitudeDegrees>-0.20382667891681194305419921875</LongitudeDegrees>
            </Position>
            <AltitudeMeters>2198.800048828125</AltitudeMeters>
            <DistanceMeters>NAN</DistanceMeters>
          </Trackpoint>
          <Trackpoint>
            <Time>2021-07-17T15:04:14.000Z</Time>
            <Position>
              <LatitudeDegrees>42.71610011346638202667236328125</LatitudeDegrees>
              <LongitudeDegrees>-0.20387177355587482452392578125</LongitudeDegrees>
            </Position>
            <AltitudeMeters>2199.199951171875</AltitudeMeters>
            <DistanceMeters>NAN</DistanceMeters>
          </Trackpoint>
          <Trackpoint>
            <Time>2021-07-17T15:04:20.000Z</Time>
            <Position>
              <LatitudeDegrees>42.71609642542898654937744140625</LatitudeDegrees>
              <LongitudeDegrees>-0.20389473997056484222412109375</LongitudeDegrees>
            </Position>
            <AltitudeMeters>2198.60009765625</AltitudeMeters>
            <DistanceMeters>NAN</DistanceMeters>
          </Trackpoint>
          <Trackpoint>
            <Time>2021-07-17T15:04:29.000Z</Time>
            <Position>
              <LatitudeDegrees>42.71611704491078853607177734375</LatitudeDegrees>
              <LongitudeDegrees>-0.20389189012348651885986328125</LongitudeDegrees>
            </Position>
            <AltitudeMeters>2199.60009765625</AltitudeMeters>
            <DistanceMeters>NAN</DistanceMeters>
          </Trackpoint>
          <Trackpoint>
            <Time>2021-07-17T15:04:39.000Z</Time>
            <Position>
              <LatitudeDegrees>42.7161384187638759613037109375</LatitudeDegrees>
              <LongitudeDegrees>-0.2039377391338348388671875</LongitudeDegrees>
            </Position>
            <AltitudeMeters>2199.199951171875</AltitudeMeters>
            <DistanceMeters>NAN</DistanceMeters>
          </Trackpoint>
          <Trackpoint>
            <Time>2021-07-17T15:04:43.000Z</Time>
            <Position>
              <LatitudeDegrees>42.71617236547172069549560546875</LatitudeDegrees>
              <LongitudeDegrees>-0.203964225947856903076171875</LongitudeDegrees>
            </Position>
            <AltitudeMeters>2200</AltitudeMeters>
            <DistanceMeters>NAN</DistanceMeters>
          </Trackpoint>
          <Trackpoint>
            <Time>2021-07-17T15:04:46.000Z</Time>
            <Position>
              <LatitudeDegrees>42.71617689169943332672119140625</LatitudeDegrees>
              <LongitudeDegrees>-0.20399599336087703704833984375</LongitudeDegrees>
            </Position>
            <AltitudeMeters>2199.39990234375</AltitudeMeters>
            <DistanceMeters>NAN</DistanceMeters>
          </Trackpoint>
          <Trackpoint>
            <Time>2021-07-17T15:04:54.000Z</Time>
            <Position>
              <LatitudeDegrees>42.71620237268507480621337890625</LatitudeDegrees>
              <LongitudeDegrees>-0.20404796116054058074951171875</LongitudeDegrees>
            </Position>
            <AltitudeMeters>2199.199951171875</AltitudeMeters>
            <DistanceMeters>NAN</DistanceMeters>
          </Trackpoint>
          <Trackpoint>
            <Time>2021-07-17T15:04:56.000Z</Time>
            <Position>
              <LatitudeDegrees>42.7162063121795654296875</LatitudeDegrees>
              <LongitudeDegrees>-0.20406045019626617431640625</LongitudeDegrees>
            </Position>
            <AltitudeMeters>2198.800048828125</AltitudeMeters>
            <DistanceMeters>NAN</DistanceMeters>
          </Trackpoint>
          <Trackpoint>
            <Time>2021-07-17T15:05:00.000Z</Time>
            <Position>
              <LatitudeDegrees>42.7162041328847408294677734375</LatitudeDegrees>
              <LongitudeDegrees>-0.20409339107573032379150390625</LongitudeDegrees>
            </Position>
            <AltitudeMeters>2197.60009765625</AltitudeMeters>
            <DistanceMeters>NAN</DistanceMeters>
          </Trackpoint>
          <Trackpoint>
            <Time>2021-07-17T15:05:02.000Z</Time>
            <Position>
              <LatitudeDegrees>42.71620438434183597564697265625</LatitudeDegrees>
              <LongitudeDegrees>-0.20410127006471157073974609375</LongitudeDegrees>
            </Position>
            <AltitudeMeters>2197.39990234375</AltitudeMeters>
            <DistanceMeters>NAN</DistanceMeters>
          </Trackpoint>
          <Trackpoint>
            <Time>2021-07-17T15:05:03.000Z</Time>
            <Position>
              <LatitudeDegrees>42.7162044681608676910400390625</LatitudeDegrees>
              <LongitudeDegrees>-0.20410344935953617095947265625</LongitudeDegrees>
            </Position>
            <AltitudeMeters>2197.39990234375</AltitudeMeters>
            <DistanceMeters>NAN</DistanceMeters>
          </Trackpoint>
          <Trackpoint>
            <Time>2021-07-17T15:05:05.000Z</Time>
            <Position>
              <LatitudeDegrees>42.71620589308440685272216796875</LatitudeDegrees>
              <LongitudeDegrees>-0.20412088371813297271728515625</LongitudeDegrees>
            </Position>
            <AltitudeMeters>2197</AltitudeMeters>
            <DistanceMeters>NAN</DistanceMeters>
          </Trackpoint>
          <Trackpoint>
            <Time>2021-07-17T15:05:07.000Z</Time>
            <Position>
              <LatitudeDegrees>42.71620639599859714508056640625</LatitudeDegrees>
              <LongitudeDegrees>-0.20413613878190517425537109375</LongitudeDegrees>
            </Position>
            <AltitudeMeters>2196.800048828125</AltitudeMeters>
            <DistanceMeters>NAN</DistanceMeters>
          </Trackpoint>
          <Trackpoint>
            <Time>2021-07-17T15:05:09.000Z</Time>
            <Position>
              <LatitudeDegrees>42.7162091620266437530517578125</LatitudeDegrees>
              <LongitudeDegrees>-0.20414820872247219085693359375</LongitudeDegrees>
            </Position>
            <AltitudeMeters>2196.60009765625</AltitudeMeters>
            <DistanceMeters>NAN</DistanceMeters>
          </Trackpoint>
          <Trackpoint>
            <Time>2021-07-17T15:05:10.000Z</Time>
            <Position>
              <LatitudeDegrees>42.71621025167405605316162109375</LatitudeDegrees>
              <LongitudeDegrees>-0.20415340550243854522705078125</LongitudeDegrees>
            </Position>
            <AltitudeMeters>2196.39990234375</AltitudeMeters>
            <DistanceMeters>NAN</DistanceMeters>
          </Trackpoint>
          <Trackpoint>
            <Time>2021-07-17T15:05:15.000Z</Time>
            <Position>
              <LatitudeDegrees>42.7162192203104496002197265625</LatitudeDegrees>
              <LongitudeDegrees>-0.20418676547706127166748046875</LongitudeDegrees>
            </Position>
            <AltitudeMeters>2196</AltitudeMeters>
            <DistanceMeters>NAN</DistanceMeters>
          </Trackpoint>
          <Trackpoint>
            <Time>2021-07-17T15:05:18.000Z</Time>
            <Position>
              <LatitudeDegrees>42.71623774431645870208740234375</LatitudeDegrees>
              <LongitudeDegrees>-0.204204954206943511962890625</LongitudeDegrees>
            </Position>
            <AltitudeMeters>2196</AltitudeMeters>
            <DistanceMeters>NAN</DistanceMeters>
          </Trackpoint>
          <Trackpoint>
            <Time>2021-07-17T15:05:20.000Z</Time>
            <Position>
              <LatitudeDegrees>42.71623791195452213287353515625</LatitudeDegrees>
              <LongitudeDegrees>-0.2042019367218017578125</LongitudeDegrees>
            </Position>
            <AltitudeMeters>2196.199951171875</AltitudeMeters>
            <DistanceMeters>NAN</DistanceMeters>
          </Trackpoint>
          <Trackpoint>
            <Time>2021-07-17T15:05:21.000Z</Time>
            <Position>
              <LatitudeDegrees>42.71623958833515644073486328125</LatitudeDegrees>
              <LongitudeDegrees>-0.20419590175151824951171875</LongitudeDegrees>
            </Position>
            <AltitudeMeters>2196.39990234375</AltitudeMeters>
            <DistanceMeters>NAN</DistanceMeters>
          </Trackpoint>
          <Trackpoint>
            <Time>2021-07-17T15:05:23.000Z</Time>
            <Position>
              <LatitudeDegrees>42.7162346430122852325439453125</LatitudeDegrees>
              <LongitudeDegrees>-0.20421107299625873565673828125</LongitudeDegrees>
            </Position>
            <AltitudeMeters>2195.800048828125</AltitudeMeters>
            <DistanceMeters>NAN</DistanceMeters>
          </Trackpoint>
          <Trackpoint>
            <Time>2021-07-17T15:05:24.000Z</Time>
            <Position>
              <LatitudeDegrees>42.71623455919325351715087890625</LatitudeDegrees>
              <LongitudeDegrees>-0.204216353595256805419921875</LongitudeDegrees>
            </Position>
            <AltitudeMeters>2195.800048828125</AltitudeMeters>
            <DistanceMeters>NAN</DistanceMeters>
          </Trackpoint>
          <Trackpoint>
            <Time>2021-07-17T15:05:31.000Z</Time>
            <Position>
              <LatitudeDegrees>42.71627512760460376739501953125</LatitudeDegrees>
              <LongitudeDegrees>-0.2042389847338199615478515625</LongitudeDegrees>
            </Position>
            <AltitudeMeters>2196.199951171875</AltitudeMeters>
            <DistanceMeters>NAN</DistanceMeters>
          </Trackpoint>
          <Trackpoint>
            <Time>2021-07-17T15:05:34.000Z</Time>
            <Position>
              <LatitudeDegrees>42.716273702681064605712890625</LatitudeDegrees>
              <LongitudeDegrees>-0.20426086150109767913818359375</LongitudeDegrees>
            </Position>
            <AltitudeMeters>2195.800048828125</AltitudeMeters>
            <DistanceMeters>NAN</DistanceMeters>
          </Trackpoint>
          <Trackpoint>
            <Time>2021-07-17T15:05:38.000Z</Time>
            <Position>
              <LatitudeDegrees>42.71625702269375324249267578125</LatitudeDegrees>
              <LongitudeDegrees>-0.20429371856153011322021484375</LongitudeDegrees>
            </Position>
            <AltitudeMeters>2194.39990234375</AltitudeMeters>
            <DistanceMeters>NAN</DistanceMeters>
          </Trackpoint>
          <Trackpoint>
            <Time>2021-07-17T15:05:45.000Z</Time>
            <Position>
              <LatitudeDegrees>42.7162587828934192657470703125</LatitudeDegrees>
              <LongitudeDegrees>-0.20432422868907451629638671875</LongitudeDegrees>
            </Position>
            <AltitudeMeters>2193.39990234375</AltitudeMeters>
            <DistanceMeters>NAN</DistanceMeters>
          </Trackpoint>
          <Trackpoint>
            <Time>2021-07-17T15:05:54.000Z</Time>
            <Position>
              <LatitudeDegrees>42.71626004017889499664306640625</LatitudeDegrees>
              <LongitudeDegrees>-0.20441123284399509429931640625</LongitudeDegrees>
            </Position>
            <AltitudeMeters>2190.800048828125</AltitudeMeters>
            <DistanceMeters>NAN</DistanceMeters>
          </Trackpoint>
          <Trackpoint>
            <Time>2021-07-17T15:06:00.000Z</Time>
            <Position>
              <LatitudeDegrees>42.71628635935485363006591796875</LatitudeDegrees>
              <LongitudeDegrees>-0.204451382160186767578125</LongitudeDegrees>
            </Position>
            <AltitudeMeters>2190</AltitudeMeters>
            <DistanceMeters>NAN</DistanceMeters>
          </Trackpoint>
          <Trackpoint>
            <Time>2021-07-17T15:06:03.000Z</Time>
            <Position>
              <LatitudeDegrees>42.716300189495086669921875</LatitudeDegrees>
              <LongitudeDegrees>-0.2044554054737091064453125</LongitudeDegrees>
            </Position>
            <AltitudeMeters>2190.199951171875</AltitudeMeters>
            <DistanceMeters>NAN</DistanceMeters>
          </Trackpoint>
          <Trackpoint>
            <Time>2021-07-17T15:06:04.000Z</Time>
            <Position>
              <LatitudeDegrees>42.71630354225635528564453125</LatitudeDegrees>
              <LongitudeDegrees>-0.2044522203505039215087890625</LongitudeDegrees>
            </Position>
            <AltitudeMeters>2190.39990234375</AltitudeMeters>
            <DistanceMeters>NAN</DistanceMeters>
          </Trackpoint>
          <Trackpoint>
            <Time>2021-07-17T15:06:12.000Z</Time>
            <Position>
              <LatitudeDegrees>42.71630077622830867767333984375</LatitudeDegrees>
              <LongitudeDegrees>-0.2044948004186153411865234375</LongitudeDegrees>
            </Position>
            <AltitudeMeters>2189</AltitudeMeters>
            <DistanceMeters>NAN</DistanceMeters>
          </Trackpoint>
          <Trackpoint>
            <Time>2021-07-17T15:06:19.000Z</Time>
            <Position>
              <LatitudeDegrees>42.7163095772266387939453125</LatitudeDegrees>
              <LongitudeDegrees>-0.204538218677043914794921875</LongitudeDegrees>
            </Position>
            <AltitudeMeters>2188</AltitudeMeters>
            <DistanceMeters>NAN</DistanceMeters>
          </Trackpoint>
          <Trackpoint>
            <Time>2021-07-17T15:06:29.000Z</Time>
            <Position>
              <LatitudeDegrees>42.7163516543805599212646484375</LatitudeDegrees>
              <LongitudeDegrees>-0.204601585865020751953125</LongitudeDegrees>
            </Position>
            <AltitudeMeters>2187.199951171875</AltitudeMeters>
            <DistanceMeters>NAN</DistanceMeters>
          </Trackpoint>
          <Trackpoint>
            <Time>2021-07-17T15:06:34.000Z</Time>
            <Position>
              <LatitudeDegrees>42.71637998521327972412109375</LatitudeDegrees>
              <LongitudeDegrees>-0.20462128333747386932373046875</LongitudeDegrees>
            </Position>
            <AltitudeMeters>2187.199951171875</AltitudeMeters>
            <DistanceMeters>NAN</DistanceMeters>
          </Trackpoint>
          <Trackpoint>
            <Time>2021-07-17T15:06:37.000Z</Time>
            <Position>
              <LatitudeDegrees>42.71640068851411342620849609375</LatitudeDegrees>
              <LongitudeDegrees>-0.2046255581080913543701171875</LongitudeDegrees>
            </Position>
            <AltitudeMeters>2187.39990234375</AltitudeMeters>
            <DistanceMeters>NAN</DistanceMeters>
          </Trackpoint>
          <Trackpoint>
            <Time>2021-07-17T15:06:39.000Z</Time>
            <Position>
              <LatitudeDegrees>42.71641552448272705078125</LatitudeDegrees>
              <LongitudeDegrees>-0.20462161861360073089599609375</LongitudeDegrees>
            </Position>
            <AltitudeMeters>2187.800048828125</AltitudeMeters>
            <DistanceMeters>NAN</DistanceMeters>
          </Trackpoint>
          <Trackpoint>
            <Time>2021-07-17T15:06:40.000Z</Time>
            <Position>
              <LatitudeDegrees>42.716421224176883697509765625</LatitudeDegrees>
              <LongitudeDegrees>-0.2046185173094272613525390625</LongitudeDegrees>
            </Position>
            <AltitudeMeters>2188</AltitudeMeters>
            <DistanceMeters>NAN</DistanceMeters>
          </Trackpoint>
          <Trackpoint>
            <Time>2021-07-17T15:06:42.000Z</Time>
            <Position>
              <LatitudeDegrees>42.71643170155584812164306640625</LatitudeDegrees>
              <LongitudeDegrees>-0.2046057768166065216064453125</LongitudeDegrees>
            </Position>
            <AltitudeMeters>2188.60009765625</AltitudeMeters>
            <DistanceMeters>NAN</DistanceMeters>
          </Trackpoint>
          <Trackpoint>
            <Time>2021-07-17T15:06:44.000Z</Time>
            <Position>
              <LatitudeDegrees>42.71644863300025463104248046875</LatitudeDegrees>
              <LongitudeDegrees>-0.20460083149373531341552734375</LongitudeDegrees>
            </Position>
            <AltitudeMeters>2189</AltitudeMeters>
            <DistanceMeters>NAN</DistanceMeters>
          </Trackpoint>
          <Trackpoint>
            <Time>2021-07-17T15:06:45.000Z</Time>
            <Position>
              <LatitudeDegrees>42.71644997410476207733154296875</LatitudeDegrees>
              <LongitudeDegrees>-0.204597897827625274658203125</LongitudeDegrees>
            </Position>
            <AltitudeMeters>2189</AltitudeMeters>
            <DistanceMeters>NAN</DistanceMeters>
          </Trackpoint>
          <Trackpoint>
            <Time>2021-07-17T15:06:54.000Z</Time>
            <Position>
              <LatitudeDegrees>42.71645869128406047821044921875</LatitudeDegrees>
              <LongitudeDegrees>-0.2045688964426517486572265625</LongitudeDegrees>
            </Position>
            <AltitudeMeters>2189.800048828125</AltitudeMeters>
            <DistanceMeters>NAN</DistanceMeters>
          </Trackpoint>
          <Trackpoint>
            <Time>2021-07-17T15:07:02.000Z</Time>
            <Position>
              <LatitudeDegrees>42.7164633013308048248291015625</LatitudeDegrees>
              <LongitudeDegrees>-0.2045186050236225128173828125</LongitudeDegrees>
            </Position>
            <AltitudeMeters>2191</AltitudeMeters>
            <DistanceMeters>NAN</DistanceMeters>
          </Trackpoint>
          <Trackpoint>
            <Time>2021-07-17T15:07:04.000Z</Time>
            <Position>
              <LatitudeDegrees>42.7164639718830585479736328125</LatitudeDegrees>
              <LongitudeDegrees>-0.20451533608138561248779296875</LongitudeDegrees>
            </Position>
            <AltitudeMeters>2191</AltitudeMeters>
            <DistanceMeters>NAN</DistanceMeters>
          </Trackpoint>
          <Trackpoint>
            <Time>2021-07-17T15:07:06.000Z</Time>
            <Position>
              <LatitudeDegrees>42.7164597809314727783203125</LatitudeDegrees>
              <LongitudeDegrees>-0.2045132406055927276611328125</LongitudeDegrees>
            </Position>
            <AltitudeMeters>2191.199951171875</AltitudeMeters>
            <DistanceMeters>NAN</DistanceMeters>
          </Trackpoint>
          <Trackpoint>
            <Time>2021-07-17T15:07:07.000Z</Time>
            <Position>
              <LatitudeDegrees>42.71645768545567989349365234375</LatitudeDegrees>
              <LongitudeDegrees>-0.20451583899557590484619140625</LongitudeDegrees>
            </Position>
            <AltitudeMeters>2191</AltitudeMeters>
            <DistanceMeters>NAN</DistanceMeters>
          </Trackpoint>
          <Trackpoint>
            <Time>2021-07-17T15:07:09.000Z</Time>
            <Position>
              <LatitudeDegrees>42.7164529077708721160888671875</LatitudeDegrees>
              <LongitudeDegrees>-0.20452447235584259033203125</LongitudeDegrees>
            </Position>
            <AltitudeMeters>2190.800048828125</AltitudeMeters>
            <DistanceMeters>NAN</DistanceMeters>
          </Trackpoint>
          <Trackpoint>
            <Time>2021-07-17T15:07:16.000Z</Time>
            <Position>
              <LatitudeDegrees>42.71643907763063907623291015625</LatitudeDegrees>
              <LongitudeDegrees>-0.2045340277254581451416015625</LongitudeDegrees>
            </Position>
            <AltitudeMeters>2190.39990234375</AltitudeMeters>
            <DistanceMeters>NAN</DistanceMeters>
          </Trackpoint>
          <Trackpoint>
            <Time>2021-07-17T15:07:33.000Z</Time>
            <Position>
              <LatitudeDegrees>42.716435976326465606689453125</LatitudeDegrees>
              <LongitudeDegrees>-0.20453922450542449951171875</LongitudeDegrees>
            </Position>
            <AltitudeMeters>2190.39990234375</AltitudeMeters>
            <DistanceMeters>NAN</DistanceMeters>
          </Trackpoint>
          <Trackpoint>
            <Time>2021-07-17T15:07:36.000Z</Time>
            <Position>
              <LatitudeDegrees>42.71642080508172512054443359375</LatitudeDegrees>
              <LongitudeDegrees>-0.20458054728806018829345703125</LongitudeDegrees>
            </Position>
            <AltitudeMeters>2189</AltitudeMeters>
            <DistanceMeters>NAN</DistanceMeters>
          </Trackpoint>
          <Trackpoint>
            <Time>2021-07-17T15:07:37.000Z</Time>
            <Position>
              <LatitudeDegrees>42.71641879342496395111083984375</LatitudeDegrees>
              <LongitudeDegrees>-0.2045920304954051971435546875</LongitudeDegrees>
            </Position>
            <AltitudeMeters>2188.60009765625</AltitudeMeters>
            <DistanceMeters>NAN</DistanceMeters>
          </Trackpoint>
          <Trackpoint>
            <Time>2021-07-17T15:07:38.000Z</Time>
            <Position>
              <LatitudeDegrees>42.71641552448272705078125</LatitudeDegrees>
              <LongitudeDegrees>-0.2045980654656887054443359375</LongitudeDegrees>
            </Position>
            <AltitudeMeters>2188.39990234375</AltitudeMeters>
            <DistanceMeters>NAN</DistanceMeters>
          </Trackpoint>
          <Trackpoint>
            <Time>2021-07-17T15:07:45.000Z</Time>
            <Position>
              <LatitudeDegrees>42.71639029495418071746826171875</LatitudeDegrees>
              <LongitudeDegrees>-0.2046510390937328338623046875</LongitudeDegrees>
            </Position>
            <AltitudeMeters>2186.60009765625</AltitudeMeters>
            <DistanceMeters>NAN</DistanceMeters>
          </Trackpoint>
          <Trackpoint>
            <Time>2021-07-17T15:07:51.000Z</Time>
            <Position>
              <LatitudeDegrees>42.71639607846736907958984375</LatitudeDegrees>
              <LongitudeDegrees>-0.2046592533588409423828125</LongitudeDegrees>
            </Position>
            <AltitudeMeters>2186.60009765625</AltitudeMeters>
            <DistanceMeters>NAN</DistanceMeters>
          </Trackpoint>
          <Trackpoint>
            <Time>2021-07-17T15:07:56.000Z</Time>
            <Position>
              <LatitudeDegrees>42.71639968268573284149169921875</LatitudeDegrees>
              <LongitudeDegrees>-0.20466503687202930450439453125</LongitudeDegrees>
            </Position>
            <AltitudeMeters>2186.39990234375</AltitudeMeters>
            <DistanceMeters>NAN</DistanceMeters>
          </Trackpoint>
          <Trackpoint>
            <Time>2021-07-17T15:08:01.000Z</Time>
            <Position>
              <LatitudeDegrees>42.71639968268573284149169921875</LatitudeDegrees>
              <LongitudeDegrees>-0.20466503687202930450439453125</LongitudeDegrees>
            </Position>
            <AltitudeMeters>2186.39990234375</AltitudeMeters>
            <DistanceMeters>NAN</DistanceMeters>
          </Trackpoint>
          <Trackpoint>
            <Time>2021-07-17T15:08:07.000Z</Time>
            <Position>
              <LatitudeDegrees>42.71639968268573284149169921875</LatitudeDegrees>
              <LongitudeDegrees>-0.20466503687202930450439453125</LongitudeDegrees>
            </Position>
            <AltitudeMeters>2186.39990234375</AltitudeMeters>
            <DistanceMeters>NAN</DistanceMeters>
          </Trackpoint>
          <Trackpoint>
            <Time>2021-07-17T15:08:32.000Z</Time>
            <Position>
              <LatitudeDegrees>42.7164130099117755889892578125</LatitudeDegrees>
              <LongitudeDegrees>-0.20464341156184673309326171875</LongitudeDegrees>
            </Position>
            <AltitudeMeters>2187.199951171875</AltitudeMeters>
            <DistanceMeters>NAN</DistanceMeters>
          </Trackpoint>
          <Trackpoint>
            <Time>2021-07-17T15:08:43.000Z</Time>
            <Position>
              <LatitudeDegrees>42.7164368145167827606201171875</LatitudeDegrees>
              <LongitudeDegrees>-0.2046592533588409423828125</LongitudeDegrees>
            </Position>
            <AltitudeMeters>2187.199951171875</AltitudeMeters>
            <DistanceMeters>NAN</DistanceMeters>
          </Trackpoint>
          <Trackpoint>
            <Time>2021-07-17T15:08:44.000Z</Time>
            <Position>
              <LatitudeDegrees>42.71643689833581447601318359375</LatitudeDegrees>
              <LongitudeDegrees>-0.204659588634967803955078125</LongitudeDegrees>
            </Position>
            <AltitudeMeters>2187.199951171875</AltitudeMeters>
            <DistanceMeters>NAN</DistanceMeters>
          </Trackpoint>
          <Trackpoint>
            <Time>2021-07-17T15:08:47.000Z</Time>
            <Position>
              <LatitudeDegrees>42.71643698215484619140625</LatitudeDegrees>
              <LongitudeDegrees>-0.20466051064431667327880859375</LongitudeDegrees>
            </Position>
            <AltitudeMeters>2187.199951171875</AltitudeMeters>
            <DistanceMeters>NAN</DistanceMeters>
          </Trackpoint>
          <Trackpoint>
            <Time>2021-07-17T15:08:50.000Z</Time>
            <Position>
              <LatitudeDegrees>42.71643698215484619140625</LatitudeDegrees>
              <LongitudeDegrees>-0.204661600291728973388671875</LongitudeDegrees>
            </Position>
            <AltitudeMeters>2187.199951171875</AltitudeMeters>
            <DistanceMeters>NAN</DistanceMeters>
          </Trackpoint>
          <Trackpoint>
            <Time>2021-07-17T15:08:54.000Z</Time>
            <Position>
              <LatitudeDegrees>42.71643706597387790679931640625</LatitudeDegrees>
              <LongitudeDegrees>-0.204662941396236419677734375</LongitudeDegrees>
            </Position>
            <AltitudeMeters>2187.199951171875</AltitudeMeters>
            <DistanceMeters>NAN</DistanceMeters>
          </Trackpoint>
          <Trackpoint>
            <Time>2021-07-17T15:09:07.000Z</Time>
            <Position>
              <LatitudeDegrees>42.7164364792406558990478515625</LatitudeDegrees>
              <LongitudeDegrees>-0.2046912722289562225341796875</LongitudeDegrees>
            </Position>
            <AltitudeMeters>2186.199951171875</AltitudeMeters>
            <DistanceMeters>NAN</DistanceMeters>
          </Trackpoint>
          <Trackpoint>
            <Time>2021-07-17T15:09:18.000Z</Time>
            <Position>
              <LatitudeDegrees>42.71643958054482936859130859375</LatitudeDegrees>
              <LongitudeDegrees>-0.2046912722289562225341796875</LongitudeDegrees>
            </Position>
            <AltitudeMeters>2186.199951171875</AltitudeMeters>
            <DistanceMeters>NAN</DistanceMeters>
          </Trackpoint>
          <Trackpoint>
            <Time>2021-07-17T15:09:40.000Z</Time>
            <Position>
              <LatitudeDegrees>42.71642449311912059783935546875</LatitudeDegrees>
              <LongitudeDegrees>-0.20470392890274524688720703125</LongitudeDegrees>
            </Position>
            <AltitudeMeters>2185.60009765625</AltitudeMeters>
            <DistanceMeters>NAN</DistanceMeters>
          </Trackpoint>
          <Trackpoint>
            <Time>2021-07-17T15:10:10.000Z</Time>
            <Position>
              <LatitudeDegrees>42.71641560830175876617431640625</LatitudeDegrees>
              <LongitudeDegrees>-0.2047331817448139190673828125</LongitudeDegrees>
            </Position>
            <AltitudeMeters>2184.60009765625</AltitudeMeters>
            <DistanceMeters>NAN</DistanceMeters>
          </Trackpoint>
          <Trackpoint>
            <Time>2021-07-17T15:10:18.000Z</Time>
            <Position>
              <LatitudeDegrees>42.71641493774950504302978515625</LatitudeDegrees>
              <LongitudeDegrees>-0.204728655517101287841796875</LongitudeDegrees>
            </Position>
            <AltitudeMeters>2184.800048828125</AltitudeMeters>
            <DistanceMeters>NAN</DistanceMeters>
          </Trackpoint>
          <Trackpoint>
            <Time>2021-07-17T15:10:27.000Z</Time>
            <Position>
              <LatitudeDegrees>42.716415859758853912353515625</LatitudeDegrees>
              <LongitudeDegrees>-0.20472588948905467987060546875</LongitudeDegrees>
            </Position>
            <AltitudeMeters>2184.800048828125</AltitudeMeters>
            <DistanceMeters>NAN</DistanceMeters>
          </Trackpoint>
          <Trackpoint>
            <Time>2021-07-17T15:10:41.000Z</Time>
            <Position>
              <LatitudeDegrees>42.7164143510162830352783203125</LatitudeDegrees>
              <LongitudeDegrees>-0.20470191724598407745361328125</LongitudeDegrees>
            </Position>
            <AltitudeMeters>2185.60009765625</AltitudeMeters>
            <DistanceMeters>NAN</DistanceMeters>
          </Trackpoint>
          <Trackpoint>
            <Time>2021-07-17T15:10:53.000Z</Time>
            <Position>
              <LatitudeDegrees>42.7164141833782196044921875</LatitudeDegrees>
              <LongitudeDegrees>-0.20469479262828826904296875</LongitudeDegrees>
            </Position>
            <AltitudeMeters>2185.800048828125</AltitudeMeters>
            <DistanceMeters>NAN</DistanceMeters>
          </Trackpoint>
          <Trackpoint>
            <Time>2021-07-17T15:10:57.000Z</Time>
            <Position>
              <LatitudeDegrees>42.7164136804640293121337890625</LatitudeDegrees>
              <LongitudeDegrees>-0.20469621755182743072509765625</LongitudeDegrees>
            </Position>
            <AltitudeMeters>2185.800048828125</AltitudeMeters>
            <DistanceMeters>NAN</DistanceMeters>
          </Trackpoint>
          <Trackpoint>
            <Time>2021-07-17T15:11:09.000Z</Time>
            <Position>
              <LatitudeDegrees>42.716412842273712158203125</LatitudeDegrees>
              <LongitudeDegrees>-0.204699151217937469482421875</LongitudeDegrees>
            </Position>
            <AltitudeMeters>2185.800048828125</AltitudeMeters>
            <DistanceMeters>NAN</DistanceMeters>
          </Trackpoint>
          <Trackpoint>
            <Time>2021-07-17T15:11:43.000Z</Time>
            <Position>
              <LatitudeDegrees>42.71641259081661701202392578125</LatitudeDegrees>
              <LongitudeDegrees>-0.2047003246843814849853515625</LongitudeDegrees>
            </Position>
            <AltitudeMeters>2185.60009765625</AltitudeMeters>
            <DistanceMeters>NAN</DistanceMeters>
          </Trackpoint>
          <Trackpoint>
            <Time>2021-07-17T15:11:58.000Z</Time>
            <Position>
              <LatitudeDegrees>42.71641259081661701202392578125</LatitudeDegrees>
              <LongitudeDegrees>-0.2047006599605083465576171875</LongitudeDegrees>
            </Position>
            <AltitudeMeters>2185.60009765625</AltitudeMeters>
            <DistanceMeters>NAN</DistanceMeters>
          </Trackpoint>
          <Trackpoint>
            <Time>2021-07-17T15:12:43.000Z</Time>
            <Position>
              <LatitudeDegrees>42.716412842273712158203125</LatitudeDegrees>
              <LongitudeDegrees>-0.20470007322728633880615234375</LongitudeDegrees>
            </Position>
            <AltitudeMeters>2185.60009765625</AltitudeMeters>
            <DistanceMeters>NAN</DistanceMeters>
          </Trackpoint>
          <Trackpoint>
            <Time>2021-07-17T15:13:00.000Z</Time>
            <Position>
              <LatitudeDegrees>42.7164130099117755889892578125</LatitudeDegrees>
              <LongitudeDegrees>-0.204699821770191192626953125</LongitudeDegrees>
            </Position>
            <AltitudeMeters>2185.60009765625</AltitudeMeters>
            <DistanceMeters>NAN</DistanceMeters>
          </Trackpoint>
          <Trackpoint>
            <Time>2021-07-17T15:13:07.000Z</Time>
            <Position>
              <LatitudeDegrees>42.71641309373080730438232421875</LatitudeDegrees>
              <LongitudeDegrees>-0.2046996541321277618408203125</LongitudeDegrees>
            </Position>
            <AltitudeMeters>2185.60009765625</AltitudeMeters>
            <DistanceMeters>NAN</DistanceMeters>
          </Trackpoint>
          <Trackpoint>
            <Time>2021-07-17T15:13:15.000Z</Time>
            <Position>
              <LatitudeDegrees>42.716413177549839019775390625</LatitudeDegrees>
              <LongitudeDegrees>-0.2046993188560009002685546875</LongitudeDegrees>
            </Position>
            <AltitudeMeters>2185.60009765625</AltitudeMeters>
            <DistanceMeters>NAN</DistanceMeters>
          </Trackpoint>
          <Trackpoint>
            <Time>2021-07-17T15:13:17.000Z</Time>
            <Position>
              <LatitudeDegrees>42.716413177549839019775390625</LatitudeDegrees>
              <LongitudeDegrees>-0.20469923503696918487548828125</LongitudeDegrees>
            </Position>
            <AltitudeMeters>2185.800048828125</AltitudeMeters>
            <DistanceMeters>NAN</DistanceMeters>
          </Trackpoint>
          <Trackpoint>
            <Time>2021-07-17T15:13:18.000Z</Time>
            <Position>
              <LatitudeDegrees>42.716413177549839019775390625</LatitudeDegrees>
              <LongitudeDegrees>-0.204699151217937469482421875</LongitudeDegrees>
            </Position>
            <AltitudeMeters>2185.800048828125</AltitudeMeters>
            <DistanceMeters>NAN</DistanceMeters>
          </Trackpoint>
          <Trackpoint>
            <Time>2021-07-17T15:13:21.000Z</Time>
            <Position>
              <LatitudeDegrees>42.71641326136887073516845703125</LatitudeDegrees>
              <LongitudeDegrees>-0.20469906739890575408935546875</LongitudeDegrees>
            </Position>
            <AltitudeMeters>2185.800048828125</AltitudeMeters>
            <DistanceMeters>NAN</DistanceMeters>
          </Trackpoint>
          <Trackpoint>
            <Time>2021-07-17T15:13:29.000Z</Time>
            <Position>
              <LatitudeDegrees>42.7163912169635295867919921875</LatitudeDegrees>
              <LongitudeDegrees>-0.204636789858341217041015625</LongitudeDegrees>
            </Position>
            <AltitudeMeters>2187</AltitudeMeters>
            <DistanceMeters>NAN</DistanceMeters>
          </Trackpoint>
          <Trackpoint>
            <Time>2021-07-17T15:13:31.000Z</Time>
            <Position>
              <LatitudeDegrees>42.71638677455484867095947265625</LatitudeDegrees>
              <LongitudeDegrees>-0.20461441017687320709228515625</LongitudeDegrees>
            </Position>
            <AltitudeMeters>2187.60009765625</AltitudeMeters>
            <DistanceMeters>NAN</DistanceMeters>
          </Trackpoint>
          <Trackpoint>
            <Time>2021-07-17T15:13:33.000Z</Time>
            <Position>
              <LatitudeDegrees>42.7163774706423282623291015625</LatitudeDegrees>
              <LongitudeDegrees>-0.20459353923797607421875</LongitudeDegrees>
            </Position>
            <AltitudeMeters>2187.800048828125</AltitudeMeters>
            <DistanceMeters>NAN</DistanceMeters>
          </Trackpoint>
          <Trackpoint>
            <Time>2021-07-17T15:13:35.000Z</Time>
            <Position>
              <LatitudeDegrees>42.71637688390910625457763671875</LatitudeDegrees>
              <LongitudeDegrees>-0.204574763774871826171875</LongitudeDegrees>
            </Position>
            <AltitudeMeters>2188.39990234375</AltitudeMeters>
            <DistanceMeters>NAN</DistanceMeters>
          </Trackpoint>
          <Trackpoint>
            <Time>2021-07-17T15:13:39.000Z</Time>
            <Position>
              <LatitudeDegrees>42.71637554280459880828857421875</LatitudeDegrees>
              <LongitudeDegrees>-0.204585492610931396484375</LongitudeDegrees>
            </Position>
            <AltitudeMeters>2188</AltitudeMeters>
            <DistanceMeters>NAN</DistanceMeters>
          </Trackpoint>
          <Trackpoint>
            <Time>2021-07-17T15:13:41.000Z</Time>
            <Position>
              <LatitudeDegrees>42.71637872792780399322509765625</LatitudeDegrees>
              <LongitudeDegrees>-0.20458105020225048065185546875</LongitudeDegrees>
            </Position>
            <AltitudeMeters>2188.199951171875</AltitudeMeters>
            <DistanceMeters>NAN</DistanceMeters>
          </Trackpoint>
          <Trackpoint>
            <Time>2021-07-17T15:13:53.000Z</Time>
            <Position>
              <LatitudeDegrees>42.71637872792780399322509765625</LatitudeDegrees>
              <LongitudeDegrees>-0.20458105020225048065185546875</LongitudeDegrees>
            </Position>
            <AltitudeMeters>2188.199951171875</AltitudeMeters>
            <DistanceMeters>NAN</DistanceMeters>
          </Trackpoint>
          <Trackpoint>
            <Time>2021-07-17T15:13:56.000Z</Time>
            <Position>
              <LatitudeDegrees>42.71637872792780399322509765625</LatitudeDegrees>
              <LongitudeDegrees>-0.2045782841742038726806640625</LongitudeDegrees>
            </Position>
            <AltitudeMeters>2188.199951171875</AltitudeMeters>
            <DistanceMeters>NAN</DistanceMeters>
          </Trackpoint>
          <Trackpoint>
            <Time>2021-07-17T15:14:07.000Z</Time>
            <Position>
              <LatitudeDegrees>42.7163885347545146942138671875</LatitudeDegrees>
              <LongitudeDegrees>-0.20455959253013134002685546875</LongitudeDegrees>
            </Position>
            <AltitudeMeters>2189</AltitudeMeters>
            <DistanceMeters>NAN</DistanceMeters>
          </Trackpoint>
          <Trackpoint>
            <Time>2021-07-17T15:14:31.000Z</Time>
            <Position>
              <LatitudeDegrees>42.7163995988667011260986328125</LatitudeDegrees>
              <LongitudeDegrees>-0.204567052423954010009765625</LongitudeDegrees>
            </Position>
            <AltitudeMeters>2189</AltitudeMeters>
            <DistanceMeters>NAN</DistanceMeters>
          </Trackpoint>
          <Trackpoint>
            <Time>2021-07-17T15:14:36.000Z</Time>
            <Position>
              <LatitudeDegrees>42.71641963161528110504150390625</LatitudeDegrees>
              <LongitudeDegrees>-0.20452656783163547515869140625</LongitudeDegrees>
            </Position>
            <AltitudeMeters>2190.39990234375</AltitudeMeters>
            <DistanceMeters>NAN</DistanceMeters>
          </Trackpoint>
          <Trackpoint>
            <Time>2021-07-17T15:14:39.000Z</Time>
            <Position>
              <LatitudeDegrees>42.71641963161528110504150390625</LatitudeDegrees>
              <LongitudeDegrees>-0.20452656783163547515869140625</LongitudeDegrees>
            </Position>
            <AltitudeMeters>2190.39990234375</AltitudeMeters>
            <DistanceMeters>NAN</DistanceMeters>
          </Trackpoint>
          <Trackpoint>
            <Time>2021-07-17T15:14:41.000Z</Time>
            <Position>
              <LatitudeDegrees>42.71641963161528110504150390625</LatitudeDegrees>
              <LongitudeDegrees>-0.20452656783163547515869140625</LongitudeDegrees>
            </Position>
            <AltitudeMeters>2190.39990234375</AltitudeMeters>
            <DistanceMeters>NAN</DistanceMeters>
          </Trackpoint>
          <Trackpoint>
            <Time>2021-07-17T15:14:44.000Z</Time>
            <Position>
              <LatitudeDegrees>42.716433964669704437255859375</LatitudeDegrees>
              <LongitudeDegrees>-0.20453226752579212188720703125</LongitudeDegrees>
            </Position>
            <AltitudeMeters>2190.39990234375</AltitudeMeters>
            <DistanceMeters>NAN</DistanceMeters>
          </Trackpoint>
          <Trackpoint>
            <Time>2021-07-17T15:14:45.000Z</Time>
            <Position>
              <LatitudeDegrees>42.7164317853748798370361328125</LatitudeDegrees>
              <LongitudeDegrees>-0.20454836077988147735595703125</LongitudeDegrees>
            </Position>
            <AltitudeMeters>2190</AltitudeMeters>
            <DistanceMeters>NAN</DistanceMeters>
          </Trackpoint>
          <Trackpoint>
            <Time>2021-07-17T15:14:52.000Z</Time>
            <Position>
              <LatitudeDegrees>42.71642231382429599761962890625</LatitudeDegrees>
              <LongitudeDegrees>-0.20458490587770938873291015625</LongitudeDegrees>
            </Position>
            <AltitudeMeters>2189</AltitudeMeters>
            <DistanceMeters>NAN</DistanceMeters>
          </Trackpoint>
          <Trackpoint>
            <Time>2021-07-17T15:15:01.000Z</Time>
            <Position>
              <LatitudeDegrees>42.71640546619892120361328125</LatitudeDegrees>
              <LongitudeDegrees>-0.20452908240258693695068359375</LongitudeDegrees>
            </Position>
            <AltitudeMeters>2190</AltitudeMeters>
            <DistanceMeters>NAN</DistanceMeters>
          </Trackpoint>
          <Trackpoint>
            <Time>2021-07-17T15:15:13.000Z</Time>
            <Position>
              <LatitudeDegrees>42.71640814840793609619140625</LatitudeDegrees>
              <LongitudeDegrees>-0.20453109405934810638427734375</LongitudeDegrees>
            </Position>
            <AltitudeMeters>2190</AltitudeMeters>
            <DistanceMeters>NAN</DistanceMeters>
          </Trackpoint>
          <Trackpoint>
            <Time>2021-07-17T15:15:46.000Z</Time>
            <Position>
              <LatitudeDegrees>42.71642734296619892120361328125</LatitudeDegrees>
              <LongitudeDegrees>-0.20456495694816112518310546875</LongitudeDegrees>
            </Position>
            <AltitudeMeters>2189.60009765625</AltitudeMeters>
            <DistanceMeters>NAN</DistanceMeters>
          </Trackpoint>
          <Trackpoint>
            <Time>2021-07-17T15:16:04.000Z</Time>
            <Position>
              <LatitudeDegrees>42.71643019281327724456787109375</LatitudeDegrees>
              <LongitudeDegrees>-0.20454416982829570770263671875</LongitudeDegrees>
            </Position>
            <AltitudeMeters>2190</AltitudeMeters>
            <DistanceMeters>NAN</DistanceMeters>
          </Trackpoint>
          <Trackpoint>
            <Time>2021-07-17T15:16:14.000Z</Time>
            <Position>
              <LatitudeDegrees>42.71642751060426235198974609375</LatitudeDegrees>
              <LongitudeDegrees>-0.20454333163797855377197265625</LongitudeDegrees>
            </Position>
            <AltitudeMeters>2190</AltitudeMeters>
            <DistanceMeters>NAN</DistanceMeters>
          </Trackpoint>
          <Trackpoint>
            <Time>2021-07-17T15:16:35.000Z</Time>
            <Position>
              <LatitudeDegrees>42.71642466075718402862548828125</LatitudeDegrees>
              <LongitudeDegrees>-0.20457032136619091033935546875</LongitudeDegrees>
            </Position>
            <AltitudeMeters>2189.39990234375</AltitudeMeters>
            <DistanceMeters>NAN</DistanceMeters>
          </Trackpoint>
          <Trackpoint>
            <Time>2021-07-17T15:16:49.000Z</Time>
            <Position>
              <LatitudeDegrees>42.716433294117450714111328125</LatitudeDegrees>
              <LongitudeDegrees>-0.20457032136619091033935546875</LongitudeDegrees>
            </Position>
            <AltitudeMeters>2189.39990234375</AltitudeMeters>
            <DistanceMeters>NAN</DistanceMeters>
          </Trackpoint>
          <Trackpoint>
            <Time>2021-07-17T15:17:09.000Z</Time>
            <Position>
              <LatitudeDegrees>42.7164549194276332855224609375</LatitudeDegrees>
              <LongitudeDegrees>-0.20456043072044849395751953125</LongitudeDegrees>
            </Position>
            <AltitudeMeters>2190</AltitudeMeters>
            <DistanceMeters>NAN</DistanceMeters>
          </Trackpoint>
          <Trackpoint>
            <Time>2021-07-17T15:17:27.000Z</Time>
            <Position>
              <LatitudeDegrees>42.71644762717187404632568359375</LatitudeDegrees>
              <LongitudeDegrees>-0.20455070771276950836181640625</LongitudeDegrees>
            </Position>
            <AltitudeMeters>2190.199951171875</AltitudeMeters>
            <DistanceMeters>NAN</DistanceMeters>
          </Trackpoint>
          <Trackpoint>
            <Time>2021-07-17T15:17:37.000Z</Time>
            <Position>
              <LatitudeDegrees>42.7164384908974170684814453125</LatitudeDegrees>
              <LongitudeDegrees>-0.2045306749641895294189453125</LongitudeDegrees>
            </Position>
            <AltitudeMeters>2190.60009765625</AltitudeMeters>
            <DistanceMeters>NAN</DistanceMeters>
          </Trackpoint>
          <Trackpoint>
            <Time>2021-07-17T15:17:42.000Z</Time>
            <Position>
              <LatitudeDegrees>42.716434299945831298828125</LatitudeDegrees>
              <LongitudeDegrees>-0.20452187396585941314697265625</LongitudeDegrees>
            </Position>
            <AltitudeMeters>2190.800048828125</AltitudeMeters>
            <DistanceMeters>NAN</DistanceMeters>
          </Trackpoint>
          <Trackpoint>
            <Time>2021-07-17T15:18:07.000Z</Time>
            <Position>
              <LatitudeDegrees>42.7164156921207904815673828125</LatitudeDegrees>
              <LongitudeDegrees>-0.20451650954782962799072265625</LongitudeDegrees>
            </Position>
            <AltitudeMeters>2190.60009765625</AltitudeMeters>
            <DistanceMeters>NAN</DistanceMeters>
          </Trackpoint>
          <Trackpoint>
            <Time>2021-07-17T15:18:10.000Z</Time>
            <Position>
              <LatitudeDegrees>42.71641510538756847381591796875</LatitudeDegrees>
              <LongitudeDegrees>-0.20451919175684452056884765625</LongitudeDegrees>
            </Position>
            <AltitudeMeters>2190.39990234375</AltitudeMeters>
            <DistanceMeters>NAN</DistanceMeters>
          </Trackpoint>
          <Trackpoint>
            <Time>2021-07-17T15:18:18.000Z</Time>
            <Position>
              <LatitudeDegrees>42.71641426719725131988525390625</LatitudeDegrees>
              <LongitudeDegrees>-0.2045239694416522979736328125</LongitudeDegrees>
            </Position>
            <AltitudeMeters>2190.39990234375</AltitudeMeters>
            <DistanceMeters>NAN</DistanceMeters>
          </Trackpoint>
          <Trackpoint>
            <Time>2021-07-17T15:18:25.000Z</Time>
            <Position>
              <LatitudeDegrees>42.7164141833782196044921875</LatitudeDegrees>
              <LongitudeDegrees>-0.20452455617487430572509765625</LongitudeDegrees>
            </Position>
            <AltitudeMeters>2190.199951171875</AltitudeMeters>
            <DistanceMeters>NAN</DistanceMeters>
          </Trackpoint>
          <Trackpoint>
            <Time>2021-07-17T15:18:40.000Z</Time>
            <Position>
              <LatitudeDegrees>42.71641393192112445831298828125</LatitudeDegrees>
              <LongitudeDegrees>-0.20452539436519145965576171875</LongitudeDegrees>
            </Position>
            <AltitudeMeters>2190.199951171875</AltitudeMeters>
            <DistanceMeters>NAN</DistanceMeters>
          </Trackpoint>
          <Trackpoint>
            <Time>2021-07-17T15:19:20.000Z</Time>
            <Position>
              <LatitudeDegrees>42.7164133451879024505615234375</LatitudeDegrees>
              <LongitudeDegrees>-0.204526819288730621337890625</LongitudeDegrees>
            </Position>
            <AltitudeMeters>2190.199951171875</AltitudeMeters>
            <DistanceMeters>NAN</DistanceMeters>
          </Trackpoint>
          <Trackpoint>
            <Time>2021-07-17T15:19:37.000Z</Time>
            <Position>
              <LatitudeDegrees>42.71641292609274387359619140625</LatitudeDegrees>
              <LongitudeDegrees>-0.20452849566936492919921875</LongitudeDegrees>
            </Position>
            <AltitudeMeters>2190.199951171875</AltitudeMeters>
            <DistanceMeters>NAN</DistanceMeters>
          </Trackpoint>
          <Trackpoint>
            <Time>2021-07-17T15:19:44.000Z</Time>
            <Position>
              <LatitudeDegrees>42.716412842273712158203125</LatitudeDegrees>
              <LongitudeDegrees>-0.2045293338596820831298828125</LongitudeDegrees>
            </Position>
            <AltitudeMeters>2190.199951171875</AltitudeMeters>
            <DistanceMeters>NAN</DistanceMeters>
          </Trackpoint>
          <Trackpoint>
            <Time>2021-07-17T15:19:47.000Z</Time>
            <Position>
              <LatitudeDegrees>42.716412842273712158203125</LatitudeDegrees>
              <LongitudeDegrees>-0.2045296691358089447021484375</LongitudeDegrees>
            </Position>
            <AltitudeMeters>2190.199951171875</AltitudeMeters>
            <DistanceMeters>NAN</DistanceMeters>
          </Trackpoint>
          <Trackpoint>
            <Time>2021-07-17T15:19:49.000Z</Time>
            <Position>
              <LatitudeDegrees>42.716412842273712158203125</LatitudeDegrees>
              <LongitudeDegrees>-0.20452992059290409088134765625</LongitudeDegrees>
            </Position>
            <AltitudeMeters>2190.199951171875</AltitudeMeters>
            <DistanceMeters>NAN</DistanceMeters>
          </Trackpoint>
          <Trackpoint>
            <Time>2021-07-17T15:19:58.000Z</Time>
            <Position>
              <LatitudeDegrees>42.71641292609274387359619140625</LatitudeDegrees>
              <LongitudeDegrees>-0.2045310102403163909912109375</LongitudeDegrees>
            </Position>
            <AltitudeMeters>2190.199951171875</AltitudeMeters>
            <DistanceMeters>NAN</DistanceMeters>
          </Trackpoint>
          <Trackpoint>
            <Time>2021-07-17T15:20:01.000Z</Time>
            <Position>
              <LatitudeDegrees>42.71641292609274387359619140625</LatitudeDegrees>
              <LongitudeDegrees>-0.2045313455164432525634765625</LongitudeDegrees>
            </Position>
            <AltitudeMeters>2190</AltitudeMeters>
            <DistanceMeters>NAN</DistanceMeters>
          </Trackpoint>
          <Trackpoint>
            <Time>2021-07-17T15:20:10.000Z</Time>
            <Position>
              <LatitudeDegrees>42.71641309373080730438232421875</LatitudeDegrees>
              <LongitudeDegrees>-0.2045323513448238372802734375</LongitudeDegrees>
            </Position>
            <AltitudeMeters>2190</AltitudeMeters>
            <DistanceMeters>NAN</DistanceMeters>
          </Trackpoint>
          <Trackpoint>
            <Time>2021-07-17T15:20:15.000Z</Time>
            <Position>
              <LatitudeDegrees>42.71641326136887073516845703125</LatitudeDegrees>
              <LongitudeDegrees>-0.204532854259014129638671875</LongitudeDegrees>
            </Position>
            <AltitudeMeters>2190</AltitudeMeters>
            <DistanceMeters>NAN</DistanceMeters>
          </Trackpoint>
          <Trackpoint>
            <Time>2021-07-17T15:20:25.000Z</Time>
            <Position>
              <LatitudeDegrees>42.7164136804640293121337890625</LatitudeDegrees>
              <LongitudeDegrees>-0.20453377626836299896240234375</LongitudeDegrees>
            </Position>
            <AltitudeMeters>2190</AltitudeMeters>
            <DistanceMeters>NAN</DistanceMeters>
          </Trackpoint>
          <Trackpoint>
            <Time>2021-07-17T15:20:29.000Z</Time>
            <Position>
              <LatitudeDegrees>42.71641393192112445831298828125</LatitudeDegrees>
              <LongitudeDegrees>-0.20453411154448986053466796875</LongitudeDegrees>
            </Position>
            <AltitudeMeters>2190</AltitudeMeters>
            <DistanceMeters>NAN</DistanceMeters>
          </Trackpoint>
          <Trackpoint>
            <Time>2021-07-17T15:20:33.000Z</Time>
            <Position>
              <LatitudeDegrees>42.7164141833782196044921875</LatitudeDegrees>
              <LongitudeDegrees>-0.2045343630015850067138671875</LongitudeDegrees>
            </Position>
            <AltitudeMeters>2190</AltitudeMeters>
            <DistanceMeters>NAN</DistanceMeters>
          </Trackpoint>
          <Trackpoint>
            <Time>2021-07-17T15:20:36.000Z</Time>
            <Position>
              <LatitudeDegrees>42.7164143510162830352783203125</LatitudeDegrees>
              <LongitudeDegrees>-0.2045345306396484375</LongitudeDegrees>
            </Position>
            <AltitudeMeters>2190</AltitudeMeters>
            <DistanceMeters>NAN</DistanceMeters>
          </Trackpoint>
          <Trackpoint>
            <Time>2021-07-17T15:21:05.000Z</Time>
            <Position>
              <LatitudeDegrees>42.71641527302563190460205078125</LatitudeDegrees>
              <LongitudeDegrees>-0.20453578792512416839599609375</LongitudeDegrees>
            </Position>
            <AltitudeMeters>2190</AltitudeMeters>
            <DistanceMeters>NAN</DistanceMeters>
          </Trackpoint>
          <Trackpoint>
            <Time>2021-07-17T15:21:11.000Z</Time>
            <Position>
              <LatitudeDegrees>42.7164153568446636199951171875</LatitudeDegrees>
              <LongitudeDegrees>-0.2045360393822193145751953125</LongitudeDegrees>
            </Position>
            <AltitudeMeters>2190</AltitudeMeters>
            <DistanceMeters>NAN</DistanceMeters>
          </Trackpoint>
          <Trackpoint>
            <Time>2021-07-17T15:21:13.000Z</Time>
            <Position>
              <LatitudeDegrees>42.71641544066369533538818359375</LatitudeDegrees>
              <LongitudeDegrees>-0.204536207020282745361328125</LongitudeDegrees>
            </Position>
            <AltitudeMeters>2190</AltitudeMeters>
            <DistanceMeters>NAN</DistanceMeters>
          </Trackpoint>
          <Trackpoint>
            <Time>2021-07-17T15:21:29.000Z</Time>
            <Position>
              <LatitudeDegrees>42.716415859758853912353515625</LatitudeDegrees>
              <LongitudeDegrees>-0.2045363746583461761474609375</LongitudeDegrees>
            </Position>
            <AltitudeMeters>2190</AltitudeMeters>
            <DistanceMeters>NAN</DistanceMeters>
          </Trackpoint>
          <Trackpoint>
            <Time>2021-07-17T15:21:36.000Z</Time>
            <Position>
              <LatitudeDegrees>42.71641619503498077392578125</LatitudeDegrees>
              <LongitudeDegrees>-0.2045358717441558837890625</LongitudeDegrees>
            </Position>
            <AltitudeMeters>2190</AltitudeMeters>
            <DistanceMeters>NAN</DistanceMeters>
          </Trackpoint>
          <Trackpoint>
            <Time>2021-07-17T15:21:39.000Z</Time>
            <Position>
              <LatitudeDegrees>42.7164163626730442047119140625</LatitudeDegrees>
              <LongitudeDegrees>-0.20453562028706073760986328125</LongitudeDegrees>
            </Position>
            <AltitudeMeters>2190</AltitudeMeters>
            <DistanceMeters>NAN</DistanceMeters>
          </Trackpoint>
          <Trackpoint>
            <Time>2021-07-17T15:21:40.000Z</Time>
            <Position>
              <LatitudeDegrees>42.7164163626730442047119140625</LatitudeDegrees>
              <LongitudeDegrees>-0.204535536468029022216796875</LongitudeDegrees>
            </Position>
            <AltitudeMeters>2190</AltitudeMeters>
            <DistanceMeters>NAN</DistanceMeters>
          </Trackpoint>
          <Trackpoint>
            <Time>2021-07-17T15:21:42.000Z</Time>
            <Position>
              <LatitudeDegrees>42.71641644649207592010498046875</LatitudeDegrees>
              <LongitudeDegrees>-0.20453528501093387603759765625</LongitudeDegrees>
            </Position>
            <AltitudeMeters>2190</AltitudeMeters>
            <DistanceMeters>NAN</DistanceMeters>
          </Trackpoint>
          <Trackpoint>
            <Time>2021-07-17T15:22:08.000Z</Time>
            <Position>
              <LatitudeDegrees>42.71641795523464679718017578125</LatitudeDegrees>
              <LongitudeDegrees>-0.204532854259014129638671875</LongitudeDegrees>
            </Position>
            <AltitudeMeters>2190.199951171875</AltitudeMeters>
            <DistanceMeters>NAN</DistanceMeters>
          </Trackpoint>
          <Trackpoint>
            <Time>2021-07-17T15:22:18.000Z</Time>
            <Position>
              <LatitudeDegrees>42.716418541967868804931640625</LatitudeDegrees>
              <LongitudeDegrees>-0.2045316807925701141357421875</LongitudeDegrees>
            </Position>
            <AltitudeMeters>2190.199951171875</AltitudeMeters>
            <DistanceMeters>NAN</DistanceMeters>
          </Trackpoint>
          <Trackpoint>
            <Time>2021-07-17T15:22:21.000Z</Time>
            <Position>
              <LatitudeDegrees>42.7164187096059322357177734375</LatitudeDegrees>
              <LongitudeDegrees>-0.2045313455164432525634765625</LongitudeDegrees>
            </Position>
            <AltitudeMeters>2190.199951171875</AltitudeMeters>
            <DistanceMeters>NAN</DistanceMeters>
          </Trackpoint>
          <Trackpoint>
            <Time>2021-07-17T15:22:44.000Z</Time>
            <Position>
              <LatitudeDegrees>42.716419883072376251220703125</LatitudeDegrees>
              <LongitudeDegrees>-0.20452916622161865234375</LongitudeDegrees>
            </Position>
            <AltitudeMeters>2190.199951171875</AltitudeMeters>
            <DistanceMeters>NAN</DistanceMeters>
          </Trackpoint>
          <Trackpoint>
            <Time>2021-07-17T15:22:58.000Z</Time>
            <Position>
              <LatitudeDegrees>42.7164207212626934051513671875</LatitudeDegrees>
              <LongitudeDegrees>-0.204528160393238067626953125</LongitudeDegrees>
            </Position>
            <AltitudeMeters>2190.39990234375</AltitudeMeters>
            <DistanceMeters>NAN</DistanceMeters>
          </Trackpoint>
          <Trackpoint>
            <Time>2021-07-17T15:23:01.000Z</Time>
            <Position>
              <LatitudeDegrees>42.7164208889007568359375</LatitudeDegrees>
              <LongitudeDegrees>-0.2045279927551746368408203125</LongitudeDegrees>
            </Position>
            <AltitudeMeters>2190.39990234375</AltitudeMeters>
            <DistanceMeters>NAN</DistanceMeters>
          </Trackpoint>
          <Trackpoint>
            <Time>2021-07-17T15:23:09.000Z</Time>
            <Position>
              <LatitudeDegrees>42.71642147563397884368896484375</LatitudeDegrees>
              <LongitudeDegrees>-0.20452740602195262908935546875</LongitudeDegrees>
            </Position>
            <AltitudeMeters>2190.39990234375</AltitudeMeters>
            <DistanceMeters>NAN</DistanceMeters>
          </Trackpoint>
          <Trackpoint>
            <Time>2021-07-17T15:23:21.000Z</Time>
            <Position>
              <LatitudeDegrees>42.7164817415177822113037109375</LatitudeDegrees>
              <LongitudeDegrees>-0.20436714403331279754638671875</LongitudeDegrees>
            </Position>
            <AltitudeMeters>2194.60009765625</AltitudeMeters>
            <DistanceMeters>NAN</DistanceMeters>
          </Trackpoint>
          <Trackpoint>
            <Time>2021-07-17T15:23:24.000Z</Time>
            <Position>
              <LatitudeDegrees>42.71650160662829875946044921875</LatitudeDegrees>
              <LongitudeDegrees>-0.20428533665835857391357421875</LongitudeDegrees>
            </Position>
            <AltitudeMeters>2197.39990234375</AltitudeMeters>
            <DistanceMeters>NAN</DistanceMeters>
          </Trackpoint>
          <Trackpoint>
            <Time>2021-07-17T15:23:28.000Z</Time>
            <Position>
              <LatitudeDegrees>42.71651585586369037628173828125</LatitudeDegrees>
              <LongitudeDegrees>-0.20424015820026397705078125</LongitudeDegrees>
            </Position>
            <AltitudeMeters>2199</AltitudeMeters>
            <DistanceMeters>NAN</DistanceMeters>
          </Trackpoint>
          <Trackpoint>
            <Time>2021-07-17T15:23:31.000Z</Time>
            <Position>
              <LatitudeDegrees>42.71652440540492534637451171875</LatitudeDegrees>
              <LongitudeDegrees>-0.204219706356525421142578125</LongitudeDegrees>
            </Position>
            <AltitudeMeters>2199.60009765625</AltitudeMeters>
            <DistanceMeters>NAN</DistanceMeters>
          </Trackpoint>
          <Trackpoint>
            <Time>2021-07-17T15:23:33.000Z</Time>
            <Position>
              <LatitudeDegrees>42.71653831936419010162353515625</LatitudeDegrees>
              <LongitudeDegrees>-0.2042019367218017578125</LongitudeDegrees>
            </Position>
            <AltitudeMeters>2200.199951171875</AltitudeMeters>
            <DistanceMeters>NAN</DistanceMeters>
          </Trackpoint>
          <Trackpoint>
            <Time>2021-07-17T15:23:40.000Z</Time>
            <Position>
              <LatitudeDegrees>42.7165665663778781890869140625</LatitudeDegrees>
              <LongitudeDegrees>-0.204164721071720123291015625</LongitudeDegrees>
            </Position>
            <AltitudeMeters>2201.39990234375</AltitudeMeters>
            <DistanceMeters>NAN</DistanceMeters>
          </Trackpoint>
          <Trackpoint>
            <Time>2021-07-17T15:23:44.000Z</Time>
            <Position>
              <LatitudeDegrees>42.71656346507370471954345703125</LatitudeDegrees>
              <LongitudeDegrees>-0.2041561715304851531982421875</LongitudeDegrees>
            </Position>
            <AltitudeMeters>2201.60009765625</AltitudeMeters>
            <DistanceMeters>NAN</DistanceMeters>
          </Trackpoint>
          <Trackpoint>
            <Time>2021-07-17T15:23:47.000Z</Time>
            <Position>
              <LatitudeDegrees>42.7165665663778781890869140625</LatitudeDegrees>
              <LongitudeDegrees>-0.2041501365602016448974609375</LongitudeDegrees>
            </Position>
            <AltitudeMeters>2201.800048828125</AltitudeMeters>
            <DistanceMeters>NAN</DistanceMeters>
          </Trackpoint>
          <Trackpoint>
            <Time>2021-07-17T15:23:51.000Z</Time>
            <Position>
              <LatitudeDegrees>42.71657050587236881256103515625</LatitudeDegrees>
              <LongitudeDegrees>-0.20414887927472591400146484375</LongitudeDegrees>
            </Position>
            <AltitudeMeters>2202</AltitudeMeters>
            <DistanceMeters>NAN</DistanceMeters>
          </Trackpoint>
          <Trackpoint>
            <Time>2021-07-17T15:23:54.000Z</Time>
            <Position>
              <LatitudeDegrees>42.71656547673046588897705078125</LatitudeDegrees>
              <LongitudeDegrees>-0.20415307022631168365478515625</LongitudeDegrees>
            </Position>
            <AltitudeMeters>2201.800048828125</AltitudeMeters>
            <DistanceMeters>NAN</DistanceMeters>
          </Trackpoint>
          <Trackpoint>
            <Time>2021-07-17T15:23:59.000Z</Time>
            <Position>
              <LatitudeDegrees>42.716570086777210235595703125</LatitudeDegrees>
              <LongitudeDegrees>-0.20416027866303920745849609375</LongitudeDegrees>
            </Position>
            <AltitudeMeters>2201.60009765625</AltitudeMeters>
            <DistanceMeters>NAN</DistanceMeters>
          </Trackpoint>
          <Trackpoint>
            <Time>2021-07-17T15:24:03.000Z</Time>
            <Position>
              <LatitudeDegrees>42.71658810786902904510498046875</LatitudeDegrees>
              <LongitudeDegrees>-0.204141922295093536376953125</LongitudeDegrees>
            </Position>
            <AltitudeMeters>2202.199951171875</AltitudeMeters>
            <DistanceMeters>NAN</DistanceMeters>
          </Trackpoint>
          <Trackpoint>
            <Time>2021-07-17T15:24:11.000Z</Time>
            <Position>
              <LatitudeDegrees>42.7166104875504970550537109375</LatitudeDegrees>
              <LongitudeDegrees>-0.20411334000527858734130859375</LongitudeDegrees>
            </Position>
            <AltitudeMeters>2203</AltitudeMeters>
            <DistanceMeters>NAN</DistanceMeters>
          </Trackpoint>
          <Trackpoint>
            <Time>2021-07-17T15:24:12.000Z</Time>
            <Position>
              <LatitudeDegrees>42.7166098169982433319091796875</LatitudeDegrees>
              <LongitudeDegrees>-0.20411568693816661834716796875</LongitudeDegrees>
            </Position>
            <AltitudeMeters>2203</AltitudeMeters>
            <DistanceMeters>NAN</DistanceMeters>
          </Trackpoint>
          <Trackpoint>
            <Time>2021-07-17T15:24:24.000Z</Time>
            <Position>
              <LatitudeDegrees>42.71660931408405303955078125</LatitudeDegrees>
              <LongitudeDegrees>-0.20411233417689800262451171875</LongitudeDegrees>
            </Position>
            <AltitudeMeters>2203</AltitudeMeters>
            <DistanceMeters>NAN</DistanceMeters>
          </Trackpoint>
          <Trackpoint>
            <Time>2021-07-17T15:24:26.000Z</Time>
            <Position>
              <LatitudeDegrees>42.71660931408405303955078125</LatitudeDegrees>
              <LongitudeDegrees>-0.20411233417689800262451171875</LongitudeDegrees>
            </Position>
            <AltitudeMeters>2203</AltitudeMeters>
            <DistanceMeters>NAN</DistanceMeters>
          </Trackpoint>
          <Trackpoint>
            <Time>2021-07-17T15:24:31.000Z</Time>
            <Position>
              <LatitudeDegrees>42.7166094817221164703369140625</LatitudeDegrees>
              <LongitudeDegrees>-0.20411233417689800262451171875</LongitudeDegrees>
            </Position>
            <AltitudeMeters>2203</AltitudeMeters>
            <DistanceMeters>NAN</DistanceMeters>
          </Trackpoint>
          <Trackpoint>
            <Time>2021-07-17T15:24:33.000Z</Time>
            <Position>
              <LatitudeDegrees>42.7166098169982433319091796875</LatitudeDegrees>
              <LongitudeDegrees>-0.20411233417689800262451171875</LongitudeDegrees>
            </Position>
            <AltitudeMeters>2203</AltitudeMeters>
            <DistanceMeters>NAN</DistanceMeters>
          </Trackpoint>
          <Trackpoint>
            <Time>2021-07-17T15:24:36.000Z</Time>
            <Position>
              <LatitudeDegrees>42.7166104875504970550537109375</LatitudeDegrees>
              <LongitudeDegrees>-0.20411409437656402587890625</LongitudeDegrees>
            </Position>
            <AltitudeMeters>2203</AltitudeMeters>
            <DistanceMeters>NAN</DistanceMeters>
          </Trackpoint>
          <Trackpoint>
            <Time>2021-07-17T15:24:45.000Z</Time>
            <Position>
              <LatitudeDegrees>42.71661694161593914031982421875</LatitudeDegrees>
              <LongitudeDegrees>-0.20411166362464427947998046875</LongitudeDegrees>
            </Position>
            <AltitudeMeters>2203.199951171875</AltitudeMeters>
            <DistanceMeters>NAN</DistanceMeters>
          </Trackpoint>
          <Trackpoint>
            <Time>2021-07-17T15:24:48.000Z</Time>
            <Position>
              <LatitudeDegrees>42.71662029437720775604248046875</LatitudeDegrees>
              <LongitudeDegrees>-0.204111076891422271728515625</LongitudeDegrees>
            </Position>
            <AltitudeMeters>2203.199951171875</AltitudeMeters>
            <DistanceMeters>NAN</DistanceMeters>
          </Trackpoint>
          <Trackpoint>
            <Time>2021-07-17T15:24:53.000Z</Time>
            <Position>
              <LatitudeDegrees>42.71663873456418514251708984375</LatitudeDegrees>
              <LongitudeDegrees>-0.20410277880728244781494140625</LongitudeDegrees>
            </Position>
            <AltitudeMeters>2203.39990234375</AltitudeMeters>
            <DistanceMeters>NAN</DistanceMeters>
          </Trackpoint>
          <Trackpoint>
            <Time>2021-07-17T15:25:12.000Z</Time>
            <Position>
              <LatitudeDegrees>42.7167741023004055023193359375</LatitudeDegrees>
              <LongitudeDegrees>-0.20400144159793853759765625</LongitudeDegrees>
            </Position>
            <AltitudeMeters>2206.800048828125</AltitudeMeters>
            <DistanceMeters>NAN</DistanceMeters>
          </Trackpoint>
          <Trackpoint>
            <Time>2021-07-17T15:25:21.000Z</Time>
            <Position>
              <LatitudeDegrees>42.716871164739131927490234375</LatitudeDegrees>
              <LongitudeDegrees>-0.20393849350512027740478515625</LongitudeDegrees>
            </Position>
            <AltitudeMeters>2207.800048828125</AltitudeMeters>
            <DistanceMeters>NAN</DistanceMeters>
          </Trackpoint>
          <Trackpoint>
            <Time>2021-07-17T15:25:30.000Z</Time>
            <Position>
              <LatitudeDegrees>42.71693126298487186431884765625</LatitudeDegrees>
              <LongitudeDegrees>-0.2039013616740703582763671875</LongitudeDegrees>
            </Position>
            <AltitudeMeters>2208.199951171875</AltitudeMeters>
            <DistanceMeters>NAN</DistanceMeters>
          </Trackpoint>
          <Trackpoint>
            <Time>2021-07-17T15:25:32.000Z</Time>
            <Position>
              <LatitudeDegrees>42.716942913830280303955078125</LatitudeDegrees>
              <LongitudeDegrees>-0.2038916386663913726806640625</LongitudeDegrees>
            </Position>
            <AltitudeMeters>2208.39990234375</AltitudeMeters>
            <DistanceMeters>NAN</DistanceMeters>
          </Trackpoint>
          <Trackpoint>
            <Time>2021-07-17T15:25:34.000Z</Time>
            <Position>
              <LatitudeDegrees>42.71695339120924472808837890625</LatitudeDegrees>
              <LongitudeDegrees>-0.203889794647693634033203125</LongitudeDegrees>
            </Position>
            <AltitudeMeters>2208.39990234375</AltitudeMeters>
            <DistanceMeters>NAN</DistanceMeters>
          </Trackpoint>
          <Trackpoint>
            <Time>2021-07-17T15:25:38.000Z</Time>
            <Position>
              <LatitudeDegrees>42.7169870026409626007080078125</LatitudeDegrees>
              <LongitudeDegrees>-0.2038859389722347259521484375</LongitudeDegrees>
            </Position>
            <AltitudeMeters>2207.800048828125</AltitudeMeters>
            <DistanceMeters>NAN</DistanceMeters>
          </Trackpoint>
          <Trackpoint>
            <Time>2021-07-17T15:25:39.000Z</Time>
            <Position>
              <LatitudeDegrees>42.71699345670640468597412109375</LatitudeDegrees>
              <LongitudeDegrees>-0.2038835920393466949462890625</LongitudeDegrees>
            </Position>
            <AltitudeMeters>2207.800048828125</AltitudeMeters>
            <DistanceMeters>NAN</DistanceMeters>
          </Trackpoint>
          <Trackpoint>
            <Time>2021-07-17T15:25:46.000Z</Time>
            <Position>
              <LatitudeDegrees>42.71705715917050838470458984375</LatitudeDegrees>
              <LongitudeDegrees>-0.20385450683534145355224609375</LongitudeDegrees>
            </Position>
            <AltitudeMeters>2208.39990234375</AltitudeMeters>
            <DistanceMeters>NAN</DistanceMeters>
          </Trackpoint>
          <Trackpoint>
            <Time>2021-07-17T15:25:56.000Z</Time>
            <Position>
              <LatitudeDegrees>42.71712354384362697601318359375</LatitudeDegrees>
              <LongitudeDegrees>-0.203836150467395782470703125</LongitudeDegrees>
            </Position>
            <AltitudeMeters>2208.39990234375</AltitudeMeters>
            <DistanceMeters>NAN</DistanceMeters>
          </Trackpoint>
          <Trackpoint>
            <Time>2021-07-17T15:26:06.000Z</Time>
            <Position>
              <LatitudeDegrees>42.71717928349971771240234375</LatitudeDegrees>
              <LongitudeDegrees>-0.20386104471981525421142578125</LongitudeDegrees>
            </Position>
            <AltitudeMeters>2206.800048828125</AltitudeMeters>
            <DistanceMeters>NAN</DistanceMeters>
          </Trackpoint>
          <Trackpoint>
            <Time>2021-07-17T15:26:13.000Z</Time>
            <Position>
              <LatitudeDegrees>42.71723384968936443328857421875</LatitudeDegrees>
              <LongitudeDegrees>-0.20385886542499065399169921875</LongitudeDegrees>
            </Position>
            <AltitudeMeters>2206.199951171875</AltitudeMeters>
            <DistanceMeters>NAN</DistanceMeters>
          </Trackpoint>
          <Trackpoint>
            <Time>2021-07-17T15:26:14.000Z</Time>
            <Position>
              <LatitudeDegrees>42.7172424830496311187744140625</LatitudeDegrees>
              <LongitudeDegrees>-0.20385551266372203826904296875</LongitudeDegrees>
            </Position>
            <AltitudeMeters>2206.39990234375</AltitudeMeters>
            <DistanceMeters>NAN</DistanceMeters>
          </Trackpoint>
          <Trackpoint>
            <Time>2021-07-17T15:26:17.000Z</Time>
            <Position>
              <LatitudeDegrees>42.71725916303694248199462890625</LatitudeDegrees>
              <LongitudeDegrees>-0.203845202922821044921875</LongitudeDegrees>
            </Position>
            <AltitudeMeters>2206.60009765625</AltitudeMeters>
            <DistanceMeters>NAN</DistanceMeters>
          </Trackpoint>
          <Trackpoint>
            <Time>2021-07-17T15:26:22.000Z</Time>
            <Position>
              <LatitudeDegrees>42.7172820456326007843017578125</LatitudeDegrees>
              <LongitudeDegrees>-0.2038289420306682586669921875</LongitudeDegrees>
            </Position>
            <AltitudeMeters>2207.199951171875</AltitudeMeters>
            <DistanceMeters>NAN</DistanceMeters>
          </Trackpoint>
          <Trackpoint>
            <Time>2021-07-17T15:26:23.000Z</Time>
            <Position>
              <LatitudeDegrees>42.7172884158790111541748046875</LatitudeDegrees>
              <LongitudeDegrees>-0.20383179187774658203125</LongitudeDegrees>
            </Position>
            <AltitudeMeters>2207.199951171875</AltitudeMeters>
            <DistanceMeters>NAN</DistanceMeters>
          </Trackpoint>
          <Trackpoint>
            <Time>2021-07-17T15:26:25.000Z</Time>
            <Position>
              <LatitudeDegrees>42.7173035033047199249267578125</LatitudeDegrees>
              <LongitudeDegrees>-0.2038329653441905975341796875</LongitudeDegrees>
            </Position>
            <AltitudeMeters>2207.60009765625</AltitudeMeters>
            <DistanceMeters>NAN</DistanceMeters>
          </Trackpoint>
          <Trackpoint>
            <Time>2021-07-17T15:26:27.000Z</Time>
            <Position>
              <LatitudeDegrees>42.71731381304562091827392578125</LatitudeDegrees>
              <LongitudeDegrees>-0.20383304916322231292724609375</LongitudeDegrees>
            </Position>
            <AltitudeMeters>2207.800048828125</AltitudeMeters>
            <DistanceMeters>NAN</DistanceMeters>
          </Trackpoint>
          <Trackpoint>
            <Time>2021-07-17T15:26:29.000Z</Time>
            <Position>
              <LatitudeDegrees>42.717328481376171112060546875</LatitudeDegrees>
              <LongitudeDegrees>-0.2038312889635562896728515625</LongitudeDegrees>
            </Position>
            <AltitudeMeters>2208.199951171875</AltitudeMeters>
            <DistanceMeters>NAN</DistanceMeters>
          </Trackpoint>
          <Trackpoint>
            <Time>2021-07-17T15:26:32.000Z</Time>
            <Position>
              <LatitudeDegrees>42.71735337562859058380126953125</LatitudeDegrees>
              <LongitudeDegrees>-0.20383003167808055877685546875</LongitudeDegrees>
            </Position>
            <AltitudeMeters>2209</AltitudeMeters>
            <DistanceMeters>NAN</DistanceMeters>
          </Trackpoint>
          <Trackpoint>
            <Time>2021-07-17T15:26:33.000Z</Time>
            <Position>
              <LatitudeDegrees>42.7173605002462863922119140625</LatitudeDegrees>
              <LongitudeDegrees>-0.20382852293550968170166015625</LongitudeDegrees>
            </Position>
            <AltitudeMeters>2209.199951171875</AltitudeMeters>
            <DistanceMeters>NAN</DistanceMeters>
          </Trackpoint>
          <Trackpoint>
            <Time>2021-07-17T15:26:36.000Z</Time>
            <Position>
              <LatitudeDegrees>42.717380113899707794189453125</LatitudeDegrees>
              <LongitudeDegrees>-0.20381762646138668060302734375</LongitudeDegrees>
            </Position>
            <AltitudeMeters>2210</AltitudeMeters>
            <DistanceMeters>NAN</DistanceMeters>
          </Trackpoint>
          <Trackpoint>
            <Time>2021-07-17T15:26:40.000Z</Time>
            <Position>
              <LatitudeDegrees>42.71740450523793697357177734375</LatitudeDegrees>
              <LongitudeDegrees>-0.2038058079779148101806640625</LongitudeDegrees>
            </Position>
            <AltitudeMeters>2211.199951171875</AltitudeMeters>
            <DistanceMeters>NAN</DistanceMeters>
          </Trackpoint>
          <Trackpoint>
            <Time>2021-07-17T15:26:41.000Z</Time>
            <Position>
              <LatitudeDegrees>42.7174074389040470123291015625</LatitudeDegrees>
              <LongitudeDegrees>-0.20380086265504360198974609375</LongitudeDegrees>
            </Position>
            <AltitudeMeters>2211.39990234375</AltitudeMeters>
            <DistanceMeters>NAN</DistanceMeters>
          </Trackpoint>
          <Trackpoint>
            <Time>2021-07-17T15:26:49.000Z</Time>
            <Position>
              <LatitudeDegrees>42.7174191735684871673583984375</LatitudeDegrees>
              <LongitudeDegrees>-0.2037501521408557891845703125</LongitudeDegrees>
            </Position>
            <AltitudeMeters>2213.60009765625</AltitudeMeters>
            <DistanceMeters>NAN</DistanceMeters>
          </Trackpoint>
          <Trackpoint>
            <Time>2021-07-17T15:26:55.000Z</Time>
            <Position>
              <LatitudeDegrees>42.71743417717516422271728515625</LatitudeDegrees>
              <LongitudeDegrees>-0.20373053848743438720703125</LongitudeDegrees>
            </Position>
            <AltitudeMeters>2214.800048828125</AltitudeMeters>
            <DistanceMeters>NAN</DistanceMeters>
          </Trackpoint>
          <Trackpoint>
            <Time>2021-07-17T15:27:02.000Z</Time>
            <Position>
              <LatitudeDegrees>42.7174426428973674774169921875</LatitudeDegrees>
              <LongitudeDegrees>-0.2036965079605579376220703125</LongitudeDegrees>
            </Position>
            <AltitudeMeters>2216.39990234375</AltitudeMeters>
            <DistanceMeters>NAN</DistanceMeters>
          </Trackpoint>
          <Trackpoint>
            <Time>2021-07-17T15:27:06.000Z</Time>
            <Position>
              <LatitudeDegrees>42.71745018661022186279296875</LatitudeDegrees>
              <LongitudeDegrees>-0.203687958419322967529296875</LongitudeDegrees>
            </Position>
            <AltitudeMeters>2217</AltitudeMeters>
            <DistanceMeters>NAN</DistanceMeters>
          </Trackpoint>
          <Trackpoint>
            <Time>2021-07-17T15:27:10.000Z</Time>
            <Position>
              <LatitudeDegrees>42.7174486778676509857177734375</LatitudeDegrees>
              <LongitudeDegrees>-0.2036901377141475677490234375</LongitudeDegrees>
            </Position>
            <AltitudeMeters>2216.800048828125</AltitudeMeters>
            <DistanceMeters>NAN</DistanceMeters>
          </Trackpoint>
          <Trackpoint>
            <Time>2021-07-17T15:27:17.000Z</Time>
            <Position>
              <LatitudeDegrees>42.7174691297113895416259765625</LatitudeDegrees>
              <LongitudeDegrees>-0.20367060787975788116455078125</LongitudeDegrees>
            </Position>
            <AltitudeMeters>2218</AltitudeMeters>
            <DistanceMeters>NAN</DistanceMeters>
          </Trackpoint>
          <Trackpoint>
            <Time>2021-07-17T15:27:21.000Z</Time>
            <Position>
              <LatitudeDegrees>42.71747457794845104217529296875</LatitudeDegrees>
              <LongitudeDegrees>-0.20366557873785495758056640625</LongitudeDegrees>
            </Position>
            <AltitudeMeters>2218.39990234375</AltitudeMeters>
            <DistanceMeters>NAN</DistanceMeters>
          </Trackpoint>
          <Trackpoint>
            <Time>2021-07-17T15:27:27.000Z</Time>
            <Position>
              <LatitudeDegrees>42.717494778335094451904296875</LatitudeDegrees>
              <LongitudeDegrees>-0.2036629803478717803955078125</LongitudeDegrees>
            </Position>
            <AltitudeMeters>2219</AltitudeMeters>
            <DistanceMeters>NAN</DistanceMeters>
          </Trackpoint>
          <Trackpoint>
            <Time>2021-07-17T15:27:37.000Z</Time>
            <Position>
              <LatitudeDegrees>42.71752168424427509307861328125</LatitudeDegrees>
              <LongitudeDegrees>-0.203710086643695831298828125</LongitudeDegrees>
            </Position>
            <AltitudeMeters>2217.800048828125</AltitudeMeters>
            <DistanceMeters>NAN</DistanceMeters>
          </Trackpoint>
          <Trackpoint>
            <Time>2021-07-17T15:27:44.000Z</Time>
            <Position>
              <LatitudeDegrees>42.717570550739765167236328125</LatitudeDegrees>
              <LongitudeDegrees>-0.2037136070430278778076171875</LongitudeDegrees>
            </Position>
            <AltitudeMeters>2218.60009765625</AltitudeMeters>
            <DistanceMeters>NAN</DistanceMeters>
          </Trackpoint>
          <Trackpoint>
            <Time>2021-07-17T15:27:51.000Z</Time>
            <Position>
              <LatitudeDegrees>42.71761824376881122589111328125</LatitudeDegrees>
              <LongitudeDegrees>-0.20370212383568286895751953125</LongitudeDegrees>
            </Position>
            <AltitudeMeters>2219</AltitudeMeters>
            <DistanceMeters>NAN</DistanceMeters>
          </Trackpoint>
          <Trackpoint>
            <Time>2021-07-17T15:27:57.000Z</Time>
            <Position>
              <LatitudeDegrees>42.71766074001789093017578125</LatitudeDegrees>
              <LongitudeDegrees>-0.20369675941765308380126953125</LongitudeDegrees>
            </Position>
            <AltitudeMeters>2219</AltitudeMeters>
            <DistanceMeters>NAN</DistanceMeters>
          </Trackpoint>
          <Trackpoint>
            <Time>2021-07-17T15:28:07.000Z</Time>
            <Position>
              <LatitudeDegrees>42.717710696160793304443359375</LatitudeDegrees>
              <LongitudeDegrees>-0.20372358150780200958251953125</LongitudeDegrees>
            </Position>
            <AltitudeMeters>2219</AltitudeMeters>
            <DistanceMeters>NAN</DistanceMeters>
          </Trackpoint>
          <Trackpoint>
            <Time>2021-07-17T15:28:13.000Z</Time>
            <Position>
              <LatitudeDegrees>42.71772469393908977508544921875</LatitudeDegrees>
              <LongitudeDegrees>-0.20372592844069004058837890625</LongitudeDegrees>
            </Position>
            <AltitudeMeters>2219.199951171875</AltitudeMeters>
            <DistanceMeters>NAN</DistanceMeters>
          </Trackpoint>
          <Trackpoint>
            <Time>2021-07-17T15:28:24.000Z</Time>
            <Position>
              <LatitudeDegrees>42.71777180023491382598876953125</LatitudeDegrees>
              <LongitudeDegrees>-0.2037494815886020660400390625</LongitudeDegrees>
            </Position>
            <AltitudeMeters>2219.199951171875</AltitudeMeters>
            <DistanceMeters>NAN</DistanceMeters>
          </Trackpoint>
          <Trackpoint>
            <Time>2021-07-17T15:28:33.000Z</Time>
            <Position>
              <LatitudeDegrees>42.717807926237583160400390625</LatitudeDegrees>
              <LongitudeDegrees>-0.203747637569904327392578125</LongitudeDegrees>
            </Position>
            <AltitudeMeters>2219.800048828125</AltitudeMeters>
            <DistanceMeters>NAN</DistanceMeters>
          </Trackpoint>
          <Trackpoint>
            <Time>2021-07-17T15:28:40.000Z</Time>
            <Position>
              <LatitudeDegrees>42.71784774027764797210693359375</LatitudeDegrees>
              <LongitudeDegrees>-0.2037588693201541900634765625</LongitudeDegrees>
            </Position>
            <AltitudeMeters>2220.39990234375</AltitudeMeters>
            <DistanceMeters>NAN</DistanceMeters>
          </Trackpoint>
          <Trackpoint>
            <Time>2021-07-17T15:28:48.000Z</Time>
            <Position>
              <LatitudeDegrees>42.7178925834596157073974609375</LatitudeDegrees>
              <LongitudeDegrees>-0.20380438305437564849853515625</LongitudeDegrees>
            </Position>
            <AltitudeMeters>2220.39990234375</AltitudeMeters>
            <DistanceMeters>NAN</DistanceMeters>
          </Trackpoint>
          <Trackpoint>
            <Time>2021-07-17T15:28:57.000Z</Time>
            <Position>
              <LatitudeDegrees>42.71795636974275112152099609375</LatitudeDegrees>
              <LongitudeDegrees>-0.2038265950977802276611328125</LongitudeDegrees>
            </Position>
            <AltitudeMeters>2221.199951171875</AltitudeMeters>
            <DistanceMeters>NAN</DistanceMeters>
          </Trackpoint>
          <Trackpoint>
            <Time>2021-07-17T15:29:06.000Z</Time>
            <Position>
              <LatitudeDegrees>42.717986963689327239990234375</LatitudeDegrees>
              <LongitudeDegrees>-0.2038765512406826019287109375</LongitudeDegrees>
            </Position>
            <AltitudeMeters>2220.199951171875</AltitudeMeters>
            <DistanceMeters>NAN</DistanceMeters>
          </Trackpoint>
          <Trackpoint>
            <Time>2021-07-17T15:29:18.000Z</Time>
            <Position>
              <LatitudeDegrees>42.71800213493406772613525390625</LatitudeDegrees>
              <LongitudeDegrees>-0.20397956483066082000732421875</LongitudeDegrees>
            </Position>
            <AltitudeMeters>2217.199951171875</AltitudeMeters>
            <DistanceMeters>NAN</DistanceMeters>
          </Trackpoint>
          <Trackpoint>
            <Time>2021-07-17T15:29:25.000Z</Time>
            <Position>
              <LatitudeDegrees>42.7180166356265544891357421875</LatitudeDegrees>
              <LongitudeDegrees>-0.2039818279445171356201171875</LongitudeDegrees>
            </Position>
            <AltitudeMeters>2217.39990234375</AltitudeMeters>
            <DistanceMeters>NAN</DistanceMeters>
          </Trackpoint>
          <Trackpoint>
            <Time>2021-07-17T15:29:39.000Z</Time>
            <Position>
              <LatitudeDegrees>42.7180181443691253662109375</LatitudeDegrees>
              <LongitudeDegrees>-0.2040354721248149871826171875</LongitudeDegrees>
            </Position>
            <AltitudeMeters>2215.800048828125</AltitudeMeters>
            <DistanceMeters>NAN</DistanceMeters>
          </Trackpoint>
          <Trackpoint>
            <Time>2021-07-17T15:29:42.000Z</Time>
            <Position>
              <LatitudeDegrees>42.7180181443691253662109375</LatitudeDegrees>
              <LongitudeDegrees>-0.2040354721248149871826171875</LongitudeDegrees>
            </Position>
            <AltitudeMeters>2215.800048828125</AltitudeMeters>
            <DistanceMeters>NAN</DistanceMeters>
          </Trackpoint>
          <Trackpoint>
            <Time>2021-07-17T15:29:58.000Z</Time>
            <Position>
              <LatitudeDegrees>42.7180159650743007659912109375</LatitudeDegrees>
              <LongitudeDegrees>-0.20403974689543247222900390625</LongitudeDegrees>
            </Position>
            <AltitudeMeters>2215.60009765625</AltitudeMeters>
            <DistanceMeters>NAN</DistanceMeters>
          </Trackpoint>
          <Trackpoint>
            <Time>2021-07-17T15:30:01.000Z</Time>
            <Position>
              <LatitudeDegrees>42.7180159650743007659912109375</LatitudeDegrees>
              <LongitudeDegrees>-0.20403974689543247222900390625</LongitudeDegrees>
            </Position>
            <AltitudeMeters>2215.60009765625</AltitudeMeters>
            <DistanceMeters>NAN</DistanceMeters>
          </Trackpoint>
          <Trackpoint>
            <Time>2021-07-17T15:30:03.000Z</Time>
            <Position>
              <LatitudeDegrees>42.7180159650743007659912109375</LatitudeDegrees>
              <LongitudeDegrees>-0.20403974689543247222900390625</LongitudeDegrees>
            </Position>
            <AltitudeMeters>2215.60009765625</AltitudeMeters>
            <DistanceMeters>NAN</DistanceMeters>
          </Trackpoint>
          <Trackpoint>
            <Time>2021-07-17T15:30:05.000Z</Time>
            <Position>
              <LatitudeDegrees>42.7180206589400768280029296875</LatitudeDegrees>
              <LongitudeDegrees>-0.20403186790645122528076171875</LongitudeDegrees>
            </Position>
            <AltitudeMeters>2216</AltitudeMeters>
            <DistanceMeters>NAN</DistanceMeters>
          </Trackpoint>
          <Trackpoint>
            <Time>2021-07-17T15:30:15.000Z</Time>
            <Position>
              <LatitudeDegrees>42.7180471457540988922119140625</LatitudeDegrees>
              <LongitudeDegrees>-0.20392139442265033721923828125</LongitudeDegrees>
            </Position>
            <AltitudeMeters>2220.199951171875</AltitudeMeters>
            <DistanceMeters>NAN</DistanceMeters>
          </Trackpoint>
          <Trackpoint>
            <Time>2021-07-17T15:30:19.000Z</Time>
            <Position>
              <LatitudeDegrees>42.71805343218147754669189453125</LatitudeDegrees>
              <LongitudeDegrees>-0.20388870500028133392333984375</LongitudeDegrees>
            </Position>
            <AltitudeMeters>2221.60009765625</AltitudeMeters>
            <DistanceMeters>NAN</DistanceMeters>
          </Trackpoint>
          <Trackpoint>
            <Time>2021-07-17T15:30:40.000Z</Time>
            <Position>
              <LatitudeDegrees>42.718082182109355926513671875</LatitudeDegrees>
              <LongitudeDegrees>-0.2038651518523693084716796875</LongitudeDegrees>
            </Position>
            <AltitudeMeters>2223.199951171875</AltitudeMeters>
            <DistanceMeters>NAN</DistanceMeters>
          </Trackpoint>
          <Trackpoint>
            <Time>2021-07-17T15:30:45.000Z</Time>
            <Position>
              <LatitudeDegrees>42.71810003556311130523681640625</LatitudeDegrees>
              <LongitudeDegrees>-0.2038651518523693084716796875</LongitudeDegrees>
            </Position>
            <AltitudeMeters>2223.60009765625</AltitudeMeters>
            <DistanceMeters>NAN</DistanceMeters>
          </Trackpoint>
          <Trackpoint>
            <Time>2021-07-17T15:31:10.000Z</Time>
            <Position>
              <LatitudeDegrees>42.71813255734741687774658203125</LatitudeDegrees>
              <LongitudeDegrees>-0.20378996618092060089111328125</LongitudeDegrees>
            </Position>
            <AltitudeMeters>2227.199951171875</AltitudeMeters>
            <DistanceMeters>NAN</DistanceMeters>
          </Trackpoint>
          <Trackpoint>
            <Time>2021-07-17T15:31:21.000Z</Time>
            <Position>
              <LatitudeDegrees>42.71811805665493011474609375</LatitudeDegrees>
              <LongitudeDegrees>-0.2037052251398563385009765625</LongitudeDegrees>
            </Position>
            <AltitudeMeters>2228.60009765625</AltitudeMeters>
            <DistanceMeters>NAN</DistanceMeters>
          </Trackpoint>
          <Trackpoint>
            <Time>2021-07-17T15:31:27.000Z</Time>
            <Position>
              <LatitudeDegrees>42.71811797283589839935302734375</LatitudeDegrees>
              <LongitudeDegrees>-0.2036762237548828125</LongitudeDegrees>
            </Position>
            <AltitudeMeters>2229.39990234375</AltitudeMeters>
            <DistanceMeters>NAN</DistanceMeters>
          </Trackpoint>
          <Trackpoint>
            <Time>2021-07-17T15:31:38.000Z</Time>
            <Position>
              <LatitudeDegrees>42.7181366644799709320068359375</LatitudeDegrees>
              <LongitudeDegrees>-0.203673206269741058349609375</LongitudeDegrees>
            </Position>
            <AltitudeMeters>2230.39990234375</AltitudeMeters>
            <DistanceMeters>NAN</DistanceMeters>
          </Trackpoint>
          <Trackpoint>
            <Time>2021-07-17T15:32:12.000Z</Time>
            <Position>
              <LatitudeDegrees>42.7183012850582599639892578125</LatitudeDegrees>
              <LongitudeDegrees>-0.20360405556857585906982421875</LongitudeDegrees>
            </Position>
            <AltitudeMeters>2240.39990234375</AltitudeMeters>
            <DistanceMeters>NAN</DistanceMeters>
          </Trackpoint>
          <Trackpoint>
            <Time>2021-07-17T15:32:20.000Z</Time>
            <Position>
              <LatitudeDegrees>42.718365490436553955078125</LatitudeDegrees>
              <LongitudeDegrees>-0.20355460233986377716064453125</LongitudeDegrees>
            </Position>
            <AltitudeMeters>2245</AltitudeMeters>
            <DistanceMeters>NAN</DistanceMeters>
          </Trackpoint>
          <Trackpoint>
            <Time>2021-07-17T15:32:27.000Z</Time>
            <Position>
              <LatitudeDegrees>42.7183733694255352020263671875</LatitudeDegrees>
              <LongitudeDegrees>-0.203531049191951751708984375</LongitudeDegrees>
            </Position>
            <AltitudeMeters>2246</AltitudeMeters>
            <DistanceMeters>NAN</DistanceMeters>
          </Trackpoint>
          <Trackpoint>
            <Time>2021-07-17T15:32:33.000Z</Time>
            <Position>
              <LatitudeDegrees>42.71837110631167888641357421875</LatitudeDegrees>
              <LongitudeDegrees>-0.20352677442133426666259765625</LongitudeDegrees>
            </Position>
            <AltitudeMeters>2245.800048828125</AltitudeMeters>
            <DistanceMeters>NAN</DistanceMeters>
          </Trackpoint>
          <Trackpoint>
            <Time>2021-07-17T15:32:48.000Z</Time>
            <Position>
              <LatitudeDegrees>42.71837152540683746337890625</LatitudeDegrees>
              <LongitudeDegrees>-0.203529708087444305419921875</LongitudeDegrees>
            </Position>
            <AltitudeMeters>2245.800048828125</AltitudeMeters>
            <DistanceMeters>NAN</DistanceMeters>
          </Trackpoint>
          <Trackpoint>
            <Time>2021-07-17T15:33:18.000Z</Time>
            <Position>
              <LatitudeDegrees>42.71838954649865627288818359375</LatitudeDegrees>
              <LongitudeDegrees>-0.203539095818996429443359375</LongitudeDegrees>
            </Position>
            <AltitudeMeters>2246.39990234375</AltitudeMeters>
            <DistanceMeters>NAN</DistanceMeters>
          </Trackpoint>
          <Trackpoint>
            <Time>2021-07-17T15:33:20.000Z</Time>
            <Position>
              <LatitudeDegrees>42.718394659459590911865234375</LatitudeDegrees>
              <LongitudeDegrees>-0.203539095818996429443359375</LongitudeDegrees>
            </Position>
            <AltitudeMeters>2246.60009765625</AltitudeMeters>
            <DistanceMeters>NAN</DistanceMeters>
          </Trackpoint>
          <Trackpoint>
            <Time>2021-07-17T15:33:22.000Z</Time>
            <Position>
              <LatitudeDegrees>42.71839859895408153533935546875</LatitudeDegrees>
              <LongitudeDegrees>-0.203531719744205474853515625</LongitudeDegrees>
            </Position>
            <AltitudeMeters>2247</AltitudeMeters>
            <DistanceMeters>NAN</DistanceMeters>
          </Trackpoint>
          <Trackpoint>
            <Time>2021-07-17T15:33:45.000Z</Time>
            <Position>
              <LatitudeDegrees>42.71843531168997287750244140625</LatitudeDegrees>
              <LongitudeDegrees>-0.20346206612884998321533203125</LongitudeDegrees>
            </Position>
            <AltitudeMeters>2249.800048828125</AltitudeMeters>
            <DistanceMeters>NAN</DistanceMeters>
          </Trackpoint>
          <Trackpoint>
            <Time>2021-07-17T15:33:55.000Z</Time>
            <Position>
              <LatitudeDegrees>42.7184571884572505950927734375</LatitudeDegrees>
              <LongitudeDegrees>-0.203437171876430511474609375</LongitudeDegrees>
            </Position>
            <AltitudeMeters>2251</AltitudeMeters>
            <DistanceMeters>NAN</DistanceMeters>
          </Trackpoint>
          <Trackpoint>
            <Time>2021-07-17T15:34:04.000Z</Time>
            <Position>
              <LatitudeDegrees>42.71847319789230823516845703125</LatitudeDegrees>
              <LongitudeDegrees>-0.203430466353893280029296875</LongitudeDegrees>
            </Position>
            <AltitudeMeters>2251.39990234375</AltitudeMeters>
            <DistanceMeters>NAN</DistanceMeters>
          </Trackpoint>
          <Trackpoint>
            <Time>2021-07-17T15:34:15.000Z</Time>
            <Position>
              <LatitudeDegrees>42.71850387565791606903076171875</LatitudeDegrees>
              <LongitudeDegrees>-0.203427113592624664306640625</LongitudeDegrees>
            </Position>
            <AltitudeMeters>2252.199951171875</AltitudeMeters>
            <DistanceMeters>NAN</DistanceMeters>
          </Trackpoint>
          <Trackpoint>
            <Time>2021-07-17T15:34:20.000Z</Time>
            <Position>
              <LatitudeDegrees>42.718520052731037139892578125</LatitudeDegrees>
              <LongitudeDegrees>-0.203427113592624664306640625</LongitudeDegrees>
            </Position>
            <AltitudeMeters>2252.60009765625</AltitudeMeters>
            <DistanceMeters>NAN</DistanceMeters>
          </Trackpoint>
          <Trackpoint>
            <Time>2021-07-17T15:34:26.000Z</Time>
            <Position>
              <LatitudeDegrees>42.71853270940482616424560546875</LatitudeDegrees>
              <LongitudeDegrees>-0.20343155600130558013916015625</LongitudeDegrees>
            </Position>
            <AltitudeMeters>2252.60009765625</AltitudeMeters>
            <DistanceMeters>NAN</DistanceMeters>
          </Trackpoint>
          <Trackpoint>
            <Time>2021-07-17T15:34:43.000Z</Time>
            <Position>
              <LatitudeDegrees>42.71855869330465793609619140625</LatitudeDegrees>
              <LongitudeDegrees>-0.2034484036266803741455078125</LongitudeDegrees>
            </Position>
            <AltitudeMeters>2252.60009765625</AltitudeMeters>
            <DistanceMeters>NAN</DistanceMeters>
          </Trackpoint>
          <Trackpoint>
            <Time>2021-07-17T15:35:01.000Z</Time>
            <Position>
              <LatitudeDegrees>42.71862859837710857391357421875</LatitudeDegrees>
              <LongitudeDegrees>-0.2034510858356952667236328125</LongitudeDegrees>
            </Position>
            <AltitudeMeters>2253.800048828125</AltitudeMeters>
            <DistanceMeters>NAN</DistanceMeters>
          </Trackpoint>
          <Trackpoint>
            <Time>2021-07-17T15:35:28.000Z</Time>
            <Position>
              <LatitudeDegrees>42.71874301135540008544921875</LatitudeDegrees>
              <LongitudeDegrees>-0.2034427039325237274169921875</LongitudeDegrees>
            </Position>
            <AltitudeMeters>2252.199951171875</AltitudeMeters>
            <DistanceMeters>NAN</DistanceMeters>
          </Trackpoint>
          <Trackpoint>
            <Time>2021-07-17T15:35:36.000Z</Time>
            <Position>
              <LatitudeDegrees>42.71876337938010692596435546875</LatitudeDegrees>
              <LongitudeDegrees>-0.2034359984099864959716796875</LongitudeDegrees>
            </Position>
            <AltitudeMeters>2251.800048828125</AltitudeMeters>
            <DistanceMeters>NAN</DistanceMeters>
          </Trackpoint>
          <Trackpoint>
            <Time>2021-07-17T15:35:40.000Z</Time>
            <Position>
              <LatitudeDegrees>42.71877444349229335784912109375</LatitudeDegrees>
              <LongitudeDegrees>-0.203434489667415618896484375</LongitudeDegrees>
            </Position>
            <AltitudeMeters>2251.39990234375</AltitudeMeters>
            <DistanceMeters>NAN</DistanceMeters>
          </Trackpoint>
          <Trackpoint>
            <Time>2021-07-17T15:35:45.000Z</Time>
            <Position>
              <LatitudeDegrees>42.71878852508962154388427734375</LatitudeDegrees>
              <LongitudeDegrees>-0.20343423821032047271728515625</LongitudeDegrees>
            </Position>
            <AltitudeMeters>2251.199951171875</AltitudeMeters>
            <DistanceMeters>NAN</DistanceMeters>
          </Trackpoint>
          <Trackpoint>
            <Time>2021-07-17T15:35:49.000Z</Time>
            <Position>
              <LatitudeDegrees>42.71879640407860279083251953125</LatitudeDegrees>
              <LongitudeDegrees>-0.20343490876257419586181640625</LongitudeDegrees>
            </Position>
            <AltitudeMeters>2251</AltitudeMeters>
            <DistanceMeters>NAN</DistanceMeters>
          </Trackpoint>
          <Trackpoint>
            <Time>2021-07-17T15:35:57.000Z</Time>
            <Position>
              <LatitudeDegrees>42.7188013494014739990234375</LatitudeDegrees>
              <LongitudeDegrees>-0.203437507152557373046875</LongitudeDegrees>
            </Position>
            <AltitudeMeters>2250.800048828125</AltitudeMeters>
            <DistanceMeters>NAN</DistanceMeters>
          </Trackpoint>
          <Trackpoint>
            <Time>2021-07-17T15:36:01.000Z</Time>
            <Position>
              <LatitudeDegrees>42.718801684677600860595703125</LatitudeDegrees>
              <LongitudeDegrees>-0.2034376747906208038330078125</LongitudeDegrees>
            </Position>
            <AltitudeMeters>2250.800048828125</AltitudeMeters>
            <DistanceMeters>NAN</DistanceMeters>
          </Trackpoint>
          <Trackpoint>
            <Time>2021-07-17T15:36:06.000Z</Time>
            <Position>
              <LatitudeDegrees>42.71885843016207218170166015625</LatitudeDegrees>
              <LongitudeDegrees>-0.20341378636658191680908203125</LongitudeDegrees>
            </Position>
            <AltitudeMeters>2250</AltitudeMeters>
            <DistanceMeters>NAN</DistanceMeters>
          </Trackpoint>
          <Trackpoint>
            <Time>2021-07-17T15:36:15.000Z</Time>
            <Position>
              <LatitudeDegrees>42.71894711069762706756591796875</LatitudeDegrees>
              <LongitudeDegrees>-0.20334991626441478729248046875</LongitudeDegrees>
            </Position>
            <AltitudeMeters>2249.199951171875</AltitudeMeters>
            <DistanceMeters>NAN</DistanceMeters>
          </Trackpoint>
          <Trackpoint>
            <Time>2021-07-17T15:36:22.000Z</Time>
            <Position>
              <LatitudeDegrees>42.7189802192151546478271484375</LatitudeDegrees>
              <LongitudeDegrees>-0.20335913635790348052978515625</LongitudeDegrees>
            </Position>
            <AltitudeMeters>2248.199951171875</AltitudeMeters>
            <DistanceMeters>NAN</DistanceMeters>
          </Trackpoint>
          <Trackpoint>
            <Time>2021-07-17T15:36:26.000Z</Time>
            <Position>
              <LatitudeDegrees>42.7189852483570575714111328125</LatitudeDegrees>
              <LongitudeDegrees>-0.20337246358394622802734375</LongitudeDegrees>
            </Position>
            <AltitudeMeters>2247.800048828125</AltitudeMeters>
            <DistanceMeters>NAN</DistanceMeters>
          </Trackpoint>
          <Trackpoint>
            <Time>2021-07-17T15:36:32.000Z</Time>
            <Position>
              <LatitudeDegrees>42.718993127346038818359375</LatitudeDegrees>
              <LongitudeDegrees>-0.20336299203336238861083984375</LongitudeDegrees>
            </Position>
            <AltitudeMeters>2247.800048828125</AltitudeMeters>
            <DistanceMeters>NAN</DistanceMeters>
          </Trackpoint>
          <Trackpoint>
            <Time>2021-07-17T15:36:43.000Z</Time>
            <Position>
              <LatitudeDegrees>42.71896571852266788482666015625</LatitudeDegrees>
              <LongitudeDegrees>-0.2033833600580692291259765625</LongitudeDegrees>
            </Position>
            <AltitudeMeters>2248.199951171875</AltitudeMeters>
            <DistanceMeters>NAN</DistanceMeters>
          </Trackpoint>
          <Trackpoint>
            <Time>2021-07-17T15:36:54.000Z</Time>
            <Position>
              <LatitudeDegrees>42.71896773017942905426025390625</LatitudeDegrees>
              <LongitudeDegrees>-0.20337648689746856689453125</LongitudeDegrees>
            </Position>
            <AltitudeMeters>2248.199951171875</AltitudeMeters>
            <DistanceMeters>NAN</DistanceMeters>
          </Trackpoint>
          <Trackpoint>
            <Time>2021-07-17T15:37:00.000Z</Time>
            <Position>
              <LatitudeDegrees>42.71896840073168277740478515625</LatitudeDegrees>
              <LongitudeDegrees>-0.2033744752407073974609375</LongitudeDegrees>
            </Position>
            <AltitudeMeters>2248.199951171875</AltitudeMeters>
            <DistanceMeters>NAN</DistanceMeters>
          </Trackpoint>
          <Trackpoint>
            <Time>2021-07-17T15:37:43.000Z</Time>
            <Position>
              <LatitudeDegrees>42.7189715020358562469482421875</LatitudeDegrees>
              <LongitudeDegrees>-0.2033692784607410430908203125</LongitudeDegrees>
            </Position>
            <AltitudeMeters>2248.199951171875</AltitudeMeters>
            <DistanceMeters>NAN</DistanceMeters>
          </Trackpoint>
          <Trackpoint>
            <Time>2021-07-17T15:38:19.000Z</Time>
            <Position>
              <LatitudeDegrees>42.71897024475038051605224609375</LatitudeDegrees>
              <LongitudeDegrees>-0.20336039364337921142578125</LongitudeDegrees>
            </Position>
            <AltitudeMeters>2248.39990234375</AltitudeMeters>
            <DistanceMeters>NAN</DistanceMeters>
          </Trackpoint>
          <Trackpoint>
            <Time>2021-07-17T15:38:25.000Z</Time>
            <Position>
              <LatitudeDegrees>42.7190375514328479766845703125</LatitudeDegrees>
              <LongitudeDegrees>-0.203273557126522064208984375</LongitudeDegrees>
            </Position>
            <AltitudeMeters>2248</AltitudeMeters>
            <DistanceMeters>NAN</DistanceMeters>
          </Trackpoint>
          <Trackpoint>
            <Time>2021-07-17T15:38:28.000Z</Time>
            <Position>
              <LatitudeDegrees>42.71907736547291278839111328125</LatitudeDegrees>
              <LongitudeDegrees>-0.20321731455624103546142578125</LongitudeDegrees>
            </Position>
            <AltitudeMeters>2248</AltitudeMeters>
            <DistanceMeters>NAN</DistanceMeters>
          </Trackpoint>
          <Trackpoint>
            <Time>2021-07-17T15:38:30.000Z</Time>
            <Position>
              <LatitudeDegrees>42.71910636685788631439208984375</LatitudeDegrees>
              <LongitudeDegrees>-0.203174650669097900390625</LongitudeDegrees>
            </Position>
            <AltitudeMeters>2248.199951171875</AltitudeMeters>
            <DistanceMeters>NAN</DistanceMeters>
          </Trackpoint>
          <Trackpoint>
            <Time>2021-07-17T15:38:34.000Z</Time>
            <Position>
              <LatitudeDegrees>42.7191257290542125701904296875</LatitudeDegrees>
              <LongitudeDegrees>-0.2031277120113372802734375</LongitudeDegrees>
            </Position>
            <AltitudeMeters>2248.60009765625</AltitudeMeters>
            <DistanceMeters>NAN</DistanceMeters>
          </Trackpoint>
          <Trackpoint>
            <Time>2021-07-17T15:38:35.000Z</Time>
            <Position>
              <LatitudeDegrees>42.7191284112632274627685546875</LatitudeDegrees>
              <LongitudeDegrees>-0.203113965690135955810546875</LongitudeDegrees>
            </Position>
            <AltitudeMeters>2248.800048828125</AltitudeMeters>
            <DistanceMeters>NAN</DistanceMeters>
          </Trackpoint>
          <Trackpoint>
            <Time>2021-07-17T15:38:39.000Z</Time>
            <Position>
              <LatitudeDegrees>42.71914400160312652587890625</LatitudeDegrees>
              <LongitudeDegrees>-0.2030614949762821197509765625</LongitudeDegrees>
            </Position>
            <AltitudeMeters>2249.39990234375</AltitudeMeters>
            <DistanceMeters>NAN</DistanceMeters>
          </Trackpoint>
          <Trackpoint>
            <Time>2021-07-17T15:38:42.000Z</Time>
            <Position>
              <LatitudeDegrees>42.7191502042114734649658203125</LatitudeDegrees>
              <LongitudeDegrees>-0.20302520133554935455322265625</LongitudeDegrees>
            </Position>
            <AltitudeMeters>2250.60009765625</AltitudeMeters>
            <DistanceMeters>NAN</DistanceMeters>
          </Trackpoint>
          <Trackpoint>
            <Time>2021-07-17T15:38:44.000Z</Time>
            <Position>
              <LatitudeDegrees>42.71915137767791748046875</LatitudeDegrees>
              <LongitudeDegrees>-0.20300324074923992156982421875</LongitudeDegrees>
            </Position>
            <AltitudeMeters>2251.39990234375</AltitudeMeters>
            <DistanceMeters>NAN</DistanceMeters>
          </Trackpoint>
          <Trackpoint>
            <Time>2021-07-17T15:38:50.000Z</Time>
            <Position>
              <LatitudeDegrees>42.71914240904152393341064453125</LatitudeDegrees>
              <LongitudeDegrees>-0.20293517969548702239990234375</LongitudeDegrees>
            </Position>
            <AltitudeMeters>2253.60009765625</AltitudeMeters>
            <DistanceMeters>NAN</DistanceMeters>
          </Trackpoint>
          <Trackpoint>
            <Time>2021-07-17T15:38:53.000Z</Time>
            <Position>
              <LatitudeDegrees>42.7191458456218242645263671875</LatitudeDegrees>
              <LongitudeDegrees>-0.20291112363338470458984375</LongitudeDegrees>
            </Position>
            <AltitudeMeters>2253.800048828125</AltitudeMeters>
            <DistanceMeters>NAN</DistanceMeters>
          </Trackpoint>
          <Trackpoint>
            <Time>2021-07-17T15:38:55.000Z</Time>
            <Position>
              <LatitudeDegrees>42.7191582508385181427001953125</LatitudeDegrees>
              <LongitudeDegrees>-0.202892012894153594970703125</LongitudeDegrees>
            </Position>
            <AltitudeMeters>2253.39990234375</AltitudeMeters>
            <DistanceMeters>NAN</DistanceMeters>
          </Trackpoint>
          <Trackpoint>
            <Time>2021-07-17T15:38:58.000Z</Time>
            <Position>
              <LatitudeDegrees>42.7191679738461971282958984375</LatitudeDegrees>
              <LongitudeDegrees>-0.202851779758930206298828125</LongitudeDegrees>
            </Position>
            <AltitudeMeters>2253.60009765625</AltitudeMeters>
            <DistanceMeters>NAN</DistanceMeters>
          </Trackpoint>
          <Trackpoint>
            <Time>2021-07-17T15:39:02.000Z</Time>
            <Position>
              <LatitudeDegrees>42.71918649785220623016357421875</LatitudeDegrees>
              <LongitudeDegrees>-0.2027929387986660003662109375</LongitudeDegrees>
            </Position>
            <AltitudeMeters>2253.60009765625</AltitudeMeters>
            <DistanceMeters>NAN</DistanceMeters>
          </Trackpoint>
          <Trackpoint>
            <Time>2021-07-17T15:39:04.000Z</Time>
            <Position>
              <LatitudeDegrees>42.71918825805187225341796875</LatitudeDegrees>
              <LongitudeDegrees>-0.202767290174961090087890625</LongitudeDegrees>
            </Position>
            <AltitudeMeters>2253.800048828125</AltitudeMeters>
            <DistanceMeters>NAN</DistanceMeters>
          </Trackpoint>
          <Trackpoint>
            <Time>2021-07-17T15:39:06.000Z</Time>
            <Position>
              <LatitudeDegrees>42.719196975231170654296875</LatitudeDegrees>
              <LongitudeDegrees>-0.20273854024708271026611328125</LongitudeDegrees>
            </Position>
            <AltitudeMeters>2253.800048828125</AltitudeMeters>
            <DistanceMeters>NAN</DistanceMeters>
          </Trackpoint>
          <Trackpoint>
            <Time>2021-07-17T15:39:07.000Z</Time>
            <Position>
              <LatitudeDegrees>42.7192038483917713165283203125</LatitudeDegrees>
              <LongitudeDegrees>-0.2027200162410736083984375</LongitudeDegrees>
            </Position>
            <AltitudeMeters>2253.800048828125</AltitudeMeters>
            <DistanceMeters>NAN</DistanceMeters>
          </Trackpoint>
          <Trackpoint>
            <Time>2021-07-17T15:39:10.000Z</Time>
            <Position>
              <LatitudeDegrees>42.7192259766161441802978515625</LatitudeDegrees>
              <LongitudeDegrees>-0.20267500542104244232177734375</LongitudeDegrees>
            </Position>
            <AltitudeMeters>2253.199951171875</AltitudeMeters>
            <DistanceMeters>NAN</DistanceMeters>
          </Trackpoint>
          <Trackpoint>
            <Time>2021-07-17T15:39:15.000Z</Time>
            <Position>
              <LatitudeDegrees>42.71925958804786205291748046875</LatitudeDegrees>
              <LongitudeDegrees>-0.2026155777275562286376953125</LongitudeDegrees>
            </Position>
            <AltitudeMeters>2252</AltitudeMeters>
            <DistanceMeters>NAN</DistanceMeters>
          </Trackpoint>
          <Trackpoint>
            <Time>2021-07-17T15:39:23.000Z</Time>
            <Position>
              <LatitudeDegrees>42.71928272210061550140380859375</LatitudeDegrees>
              <LongitudeDegrees>-0.202507115900516510009765625</LongitudeDegrees>
            </Position>
            <AltitudeMeters>2251.39990234375</AltitudeMeters>
            <DistanceMeters>NAN</DistanceMeters>
          </Trackpoint>
          <Trackpoint>
            <Time>2021-07-17T15:39:30.000Z</Time>
            <Position>
              <LatitudeDegrees>42.71930971182882785797119140625</LatitudeDegrees>
              <LongitudeDegrees>-0.2024241350591182708740234375</LongitudeDegrees>
            </Position>
            <AltitudeMeters>2250.60009765625</AltitudeMeters>
            <DistanceMeters>NAN</DistanceMeters>
          </Trackpoint>
          <Trackpoint>
            <Time>2021-07-17T15:39:31.000Z</Time>
            <Position>
              <LatitudeDegrees>42.71931591443717479705810546875</LatitudeDegrees>
              <LongitudeDegrees>-0.20241667516529560089111328125</LongitudeDegrees>
            </Position>
            <AltitudeMeters>2250.39990234375</AltitudeMeters>
            <DistanceMeters>NAN</DistanceMeters>
          </Trackpoint>
          <Trackpoint>
            <Time>2021-07-17T15:39:38.000Z</Time>
            <Position>
              <LatitudeDegrees>42.71934625692665576934814453125</LatitudeDegrees>
              <LongitudeDegrees>-0.202344171702861785888671875</LongitudeDegrees>
            </Position>
            <AltitudeMeters>2249.39990234375</AltitudeMeters>
            <DistanceMeters>NAN</DistanceMeters>
          </Trackpoint>
          <Trackpoint>
            <Time>2021-07-17T15:39:39.000Z</Time>
            <Position>
              <LatitudeDegrees>42.7193553932011127471923828125</LatitudeDegrees>
              <LongitudeDegrees>-0.20233319140970706939697265625</LongitudeDegrees>
            </Position>
            <AltitudeMeters>2249</AltitudeMeters>
            <DistanceMeters>NAN</DistanceMeters>
          </Trackpoint>
          <Trackpoint>
            <Time>2021-07-17T15:39:47.000Z</Time>
            <Position>
              <LatitudeDegrees>42.71938196383416652679443359375</LatitudeDegrees>
              <LongitudeDegrees>-0.2022399008274078369140625</LongitudeDegrees>
            </Position>
            <AltitudeMeters>2247.800048828125</AltitudeMeters>
            <DistanceMeters>NAN</DistanceMeters>
          </Trackpoint>
          <Trackpoint>
            <Time>2021-07-17T15:39:52.000Z</Time>
            <Position>
              <LatitudeDegrees>42.7194073610007762908935546875</LatitudeDegrees>
              <LongitudeDegrees>-0.202192962169647216796875</LongitudeDegrees>
            </Position>
            <AltitudeMeters>2246.60009765625</AltitudeMeters>
            <DistanceMeters>NAN</DistanceMeters>
          </Trackpoint>
          <Trackpoint>
            <Time>2021-07-17T15:39:55.000Z</Time>
            <Position>
              <LatitudeDegrees>42.7194348536431789398193359375</LatitudeDegrees>
              <LongitudeDegrees>-0.20218851976096630096435546875</LongitudeDegrees>
            </Position>
            <AltitudeMeters>2246</AltitudeMeters>
            <DistanceMeters>NAN</DistanceMeters>
          </Trackpoint>
          <Trackpoint>
            <Time>2021-07-17T15:40:03.000Z</Time>
            <Position>
              <LatitudeDegrees>42.71949294023215770721435546875</LatitudeDegrees>
              <LongitudeDegrees>-0.2021609432995319366455078125</LongitudeDegrees>
            </Position>
            <AltitudeMeters>2244.39990234375</AltitudeMeters>
            <DistanceMeters>NAN</DistanceMeters>
          </Trackpoint>
          <Trackpoint>
            <Time>2021-07-17T15:40:07.000Z</Time>
            <Position>
              <LatitudeDegrees>42.719504423439502716064453125</LatitudeDegrees>
              <LongitudeDegrees>-0.202169157564640045166015625</LongitudeDegrees>
            </Position>
            <AltitudeMeters>2244.199951171875</AltitudeMeters>
            <DistanceMeters>NAN</DistanceMeters>
          </Trackpoint>
          <Trackpoint>
            <Time>2021-07-17T15:40:12.000Z</Time>
            <Position>
              <LatitudeDegrees>42.719529233872890472412109375</LatitudeDegrees>
              <LongitudeDegrees>-0.20216488279402256011962890625</LongitudeDegrees>
            </Position>
            <AltitudeMeters>2244.60009765625</AltitudeMeters>
            <DistanceMeters>NAN</DistanceMeters>
          </Trackpoint>
          <Trackpoint>
            <Time>2021-07-17T15:40:17.000Z</Time>
            <Position>
              <LatitudeDegrees>42.71953535266220569610595703125</LatitudeDegrees>
              <LongitudeDegrees>-0.2021451853215694427490234375</LongitudeDegrees>
            </Position>
            <AltitudeMeters>2244.800048828125</AltitudeMeters>
            <DistanceMeters>NAN</DistanceMeters>
          </Trackpoint>
          <Trackpoint>
            <Time>2021-07-17T15:40:23.000Z</Time>
            <Position>
              <LatitudeDegrees>42.71954172290861606597900390625</LatitudeDegrees>
              <LongitudeDegrees>-0.20212984643876552581787109375</LongitudeDegrees>
            </Position>
            <AltitudeMeters>2244.800048828125</AltitudeMeters>
            <DistanceMeters>NAN</DistanceMeters>
          </Trackpoint>
          <Trackpoint>
            <Time>2021-07-17T15:40:25.000Z</Time>
            <Position>
              <LatitudeDegrees>42.71954172290861606597900390625</LatitudeDegrees>
              <LongitudeDegrees>-0.20212984643876552581787109375</LongitudeDegrees>
            </Position>
            <AltitudeMeters>2244.800048828125</AltitudeMeters>
            <DistanceMeters>NAN</DistanceMeters>
          </Trackpoint>
          <Trackpoint>
            <Time>2021-07-17T15:40:38.000Z</Time>
            <Position>
              <LatitudeDegrees>42.71954172290861606597900390625</LatitudeDegrees>
              <LongitudeDegrees>-0.202133618295192718505859375</LongitudeDegrees>
            </Position>
            <AltitudeMeters>2244.800048828125</AltitudeMeters>
            <DistanceMeters>NAN</DistanceMeters>
          </Trackpoint>
          <Trackpoint>
            <Time>2021-07-17T15:40:49.000Z</Time>
            <Position>
              <LatitudeDegrees>42.7195491828024387359619140625</LatitudeDegrees>
              <LongitudeDegrees>-0.20212766714394092559814453125</LongitudeDegrees>
            </Position>
            <AltitudeMeters>2245</AltitudeMeters>
            <DistanceMeters>NAN</DistanceMeters>
          </Trackpoint>
          <Trackpoint>
            <Time>2021-07-17T15:41:08.000Z</Time>
            <Position>
              <LatitudeDegrees>42.71954658441245555877685546875</LatitudeDegrees>
              <LongitudeDegrees>-0.2021046169102191925048828125</LongitudeDegrees>
            </Position>
            <AltitudeMeters>2244.800048828125</AltitudeMeters>
            <DistanceMeters>NAN</DistanceMeters>
          </Trackpoint>
          <Trackpoint>
            <Time>2021-07-17T15:41:23.000Z</Time>
            <Position>
              <LatitudeDegrees>42.71956502459943294525146484375</LatitudeDegrees>
              <LongitudeDegrees>-0.20210620947182178497314453125</LongitudeDegrees>
            </Position>
            <AltitudeMeters>2245.199951171875</AltitudeMeters>
            <DistanceMeters>NAN</DistanceMeters>
          </Trackpoint>
          <Trackpoint>
            <Time>2021-07-17T15:41:34.000Z</Time>
            <Position>
              <LatitudeDegrees>42.719565443694591522216796875</LatitudeDegrees>
              <LongitudeDegrees>-0.20210386253893375396728515625</LongitudeDegrees>
            </Position>
            <AltitudeMeters>2245.199951171875</AltitudeMeters>
            <DistanceMeters>NAN</DistanceMeters>
          </Trackpoint>
          <Trackpoint>
            <Time>2021-07-17T15:41:38.000Z</Time>
            <Position>
              <LatitudeDegrees>42.71956485696136951446533203125</LatitudeDegrees>
              <LongitudeDegrees>-0.20210436545312404632568359375</LongitudeDegrees>
            </Position>
            <AltitudeMeters>2245.199951171875</AltitudeMeters>
            <DistanceMeters>NAN</DistanceMeters>
          </Trackpoint>
          <Trackpoint>
            <Time>2021-07-17T15:41:41.000Z</Time>
            <Position>
              <LatitudeDegrees>42.71956401877105236053466796875</LatitudeDegrees>
              <LongitudeDegrees>-0.20210604183375835418701171875</LongitudeDegrees>
            </Position>
            <AltitudeMeters>2245.199951171875</AltitudeMeters>
            <DistanceMeters>NAN</DistanceMeters>
          </Trackpoint>
          <Trackpoint>
            <Time>2021-07-17T15:42:06.000Z</Time>
            <Position>
              <LatitudeDegrees>42.71954859606921672821044921875</LatitudeDegrees>
              <LongitudeDegrees>-0.202098749577999114990234375</LongitudeDegrees>
            </Position>
            <AltitudeMeters>2244.800048828125</AltitudeMeters>
            <DistanceMeters>NAN</DistanceMeters>
          </Trackpoint>
          <Trackpoint>
            <Time>2021-07-17T15:42:50.000Z</Time>
            <Position>
              <LatitudeDegrees>42.71952060051262378692626953125</LatitudeDegrees>
              <LongitudeDegrees>-0.2021304331719875335693359375</LongitudeDegrees>
            </Position>
            <AltitudeMeters>2244.39990234375</AltitudeMeters>
            <DistanceMeters>NAN</DistanceMeters>
          </Trackpoint>
          <Trackpoint>
            <Time>2021-07-17T15:43:00.000Z</Time>
            <Position>
              <LatitudeDegrees>42.71952294744551181793212890625</LatitudeDegrees>
              <LongitudeDegrees>-0.20214342512190341949462890625</LongitudeDegrees>
            </Position>
            <AltitudeMeters>2244.39990234375</AltitudeMeters>
            <DistanceMeters>NAN</DistanceMeters>
          </Trackpoint>
          <Trackpoint>
            <Time>2021-07-17T15:43:03.000Z</Time>
            <Position>
              <LatitudeDegrees>42.719527892768383026123046875</LatitudeDegrees>
              <LongitudeDegrees>-0.2021461911499500274658203125</LongitudeDegrees>
            </Position>
            <AltitudeMeters>2244.60009765625</AltitudeMeters>
            <DistanceMeters>NAN</DistanceMeters>
          </Trackpoint>
          <Trackpoint>
            <Time>2021-07-17T15:43:15.000Z</Time>
            <Position>
              <LatitudeDegrees>42.71954172290861606597900390625</LatitudeDegrees>
              <LongitudeDegrees>-0.20216169767081737518310546875</LongitudeDegrees>
            </Position>
            <AltitudeMeters>2245</AltitudeMeters>
            <DistanceMeters>NAN</DistanceMeters>
          </Trackpoint>
          <Trackpoint>
            <Time>2021-07-17T15:43:28.000Z</Time>
            <Position>
              <LatitudeDegrees>42.71954725496470928192138671875</LatitudeDegrees>
              <LongitudeDegrees>-0.202173180878162384033203125</LongitudeDegrees>
            </Position>
            <AltitudeMeters>2245.199951171875</AltitudeMeters>
            <DistanceMeters>NAN</DistanceMeters>
          </Trackpoint>
          <Trackpoint>
            <Time>2021-07-17T15:43:35.000Z</Time>
            <Position>
              <LatitudeDegrees>42.71954809315502643585205078125</LatitudeDegrees>
              <LongitudeDegrees>-0.20217862911522388458251953125</LongitudeDegrees>
            </Position>
            <AltitudeMeters>2245.199951171875</AltitudeMeters>
            <DistanceMeters>NAN</DistanceMeters>
          </Trackpoint>
          <Trackpoint>
            <Time>2021-07-17T15:43:41.000Z</Time>
            <Position>
              <LatitudeDegrees>42.71954826079308986663818359375</LatitudeDegrees>
              <LongitudeDegrees>-0.2021800540387630462646484375</LongitudeDegrees>
            </Position>
            <AltitudeMeters>2245.199951171875</AltitudeMeters>
            <DistanceMeters>NAN</DistanceMeters>
          </Trackpoint>
          <Trackpoint>
            <Time>2021-07-17T15:43:44.000Z</Time>
            <Position>
              <LatitudeDegrees>42.71954834461212158203125</LatitudeDegrees>
              <LongitudeDegrees>-0.20218013785779476165771484375</LongitudeDegrees>
            </Position>
            <AltitudeMeters>2245.199951171875</AltitudeMeters>
            <DistanceMeters>NAN</DistanceMeters>
          </Trackpoint>
          <Trackpoint>
            <Time>2021-07-17T15:44:03.000Z</Time>
            <Position>
              <LatitudeDegrees>42.7195488475263118743896484375</LatitudeDegrees>
              <LongitudeDegrees>-0.2021808922290802001953125</LongitudeDegrees>
            </Position>
            <AltitudeMeters>2245.199951171875</AltitudeMeters>
            <DistanceMeters>NAN</DistanceMeters>
          </Trackpoint>
          <Trackpoint>
            <Time>2021-07-17T15:44:19.000Z</Time>
            <Position>
              <LatitudeDegrees>42.71954960189759731292724609375</LatitudeDegrees>
              <LongitudeDegrees>-0.2021820656955242156982421875</LongitudeDegrees>
            </Position>
            <AltitudeMeters>2245.199951171875</AltitudeMeters>
            <DistanceMeters>NAN</DistanceMeters>
          </Trackpoint>
          <Trackpoint>
            <Time>2021-07-17T15:44:46.000Z</Time>
            <Position>
              <LatitudeDegrees>42.71955077536404132843017578125</LatitudeDegrees>
              <LongitudeDegrees>-0.20218734629452228546142578125</LongitudeDegrees>
            </Position>
            <AltitudeMeters>2245.39990234375</AltitudeMeters>
            <DistanceMeters>NAN</DistanceMeters>
          </Trackpoint>
          <Trackpoint>
            <Time>2021-07-17T15:45:04.000Z</Time>
            <Position>
              <LatitudeDegrees>42.71955127827823162078857421875</LatitudeDegrees>
              <LongitudeDegrees>-0.2021924592554569244384765625</LongitudeDegrees>
            </Position>
            <AltitudeMeters>2245.39990234375</AltitudeMeters>
            <DistanceMeters>NAN</DistanceMeters>
          </Trackpoint>
          <Trackpoint>
            <Time>2021-07-17T15:45:12.000Z</Time>
            <Position>
              <LatitudeDegrees>42.71955144591629505157470703125</LatitudeDegrees>
              <LongitudeDegrees>-0.20219497382640838623046875</LongitudeDegrees>
            </Position>
            <AltitudeMeters>2245.39990234375</AltitudeMeters>
            <DistanceMeters>NAN</DistanceMeters>
          </Trackpoint>
          <Trackpoint>
            <Time>2021-07-17T15:45:31.000Z</Time>
            <Position>
              <LatitudeDegrees>42.71960777230560779571533203125</LatitudeDegrees>
              <LongitudeDegrees>-0.2022129110991954803466796875</LongitudeDegrees>
            </Position>
            <AltitudeMeters>2246.800048828125</AltitudeMeters>
            <DistanceMeters>NAN</DistanceMeters>
          </Trackpoint>
          <Trackpoint>
            <Time>2021-07-17T15:45:38.000Z</Time>
            <Position>
              <LatitudeDegrees>42.719695530831813812255859375</LatitudeDegrees>
              <LongitudeDegrees>-0.2022313512861728668212890625</LongitudeDegrees>
            </Position>
            <AltitudeMeters>2249.199951171875</AltitudeMeters>
            <DistanceMeters>NAN</DistanceMeters>
          </Trackpoint>
          <Trackpoint>
            <Time>2021-07-17T15:45:42.000Z</Time>
            <Position>
              <LatitudeDegrees>42.71971221081912517547607421875</LatitudeDegrees>
              <LongitudeDegrees>-0.20222405903041362762451171875</LongitudeDegrees>
            </Position>
            <AltitudeMeters>2249.60009765625</AltitudeMeters>
            <DistanceMeters>NAN</DistanceMeters>
          </Trackpoint>
          <Trackpoint>
            <Time>2021-07-17T15:45:48.000Z</Time>
            <Position>
              <LatitudeDegrees>42.7197228558361530303955078125</LatitudeDegrees>
              <LongitudeDegrees>-0.20219899713993072509765625</LongitudeDegrees>
            </Position>
            <AltitudeMeters>2249.60009765625</AltitudeMeters>
            <DistanceMeters>NAN</DistanceMeters>
          </Trackpoint>
          <Trackpoint>
            <Time>2021-07-17T15:45:54.000Z</Time>
            <Position>
              <LatitudeDegrees>42.71971941925585269927978515625</LatitudeDegrees>
              <LongitudeDegrees>-0.2021808922290802001953125</LongitudeDegrees>
            </Position>
            <AltitudeMeters>2249.60009765625</AltitudeMeters>
            <DistanceMeters>NAN</DistanceMeters>
          </Trackpoint>
          <Trackpoint>
            <Time>2021-07-17T15:45:56.000Z</Time>
            <Position>
              <LatitudeDegrees>42.71971941925585269927978515625</LatitudeDegrees>
              <LongitudeDegrees>-0.2021808922290802001953125</LongitudeDegrees>
            </Position>
            <AltitudeMeters>2249.60009765625</AltitudeMeters>
            <DistanceMeters>NAN</DistanceMeters>
          </Trackpoint>
          <Trackpoint>
            <Time>2021-07-17T15:45:59.000Z</Time>
            <Position>
              <LatitudeDegrees>42.71971941925585269927978515625</LatitudeDegrees>
              <LongitudeDegrees>-0.2021808922290802001953125</LongitudeDegrees>
            </Position>
            <AltitudeMeters>2249.60009765625</AltitudeMeters>
            <DistanceMeters>NAN</DistanceMeters>
          </Trackpoint>
          <Trackpoint>
            <Time>2021-07-17T15:46:01.000Z</Time>
            <Position>
              <LatitudeDegrees>42.719728387892246246337890625</LatitudeDegrees>
              <LongitudeDegrees>-0.20215432159602642059326171875</LongitudeDegrees>
            </Position>
            <AltitudeMeters>2249.60009765625</AltitudeMeters>
            <DistanceMeters>NAN</DistanceMeters>
          </Trackpoint>
          <Trackpoint>
            <Time>2021-07-17T15:46:02.000Z</Time>
            <Position>
              <LatitudeDegrees>42.7197329141199588775634765625</LatitudeDegrees>
              <LongitudeDegrees>-0.20214593969285488128662109375</LongitudeDegrees>
            </Position>
            <AltitudeMeters>2249.800048828125</AltitudeMeters>
            <DistanceMeters>NAN</DistanceMeters>
          </Trackpoint>
          <Trackpoint>
            <Time>2021-07-17T15:46:05.000Z</Time>
            <Position>
              <LatitudeDegrees>42.719754874706268310546875</LatitudeDegrees>
              <LongitudeDegrees>-0.2020948939025402069091796875</LongitudeDegrees>
            </Position>
            <AltitudeMeters>2250</AltitudeMeters>
            <DistanceMeters>NAN</DistanceMeters>
          </Trackpoint>
          <Trackpoint>
            <Time>2021-07-17T15:46:10.000Z</Time>
            <Position>
              <LatitudeDegrees>42.71978949196636676788330078125</LatitudeDegrees>
              <LongitudeDegrees>-0.20202197134494781494140625</LongitudeDegrees>
            </Position>
            <AltitudeMeters>2250.39990234375</AltitudeMeters>
            <DistanceMeters>NAN</DistanceMeters>
          </Trackpoint>
          <Trackpoint>
            <Time>2021-07-17T15:46:12.000Z</Time>
            <Position>
              <LatitudeDegrees>42.71979368291795253753662109375</LatitudeDegrees>
              <LongitudeDegrees>-0.2020011842250823974609375</LongitudeDegrees>
            </Position>
            <AltitudeMeters>2250.39990234375</AltitudeMeters>
            <DistanceMeters>NAN</DistanceMeters>
          </Trackpoint>
          <Trackpoint>
            <Time>2021-07-17T15:46:16.000Z</Time>
            <Position>
              <LatitudeDegrees>42.71980491466820240020751953125</LatitudeDegrees>
              <LongitudeDegrees>-0.20195784978568553924560546875</LongitudeDegrees>
            </Position>
            <AltitudeMeters>2250.39990234375</AltitudeMeters>
            <DistanceMeters>NAN</DistanceMeters>
          </Trackpoint>
          <Trackpoint>
            <Time>2021-07-17T15:46:17.000Z</Time>
            <Position>
              <LatitudeDegrees>42.7198090218007564544677734375</LatitudeDegrees>
              <LongitudeDegrees>-0.2019488811492919921875</LongitudeDegrees>
            </Position>
            <AltitudeMeters>2250.60009765625</AltitudeMeters>
            <DistanceMeters>NAN</DistanceMeters>
          </Trackpoint>
          <Trackpoint>
            <Time>2021-07-17T15:46:20.000Z</Time>
            <Position>
              <LatitudeDegrees>42.71982117556035518646240234375</LatitudeDegrees>
              <LongitudeDegrees>-0.2019287645816802978515625</LongitudeDegrees>
            </Position>
            <AltitudeMeters>2250.800048828125</AltitudeMeters>
            <DistanceMeters>NAN</DistanceMeters>
          </Trackpoint>
          <Trackpoint>
            <Time>2021-07-17T15:46:22.000Z</Time>
            <Position>
              <LatitudeDegrees>42.7198267914354801177978515625</LatitudeDegrees>
              <LongitudeDegrees>-0.2019153535366058349609375</LongitudeDegrees>
            </Position>
            <AltitudeMeters>2251</AltitudeMeters>
            <DistanceMeters>NAN</DistanceMeters>
          </Trackpoint>
          <Trackpoint>
            <Time>2021-07-17T15:46:25.000Z</Time>
            <Position>
              <LatitudeDegrees>42.71983844228088855743408203125</LatitudeDegrees>
              <LongitudeDegrees>-0.20187855698168277740478515625</LongitudeDegrees>
            </Position>
            <AltitudeMeters>2251.199951171875</AltitudeMeters>
            <DistanceMeters>NAN</DistanceMeters>
          </Trackpoint>
          <Trackpoint>
            <Time>2021-07-17T15:46:28.000Z</Time>
            <Position>
              <LatitudeDegrees>42.71984196268022060394287109375</LatitudeDegrees>
              <LongitudeDegrees>-0.20185810513794422149658203125</LongitudeDegrees>
            </Position>
            <AltitudeMeters>2251</AltitudeMeters>
            <DistanceMeters>NAN</DistanceMeters>
          </Trackpoint>
          <Trackpoint>
            <Time>2021-07-17T15:46:33.000Z</Time>
            <Position>
              <LatitudeDegrees>42.719823606312274932861328125</LatitudeDegrees>
              <LongitudeDegrees>-0.20185693167150020599365234375</LongitudeDegrees>
            </Position>
            <AltitudeMeters>2250.39990234375</AltitudeMeters>
            <DistanceMeters>NAN</DistanceMeters>
          </Trackpoint>
          <Trackpoint>
            <Time>2021-07-17T15:46:35.000Z</Time>
            <Position>
              <LatitudeDegrees>42.71982352249324321746826171875</LatitudeDegrees>
              <LongitudeDegrees>-0.20185290835797786712646484375</LongitudeDegrees>
            </Position>
            <AltitudeMeters>2250.39990234375</AltitudeMeters>
            <DistanceMeters>NAN</DistanceMeters>
          </Trackpoint>
          <Trackpoint>
            <Time>2021-07-17T15:46:44.000Z</Time>
            <Position>
              <LatitudeDegrees>42.7198522724211215972900390625</LatitudeDegrees>
              <LongitudeDegrees>-0.20181275904178619384765625</LongitudeDegrees>
            </Position>
            <AltitudeMeters>2250.800048828125</AltitudeMeters>
            <DistanceMeters>NAN</DistanceMeters>
          </Trackpoint>
          <Trackpoint>
            <Time>2021-07-17T15:46:52.000Z</Time>
            <Position>
              <LatitudeDegrees>42.71989191882312297821044921875</LatitudeDegrees>
              <LongitudeDegrees>-0.20173355005681514739990234375</LongitudeDegrees>
            </Position>
            <AltitudeMeters>2251.199951171875</AltitudeMeters>
            <DistanceMeters>NAN</DistanceMeters>
          </Trackpoint>
          <Trackpoint>
            <Time>2021-07-17T15:46:54.000Z</Time>
            <Position>
              <LatitudeDegrees>42.71990516223013401031494140625</LatitudeDegrees>
              <LongitudeDegrees>-0.20171192474663257598876953125</LongitudeDegrees>
            </Position>
            <AltitudeMeters>2251.39990234375</AltitudeMeters>
            <DistanceMeters>NAN</DistanceMeters>
          </Trackpoint>
          <Trackpoint>
            <Time>2021-07-17T15:46:56.000Z</Time>
            <Position>
              <LatitudeDegrees>42.71991287358105182647705078125</LatitudeDegrees>
              <LongitudeDegrees>-0.20169264636933803558349609375</LongitudeDegrees>
            </Position>
            <AltitudeMeters>2251.39990234375</AltitudeMeters>
            <DistanceMeters>NAN</DistanceMeters>
          </Trackpoint>
          <Trackpoint>
            <Time>2021-07-17T15:46:59.000Z</Time>
            <Position>
              <LatitudeDegrees>42.7199367620050907135009765625</LatitudeDegrees>
              <LongitudeDegrees>-0.20166347734630107879638671875</LongitudeDegrees>
            </Position>
            <AltitudeMeters>2251.800048828125</AltitudeMeters>
            <DistanceMeters>NAN</DistanceMeters>
          </Trackpoint>
          <Trackpoint>
            <Time>2021-07-17T15:47:07.000Z</Time>
            <Position>
              <LatitudeDegrees>42.71998562850058078765869140625</LatitudeDegrees>
              <LongitudeDegrees>-0.2016157843172550201416015625</LongitudeDegrees>
            </Position>
            <AltitudeMeters>2253</AltitudeMeters>
            <DistanceMeters>NAN</DistanceMeters>
          </Trackpoint>
          <Trackpoint>
            <Time>2021-07-17T15:47:13.000Z</Time>
            <Position>
              <LatitudeDegrees>42.72001303732395172119140625</LatitudeDegrees>
              <LongitudeDegrees>-0.20154763944447040557861328125</LongitudeDegrees>
            </Position>
            <AltitudeMeters>2252.60009765625</AltitudeMeters>
            <DistanceMeters>NAN</DistanceMeters>
          </Trackpoint>
          <Trackpoint>
            <Time>2021-07-17T15:47:16.000Z</Time>
            <Position>
              <LatitudeDegrees>42.7200235985219478607177734375</LatitudeDegrees>
              <LongitudeDegrees>-0.20151109434664249420166015625</LongitudeDegrees>
            </Position>
            <AltitudeMeters>2252</AltitudeMeters>
            <DistanceMeters>NAN</DistanceMeters>
          </Trackpoint>
          <Trackpoint>
            <Time>2021-07-17T15:47:29.000Z</Time>
            <Position>
              <LatitudeDegrees>42.72007263265550136566162109375</LatitudeDegrees>
              <LongitudeDegrees>-0.20134898833930492401123046875</LongitudeDegrees>
            </Position>
            <AltitudeMeters>2249.39990234375</AltitudeMeters>
            <DistanceMeters>NAN</DistanceMeters>
          </Trackpoint>
          <Trackpoint>
            <Time>2021-07-17T15:47:38.000Z</Time>
            <Position>
              <LatitudeDegrees>42.72007414139807224273681640625</LatitudeDegrees>
              <LongitudeDegrees>-0.20122292451560497283935546875</LongitudeDegrees>
            </Position>
            <AltitudeMeters>2246.199951171875</AltitudeMeters>
            <DistanceMeters>NAN</DistanceMeters>
          </Trackpoint>
          <Trackpoint>
            <Time>2021-07-17T15:47:47.000Z</Time>
            <Position>
              <LatitudeDegrees>42.72005100734531879425048828125</LatitudeDegrees>
              <LongitudeDegrees>-0.20109099335968494415283203125</LongitudeDegrees>
            </Position>
            <AltitudeMeters>2242.39990234375</AltitudeMeters>
            <DistanceMeters>NAN</DistanceMeters>
          </Trackpoint>
          <Trackpoint>
            <Time>2021-07-17T15:47:55.000Z</Time>
            <Position>
              <LatitudeDegrees>42.72004279308021068572998046875</LatitudeDegrees>
              <LongitudeDegrees>-0.20099979825317859649658203125</LongitudeDegrees>
            </Position>
            <AltitudeMeters>2240.39990234375</AltitudeMeters>
            <DistanceMeters>NAN</DistanceMeters>
          </Trackpoint>
          <Trackpoint>
            <Time>2021-07-17T15:47:57.000Z</Time>
            <Position>
              <LatitudeDegrees>42.72003474645316600799560546875</LatitudeDegrees>
              <LongitudeDegrees>-0.20098806358873844146728515625</LongitudeDegrees>
            </Position>
            <AltitudeMeters>2240</AltitudeMeters>
            <DistanceMeters>NAN</DistanceMeters>
          </Trackpoint>
          <Trackpoint>
            <Time>2021-07-17T15:48:01.000Z</Time>
            <Position>
              <LatitudeDegrees>42.72001437842845916748046875</LatitudeDegrees>
              <LongitudeDegrees>-0.20095671527087688446044921875</LongitudeDegrees>
            </Position>
            <AltitudeMeters>2239.39990234375</AltitudeMeters>
            <DistanceMeters>NAN</DistanceMeters>
          </Trackpoint>
          <Trackpoint>
            <Time>2021-07-17T15:48:02.000Z</Time>
            <Position>
              <LatitudeDegrees>42.72000775672495365142822265625</LatitudeDegrees>
              <LongitudeDegrees>-0.200947411358356475830078125</LongitudeDegrees>
            </Position>
            <AltitudeMeters>2239.199951171875</AltitudeMeters>
            <DistanceMeters>NAN</DistanceMeters>
          </Trackpoint>
          <Trackpoint>
            <Time>2021-07-17T15:48:06.000Z</Time>
            <Position>
              <LatitudeDegrees>42.7199788391590118408203125</LatitudeDegrees>
              <LongitudeDegrees>-0.2009117044508457183837890625</LongitudeDegrees>
            </Position>
            <AltitudeMeters>2238.199951171875</AltitudeMeters>
            <DistanceMeters>NAN</DistanceMeters>
          </Trackpoint>
          <Trackpoint>
            <Time>2021-07-17T15:48:08.000Z</Time>
            <Position>
              <LatitudeDegrees>42.7199719659984111785888671875</LatitudeDegrees>
              <LongitudeDegrees>-0.20090256817638874053955078125</LongitudeDegrees>
            </Position>
            <AltitudeMeters>2238</AltitudeMeters>
            <DistanceMeters>NAN</DistanceMeters>
          </Trackpoint>
          <Trackpoint>
            <Time>2021-07-17T15:48:09.000Z</Time>
            <Position>
              <LatitudeDegrees>42.71997188217937946319580078125</LatitudeDegrees>
              <LongitudeDegrees>-0.20090105943381786346435546875</LongitudeDegrees>
            </Position>
            <AltitudeMeters>2238</AltitudeMeters>
            <DistanceMeters>NAN</DistanceMeters>
          </Trackpoint>
          <Trackpoint>
            <Time>2021-07-17T15:48:11.000Z</Time>
            <Position>
              <LatitudeDegrees>42.71997389383614063262939453125</LatitudeDegrees>
              <LongitudeDegrees>-0.200903825461864471435546875</LongitudeDegrees>
            </Position>
            <AltitudeMeters>2238</AltitudeMeters>
            <DistanceMeters>NAN</DistanceMeters>
          </Trackpoint>
          <Trackpoint>
            <Time>2021-07-17T15:48:18.000Z</Time>
            <Position>
              <LatitudeDegrees>42.7199535258114337921142578125</LatitudeDegrees>
              <LongitudeDegrees>-0.20088831894099712371826171875</LongitudeDegrees>
            </Position>
            <AltitudeMeters>2237.60009765625</AltitudeMeters>
            <DistanceMeters>NAN</DistanceMeters>
          </Trackpoint>
          <Trackpoint>
            <Time>2021-07-17T15:48:21.000Z</Time>
            <Position>
              <LatitudeDegrees>42.71993483416736125946044921875</LatitudeDegrees>
              <LongitudeDegrees>-0.200873315334320068359375</LongitudeDegrees>
            </Position>
            <AltitudeMeters>2237</AltitudeMeters>
            <DistanceMeters>NAN</DistanceMeters>
          </Trackpoint>
          <Trackpoint>
            <Time>2021-07-17T15:48:22.000Z</Time>
            <Position>
              <LatitudeDegrees>42.71992678754031658172607421875</LatitudeDegrees>
              <LongitudeDegrees>-0.20087054930627346038818359375</LongitudeDegrees>
            </Position>
            <AltitudeMeters>2237</AltitudeMeters>
            <DistanceMeters>NAN</DistanceMeters>
          </Trackpoint>
          <Trackpoint>
            <Time>2021-07-17T15:48:25.000Z</Time>
            <Position>
              <LatitudeDegrees>42.71991069428622722625732421875</LatitudeDegrees>
              <LongitudeDegrees>-0.20086317323148250579833984375</LongitudeDegrees>
            </Position>
            <AltitudeMeters>2236.60009765625</AltitudeMeters>
            <DistanceMeters>NAN</DistanceMeters>
          </Trackpoint>
          <Trackpoint>
            <Time>2021-07-17T15:48:27.000Z</Time>
            <Position>
              <LatitudeDegrees>42.7199032343924045562744140625</LatitudeDegrees>
              <LongitudeDegrees>-0.2008594013750553131103515625</LongitudeDegrees>
            </Position>
            <AltitudeMeters>2236.60009765625</AltitudeMeters>
            <DistanceMeters>NAN</DistanceMeters>
          </Trackpoint>
          <Trackpoint>
            <Time>2021-07-17T15:48:31.000Z</Time>
            <Position>
              <LatitudeDegrees>42.7199022285640239715576171875</LatitudeDegrees>
              <LongitudeDegrees>-0.20084657706320285797119140625</LongitudeDegrees>
            </Position>
            <AltitudeMeters>2236.39990234375</AltitudeMeters>
            <DistanceMeters>NAN</DistanceMeters>
          </Trackpoint>
          <Trackpoint>
            <Time>2021-07-17T15:48:38.000Z</Time>
            <Position>
              <LatitudeDegrees>42.7199064195156097412109375</LatitudeDegrees>
              <LongitudeDegrees>-0.20076812244951725006103515625</LongitudeDegrees>
            </Position>
            <AltitudeMeters>2236</AltitudeMeters>
            <DistanceMeters>NAN</DistanceMeters>
          </Trackpoint>
          <Trackpoint>
            <Time>2021-07-17T15:48:46.000Z</Time>
            <Position>
              <LatitudeDegrees>42.71989636123180389404296875</LatitudeDegrees>
              <LongitudeDegrees>-0.2007138915359973907470703125</LongitudeDegrees>
            </Position>
            <AltitudeMeters>2235.39990234375</AltitudeMeters>
            <DistanceMeters>NAN</DistanceMeters>
          </Trackpoint>
          <Trackpoint>
            <Time>2021-07-17T15:48:47.000Z</Time>
            <Position>
              <LatitudeDegrees>42.7198965288698673248291015625</LatitudeDegrees>
              <LongitudeDegrees>-0.20071380771696567535400390625</LongitudeDegrees>
            </Position>
            <AltitudeMeters>2235.39990234375</AltitudeMeters>
            <DistanceMeters>NAN</DistanceMeters>
          </Trackpoint>
          <Trackpoint>
            <Time>2021-07-17T15:48:57.000Z</Time>
            <Position>
              <LatitudeDegrees>42.71989367902278900146484375</LatitudeDegrees>
              <LongitudeDegrees>-0.20071506500244140625</LongitudeDegrees>
            </Position>
            <AltitudeMeters>2235.39990234375</AltitudeMeters>
            <DistanceMeters>NAN</DistanceMeters>
          </Trackpoint>
          <Trackpoint>
            <Time>2021-07-17T15:49:04.000Z</Time>
            <Position>
              <LatitudeDegrees>42.71989367902278900146484375</LatitudeDegrees>
              <LongitudeDegrees>-0.20071506500244140625</LongitudeDegrees>
            </Position>
            <AltitudeMeters>2235.39990234375</AltitudeMeters>
            <DistanceMeters>NAN</DistanceMeters>
          </Trackpoint>
          <Trackpoint>
            <Time>2021-07-17T15:49:28.000Z</Time>
            <Position>
              <LatitudeDegrees>42.71989862434566020965576171875</LatitudeDegrees>
              <LongitudeDegrees>-0.20070366561412811279296875</LongitudeDegrees>
            </Position>
            <AltitudeMeters>2235.39990234375</AltitudeMeters>
            <DistanceMeters>NAN</DistanceMeters>
          </Trackpoint>
          <Trackpoint>
            <Time>2021-07-17T15:49:46.000Z</Time>
            <Position>
              <LatitudeDegrees>42.71985453553497791290283203125</LatitudeDegrees>
              <LongitudeDegrees>-0.200692601501941680908203125</LongitudeDegrees>
            </Position>
            <AltitudeMeters>2234.800048828125</AltitudeMeters>
            <DistanceMeters>NAN</DistanceMeters>
          </Trackpoint>
          <Trackpoint>
            <Time>2021-07-17T15:49:51.000Z</Time>
            <Position>
              <LatitudeDegrees>42.71988169290125370025634765625</LatitudeDegrees>
              <LongitudeDegrees>-0.20069620572030544281005859375</LongitudeDegrees>
            </Position>
            <AltitudeMeters>2235.199951171875</AltitudeMeters>
            <DistanceMeters>NAN</DistanceMeters>
          </Trackpoint>
          <Trackpoint>
            <Time>2021-07-17T15:49:55.000Z</Time>
            <Position>
              <LatitudeDegrees>42.71990164183080196380615234375</LatitudeDegrees>
              <LongitudeDegrees>-0.20070307888090610504150390625</LongitudeDegrees>
            </Position>
            <AltitudeMeters>2235.60009765625</AltitudeMeters>
            <DistanceMeters>NAN</DistanceMeters>
          </Trackpoint>
          <Trackpoint>
            <Time>2021-07-17T15:49:59.000Z</Time>
            <Position>
              <LatitudeDegrees>42.71990172564983367919921875</LatitudeDegrees>
              <LongitudeDegrees>-0.20070307888090610504150390625</LongitudeDegrees>
            </Position>
            <AltitudeMeters>2235.60009765625</AltitudeMeters>
            <DistanceMeters>NAN</DistanceMeters>
          </Trackpoint>
          <Trackpoint>
            <Time>2021-07-17T15:50:02.000Z</Time>
            <Position>
              <LatitudeDegrees>42.71990172564983367919921875</LatitudeDegrees>
              <LongitudeDegrees>-0.20070307888090610504150390625</LongitudeDegrees>
            </Position>
            <AltitudeMeters>2235.60009765625</AltitudeMeters>
            <DistanceMeters>NAN</DistanceMeters>
          </Trackpoint>
          <Trackpoint>
            <Time>2021-07-17T15:50:10.000Z</Time>
            <Position>
              <LatitudeDegrees>42.71990172564983367919921875</LatitudeDegrees>
              <LongitudeDegrees>-0.20070307888090610504150390625</LongitudeDegrees>
            </Position>
            <AltitudeMeters>2235.60009765625</AltitudeMeters>
            <DistanceMeters>NAN</DistanceMeters>
          </Trackpoint>
          <Trackpoint>
            <Time>2021-07-17T15:50:19.000Z</Time>
            <Position>
              <LatitudeDegrees>42.7199025638401508331298828125</LatitudeDegrees>
              <LongitudeDegrees>-0.20070307888090610504150390625</LongitudeDegrees>
            </Position>
            <AltitudeMeters>2235.60009765625</AltitudeMeters>
            <DistanceMeters>NAN</DistanceMeters>
          </Trackpoint>
          <Trackpoint>
            <Time>2021-07-17T15:50:30.000Z</Time>
            <Position>
              <LatitudeDegrees>42.71990633569657802581787109375</LatitudeDegrees>
              <LongitudeDegrees>-0.2006984688341617584228515625</LongitudeDegrees>
            </Position>
            <AltitudeMeters>2235.60009765625</AltitudeMeters>
            <DistanceMeters>NAN</DistanceMeters>
          </Trackpoint>
          <Trackpoint>
            <Time>2021-07-17T15:50:38.000Z</Time>
            <Position>
              <LatitudeDegrees>42.71990952081978321075439453125</LatitudeDegrees>
              <LongitudeDegrees>-0.2006967924535274505615234375</LongitudeDegrees>
            </Position>
            <AltitudeMeters>2235.60009765625</AltitudeMeters>
            <DistanceMeters>NAN</DistanceMeters>
          </Trackpoint>
          <Trackpoint>
            <Time>2021-07-17T15:50:47.000Z</Time>
            <Position>
              <LatitudeDegrees>42.719906084239482879638671875</LatitudeDegrees>
              <LongitudeDegrees>-0.20070366561412811279296875</LongitudeDegrees>
            </Position>
            <AltitudeMeters>2235.60009765625</AltitudeMeters>
            <DistanceMeters>NAN</DistanceMeters>
          </Trackpoint>
          <Trackpoint>
            <Time>2021-07-17T15:51:15.000Z</Time>
            <Position>
              <LatitudeDegrees>42.7198854647576808929443359375</LatitudeDegrees>
              <LongitudeDegrees>-0.2007293142378330230712890625</LongitudeDegrees>
            </Position>
            <AltitudeMeters>2235.39990234375</AltitudeMeters>
            <DistanceMeters>NAN</DistanceMeters>
          </Trackpoint>
          <Trackpoint>
            <Time>2021-07-17T15:51:23.000Z</Time>
            <Position>
              <LatitudeDegrees>42.71989367902278900146484375</LatitudeDegrees>
              <LongitudeDegrees>-0.2007303200662136077880859375</LongitudeDegrees>
            </Position>
            <AltitudeMeters>2235.60009765625</AltitudeMeters>
            <DistanceMeters>NAN</DistanceMeters>
          </Trackpoint>
          <Trackpoint>
            <Time>2021-07-17T16:02:32.000Z</Time>
            <Position>
              <LatitudeDegrees>42.7199614048004150390625</LatitudeDegrees>
              <LongitudeDegrees>-0.20073040388524532318115234375</LongitudeDegrees>
            </Position>
            <AltitudeMeters>2236.39990234375</AltitudeMeters>
            <DistanceMeters>NAN</DistanceMeters>
          </Trackpoint>
          <Trackpoint>
            <Time>2021-07-17T16:02:37.000Z</Time>
            <Position>
              <LatitudeDegrees>42.719859816133975982666015625</LatitudeDegrees>
              <LongitudeDegrees>-0.20076527260243892669677734375</LongitudeDegrees>
            </Position>
            <AltitudeMeters>2235.199951171875</AltitudeMeters>
            <DistanceMeters>NAN</DistanceMeters>
          </Trackpoint>
          <Trackpoint>
            <Time>2021-07-17T16:02:43.000Z</Time>
            <Position>
              <LatitudeDegrees>42.71987716667354106903076171875</LatitudeDegrees>
              <LongitudeDegrees>-0.20072378218173980712890625</LongitudeDegrees>
            </Position>
            <AltitudeMeters>2235.199951171875</AltitudeMeters>
            <DistanceMeters>NAN</DistanceMeters>
          </Trackpoint>
          <Trackpoint>
            <Time>2021-07-17T16:02:44.000Z</Time>
            <Position>
              <LatitudeDegrees>42.71987649612128734588623046875</LatitudeDegrees>
              <LongitudeDegrees>-0.200722776353359222412109375</LongitudeDegrees>
            </Position>
            <AltitudeMeters>2235.199951171875</AltitudeMeters>
            <DistanceMeters>NAN</DistanceMeters>
          </Trackpoint>
          <Trackpoint>
            <Time>2021-07-17T16:02:45.000Z</Time>
            <Position>
              <LatitudeDegrees>42.71987431682646274566650390625</LatitudeDegrees>
              <LongitudeDegrees>-0.2007236145436763763427734375</LongitudeDegrees>
            </Position>
            <AltitudeMeters>2235.199951171875</AltitudeMeters>
            <DistanceMeters>NAN</DistanceMeters>
          </Trackpoint>
          <Trackpoint>
            <Time>2021-07-17T16:02:54.000Z</Time>
            <Position>
              <LatitudeDegrees>42.7198653481900691986083984375</LatitudeDegrees>
              <LongitudeDegrees>-0.20071146078407764434814453125</LongitudeDegrees>
            </Position>
            <AltitudeMeters>2235</AltitudeMeters>
            <DistanceMeters>NAN</DistanceMeters>
          </Trackpoint>
          <Trackpoint>
            <Time>2021-07-17T16:03:04.000Z</Time>
            <Position>
              <LatitudeDegrees>42.7198683656752109527587890625</LatitudeDegrees>
              <LongitudeDegrees>-0.20071213133633136749267578125</LongitudeDegrees>
            </Position>
            <AltitudeMeters>2235</AltitudeMeters>
            <DistanceMeters>NAN</DistanceMeters>
          </Trackpoint>
          <Trackpoint>
            <Time>2021-07-17T16:03:13.000Z</Time>
            <Position>
              <LatitudeDegrees>42.7198683656752109527587890625</LatitudeDegrees>
              <LongitudeDegrees>-0.20071213133633136749267578125</LongitudeDegrees>
            </Position>
            <AltitudeMeters>2235</AltitudeMeters>
            <DistanceMeters>NAN</DistanceMeters>
          </Trackpoint>
          <Trackpoint>
            <Time>2021-07-17T16:03:19.000Z</Time>
            <Position>
              <LatitudeDegrees>42.71987062878906726837158203125</LatitudeDegrees>
              <LongitudeDegrees>-0.20071280188858509063720703125</LongitudeDegrees>
            </Position>
            <AltitudeMeters>2235.199951171875</AltitudeMeters>
            <DistanceMeters>NAN</DistanceMeters>
          </Trackpoint>
          <Trackpoint>
            <Time>2021-07-17T16:03:44.000Z</Time>
            <Position>
              <LatitudeDegrees>42.71987414918839931488037109375</LatitudeDegrees>
              <LongitudeDegrees>-0.200715400278568267822265625</LongitudeDegrees>
            </Position>
            <AltitudeMeters>2235.199951171875</AltitudeMeters>
            <DistanceMeters>NAN</DistanceMeters>
          </Trackpoint>
          <Trackpoint>
            <Time>2021-07-17T16:03:56.000Z</Time>
            <Position>
              <LatitudeDegrees>42.71987414918839931488037109375</LatitudeDegrees>
              <LongitudeDegrees>-0.20071749575436115264892578125</LongitudeDegrees>
            </Position>
            <AltitudeMeters>2235.199951171875</AltitudeMeters>
            <DistanceMeters>NAN</DistanceMeters>
          </Trackpoint>
          <Trackpoint>
            <Time>2021-07-17T16:04:33.000Z</Time>
            <Position>
              <LatitudeDegrees>42.7198767475783824920654296875</LatitudeDegrees>
              <LongitudeDegrees>-0.20072906278073787689208984375</LongitudeDegrees>
            </Position>
            <AltitudeMeters>2235.199951171875</AltitudeMeters>
            <DistanceMeters>NAN</DistanceMeters>
          </Trackpoint>
          <Trackpoint>
            <Time>2021-07-17T16:04:53.000Z</Time>
            <Position>
              <LatitudeDegrees>42.7198827825486660003662109375</LatitudeDegrees>
              <LongitudeDegrees>-0.200728140771389007568359375</LongitudeDegrees>
            </Position>
            <AltitudeMeters>2235.39990234375</AltitudeMeters>
            <DistanceMeters>NAN</DistanceMeters>
          </Trackpoint>
          <Trackpoint>
            <Time>2021-07-17T16:05:10.000Z</Time>
            <Position>
              <LatitudeDegrees>42.7198831178247928619384765625</LatitudeDegrees>
              <LongitudeDegrees>-0.2007212676107883453369140625</LongitudeDegrees>
            </Position>
            <AltitudeMeters>2235.39990234375</AltitudeMeters>
            <DistanceMeters>NAN</DistanceMeters>
          </Trackpoint>
          <Trackpoint>
            <Time>2021-07-17T16:05:16.000Z</Time>
            <Position>
              <LatitudeDegrees>42.7198854647576808929443359375</LatitudeDegrees>
              <LongitudeDegrees>-0.2007199265062808990478515625</LongitudeDegrees>
            </Position>
            <AltitudeMeters>2235.39990234375</AltitudeMeters>
            <DistanceMeters>NAN</DistanceMeters>
          </Trackpoint>
          <Trackpoint>
            <Time>2021-07-17T16:05:33.000Z</Time>
            <Position>
              <LatitudeDegrees>42.71987398155033588409423828125</LatitudeDegrees>
              <LongitudeDegrees>-0.20071615464985370635986328125</LongitudeDegrees>
            </Position>
            <AltitudeMeters>2235.199951171875</AltitudeMeters>
            <DistanceMeters>NAN</DistanceMeters>
          </Trackpoint>
          <Trackpoint>
            <Time>2021-07-17T16:05:46.000Z</Time>
            <Position>
              <LatitudeDegrees>42.71987347863614559173583984375</LatitudeDegrees>
              <LongitudeDegrees>-0.2007162384688854217529296875</LongitudeDegrees>
            </Position>
            <AltitudeMeters>2235.199951171875</AltitudeMeters>
            <DistanceMeters>NAN</DistanceMeters>
          </Trackpoint>
          <Trackpoint>
            <Time>2021-07-17T16:05:58.000Z</Time>
            <Position>
              <LatitudeDegrees>42.7198930084705352783203125</LatitudeDegrees>
              <LongitudeDegrees>-0.20070492289960384368896484375</LongitudeDegrees>
            </Position>
            <AltitudeMeters>2235.39990234375</AltitudeMeters>
            <DistanceMeters>NAN</DistanceMeters>
          </Trackpoint>
          <Trackpoint>
            <Time>2021-07-17T16:06:04.000Z</Time>
            <Position>
              <LatitudeDegrees>42.719898708164691925048828125</LatitudeDegrees>
              <LongitudeDegrees>-0.20069872029125690460205078125</LongitudeDegrees>
            </Position>
            <AltitudeMeters>2235.39990234375</AltitudeMeters>
            <DistanceMeters>NAN</DistanceMeters>
          </Trackpoint>
          <Trackpoint>
            <Time>2021-07-17T16:06:16.000Z</Time>
            <Position>
              <LatitudeDegrees>42.71993215195834636688232421875</LatitudeDegrees>
              <LongitudeDegrees>-0.20067709498107433319091796875</LongitudeDegrees>
            </Position>
            <AltitudeMeters>2235.800048828125</AltitudeMeters>
            <DistanceMeters>NAN</DistanceMeters>
          </Trackpoint>
          <Trackpoint>
            <Time>2021-07-17T16:06:19.000Z</Time>
            <Position>
              <LatitudeDegrees>42.7199723012745380401611328125</LatitudeDegrees>
              <LongitudeDegrees>-0.2006575651466846466064453125</LongitudeDegrees>
            </Position>
            <AltitudeMeters>2236.39990234375</AltitudeMeters>
            <DistanceMeters>NAN</DistanceMeters>
          </Trackpoint>
          <Trackpoint>
            <Time>2021-07-17T16:06:22.000Z</Time>
            <Position>
              <LatitudeDegrees>42.7200148813426494598388671875</LatitudeDegrees>
              <LongitudeDegrees>-0.200636275112628936767578125</LongitudeDegrees>
            </Position>
            <AltitudeMeters>2237</AltitudeMeters>
            <DistanceMeters>NAN</DistanceMeters>
          </Trackpoint>
          <Trackpoint>
            <Time>2021-07-17T16:06:24.000Z</Time>
            <Position>
              <LatitudeDegrees>42.72003960795700550079345703125</LatitudeDegrees>
              <LongitudeDegrees>-0.20062546245753765106201171875</LongitudeDegrees>
            </Position>
            <AltitudeMeters>2237.199951171875</AltitudeMeters>
            <DistanceMeters>NAN</DistanceMeters>
          </Trackpoint>
          <Trackpoint>
            <Time>2021-07-17T16:06:27.000Z</Time>
            <Position>
              <LatitudeDegrees>42.72007263265550136566162109375</LatitudeDegrees>
              <LongitudeDegrees>-0.200610794126987457275390625</LongitudeDegrees>
            </Position>
            <AltitudeMeters>2237.800048828125</AltitudeMeters>
            <DistanceMeters>NAN</DistanceMeters>
          </Trackpoint>
          <Trackpoint>
            <Time>2021-07-17T16:06:29.000Z</Time>
            <Position>
              <LatitudeDegrees>42.72008989937603473663330078125</LatitudeDegrees>
              <LongitudeDegrees>-0.20060174167156219482421875</LongitudeDegrees>
            </Position>
            <AltitudeMeters>2238</AltitudeMeters>
            <DistanceMeters>NAN</DistanceMeters>
          </Trackpoint>
          <Trackpoint>
            <Time>2021-07-17T16:06:39.000Z</Time>
            <Position>
              <LatitudeDegrees>42.720172964036464691162109375</LatitudeDegrees>
              <LongitudeDegrees>-0.20054130814969539642333984375</LongitudeDegrees>
            </Position>
            <AltitudeMeters>2239.60009765625</AltitudeMeters>
            <DistanceMeters>NAN</DistanceMeters>
          </Trackpoint>
          <Trackpoint>
            <Time>2021-07-17T16:06:46.000Z</Time>
            <Position>
              <LatitudeDegrees>42.7202100120484828948974609375</LatitudeDegrees>
              <LongitudeDegrees>-0.20045690238475799560546875</LongitudeDegrees>
            </Position>
            <AltitudeMeters>2240.199951171875</AltitudeMeters>
            <DistanceMeters>NAN</DistanceMeters>
          </Trackpoint>
          <Trackpoint>
            <Time>2021-07-17T16:06:47.000Z</Time>
            <Position>
              <LatitudeDegrees>42.720211856067180633544921875</LatitudeDegrees>
              <LongitudeDegrees>-0.20044608972966670989990234375</LongitudeDegrees>
            </Position>
            <AltitudeMeters>2240.199951171875</AltitudeMeters>
            <DistanceMeters>NAN</DistanceMeters>
          </Trackpoint>
          <Trackpoint>
            <Time>2021-07-17T16:06:48.000Z</Time>
            <Position>
              <LatitudeDegrees>42.72021713666617870330810546875</LatitudeDegrees>
              <LongitudeDegrees>-0.20043812692165374755859375</LongitudeDegrees>
            </Position>
            <AltitudeMeters>2240.39990234375</AltitudeMeters>
            <DistanceMeters>NAN</DistanceMeters>
          </Trackpoint>
          <Trackpoint>
            <Time>2021-07-17T16:06:49.000Z</Time>
            <Position>
              <LatitudeDegrees>42.720222584903240203857421875</LatitudeDegrees>
              <LongitudeDegrees>-0.20042966119945049285888671875</LongitudeDegrees>
            </Position>
            <AltitudeMeters>2240.39990234375</AltitudeMeters>
            <DistanceMeters>NAN</DistanceMeters>
          </Trackpoint>
          <Trackpoint>
            <Time>2021-07-17T16:06:50.000Z</Time>
            <Position>
              <LatitudeDegrees>42.7202234230935573577880859375</LatitudeDegrees>
              <LongitudeDegrees>-0.20042069256305694580078125</LongitudeDegrees>
            </Position>
            <AltitudeMeters>2240.60009765625</AltitudeMeters>
            <DistanceMeters>NAN</DistanceMeters>
          </Trackpoint>
          <Trackpoint>
            <Time>2021-07-17T16:06:51.000Z</Time>
            <Position>
              <LatitudeDegrees>42.72022702731192111968994140625</LatitudeDegrees>
              <LongitudeDegrees>-0.2004114724695682525634765625</LongitudeDegrees>
            </Position>
            <AltitudeMeters>2240.60009765625</AltitudeMeters>
            <DistanceMeters>NAN</DistanceMeters>
          </Trackpoint>
          <Trackpoint>
            <Time>2021-07-17T16:06:52.000Z</Time>
            <Position>
              <LatitudeDegrees>42.72023473866283893585205078125</LatitudeDegrees>
              <LongitudeDegrees>-0.20040191709995269775390625</LongitudeDegrees>
            </Position>
            <AltitudeMeters>2240.800048828125</AltitudeMeters>
            <DistanceMeters>NAN</DistanceMeters>
          </Trackpoint>
          <Trackpoint>
            <Time>2021-07-17T16:06:53.000Z</Time>
            <Position>
              <LatitudeDegrees>42.72024597041308879852294921875</LatitudeDegrees>
              <LongitudeDegrees>-0.2003973908722400665283203125</LongitudeDegrees>
            </Position>
            <AltitudeMeters>2241</AltitudeMeters>
            <DistanceMeters>NAN</DistanceMeters>
          </Trackpoint>
          <Trackpoint>
            <Time>2021-07-17T16:06:54.000Z</Time>
            <Position>
              <LatitudeDegrees>42.72025845944881439208984375</LatitudeDegrees>
              <LongitudeDegrees>-0.20039479248225688934326171875</LongitudeDegrees>
            </Position>
            <AltitudeMeters>2241.199951171875</AltitudeMeters>
            <DistanceMeters>NAN</DistanceMeters>
          </Trackpoint>
          <Trackpoint>
            <Time>2021-07-17T16:06:56.000Z</Time>
            <Position>
              <LatitudeDegrees>42.7202738821506500244140625</LatitudeDegrees>
              <LongitudeDegrees>-0.20037719048559665679931640625</LongitudeDegrees>
            </Position>
            <AltitudeMeters>2241.60009765625</AltitudeMeters>
            <DistanceMeters>NAN</DistanceMeters>
          </Trackpoint>
          <Trackpoint>
            <Time>2021-07-17T16:06:58.000Z</Time>
            <Position>
              <LatitudeDegrees>42.720282934606075286865234375</LatitudeDegrees>
              <LongitudeDegrees>-0.2003675512969493865966796875</LongitudeDegrees>
            </Position>
            <AltitudeMeters>2241.800048828125</AltitudeMeters>
            <DistanceMeters>NAN</DistanceMeters>
          </Trackpoint>
          <Trackpoint>
            <Time>2021-07-17T16:07:00.000Z</Time>
            <Position>
              <LatitudeDegrees>42.720282264053821563720703125</LatitudeDegrees>
              <LongitudeDegrees>-0.20034215413033962249755859375</LongitudeDegrees>
            </Position>
            <AltitudeMeters>2241.800048828125</AltitudeMeters>
            <DistanceMeters>NAN</DistanceMeters>
          </Trackpoint>
          <Trackpoint>
            <Time>2021-07-17T16:07:02.000Z</Time>
            <Position>
              <LatitudeDegrees>42.72028620354831218719482421875</LatitudeDegrees>
              <LongitudeDegrees>-0.20031516440212726593017578125</LongitudeDegrees>
            </Position>
            <AltitudeMeters>2241.800048828125</AltitudeMeters>
            <DistanceMeters>NAN</DistanceMeters>
          </Trackpoint>
          <Trackpoint>
            <Time>2021-07-17T16:07:03.000Z</Time>
            <Position>
              <LatitudeDegrees>42.720287628471851348876953125</LatitudeDegrees>
              <LongitudeDegrees>-0.200305692851543426513671875</LongitudeDegrees>
            </Position>
            <AltitudeMeters>2241.800048828125</AltitudeMeters>
            <DistanceMeters>NAN</DistanceMeters>
          </Trackpoint>
          <Trackpoint>
            <Time>2021-07-17T16:07:05.000Z</Time>
            <Position>
              <LatitudeDegrees>42.72029609419405460357666015625</LatitudeDegrees>
              <LongitudeDegrees>-0.20028063096106052398681640625</LongitudeDegrees>
            </Position>
            <AltitudeMeters>2242</AltitudeMeters>
            <DistanceMeters>NAN</DistanceMeters>
          </Trackpoint>
          <Trackpoint>
            <Time>2021-07-17T16:07:09.000Z</Time>
            <Position>
              <LatitudeDegrees>42.7203223295509815216064453125</LatitudeDegrees>
              <LongitudeDegrees>-0.20023084245622158050537109375</LongitudeDegrees>
            </Position>
            <AltitudeMeters>2242.60009765625</AltitudeMeters>
            <DistanceMeters>NAN</DistanceMeters>
          </Trackpoint>
          <Trackpoint>
            <Time>2021-07-17T16:07:11.000Z</Time>
            <Position>
              <LatitudeDegrees>42.72033532150089740753173828125</LatitudeDegrees>
              <LongitudeDegrees>-0.20021357573568820953369140625</LongitudeDegrees>
            </Position>
            <AltitudeMeters>2243</AltitudeMeters>
            <DistanceMeters>NAN</DistanceMeters>
          </Trackpoint>
          <Trackpoint>
            <Time>2021-07-17T16:07:14.000Z</Time>
            <Position>
              <LatitudeDegrees>42.72035300731658935546875</LatitudeDegrees>
              <LongitudeDegrees>-0.20018574781715869903564453125</LongitudeDegrees>
            </Position>
            <AltitudeMeters>2243.39990234375</AltitudeMeters>
            <DistanceMeters>NAN</DistanceMeters>
          </Trackpoint>
          <Trackpoint>
            <Time>2021-07-17T16:07:19.000Z</Time>
            <Position>
              <LatitudeDegrees>42.72038091905415058135986328125</LatitudeDegrees>
              <LongitudeDegrees>-0.2001341991126537322998046875</LongitudeDegrees>
            </Position>
            <AltitudeMeters>2244.39990234375</AltitudeMeters>
            <DistanceMeters>NAN</DistanceMeters>
          </Trackpoint>
          <Trackpoint>
            <Time>2021-07-17T16:07:21.000Z</Time>
            <Position>
              <LatitudeDegrees>42.72038779221475124359130859375</LatitudeDegrees>
              <LongitudeDegrees>-0.20011450164020061492919921875</LongitudeDegrees>
            </Position>
            <AltitudeMeters>2244.800048828125</AltitudeMeters>
            <DistanceMeters>NAN</DistanceMeters>
          </Trackpoint>
          <Trackpoint>
            <Time>2021-07-17T16:07:23.000Z</Time>
            <Position>
              <LatitudeDegrees>42.72038896568119525909423828125</LatitudeDegrees>
              <LongitudeDegrees>-0.20010310225188732147216796875</LongitudeDegrees>
            </Position>
            <AltitudeMeters>2245</AltitudeMeters>
            <DistanceMeters>NAN</DistanceMeters>
          </Trackpoint>
          <Trackpoint>
            <Time>2021-07-17T16:07:26.000Z</Time>
            <Position>
              <LatitudeDegrees>42.72039122879505157470703125</LatitudeDegrees>
              <LongitudeDegrees>-0.200084410607814788818359375</LongitudeDegrees>
            </Position>
            <AltitudeMeters>2245.199951171875</AltitudeMeters>
            <DistanceMeters>NAN</DistanceMeters>
          </Trackpoint>
          <Trackpoint>
            <Time>2021-07-17T16:07:27.000Z</Time>
            <Position>
              <LatitudeDegrees>42.72039148025214672088623046875</LatitudeDegrees>
              <LongitudeDegrees>-0.2000795491039752960205078125</LongitudeDegrees>
            </Position>
            <AltitudeMeters>2245.199951171875</AltitudeMeters>
            <DistanceMeters>NAN</DistanceMeters>
          </Trackpoint>
          <Trackpoint>
            <Time>2021-07-17T16:07:29.000Z</Time>
            <Position>
              <LatitudeDegrees>42.72039181552827358245849609375</LatitudeDegrees>
              <LongitudeDegrees>-0.20007695071399211883544921875</LongitudeDegrees>
            </Position>
            <AltitudeMeters>2245.199951171875</AltitudeMeters>
            <DistanceMeters>NAN</DistanceMeters>
          </Trackpoint>
          <Trackpoint>
            <Time>2021-07-17T16:07:32.000Z</Time>
            <Position>
              <LatitudeDegrees>42.72039768286049365997314453125</LatitudeDegrees>
              <LongitudeDegrees>-0.20005281083285808563232421875</LongitudeDegrees>
            </Position>
            <AltitudeMeters>2245.39990234375</AltitudeMeters>
            <DistanceMeters>NAN</DistanceMeters>
          </Trackpoint>
          <Trackpoint>
            <Time>2021-07-17T16:07:33.000Z</Time>
            <Position>
              <LatitudeDegrees>42.72039902396500110626220703125</LatitudeDegrees>
              <LongitudeDegrees>-0.200044848024845123291015625</LongitudeDegrees>
            </Position>
            <AltitudeMeters>2245.60009765625</AltitudeMeters>
            <DistanceMeters>NAN</DistanceMeters>
          </Trackpoint>
          <Trackpoint>
            <Time>2021-07-17T16:07:34.000Z</Time>
            <Position>
              <LatitudeDegrees>42.7204004488885402679443359375</LatitudeDegrees>
              <LongitudeDegrees>-0.2000362984836101531982421875</LongitudeDegrees>
            </Position>
            <AltitudeMeters>2245.60009765625</AltitudeMeters>
            <DistanceMeters>NAN</DistanceMeters>
          </Trackpoint>
          <Trackpoint>
            <Time>2021-07-17T16:07:42.000Z</Time>
            <Position>
              <LatitudeDegrees>42.720411010086536407470703125</LatitudeDegrees>
              <LongitudeDegrees>-0.19997267983853816986083984375</LongitudeDegrees>
            </Position>
            <AltitudeMeters>2246.39990234375</AltitudeMeters>
            <DistanceMeters>NAN</DistanceMeters>
          </Trackpoint>
          <Trackpoint>
            <Time>2021-07-17T16:07:50.000Z</Time>
            <Position>
              <LatitudeDegrees>42.720437832176685333251953125</LatitudeDegrees>
              <LongitudeDegrees>-0.199904702603816986083984375</LongitudeDegrees>
            </Position>
            <AltitudeMeters>2247.39990234375</AltitudeMeters>
            <DistanceMeters>NAN</DistanceMeters>
          </Trackpoint>
          <Trackpoint>
            <Time>2021-07-17T16:07:53.000Z</Time>
            <Position>
              <LatitudeDegrees>42.720442526042461395263671875</LatitudeDegrees>
              <LongitudeDegrees>-0.1998740248382091522216796875</LongitudeDegrees>
            </Position>
            <AltitudeMeters>2247.60009765625</AltitudeMeters>
            <DistanceMeters>NAN</DistanceMeters>
          </Trackpoint>
          <Trackpoint>
            <Time>2021-07-17T16:08:04.000Z</Time>
            <Position>
              <LatitudeDegrees>42.72043489851057529449462890625</LatitudeDegrees>
              <LongitudeDegrees>-0.199762545526027679443359375</LongitudeDegrees>
            </Position>
            <AltitudeMeters>2247.60009765625</AltitudeMeters>
            <DistanceMeters>NAN</DistanceMeters>
          </Trackpoint>
          <Trackpoint>
            <Time>2021-07-17T16:08:05.000Z</Time>
            <Position>
              <LatitudeDegrees>42.720433138310909271240234375</LatitudeDegrees>
              <LongitudeDegrees>-0.19975877366960048675537109375</LongitudeDegrees>
            </Position>
            <AltitudeMeters>2247.60009765625</AltitudeMeters>
            <DistanceMeters>NAN</DistanceMeters>
          </Trackpoint>
          <Trackpoint>
            <Time>2021-07-17T16:08:10.000Z</Time>
            <Position>
              <LatitudeDegrees>42.7204359881579875946044921875</LatitudeDegrees>
              <LongitudeDegrees>-0.19976547919213771820068359375</LongitudeDegrees>
            </Position>
            <AltitudeMeters>2247.60009765625</AltitudeMeters>
            <DistanceMeters>NAN</DistanceMeters>
          </Trackpoint>
          <Trackpoint>
            <Time>2021-07-17T16:08:14.000Z</Time>
            <Position>
              <LatitudeDegrees>42.7204296179115772247314453125</LatitudeDegrees>
              <LongitudeDegrees>-0.1997653953731060028076171875</LongitudeDegrees>
            </Position>
            <AltitudeMeters>2247.60009765625</AltitudeMeters>
            <DistanceMeters>NAN</DistanceMeters>
          </Trackpoint>
          <Trackpoint>
            <Time>2021-07-17T16:08:21.000Z</Time>
            <Position>
              <LatitudeDegrees>42.7204296179115772247314453125</LatitudeDegrees>
              <LongitudeDegrees>-0.1997653953731060028076171875</LongitudeDegrees>
            </Position>
            <AltitudeMeters>2247.60009765625</AltitudeMeters>
            <DistanceMeters>NAN</DistanceMeters>
          </Trackpoint>
          <Trackpoint>
            <Time>2021-07-17T16:08:34.000Z</Time>
            <Position>
              <LatitudeDegrees>42.7204229123890399932861328125</LatitudeDegrees>
              <LongitudeDegrees>-0.19970345310866832733154296875</LongitudeDegrees>
            </Position>
            <AltitudeMeters>2247.60009765625</AltitudeMeters>
            <DistanceMeters>NAN</DistanceMeters>
          </Trackpoint>
          <Trackpoint>
            <Time>2021-07-17T16:08:41.000Z</Time>
            <Position>
              <LatitudeDegrees>42.72043414413928985595703125</LatitudeDegrees>
              <LongitudeDegrees>-0.19961175508797168731689453125</LongitudeDegrees>
            </Position>
            <AltitudeMeters>2247.800048828125</AltitudeMeters>
            <DistanceMeters>NAN</DistanceMeters>
          </Trackpoint>
          <Trackpoint>
            <Time>2021-07-17T16:08:44.000Z</Time>
            <Position>
              <LatitudeDegrees>42.7204349823296070098876953125</LatitudeDegrees>
              <LongitudeDegrees>-0.19957588054239749908447265625</LongitudeDegrees>
            </Position>
            <AltitudeMeters>2247.60009765625</AltitudeMeters>
            <DistanceMeters>NAN</DistanceMeters>
          </Trackpoint>
          <Trackpoint>
            <Time>2021-07-17T16:08:50.000Z</Time>
            <Position>
              <LatitudeDegrees>42.7204664982855319976806640625</LatitudeDegrees>
              <LongitudeDegrees>-0.1995179615914821624755859375</LongitudeDegrees>
            </Position>
            <AltitudeMeters>2247.800048828125</AltitudeMeters>
            <DistanceMeters>NAN</DistanceMeters>
          </Trackpoint>
          <Trackpoint>
            <Time>2021-07-17T16:08:53.000Z</Time>
            <Position>
              <LatitudeDegrees>42.72047110833227634429931640625</LatitudeDegrees>
              <LongitudeDegrees>-0.199484936892986297607421875</LongitudeDegrees>
            </Position>
            <AltitudeMeters>2248</AltitudeMeters>
            <DistanceMeters>NAN</DistanceMeters>
          </Trackpoint>
          <Trackpoint>
            <Time>2021-07-17T16:08:56.000Z</Time>
            <Position>
              <LatitudeDegrees>42.720487453043460845947265625</LatitudeDegrees>
              <LongitudeDegrees>-0.19944646395742893218994140625</LongitudeDegrees>
            </Position>
            <AltitudeMeters>2248.199951171875</AltitudeMeters>
            <DistanceMeters>NAN</DistanceMeters>
          </Trackpoint>
          <Trackpoint>
            <Time>2021-07-17T16:08:58.000Z</Time>
            <Position>
              <LatitudeDegrees>42.72049474529922008514404296875</LatitudeDegrees>
              <LongitudeDegrees>-0.19942701794207096099853515625</LongitudeDegrees>
            </Position>
            <AltitudeMeters>2248.39990234375</AltitudeMeters>
            <DistanceMeters>NAN</DistanceMeters>
          </Trackpoint>
          <Trackpoint>
            <Time>2021-07-17T16:09:00.000Z</Time>
            <Position>
              <LatitudeDegrees>42.7204970084130764007568359375</LatitudeDegrees>
              <LongitudeDegrees>-0.1994026266038417816162109375</LongitudeDegrees>
            </Position>
            <AltitudeMeters>2248.60009765625</AltitudeMeters>
            <DistanceMeters>NAN</DistanceMeters>
          </Trackpoint>
          <Trackpoint>
            <Time>2021-07-17T16:09:01.000Z</Time>
            <Position>
              <LatitudeDegrees>42.72050010971724987030029296875</LatitudeDegrees>
              <LongitudeDegrees>-0.19939013756811618804931640625</LongitudeDegrees>
            </Position>
            <AltitudeMeters>2248.60009765625</AltitudeMeters>
            <DistanceMeters>NAN</DistanceMeters>
          </Trackpoint>
          <Trackpoint>
            <Time>2021-07-17T16:09:07.000Z</Time>
            <Position>
              <LatitudeDegrees>42.720520980656147003173828125</LatitudeDegrees>
              <LongitudeDegrees>-0.199328027665615081787109375</LongitudeDegrees>
            </Position>
            <AltitudeMeters>2249</AltitudeMeters>
            <DistanceMeters>NAN</DistanceMeters>
          </Trackpoint>
          <Trackpoint>
            <Time>2021-07-17T16:09:15.000Z</Time>
            <Position>
              <LatitudeDegrees>42.720524333417415618896484375</LatitudeDegrees>
              <LongitudeDegrees>-0.19923272542655467987060546875</LongitudeDegrees>
            </Position>
            <AltitudeMeters>2249</AltitudeMeters>
            <DistanceMeters>NAN</DistanceMeters>
          </Trackpoint>
          <Trackpoint>
            <Time>2021-07-17T16:09:23.000Z</Time>
            <Position>
              <LatitudeDegrees>42.7205462940037250518798828125</LatitudeDegrees>
              <LongitudeDegrees>-0.19913700409233570098876953125</LongitudeDegrees>
            </Position>
            <AltitudeMeters>2249.199951171875</AltitudeMeters>
            <DistanceMeters>NAN</DistanceMeters>
          </Trackpoint>
          <Trackpoint>
            <Time>2021-07-17T16:09:31.000Z</Time>
            <Position>
              <LatitudeDegrees>42.7205375768244266510009765625</LatitudeDegrees>
              <LongitudeDegrees>-0.19905678927898406982421875</LongitudeDegrees>
            </Position>
            <AltitudeMeters>2248.800048828125</AltitudeMeters>
            <DistanceMeters>NAN</DistanceMeters>
          </Trackpoint>
          <Trackpoint>
            <Time>2021-07-17T16:09:37.000Z</Time>
            <Position>
              <LatitudeDegrees>42.72054553963243961334228515625</LatitudeDegrees>
              <LongitudeDegrees>-0.1989944279193878173828125</LongitudeDegrees>
            </Position>
            <AltitudeMeters>2248.60009765625</AltitudeMeters>
            <DistanceMeters>NAN</DistanceMeters>
          </Trackpoint>
          <Trackpoint>
            <Time>2021-07-17T16:09:40.000Z</Time>
            <Position>
              <LatitudeDegrees>42.720548473298549652099609375</LatitudeDegrees>
              <LongitudeDegrees>-0.19896701909601688385009765625</LongitudeDegrees>
            </Position>
            <AltitudeMeters>2248.60009765625</AltitudeMeters>
            <DistanceMeters>NAN</DistanceMeters>
          </Trackpoint>
          <Trackpoint>
            <Time>2021-07-17T16:09:44.000Z</Time>
            <Position>
              <LatitudeDegrees>42.720563225448131561279296875</LatitudeDegrees>
              <LongitudeDegrees>-0.19893030636012554168701171875</LongitudeDegrees>
            </Position>
            <AltitudeMeters>2248.60009765625</AltitudeMeters>
            <DistanceMeters>NAN</DistanceMeters>
          </Trackpoint>
          <Trackpoint>
            <Time>2021-07-17T16:09:48.000Z</Time>
            <Position>
              <LatitudeDegrees>42.72057521156966686248779296875</LatitudeDegrees>
              <LongitudeDegrees>-0.19889325834810733795166015625</LongitudeDegrees>
            </Position>
            <AltitudeMeters>2248.800048828125</AltitudeMeters>
            <DistanceMeters>NAN</DistanceMeters>
          </Trackpoint>
          <Trackpoint>
            <Time>2021-07-17T16:09:59.000Z</Time>
            <Position>
              <LatitudeDegrees>42.72058526985347270965576171875</LatitudeDegrees>
              <LongitudeDegrees>-0.19876920618116855621337890625</LongitudeDegrees>
            </Position>
            <AltitudeMeters>2248.39990234375</AltitudeMeters>
            <DistanceMeters>NAN</DistanceMeters>
          </Trackpoint>
          <Trackpoint>
            <Time>2021-07-17T16:10:08.000Z</Time>
            <Position>
              <LatitudeDegrees>42.72057831287384033203125</LatitudeDegrees>
              <LongitudeDegrees>-0.19867700524628162384033203125</LongitudeDegrees>
            </Position>
            <AltitudeMeters>2248</AltitudeMeters>
            <DistanceMeters>NAN</DistanceMeters>
          </Trackpoint>
          <Trackpoint>
            <Time>2021-07-17T16:10:10.000Z</Time>
            <Position>
              <LatitudeDegrees>42.7205747924745082855224609375</LatitudeDegrees>
              <LongitudeDegrees>-0.198662169277667999267578125</LongitudeDegrees>
            </Position>
            <AltitudeMeters>2247.800048828125</AltitudeMeters>
            <DistanceMeters>NAN</DistanceMeters>
          </Trackpoint>
          <Trackpoint>
            <Time>2021-07-17T16:10:16.000Z</Time>
            <Position>
              <LatitudeDegrees>42.72056012414395809173583984375</LatitudeDegrees>
              <LongitudeDegrees>-0.19860860891640186309814453125</LongitudeDegrees>
            </Position>
            <AltitudeMeters>2247.39990234375</AltitudeMeters>
            <DistanceMeters>NAN</DistanceMeters>
          </Trackpoint>
          <Trackpoint>
            <Time>2021-07-17T16:10:19.000Z</Time>
            <Position>
              <LatitudeDegrees>42.72055350244045257568359375</LatitudeDegrees>
              <LongitudeDegrees>-0.1985738240182399749755859375</LongitudeDegrees>
            </Position>
            <AltitudeMeters>2247.199951171875</AltitudeMeters>
            <DistanceMeters>NAN</DistanceMeters>
          </Trackpoint>
          <Trackpoint>
            <Time>2021-07-17T16:10:21.000Z</Time>
            <Position>
              <LatitudeDegrees>42.7205479703843593597412109375</LatitudeDegrees>
              <LongitudeDegrees>-0.19855446182191371917724609375</LongitudeDegrees>
            </Position>
            <AltitudeMeters>2247</AltitudeMeters>
            <DistanceMeters>NAN</DistanceMeters>
          </Trackpoint>
          <Trackpoint>
            <Time>2021-07-17T16:10:24.000Z</Time>
            <Position>
              <LatitudeDegrees>42.72054486908018589019775390625</LatitudeDegrees>
              <LongitudeDegrees>-0.1985223591327667236328125</LongitudeDegrees>
            </Position>
            <AltitudeMeters>2246.60009765625</AltitudeMeters>
            <DistanceMeters>NAN</DistanceMeters>
          </Trackpoint>
          <Trackpoint>
            <Time>2021-07-17T16:10:29.000Z</Time>
            <Position>
              <LatitudeDegrees>42.72054537199437618255615234375</LatitudeDegrees>
              <LongitudeDegrees>-0.19848405383527278900146484375</LongitudeDegrees>
            </Position>
            <AltitudeMeters>2246.199951171875</AltitudeMeters>
            <DistanceMeters>NAN</DistanceMeters>
          </Trackpoint>
          <Trackpoint>
            <Time>2021-07-17T16:10:32.000Z</Time>
            <Position>
              <LatitudeDegrees>42.720531709492206573486328125</LatitudeDegrees>
              <LongitudeDegrees>-0.1984641887247562408447265625</LongitudeDegrees>
            </Position>
            <AltitudeMeters>2245.800048828125</AltitudeMeters>
            <DistanceMeters>NAN</DistanceMeters>
          </Trackpoint>
          <Trackpoint>
            <Time>2021-07-17T16:10:39.000Z</Time>
            <Position>
              <LatitudeDegrees>42.7205006964504718780517578125</LatitudeDegrees>
              <LongitudeDegrees>-0.19842588342726230621337890625</LongitudeDegrees>
            </Position>
            <AltitudeMeters>2244.800048828125</AltitudeMeters>
            <DistanceMeters>NAN</DistanceMeters>
          </Trackpoint>
          <Trackpoint>
            <Time>2021-07-17T16:10:41.000Z</Time>
            <Position>
              <LatitudeDegrees>42.7204711921513080596923828125</LatitudeDegrees>
              <LongitudeDegrees>-0.19841062836349010467529296875</LongitudeDegrees>
            </Position>
            <AltitudeMeters>2244.199951171875</AltitudeMeters>
            <DistanceMeters>NAN</DistanceMeters>
          </Trackpoint>
          <Trackpoint>
            <Time>2021-07-17T16:10:48.000Z</Time>
            <Position>
              <LatitudeDegrees>42.720412351191043853759765625</LatitudeDegrees>
              <LongitudeDegrees>-0.19840308465063571929931640625</LongitudeDegrees>
            </Position>
            <AltitudeMeters>2243.199951171875</AltitudeMeters>
            <DistanceMeters>NAN</DistanceMeters>
          </Trackpoint>
          <Trackpoint>
            <Time>2021-07-17T16:10:58.000Z</Time>
            <Position>
              <LatitudeDegrees>42.72033096291124820709228515625</LatitudeDegrees>
              <LongitudeDegrees>-0.198378525674343109130859375</LongitudeDegrees>
            </Position>
            <AltitudeMeters>2241.800048828125</AltitudeMeters>
            <DistanceMeters>NAN</DistanceMeters>
          </Trackpoint>
          <Trackpoint>
            <Time>2021-07-17T16:10:59.000Z</Time>
            <Position>
              <LatitudeDegrees>42.72032241337001323699951171875</LatitudeDegrees>
              <LongitudeDegrees>-0.19837358035147190093994140625</LongitudeDegrees>
            </Position>
            <AltitudeMeters>2241.800048828125</AltitudeMeters>
            <DistanceMeters>NAN</DistanceMeters>
          </Trackpoint>
          <Trackpoint>
            <Time>2021-07-17T16:11:04.000Z</Time>
            <Position>
              <LatitudeDegrees>42.720283605158329010009765625</LatitudeDegrees>
              <LongitudeDegrees>-0.1983622647821903228759765625</LongitudeDegrees>
            </Position>
            <AltitudeMeters>2241.60009765625</AltitudeMeters>
            <DistanceMeters>NAN</DistanceMeters>
          </Trackpoint>
          <Trackpoint>
            <Time>2021-07-17T16:11:07.000Z</Time>
            <Position>
              <LatitudeDegrees>42.7202572859823703765869140625</LatitudeDegrees>
              <LongitudeDegrees>-0.19834809936583042144775390625</LongitudeDegrees>
            </Position>
            <AltitudeMeters>2241.39990234375</AltitudeMeters>
            <DistanceMeters>NAN</DistanceMeters>
          </Trackpoint>
          <Trackpoint>
            <Time>2021-07-17T16:11:09.000Z</Time>
            <Position>
              <LatitudeDegrees>42.72024580277502536773681640625</LatitudeDegrees>
              <LongitudeDegrees>-0.19835061393678188323974609375</LongitudeDegrees>
            </Position>
            <AltitudeMeters>2241.39990234375</AltitudeMeters>
            <DistanceMeters>NAN</DistanceMeters>
          </Trackpoint>
          <Trackpoint>
            <Time>2021-07-17T16:11:10.000Z</Time>
            <Position>
              <LatitudeDegrees>42.72024060599505901336669921875</LatitudeDegrees>
              <LongitudeDegrees>-0.1983508653938770294189453125</LongitudeDegrees>
            </Position>
            <AltitudeMeters>2241.39990234375</AltitudeMeters>
            <DistanceMeters>NAN</DistanceMeters>
          </Trackpoint>
          <Trackpoint>
            <Time>2021-07-17T16:11:11.000Z</Time>
            <Position>
              <LatitudeDegrees>42.72023641504347324371337890625</LatitudeDegrees>
              <LongitudeDegrees>-0.198344998061656951904296875</LongitudeDegrees>
            </Position>
            <AltitudeMeters>2241.199951171875</AltitudeMeters>
            <DistanceMeters>NAN</DistanceMeters>
          </Trackpoint>
          <Trackpoint>
            <Time>2021-07-17T16:11:13.000Z</Time>
            <Position>
              <LatitudeDegrees>42.720223926007747650146484375</LatitudeDegrees>
              <LongitudeDegrees>-0.19832999445497989654541015625</LongitudeDegrees>
            </Position>
            <AltitudeMeters>2241</AltitudeMeters>
            <DistanceMeters>NAN</DistanceMeters>
          </Trackpoint>
          <Trackpoint>
            <Time>2021-07-17T16:11:16.000Z</Time>
            <Position>
              <LatitudeDegrees>42.72020976059138774871826171875</LatitudeDegrees>
              <LongitudeDegrees>-0.1983032561838626861572265625</LongitudeDegrees>
            </Position>
            <AltitudeMeters>2240.60009765625</AltitudeMeters>
            <DistanceMeters>NAN</DistanceMeters>
          </Trackpoint>
          <Trackpoint>
            <Time>2021-07-17T16:11:18.000Z</Time>
            <Position>
              <LatitudeDegrees>42.7201942540705204010009765625</LatitudeDegrees>
              <LongitudeDegrees>-0.19828833639621734619140625</LongitudeDegrees>
            </Position>
            <AltitudeMeters>2240.39990234375</AltitudeMeters>
            <DistanceMeters>NAN</DistanceMeters>
          </Trackpoint>
          <Trackpoint>
            <Time>2021-07-17T16:11:24.000Z</Time>
            <Position>
              <LatitudeDegrees>42.72015142254531383514404296875</LatitudeDegrees>
              <LongitudeDegrees>-0.198246426880359649658203125</LongitudeDegrees>
            </Position>
            <AltitudeMeters>2239.60009765625</AltitudeMeters>
            <DistanceMeters>NAN</DistanceMeters>
          </Trackpoint>
          <Trackpoint>
            <Time>2021-07-17T16:11:32.000Z</Time>
            <Position>
              <LatitudeDegrees>42.72008989937603473663330078125</LatitudeDegrees>
              <LongitudeDegrees>-0.198222286999225616455078125</LongitudeDegrees>
            </Position>
            <AltitudeMeters>2239</AltitudeMeters>
            <DistanceMeters>NAN</DistanceMeters>
          </Trackpoint>
          <Trackpoint>
            <Time>2021-07-17T16:11:45.000Z</Time>
            <Position>
              <LatitudeDegrees>42.7200138755142688751220703125</LatitudeDegrees>
              <LongitudeDegrees>-0.1981788687407970428466796875</LongitudeDegrees>
            </Position>
            <AltitudeMeters>2239</AltitudeMeters>
            <DistanceMeters>NAN</DistanceMeters>
          </Trackpoint>
          <Trackpoint>
            <Time>2021-07-17T16:11:54.000Z</Time>
            <Position>
              <LatitudeDegrees>42.71996987052261829376220703125</LatitudeDegrees>
              <LongitudeDegrees>-0.1981141604483127593994140625</LongitudeDegrees>
            </Position>
            <AltitudeMeters>2239.199951171875</AltitudeMeters>
            <DistanceMeters>NAN</DistanceMeters>
          </Trackpoint>
          <Trackpoint>
            <Time>2021-07-17T16:12:00.000Z</Time>
            <Position>
              <LatitudeDegrees>42.7199438028037548065185546875</LatitudeDegrees>
              <LongitudeDegrees>-0.19809119403362274169921875</LongitudeDegrees>
            </Position>
            <AltitudeMeters>2239.199951171875</AltitudeMeters>
            <DistanceMeters>NAN</DistanceMeters>
          </Trackpoint>
          <Trackpoint>
            <Time>2021-07-17T16:12:09.000Z</Time>
            <Position>
              <LatitudeDegrees>42.71988688968122005462646484375</LatitudeDegrees>
              <LongitudeDegrees>-0.1980207860469818115234375</LongitudeDegrees>
            </Position>
            <AltitudeMeters>2239.39990234375</AltitudeMeters>
            <DistanceMeters>NAN</DistanceMeters>
          </Trackpoint>
          <Trackpoint>
            <Time>2021-07-17T16:12:17.000Z</Time>
            <Position>
              <LatitudeDegrees>42.719872556626796722412109375</LatitudeDegrees>
              <LongitudeDegrees>-0.19807518459856510162353515625</LongitudeDegrees>
            </Position>
            <AltitudeMeters>2239.800048828125</AltitudeMeters>
            <DistanceMeters>NAN</DistanceMeters>
          </Trackpoint>
          <Trackpoint>
            <Time>2021-07-17T16:12:24.000Z</Time>
            <Position>
              <LatitudeDegrees>42.71984783001244068145751953125</LatitudeDegrees>
              <LongitudeDegrees>-0.198142491281032562255859375</LongitudeDegrees>
            </Position>
            <AltitudeMeters>2240.199951171875</AltitudeMeters>
            <DistanceMeters>NAN</DistanceMeters>
          </Trackpoint>
          <Trackpoint>
            <Time>2021-07-17T16:12:31.000Z</Time>
            <Position>
              <LatitudeDegrees>42.719856798648834228515625</LatitudeDegrees>
              <LongitudeDegrees>-0.19816135056316852569580078125</LongitudeDegrees>
            </Position>
            <AltitudeMeters>2240.199951171875</AltitudeMeters>
            <DistanceMeters>NAN</DistanceMeters>
          </Trackpoint>
          <Trackpoint>
            <Time>2021-07-17T16:12:38.000Z</Time>
            <Position>
              <LatitudeDegrees>42.7198653481900691986083984375</LatitudeDegrees>
              <LongitudeDegrees>-0.198147855699062347412109375</LongitudeDegrees>
            </Position>
            <AltitudeMeters>2240</AltitudeMeters>
            <DistanceMeters>NAN</DistanceMeters>
          </Trackpoint>
          <Trackpoint>
            <Time>2021-07-17T16:13:03.000Z</Time>
            <Position>
              <LatitudeDegrees>42.719864509999752044677734375</LatitudeDegrees>
              <LongitudeDegrees>-0.1981493644416332244873046875</LongitudeDegrees>
            </Position>
            <AltitudeMeters>2240</AltitudeMeters>
            <DistanceMeters>NAN</DistanceMeters>
          </Trackpoint>
          <Trackpoint>
            <Time>2021-07-17T16:13:06.000Z</Time>
            <Position>
              <LatitudeDegrees>42.71986459381878376007080078125</LatitudeDegrees>
              <LongitudeDegrees>-0.19814760424196720123291015625</LongitudeDegrees>
            </Position>
            <AltitudeMeters>2240</AltitudeMeters>
            <DistanceMeters>NAN</DistanceMeters>
          </Trackpoint>
          <Trackpoint>
            <Time>2021-07-17T16:13:09.000Z</Time>
            <Position>
              <LatitudeDegrees>42.719863839447498321533203125</LatitudeDegrees>
              <LongitudeDegrees>-0.198142826557159423828125</LongitudeDegrees>
            </Position>
            <AltitudeMeters>2240</AltitudeMeters>
            <DistanceMeters>NAN</DistanceMeters>
          </Trackpoint>
          <Trackpoint>
            <Time>2021-07-17T16:13:23.000Z</Time>
            <Position>
              <LatitudeDegrees>42.71986761130392551422119140625</LatitudeDegrees>
              <LongitudeDegrees>-0.1981429941952228546142578125</LongitudeDegrees>
            </Position>
            <AltitudeMeters>2240</AltitudeMeters>
            <DistanceMeters>NAN</DistanceMeters>
          </Trackpoint>
          <Trackpoint>
            <Time>2021-07-17T16:13:40.000Z</Time>
            <Position>
              <LatitudeDegrees>42.71986627019941806793212890625</LatitudeDegrees>
              <LongitudeDegrees>-0.19815422594547271728515625</LongitudeDegrees>
            </Position>
            <AltitudeMeters>2240</AltitudeMeters>
            <DistanceMeters>NAN</DistanceMeters>
          </Trackpoint>
          <Trackpoint>
            <Time>2021-07-17T16:13:46.000Z</Time>
            <Position>
              <LatitudeDegrees>42.71986442618072032928466796875</LatitudeDegrees>
              <LongitudeDegrees>-0.19816302694380283355712890625</LongitudeDegrees>
            </Position>
            <AltitudeMeters>2240.199951171875</AltitudeMeters>
            <DistanceMeters>NAN</DistanceMeters>
          </Trackpoint>
          <Trackpoint>
            <Time>2021-07-17T16:14:27.000Z</Time>
            <Position>
              <LatitudeDegrees>42.71987783722579479217529296875</LatitudeDegrees>
              <LongitudeDegrees>-0.19814911298453807830810546875</LongitudeDegrees>
            </Position>
            <AltitudeMeters>2240</AltitudeMeters>
            <DistanceMeters>NAN</DistanceMeters>
          </Trackpoint>
          <Trackpoint>
            <Time>2021-07-17T16:14:36.000Z</Time>
            <Position>
              <LatitudeDegrees>42.71988085471093654632568359375</LatitudeDegrees>
              <LongitudeDegrees>-0.19815162755548954010009765625</LongitudeDegrees>
            </Position>
            <AltitudeMeters>2240</AltitudeMeters>
            <DistanceMeters>NAN</DistanceMeters>
          </Trackpoint>
          <Trackpoint>
            <Time>2021-07-17T16:14:46.000Z</Time>
            <Position>
              <LatitudeDegrees>42.719885967671871185302734375</LatitudeDegrees>
              <LongitudeDegrees>-0.198159925639629364013671875</LongitudeDegrees>
            </Position>
            <AltitudeMeters>2240</AltitudeMeters>
            <DistanceMeters>NAN</DistanceMeters>
          </Trackpoint>
          <Trackpoint>
            <Time>2021-07-17T16:14:54.000Z</Time>
            <Position>
              <LatitudeDegrees>42.71988722495734691619873046875</LatitudeDegrees>
              <LongitudeDegrees>-0.19816252402961254119873046875</LongitudeDegrees>
            </Position>
            <AltitudeMeters>2240</AltitudeMeters>
            <DistanceMeters>NAN</DistanceMeters>
          </Trackpoint>
          <Trackpoint>
            <Time>2021-07-17T16:14:59.000Z</Time>
            <Position>
              <LatitudeDegrees>42.7198864705860614776611328125</LatitudeDegrees>
              <LongitudeDegrees>-0.1981647871434688568115234375</LongitudeDegrees>
            </Position>
            <AltitudeMeters>2240</AltitudeMeters>
            <DistanceMeters>NAN</DistanceMeters>
          </Trackpoint>
          <Trackpoint>
            <Time>2021-07-17T16:15:14.000Z</Time>
            <Position>
              <LatitudeDegrees>42.71987917833030223846435546875</LatitudeDegrees>
              <LongitudeDegrees>-0.19816906191408634185791015625</LongitudeDegrees>
            </Position>
            <AltitudeMeters>2240</AltitudeMeters>
            <DistanceMeters>NAN</DistanceMeters>
          </Trackpoint>
          <Trackpoint>
            <Time>2021-07-17T16:15:50.000Z</Time>
            <Position>
              <LatitudeDegrees>42.7198780886828899383544921875</LatitudeDegrees>
              <LongitudeDegrees>-0.1981899328529834747314453125</LongitudeDegrees>
            </Position>
            <AltitudeMeters>2240.199951171875</AltitudeMeters>
            <DistanceMeters>NAN</DistanceMeters>
          </Trackpoint>
          <Trackpoint>
            <Time>2021-07-17T16:15:53.000Z</Time>
            <Position>
              <LatitudeDegrees>42.7198787592351436614990234375</LatitudeDegrees>
              <LongitudeDegrees>-0.19819001667201519012451171875</LongitudeDegrees>
            </Position>
            <AltitudeMeters>2240</AltitudeMeters>
            <DistanceMeters>NAN</DistanceMeters>
          </Trackpoint>
          <Trackpoint>
            <Time>2021-07-17T16:16:10.000Z</Time>
            <Position>
              <LatitudeDegrees>42.7198794297873973846435546875</LatitudeDegrees>
              <LongitudeDegrees>-0.1981895975768566131591796875</LongitudeDegrees>
            </Position>
            <AltitudeMeters>2240</AltitudeMeters>
            <DistanceMeters>NAN</DistanceMeters>
          </Trackpoint>
          <Trackpoint>
            <Time>2021-07-17T16:16:12.000Z</Time>
            <Position>
              <LatitudeDegrees>42.7198794297873973846435546875</LatitudeDegrees>
              <LongitudeDegrees>-0.19818951375782489776611328125</LongitudeDegrees>
            </Position>
            <AltitudeMeters>2240</AltitudeMeters>
            <DistanceMeters>NAN</DistanceMeters>
          </Trackpoint>
          <Trackpoint>
            <Time>2021-07-17T16:16:32.000Z</Time>
            <Position>
              <LatitudeDegrees>42.7198797650635242462158203125</LatitudeDegrees>
              <LongitudeDegrees>-0.1981885917484760284423828125</LongitudeDegrees>
            </Position>
            <AltitudeMeters>2240</AltitudeMeters>
            <DistanceMeters>NAN</DistanceMeters>
          </Trackpoint>
          <Trackpoint>
            <Time>2021-07-17T16:16:35.000Z</Time>
            <Position>
              <LatitudeDegrees>42.7198797650635242462158203125</LatitudeDegrees>
              <LongitudeDegrees>-0.19818842411041259765625</LongitudeDegrees>
            </Position>
            <AltitudeMeters>2240</AltitudeMeters>
            <DistanceMeters>NAN</DistanceMeters>
          </Trackpoint>
          <Trackpoint>
            <Time>2021-07-17T16:16:43.000Z</Time>
            <Position>
              <LatitudeDegrees>42.71987984888255596160888671875</LatitudeDegrees>
              <LongitudeDegrees>-0.19818817265331745147705078125</LongitudeDegrees>
            </Position>
            <AltitudeMeters>2240</AltitudeMeters>
            <DistanceMeters>NAN</DistanceMeters>
          </Trackpoint>
          <Trackpoint>
            <Time>2021-07-17T16:17:36.000Z</Time>
            <Position>
              <LatitudeDegrees>42.71988068707287311553955078125</LatitudeDegrees>
              <LongitudeDegrees>-0.19818666391074657440185546875</LongitudeDegrees>
            </Position>
            <AltitudeMeters>2240</AltitudeMeters>
            <DistanceMeters>NAN</DistanceMeters>
          </Trackpoint>
          <Trackpoint>
            <Time>2021-07-17T16:17:39.000Z</Time>
            <Position>
              <LatitudeDegrees>42.71988068707287311553955078125</LatitudeDegrees>
              <LongitudeDegrees>-0.19818666391074657440185546875</LongitudeDegrees>
            </Position>
            <AltitudeMeters>2240</AltitudeMeters>
            <DistanceMeters>NAN</DistanceMeters>
          </Trackpoint>
          <Trackpoint>
            <Time>2021-07-17T16:17:41.000Z</Time>
            <Position>
              <LatitudeDegrees>42.71988068707287311553955078125</LatitudeDegrees>
              <LongitudeDegrees>-0.1981865800917148590087890625</LongitudeDegrees>
            </Position>
            <AltitudeMeters>2240</AltitudeMeters>
            <DistanceMeters>NAN</DistanceMeters>
          </Trackpoint>
          <Trackpoint>
            <Time>2021-07-18T04:29:53.000Z</Time>
            <Position>
              <LatitudeDegrees>42.7212272398173809051513671875</LatitudeDegrees>
              <LongitudeDegrees>-0.19809714518487453460693359375</LongitudeDegrees>
            </Position>
            <AltitudeMeters>2267.199951171875</AltitudeMeters>
            <DistanceMeters>NAN</DistanceMeters>
          </Trackpoint>
          <Trackpoint>
            <Time>2021-07-18T04:29:54.000Z</Time>
            <Position>
              <LatitudeDegrees>42.72122849710285663604736328125</LatitudeDegrees>
              <LongitudeDegrees>-0.198096893727779388427734375</LongitudeDegrees>
            </Position>
            <AltitudeMeters>2267.199951171875</AltitudeMeters>
            <DistanceMeters>NAN</DistanceMeters>
          </Trackpoint>
          <Trackpoint>
            <Time>2021-07-18T04:29:56.000Z</Time>
            <Position>
              <LatitudeDegrees>42.7212421596050262451171875</LatitudeDegrees>
              <LongitudeDegrees>-0.19808406941592693328857421875</LongitudeDegrees>
            </Position>
            <AltitudeMeters>2268</AltitudeMeters>
            <DistanceMeters>NAN</DistanceMeters>
          </Trackpoint>
          <Trackpoint>
            <Time>2021-07-18T04:29:57.000Z</Time>
            <Position>
              <LatitudeDegrees>42.721247188746929168701171875</LatitudeDegrees>
              <LongitudeDegrees>-0.1980682276189327239990234375</LongitudeDegrees>
            </Position>
            <AltitudeMeters>2268.199951171875</AltitudeMeters>
            <DistanceMeters>NAN</DistanceMeters>
          </Trackpoint>
          <Trackpoint>
            <Time>2021-07-18T04:30:01.000Z</Time>
            <Position>
              <LatitudeDegrees>42.72124425508081912994384765625</LatitudeDegrees>
              <LongitudeDegrees>-0.19806294701993465423583984375</LongitudeDegrees>
            </Position>
            <AltitudeMeters>2268</AltitudeMeters>
            <DistanceMeters>NAN</DistanceMeters>
          </Trackpoint>
          <Trackpoint>
            <Time>2021-07-18T04:30:05.000Z</Time>
            <Position>
              <LatitudeDegrees>42.721263952553272247314453125</LatitudeDegrees>
              <LongitudeDegrees>-0.19807116128504276275634765625</LongitudeDegrees>
            </Position>
            <AltitudeMeters>2269</AltitudeMeters>
            <DistanceMeters>NAN</DistanceMeters>
          </Trackpoint>
          <Trackpoint>
            <Time>2021-07-18T04:30:11.000Z</Time>
            <Position>
              <LatitudeDegrees>42.72128733806312084197998046875</LatitudeDegrees>
              <LongitudeDegrees>-0.1980809681117534637451171875</LongitudeDegrees>
            </Position>
            <AltitudeMeters>2270.199951171875</AltitudeMeters>
            <DistanceMeters>NAN</DistanceMeters>
          </Trackpoint>
          <Trackpoint>
            <Time>2021-07-18T04:30:13.000Z</Time>
            <Position>
              <LatitudeDegrees>42.7212963066995143890380859375</LatitudeDegrees>
              <LongitudeDegrees>-0.19808038137853145599365234375</LongitudeDegrees>
            </Position>
            <AltitudeMeters>2270.60009765625</AltitudeMeters>
            <DistanceMeters>NAN</DistanceMeters>
          </Trackpoint>
          <Trackpoint>
            <Time>2021-07-18T04:30:16.000Z</Time>
            <Position>
              <LatitudeDegrees>42.7213087119162082672119140625</LatitudeDegrees>
              <LongitudeDegrees>-0.1980865001678466796875</LongitudeDegrees>
            </Position>
            <AltitudeMeters>2271.199951171875</AltitudeMeters>
            <DistanceMeters>NAN</DistanceMeters>
          </Trackpoint>
          <Trackpoint>
            <Time>2021-07-18T04:30:18.000Z</Time>
            <Position>
              <LatitudeDegrees>42.7213127352297306060791015625</LatitudeDegrees>
              <LongitudeDegrees>-0.19809253513813018798828125</LongitudeDegrees>
            </Position>
            <AltitudeMeters>2271.39990234375</AltitudeMeters>
            <DistanceMeters>NAN</DistanceMeters>
          </Trackpoint>
          <Trackpoint>
            <Time>2021-07-18T04:30:19.000Z</Time>
            <Position>
              <LatitudeDegrees>42.7213107235729694366455078125</LatitudeDegrees>
              <LongitudeDegrees>-0.19809379242360591888427734375</LongitudeDegrees>
            </Position>
            <AltitudeMeters>2271.39990234375</AltitudeMeters>
            <DistanceMeters>NAN</DistanceMeters>
          </Trackpoint>
          <Trackpoint>
            <Time>2021-07-18T04:30:21.000Z</Time>
            <Position>
              <LatitudeDegrees>42.72131516598165035247802734375</LatitudeDegrees>
              <LongitudeDegrees>-0.19809094257652759552001953125</LongitudeDegrees>
            </Position>
            <AltitudeMeters>2271.60009765625</AltitudeMeters>
            <DistanceMeters>NAN</DistanceMeters>
          </Trackpoint>
          <Trackpoint>
            <Time>2021-07-18T04:30:23.000Z</Time>
            <Position>
              <LatitudeDegrees>42.72132203914225101470947265625</LatitudeDegrees>
              <LongitudeDegrees>-0.19809144549071788787841796875</LongitudeDegrees>
            </Position>
            <AltitudeMeters>2272</AltitudeMeters>
            <DistanceMeters>NAN</DistanceMeters>
          </Trackpoint>
          <Trackpoint>
            <Time>2021-07-18T04:30:26.000Z</Time>
            <Position>
              <LatitudeDegrees>42.72132891230285167694091796875</LatitudeDegrees>
              <LongitudeDegrees>-0.1980932056903839111328125</LongitudeDegrees>
            </Position>
            <AltitudeMeters>2272.39990234375</AltitudeMeters>
            <DistanceMeters>NAN</DistanceMeters>
          </Trackpoint>
          <Trackpoint>
            <Time>2021-07-18T04:30:30.000Z</Time>
            <Position>
              <LatitudeDegrees>42.72134316153824329376220703125</LatitudeDegrees>
              <LongitudeDegrees>-0.198095552623271942138671875</LongitudeDegrees>
            </Position>
            <AltitudeMeters>2273</AltitudeMeters>
            <DistanceMeters>NAN</DistanceMeters>
          </Trackpoint>
          <Trackpoint>
            <Time>2021-07-18T04:30:34.000Z</Time>
            <Position>
              <LatitudeDegrees>42.72134877741336822509765625</LatitudeDegrees>
              <LongitudeDegrees>-0.19808985292911529541015625</LongitudeDegrees>
            </Position>
            <AltitudeMeters>2273.39990234375</AltitudeMeters>
            <DistanceMeters>NAN</DistanceMeters>
          </Trackpoint>
          <Trackpoint>
            <Time>2021-07-18T04:30:36.000Z</Time>
            <Position>
              <LatitudeDegrees>42.72134877741336822509765625</LatitudeDegrees>
              <LongitudeDegrees>-0.19808985292911529541015625</LongitudeDegrees>
            </Position>
            <AltitudeMeters>2273.39990234375</AltitudeMeters>
            <DistanceMeters>NAN</DistanceMeters>
          </Trackpoint>
          <Trackpoint>
            <Time>2021-07-18T04:30:41.000Z</Time>
            <Position>
              <LatitudeDegrees>42.72134877741336822509765625</LatitudeDegrees>
              <LongitudeDegrees>-0.19808985292911529541015625</LongitudeDegrees>
            </Position>
            <AltitudeMeters>2273.39990234375</AltitudeMeters>
            <DistanceMeters>NAN</DistanceMeters>
          </Trackpoint>
          <Trackpoint>
            <Time>2021-07-18T04:30:48.000Z</Time>
            <Position>
              <LatitudeDegrees>42.72134877741336822509765625</LatitudeDegrees>
              <LongitudeDegrees>-0.19809312187135219573974609375</LongitudeDegrees>
            </Position>
            <AltitudeMeters>2273.39990234375</AltitudeMeters>
            <DistanceMeters>NAN</DistanceMeters>
          </Trackpoint>
          <Trackpoint>
            <Time>2021-07-18T04:30:58.000Z</Time>
            <Position>
              <LatitudeDegrees>42.72136076353490352630615234375</LatitudeDegrees>
              <LongitudeDegrees>-0.1980980671942234039306640625</LongitudeDegrees>
            </Position>
            <AltitudeMeters>2274</AltitudeMeters>
            <DistanceMeters>NAN</DistanceMeters>
          </Trackpoint>
          <Trackpoint>
            <Time>2021-07-18T04:31:05.000Z</Time>
            <Position>
              <LatitudeDegrees>42.721373923122882843017578125</LatitudeDegrees>
              <LongitudeDegrees>-0.1981245540082454681396484375</LongitudeDegrees>
            </Position>
            <AltitudeMeters>2274.60009765625</AltitudeMeters>
            <DistanceMeters>NAN</DistanceMeters>
          </Trackpoint>
          <Trackpoint>
            <Time>2021-07-18T04:31:19.000Z</Time>
            <Position>
              <LatitudeDegrees>42.72140569053590297698974609375</LatitudeDegrees>
              <LongitudeDegrees>-0.19817576743662357330322265625</LongitudeDegrees>
            </Position>
            <AltitudeMeters>2276.39990234375</AltitudeMeters>
            <DistanceMeters>NAN</DistanceMeters>
          </Trackpoint>
          <Trackpoint>
            <Time>2021-07-18T04:31:26.000Z</Time>
            <Position>
              <LatitudeDegrees>42.72141859866678714752197265625</LatitudeDegrees>
              <LongitudeDegrees>-0.19818398170173168182373046875</LongitudeDegrees>
            </Position>
            <AltitudeMeters>2277.199951171875</AltitudeMeters>
            <DistanceMeters>NAN</DistanceMeters>
          </Trackpoint>
          <Trackpoint>
            <Time>2021-07-18T04:31:29.000Z</Time>
            <Position>
              <LatitudeDegrees>42.72141977213323116302490234375</LatitudeDegrees>
              <LongitudeDegrees>-0.19818498753011226654052734375</LongitudeDegrees>
            </Position>
            <AltitudeMeters>2277.199951171875</AltitudeMeters>
            <DistanceMeters>NAN</DistanceMeters>
          </Trackpoint>
          <Trackpoint>
            <Time>2021-07-18T04:31:31.000Z</Time>
            <Position>
              <LatitudeDegrees>42.72142094559967517852783203125</LatitudeDegrees>
              <LongitudeDegrees>-0.19818683154881000518798828125</LongitudeDegrees>
            </Position>
            <AltitudeMeters>2277.199951171875</AltitudeMeters>
            <DistanceMeters>NAN</DistanceMeters>
          </Trackpoint>
          <Trackpoint>
            <Time>2021-07-18T04:31:43.000Z</Time>
            <Position>
              <LatitudeDegrees>42.72142530418932437896728515625</LatitudeDegrees>
              <LongitudeDegrees>-0.198198147118091583251953125</LongitudeDegrees>
            </Position>
            <AltitudeMeters>2277.60009765625</AltitudeMeters>
            <DistanceMeters>NAN</DistanceMeters>
          </Trackpoint>
          <Trackpoint>
            <Time>2021-07-18T04:31:46.000Z</Time>
            <Position>
              <LatitudeDegrees>42.721428237855434417724609375</LatitudeDegrees>
              <LongitudeDegrees>-0.19819957204163074493408203125</LongitudeDegrees>
            </Position>
            <AltitudeMeters>2277.800048828125</AltitudeMeters>
            <DistanceMeters>NAN</DistanceMeters>
          </Trackpoint>
          <Trackpoint>
            <Time>2021-07-18T04:32:01.000Z</Time>
            <Position>
              <LatitudeDegrees>42.721457742154598236083984375</LatitudeDegrees>
              <LongitudeDegrees>-0.19823946990072727203369140625</LongitudeDegrees>
            </Position>
            <AltitudeMeters>2279.39990234375</AltitudeMeters>
            <DistanceMeters>NAN</DistanceMeters>
          </Trackpoint>
          <Trackpoint>
            <Time>2021-07-18T04:32:03.000Z</Time>
            <Position>
              <LatitudeDegrees>42.72146184928715229034423828125</LatitudeDegrees>
              <LongitudeDegrees>-0.1982408948242664337158203125</LongitudeDegrees>
            </Position>
            <AltitudeMeters>2279.60009765625</AltitudeMeters>
            <DistanceMeters>NAN</DistanceMeters>
          </Trackpoint>
          <Trackpoint>
            <Time>2021-07-18T04:32:07.000Z</Time>
            <Position>
              <LatitudeDegrees>42.72147123701870441436767578125</LatitudeDegrees>
              <LongitudeDegrees>-0.1982496120035648345947265625</LongitudeDegrees>
            </Position>
            <AltitudeMeters>2280</AltitudeMeters>
            <DistanceMeters>NAN</DistanceMeters>
          </Trackpoint>
          <Trackpoint>
            <Time>2021-07-18T04:32:28.000Z</Time>
            <Position>
              <LatitudeDegrees>42.7214889228343963623046875</LatitudeDegrees>
              <LongitudeDegrees>-0.19825036637485027313232421875</LongitudeDegrees>
            </Position>
            <AltitudeMeters>2280.800048828125</AltitudeMeters>
            <DistanceMeters>NAN</DistanceMeters>
          </Trackpoint>
          <Trackpoint>
            <Time>2021-07-18T04:32:29.000Z</Time>
            <Position>
              <LatitudeDegrees>42.72148917429149150848388671875</LatitudeDegrees>
              <LongitudeDegrees>-0.1982502825558185577392578125</LongitudeDegrees>
            </Position>
            <AltitudeMeters>2280.800048828125</AltitudeMeters>
            <DistanceMeters>NAN</DistanceMeters>
          </Trackpoint>
          <Trackpoint>
            <Time>2021-07-18T04:32:32.000Z</Time>
            <Position>
              <LatitudeDegrees>42.72149026393890380859375</LatitudeDegrees>
              <LongitudeDegrees>-0.19825019873678684234619140625</LongitudeDegrees>
            </Position>
            <AltitudeMeters>2280.800048828125</AltitudeMeters>
            <DistanceMeters>NAN</DistanceMeters>
          </Trackpoint>
          <Trackpoint>
            <Time>2021-07-18T04:32:33.000Z</Time>
            <Position>
              <LatitudeDegrees>42.72149302996695041656494140625</LatitudeDegrees>
              <LongitudeDegrees>-0.19825019873678684234619140625</LongitudeDegrees>
            </Position>
            <AltitudeMeters>2281</AltitudeMeters>
            <DistanceMeters>NAN</DistanceMeters>
          </Trackpoint>
          <Trackpoint>
            <Time>2021-07-18T04:32:36.000Z</Time>
            <Position>
              <LatitudeDegrees>42.72149755619466304779052734375</LatitudeDegrees>
              <LongitudeDegrees>-0.19825019873678684234619140625</LongitudeDegrees>
            </Position>
            <AltitudeMeters>2281.199951171875</AltitudeMeters>
            <DistanceMeters>NAN</DistanceMeters>
          </Trackpoint>
          <Trackpoint>
            <Time>2021-07-18T04:32:38.000Z</Time>
            <Position>
              <LatitudeDegrees>42.7214998193085193634033203125</LatitudeDegrees>
              <LongitudeDegrees>-0.19825019873678684234619140625</LongitudeDegrees>
            </Position>
            <AltitudeMeters>2281.39990234375</AltitudeMeters>
            <DistanceMeters>NAN</DistanceMeters>
          </Trackpoint>
          <Trackpoint>
            <Time>2021-07-18T04:32:42.000Z</Time>
            <Position>
              <LatitudeDegrees>42.72150660865008831024169921875</LatitudeDegrees>
              <LongitudeDegrees>-0.1982512883841991424560546875</LongitudeDegrees>
            </Position>
            <AltitudeMeters>2281.60009765625</AltitudeMeters>
            <DistanceMeters>NAN</DistanceMeters>
          </Trackpoint>
          <Trackpoint>
            <Time>2021-07-18T04:32:46.000Z</Time>
            <Position>
              <LatitudeDegrees>42.72151549346745014190673828125</LatitudeDegrees>
              <LongitudeDegrees>-0.1982595026493072509765625</LongitudeDegrees>
            </Position>
            <AltitudeMeters>2282</AltitudeMeters>
            <DistanceMeters>NAN</DistanceMeters>
          </Trackpoint>
          <Trackpoint>
            <Time>2021-07-18T04:32:56.000Z</Time>
            <Position>
              <LatitudeDegrees>42.72153661586344242095947265625</LatitudeDegrees>
              <LongitudeDegrees>-0.198282301425933837890625</LongitudeDegrees>
            </Position>
            <AltitudeMeters>2283.199951171875</AltitudeMeters>
            <DistanceMeters>NAN</DistanceMeters>
          </Trackpoint>
          <Trackpoint>
            <Time>2021-07-18T04:33:05.000Z</Time>
            <Position>
              <LatitudeDegrees>42.72155530750751495361328125</LatitudeDegrees>
              <LongitudeDegrees>-0.19829277880489826202392578125</LongitudeDegrees>
            </Position>
            <AltitudeMeters>2284</AltitudeMeters>
            <DistanceMeters>NAN</DistanceMeters>
          </Trackpoint>
          <Trackpoint>
            <Time>2021-07-18T04:33:24.000Z</Time>
            <Position>
              <LatitudeDegrees>42.7215598337352275848388671875</LatitudeDegrees>
              <LongitudeDegrees>-0.1982995681464672088623046875</LongitudeDegrees>
            </Position>
            <AltitudeMeters>2284.39990234375</AltitudeMeters>
            <DistanceMeters>NAN</DistanceMeters>
          </Trackpoint>
          <Trackpoint>
            <Time>2021-07-18T04:33:27.000Z</Time>
            <Position>
              <LatitudeDegrees>42.72155958227813243865966796875</LatitudeDegrees>
              <LongitudeDegrees>-0.1983010768890380859375</LongitudeDegrees>
            </Position>
            <AltitudeMeters>2284.199951171875</AltitudeMeters>
            <DistanceMeters>NAN</DistanceMeters>
          </Trackpoint>
          <Trackpoint>
            <Time>2021-07-18T04:33:28.000Z</Time>
            <Position>
              <LatitudeDegrees>42.7215594984591007232666015625</LatitudeDegrees>
              <LongitudeDegrees>-0.19830149598419666290283203125</LongitudeDegrees>
            </Position>
            <AltitudeMeters>2284.199951171875</AltitudeMeters>
            <DistanceMeters>NAN</DistanceMeters>
          </Trackpoint>
          <Trackpoint>
            <Time>2021-07-18T04:33:29.000Z</Time>
            <Position>
              <LatitudeDegrees>42.72155933082103729248046875</LatitudeDegrees>
              <LongitudeDegrees>-0.198302082717418670654296875</LongitudeDegrees>
            </Position>
            <AltitudeMeters>2284.199951171875</AltitudeMeters>
            <DistanceMeters>NAN</DistanceMeters>
          </Trackpoint>
          <Trackpoint>
            <Time>2021-07-18T04:33:37.000Z</Time>
            <Position>
              <LatitudeDegrees>42.721558324992656707763671875</LatitudeDegrees>
              <LongitudeDegrees>-0.19830971024930477142333984375</LongitudeDegrees>
            </Position>
            <AltitudeMeters>2284.199951171875</AltitudeMeters>
            <DistanceMeters>NAN</DistanceMeters>
          </Trackpoint>
          <Trackpoint>
            <Time>2021-07-18T04:33:38.000Z</Time>
            <Position>
              <LatitudeDegrees>42.7215581573545932769775390625</LatitudeDegrees>
              <LongitudeDegrees>-0.19831188954412937164306640625</LongitudeDegrees>
            </Position>
            <AltitudeMeters>2284.199951171875</AltitudeMeters>
            <DistanceMeters>NAN</DistanceMeters>
          </Trackpoint>
          <Trackpoint>
            <Time>2021-07-18T04:33:40.000Z</Time>
            <Position>
              <LatitudeDegrees>42.72155790589749813079833984375</LatitudeDegrees>
              <LongitudeDegrees>-0.19831624813377857208251953125</LongitudeDegrees>
            </Position>
            <AltitudeMeters>2284.199951171875</AltitudeMeters>
            <DistanceMeters>NAN</DistanceMeters>
          </Trackpoint>
          <Trackpoint>
            <Time>2021-07-18T04:33:44.000Z</Time>
            <Position>
              <LatitudeDegrees>42.7215574868023395538330078125</LatitudeDegrees>
              <LongitudeDegrees>-0.1983227021992206573486328125</LongitudeDegrees>
            </Position>
            <AltitudeMeters>2284.199951171875</AltitudeMeters>
            <DistanceMeters>NAN</DistanceMeters>
          </Trackpoint>
          <Trackpoint>
            <Time>2021-07-18T04:33:53.000Z</Time>
            <Position>
              <LatitudeDegrees>42.72155706770718097686767578125</LatitudeDegrees>
              <LongitudeDegrees>-0.19832815043628215789794921875</LongitudeDegrees>
            </Position>
            <AltitudeMeters>2284.199951171875</AltitudeMeters>
            <DistanceMeters>NAN</DistanceMeters>
          </Trackpoint>
          <Trackpoint>
            <Time>2021-07-18T04:34:00.000Z</Time>
            <Position>
              <LatitudeDegrees>42.721556983888149261474609375</LatitudeDegrees>
              <LongitudeDegrees>-0.19832848571240901947021484375</LongitudeDegrees>
            </Position>
            <AltitudeMeters>2284.199951171875</AltitudeMeters>
            <DistanceMeters>NAN</DistanceMeters>
          </Trackpoint>
          <Trackpoint>
            <Time>2021-07-18T04:34:05.000Z</Time>
            <Position>
              <LatitudeDegrees>42.72155690006911754608154296875</LatitudeDegrees>
              <LongitudeDegrees>-0.19832865335047245025634765625</LongitudeDegrees>
            </Position>
            <AltitudeMeters>2284.199951171875</AltitudeMeters>
            <DistanceMeters>NAN</DistanceMeters>
          </Trackpoint>
          <Trackpoint>
            <Time>2021-07-18T04:34:20.000Z</Time>
            <Position>
              <LatitudeDegrees>42.721556983888149261474609375</LatitudeDegrees>
              <LongitudeDegrees>-0.19832949154078960418701171875</LongitudeDegrees>
            </Position>
            <AltitudeMeters>2284.199951171875</AltitudeMeters>
            <DistanceMeters>NAN</DistanceMeters>
          </Trackpoint>
          <Trackpoint>
            <Time>2021-07-18T04:34:27.000Z</Time>
            <Position>
              <LatitudeDegrees>42.7215571515262126922607421875</LatitudeDegrees>
              <LongitudeDegrees>-0.19832999445497989654541015625</LongitudeDegrees>
            </Position>
            <AltitudeMeters>2284.199951171875</AltitudeMeters>
            <DistanceMeters>NAN</DistanceMeters>
          </Trackpoint>
          <Trackpoint>
            <Time>2021-07-18T04:34:30.000Z</Time>
            <Position>
              <LatitudeDegrees>42.7215571515262126922607421875</LatitudeDegrees>
              <LongitudeDegrees>-0.198330245912075042724609375</LongitudeDegrees>
            </Position>
            <AltitudeMeters>2284.199951171875</AltitudeMeters>
            <DistanceMeters>NAN</DistanceMeters>
          </Trackpoint>
          <Trackpoint>
            <Time>2021-07-18T04:34:31.000Z</Time>
            <Position>
              <LatitudeDegrees>42.72155723534524440765380859375</LatitudeDegrees>
              <LongitudeDegrees>-0.19833032973110675811767578125</LongitudeDegrees>
            </Position>
            <AltitudeMeters>2284.199951171875</AltitudeMeters>
            <DistanceMeters>NAN</DistanceMeters>
          </Trackpoint>
          <Trackpoint>
            <Time>2021-07-18T04:34:36.000Z</Time>
            <Position>
              <LatitudeDegrees>42.721557319164276123046875</LatitudeDegrees>
              <LongitudeDegrees>-0.1983307488262653350830078125</LongitudeDegrees>
            </Position>
            <AltitudeMeters>2284.199951171875</AltitudeMeters>
            <DistanceMeters>NAN</DistanceMeters>
          </Trackpoint>
          <Trackpoint>
            <Time>2021-07-18T04:34:43.000Z</Time>
            <Position>
              <LatitudeDegrees>42.7215574868023395538330078125</LatitudeDegrees>
              <LongitudeDegrees>-0.19833133555948734283447265625</LongitudeDegrees>
            </Position>
            <AltitudeMeters>2284.39990234375</AltitudeMeters>
            <DistanceMeters>NAN</DistanceMeters>
          </Trackpoint>
          <Trackpoint>
            <Time>2021-07-18T04:35:16.000Z</Time>
            <Position>
              <LatitudeDegrees>42.7215605042874813079833984375</LatitudeDegrees>
              <LongitudeDegrees>-0.19833795726299285888671875</LongitudeDegrees>
            </Position>
            <AltitudeMeters>2284.39990234375</AltitudeMeters>
            <DistanceMeters>NAN</DistanceMeters>
          </Trackpoint>
          <Trackpoint>
            <Time>2021-07-18T04:35:23.000Z</Time>
            <Position>
              <LatitudeDegrees>42.7215621806681156158447265625</LatitudeDegrees>
              <LongitudeDegrees>-0.19833988510072231292724609375</LongitudeDegrees>
            </Position>
            <AltitudeMeters>2284.60009765625</AltitudeMeters>
            <DistanceMeters>NAN</DistanceMeters>
          </Trackpoint>
          <Trackpoint>
            <Time>2021-07-18T04:35:26.000Z</Time>
            <Position>
              <LatitudeDegrees>42.72156310267746448516845703125</LatitudeDegrees>
              <LongitudeDegrees>-0.1983408071100711822509765625</LongitudeDegrees>
            </Position>
            <AltitudeMeters>2284.60009765625</AltitudeMeters>
            <DistanceMeters>NAN</DistanceMeters>
          </Trackpoint>
          <Trackpoint>
            <Time>2021-07-18T04:35:38.000Z</Time>
            <Position>
              <LatitudeDegrees>42.721567042171955108642578125</LatitudeDegrees>
              <LongitudeDegrees>-0.19834390841424465179443359375</LongitudeDegrees>
            </Position>
            <AltitudeMeters>2284.800048828125</AltitudeMeters>
            <DistanceMeters>NAN</DistanceMeters>
          </Trackpoint>
          <Trackpoint>
            <Time>2021-07-18T04:35:40.000Z</Time>
            <Position>
              <LatitudeDegrees>42.72156779654324054718017578125</LatitudeDegrees>
              <LongitudeDegrees>-0.19834441132843494415283203125</LongitudeDegrees>
            </Position>
            <AltitudeMeters>2284.800048828125</AltitudeMeters>
            <DistanceMeters>NAN</DistanceMeters>
          </Trackpoint>
          <Trackpoint>
            <Time>2021-07-18T04:35:41.000Z</Time>
            <Position>
              <LatitudeDegrees>42.72156813181936740875244140625</LatitudeDegrees>
              <LongitudeDegrees>-0.19834466278553009033203125</LongitudeDegrees>
            </Position>
            <AltitudeMeters>2284.800048828125</AltitudeMeters>
            <DistanceMeters>NAN</DistanceMeters>
          </Trackpoint>
          <Trackpoint>
            <Time>2021-07-18T04:35:42.000Z</Time>
            <Position>
              <LatitudeDegrees>42.7215685509145259857177734375</LatitudeDegrees>
              <LongitudeDegrees>-0.19834491424262523651123046875</LongitudeDegrees>
            </Position>
            <AltitudeMeters>2284.800048828125</AltitudeMeters>
            <DistanceMeters>NAN</DistanceMeters>
          </Trackpoint>
          <Trackpoint>
            <Time>2021-07-18T04:35:43.000Z</Time>
            <Position>
              <LatitudeDegrees>42.7215688861906528472900390625</LatitudeDegrees>
              <LongitudeDegrees>-0.1983451656997203826904296875</LongitudeDegrees>
            </Position>
            <AltitudeMeters>2284.800048828125</AltitudeMeters>
            <DistanceMeters>NAN</DistanceMeters>
          </Trackpoint>
          <Trackpoint>
            <Time>2021-07-18T04:35:44.000Z</Time>
            <Position>
              <LatitudeDegrees>42.72156930528581142425537109375</LatitudeDegrees>
              <LongitudeDegrees>-0.19834541715681552886962890625</LongitudeDegrees>
            </Position>
            <AltitudeMeters>2285</AltitudeMeters>
            <DistanceMeters>NAN</DistanceMeters>
          </Trackpoint>
          <Trackpoint>
            <Time>2021-07-18T04:35:45.000Z</Time>
            <Position>
              <LatitudeDegrees>42.721569724380970001220703125</LatitudeDegrees>
              <LongitudeDegrees>-0.19834558479487895965576171875</LongitudeDegrees>
            </Position>
            <AltitudeMeters>2285</AltitudeMeters>
            <DistanceMeters>NAN</DistanceMeters>
          </Trackpoint>
          <Trackpoint>
            <Time>2021-07-18T04:35:58.000Z</Time>
            <Position>
              <LatitudeDegrees>42.7215747535228729248046875</LatitudeDegrees>
              <LongitudeDegrees>-0.1983485184609889984130859375</LongitudeDegrees>
            </Position>
            <AltitudeMeters>2285.199951171875</AltitudeMeters>
            <DistanceMeters>NAN</DistanceMeters>
          </Trackpoint>
          <Trackpoint>
            <Time>2021-07-18T04:36:00.000Z</Time>
            <Position>
              <LatitudeDegrees>42.7215755917131900787353515625</LatitudeDegrees>
              <LongitudeDegrees>-0.19834893755614757537841796875</LongitudeDegrees>
            </Position>
            <AltitudeMeters>2285.199951171875</AltitudeMeters>
            <DistanceMeters>NAN</DistanceMeters>
          </Trackpoint>
          <Trackpoint>
            <Time>2021-07-18T04:36:03.000Z</Time>
            <Position>
              <LatitudeDegrees>42.72157676517963409423828125</LatitudeDegrees>
              <LongitudeDegrees>-0.19834960810840129852294921875</LongitudeDegrees>
            </Position>
            <AltitudeMeters>2285.199951171875</AltitudeMeters>
            <DistanceMeters>NAN</DistanceMeters>
          </Trackpoint>
          <Trackpoint>
            <Time>2021-07-18T04:36:09.000Z</Time>
            <Position>
              <LatitudeDegrees>42.72157902829349040985107421875</LatitudeDegrees>
              <LongitudeDegrees>-0.19835078157484531402587890625</LongitudeDegrees>
            </Position>
            <AltitudeMeters>2285.39990234375</AltitudeMeters>
            <DistanceMeters>NAN</DistanceMeters>
          </Trackpoint>
          <Trackpoint>
            <Time>2021-07-18T04:36:14.000Z</Time>
            <Position>
              <LatitudeDegrees>42.7215809561312198638916015625</LatitudeDegrees>
              <LongitudeDegrees>-0.198351703584194183349609375</LongitudeDegrees>
            </Position>
            <AltitudeMeters>2285.39990234375</AltitudeMeters>
            <DistanceMeters>NAN</DistanceMeters>
          </Trackpoint>
          <Trackpoint>
            <Time>2021-07-18T04:36:17.000Z</Time>
            <Position>
              <LatitudeDegrees>42.72158221341669559478759765625</LatitudeDegrees>
              <LongitudeDegrees>-0.19835229031741619110107421875</LongitudeDegrees>
            </Position>
            <AltitudeMeters>2285.60009765625</AltitudeMeters>
            <DistanceMeters>NAN</DistanceMeters>
          </Trackpoint>
          <Trackpoint>
            <Time>2021-07-18T04:36:34.000Z</Time>
            <Position>
              <LatitudeDegrees>42.721589840948581695556640625</LatitudeDegrees>
              <LongitudeDegrees>-0.19835547544062137603759765625</LongitudeDegrees>
            </Position>
            <AltitudeMeters>2286</AltitudeMeters>
            <DistanceMeters>NAN</DistanceMeters>
          </Trackpoint>
          <Trackpoint>
            <Time>2021-07-18T04:36:43.000Z</Time>
            <Position>
              <LatitudeDegrees>42.7215943671762943267822265625</LatitudeDegrees>
              <LongitudeDegrees>-0.19835748709738254547119140625</LongitudeDegrees>
            </Position>
            <AltitudeMeters>2286.199951171875</AltitudeMeters>
            <DistanceMeters>NAN</DistanceMeters>
          </Trackpoint>
          <Trackpoint>
            <Time>2021-07-18T04:36:49.000Z</Time>
            <Position>
              <LatitudeDegrees>42.72159746848046779632568359375</LatitudeDegrees>
              <LongitudeDegrees>-0.198359079658985137939453125</LongitudeDegrees>
            </Position>
            <AltitudeMeters>2286.199951171875</AltitudeMeters>
            <DistanceMeters>NAN</DistanceMeters>
          </Trackpoint>
          <Trackpoint>
            <Time>2021-07-18T04:36:52.000Z</Time>
            <Position>
              <LatitudeDegrees>42.72159914486110210418701171875</LatitudeDegrees>
              <LongitudeDegrees>-0.1983599178493022918701171875</LongitudeDegrees>
            </Position>
            <AltitudeMeters>2286.39990234375</AltitudeMeters>
            <DistanceMeters>NAN</DistanceMeters>
          </Trackpoint>
          <Trackpoint>
            <Time>2021-07-18T04:37:37.000Z</Time>
            <Position>
              <LatitudeDegrees>42.7216255478560924530029296875</LatitudeDegrees>
              <LongitudeDegrees>-0.19837525673210620880126953125</LongitudeDegrees>
            </Position>
            <AltitudeMeters>2287.800048828125</AltitudeMeters>
            <DistanceMeters>NAN</DistanceMeters>
          </Trackpoint>
          <Trackpoint>
            <Time>2021-07-18T04:37:59.000Z</Time>
            <Position>
              <LatitudeDegrees>42.7216399647295475006103515625</LatitudeDegrees>
              <LongitudeDegrees>-0.19838363863527774810791015625</LongitudeDegrees>
            </Position>
            <AltitudeMeters>2288.60009765625</AltitudeMeters>
            <DistanceMeters>NAN</DistanceMeters>
          </Trackpoint>
          <Trackpoint>
            <Time>2021-07-18T04:38:09.000Z</Time>
            <Position>
              <LatitudeDegrees>42.72164658643305301666259765625</LatitudeDegrees>
              <LongitudeDegrees>-0.1983877457678318023681640625</LongitudeDegrees>
            </Position>
            <AltitudeMeters>2288.800048828125</AltitudeMeters>
            <DistanceMeters>NAN</DistanceMeters>
          </Trackpoint>
          <Trackpoint>
            <Time>2021-07-18T04:38:19.000Z</Time>
            <Position>
              <LatitudeDegrees>42.72165329195559024810791015625</LatitudeDegrees>
              <LongitudeDegrees>-0.1983917690813541412353515625</LongitudeDegrees>
            </Position>
            <AltitudeMeters>2289.199951171875</AltitudeMeters>
            <DistanceMeters>NAN</DistanceMeters>
          </Trackpoint>
          <Trackpoint>
            <Time>2021-07-18T04:39:00.000Z</Time>
            <Position>
              <LatitudeDegrees>42.72168338298797607421875</LatitudeDegrees>
              <LongitudeDegrees>-0.19840710796415805816650390625</LongitudeDegrees>
            </Position>
            <AltitudeMeters>2290.800048828125</AltitudeMeters>
            <DistanceMeters>NAN</DistanceMeters>
          </Trackpoint>
          <Trackpoint>
            <Time>2021-07-18T04:39:28.000Z</Time>
            <Position>
              <LatitudeDegrees>42.72170593030750751495361328125</LatitudeDegrees>
              <LongitudeDegrees>-0.19841666333377361297607421875</LongitudeDegrees>
            </Position>
            <AltitudeMeters>2292</AltitudeMeters>
            <DistanceMeters>NAN</DistanceMeters>
          </Trackpoint>
          <Trackpoint>
            <Time>2021-07-18T04:39:36.000Z</Time>
            <Position>
              <LatitudeDegrees>42.7217123843729496002197265625</LatitudeDegrees>
              <LongitudeDegrees>-0.1984195969998836517333984375</LongitudeDegrees>
            </Position>
            <AltitudeMeters>2292.39990234375</AltitudeMeters>
            <DistanceMeters>NAN</DistanceMeters>
          </Trackpoint>
          <Trackpoint>
            <Time>2021-07-18T04:40:45.000Z</Time>
            <Position>
              <LatitudeDegrees>42.72177265025675296783447265625</LatitudeDegrees>
              <LongitudeDegrees>-0.1984494365751743316650390625</LongitudeDegrees>
            </Position>
            <AltitudeMeters>2295.199951171875</AltitudeMeters>
            <DistanceMeters>NAN</DistanceMeters>
          </Trackpoint>
          <Trackpoint>
            <Time>2021-07-18T04:41:05.000Z</Time>
            <Position>
              <LatitudeDegrees>42.721791006624698638916015625</LatitudeDegrees>
              <LongitudeDegrees>-0.19845865666866302490234375</LongitudeDegrees>
            </Position>
            <AltitudeMeters>2296</AltitudeMeters>
            <DistanceMeters>NAN</DistanceMeters>
          </Trackpoint>
          <Trackpoint>
            <Time>2021-07-18T04:41:13.000Z</Time>
            <Position>
              <LatitudeDegrees>42.72179846651852130889892578125</LatitudeDegrees>
              <LongitudeDegrees>-0.19846226088702678680419921875</LongitudeDegrees>
            </Position>
            <AltitudeMeters>2296.199951171875</AltitudeMeters>
            <DistanceMeters>NAN</DistanceMeters>
          </Trackpoint>
          <Trackpoint>
            <Time>2021-07-18T04:41:21.000Z</Time>
            <Position>
              <LatitudeDegrees>42.72180601023137569427490234375</LatitudeDegrees>
              <LongitudeDegrees>-0.19846594892442226409912109375</LongitudeDegrees>
            </Position>
            <AltitudeMeters>2296.60009765625</AltitudeMeters>
            <DistanceMeters>NAN</DistanceMeters>
          </Trackpoint>
          <Trackpoint>
            <Time>2021-07-18T04:41:25.000Z</Time>
            <Position>
              <LatitudeDegrees>42.721809782087802886962890625</LatitudeDegrees>
              <LongitudeDegrees>-0.198467709124088287353515625</LongitudeDegrees>
            </Position>
            <AltitudeMeters>2296.800048828125</AltitudeMeters>
            <DistanceMeters>NAN</DistanceMeters>
          </Trackpoint>
          <Trackpoint>
            <Time>2021-07-18T04:41:50.000Z</Time>
            <Position>
              <LatitudeDegrees>42.7218347601592540740966796875</LatitudeDegrees>
              <LongitudeDegrees>-0.1984794437885284423828125</LongitudeDegrees>
            </Position>
            <AltitudeMeters>2297.60009765625</AltitudeMeters>
            <DistanceMeters>NAN</DistanceMeters>
          </Trackpoint>
          <Trackpoint>
            <Time>2021-07-18T04:42:07.000Z</Time>
            <Position>
              <LatitudeDegrees>42.72185211069881916046142578125</LatitudeDegrees>
              <LongitudeDegrees>-0.1984883286058902740478515625</LongitudeDegrees>
            </Position>
            <AltitudeMeters>2298.39990234375</AltitudeMeters>
            <DistanceMeters>NAN</DistanceMeters>
          </Trackpoint>
          <Trackpoint>
            <Time>2021-07-18T04:42:15.000Z</Time>
            <Position>
              <LatitudeDegrees>42.72186015732586383819580078125</LatitudeDegrees>
              <LongitudeDegrees>-0.198492519557476043701171875</LongitudeDegrees>
            </Position>
            <AltitudeMeters>2298.60009765625</AltitudeMeters>
            <DistanceMeters>NAN</DistanceMeters>
          </Trackpoint>
          <Trackpoint>
            <Time>2021-07-18T04:42:24.000Z</Time>
            <Position>
              <LatitudeDegrees>42.721869461238384246826171875</LatitudeDegrees>
              <LongitudeDegrees>-0.19849754869937896728515625</LongitudeDegrees>
            </Position>
            <AltitudeMeters>2299</AltitudeMeters>
            <DistanceMeters>NAN</DistanceMeters>
          </Trackpoint>
          <Trackpoint>
            <Time>2021-07-18T04:42:28.000Z</Time>
            <Position>
              <LatitudeDegrees>42.72187373600900173187255859375</LatitudeDegrees>
              <LongitudeDegrees>-0.198499895632266998291015625</LongitudeDegrees>
            </Position>
            <AltitudeMeters>2299.199951171875</AltitudeMeters>
            <DistanceMeters>NAN</DistanceMeters>
          </Trackpoint>
          <Trackpoint>
            <Time>2021-07-18T04:42:58.000Z</Time>
            <Position>
              <LatitudeDegrees>42.721907012164592742919921875</LatitudeDegrees>
              <LongitudeDegrees>-0.19851875491440296173095703125</LongitudeDegrees>
            </Position>
            <AltitudeMeters>2300.39990234375</AltitudeMeters>
            <DistanceMeters>NAN</DistanceMeters>
          </Trackpoint>
          <Trackpoint>
            <Time>2021-07-18T04:43:01.000Z</Time>
            <Position>
              <LatitudeDegrees>42.7219101972877979278564453125</LatitudeDegrees>
              <LongitudeDegrees>-0.19852059893310070037841796875</LongitudeDegrees>
            </Position>
            <AltitudeMeters>2300.60009765625</AltitudeMeters>
            <DistanceMeters>NAN</DistanceMeters>
          </Trackpoint>
          <Trackpoint>
            <Time>2021-07-18T04:43:04.000Z</Time>
            <Position>
              <LatitudeDegrees>42.72191338241100311279296875</LatitudeDegrees>
              <LongitudeDegrees>-0.19852244295179843902587890625</LongitudeDegrees>
            </Position>
            <AltitudeMeters>2300.60009765625</AltitudeMeters>
            <DistanceMeters>NAN</DistanceMeters>
          </Trackpoint>
          <Trackpoint>
            <Time>2021-07-18T04:43:08.000Z</Time>
            <Position>
              <LatitudeDegrees>42.72191765718162059783935546875</LatitudeDegrees>
              <LongitudeDegrees>-0.19852478988468647003173828125</LongitudeDegrees>
            </Position>
            <AltitudeMeters>2300.800048828125</AltitudeMeters>
            <DistanceMeters>NAN</DistanceMeters>
          </Trackpoint>
          <Trackpoint>
            <Time>2021-07-18T04:43:25.000Z</Time>
            <Position>
              <LatitudeDegrees>42.7219355106353759765625</LatitudeDegrees>
              <LongitudeDegrees>-0.19853468053042888641357421875</LongitudeDegrees>
            </Position>
            <AltitudeMeters>2301.60009765625</AltitudeMeters>
            <DistanceMeters>NAN</DistanceMeters>
          </Trackpoint>
          <Trackpoint>
            <Time>2021-07-18T04:43:27.000Z</Time>
            <Position>
              <LatitudeDegrees>42.72193760611116886138916015625</LatitudeDegrees>
              <LongitudeDegrees>-0.1985357701778411865234375</LongitudeDegrees>
            </Position>
            <AltitudeMeters>2301.60009765625</AltitudeMeters>
            <DistanceMeters>NAN</DistanceMeters>
          </Trackpoint>
          <Trackpoint>
            <Time>2021-07-18T04:43:33.000Z</Time>
            <Position>
              <LatitudeDegrees>42.72194380871951580047607421875</LatitudeDegrees>
              <LongitudeDegrees>-0.19853912293910980224609375</LongitudeDegrees>
            </Position>
            <AltitudeMeters>2302</AltitudeMeters>
            <DistanceMeters>NAN</DistanceMeters>
          </Trackpoint>
          <Trackpoint>
            <Time>2021-07-18T04:43:38.000Z</Time>
            <Position>
              <LatitudeDegrees>42.72194900549948215484619140625</LatitudeDegrees>
              <LongitudeDegrees>-0.19854188896715641021728515625</LongitudeDegrees>
            </Position>
            <AltitudeMeters>2302.199951171875</AltitudeMeters>
            <DistanceMeters>NAN</DistanceMeters>
          </Trackpoint>
          <Trackpoint>
            <Time>2021-07-18T04:43:40.000Z</Time>
            <Position>
              <LatitudeDegrees>42.72195101715624332427978515625</LatitudeDegrees>
              <LongitudeDegrees>-0.1985429786145687103271484375</LongitudeDegrees>
            </Position>
            <AltitudeMeters>2302.199951171875</AltitudeMeters>
            <DistanceMeters>NAN</DistanceMeters>
          </Trackpoint>
          <Trackpoint>
            <Time>2021-07-18T04:43:42.000Z</Time>
            <Position>
              <LatitudeDegrees>42.72195302881300449371337890625</LatitudeDegrees>
              <LongitudeDegrees>-0.19854406826198101043701171875</LongitudeDegrees>
            </Position>
            <AltitudeMeters>2302.39990234375</AltitudeMeters>
            <DistanceMeters>NAN</DistanceMeters>
          </Trackpoint>
          <Trackpoint>
            <Time>2021-07-18T04:43:46.000Z</Time>
            <Position>
              <LatitudeDegrees>42.72195705212652683258056640625</LatitudeDegrees>
              <LongitudeDegrees>-0.19854624755680561065673828125</LongitudeDegrees>
            </Position>
            <AltitudeMeters>2302.60009765625</AltitudeMeters>
            <DistanceMeters>NAN</DistanceMeters>
          </Trackpoint>
          <Trackpoint>
            <Time>2021-07-18T04:43:55.000Z</Time>
            <Position>
              <LatitudeDegrees>42.721966020762920379638671875</LatitudeDegrees>
              <LongitudeDegrees>-0.19855119287967681884765625</LongitudeDegrees>
            </Position>
            <AltitudeMeters>2303</AltitudeMeters>
            <DistanceMeters>NAN</DistanceMeters>
          </Trackpoint>
          <Trackpoint>
            <Time>2021-07-18T04:44:05.000Z</Time>
            <Position>
              <LatitudeDegrees>42.72197582758963108062744140625</LatitudeDegrees>
              <LongitudeDegrees>-0.19855697639286518096923828125</LongitudeDegrees>
            </Position>
            <AltitudeMeters>2303.39990234375</AltitudeMeters>
            <DistanceMeters>NAN</DistanceMeters>
          </Trackpoint>
          <Trackpoint>
            <Time>2021-07-18T04:44:13.000Z</Time>
            <Position>
              <LatitudeDegrees>42.7219836227595806121826171875</LatitudeDegrees>
              <LongitudeDegrees>-0.19856167025864124298095703125</LongitudeDegrees>
            </Position>
            <AltitudeMeters>2303.60009765625</AltitudeMeters>
            <DistanceMeters>NAN</DistanceMeters>
          </Trackpoint>
          <Trackpoint>
            <Time>2021-07-18T04:44:34.000Z</Time>
            <Position>
              <LatitudeDegrees>42.72200449369847774505615234375</LatitudeDegrees>
              <LongitudeDegrees>-0.198574326932430267333984375</LongitudeDegrees>
            </Position>
            <AltitudeMeters>2304.39990234375</AltitudeMeters>
            <DistanceMeters>NAN</DistanceMeters>
          </Trackpoint>
          <Trackpoint>
            <Time>2021-07-18T04:45:05.000Z</Time>
            <Position>
              <LatitudeDegrees>42.72203668020665645599365234375</LatitudeDegrees>
              <LongitudeDegrees>-0.19859234802424907684326171875</LongitudeDegrees>
            </Position>
            <AltitudeMeters>2306.39990234375</AltitudeMeters>
            <DistanceMeters>NAN</DistanceMeters>
          </Trackpoint>
          <Trackpoint>
            <Time>2021-07-18T04:45:09.000Z</Time>
            <Position>
              <LatitudeDegrees>42.72225226275622844696044921875</LatitudeDegrees>
              <LongitudeDegrees>-0.19872126169502735137939453125</LongitudeDegrees>
            </Position>
            <AltitudeMeters>2316.39990234375</AltitudeMeters>
            <DistanceMeters>NAN</DistanceMeters>
          </Trackpoint>
          <Trackpoint>
            <Time>2021-07-18T04:45:10.000Z</Time>
            <Position>
              <LatitudeDegrees>42.72232510149478912353515625</LatitudeDegrees>
              <LongitudeDegrees>-0.1987652666866779327392578125</LongitudeDegrees>
            </Position>
            <AltitudeMeters>2319.60009765625</AltitudeMeters>
            <DistanceMeters>NAN</DistanceMeters>
          </Trackpoint>
          <Trackpoint>
            <Time>2021-07-18T04:45:12.000Z</Time>
            <Position>
              <LatitudeDegrees>42.7224697731435298919677734375</LatitudeDegrees>
              <LongitudeDegrees>-0.19885235466063022613525390625</LongitudeDegrees>
            </Position>
            <AltitudeMeters>2327.800048828125</AltitudeMeters>
            <DistanceMeters>NAN</DistanceMeters>
          </Trackpoint>
          <Trackpoint>
            <Time>2021-07-18T04:45:15.000Z</Time>
            <Position>
              <LatitudeDegrees>42.722702957689762115478515625</LatitudeDegrees>
              <LongitudeDegrees>-0.198985375463962554931640625</LongitudeDegrees>
            </Position>
            <AltitudeMeters>2334.39990234375</AltitudeMeters>
            <DistanceMeters>NAN</DistanceMeters>
          </Trackpoint>
          <Trackpoint>
            <Time>2021-07-18T04:45:20.000Z</Time>
            <Position>
              <LatitudeDegrees>42.72280949167907238006591796875</LatitudeDegrees>
              <LongitudeDegrees>-0.1990646682679653167724609375</LongitudeDegrees>
            </Position>
            <AltitudeMeters>2336.39990234375</AltitudeMeters>
            <DistanceMeters>NAN</DistanceMeters>
          </Trackpoint>
          <Trackpoint>
            <Time>2021-07-18T04:45:23.000Z</Time>
            <Position>
              <LatitudeDegrees>42.72283983416855335235595703125</LatitudeDegrees>
              <LongitudeDegrees>-0.1990898139774799346923828125</LongitudeDegrees>
            </Position>
            <AltitudeMeters>2337</AltitudeMeters>
            <DistanceMeters>NAN</DistanceMeters>
          </Trackpoint>
          <Trackpoint>
            <Time>2021-07-18T04:45:29.000Z</Time>
            <Position>
              <LatitudeDegrees>42.722882665693759918212890625</LatitudeDegrees>
              <LongitudeDegrees>-0.199118815362453460693359375</LongitudeDegrees>
            </Position>
            <AltitudeMeters>2337</AltitudeMeters>
            <DistanceMeters>NAN</DistanceMeters>
          </Trackpoint>
          <Trackpoint>
            <Time>2021-07-18T04:45:33.000Z</Time>
            <Position>
              <LatitudeDegrees>42.72291007451713085174560546875</LatitudeDegrees>
              <LongitudeDegrees>-0.19914806820452213287353515625</LongitudeDegrees>
            </Position>
            <AltitudeMeters>2336.800048828125</AltitudeMeters>
            <DistanceMeters>NAN</DistanceMeters>
          </Trackpoint>
          <Trackpoint>
            <Time>2021-07-18T04:45:37.000Z</Time>
            <Position>
              <LatitudeDegrees>42.7229297719895839691162109375</LatitudeDegrees>
              <LongitudeDegrees>-0.1991741359233856201171875</LongitudeDegrees>
            </Position>
            <AltitudeMeters>2336.60009765625</AltitudeMeters>
            <DistanceMeters>NAN</DistanceMeters>
          </Trackpoint>
          <Trackpoint>
            <Time>2021-07-18T04:45:43.000Z</Time>
            <Position>
              <LatitudeDegrees>42.72295868955552577972412109375</LatitudeDegrees>
              <LongitudeDegrees>-0.1992453821003437042236328125</LongitudeDegrees>
            </Position>
            <AltitudeMeters>2336.199951171875</AltitudeMeters>
            <DistanceMeters>NAN</DistanceMeters>
          </Trackpoint>
          <Trackpoint>
            <Time>2021-07-18T04:45:47.000Z</Time>
            <Position>
              <LatitudeDegrees>42.722986601293087005615234375</LatitudeDegrees>
              <LongitudeDegrees>-0.19929843954741954803466796875</LongitudeDegrees>
            </Position>
            <AltitudeMeters>2336</AltitudeMeters>
            <DistanceMeters>NAN</DistanceMeters>
          </Trackpoint>
          <Trackpoint>
            <Time>2021-07-18T04:45:52.000Z</Time>
            <Position>
              <LatitudeDegrees>42.7230052091181278228759765625</LatitudeDegrees>
              <LongitudeDegrees>-0.19933833740651607513427734375</LongitudeDegrees>
            </Position>
            <AltitudeMeters>2336</AltitudeMeters>
            <DistanceMeters>NAN</DistanceMeters>
          </Trackpoint>
          <Trackpoint>
            <Time>2021-07-18T04:45:54.000Z</Time>
            <Position>
              <LatitudeDegrees>42.7230142615735530853271484375</LatitudeDegrees>
              <LongitudeDegrees>-0.19934906624257564544677734375</LongitudeDegrees>
            </Position>
            <AltitudeMeters>2336</AltitudeMeters>
            <DistanceMeters>NAN</DistanceMeters>
          </Trackpoint>
          <Trackpoint>
            <Time>2021-07-18T04:46:03.000Z</Time>
            <Position>
              <LatitudeDegrees>42.7230216376483440399169921875</LatitudeDegrees>
              <LongitudeDegrees>-0.19942685030400753021240234375</LongitudeDegrees>
            </Position>
            <AltitudeMeters>2335.39990234375</AltitudeMeters>
            <DistanceMeters>NAN</DistanceMeters>
          </Trackpoint>
          <Trackpoint>
            <Time>2021-07-18T04:46:12.000Z</Time>
            <Position>
              <LatitudeDegrees>42.72310235537588596343994140625</LatitudeDegrees>
              <LongitudeDegrees>-0.19942961633205413818359375</LongitudeDegrees>
            </Position>
            <AltitudeMeters>2337.199951171875</AltitudeMeters>
            <DistanceMeters>NAN</DistanceMeters>
          </Trackpoint>
          <Trackpoint>
            <Time>2021-07-18T04:46:16.000Z</Time>
            <Position>
              <LatitudeDegrees>42.723126746714115142822265625</LatitudeDegrees>
              <LongitudeDegrees>-0.19942064769566059112548828125</LongitudeDegrees>
            </Position>
            <AltitudeMeters>2337.60009765625</AltitudeMeters>
            <DistanceMeters>NAN</DistanceMeters>
          </Trackpoint>
          <Trackpoint>
            <Time>2021-07-18T04:46:19.000Z</Time>
            <Position>
              <LatitudeDegrees>42.7231245674192905426025390625</LatitudeDegrees>
              <LongitudeDegrees>-0.19941796548664569854736328125</LongitudeDegrees>
            </Position>
            <AltitudeMeters>2337.60009765625</AltitudeMeters>
            <DistanceMeters>NAN</DistanceMeters>
          </Trackpoint>
          <Trackpoint>
            <Time>2021-07-18T04:46:37.000Z</Time>
            <Position>
              <LatitudeDegrees>42.72318617440760135650634765625</LatitudeDegrees>
              <LongitudeDegrees>-0.19941025413572788238525390625</LongitudeDegrees>
            </Position>
            <AltitudeMeters>2338.800048828125</AltitudeMeters>
            <DistanceMeters>NAN</DistanceMeters>
          </Trackpoint>
          <Trackpoint>
            <Time>2021-07-18T04:46:45.000Z</Time>
            <Position>
              <LatitudeDegrees>42.72325691767036914825439453125</LatitudeDegrees>
              <LongitudeDegrees>-0.19942416809499263763427734375</LongitudeDegrees>
            </Position>
            <AltitudeMeters>2340.39990234375</AltitudeMeters>
            <DistanceMeters>NAN</DistanceMeters>
          </Trackpoint>
          <Trackpoint>
            <Time>2021-07-18T04:46:48.000Z</Time>
            <Position>
              <LatitudeDegrees>42.7232794649899005889892578125</LatitudeDegrees>
              <LongitudeDegrees>-0.199449062347412109375</LongitudeDegrees>
            </Position>
            <AltitudeMeters>2341.199951171875</AltitudeMeters>
            <DistanceMeters>NAN</DistanceMeters>
          </Trackpoint>
          <Trackpoint>
            <Time>2021-07-18T04:46:54.000Z</Time>
            <Position>
              <LatitudeDegrees>42.723294384777545928955078125</LatitudeDegrees>
              <LongitudeDegrees>-0.19947253167629241943359375</LongitudeDegrees>
            </Position>
            <AltitudeMeters>2341.60009765625</AltitudeMeters>
            <DistanceMeters>NAN</DistanceMeters>
          </Trackpoint>
          <Trackpoint>
            <Time>2021-07-18T04:47:04.000Z</Time>
            <Position>
              <LatitudeDegrees>42.72338683716952800750732421875</LatitudeDegrees>
              <LongitudeDegrees>-0.19947747699916362762451171875</LongitudeDegrees>
            </Position>
            <AltitudeMeters>2344.39990234375</AltitudeMeters>
            <DistanceMeters>NAN</DistanceMeters>
          </Trackpoint>
          <Trackpoint>
            <Time>2021-07-18T04:47:13.000Z</Time>
            <Position>
              <LatitudeDegrees>42.72345774807035923004150390625</LatitudeDegrees>
              <LongitudeDegrees>-0.1994804106652736663818359375</LongitudeDegrees>
            </Position>
            <AltitudeMeters>2345.60009765625</AltitudeMeters>
            <DistanceMeters>NAN</DistanceMeters>
          </Trackpoint>
          <Trackpoint>
            <Time>2021-07-18T04:47:21.000Z</Time>
            <Position>
              <LatitudeDegrees>42.7235292457044124603271484375</LatitudeDegrees>
              <LongitudeDegrees>-0.19946523942053318023681640625</LongitudeDegrees>
            </Position>
            <AltitudeMeters>2346.39990234375</AltitudeMeters>
            <DistanceMeters>NAN</DistanceMeters>
          </Trackpoint>
          <Trackpoint>
            <Time>2021-07-18T04:47:31.000Z</Time>
            <Position>
              <LatitudeDegrees>42.7236190997064113616943359375</LatitudeDegrees>
              <LongitudeDegrees>-0.199423916637897491455078125</LongitudeDegrees>
            </Position>
            <AltitudeMeters>2347.199951171875</AltitudeMeters>
            <DistanceMeters>NAN</DistanceMeters>
          </Trackpoint>
          <Trackpoint>
            <Time>2021-07-18T04:47:35.000Z</Time>
            <Position>
              <LatitudeDegrees>42.7236489392817020416259765625</LatitudeDegrees>
              <LongitudeDegrees>-0.1994207315146923065185546875</LongitudeDegrees>
            </Position>
            <AltitudeMeters>2347.800048828125</AltitudeMeters>
            <DistanceMeters>NAN</DistanceMeters>
          </Trackpoint>
          <Trackpoint>
            <Time>2021-07-18T04:47:37.000Z</Time>
            <Position>
              <LatitudeDegrees>42.72367157042026519775390625</LatitudeDegrees>
              <LongitudeDegrees>-0.19941913895308971405029296875</LongitudeDegrees>
            </Position>
            <AltitudeMeters>2348.199951171875</AltitudeMeters>
            <DistanceMeters>NAN</DistanceMeters>
          </Trackpoint>
          <Trackpoint>
            <Time>2021-07-18T04:47:39.000Z</Time>
            <Position>
              <LatitudeDegrees>42.72369059734046459197998046875</LatitudeDegrees>
              <LongitudeDegrees>-0.19942668266594409942626953125</LongitudeDegrees>
            </Position>
            <AltitudeMeters>2348.60009765625</AltitudeMeters>
            <DistanceMeters>NAN</DistanceMeters>
          </Trackpoint>
          <Trackpoint>
            <Time>2021-07-18T04:47:42.000Z</Time>
            <Position>
              <LatitudeDegrees>42.7237190119922161102294921875</LatitudeDegrees>
              <LongitudeDegrees>-0.19944042898714542388916015625</LongitudeDegrees>
            </Position>
            <AltitudeMeters>2349.39990234375</AltitudeMeters>
            <DistanceMeters>NAN</DistanceMeters>
          </Trackpoint>
          <Trackpoint>
            <Time>2021-07-18T04:47:44.000Z</Time>
            <Position>
              <LatitudeDegrees>42.72374206222593784332275390625</LatitudeDegrees>
              <LongitudeDegrees>-0.19944512285292148590087890625</LongitudeDegrees>
            </Position>
            <AltitudeMeters>2349.800048828125</AltitudeMeters>
            <DistanceMeters>NAN</DistanceMeters>
          </Trackpoint>
          <Trackpoint>
            <Time>2021-07-18T04:47:46.000Z</Time>
            <Position>
              <LatitudeDegrees>42.7237612567842006683349609375</LatitudeDegrees>
              <LongitudeDegrees>-0.19944931380450725555419921875</LongitudeDegrees>
            </Position>
            <AltitudeMeters>2350.199951171875</AltitudeMeters>
            <DistanceMeters>NAN</DistanceMeters>
          </Trackpoint>
          <Trackpoint>
            <Time>2021-07-18T04:47:51.000Z</Time>
            <Position>
              <LatitudeDegrees>42.723808027803897857666015625</LatitudeDegrees>
              <LongitudeDegrees>-0.199465490877628326416015625</LongitudeDegrees>
            </Position>
            <AltitudeMeters>2351.199951171875</AltitudeMeters>
            <DistanceMeters>NAN</DistanceMeters>
          </Trackpoint>
          <Trackpoint>
            <Time>2021-07-18T04:47:54.000Z</Time>
            <Position>
              <LatitudeDegrees>42.72383325733244419097900390625</LatitudeDegrees>
              <LongitudeDegrees>-0.19947714172303676605224609375</LongitudeDegrees>
            </Position>
            <AltitudeMeters>2351.800048828125</AltitudeMeters>
            <DistanceMeters>NAN</DistanceMeters>
          </Trackpoint>
          <Trackpoint>
            <Time>2021-07-18T04:48:00.000Z</Time>
            <Position>
              <LatitudeDegrees>42.72388589568436145782470703125</LatitudeDegrees>
              <LongitudeDegrees>-0.19950044341385364532470703125</LongitudeDegrees>
            </Position>
            <AltitudeMeters>2352.800048828125</AltitudeMeters>
            <DistanceMeters>NAN</DistanceMeters>
          </Trackpoint>
          <Trackpoint>
            <Time>2021-07-18T04:48:07.000Z</Time>
            <Position>
              <LatitudeDegrees>42.72395261563360691070556640625</LatitudeDegrees>
              <LongitudeDegrees>-0.1995270140469074249267578125</LongitudeDegrees>
            </Position>
            <AltitudeMeters>2354</AltitudeMeters>
            <DistanceMeters>NAN</DistanceMeters>
          </Trackpoint>
          <Trackpoint>
            <Time>2021-07-18T04:48:19.000Z</Time>
            <Position>
              <LatitudeDegrees>42.72405604831874370574951171875</LatitudeDegrees>
              <LongitudeDegrees>-0.19961577840149402618408203125</LongitudeDegrees>
            </Position>
            <AltitudeMeters>2355.39990234375</AltitudeMeters>
            <DistanceMeters>NAN</DistanceMeters>
          </Trackpoint>
          <Trackpoint>
            <Time>2021-07-18T04:48:28.000Z</Time>
            <Position>
              <LatitudeDegrees>42.724125869572162628173828125</LatitudeDegrees>
              <LongitudeDegrees>-0.199684090912342071533203125</LongitudeDegrees>
            </Position>
            <AltitudeMeters>2356.800048828125</AltitudeMeters>
            <DistanceMeters>NAN</DistanceMeters>
          </Trackpoint>
          <Trackpoint>
            <Time>2021-07-18T04:48:35.000Z</Time>
            <Position>
              <LatitudeDegrees>42.7241883985698223114013671875</LatitudeDegrees>
              <LongitudeDegrees>-0.19974343478679656982421875</LongitudeDegrees>
            </Position>
            <AltitudeMeters>2357.800048828125</AltitudeMeters>
            <DistanceMeters>NAN</DistanceMeters>
          </Trackpoint>
          <Trackpoint>
            <Time>2021-07-18T04:48:40.000Z</Time>
            <Position>
              <LatitudeDegrees>42.72422603331506252288818359375</LatitudeDegrees>
              <LongitudeDegrees>-0.19978190772235393524169921875</LongitudeDegrees>
            </Position>
            <AltitudeMeters>2358.199951171875</AltitudeMeters>
            <DistanceMeters>NAN</DistanceMeters>
          </Trackpoint>
          <Trackpoint>
            <Time>2021-07-18T04:48:50.000Z</Time>
            <Position>
              <LatitudeDegrees>42.7243000455200672149658203125</LatitudeDegrees>
              <LongitudeDegrees>-0.199861787259578704833984375</LongitudeDegrees>
            </Position>
            <AltitudeMeters>2359</AltitudeMeters>
            <DistanceMeters>NAN</DistanceMeters>
          </Trackpoint>
          <Trackpoint>
            <Time>2021-07-18T04:49:02.000Z</Time>
            <Position>
              <LatitudeDegrees>42.72438864223659038543701171875</LatitudeDegrees>
              <LongitudeDegrees>-0.1999528147280216217041015625</LongitudeDegrees>
            </Position>
            <AltitudeMeters>2359.199951171875</AltitudeMeters>
            <DistanceMeters>NAN</DistanceMeters>
          </Trackpoint>
          <Trackpoint>
            <Time>2021-07-18T04:49:13.000Z</Time>
            <Position>
              <LatitudeDegrees>42.72446592338383197784423828125</LatitudeDegrees>
              <LongitudeDegrees>-0.20002146251499652862548828125</LongitudeDegrees>
            </Position>
            <AltitudeMeters>2359.199951171875</AltitudeMeters>
            <DistanceMeters>NAN</DistanceMeters>
          </Trackpoint>
          <Trackpoint>
            <Time>2021-07-18T04:49:23.000Z</Time>
            <Position>
              <LatitudeDegrees>42.7245233394205570220947265625</LatitudeDegrees>
              <LongitudeDegrees>-0.20009212195873260498046875</LongitudeDegrees>
            </Position>
            <AltitudeMeters>2359.199951171875</AltitudeMeters>
            <DistanceMeters>NAN</DistanceMeters>
          </Trackpoint>
          <Trackpoint>
            <Time>2021-07-18T04:49:33.000Z</Time>
            <Position>
              <LatitudeDegrees>42.7245783247053623199462890625</LatitudeDegrees>
              <LongitudeDegrees>-0.20017468370497226715087890625</LongitudeDegrees>
            </Position>
            <AltitudeMeters>2360.60009765625</AltitudeMeters>
            <DistanceMeters>NAN</DistanceMeters>
          </Trackpoint>
          <Trackpoint>
            <Time>2021-07-18T04:49:36.000Z</Time>
            <Position>
              <LatitudeDegrees>42.72458494640886783599853515625</LatitudeDegrees>
              <LongitudeDegrees>-0.20020284689962863922119140625</LongitudeDegrees>
            </Position>
            <AltitudeMeters>2361</AltitudeMeters>
            <DistanceMeters>NAN</DistanceMeters>
          </Trackpoint>
          <Trackpoint>
            <Time>2021-07-18T04:49:41.000Z</Time>
            <Position>
              <LatitudeDegrees>42.72460238076746463775634765625</LatitudeDegrees>
              <LongitudeDegrees>-0.20024643279612064361572265625</LongitudeDegrees>
            </Position>
            <AltitudeMeters>2362.800048828125</AltitudeMeters>
            <DistanceMeters>NAN</DistanceMeters>
          </Trackpoint>
          <Trackpoint>
            <Time>2021-07-18T04:49:48.000Z</Time>
            <Position>
              <LatitudeDegrees>42.724628113210201263427734375</LatitudeDegrees>
              <LongitudeDegrees>-0.20030627958476543426513671875</LongitudeDegrees>
            </Position>
            <AltitudeMeters>2365</AltitudeMeters>
            <DistanceMeters>NAN</DistanceMeters>
          </Trackpoint>
          <Trackpoint>
            <Time>2021-07-18T04:49:54.000Z</Time>
            <Position>
              <LatitudeDegrees>42.72464915178716182708740234375</LatitudeDegrees>
              <LongitudeDegrees>-0.20036210305988788604736328125</LongitudeDegrees>
            </Position>
            <AltitudeMeters>2366.39990234375</AltitudeMeters>
            <DistanceMeters>NAN</DistanceMeters>
          </Trackpoint>
          <Trackpoint>
            <Time>2021-07-18T04:50:03.000Z</Time>
            <Position>
              <LatitudeDegrees>42.72465719841420650482177734375</LatitudeDegrees>
              <LongitudeDegrees>-0.200453884899616241455078125</LongitudeDegrees>
            </Position>
            <AltitudeMeters>2367.800048828125</AltitudeMeters>
            <DistanceMeters>NAN</DistanceMeters>
          </Trackpoint>
          <Trackpoint>
            <Time>2021-07-18T04:50:12.000Z</Time>
            <Position>
              <LatitudeDegrees>42.72469625808298587799072265625</LatitudeDegrees>
              <LongitudeDegrees>-0.20050426013767719268798828125</LongitudeDegrees>
            </Position>
            <AltitudeMeters>2368.39990234375</AltitudeMeters>
            <DistanceMeters>NAN</DistanceMeters>
          </Trackpoint>
          <Trackpoint>
            <Time>2021-07-18T04:50:21.000Z</Time>
            <Position>
              <LatitudeDegrees>42.72473640739917755126953125</LatitudeDegrees>
              <LongitudeDegrees>-0.2005462534725666046142578125</LongitudeDegrees>
            </Position>
            <AltitudeMeters>2369</AltitudeMeters>
            <DistanceMeters>NAN</DistanceMeters>
          </Trackpoint>
          <Trackpoint>
            <Time>2021-07-18T04:50:24.000Z</Time>
            <Position>
              <LatitudeDegrees>42.72474579513072967529296875</LatitudeDegrees>
              <LongitudeDegrees>-0.20054684020578861236572265625</LongitudeDegrees>
            </Position>
            <AltitudeMeters>2368.800048828125</AltitudeMeters>
            <DistanceMeters>NAN</DistanceMeters>
          </Trackpoint>
          <Trackpoint>
            <Time>2021-07-18T04:50:28.000Z</Time>
            <Position>
              <LatitudeDegrees>42.72475174628198146820068359375</LatitudeDegrees>
              <LongitudeDegrees>-0.2005687169730663299560546875</LongitudeDegrees>
            </Position>
            <AltitudeMeters>2369.39990234375</AltitudeMeters>
            <DistanceMeters>NAN</DistanceMeters>
          </Trackpoint>
          <Trackpoint>
            <Time>2021-07-18T04:50:29.000Z</Time>
            <Position>
              <LatitudeDegrees>42.7247516624629497528076171875</LatitudeDegrees>
              <LongitudeDegrees>-0.2005747519433498382568359375</LongitudeDegrees>
            </Position>
            <AltitudeMeters>2369.60009765625</AltitudeMeters>
            <DistanceMeters>NAN</DistanceMeters>
          </Trackpoint>
          <Trackpoint>
            <Time>2021-07-18T04:50:30.000Z</Time>
            <Position>
              <LatitudeDegrees>42.72474571131169795989990234375</LatitudeDegrees>
              <LongitudeDegrees>-0.2005868218839168548583984375</LongitudeDegrees>
            </Position>
            <AltitudeMeters>2370.199951171875</AltitudeMeters>
            <DistanceMeters>NAN</DistanceMeters>
          </Trackpoint>
          <Trackpoint>
            <Time>2021-07-18T04:50:34.000Z</Time>
            <Position>
              <LatitudeDegrees>42.7247466333210468292236328125</LatitudeDegrees>
              <LongitudeDegrees>-0.2006064355373382568359375</LongitudeDegrees>
            </Position>
            <AltitudeMeters>2371</AltitudeMeters>
            <DistanceMeters>NAN</DistanceMeters>
          </Trackpoint>
          <Trackpoint>
            <Time>2021-07-18T04:50:40.000Z</Time>
            <Position>
              <LatitudeDegrees>42.7247657440602779388427734375</LatitudeDegrees>
              <LongitudeDegrees>-0.2006399631500244140625</LongitudeDegrees>
            </Position>
            <AltitudeMeters>2371.60009765625</AltitudeMeters>
            <DistanceMeters>NAN</DistanceMeters>
          </Trackpoint>
          <Trackpoint>
            <Time>2021-07-18T04:50:50.000Z</Time>
            <Position>
              <LatitudeDegrees>42.724809832870960235595703125</LatitudeDegrees>
              <LongitudeDegrees>-0.2006971277296543121337890625</LongitudeDegrees>
            </Position>
            <AltitudeMeters>2373.39990234375</AltitudeMeters>
            <DistanceMeters>NAN</DistanceMeters>
          </Trackpoint>
          <Trackpoint>
            <Time>2021-07-18T04:50:54.000Z</Time>
            <Position>
              <LatitudeDegrees>42.7248100005090236663818359375</LatitudeDegrees>
              <LongitudeDegrees>-0.20073316991329193115234375</LongitudeDegrees>
            </Position>
            <AltitudeMeters>2374.60009765625</AltitudeMeters>
            <DistanceMeters>NAN</DistanceMeters>
          </Trackpoint>
          <Trackpoint>
            <Time>2021-07-18T04:50:58.000Z</Time>
            <Position>
              <LatitudeDegrees>42.724814526736736297607421875</LatitudeDegrees>
              <LongitudeDegrees>-0.20076334476470947265625</LongitudeDegrees>
            </Position>
            <AltitudeMeters>2375.199951171875</AltitudeMeters>
            <DistanceMeters>NAN</DistanceMeters>
          </Trackpoint>
          <Trackpoint>
            <Time>2021-07-18T04:50:59.000Z</Time>
            <Position>
              <LatitudeDegrees>42.7248202264308929443359375</LatitudeDegrees>
              <LongitudeDegrees>-0.200773738324642181396484375</LongitudeDegrees>
            </Position>
            <AltitudeMeters>2375.39990234375</AltitudeMeters>
            <DistanceMeters>NAN</DistanceMeters>
          </Trackpoint>
          <Trackpoint>
            <Time>2021-07-18T04:51:00.000Z</Time>
            <Position>
              <LatitudeDegrees>42.72482668049633502960205078125</LatitudeDegrees>
              <LongitudeDegrees>-0.20077834837138652801513671875</LongitudeDegrees>
            </Position>
            <AltitudeMeters>2375.39990234375</AltitudeMeters>
            <DistanceMeters>NAN</DistanceMeters>
          </Trackpoint>
          <Trackpoint>
            <Time>2021-07-18T04:51:07.000Z</Time>
            <Position>
              <LatitudeDegrees>42.72484461776912212371826171875</LatitudeDegrees>
              <LongitudeDegrees>-0.20080466754734516143798828125</LongitudeDegrees>
            </Position>
            <AltitudeMeters>2376</AltitudeMeters>
            <DistanceMeters>NAN</DistanceMeters>
          </Trackpoint>
          <Trackpoint>
            <Time>2021-07-18T04:51:16.000Z</Time>
            <Position>
              <LatitudeDegrees>42.7248576097190380096435546875</LatitudeDegrees>
              <LongitudeDegrees>-0.2008409611880779266357421875</LongitudeDegrees>
            </Position>
            <AltitudeMeters>2376.60009765625</AltitudeMeters>
            <DistanceMeters>NAN</DistanceMeters>
          </Trackpoint>
          <Trackpoint>
            <Time>2021-07-18T04:51:18.000Z</Time>
            <Position>
              <LatitudeDegrees>42.7248643152415752410888671875</LatitudeDegrees>
              <LongitudeDegrees>-0.200855545699596405029296875</LongitudeDegrees>
            </Position>
            <AltitudeMeters>2377</AltitudeMeters>
            <DistanceMeters>NAN</DistanceMeters>
          </Trackpoint>
          <Trackpoint>
            <Time>2021-07-18T04:51:24.000Z</Time>
            <Position>
              <LatitudeDegrees>42.7248726971447467803955078125</LatitudeDegrees>
              <LongitudeDegrees>-0.20089016295969486236572265625</LongitudeDegrees>
            </Position>
            <AltitudeMeters>2377.800048828125</AltitudeMeters>
            <DistanceMeters>NAN</DistanceMeters>
          </Trackpoint>
          <Trackpoint>
            <Time>2021-07-18T04:51:26.000Z</Time>
            <Position>
              <LatitudeDegrees>42.7248767204582691192626953125</LatitudeDegrees>
              <LongitudeDegrees>-0.20090223290026187896728515625</LongitudeDegrees>
            </Position>
            <AltitudeMeters>2378</AltitudeMeters>
            <DistanceMeters>NAN</DistanceMeters>
          </Trackpoint>
          <Trackpoint>
            <Time>2021-07-18T04:51:33.000Z</Time>
            <Position>
              <LatitudeDegrees>42.72486993111670017242431640625</LatitudeDegrees>
              <LongitudeDegrees>-0.20092989318072795867919921875</LongitudeDegrees>
            </Position>
            <AltitudeMeters>2378.60009765625</AltitudeMeters>
            <DistanceMeters>NAN</DistanceMeters>
          </Trackpoint>
          <Trackpoint>
            <Time>2021-07-18T04:51:39.000Z</Time>
            <Position>
              <LatitudeDegrees>42.72484679706394672393798828125</LatitudeDegrees>
              <LongitudeDegrees>-0.20093559287488460540771484375</LongitudeDegrees>
            </Position>
            <AltitudeMeters>2378.800048828125</AltitudeMeters>
            <DistanceMeters>NAN</DistanceMeters>
          </Trackpoint>
          <Trackpoint>
            <Time>2021-07-18T04:51:49.000Z</Time>
            <Position>
              <LatitudeDegrees>42.7248636446893215179443359375</LatitudeDegrees>
              <LongitudeDegrees>-0.20100180990993976593017578125</LongitudeDegrees>
            </Position>
            <AltitudeMeters>2380</AltitudeMeters>
            <DistanceMeters>NAN</DistanceMeters>
          </Trackpoint>
          <Trackpoint>
            <Time>2021-07-18T04:51:58.000Z</Time>
            <Position>
              <LatitudeDegrees>42.724856771528720855712890625</LatitudeDegrees>
              <LongitudeDegrees>-0.2010357566177845001220703125</LongitudeDegrees>
            </Position>
            <AltitudeMeters>2380.800048828125</AltitudeMeters>
            <DistanceMeters>NAN</DistanceMeters>
          </Trackpoint>
          <Trackpoint>
            <Time>2021-07-18T04:52:06.000Z</Time>
            <Position>
              <LatitudeDegrees>42.7248549275100231170654296875</LatitudeDegrees>
              <LongitudeDegrees>-0.201056711375713348388671875</LongitudeDegrees>
            </Position>
            <AltitudeMeters>2381.39990234375</AltitudeMeters>
            <DistanceMeters>NAN</DistanceMeters>
          </Trackpoint>
          <Trackpoint>
            <Time>2021-07-18T04:52:16.000Z</Time>
            <Position>
              <LatitudeDegrees>42.7248703502118587493896484375</LatitudeDegrees>
              <LongitudeDegrees>-0.201127119362354278564453125</LongitudeDegrees>
            </Position>
            <AltitudeMeters>2383.199951171875</AltitudeMeters>
            <DistanceMeters>NAN</DistanceMeters>
          </Trackpoint>
          <Trackpoint>
            <Time>2021-07-18T04:52:29.000Z</Time>
            <Position>
              <LatitudeDegrees>42.7248820848762989044189453125</LatitudeDegrees>
              <LongitudeDegrees>-0.20119911991059780120849609375</LongitudeDegrees>
            </Position>
            <AltitudeMeters>2385.199951171875</AltitudeMeters>
            <DistanceMeters>NAN</DistanceMeters>
          </Trackpoint>
          <Trackpoint>
            <Time>2021-07-18T04:52:36.000Z</Time>
            <Position>
              <LatitudeDegrees>42.7248765528202056884765625</LatitudeDegrees>
              <LongitudeDegrees>-0.20123004913330078125</LongitudeDegrees>
            </Position>
            <AltitudeMeters>2386</AltitudeMeters>
            <DistanceMeters>NAN</DistanceMeters>
          </Trackpoint>
          <Trackpoint>
            <Time>2021-07-18T04:52:44.000Z</Time>
            <Position>
              <LatitudeDegrees>42.7248901315033435821533203125</LatitudeDegrees>
              <LongitudeDegrees>-0.20128344185650348663330078125</LongitudeDegrees>
            </Position>
            <AltitudeMeters>2386.60009765625</AltitudeMeters>
            <DistanceMeters>NAN</DistanceMeters>
          </Trackpoint>
          <Trackpoint>
            <Time>2021-07-18T04:52:52.000Z</Time>
            <Position>
              <LatitudeDegrees>42.7248926460742950439453125</LatitudeDegrees>
              <LongitudeDegrees>-0.20132786594331264495849609375</LongitudeDegrees>
            </Position>
            <AltitudeMeters>2388.39990234375</AltitudeMeters>
            <DistanceMeters>NAN</DistanceMeters>
          </Trackpoint>
          <Trackpoint>
            <Time>2021-07-18T04:53:04.000Z</Time>
            <Position>
              <LatitudeDegrees>42.7248787321150302886962890625</LatitudeDegrees>
              <LongitudeDegrees>-0.20140112377703189849853515625</LongitudeDegrees>
            </Position>
            <AltitudeMeters>2393.39990234375</AltitudeMeters>
            <DistanceMeters>NAN</DistanceMeters>
          </Trackpoint>
          <Trackpoint>
            <Time>2021-07-18T04:53:10.000Z</Time>
            <Position>
              <LatitudeDegrees>42.7248765528202056884765625</LatitudeDegrees>
              <LongitudeDegrees>-0.20142115652561187744140625</LongitudeDegrees>
            </Position>
            <AltitudeMeters>2394.800048828125</AltitudeMeters>
            <DistanceMeters>NAN</DistanceMeters>
          </Trackpoint>
          <Trackpoint>
            <Time>2021-07-18T04:53:17.000Z</Time>
            <Position>
              <LatitudeDegrees>42.72490538656711578369140625</LatitudeDegrees>
              <LongitudeDegrees>-0.2013950049877166748046875</LongitudeDegrees>
            </Position>
            <AltitudeMeters>2392.60009765625</AltitudeMeters>
            <DistanceMeters>NAN</DistanceMeters>
          </Trackpoint>
          <Trackpoint>
            <Time>2021-07-18T04:53:23.000Z</Time>
            <Position>
              <LatitudeDegrees>42.72490538656711578369140625</LatitudeDegrees>
              <LongitudeDegrees>-0.2013950049877166748046875</LongitudeDegrees>
            </Position>
            <AltitudeMeters>2392.60009765625</AltitudeMeters>
            <DistanceMeters>NAN</DistanceMeters>
          </Trackpoint>
          <Trackpoint>
            <Time>2021-07-18T04:53:28.000Z</Time>
            <Position>
              <LatitudeDegrees>42.72490538656711578369140625</LatitudeDegrees>
              <LongitudeDegrees>-0.2013950049877166748046875</LongitudeDegrees>
            </Position>
            <AltitudeMeters>2392.60009765625</AltitudeMeters>
            <DistanceMeters>NAN</DistanceMeters>
          </Trackpoint>
          <Trackpoint>
            <Time>2021-07-18T04:53:35.000Z</Time>
            <Position>
              <LatitudeDegrees>42.7249169535934925079345703125</LatitudeDegrees>
              <LongitudeDegrees>-0.20139123313128948211669921875</LongitudeDegrees>
            </Position>
            <AltitudeMeters>2392.199951171875</AltitudeMeters>
            <DistanceMeters>NAN</DistanceMeters>
          </Trackpoint>
          <Trackpoint>
            <Time>2021-07-18T04:53:45.000Z</Time>
            <Position>
              <LatitudeDegrees>42.72491938434541225433349609375</LatitudeDegrees>
              <LongitudeDegrees>-0.20139073021709918975830078125</LongitudeDegrees>
            </Position>
            <AltitudeMeters>2392</AltitudeMeters>
            <DistanceMeters>NAN</DistanceMeters>
          </Trackpoint>
          <Trackpoint>
            <Time>2021-07-18T04:53:48.000Z</Time>
            <Position>
              <LatitudeDegrees>42.72492458112537860870361328125</LatitudeDegrees>
              <LongitudeDegrees>-0.2013896405696868896484375</LongitudeDegrees>
            </Position>
            <AltitudeMeters>2392</AltitudeMeters>
            <DistanceMeters>NAN</DistanceMeters>
          </Trackpoint>
          <Trackpoint>
            <Time>2021-07-18T04:53:52.000Z</Time>
            <Position>
              <LatitudeDegrees>42.7249300293624401092529296875</LatitudeDegrees>
              <LongitudeDegrees>-0.20138905383646488189697265625</LongitudeDegrees>
            </Position>
            <AltitudeMeters>2391.800048828125</AltitudeMeters>
            <DistanceMeters>NAN</DistanceMeters>
          </Trackpoint>
          <Trackpoint>
            <Time>2021-07-18T04:53:54.000Z</Time>
            <Position>
              <LatitudeDegrees>42.72494000382721424102783203125</LatitudeDegrees>
              <LongitudeDegrees>-0.20138905383646488189697265625</LongitudeDegrees>
            </Position>
            <AltitudeMeters>2391.60009765625</AltitudeMeters>
            <DistanceMeters>NAN</DistanceMeters>
          </Trackpoint>
          <Trackpoint>
            <Time>2021-07-18T04:53:58.000Z</Time>
            <Position>
              <LatitudeDegrees>42.72495978511869907379150390625</LatitudeDegrees>
              <LongitudeDegrees>-0.201388299465179443359375</LongitudeDegrees>
            </Position>
            <AltitudeMeters>2391.199951171875</AltitudeMeters>
            <DistanceMeters>NAN</DistanceMeters>
          </Trackpoint>
          <Trackpoint>
            <Time>2021-07-18T04:54:01.000Z</Time>
            <Position>
              <LatitudeDegrees>42.724975459277629852294921875</LatitudeDegrees>
              <LongitudeDegrees>-0.20137698389589786529541015625</LongitudeDegrees>
            </Position>
            <AltitudeMeters>2390.199951171875</AltitudeMeters>
            <DistanceMeters>NAN</DistanceMeters>
          </Trackpoint>
          <Trackpoint>
            <Time>2021-07-18T04:54:05.000Z</Time>
            <Position>
              <LatitudeDegrees>42.7249779738485813140869140625</LatitudeDegrees>
              <LongitudeDegrees>-0.20137648098170757293701171875</LongitudeDegrees>
            </Position>
            <AltitudeMeters>2390</AltitudeMeters>
            <DistanceMeters>NAN</DistanceMeters>
          </Trackpoint>
          <Trackpoint>
            <Time>2021-07-18T04:54:10.000Z</Time>
            <Position>
              <LatitudeDegrees>42.72497805766761302947998046875</LatitudeDegrees>
              <LongitudeDegrees>-0.2013763971626758575439453125</LongitudeDegrees>
            </Position>
            <AltitudeMeters>2390</AltitudeMeters>
            <DistanceMeters>NAN</DistanceMeters>
          </Trackpoint>
          <Trackpoint>
            <Time>2021-07-18T04:54:14.000Z</Time>
            <Position>
              <LatitudeDegrees>42.72497822530567646026611328125</LatitudeDegrees>
              <LongitudeDegrees>-0.2013763971626758575439453125</LongitudeDegrees>
            </Position>
            <AltitudeMeters>2390</AltitudeMeters>
            <DistanceMeters>NAN</DistanceMeters>
          </Trackpoint>
          <Trackpoint>
            <Time>2021-07-18T04:54:26.000Z</Time>
            <Position>
              <LatitudeDegrees>42.72497914731502532958984375</LatitudeDegrees>
              <LongitudeDegrees>-0.201408751308917999267578125</LongitudeDegrees>
            </Position>
            <AltitudeMeters>2391.800048828125</AltitudeMeters>
            <DistanceMeters>NAN</DistanceMeters>
          </Trackpoint>
          <Trackpoint>
            <Time>2021-07-18T04:54:34.000Z</Time>
            <Position>
              <LatitudeDegrees>42.7249756269156932830810546875</LatitudeDegrees>
              <LongitudeDegrees>-0.201414786279201507568359375</LongitudeDegrees>
            </Position>
            <AltitudeMeters>2392.199951171875</AltitudeMeters>
            <DistanceMeters>NAN</DistanceMeters>
          </Trackpoint>
          <Trackpoint>
            <Time>2021-07-18T04:54:36.000Z</Time>
            <Position>
              <LatitudeDegrees>42.724975459277629852294921875</LatitudeDegrees>
              <LongitudeDegrees>-0.20141487009823322296142578125</LongitudeDegrees>
            </Position>
            <AltitudeMeters>2392.199951171875</AltitudeMeters>
            <DistanceMeters>NAN</DistanceMeters>
          </Trackpoint>
          <Trackpoint>
            <Time>2021-07-18T04:54:41.000Z</Time>
            <Position>
              <LatitudeDegrees>42.724975459277629852294921875</LatitudeDegrees>
              <LongitudeDegrees>-0.20141487009823322296142578125</LongitudeDegrees>
            </Position>
            <AltitudeMeters>2392.199951171875</AltitudeMeters>
            <DistanceMeters>NAN</DistanceMeters>
          </Trackpoint>
          <Trackpoint>
            <Time>2021-07-18T04:54:56.000Z</Time>
            <Position>
              <LatitudeDegrees>42.72495232522487640380859375</LatitudeDegrees>
              <LongitudeDegrees>-0.20142115652561187744140625</LongitudeDegrees>
            </Position>
            <AltitudeMeters>2393.39990234375</AltitudeMeters>
            <DistanceMeters>NAN</DistanceMeters>
          </Trackpoint>
          <Trackpoint>
            <Time>2021-07-18T04:55:00.000Z</Time>
            <Position>
              <LatitudeDegrees>42.72494670934975147247314453125</LatitudeDegrees>
              <LongitudeDegrees>-0.20142341963946819305419921875</LongitudeDegrees>
            </Position>
            <AltitudeMeters>2393.60009765625</AltitudeMeters>
            <DistanceMeters>NAN</DistanceMeters>
          </Trackpoint>
          <Trackpoint>
            <Time>2021-07-18T04:55:08.000Z</Time>
            <Position>
              <LatitudeDegrees>42.72494503296911716461181640625</LatitudeDegrees>
              <LongitudeDegrees>-0.20142224617302417755126953125</LongitudeDegrees>
            </Position>
            <AltitudeMeters>2393.60009765625</AltitudeMeters>
            <DistanceMeters>NAN</DistanceMeters>
          </Trackpoint>
          <Trackpoint>
            <Time>2021-07-18T04:55:22.000Z</Time>
            <Position>
              <LatitudeDegrees>42.7249543368816375732421875</LatitudeDegrees>
              <LongitudeDegrees>-0.20142576657235622406005859375</LongitudeDegrees>
            </Position>
            <AltitudeMeters>2393.39990234375</AltitudeMeters>
            <DistanceMeters>NAN</DistanceMeters>
          </Trackpoint>
          <Trackpoint>
            <Time>2021-07-18T04:55:28.000Z</Time>
            <Position>
              <LatitudeDegrees>42.72496079094707965850830078125</LatitudeDegrees>
              <LongitudeDegrees>-0.20142358727753162384033203125</LongitudeDegrees>
            </Position>
            <AltitudeMeters>2393.199951171875</AltitudeMeters>
            <DistanceMeters>NAN</DistanceMeters>
          </Trackpoint>
          <Trackpoint>
            <Time>2021-07-18T04:55:31.000Z</Time>
            <Position>
              <LatitudeDegrees>42.724964059889316558837890625</LatitudeDegrees>
              <LongitudeDegrees>-0.2014213241636753082275390625</LongitudeDegrees>
            </Position>
            <AltitudeMeters>2393</AltitudeMeters>
            <DistanceMeters>NAN</DistanceMeters>
          </Trackpoint>
          <Trackpoint>
            <Time>2021-07-18T04:55:58.000Z</Time>
            <Position>
              <LatitudeDegrees>42.72497420199215412139892578125</LatitudeDegrees>
              <LongitudeDegrees>-0.20141604356467723846435546875</LongitudeDegrees>
            </Position>
            <AltitudeMeters>2392.39990234375</AltitudeMeters>
            <DistanceMeters>NAN</DistanceMeters>
          </Trackpoint>
          <Trackpoint>
            <Time>2021-07-18T04:56:07.000Z</Time>
            <Position>
              <LatitudeDegrees>42.72497244179248809814453125</LatitudeDegrees>
              <LongitudeDegrees>-0.20143347792327404022216796875</LongitudeDegrees>
            </Position>
            <AltitudeMeters>2393.199951171875</AltitudeMeters>
            <DistanceMeters>NAN</DistanceMeters>
          </Trackpoint>
          <Trackpoint>
            <Time>2021-07-18T04:56:10.000Z</Time>
            <Position>
              <LatitudeDegrees>42.72497219033539295196533203125</LatitudeDegrees>
              <LongitudeDegrees>-0.201443620026111602783203125</LongitudeDegrees>
            </Position>
            <AltitudeMeters>2393.60009765625</AltitudeMeters>
            <DistanceMeters>NAN</DistanceMeters>
          </Trackpoint>
          <Trackpoint>
            <Time>2021-07-18T04:56:33.000Z</Time>
            <Position>
              <LatitudeDegrees>42.72496582008898258209228515625</LatitudeDegrees>
              <LongitudeDegrees>-0.201533138751983642578125</LongitudeDegrees>
            </Position>
            <AltitudeMeters>2398.199951171875</AltitudeMeters>
            <DistanceMeters>NAN</DistanceMeters>
          </Trackpoint>
          <Trackpoint>
            <Time>2021-07-18T04:56:35.000Z</Time>
            <Position>
              <LatitudeDegrees>42.72496565245091915130615234375</LatitudeDegrees>
              <LongitudeDegrees>-0.20153590478003025054931640625</LongitudeDegrees>
            </Position>
            <AltitudeMeters>2398.199951171875</AltitudeMeters>
            <DistanceMeters>NAN</DistanceMeters>
          </Trackpoint>
          <Trackpoint>
            <Time>2021-07-18T04:56:37.000Z</Time>
            <Position>
              <LatitudeDegrees>42.72496565245091915130615234375</LatitudeDegrees>
              <LongitudeDegrees>-0.2015373297035694122314453125</LongitudeDegrees>
            </Position>
            <AltitudeMeters>2398.39990234375</AltitudeMeters>
            <DistanceMeters>NAN</DistanceMeters>
          </Trackpoint>
          <Trackpoint>
            <Time>2021-07-18T04:56:46.000Z</Time>
            <Position>
              <LatitudeDegrees>42.7249655686318874359130859375</LatitudeDegrees>
              <LongitudeDegrees>-0.2015390060842037200927734375</LongitudeDegrees>
            </Position>
            <AltitudeMeters>2398.39990234375</AltitudeMeters>
            <DistanceMeters>NAN</DistanceMeters>
          </Trackpoint>
          <Trackpoint>
            <Time>2021-07-18T04:56:54.000Z</Time>
            <Position>
              <LatitudeDegrees>42.72496548481285572052001953125</LatitudeDegrees>
              <LongitudeDegrees>-0.2015410177409648895263671875</LongitudeDegrees>
            </Position>
            <AltitudeMeters>2398.39990234375</AltitudeMeters>
            <DistanceMeters>NAN</DistanceMeters>
          </Trackpoint>
          <Trackpoint>
            <Time>2021-07-18T04:57:05.000Z</Time>
            <Position>
              <LatitudeDegrees>42.72496531717479228973388671875</LatitudeDegrees>
              <LongitudeDegrees>-0.20154428668320178985595703125</LongitudeDegrees>
            </Position>
            <AltitudeMeters>2398.60009765625</AltitudeMeters>
            <DistanceMeters>NAN</DistanceMeters>
          </Trackpoint>
          <Trackpoint>
            <Time>2021-07-18T04:57:06.000Z</Time>
            <Position>
              <LatitudeDegrees>42.72496531717479228973388671875</LatitudeDegrees>
              <LongitudeDegrees>-0.20154462195932865142822265625</LongitudeDegrees>
            </Position>
            <AltitudeMeters>2398.60009765625</AltitudeMeters>
            <DistanceMeters>NAN</DistanceMeters>
          </Trackpoint>
          <Trackpoint>
            <Time>2021-07-18T04:57:20.000Z</Time>
            <Position>
              <LatitudeDegrees>42.72496481426060199737548828125</LatitudeDegrees>
              <LongitudeDegrees>-0.2015500701963901519775390625</LongitudeDegrees>
            </Position>
            <AltitudeMeters>2399</AltitudeMeters>
            <DistanceMeters>NAN</DistanceMeters>
          </Trackpoint>
          <Trackpoint>
            <Time>2021-07-18T04:57:25.000Z</Time>
            <Position>
              <LatitudeDegrees>42.72496464662253856658935546875</LatitudeDegrees>
              <LongitudeDegrees>-0.2015520818531513214111328125</LongitudeDegrees>
            </Position>
            <AltitudeMeters>2399</AltitudeMeters>
            <DistanceMeters>NAN</DistanceMeters>
          </Trackpoint>
          <Trackpoint>
            <Time>2021-07-18T04:57:26.000Z</Time>
            <Position>
              <LatitudeDegrees>42.7249645628035068511962890625</LatitudeDegrees>
              <LongitudeDegrees>-0.20155250094830989837646484375</LongitudeDegrees>
            </Position>
            <AltitudeMeters>2399</AltitudeMeters>
            <DistanceMeters>NAN</DistanceMeters>
          </Trackpoint>
          <Trackpoint>
            <Time>2021-07-18T04:57:27.000Z</Time>
            <Position>
              <LatitudeDegrees>42.7249645628035068511962890625</LatitudeDegrees>
              <LongitudeDegrees>-0.201552920043468475341796875</LongitudeDegrees>
            </Position>
            <AltitudeMeters>2399</AltitudeMeters>
            <DistanceMeters>NAN</DistanceMeters>
          </Trackpoint>
          <Trackpoint>
            <Time>2021-07-18T04:57:28.000Z</Time>
            <Position>
              <LatitudeDegrees>42.7249645628035068511962890625</LatitudeDegrees>
              <LongitudeDegrees>-0.20155333913862705230712890625</LongitudeDegrees>
            </Position>
            <AltitudeMeters>2399</AltitudeMeters>
            <DistanceMeters>NAN</DistanceMeters>
          </Trackpoint>
          <Trackpoint>
            <Time>2021-07-18T04:57:40.000Z</Time>
            <Position>
              <LatitudeDegrees>42.72497554309666156768798828125</LatitudeDegrees>
              <LongitudeDegrees>-0.2016270160675048828125</LongitudeDegrees>
            </Position>
            <AltitudeMeters>2400.39990234375</AltitudeMeters>
            <DistanceMeters>NAN</DistanceMeters>
          </Trackpoint>
          <Trackpoint>
            <Time>2021-07-18T04:57:48.000Z</Time>
            <Position>
              <LatitudeDegrees>42.72499063052237033843994140625</LatitudeDegrees>
              <LongitudeDegrees>-0.20174293778836727142333984375</LongitudeDegrees>
            </Position>
            <AltitudeMeters>2403</AltitudeMeters>
            <DistanceMeters>NAN</DistanceMeters>
          </Trackpoint>
          <Trackpoint>
            <Time>2021-07-18T04:58:06.000Z</Time>
            <Position>
              <LatitudeDegrees>42.72499348036944866180419921875</LatitudeDegrees>
              <LongitudeDegrees>-0.2017911337316036224365234375</LongitudeDegrees>
            </Position>
            <AltitudeMeters>2404.39990234375</AltitudeMeters>
            <DistanceMeters>NAN</DistanceMeters>
          </Trackpoint>
          <Trackpoint>
            <Time>2021-07-18T04:58:08.000Z</Time>
            <Position>
              <LatitudeDegrees>42.72499348036944866180419921875</LatitudeDegrees>
              <LongitudeDegrees>-0.20180127583444118499755859375</LongitudeDegrees>
            </Position>
            <AltitudeMeters>2404.800048828125</AltitudeMeters>
            <DistanceMeters>NAN</DistanceMeters>
          </Trackpoint>
          <Trackpoint>
            <Time>2021-07-18T04:58:12.000Z</Time>
            <Position>
              <LatitudeDegrees>42.72499348036944866180419921875</LatitudeDegrees>
              <LongitudeDegrees>-0.201819799840450286865234375</LongitudeDegrees>
            </Position>
            <AltitudeMeters>2405.39990234375</AltitudeMeters>
            <DistanceMeters>NAN</DistanceMeters>
          </Trackpoint>
          <Trackpoint>
            <Time>2021-07-18T04:58:13.000Z</Time>
            <Position>
              <LatitudeDegrees>42.72499348036944866180419921875</LatitudeDegrees>
              <LongitudeDegrees>-0.2018260024487972259521484375</LongitudeDegrees>
            </Position>
            <AltitudeMeters>2405.60009765625</AltitudeMeters>
            <DistanceMeters>NAN</DistanceMeters>
          </Trackpoint>
          <Trackpoint>
            <Time>2021-07-18T04:58:14.000Z</Time>
            <Position>
              <LatitudeDegrees>42.72499314509332180023193359375</LatitudeDegrees>
              <LongitudeDegrees>-0.20182977430522441864013671875</LongitudeDegrees>
            </Position>
            <AltitudeMeters>2405.800048828125</AltitudeMeters>
            <DistanceMeters>NAN</DistanceMeters>
          </Trackpoint>
          <Trackpoint>
            <Time>2021-07-18T04:58:16.000Z</Time>
            <Position>
              <LatitudeDegrees>42.72499314509332180023193359375</LatitudeDegrees>
              <LongitudeDegrees>-0.20184402354061603546142578125</LongitudeDegrees>
            </Position>
            <AltitudeMeters>2406.199951171875</AltitudeMeters>
            <DistanceMeters>NAN</DistanceMeters>
          </Trackpoint>
          <Trackpoint>
            <Time>2021-07-18T04:58:18.000Z</Time>
            <Position>
              <LatitudeDegrees>42.72499012760818004608154296875</LatitudeDegrees>
              <LongitudeDegrees>-0.20184653811156749725341796875</LongitudeDegrees>
            </Position>
            <AltitudeMeters>2406.199951171875</AltitudeMeters>
            <DistanceMeters>NAN</DistanceMeters>
          </Trackpoint>
          <Trackpoint>
            <Time>2021-07-18T04:58:25.000Z</Time>
            <Position>
              <LatitudeDegrees>42.72498987615108489990234375</LatitudeDegrees>
              <LongitudeDegrees>-0.20190060138702392578125</LongitudeDegrees>
            </Position>
            <AltitudeMeters>2409</AltitudeMeters>
            <DistanceMeters>NAN</DistanceMeters>
          </Trackpoint>
          <Trackpoint>
            <Time>2021-07-18T04:58:28.000Z</Time>
            <Position>
              <LatitudeDegrees>42.72498987615108489990234375</LatitudeDegrees>
              <LongitudeDegrees>-0.201917700469493865966796875</LongitudeDegrees>
            </Position>
            <AltitudeMeters>2410</AltitudeMeters>
            <DistanceMeters>NAN</DistanceMeters>
          </Trackpoint>
          <Trackpoint>
            <Time>2021-07-18T04:58:48.000Z</Time>
            <Position>
              <LatitudeDegrees>42.7249927259981632232666015625</LatitudeDegrees>
              <LongitudeDegrees>-0.202008225023746490478515625</LongitudeDegrees>
            </Position>
            <AltitudeMeters>2413.199951171875</AltitudeMeters>
            <DistanceMeters>NAN</DistanceMeters>
          </Trackpoint>
          <Trackpoint>
            <Time>2021-07-18T04:59:11.000Z</Time>
            <Position>
              <LatitudeDegrees>42.72501393221318721771240234375</LatitudeDegrees>
              <LongitudeDegrees>-0.2020777948200702667236328125</LongitudeDegrees>
            </Position>
            <AltitudeMeters>2414.800048828125</AltitudeMeters>
            <DistanceMeters>NAN</DistanceMeters>
          </Trackpoint>
          <Trackpoint>
            <Time>2021-07-18T04:59:16.000Z</Time>
            <Position>
              <LatitudeDegrees>42.72501812316477298736572265625</LatitudeDegrees>
              <LongitudeDegrees>-0.20209849812090396881103515625</LongitudeDegrees>
            </Position>
            <AltitudeMeters>2415.199951171875</AltitudeMeters>
            <DistanceMeters>NAN</DistanceMeters>
          </Trackpoint>
          <Trackpoint>
            <Time>2021-07-18T04:59:18.000Z</Time>
            <Position>
              <LatitudeDegrees>42.72501929663121700286865234375</LatitudeDegrees>
              <LongitudeDegrees>-0.202109478414058685302734375</LongitudeDegrees>
            </Position>
            <AltitudeMeters>2415.60009765625</AltitudeMeters>
            <DistanceMeters>NAN</DistanceMeters>
          </Trackpoint>
          <Trackpoint>
            <Time>2021-07-18T04:59:20.000Z</Time>
            <Position>
              <LatitudeDegrees>42.72502197884023189544677734375</LatitudeDegrees>
              <LongitudeDegrees>-0.20211894996464252471923828125</LongitudeDegrees>
            </Position>
            <AltitudeMeters>2415.800048828125</AltitudeMeters>
            <DistanceMeters>NAN</DistanceMeters>
          </Trackpoint>
          <Trackpoint>
            <Time>2021-07-18T04:59:21.000Z</Time>
            <Position>
              <LatitudeDegrees>42.72502298466861248016357421875</LatitudeDegrees>
              <LongitudeDegrees>-0.202124230563640594482421875</LongitudeDegrees>
            </Position>
            <AltitudeMeters>2416</AltitudeMeters>
            <DistanceMeters>NAN</DistanceMeters>
          </Trackpoint>
          <Trackpoint>
            <Time>2021-07-18T04:59:23.000Z</Time>
            <Position>
              <LatitudeDegrees>42.7250245772302150726318359375</LatitudeDegrees>
              <LongitudeDegrees>-0.20214132964611053466796875</LongitudeDegrees>
            </Position>
            <AltitudeMeters>2416.39990234375</AltitudeMeters>
            <DistanceMeters>NAN</DistanceMeters>
          </Trackpoint>
          <Trackpoint>
            <Time>2021-07-18T04:59:55.000Z</Time>
            <Position>
              <LatitudeDegrees>42.72502315230667591094970703125</LatitudeDegrees>
              <LongitudeDegrees>-0.20227200351655483245849609375</LongitudeDegrees>
            </Position>
            <AltitudeMeters>2420.60009765625</AltitudeMeters>
            <DistanceMeters>NAN</DistanceMeters>
          </Trackpoint>
          <Trackpoint>
            <Time>2021-07-18T05:00:02.000Z</Time>
            <Position>
              <LatitudeDegrees>42.7250215597450733184814453125</LatitudeDegrees>
              <LongitudeDegrees>-0.20229228772222995758056640625</LongitudeDegrees>
            </Position>
            <AltitudeMeters>2421.199951171875</AltitudeMeters>
            <DistanceMeters>NAN</DistanceMeters>
          </Trackpoint>
          <Trackpoint>
            <Time>2021-07-18T05:00:04.000Z</Time>
            <Position>
              <LatitudeDegrees>42.72502147592604160308837890625</LatitudeDegrees>
              <LongitudeDegrees>-0.2023015916347503662109375</LongitudeDegrees>
            </Position>
            <AltitudeMeters>2421.60009765625</AltitudeMeters>
            <DistanceMeters>NAN</DistanceMeters>
          </Trackpoint>
          <Trackpoint>
            <Time>2021-07-18T05:00:05.000Z</Time>
            <Position>
              <LatitudeDegrees>42.72502147592604160308837890625</LatitudeDegrees>
              <LongitudeDegrees>-0.20230502821505069732666015625</LongitudeDegrees>
            </Position>
            <AltitudeMeters>2421.60009765625</AltitudeMeters>
            <DistanceMeters>NAN</DistanceMeters>
          </Trackpoint>
          <Trackpoint>
            <Time>2021-07-18T05:00:09.000Z</Time>
            <Position>
              <LatitudeDegrees>42.7250218950212001800537109375</LatitudeDegrees>
              <LongitudeDegrees>-0.20231776870787143707275390625</LongitudeDegrees>
            </Position>
            <AltitudeMeters>2422</AltitudeMeters>
            <DistanceMeters>NAN</DistanceMeters>
          </Trackpoint>
          <Trackpoint>
            <Time>2021-07-18T05:00:14.000Z</Time>
            <Position>
              <LatitudeDegrees>42.7250255830585956573486328125</LatitudeDegrees>
              <LongitudeDegrees>-0.202328078448772430419921875</LongitudeDegrees>
            </Position>
            <AltitudeMeters>2422.39990234375</AltitudeMeters>
            <DistanceMeters>NAN</DistanceMeters>
          </Trackpoint>
          <Trackpoint>
            <Time>2021-07-18T05:00:18.000Z</Time>
            <Position>
              <LatitudeDegrees>42.72503103129565715789794921875</LatitudeDegrees>
              <LongitudeDegrees>-0.20233604125678539276123046875</LongitudeDegrees>
            </Position>
            <AltitudeMeters>2422.39990234375</AltitudeMeters>
            <DistanceMeters>NAN</DistanceMeters>
          </Trackpoint>
          <Trackpoint>
            <Time>2021-07-18T05:00:27.000Z</Time>
            <Position>
              <LatitudeDegrees>42.72504025138914585113525390625</LatitudeDegrees>
              <LongitudeDegrees>-0.20236168988049030303955078125</LongitudeDegrees>
            </Position>
            <AltitudeMeters>2423</AltitudeMeters>
            <DistanceMeters>NAN</DistanceMeters>
          </Trackpoint>
          <Trackpoint>
            <Time>2021-07-18T05:00:31.000Z</Time>
            <Position>
              <LatitudeDegrees>42.7250426821410655975341796875</LatitudeDegrees>
              <LongitudeDegrees>-0.20237007178366184234619140625</LongitudeDegrees>
            </Position>
            <AltitudeMeters>2423.199951171875</AltitudeMeters>
            <DistanceMeters>NAN</DistanceMeters>
          </Trackpoint>
          <Trackpoint>
            <Time>2021-07-18T05:00:35.000Z</Time>
            <Position>
              <LatitudeDegrees>42.72504486143589019775390625</LatitudeDegrees>
              <LongitudeDegrees>-0.20237677730619907379150390625</LongitudeDegrees>
            </Position>
            <AltitudeMeters>2423.199951171875</AltitudeMeters>
            <DistanceMeters>NAN</DistanceMeters>
          </Trackpoint>
          <Trackpoint>
            <Time>2021-07-18T05:00:37.000Z</Time>
            <Position>
              <LatitudeDegrees>42.7250456996262073516845703125</LatitudeDegrees>
              <LongitudeDegrees>-0.20238214172422885894775390625</LongitudeDegrees>
            </Position>
            <AltitudeMeters>2423.39990234375</AltitudeMeters>
            <DistanceMeters>NAN</DistanceMeters>
          </Trackpoint>
          <Trackpoint>
            <Time>2021-07-18T05:00:38.000Z</Time>
            <Position>
              <LatitudeDegrees>42.7250460349023342132568359375</LatitudeDegrees>
              <LongitudeDegrees>-0.202385075390338897705078125</LongitudeDegrees>
            </Position>
            <AltitudeMeters>2423.39990234375</AltitudeMeters>
            <DistanceMeters>NAN</DistanceMeters>
          </Trackpoint>
          <Trackpoint>
            <Time>2021-07-18T05:00:42.000Z</Time>
            <Position>
              <LatitudeDegrees>42.72504745982587337493896484375</LatitudeDegrees>
              <LongitudeDegrees>-0.20239857025444507598876953125</LongitudeDegrees>
            </Position>
            <AltitudeMeters>2423.800048828125</AltitudeMeters>
            <DistanceMeters>NAN</DistanceMeters>
          </Trackpoint>
          <Trackpoint>
            <Time>2021-07-18T05:00:51.000Z</Time>
            <Position>
              <LatitudeDegrees>42.72504930384457111358642578125</LatitudeDegrees>
              <LongitudeDegrees>-0.20243100821971893310546875</LongitudeDegrees>
            </Position>
            <AltitudeMeters>2425</AltitudeMeters>
            <DistanceMeters>NAN</DistanceMeters>
          </Trackpoint>
          <Trackpoint>
            <Time>2021-07-18T05:01:01.000Z</Time>
            <Position>
              <LatitudeDegrees>42.72505064494907855987548828125</LatitudeDegrees>
              <LongitudeDegrees>-0.20245783030986785888671875</LongitudeDegrees>
            </Position>
            <AltitudeMeters>2425.39990234375</AltitudeMeters>
            <DistanceMeters>NAN</DistanceMeters>
          </Trackpoint>
          <Trackpoint>
            <Time>2021-07-18T05:01:07.000Z</Time>
            <Position>
              <LatitudeDegrees>42.7250508964061737060546875</LatitudeDegrees>
              <LongitudeDegrees>-0.20246244035661220550537109375</LongitudeDegrees>
            </Position>
            <AltitudeMeters>2425.39990234375</AltitudeMeters>
            <DistanceMeters>NAN</DistanceMeters>
          </Trackpoint>
          <Trackpoint>
            <Time>2021-07-18T05:01:16.000Z</Time>
            <Position>
              <LatitudeDegrees>42.72505098022520542144775390625</LatitudeDegrees>
              <LongitudeDegrees>-0.20246378146111965179443359375</LongitudeDegrees>
            </Position>
            <AltitudeMeters>2425.39990234375</AltitudeMeters>
            <DistanceMeters>NAN</DistanceMeters>
          </Trackpoint>
          <Trackpoint>
            <Time>2021-07-18T05:01:19.000Z</Time>
            <Position>
              <LatitudeDegrees>42.7250510640442371368408203125</LatitudeDegrees>
              <LongitudeDegrees>-0.20246445201337337493896484375</LongitudeDegrees>
            </Position>
            <AltitudeMeters>2425.60009765625</AltitudeMeters>
            <DistanceMeters>NAN</DistanceMeters>
          </Trackpoint>
          <Trackpoint>
            <Time>2021-07-18T05:01:24.000Z</Time>
            <Position>
              <LatitudeDegrees>42.72504176013171672821044921875</LatitudeDegrees>
              <LongitudeDegrees>-0.20255170762538909912109375</LongitudeDegrees>
            </Position>
            <AltitudeMeters>2427.60009765625</AltitudeMeters>
            <DistanceMeters>NAN</DistanceMeters>
          </Trackpoint>
          <Trackpoint>
            <Time>2021-07-18T05:01:26.000Z</Time>
            <Position>
              <LatitudeDegrees>42.725036144256591796875</LatitudeDegrees>
              <LongitudeDegrees>-0.20261465571820735931396484375</LongitudeDegrees>
            </Position>
            <AltitudeMeters>2429</AltitudeMeters>
            <DistanceMeters>NAN</DistanceMeters>
          </Trackpoint>
          <Trackpoint>
            <Time>2021-07-18T05:01:27.000Z</Time>
            <Position>
              <LatitudeDegrees>42.72503723390400409698486328125</LatitudeDegrees>
              <LongitudeDegrees>-0.20264516584575176239013671875</LongitudeDegrees>
            </Position>
            <AltitudeMeters>2429.60009765625</AltitudeMeters>
            <DistanceMeters>NAN</DistanceMeters>
          </Trackpoint>
          <Trackpoint>
            <Time>2021-07-18T05:01:32.000Z</Time>
            <Position>
              <LatitudeDegrees>42.72504595108330249786376953125</LatitudeDegrees>
              <LongitudeDegrees>-0.202775336802005767822265625</LongitudeDegrees>
            </Position>
            <AltitudeMeters>2432.60009765625</AltitudeMeters>
            <DistanceMeters>NAN</DistanceMeters>
          </Trackpoint>
          <Trackpoint>
            <Time>2021-07-18T05:01:37.000Z</Time>
            <Position>
              <LatitudeDegrees>42.72504896856844425201416015625</LatitudeDegrees>
              <LongitudeDegrees>-0.20279788412153720855712890625</LongitudeDegrees>
            </Position>
            <AltitudeMeters>2433.199951171875</AltitudeMeters>
            <DistanceMeters>NAN</DistanceMeters>
          </Trackpoint>
          <Trackpoint>
            <Time>2021-07-18T05:01:48.000Z</Time>
            <Position>
              <LatitudeDegrees>42.7250688336789608001708984375</LatitudeDegrees>
              <LongitudeDegrees>-0.20282638259232044219970703125</LongitudeDegrees>
            </Position>
            <AltitudeMeters>2433.199951171875</AltitudeMeters>
            <DistanceMeters>NAN</DistanceMeters>
          </Trackpoint>
          <Trackpoint>
            <Time>2021-07-18T05:01:56.000Z</Time>
            <Position>
              <LatitudeDegrees>42.7250795625150203704833984375</LatitudeDegrees>
              <LongitudeDegrees>-0.2028687112033367156982421875</LongitudeDegrees>
            </Position>
            <AltitudeMeters>2434.800048828125</AltitudeMeters>
            <DistanceMeters>NAN</DistanceMeters>
          </Trackpoint>
          <Trackpoint>
            <Time>2021-07-18T05:02:03.000Z</Time>
            <Position>
              <LatitudeDegrees>42.72508618421852588653564453125</LatitudeDegrees>
              <LongitudeDegrees>-0.202899388968944549560546875</LongitudeDegrees>
            </Position>
            <AltitudeMeters>2435.800048828125</AltitudeMeters>
            <DistanceMeters>NAN</DistanceMeters>
          </Trackpoint>
          <Trackpoint>
            <Time>2021-07-18T05:02:09.000Z</Time>
            <Position>
              <LatitudeDegrees>42.7251171134412288665771484375</LatitudeDegrees>
              <LongitudeDegrees>-0.2028821222484111785888671875</LongitudeDegrees>
            </Position>
            <AltitudeMeters>2435.39990234375</AltitudeMeters>
            <DistanceMeters>NAN</DistanceMeters>
          </Trackpoint>
          <Trackpoint>
            <Time>2021-07-18T05:02:10.000Z</Time>
            <Position>
              <LatitudeDegrees>42.7251171134412288665771484375</LatitudeDegrees>
              <LongitudeDegrees>-0.2028821222484111785888671875</LongitudeDegrees>
            </Position>
            <AltitudeMeters>2435.39990234375</AltitudeMeters>
            <DistanceMeters>NAN</DistanceMeters>
          </Trackpoint>
          <Trackpoint>
            <Time>2021-07-18T05:02:11.000Z</Time>
            <Position>
              <LatitudeDegrees>42.7251171134412288665771484375</LatitudeDegrees>
              <LongitudeDegrees>-0.2028821222484111785888671875</LongitudeDegrees>
            </Position>
            <AltitudeMeters>2435.39990234375</AltitudeMeters>
            <DistanceMeters>NAN</DistanceMeters>
          </Trackpoint>
          <Trackpoint>
            <Time>2021-07-18T05:02:12.000Z</Time>
            <Position>
              <LatitudeDegrees>42.7251171134412288665771484375</LatitudeDegrees>
              <LongitudeDegrees>-0.2028821222484111785888671875</LongitudeDegrees>
            </Position>
            <AltitudeMeters>2435.39990234375</AltitudeMeters>
            <DistanceMeters>NAN</DistanceMeters>
          </Trackpoint>
          <Trackpoint>
            <Time>2021-07-18T05:02:13.000Z</Time>
            <Position>
              <LatitudeDegrees>42.7251171134412288665771484375</LatitudeDegrees>
              <LongitudeDegrees>-0.2028821222484111785888671875</LongitudeDegrees>
            </Position>
            <AltitudeMeters>2435.39990234375</AltitudeMeters>
            <DistanceMeters>NAN</DistanceMeters>
          </Trackpoint>
          <Trackpoint>
            <Time>2021-07-18T05:02:15.000Z</Time>
            <Position>
              <LatitudeDegrees>42.7251171134412288665771484375</LatitudeDegrees>
              <LongitudeDegrees>-0.2028821222484111785888671875</LongitudeDegrees>
            </Position>
            <AltitudeMeters>2435.39990234375</AltitudeMeters>
            <DistanceMeters>NAN</DistanceMeters>
          </Trackpoint>
          <Trackpoint>
            <Time>2021-07-18T05:02:24.000Z</Time>
            <Position>
              <LatitudeDegrees>42.7251147665083408355712890625</LatitudeDegrees>
              <LongitudeDegrees>-0.2028729021549224853515625</LongitudeDegrees>
            </Position>
            <AltitudeMeters>2435.199951171875</AltitudeMeters>
            <DistanceMeters>NAN</DistanceMeters>
          </Trackpoint>
          <Trackpoint>
            <Time>2021-07-18T05:02:30.000Z</Time>
            <Position>
              <LatitudeDegrees>42.7251171134412288665771484375</LatitudeDegrees>
              <LongitudeDegrees>-0.20287181250751018524169921875</LongitudeDegrees>
            </Position>
            <AltitudeMeters>2435.199951171875</AltitudeMeters>
            <DistanceMeters>NAN</DistanceMeters>
          </Trackpoint>
          <Trackpoint>
            <Time>2021-07-18T05:02:34.000Z</Time>
            <Position>
              <LatitudeDegrees>42.72512021474540233612060546875</LatitudeDegrees>
              <LongitudeDegrees>-0.20287181250751018524169921875</LongitudeDegrees>
            </Position>
            <AltitudeMeters>2435.199951171875</AltitudeMeters>
            <DistanceMeters>NAN</DistanceMeters>
          </Trackpoint>
          <Trackpoint>
            <Time>2021-07-18T05:02:46.000Z</Time>
            <Position>
              <LatitudeDegrees>42.7251214720308780670166015625</LatitudeDegrees>
              <LongitudeDegrees>-0.20288522355258464813232421875</LongitudeDegrees>
            </Position>
            <AltitudeMeters>2435.60009765625</AltitudeMeters>
            <DistanceMeters>NAN</DistanceMeters>
          </Trackpoint>
          <Trackpoint>
            <Time>2021-07-18T05:02:56.000Z</Time>
            <Position>
              <LatitudeDegrees>42.7251187898218631744384765625</LatitudeDegrees>
              <LongitudeDegrees>-0.20289461128413677215576171875</LongitudeDegrees>
            </Position>
            <AltitudeMeters>2435.800048828125</AltitudeMeters>
            <DistanceMeters>NAN</DistanceMeters>
          </Trackpoint>
          <Trackpoint>
            <Time>2021-07-18T05:03:00.000Z</Time>
            <Position>
              <LatitudeDegrees>42.7251184545457363128662109375</LatitudeDegrees>
              <LongitudeDegrees>-0.20291875116527080535888671875</LongitudeDegrees>
            </Position>
            <AltitudeMeters>2436.60009765625</AltitudeMeters>
            <DistanceMeters>NAN</DistanceMeters>
          </Trackpoint>
          <Trackpoint>
            <Time>2021-07-18T05:03:08.000Z</Time>
            <Position>
              <LatitudeDegrees>42.72511837072670459747314453125</LatitudeDegrees>
              <LongitudeDegrees>-0.2029292285442352294921875</LongitudeDegrees>
            </Position>
            <AltitudeMeters>2436.800048828125</AltitudeMeters>
            <DistanceMeters>NAN</DistanceMeters>
          </Trackpoint>
          <Trackpoint>
            <Time>2021-07-18T05:03:28.000Z</Time>
            <Position>
              <LatitudeDegrees>42.7251275070011615753173828125</LatitudeDegrees>
              <LongitudeDegrees>-0.20300776697695255279541015625</LongitudeDegrees>
            </Position>
            <AltitudeMeters>2439.39990234375</AltitudeMeters>
            <DistanceMeters>NAN</DistanceMeters>
          </Trackpoint>
          <Trackpoint>
            <Time>2021-07-18T05:03:31.000Z</Time>
            <Position>
              <LatitudeDegrees>42.725131027400493621826171875</LatitudeDegrees>
              <LongitudeDegrees>-0.20302905701100826263427734375</LongitudeDegrees>
            </Position>
            <AltitudeMeters>2440.39990234375</AltitudeMeters>
            <DistanceMeters>NAN</DistanceMeters>
          </Trackpoint>
          <Trackpoint>
            <Time>2021-07-18T05:03:33.000Z</Time>
            <Position>
              <LatitudeDegrees>42.72513295523822307586669921875</LatitudeDegrees>
              <LongitudeDegrees>-0.203042887151241302490234375</LongitudeDegrees>
            </Position>
            <AltitudeMeters>2441</AltitudeMeters>
            <DistanceMeters>NAN</DistanceMeters>
          </Trackpoint>
          <Trackpoint>
            <Time>2021-07-18T05:03:36.000Z</Time>
            <Position>
              <LatitudeDegrees>42.725136391818523406982421875</LatitudeDegrees>
              <LongitudeDegrees>-0.20306258462369441986083984375</LongitudeDegrees>
            </Position>
            <AltitudeMeters>2441.800048828125</AltitudeMeters>
            <DistanceMeters>NAN</DistanceMeters>
          </Trackpoint>
          <Trackpoint>
            <Time>2021-07-18T05:03:40.000Z</Time>
            <Position>
              <LatitudeDegrees>42.725164555013179779052734375</LatitudeDegrees>
              <LongitudeDegrees>-0.2031075954437255859375</LongitudeDegrees>
            </Position>
            <AltitudeMeters>2443.800048828125</AltitudeMeters>
            <DistanceMeters>NAN</DistanceMeters>
          </Trackpoint>
          <Trackpoint>
            <Time>2021-07-18T05:03:47.000Z</Time>
            <Position>
              <LatitudeDegrees>42.7251845039427280426025390625</LatitudeDegrees>
              <LongitudeDegrees>-0.20317154936492443084716796875</LongitudeDegrees>
            </Position>
            <AltitudeMeters>2446.199951171875</AltitudeMeters>
            <DistanceMeters>NAN</DistanceMeters>
          </Trackpoint>
          <Trackpoint>
            <Time>2021-07-18T05:03:53.000Z</Time>
            <Position>
              <LatitudeDegrees>42.72516748867928981781005859375</LatitudeDegrees>
              <LongitudeDegrees>-0.20316065289080142974853515625</LongitudeDegrees>
            </Position>
            <AltitudeMeters>2446</AltitudeMeters>
            <DistanceMeters>NAN</DistanceMeters>
          </Trackpoint>
          <Trackpoint>
            <Time>2021-07-18T05:03:58.000Z</Time>
            <Position>
              <LatitudeDegrees>42.72516748867928981781005859375</LatitudeDegrees>
              <LongitudeDegrees>-0.20316065289080142974853515625</LongitudeDegrees>
            </Position>
            <AltitudeMeters>2446</AltitudeMeters>
            <DistanceMeters>NAN</DistanceMeters>
          </Trackpoint>
          <Trackpoint>
            <Time>2021-07-18T05:04:02.000Z</Time>
            <Position>
              <LatitudeDegrees>42.7251724340021610260009765625</LatitudeDegrees>
              <LongitudeDegrees>-0.20316065289080142974853515625</LongitudeDegrees>
            </Position>
            <AltitudeMeters>2445.800048828125</AltitudeMeters>
            <DistanceMeters>NAN</DistanceMeters>
          </Trackpoint>
          <Trackpoint>
            <Time>2021-07-18T05:04:17.000Z</Time>
            <Position>
              <LatitudeDegrees>42.72518861107528209686279296875</LatitudeDegrees>
              <LongitudeDegrees>-0.2031463198363780975341796875</LongitudeDegrees>
            </Position>
            <AltitudeMeters>2445.199951171875</AltitudeMeters>
            <DistanceMeters>NAN</DistanceMeters>
          </Trackpoint>
          <Trackpoint>
            <Time>2021-07-18T05:04:35.000Z</Time>
            <Position>
              <LatitudeDegrees>42.72520319558680057525634765625</LatitudeDegrees>
              <LongitudeDegrees>-0.20315797068178653717041015625</LongitudeDegrees>
            </Position>
            <AltitudeMeters>2445.39990234375</AltitudeMeters>
            <DistanceMeters>NAN</DistanceMeters>
          </Trackpoint>
          <Trackpoint>
            <Time>2021-07-18T05:04:53.000Z</Time>
            <Position>
              <LatitudeDegrees>42.725242339074611663818359375</LatitudeDegrees>
              <LongitudeDegrees>-0.20323994569480419158935546875</LongitudeDegrees>
            </Position>
            <AltitudeMeters>2447.800048828125</AltitudeMeters>
            <DistanceMeters>NAN</DistanceMeters>
          </Trackpoint>
          <Trackpoint>
            <Time>2021-07-18T05:05:12.000Z</Time>
            <Position>
              <LatitudeDegrees>42.7252582646906375885009765625</LatitudeDegrees>
              <LongitudeDegrees>-0.20329962484538555145263671875</LongitudeDegrees>
            </Position>
            <AltitudeMeters>2451.800048828125</AltitudeMeters>
            <DistanceMeters>NAN</DistanceMeters>
          </Trackpoint>
          <Trackpoint>
            <Time>2021-07-18T05:05:17.000Z</Time>
            <Position>
              <LatitudeDegrees>42.72525818087160587310791015625</LatitudeDegrees>
              <LongitudeDegrees>-0.20332963205873966217041015625</LongitudeDegrees>
            </Position>
            <AltitudeMeters>2454.199951171875</AltitudeMeters>
            <DistanceMeters>NAN</DistanceMeters>
          </Trackpoint>
          <Trackpoint>
            <Time>2021-07-18T05:05:26.000Z</Time>
            <Position>
              <LatitudeDegrees>42.72525818087160587310791015625</LatitudeDegrees>
              <LongitudeDegrees>-0.20335695706307888031005859375</LongitudeDegrees>
            </Position>
            <AltitudeMeters>2455.60009765625</AltitudeMeters>
            <DistanceMeters>NAN</DistanceMeters>
          </Trackpoint>
          <Trackpoint>
            <Time>2021-07-18T05:05:41.000Z</Time>
            <Position>
              <LatitudeDegrees>42.725260443985462188720703125</LatitudeDegrees>
              <LongitudeDegrees>-0.20337606780230998992919921875</LongitudeDegrees>
            </Position>
            <AltitudeMeters>2456.60009765625</AltitudeMeters>
            <DistanceMeters>NAN</DistanceMeters>
          </Trackpoint>
          <Trackpoint>
            <Time>2021-07-18T05:05:59.000Z</Time>
            <Position>
              <LatitudeDegrees>42.72526052780449390411376953125</LatitudeDegrees>
              <LongitudeDegrees>-0.20343281328678131103515625</LongitudeDegrees>
            </Position>
            <AltitudeMeters>2459.60009765625</AltitudeMeters>
            <DistanceMeters>NAN</DistanceMeters>
          </Trackpoint>
          <Trackpoint>
            <Time>2021-07-18T05:06:30.000Z</Time>
            <Position>
              <LatitudeDegrees>42.72527745924890041351318359375</LatitudeDegrees>
              <LongitudeDegrees>-0.20354412496089935302734375</LongitudeDegrees>
            </Position>
            <AltitudeMeters>2464.800048828125</AltitudeMeters>
            <DistanceMeters>NAN</DistanceMeters>
          </Trackpoint>
          <Trackpoint>
            <Time>2021-07-18T05:06:56.000Z</Time>
            <Position>
              <LatitudeDegrees>42.72525298409163951873779296875</LatitudeDegrees>
              <LongitudeDegrees>-0.203604139387607574462890625</LongitudeDegrees>
            </Position>
            <AltitudeMeters>2467.800048828125</AltitudeMeters>
            <DistanceMeters>NAN</DistanceMeters>
          </Trackpoint>
          <Trackpoint>
            <Time>2021-07-18T05:07:21.000Z</Time>
            <Position>
              <LatitudeDegrees>42.7252592705190181732177734375</LatitudeDegrees>
              <LongitudeDegrees>-0.203651078045368194580078125</LongitudeDegrees>
            </Position>
            <AltitudeMeters>2470.199951171875</AltitudeMeters>
            <DistanceMeters>NAN</DistanceMeters>
          </Trackpoint>
          <Trackpoint>
            <Time>2021-07-18T05:07:26.000Z</Time>
            <Position>
              <LatitudeDegrees>42.725269831717014312744140625</LatitudeDegrees>
              <LongitudeDegrees>-0.20366457290947437286376953125</LongitudeDegrees>
            </Position>
            <AltitudeMeters>2470.800048828125</AltitudeMeters>
            <DistanceMeters>NAN</DistanceMeters>
          </Trackpoint>
          <Trackpoint>
            <Time>2021-07-18T05:07:29.000Z</Time>
            <Position>
              <LatitudeDegrees>42.7252730168402194976806640625</LatitudeDegrees>
              <LongitudeDegrees>-0.20367144607007503509521484375</LongitudeDegrees>
            </Position>
            <AltitudeMeters>2471.199951171875</AltitudeMeters>
            <DistanceMeters>NAN</DistanceMeters>
          </Trackpoint>
          <Trackpoint>
            <Time>2021-07-18T05:07:31.000Z</Time>
            <Position>
              <LatitudeDegrees>42.72527511231601238250732421875</LatitudeDegrees>
              <LongitudeDegrees>-0.203673206269741058349609375</LongitudeDegrees>
            </Position>
            <AltitudeMeters>2471.199951171875</AltitudeMeters>
            <DistanceMeters>NAN</DistanceMeters>
          </Trackpoint>
          <Trackpoint>
            <Time>2021-07-18T05:07:37.000Z</Time>
            <Position>
              <LatitudeDegrees>42.72527863271534442901611328125</LatitudeDegrees>
              <LongitudeDegrees>-0.2036743797361850738525390625</LongitudeDegrees>
            </Position>
            <AltitudeMeters>2471.199951171875</AltitudeMeters>
            <DistanceMeters>NAN</DistanceMeters>
          </Trackpoint>
          <Trackpoint>
            <Time>2021-07-18T05:08:10.000Z</Time>
            <Position>
              <LatitudeDegrees>42.72528550587594509124755859375</LatitudeDegrees>
              <LongitudeDegrees>-0.2037028782069683074951171875</LongitudeDegrees>
            </Position>
            <AltitudeMeters>2472.800048828125</AltitudeMeters>
            <DistanceMeters>NAN</DistanceMeters>
          </Trackpoint>
          <Trackpoint>
            <Time>2021-07-18T05:08:23.000Z</Time>
            <Position>
              <LatitudeDegrees>42.72529103793203830718994140625</LatitudeDegrees>
              <LongitudeDegrees>-0.2037105895578861236572265625</LongitudeDegrees>
            </Position>
            <AltitudeMeters>2473.199951171875</AltitudeMeters>
            <DistanceMeters>NAN</DistanceMeters>
          </Trackpoint>
          <Trackpoint>
            <Time>2021-07-18T05:08:29.000Z</Time>
            <Position>
              <LatitudeDegrees>42.72529271431267261505126953125</LatitudeDegrees>
              <LongitudeDegrees>-0.20372123457491397857666015625</LongitudeDegrees>
            </Position>
            <AltitudeMeters>2473.800048828125</AltitudeMeters>
            <DistanceMeters>NAN</DistanceMeters>
          </Trackpoint>
          <Trackpoint>
            <Time>2021-07-18T05:08:32.000Z</Time>
            <Position>
              <LatitudeDegrees>42.725293301045894622802734375</LatitudeDegrees>
              <LongitudeDegrees>-0.2037258446216583251953125</LongitudeDegrees>
            </Position>
            <AltitudeMeters>2474</AltitudeMeters>
            <DistanceMeters>NAN</DistanceMeters>
          </Trackpoint>
          <Trackpoint>
            <Time>2021-07-18T05:08:36.000Z</Time>
            <Position>
              <LatitudeDegrees>42.72529372014105319976806640625</LatitudeDegrees>
              <LongitudeDegrees>-0.20372894592583179473876953125</LongitudeDegrees>
            </Position>
            <AltitudeMeters>2474.199951171875</AltitudeMeters>
            <DistanceMeters>NAN</DistanceMeters>
          </Trackpoint>
          <Trackpoint>
            <Time>2021-07-18T05:09:14.000Z</Time>
            <Position>
              <LatitudeDegrees>42.7252941392362117767333984375</LatitudeDegrees>
              <LongitudeDegrees>-0.20373313687741756439208984375</LongitudeDegrees>
            </Position>
            <AltitudeMeters>2474.39990234375</AltitudeMeters>
            <DistanceMeters>NAN</DistanceMeters>
          </Trackpoint>
          <Trackpoint>
            <Time>2021-07-18T05:09:15.000Z</Time>
            <Position>
              <LatitudeDegrees>42.7252941392362117767333984375</LatitudeDegrees>
              <LongitudeDegrees>-0.20373330451548099517822265625</LongitudeDegrees>
            </Position>
            <AltitudeMeters>2474.39990234375</AltitudeMeters>
            <DistanceMeters>NAN</DistanceMeters>
          </Trackpoint>
          <Trackpoint>
            <Time>2021-07-18T05:10:32.000Z</Time>
            <Position>
              <LatitudeDegrees>42.725295312702655792236328125</LatitudeDegrees>
              <LongitudeDegrees>-0.20375811494886875152587890625</LongitudeDegrees>
            </Position>
            <AltitudeMeters>2475.800048828125</AltitudeMeters>
            <DistanceMeters>NAN</DistanceMeters>
          </Trackpoint>
          <Trackpoint>
            <Time>2021-07-18T05:10:37.000Z</Time>
            <Position>
              <LatitudeDegrees>42.72529556415975093841552734375</LatitudeDegrees>
              <LongitudeDegrees>-0.203760378062725067138671875</LongitudeDegrees>
            </Position>
            <AltitudeMeters>2476</AltitudeMeters>
            <DistanceMeters>NAN</DistanceMeters>
          </Trackpoint>
          <Trackpoint>
            <Time>2021-07-18T05:10:40.000Z</Time>
            <Position>
              <LatitudeDegrees>42.72529573179781436920166015625</LatitudeDegrees>
              <LongitudeDegrees>-0.20376180298626422882080078125</LongitudeDegrees>
            </Position>
            <AltitudeMeters>2476</AltitudeMeters>
            <DistanceMeters>NAN</DistanceMeters>
          </Trackpoint>
          <Trackpoint>
            <Time>2021-07-18T05:11:03.000Z</Time>
            <Position>
              <LatitudeDegrees>42.7253095619380474090576171875</LatitudeDegrees>
              <LongitudeDegrees>-0.20402633585035800933837890625</LongitudeDegrees>
            </Position>
            <AltitudeMeters>2484.800048828125</AltitudeMeters>
            <DistanceMeters>NAN</DistanceMeters>
          </Trackpoint>
          <Trackpoint>
            <Time>2021-07-18T05:11:06.000Z</Time>
            <Position>
              <LatitudeDegrees>42.72533428855240345001220703125</LatitudeDegrees>
              <LongitudeDegrees>-0.20418710075318813323974609375</LongitudeDegrees>
            </Position>
            <AltitudeMeters>2488</AltitudeMeters>
            <DistanceMeters>NAN</DistanceMeters>
          </Trackpoint>
          <Trackpoint>
            <Time>2021-07-18T05:11:08.000Z</Time>
            <Position>
              <LatitudeDegrees>42.72533847950398921966552734375</LatitudeDegrees>
              <LongitudeDegrees>-0.2043043635785579681396484375</LongitudeDegrees>
            </Position>
            <AltitudeMeters>2490</AltitudeMeters>
            <DistanceMeters>NAN</DistanceMeters>
          </Trackpoint>
          <Trackpoint>
            <Time>2021-07-18T05:11:11.000Z</Time>
            <Position>
              <LatitudeDegrees>42.72535004653036594390869140625</LatitudeDegrees>
              <LongitudeDegrees>-0.2043221332132816314697265625</LongitudeDegrees>
            </Position>
            <AltitudeMeters>2490.199951171875</AltitudeMeters>
            <DistanceMeters>NAN</DistanceMeters>
          </Trackpoint>
          <Trackpoint>
            <Time>2021-07-18T05:11:15.000Z</Time>
            <Position>
              <LatitudeDegrees>42.7253846637904644012451171875</LatitudeDegrees>
              <LongitudeDegrees>-0.20433948375284671783447265625</LongitudeDegrees>
            </Position>
            <AltitudeMeters>2490.199951171875</AltitudeMeters>
            <DistanceMeters>NAN</DistanceMeters>
          </Trackpoint>
          <Trackpoint>
            <Time>2021-07-18T05:11:22.000Z</Time>
            <Position>
              <LatitudeDegrees>42.7254373021423816680908203125</LatitudeDegrees>
              <LongitudeDegrees>-0.20437653176486492156982421875</LongitudeDegrees>
            </Position>
            <AltitudeMeters>2490.199951171875</AltitudeMeters>
            <DistanceMeters>NAN</DistanceMeters>
          </Trackpoint>
          <Trackpoint>
            <Time>2021-07-18T05:11:24.000Z</Time>
            <Position>
              <LatitudeDegrees>42.72543520666658878326416015625</LatitudeDegrees>
              <LongitudeDegrees>-0.2043928764760494232177734375</LongitudeDegrees>
            </Position>
            <AltitudeMeters>2490.60009765625</AltitudeMeters>
            <DistanceMeters>NAN</DistanceMeters>
          </Trackpoint>
          <Trackpoint>
            <Time>2021-07-18T05:11:31.000Z</Time>
            <Position>
              <LatitudeDegrees>42.725450210273265838623046875</LatitudeDegrees>
              <LongitudeDegrees>-0.20446202717721462249755859375</LongitudeDegrees>
            </Position>
            <AltitudeMeters>2492</AltitudeMeters>
            <DistanceMeters>NAN</DistanceMeters>
          </Trackpoint>
          <Trackpoint>
            <Time>2021-07-18T05:11:34.000Z</Time>
            <Position>
              <LatitudeDegrees>42.7254533953964710235595703125</LatitudeDegrees>
              <LongitudeDegrees>-0.2044803835451602935791015625</LongitudeDegrees>
            </Position>
            <AltitudeMeters>2492.39990234375</AltitudeMeters>
            <DistanceMeters>NAN</DistanceMeters>
          </Trackpoint>
          <Trackpoint>
            <Time>2021-07-18T05:11:37.000Z</Time>
            <Position>
              <LatitudeDegrees>42.72544878534972667694091796875</LatitudeDegrees>
              <LongitudeDegrees>-0.20449873991310596466064453125</LongitudeDegrees>
            </Position>
            <AltitudeMeters>2492.800048828125</AltitudeMeters>
            <DistanceMeters>NAN</DistanceMeters>
          </Trackpoint>
          <Trackpoint>
            <Time>2021-07-18T05:11:39.000Z</Time>
            <Position>
              <LatitudeDegrees>42.725448869168758392333984375</LatitudeDegrees>
              <LongitudeDegrees>-0.20450712181627750396728515625</LongitudeDegrees>
            </Position>
            <AltitudeMeters>2493</AltitudeMeters>
            <DistanceMeters>NAN</DistanceMeters>
          </Trackpoint>
          <Trackpoint>
            <Time>2021-07-18T05:11:41.000Z</Time>
            <Position>
              <LatitudeDegrees>42.72545079700648784637451171875</LatitudeDegrees>
              <LongitudeDegrees>-0.2045186050236225128173828125</LongitudeDegrees>
            </Position>
            <AltitudeMeters>2493.199951171875</AltitudeMeters>
            <DistanceMeters>NAN</DistanceMeters>
          </Trackpoint>
          <Trackpoint>
            <Time>2021-07-18T05:11:44.000Z</Time>
            <Position>
              <LatitudeDegrees>42.72545515559613704681396484375</LatitudeDegrees>
              <LongitudeDegrees>-0.20454232580959796905517578125</LongitudeDegrees>
            </Position>
            <AltitudeMeters>2493.800048828125</AltitudeMeters>
            <DistanceMeters>NAN</DistanceMeters>
          </Trackpoint>
          <Trackpoint>
            <Time>2021-07-18T05:11:46.000Z</Time>
            <Position>
              <LatitudeDegrees>42.72546554915606975555419921875</LatitudeDegrees>
              <LongitudeDegrees>-0.2045521326363086700439453125</LongitudeDegrees>
            </Position>
            <AltitudeMeters>2494</AltitudeMeters>
            <DistanceMeters>NAN</DistanceMeters>
          </Trackpoint>
          <Trackpoint>
            <Time>2021-07-18T05:11:49.000Z</Time>
            <Position>
              <LatitudeDegrees>42.72546873427927494049072265625</LatitudeDegrees>
              <LongitudeDegrees>-0.20457183010876178741455078125</LongitudeDegrees>
            </Position>
            <AltitudeMeters>2494.60009765625</AltitudeMeters>
            <DistanceMeters>NAN</DistanceMeters>
          </Trackpoint>
          <Trackpoint>
            <Time>2021-07-18T05:11:52.000Z</Time>
            <Position>
              <LatitudeDegrees>42.7254612743854522705078125</LatitudeDegrees>
              <LongitudeDegrees>-0.20459764637053012847900390625</LongitudeDegrees>
            </Position>
            <AltitudeMeters>2495.39990234375</AltitudeMeters>
            <DistanceMeters>NAN</DistanceMeters>
          </Trackpoint>
          <Trackpoint>
            <Time>2021-07-18T05:11:54.000Z</Time>
            <Position>
              <LatitudeDegrees>42.72545834071934223175048828125</LatitudeDegrees>
              <LongitudeDegrees>-0.20461340434849262237548828125</LongitudeDegrees>
            </Position>
            <AltitudeMeters>2495.800048828125</AltitudeMeters>
            <DistanceMeters>NAN</DistanceMeters>
          </Trackpoint>
          <Trackpoint>
            <Time>2021-07-18T05:11:55.000Z</Time>
            <Position>
              <LatitudeDegrees>42.72546370513737201690673828125</LatitudeDegrees>
              <LongitudeDegrees>-0.2046205289661884307861328125</LongitudeDegrees>
            </Position>
            <AltitudeMeters>2496</AltitudeMeters>
            <DistanceMeters>NAN</DistanceMeters>
          </Trackpoint>
          <Trackpoint>
            <Time>2021-07-18T05:11:57.000Z</Time>
            <Position>
              <LatitudeDegrees>42.72546487860381603240966796875</LatitudeDegrees>
              <LongitudeDegrees>-0.2046324312686920166015625</LongitudeDegrees>
            </Position>
            <AltitudeMeters>2496.39990234375</AltitudeMeters>
            <DistanceMeters>NAN</DistanceMeters>
          </Trackpoint>
          <Trackpoint>
            <Time>2021-07-18T05:12:00.000Z</Time>
            <Position>
              <LatitudeDegrees>42.72546730935573577880859375</LatitudeDegrees>
              <LongitudeDegrees>-0.2046406455338001251220703125</LongitudeDegrees>
            </Position>
            <AltitudeMeters>2496.60009765625</AltitudeMeters>
            <DistanceMeters>NAN</DistanceMeters>
          </Trackpoint>
          <Trackpoint>
            <Time>2021-07-18T05:12:02.000Z</Time>
            <Position>
              <LatitudeDegrees>42.72548315115272998809814453125</LatitudeDegrees>
              <LongitudeDegrees>-0.20464994944632053375244140625</LongitudeDegrees>
            </Position>
            <AltitudeMeters>2496.800048828125</AltitudeMeters>
            <DistanceMeters>NAN</DistanceMeters>
          </Trackpoint>
          <Trackpoint>
            <Time>2021-07-18T05:12:10.000Z</Time>
            <Position>
              <LatitudeDegrees>42.7254624478518962860107421875</LatitudeDegrees>
              <LongitudeDegrees>-0.20466922782361507415771484375</LongitudeDegrees>
            </Position>
            <AltitudeMeters>2497.199951171875</AltitudeMeters>
            <DistanceMeters>NAN</DistanceMeters>
          </Trackpoint>
          <Trackpoint>
            <Time>2021-07-18T05:12:33.000Z</Time>
            <Position>
              <LatitudeDegrees>42.72546621970832347869873046875</LatitudeDegrees>
              <LongitudeDegrees>-0.204672329127788543701171875</LongitudeDegrees>
            </Position>
            <AltitudeMeters>2497.39990234375</AltitudeMeters>
            <DistanceMeters>NAN</DistanceMeters>
          </Trackpoint>
          <Trackpoint>
            <Time>2021-07-18T05:12:35.000Z</Time>
            <Position>
              <LatitudeDegrees>42.72546621970832347869873046875</LatitudeDegrees>
              <LongitudeDegrees>-0.20467392168939113616943359375</LongitudeDegrees>
            </Position>
            <AltitudeMeters>2497.39990234375</AltitudeMeters>
            <DistanceMeters>NAN</DistanceMeters>
          </Trackpoint>
          <Trackpoint>
            <Time>2021-07-18T05:12:37.000Z</Time>
            <Position>
              <LatitudeDegrees>42.72546621970832347869873046875</LatitudeDegrees>
              <LongitudeDegrees>-0.20467408932745456695556640625</LongitudeDegrees>
            </Position>
            <AltitudeMeters>2497.39990234375</AltitudeMeters>
            <DistanceMeters>NAN</DistanceMeters>
          </Trackpoint>
          <Trackpoint>
            <Time>2021-07-18T05:12:43.000Z</Time>
            <Position>
              <LatitudeDegrees>42.7254701592028141021728515625</LatitudeDegrees>
              <LongitudeDegrees>-0.20467308349907398223876953125</LongitudeDegrees>
            </Position>
            <AltitudeMeters>2497.39990234375</AltitudeMeters>
            <DistanceMeters>NAN</DistanceMeters>
          </Trackpoint>
          <Trackpoint>
            <Time>2021-07-18T05:13:04.000Z</Time>
            <Position>
              <LatitudeDegrees>42.72549337707459926605224609375</LatitudeDegrees>
              <LongitudeDegrees>-0.2046688087284564971923828125</LongitudeDegrees>
            </Position>
            <AltitudeMeters>2497.199951171875</AltitudeMeters>
            <DistanceMeters>NAN</DistanceMeters>
          </Trackpoint>
          <Trackpoint>
            <Time>2021-07-18T05:13:06.000Z</Time>
            <Position>
              <LatitudeDegrees>42.7254936285316944122314453125</LatitudeDegrees>
              <LongitudeDegrees>-0.20466771908104419708251953125</LongitudeDegrees>
            </Position>
            <AltitudeMeters>2497.199951171875</AltitudeMeters>
            <DistanceMeters>NAN</DistanceMeters>
          </Trackpoint>
          <Trackpoint>
            <Time>2021-07-18T05:13:08.000Z</Time>
            <Position>
              <LatitudeDegrees>42.72549371235072612762451171875</LatitudeDegrees>
              <LongitudeDegrees>-0.2046671323478221893310546875</LongitudeDegrees>
            </Position>
            <AltitudeMeters>2497.199951171875</AltitudeMeters>
            <DistanceMeters>NAN</DistanceMeters>
          </Trackpoint>
          <Trackpoint>
            <Time>2021-07-18T05:13:12.000Z</Time>
            <Position>
              <LatitudeDegrees>42.72549371235072612762451171875</LatitudeDegrees>
              <LongitudeDegrees>-0.2046671323478221893310546875</LongitudeDegrees>
            </Position>
            <AltitudeMeters>2497.199951171875</AltitudeMeters>
            <DistanceMeters>NAN</DistanceMeters>
          </Trackpoint>
          <Trackpoint>
            <Time>2021-07-18T05:13:21.000Z</Time>
            <Position>
              <LatitudeDegrees>42.72548968903720378875732421875</LatitudeDegrees>
              <LongitudeDegrees>-0.20466721616685390472412109375</LongitudeDegrees>
            </Position>
            <AltitudeMeters>2497.199951171875</AltitudeMeters>
            <DistanceMeters>NAN</DistanceMeters>
          </Trackpoint>
          <Trackpoint>
            <Time>2021-07-18T05:13:48.000Z</Time>
            <Position>
              <LatitudeDegrees>42.72548465989530086517333984375</LatitudeDegrees>
              <LongitudeDegrees>-0.204787664115428924560546875</LongitudeDegrees>
            </Position>
            <AltitudeMeters>2500.199951171875</AltitudeMeters>
            <DistanceMeters>NAN</DistanceMeters>
          </Trackpoint>
          <Trackpoint>
            <Time>2021-07-18T05:13:55.000Z</Time>
            <Position>
              <LatitudeDegrees>42.7254919521510601043701171875</LatitudeDegrees>
              <LongitudeDegrees>-0.2048330940306186676025390625</LongitudeDegrees>
            </Position>
            <AltitudeMeters>2501.60009765625</AltitudeMeters>
            <DistanceMeters>NAN</DistanceMeters>
          </Trackpoint>
          <Trackpoint>
            <Time>2021-07-18T05:14:00.000Z</Time>
            <Position>
              <LatitudeDegrees>42.72549253888428211212158203125</LatitudeDegrees>
              <LongitudeDegrees>-0.20486419089138507843017578125</LongitudeDegrees>
            </Position>
            <AltitudeMeters>2502.39990234375</AltitudeMeters>
            <DistanceMeters>NAN</DistanceMeters>
          </Trackpoint>
          <Trackpoint>
            <Time>2021-07-18T05:14:14.000Z</Time>
            <Position>
              <LatitudeDegrees>42.72550175897777080535888671875</LatitudeDegrees>
              <LongitudeDegrees>-0.20494549535214900970458984375</LongitudeDegrees>
            </Position>
            <AltitudeMeters>2504.800048828125</AltitudeMeters>
            <DistanceMeters>NAN</DistanceMeters>
          </Trackpoint>
          <Trackpoint>
            <Time>2021-07-18T05:14:17.000Z</Time>
            <Position>
              <LatitudeDegrees>42.72550092078745365142822265625</LatitudeDegrees>
              <LongitudeDegrees>-0.20495706237852573394775390625</LongitudeDegrees>
            </Position>
            <AltitudeMeters>2505.199951171875</AltitudeMeters>
            <DistanceMeters>NAN</DistanceMeters>
          </Trackpoint>
          <Trackpoint>
            <Time>2021-07-18T05:14:22.000Z</Time>
            <Position>
              <LatitudeDegrees>42.7255006693303585052490234375</LatitudeDegrees>
              <LongitudeDegrees>-0.20498136989772319793701171875</LongitudeDegrees>
            </Position>
            <AltitudeMeters>2505.800048828125</AltitudeMeters>
            <DistanceMeters>NAN</DistanceMeters>
          </Trackpoint>
          <Trackpoint>
            <Time>2021-07-18T05:14:25.000Z</Time>
            <Position>
              <LatitudeDegrees>42.72550025023519992828369140625</LatitudeDegrees>
              <LongitudeDegrees>-0.20499779842793941497802734375</LongitudeDegrees>
            </Position>
            <AltitudeMeters>2506.199951171875</AltitudeMeters>
            <DistanceMeters>NAN</DistanceMeters>
          </Trackpoint>
          <Trackpoint>
            <Time>2021-07-18T05:14:30.000Z</Time>
            <Position>
              <LatitudeDegrees>42.725493796169757843017578125</LatitudeDegrees>
              <LongitudeDegrees>-0.20502026192843914031982421875</LongitudeDegrees>
            </Position>
            <AltitudeMeters>2507</AltitudeMeters>
            <DistanceMeters>NAN</DistanceMeters>
          </Trackpoint>
          <Trackpoint>
            <Time>2021-07-18T05:14:48.000Z</Time>
            <Position>
              <LatitudeDegrees>42.72548013366758823394775390625</LatitudeDegrees>
              <LongitudeDegrees>-0.20502679981291294097900390625</LongitudeDegrees>
            </Position>
            <AltitudeMeters>2507.199951171875</AltitudeMeters>
            <DistanceMeters>NAN</DistanceMeters>
          </Trackpoint>
          <Trackpoint>
            <Time>2021-07-18T05:14:53.000Z</Time>
            <Position>
              <LatitudeDegrees>42.72547828964889049530029296875</LatitudeDegrees>
              <LongitudeDegrees>-0.20502663217484951019287109375</LongitudeDegrees>
            </Position>
            <AltitudeMeters>2507.199951171875</AltitudeMeters>
            <DistanceMeters>NAN</DistanceMeters>
          </Trackpoint>
          <Trackpoint>
            <Time>2021-07-18T05:15:10.000Z</Time>
            <Position>
              <LatitudeDegrees>42.7254641242325305938720703125</LatitudeDegrees>
              <LongitudeDegrees>-0.20503199659287929534912109375</LongitudeDegrees>
            </Position>
            <AltitudeMeters>2507.199951171875</AltitudeMeters>
            <DistanceMeters>NAN</DistanceMeters>
          </Trackpoint>
          <Trackpoint>
            <Time>2021-07-18T05:15:13.000Z</Time>
            <Position>
              <LatitudeDegrees>42.72546504624187946319580078125</LatitudeDegrees>
              <LongitudeDegrees>-0.20503987558186054229736328125</LongitudeDegrees>
            </Position>
            <AltitudeMeters>2507.60009765625</AltitudeMeters>
            <DistanceMeters>NAN</DistanceMeters>
          </Trackpoint>
          <Trackpoint>
            <Time>2021-07-18T05:15:16.000Z</Time>
            <Position>
              <LatitudeDegrees>42.7254691533744335174560546875</LatitudeDegrees>
              <LongitudeDegrees>-0.20504775457084178924560546875</LongitudeDegrees>
            </Position>
            <AltitudeMeters>2507.800048828125</AltitudeMeters>
            <DistanceMeters>NAN</DistanceMeters>
          </Trackpoint>
          <Trackpoint>
            <Time>2021-07-18T05:15:18.000Z</Time>
            <Position>
              <LatitudeDegrees>42.72547191940248012542724609375</LatitudeDegrees>
              <LongitudeDegrees>-0.205053873360157012939453125</LongitudeDegrees>
            </Position>
            <AltitudeMeters>2508</AltitudeMeters>
            <DistanceMeters>NAN</DistanceMeters>
          </Trackpoint>
          <Trackpoint>
            <Time>2021-07-18T05:15:27.000Z</Time>
            <Position>
              <LatitudeDegrees>42.72555540315806865692138671875</LatitudeDegrees>
              <LongitudeDegrees>-0.2051693759858608245849609375</LongitudeDegrees>
            </Position>
            <AltitudeMeters>2512</AltitudeMeters>
            <DistanceMeters>NAN</DistanceMeters>
          </Trackpoint>
          <Trackpoint>
            <Time>2021-07-18T05:15:28.000Z</Time>
            <Position>
              <LatitudeDegrees>42.72556789219379425048828125</LatitudeDegrees>
              <LongitudeDegrees>-0.2051884867250919342041015625</LongitudeDegrees>
            </Position>
            <AltitudeMeters>2512.60009765625</AltitudeMeters>
            <DistanceMeters>NAN</DistanceMeters>
          </Trackpoint>
          <Trackpoint>
            <Time>2021-07-18T05:15:29.000Z</Time>
            <Position>
              <LatitudeDegrees>42.72557652555406093597412109375</LatitudeDegrees>
              <LongitudeDegrees>-0.2052091062068939208984375</LongitudeDegrees>
            </Position>
            <AltitudeMeters>2513.39990234375</AltitudeMeters>
            <DistanceMeters>NAN</DistanceMeters>
          </Trackpoint>
          <Trackpoint>
            <Time>2021-07-18T05:15:31.000Z</Time>
            <Position>
              <LatitudeDegrees>42.7255955524742603302001953125</LatitudeDegrees>
              <LongitudeDegrees>-0.20525495521724224090576171875</LongitudeDegrees>
            </Position>
            <AltitudeMeters>2514.800048828125</AltitudeMeters>
            <DistanceMeters>NAN</DistanceMeters>
          </Trackpoint>
          <Trackpoint>
            <Time>2021-07-18T05:15:36.000Z</Time>
            <Position>
              <LatitudeDegrees>42.725645340979099273681640625</LatitudeDegrees>
              <LongitudeDegrees>-0.20526065491139888763427734375</LongitudeDegrees>
            </Position>
            <AltitudeMeters>2514</AltitudeMeters>
            <DistanceMeters>NAN</DistanceMeters>
          </Trackpoint>
          <Trackpoint>
            <Time>2021-07-18T05:15:40.000Z</Time>
            <Position>
              <LatitudeDegrees>42.72567140869796276092529296875</LatitudeDegrees>
              <LongitudeDegrees>-0.2052733115851879119873046875</LongitudeDegrees>
            </Position>
            <AltitudeMeters>2513.60009765625</AltitudeMeters>
            <DistanceMeters>NAN</DistanceMeters>
          </Trackpoint>
          <Trackpoint>
            <Time>2021-07-18T05:15:43.000Z</Time>
            <Position>
              <LatitudeDegrees>42.7257014997303485870361328125</LatitudeDegrees>
              <LongitudeDegrees>-0.2052842080593109130859375</LongitudeDegrees>
            </Position>
            <AltitudeMeters>2513.199951171875</AltitudeMeters>
            <DistanceMeters>NAN</DistanceMeters>
          </Trackpoint>
          <Trackpoint>
            <Time>2021-07-18T05:15:48.000Z</Time>
            <Position>
              <LatitudeDegrees>42.72572773508727550506591796875</LatitudeDegrees>
              <LongitudeDegrees>-0.20529166795313358306884765625</LongitudeDegrees>
            </Position>
            <AltitudeMeters>2512.60009765625</AltitudeMeters>
            <DistanceMeters>NAN</DistanceMeters>
          </Trackpoint>
          <Trackpoint>
            <Time>2021-07-18T05:15:51.000Z</Time>
            <Position>
              <LatitudeDegrees>42.725726477801799774169921875</LatitudeDegrees>
              <LongitudeDegrees>-0.20529267378151416778564453125</LongitudeDegrees>
            </Position>
            <AltitudeMeters>2512.800048828125</AltitudeMeters>
            <DistanceMeters>NAN</DistanceMeters>
          </Trackpoint>
          <Trackpoint>
            <Time>2021-07-18T05:16:00.000Z</Time>
            <Position>
              <LatitudeDegrees>42.7257965505123138427734375</LatitudeDegrees>
              <LongitudeDegrees>-0.205293260514736175537109375</LongitudeDegrees>
            </Position>
            <AltitudeMeters>2511</AltitudeMeters>
            <DistanceMeters>NAN</DistanceMeters>
          </Trackpoint>
          <Trackpoint>
            <Time>2021-07-18T05:16:08.000Z</Time>
            <Position>
              <LatitudeDegrees>42.72584876976907253265380859375</LatitudeDegrees>
              <LongitudeDegrees>-0.2052922546863555908203125</LongitudeDegrees>
            </Position>
            <AltitudeMeters>2509.199951171875</AltitudeMeters>
            <DistanceMeters>NAN</DistanceMeters>
          </Trackpoint>
          <Trackpoint>
            <Time>2021-07-18T05:16:11.000Z</Time>
            <Position>
              <LatitudeDegrees>42.72584692575037479400634765625</LatitudeDegrees>
              <LongitudeDegrees>-0.20529334433376789093017578125</LongitudeDegrees>
            </Position>
            <AltitudeMeters>2509.39990234375</AltitudeMeters>
            <DistanceMeters>NAN</DistanceMeters>
          </Trackpoint>
          <Trackpoint>
            <Time>2021-07-18T05:16:15.000Z</Time>
            <Position>
              <LatitudeDegrees>42.72586553357541561126708984375</LatitudeDegrees>
              <LongitudeDegrees>-0.20529426634311676025390625</LongitudeDegrees>
            </Position>
            <AltitudeMeters>2508.800048828125</AltitudeMeters>
            <DistanceMeters>NAN</DistanceMeters>
          </Trackpoint>
          <Trackpoint>
            <Time>2021-07-18T05:16:22.000Z</Time>
            <Position>
              <LatitudeDegrees>42.7258795313537120819091796875</LatitudeDegrees>
              <LongitudeDegrees>-0.20529200322926044464111328125</LongitudeDegrees>
            </Position>
            <AltitudeMeters>2508.199951171875</AltitudeMeters>
            <DistanceMeters>NAN</DistanceMeters>
          </Trackpoint>
          <Trackpoint>
            <Time>2021-07-18T05:16:27.000Z</Time>
            <Position>
              <LatitudeDegrees>42.72589352913200855255126953125</LatitudeDegrees>
              <LongitudeDegrees>-0.20529694855213165283203125</LongitudeDegrees>
            </Position>
            <AltitudeMeters>2508</AltitudeMeters>
            <DistanceMeters>NAN</DistanceMeters>
          </Trackpoint>
          <Trackpoint>
            <Time>2021-07-18T05:16:35.000Z</Time>
            <Position>
              <LatitudeDegrees>42.72590559907257556915283203125</LatitudeDegrees>
              <LongitudeDegrees>-0.205324105918407440185546875</LongitudeDegrees>
            </Position>
            <AltitudeMeters>2508.199951171875</AltitudeMeters>
            <DistanceMeters>NAN</DistanceMeters>
          </Trackpoint>
          <Trackpoint>
            <Time>2021-07-18T05:16:45.000Z</Time>
            <Position>
              <LatitudeDegrees>42.72594449110329151153564453125</LatitudeDegrees>
              <LongitudeDegrees>-0.20531840622425079345703125</LongitudeDegrees>
            </Position>
            <AltitudeMeters>2507.60009765625</AltitudeMeters>
            <DistanceMeters>NAN</DistanceMeters>
          </Trackpoint>
          <Trackpoint>
            <Time>2021-07-18T05:16:53.000Z</Time>
            <Position>
              <LatitudeDegrees>42.725947760045528411865234375</LatitudeDegrees>
              <LongitudeDegrees>-0.20529854111373424530029296875</LongitudeDegrees>
            </Position>
            <AltitudeMeters>2507.199951171875</AltitudeMeters>
            <DistanceMeters>NAN</DistanceMeters>
          </Trackpoint>
          <Trackpoint>
            <Time>2021-07-18T05:17:13.000Z</Time>
            <Position>
              <LatitudeDegrees>42.72596611641347408294677734375</LatitudeDegrees>
              <LongitudeDegrees>-0.205298624932765960693359375</LongitudeDegrees>
            </Position>
            <AltitudeMeters>2507</AltitudeMeters>
            <DistanceMeters>NAN</DistanceMeters>
          </Trackpoint>
          <Trackpoint>
            <Time>2021-07-18T05:17:54.000Z</Time>
            <Position>
              <LatitudeDegrees>42.72606736980378627777099609375</LatitudeDegrees>
              <LongitudeDegrees>-0.2053598128259181976318359375</LongitudeDegrees>
            </Position>
            <AltitudeMeters>2505.800048828125</AltitudeMeters>
            <DistanceMeters>NAN</DistanceMeters>
          </Trackpoint>
          <Trackpoint>
            <Time>2021-07-18T05:18:03.000Z</Time>
            <Position>
              <LatitudeDegrees>42.7260723151266574859619140625</LatitudeDegrees>
              <LongitudeDegrees>-0.20535989664494991302490234375</LongitudeDegrees>
            </Position>
            <AltitudeMeters>2505.800048828125</AltitudeMeters>
            <DistanceMeters>NAN</DistanceMeters>
          </Trackpoint>
          <Trackpoint>
            <Time>2021-07-18T05:18:06.000Z</Time>
            <Position>
              <LatitudeDegrees>42.72607524879276752471923828125</LatitudeDegrees>
              <LongitudeDegrees>-0.2053601481020450592041015625</LongitudeDegrees>
            </Position>
            <AltitudeMeters>2505.60009765625</AltitudeMeters>
            <DistanceMeters>NAN</DistanceMeters>
          </Trackpoint>
          <Trackpoint>
            <Time>2021-07-18T05:18:09.000Z</Time>
            <Position>
              <LatitudeDegrees>42.7260786853730678558349609375</LatitudeDegrees>
              <LongitudeDegrees>-0.20536174066364765167236328125</LongitudeDegrees>
            </Position>
            <AltitudeMeters>2505.39990234375</AltitudeMeters>
            <DistanceMeters>NAN</DistanceMeters>
          </Trackpoint>
          <Trackpoint>
            <Time>2021-07-18T05:18:17.000Z</Time>
            <Position>
              <LatitudeDegrees>42.72609570063650608062744140625</LatitudeDegrees>
              <LongitudeDegrees>-0.2053621597588062286376953125</LongitudeDegrees>
            </Position>
            <AltitudeMeters>2505</AltitudeMeters>
            <DistanceMeters>NAN</DistanceMeters>
          </Trackpoint>
          <Trackpoint>
            <Time>2021-07-18T05:18:19.000Z</Time>
            <Position>
              <LatitudeDegrees>42.72609603591263294219970703125</LatitudeDegrees>
              <LongitudeDegrees>-0.2053621597588062286376953125</LongitudeDegrees>
            </Position>
            <AltitudeMeters>2505</AltitudeMeters>
            <DistanceMeters>NAN</DistanceMeters>
          </Trackpoint>
          <Trackpoint>
            <Time>2021-07-18T05:18:21.000Z</Time>
            <Position>
              <LatitudeDegrees>42.7260961197316646575927734375</LatitudeDegrees>
              <LongitudeDegrees>-0.2053621597588062286376953125</LongitudeDegrees>
            </Position>
            <AltitudeMeters>2505</AltitudeMeters>
            <DistanceMeters>NAN</DistanceMeters>
          </Trackpoint>
          <Trackpoint>
            <Time>2021-07-18T05:18:24.000Z</Time>
            <Position>
              <LatitudeDegrees>42.72609620355069637298583984375</LatitudeDegrees>
              <LongitudeDegrees>-0.205360986292362213134765625</LongitudeDegrees>
            </Position>
            <AltitudeMeters>2505</AltitudeMeters>
            <DistanceMeters>NAN</DistanceMeters>
          </Trackpoint>
          <Trackpoint>
            <Time>2021-07-18T05:18:31.000Z</Time>
            <Position>
              <LatitudeDegrees>42.72609787993133068084716796875</LatitudeDegrees>
              <LongitudeDegrees>-0.2053430490195751190185546875</LongitudeDegrees>
            </Position>
            <AltitudeMeters>2505</AltitudeMeters>
            <DistanceMeters>NAN</DistanceMeters>
          </Trackpoint>
          <Trackpoint>
            <Time>2021-07-18T05:18:34.000Z</Time>
            <Position>
              <LatitudeDegrees>42.72609821520745754241943359375</LatitudeDegrees>
              <LongitudeDegrees>-0.20534279756247997283935546875</LongitudeDegrees>
            </Position>
            <AltitudeMeters>2505</AltitudeMeters>
            <DistanceMeters>NAN</DistanceMeters>
          </Trackpoint>
          <Trackpoint>
            <Time>2021-07-18T05:18:43.000Z</Time>
            <Position>
              <LatitudeDegrees>42.726109363138675689697265625</LatitudeDegrees>
              <LongitudeDegrees>-0.20534254610538482666015625</LongitudeDegrees>
            </Position>
            <AltitudeMeters>2504.60009765625</AltitudeMeters>
            <DistanceMeters>NAN</DistanceMeters>
          </Trackpoint>
          <Trackpoint>
            <Time>2021-07-18T05:18:45.000Z</Time>
            <Position>
              <LatitudeDegrees>42.72611196152865886688232421875</LatitudeDegrees>
              <LongitudeDegrees>-0.2053432166576385498046875</LongitudeDegrees>
            </Position>
            <AltitudeMeters>2504.39990234375</AltitudeMeters>
            <DistanceMeters>NAN</DistanceMeters>
          </Trackpoint>
          <Trackpoint>
            <Time>2021-07-18T05:18:52.000Z</Time>
            <Position>
              <LatitudeDegrees>42.72611598484218120574951171875</LatitudeDegrees>
              <LongitudeDegrees>-0.205347575247287750244140625</LongitudeDegrees>
            </Position>
            <AltitudeMeters>2504.39990234375</AltitudeMeters>
            <DistanceMeters>NAN</DistanceMeters>
          </Trackpoint>
          <Trackpoint>
            <Time>2021-07-18T05:19:00.000Z</Time>
            <Position>
              <LatitudeDegrees>42.7261152304708957672119140625</LatitudeDegrees>
              <LongitudeDegrees>-0.20537548698484897613525390625</LongitudeDegrees>
            </Position>
            <AltitudeMeters>2504.199951171875</AltitudeMeters>
            <DistanceMeters>NAN</DistanceMeters>
          </Trackpoint>
          <Trackpoint>
            <Time>2021-07-18T05:19:02.000Z</Time>
            <Position>
              <LatitudeDegrees>42.72611430846154689788818359375</LatitudeDegrees>
              <LongitudeDegrees>-0.20538588054478168487548828125</LongitudeDegrees>
            </Position>
            <AltitudeMeters>2504.199951171875</AltitudeMeters>
            <DistanceMeters>NAN</DistanceMeters>
          </Trackpoint>
          <Trackpoint>
            <Time>2021-07-18T05:19:05.000Z</Time>
            <Position>
              <LatitudeDegrees>42.7261132188141345977783203125</LatitudeDegrees>
              <LongitudeDegrees>-0.20539753139019012451171875</LongitudeDegrees>
            </Position>
            <AltitudeMeters>2504.199951171875</AltitudeMeters>
            <DistanceMeters>NAN</DistanceMeters>
          </Trackpoint>
          <Trackpoint>
            <Time>2021-07-18T05:19:13.000Z</Time>
            <Position>
              <LatitudeDegrees>42.72610341198742389678955078125</LatitudeDegrees>
              <LongitudeDegrees>-0.20542879588901996612548828125</LongitudeDegrees>
            </Position>
            <AltitudeMeters>2504.39990234375</AltitudeMeters>
            <DistanceMeters>NAN</DistanceMeters>
          </Trackpoint>
          <Trackpoint>
            <Time>2021-07-18T05:19:18.000Z</Time>
            <Position>
              <LatitudeDegrees>42.72608463652431964874267578125</LatitudeDegrees>
              <LongitudeDegrees>-0.20543583668768405914306640625</LongitudeDegrees>
            </Position>
            <AltitudeMeters>2505</AltitudeMeters>
            <DistanceMeters>NAN</DistanceMeters>
          </Trackpoint>
          <Trackpoint>
            <Time>2021-07-18T05:19:21.000Z</Time>
            <Position>
              <LatitudeDegrees>42.72607139311730861663818359375</LatitudeDegrees>
              <LongitudeDegrees>-0.205437429249286651611328125</LongitudeDegrees>
            </Position>
            <AltitudeMeters>2505.39990234375</AltitudeMeters>
            <DistanceMeters>NAN</DistanceMeters>
          </Trackpoint>
          <Trackpoint>
            <Time>2021-07-18T05:19:41.000Z</Time>
            <Position>
              <LatitudeDegrees>42.72605043835937976837158203125</LatitudeDegrees>
              <LongitudeDegrees>-0.20549249835312366485595703125</LongitudeDegrees>
            </Position>
            <AltitudeMeters>2506.199951171875</AltitudeMeters>
            <DistanceMeters>NAN</DistanceMeters>
          </Trackpoint>
          <Trackpoint>
            <Time>2021-07-18T05:19:53.000Z</Time>
            <Position>
              <LatitudeDegrees>42.72605127654969692230224609375</LatitudeDegrees>
              <LongitudeDegrees>-0.20550708286464214324951171875</LongitudeDegrees>
            </Position>
            <AltitudeMeters>2506.39990234375</AltitudeMeters>
            <DistanceMeters>NAN</DistanceMeters>
          </Trackpoint>
          <Trackpoint>
            <Time>2021-07-18T05:19:57.000Z</Time>
            <Position>
              <LatitudeDegrees>42.7260515280067920684814453125</LatitudeDegrees>
              <LongitudeDegrees>-0.20551043562591075897216796875</LongitudeDegrees>
            </Position>
            <AltitudeMeters>2506.39990234375</AltitudeMeters>
            <DistanceMeters>NAN</DistanceMeters>
          </Trackpoint>
          <Trackpoint>
            <Time>2021-07-18T05:20:06.000Z</Time>
            <Position>
              <LatitudeDegrees>42.72605496458709239959716796875</LatitudeDegrees>
              <LongitudeDegrees>-0.2055177278816699981689453125</LongitudeDegrees>
            </Position>
            <AltitudeMeters>2506.39990234375</AltitudeMeters>
            <DistanceMeters>NAN</DistanceMeters>
          </Trackpoint>
          <Trackpoint>
            <Time>2021-07-18T05:20:36.000Z</Time>
            <Position>
              <LatitudeDegrees>42.72605764679610729217529296875</LatitudeDegrees>
              <LongitudeDegrees>-0.20552619360387325286865234375</LongitudeDegrees>
            </Position>
            <AltitudeMeters>2506.39990234375</AltitudeMeters>
            <DistanceMeters>NAN</DistanceMeters>
          </Trackpoint>
          <Trackpoint>
            <Time>2021-07-18T05:20:38.000Z</Time>
            <Position>
              <LatitudeDegrees>42.726057730615139007568359375</LatitudeDegrees>
              <LongitudeDegrees>-0.20552652888000011444091796875</LongitudeDegrees>
            </Position>
            <AltitudeMeters>2506.39990234375</AltitudeMeters>
            <DistanceMeters>NAN</DistanceMeters>
          </Trackpoint>
          <Trackpoint>
            <Time>2021-07-18T05:20:41.000Z</Time>
            <Position>
              <LatitudeDegrees>42.726057730615139007568359375</LatitudeDegrees>
              <LongitudeDegrees>-0.20552694797515869140625</LongitudeDegrees>
            </Position>
            <AltitudeMeters>2506.39990234375</AltitudeMeters>
            <DistanceMeters>NAN</DistanceMeters>
          </Trackpoint>
          <Trackpoint>
            <Time>2021-07-18T05:20:58.000Z</Time>
            <Position>
              <LatitudeDegrees>42.726020179688930511474609375</LatitudeDegrees>
              <LongitudeDegrees>-0.2056012116372585296630859375</LongitudeDegrees>
            </Position>
            <AltitudeMeters>2508.39990234375</AltitudeMeters>
            <DistanceMeters>NAN</DistanceMeters>
          </Trackpoint>
          <Trackpoint>
            <Time>2021-07-18T05:21:01.000Z</Time>
            <Position>
              <LatitudeDegrees>42.72599243558943271636962890625</LatitudeDegrees>
              <LongitudeDegrees>-0.20566130988299846649169921875</LongitudeDegrees>
            </Position>
            <AltitudeMeters>2509.800048828125</AltitudeMeters>
            <DistanceMeters>NAN</DistanceMeters>
          </Trackpoint>
          <Trackpoint>
            <Time>2021-07-18T05:21:05.000Z</Time>
            <Position>
              <LatitudeDegrees>42.72595773451030254364013671875</LatitudeDegrees>
              <LongitudeDegrees>-0.20572341978549957275390625</LongitudeDegrees>
            </Position>
            <AltitudeMeters>2511.199951171875</AltitudeMeters>
            <DistanceMeters>NAN</DistanceMeters>
          </Trackpoint>
          <Trackpoint>
            <Time>2021-07-18T05:21:09.000Z</Time>
            <Position>
              <LatitudeDegrees>42.72593803703784942626953125</LatitudeDegrees>
              <LongitudeDegrees>-0.20572970621287822723388671875</LongitudeDegrees>
            </Position>
            <AltitudeMeters>2512.199951171875</AltitudeMeters>
            <DistanceMeters>NAN</DistanceMeters>
          </Trackpoint>
          <Trackpoint>
            <Time>2021-07-18T05:21:10.000Z</Time>
            <Position>
              <LatitudeDegrees>42.7259314991533756256103515625</LatitudeDegrees>
              <LongitudeDegrees>-0.20573171786963939666748046875</LongitudeDegrees>
            </Position>
            <AltitudeMeters>2512.39990234375</AltitudeMeters>
            <DistanceMeters>NAN</DistanceMeters>
          </Trackpoint>
          <Trackpoint>
            <Time>2021-07-18T05:21:18.000Z</Time>
            <Position>
              <LatitudeDegrees>42.72587743587791919708251953125</LatitudeDegrees>
              <LongitudeDegrees>-0.205761976540088653564453125</LongitudeDegrees>
            </Position>
            <AltitudeMeters>2514.800048828125</AltitudeMeters>
            <DistanceMeters>NAN</DistanceMeters>
          </Trackpoint>
          <Trackpoint>
            <Time>2021-07-18T05:21:19.000Z</Time>
            <Position>
              <LatitudeDegrees>42.7258667908608913421630859375</LatitudeDegrees>
              <LongitudeDegrees>-0.20576658658683300018310546875</LongitudeDegrees>
            </Position>
            <AltitudeMeters>2515.39990234375</AltitudeMeters>
            <DistanceMeters>NAN</DistanceMeters>
          </Trackpoint>
          <Trackpoint>
            <Time>2021-07-18T05:21:24.000Z</Time>
            <Position>
              <LatitudeDegrees>42.72582630626857280731201171875</LatitudeDegrees>
              <LongitudeDegrees>-0.20579692907631397247314453125</LongitudeDegrees>
            </Position>
            <AltitudeMeters>2517.39990234375</AltitudeMeters>
            <DistanceMeters>NAN</DistanceMeters>
          </Trackpoint>
          <Trackpoint>
            <Time>2021-07-18T05:21:29.000Z</Time>
            <Position>
              <LatitudeDegrees>42.7258010767400264739990234375</LatitudeDegrees>
              <LongitudeDegrees>-0.2058362402021884918212890625</LongitudeDegrees>
            </Position>
            <AltitudeMeters>2518.800048828125</AltitudeMeters>
            <DistanceMeters>NAN</DistanceMeters>
          </Trackpoint>
          <Trackpoint>
            <Time>2021-07-18T05:21:30.000Z</Time>
            <Position>
              <LatitudeDegrees>42.72579378448426723480224609375</LatitudeDegrees>
              <LongitudeDegrees>-0.20584336481988430023193359375</LongitudeDegrees>
            </Position>
            <AltitudeMeters>2519</AltitudeMeters>
            <DistanceMeters>NAN</DistanceMeters>
          </Trackpoint>
          <Trackpoint>
            <Time>2021-07-18T05:21:34.000Z</Time>
            <Position>
              <LatitudeDegrees>42.72577031515538692474365234375</LatitudeDegrees>
              <LongitudeDegrees>-0.20586918108165264129638671875</LongitudeDegrees>
            </Position>
            <AltitudeMeters>2520.199951171875</AltitudeMeters>
            <DistanceMeters>NAN</DistanceMeters>
          </Trackpoint>
          <Trackpoint>
            <Time>2021-07-18T05:21:39.000Z</Time>
            <Position>
              <LatitudeDegrees>42.7257467620074748992919921875</LatitudeDegrees>
              <LongitudeDegrees>-0.20589482970535755157470703125</LongitudeDegrees>
            </Position>
            <AltitudeMeters>2521.39990234375</AltitudeMeters>
            <DistanceMeters>NAN</DistanceMeters>
          </Trackpoint>
          <Trackpoint>
            <Time>2021-07-18T05:21:44.000Z</Time>
            <Position>
              <LatitudeDegrees>42.72571851499378681182861328125</LatitudeDegrees>
              <LongitudeDegrees>-0.20592433400452136993408203125</LongitudeDegrees>
            </Position>
            <AltitudeMeters>2523</AltitudeMeters>
            <DistanceMeters>NAN</DistanceMeters>
          </Trackpoint>
          <Trackpoint>
            <Time>2021-07-18T05:21:46.000Z</Time>
            <Position>
              <LatitudeDegrees>42.72570929490029811859130859375</LatitudeDegrees>
              <LongitudeDegrees>-0.20592835731804370880126953125</LongitudeDegrees>
            </Position>
            <AltitudeMeters>2523.39990234375</AltitudeMeters>
            <DistanceMeters>NAN</DistanceMeters>
          </Trackpoint>
          <Trackpoint>
            <Time>2021-07-18T05:21:47.000Z</Time>
            <Position>
              <LatitudeDegrees>42.72570426575839519500732421875</LatitudeDegrees>
              <LongitudeDegrees>-0.20593204535543918609619140625</LongitudeDegrees>
            </Position>
            <AltitudeMeters>2523.60009765625</AltitudeMeters>
            <DistanceMeters>NAN</DistanceMeters>
          </Trackpoint>
          <Trackpoint>
            <Time>2021-07-18T05:21:49.000Z</Time>
            <Position>
              <LatitudeDegrees>42.72570200264453887939453125</LatitudeDegrees>
              <LongitudeDegrees>-0.20593774504959583282470703125</LongitudeDegrees>
            </Position>
            <AltitudeMeters>2523.800048828125</AltitudeMeters>
            <DistanceMeters>NAN</DistanceMeters>
          </Trackpoint>
          <Trackpoint>
            <Time>2021-07-18T05:21:52.000Z</Time>
            <Position>
              <LatitudeDegrees>42.72570141591131687164306640625</LatitudeDegrees>
              <LongitudeDegrees>-0.20594797097146511077880859375</LongitudeDegrees>
            </Position>
            <AltitudeMeters>2523.800048828125</AltitudeMeters>
            <DistanceMeters>NAN</DistanceMeters>
          </Trackpoint>
          <Trackpoint>
            <Time>2021-07-18T05:21:56.000Z</Time>
            <Position>
              <LatitudeDegrees>42.725685574114322662353515625</LatitudeDegrees>
              <LongitudeDegrees>-0.20596607588231563568115234375</LongitudeDegrees>
            </Position>
            <AltitudeMeters>2524.60009765625</AltitudeMeters>
            <DistanceMeters>NAN</DistanceMeters>
          </Trackpoint>
          <Trackpoint>
            <Time>2021-07-18T05:22:02.000Z</Time>
            <Position>
              <LatitudeDegrees>42.72569236345589160919189453125</LatitudeDegrees>
              <LongitudeDegrees>-0.2059867791831493377685546875</LongitudeDegrees>
            </Position>
            <AltitudeMeters>2524.199951171875</AltitudeMeters>
            <DistanceMeters>NAN</DistanceMeters>
          </Trackpoint>
          <Trackpoint>
            <Time>2021-07-18T05:22:03.000Z</Time>
            <Position>
              <LatitudeDegrees>42.725689597427845001220703125</LatitudeDegrees>
              <LongitudeDegrees>-0.2059869468212127685546875</LongitudeDegrees>
            </Position>
            <AltitudeMeters>2524.39990234375</AltitudeMeters>
            <DistanceMeters>NAN</DistanceMeters>
          </Trackpoint>
          <Trackpoint>
            <Time>2021-07-18T05:22:09.000Z</Time>
            <Position>
              <LatitudeDegrees>42.72567559964954853057861328125</LatitudeDegrees>
              <LongitudeDegrees>-0.20598133094608783721923828125</LongitudeDegrees>
            </Position>
            <AltitudeMeters>2525.199951171875</AltitudeMeters>
            <DistanceMeters>NAN</DistanceMeters>
          </Trackpoint>
          <Trackpoint>
            <Time>2021-07-18T05:22:12.000Z</Time>
            <Position>
              <LatitudeDegrees>42.72569035179913043975830078125</LatitudeDegrees>
              <LongitudeDegrees>-0.2059844322502613067626953125</LongitudeDegrees>
            </Position>
            <AltitudeMeters>2524.39990234375</AltitudeMeters>
            <DistanceMeters>NAN</DistanceMeters>
          </Trackpoint>
          <Trackpoint>
            <Time>2021-07-18T05:22:15.000Z</Time>
            <Position>
              <LatitudeDegrees>42.72569035179913043975830078125</LatitudeDegrees>
              <LongitudeDegrees>-0.2059844322502613067626953125</LongitudeDegrees>
            </Position>
            <AltitudeMeters>2524.39990234375</AltitudeMeters>
            <DistanceMeters>NAN</DistanceMeters>
          </Trackpoint>
          <Trackpoint>
            <Time>2021-07-18T05:22:23.000Z</Time>
            <Position>
              <LatitudeDegrees>42.72569035179913043975830078125</LatitudeDegrees>
              <LongitudeDegrees>-0.2059844322502613067626953125</LongitudeDegrees>
            </Position>
            <AltitudeMeters>2524.39990234375</AltitudeMeters>
            <DistanceMeters>NAN</DistanceMeters>
          </Trackpoint>
          <Trackpoint>
            <Time>2021-07-18T05:22:43.000Z</Time>
            <Position>
              <LatitudeDegrees>42.7256696484982967376708984375</LatitudeDegrees>
              <LongitudeDegrees>-0.20593321882188320159912109375</LongitudeDegrees>
            </Position>
            <AltitudeMeters>2525</AltitudeMeters>
            <DistanceMeters>NAN</DistanceMeters>
          </Trackpoint>
          <Trackpoint>
            <Time>2021-07-18T05:23:04.000Z</Time>
            <Position>
              <LatitudeDegrees>42.7256116457283496856689453125</LatitudeDegrees>
              <LongitudeDegrees>-0.2058811672031879425048828125</LongitudeDegrees>
            </Position>
            <AltitudeMeters>2527.39990234375</AltitudeMeters>
            <DistanceMeters>NAN</DistanceMeters>
          </Trackpoint>
          <Trackpoint>
            <Time>2021-07-18T05:23:07.000Z</Time>
            <Position>
              <LatitudeDegrees>42.72560234181582927703857421875</LatitudeDegrees>
              <LongitudeDegrees>-0.2058716118335723876953125</LongitudeDegrees>
            </Position>
            <AltitudeMeters>2528.199951171875</AltitudeMeters>
            <DistanceMeters>NAN</DistanceMeters>
          </Trackpoint>
          <Trackpoint>
            <Time>2021-07-18T05:23:11.000Z</Time>
            <Position>
              <LatitudeDegrees>42.72560167126357555389404296875</LatitudeDegrees>
              <LongitudeDegrees>-0.20586566068232059478759765625</LongitudeDegrees>
            </Position>
            <AltitudeMeters>2528.199951171875</AltitudeMeters>
            <DistanceMeters>NAN</DistanceMeters>
          </Trackpoint>
          <Trackpoint>
            <Time>2021-07-18T05:23:13.000Z</Time>
            <Position>
              <LatitudeDegrees>42.72560167126357555389404296875</LatitudeDegrees>
              <LongitudeDegrees>-0.2058637328445911407470703125</LongitudeDegrees>
            </Position>
            <AltitudeMeters>2528.199951171875</AltitudeMeters>
            <DistanceMeters>NAN</DistanceMeters>
          </Trackpoint>
          <Trackpoint>
            <Time>2021-07-18T05:23:21.000Z</Time>
            <Position>
              <LatitudeDegrees>42.725602425634860992431640625</LatitudeDegrees>
              <LongitudeDegrees>-0.20586348138749599456787109375</LongitudeDegrees>
            </Position>
            <AltitudeMeters>2528</AltitudeMeters>
            <DistanceMeters>NAN</DistanceMeters>
          </Trackpoint>
          <Trackpoint>
            <Time>2021-07-18T05:23:30.000Z</Time>
            <Position>
              <LatitudeDegrees>42.72561751306056976318359375</LatitudeDegrees>
              <LongitudeDegrees>-0.2058667503297328948974609375</LongitudeDegrees>
            </Position>
            <AltitudeMeters>2526.800048828125</AltitudeMeters>
            <DistanceMeters>NAN</DistanceMeters>
          </Trackpoint>
          <Trackpoint>
            <Time>2021-07-18T05:23:31.000Z</Time>
            <Position>
              <LatitudeDegrees>42.72562212310731410980224609375</LatitudeDegrees>
              <LongitudeDegrees>-0.205870606005191802978515625</LongitudeDegrees>
            </Position>
            <AltitudeMeters>2526.60009765625</AltitudeMeters>
            <DistanceMeters>NAN</DistanceMeters>
          </Trackpoint>
          <Trackpoint>
            <Time>2021-07-18T05:23:58.000Z</Time>
            <Position>
              <LatitudeDegrees>42.72562094964087009429931640625</LatitudeDegrees>
              <LongitudeDegrees>-0.2059455402195453643798828125</LongitudeDegrees>
            </Position>
            <AltitudeMeters>2527.199951171875</AltitudeMeters>
            <DistanceMeters>NAN</DistanceMeters>
          </Trackpoint>
          <Trackpoint>
            <Time>2021-07-18T05:24:32.000Z</Time>
            <Position>
              <LatitudeDegrees>42.7255388908088207244873046875</LatitudeDegrees>
              <LongitudeDegrees>-0.206040255725383758544921875</LongitudeDegrees>
            </Position>
            <AltitudeMeters>2534.39990234375</AltitudeMeters>
            <DistanceMeters>NAN</DistanceMeters>
          </Trackpoint>
          <Trackpoint>
            <Time>2021-07-18T05:24:34.000Z</Time>
            <Position>
              <LatitudeDegrees>42.72553578950464725494384765625</LatitudeDegrees>
              <LongitudeDegrees>-0.20604260265827178955078125</LongitudeDegrees>
            </Position>
            <AltitudeMeters>2534.60009765625</AltitudeMeters>
            <DistanceMeters>NAN</DistanceMeters>
          </Trackpoint>
          <Trackpoint>
            <Time>2021-07-18T05:24:54.000Z</Time>
            <Position>
              <LatitudeDegrees>42.72548516280949115753173828125</LatitudeDegrees>
              <LongitudeDegrees>-0.20607076585292816162109375</LongitudeDegrees>
            </Position>
            <AltitudeMeters>2538.60009765625</AltitudeMeters>
            <DistanceMeters>NAN</DistanceMeters>
          </Trackpoint>
          <Trackpoint>
            <Time>2021-07-18T05:24:56.000Z</Time>
            <Position>
              <LatitudeDegrees>42.72548298351466655731201171875</LatitudeDegrees>
              <LongitudeDegrees>-0.20607319660484790802001953125</LongitudeDegrees>
            </Position>
            <AltitudeMeters>2538.800048828125</AltitudeMeters>
            <DistanceMeters>NAN</DistanceMeters>
          </Trackpoint>
          <Trackpoint>
            <Time>2021-07-18T05:25:03.000Z</Time>
            <Position>
              <LatitudeDegrees>42.72541358135640621185302734375</LatitudeDegrees>
              <LongitudeDegrees>-0.2060910500586032867431640625</LongitudeDegrees>
            </Position>
            <AltitudeMeters>2544.39990234375</AltitudeMeters>
            <DistanceMeters>NAN</DistanceMeters>
          </Trackpoint>
          <Trackpoint>
            <Time>2021-07-18T05:25:09.000Z</Time>
            <Position>
              <LatitudeDegrees>42.725387513637542724609375</LatitudeDegrees>
              <LongitudeDegrees>-0.20608677528798580169677734375</LongitudeDegrees>
            </Position>
            <AltitudeMeters>2546.39990234375</AltitudeMeters>
            <DistanceMeters>NAN</DistanceMeters>
          </Trackpoint>
          <Trackpoint>
            <Time>2021-07-18T05:25:14.000Z</Time>
            <Position>
              <LatitudeDegrees>42.725383825600147247314453125</LatitudeDegrees>
              <LongitudeDegrees>-0.2060783095657825469970703125</LongitudeDegrees>
            </Position>
            <AltitudeMeters>2546.800048828125</AltitudeMeters>
            <DistanceMeters>NAN</DistanceMeters>
          </Trackpoint>
          <Trackpoint>
            <Time>2021-07-18T05:25:17.000Z</Time>
            <Position>
              <LatitudeDegrees>42.72535867989063262939453125</LatitudeDegrees>
              <LongitudeDegrees>-0.20607470534741878509521484375</LongitudeDegrees>
            </Position>
            <AltitudeMeters>2548.800048828125</AltitudeMeters>
            <DistanceMeters>NAN</DistanceMeters>
          </Trackpoint>
          <Trackpoint>
            <Time>2021-07-18T05:25:23.000Z</Time>
            <Position>
              <LatitudeDegrees>42.72535867989063262939453125</LatitudeDegrees>
              <LongitudeDegrees>-0.20607470534741878509521484375</LongitudeDegrees>
            </Position>
            <AltitudeMeters>2548.800048828125</AltitudeMeters>
            <DistanceMeters>NAN</DistanceMeters>
          </Trackpoint>
          <Trackpoint>
            <Time>2021-07-18T05:25:49.000Z</Time>
            <Position>
              <LatitudeDegrees>42.72536798380315303802490234375</LatitudeDegrees>
              <LongitudeDegrees>-0.2061027847230434417724609375</LongitudeDegrees>
            </Position>
            <AltitudeMeters>2548</AltitudeMeters>
            <DistanceMeters>NAN</DistanceMeters>
          </Trackpoint>
          <Trackpoint>
            <Time>2021-07-18T05:26:01.000Z</Time>
            <Position>
              <LatitudeDegrees>42.7253622002899646759033203125</LatitudeDegrees>
              <LongitudeDegrees>-0.20613907836377620697021484375</LongitudeDegrees>
            </Position>
            <AltitudeMeters>2548.60009765625</AltitudeMeters>
            <DistanceMeters>NAN</DistanceMeters>
          </Trackpoint>
          <Trackpoint>
            <Time>2021-07-18T05:26:15.000Z</Time>
            <Position>
              <LatitudeDegrees>42.72535507567226886749267578125</LatitudeDegrees>
              <LongitudeDegrees>-0.2061473764479160308837890625</LongitudeDegrees>
            </Position>
            <AltitudeMeters>2549.199951171875</AltitudeMeters>
            <DistanceMeters>NAN</DistanceMeters>
          </Trackpoint>
          <Trackpoint>
            <Time>2021-07-18T05:26:24.000Z</Time>
            <Position>
              <LatitudeDegrees>42.7253491245210170745849609375</LatitudeDegrees>
              <LongitudeDegrees>-0.2061534114181995391845703125</LongitudeDegrees>
            </Position>
            <AltitudeMeters>2549.800048828125</AltitudeMeters>
            <DistanceMeters>NAN</DistanceMeters>
          </Trackpoint>
          <Trackpoint>
            <Time>2021-07-18T05:26:32.000Z</Time>
            <Position>
              <LatitudeDegrees>42.72533244453370571136474609375</LatitudeDegrees>
              <LongitudeDegrees>-0.2061768807470798492431640625</LongitudeDegrees>
            </Position>
            <AltitudeMeters>2551.199951171875</AltitudeMeters>
            <DistanceMeters>NAN</DistanceMeters>
          </Trackpoint>
          <Trackpoint>
            <Time>2021-07-18T05:26:52.000Z</Time>
            <Position>
              <LatitudeDegrees>42.7253276668488979339599609375</LatitudeDegrees>
              <LongitudeDegrees>-0.20621987991034984588623046875</LongitudeDegrees>
            </Position>
            <AltitudeMeters>2551.60009765625</AltitudeMeters>
            <DistanceMeters>NAN</DistanceMeters>
          </Trackpoint>
          <Trackpoint>
            <Time>2021-07-18T05:26:55.000Z</Time>
            <Position>
              <LatitudeDegrees>42.7253273315727710723876953125</LatitudeDegrees>
              <LongitudeDegrees>-0.20622222684323787689208984375</LongitudeDegrees>
            </Position>
            <AltitudeMeters>2551.60009765625</AltitudeMeters>
            <DistanceMeters>NAN</DistanceMeters>
          </Trackpoint>
          <Trackpoint>
            <Time>2021-07-18T05:26:59.000Z</Time>
            <Position>
              <LatitudeDegrees>42.72532657720148563385009765625</LatitudeDegrees>
              <LongitudeDegrees>-0.2062244899570941925048828125</LongitudeDegrees>
            </Position>
            <AltitudeMeters>2551.800048828125</AltitudeMeters>
            <DistanceMeters>NAN</DistanceMeters>
          </Trackpoint>
          <Trackpoint>
            <Time>2021-07-18T05:27:16.000Z</Time>
            <Position>
              <LatitudeDegrees>42.7253135852515697479248046875</LatitudeDegrees>
              <LongitudeDegrees>-0.20626899786293506622314453125</LongitudeDegrees>
            </Position>
            <AltitudeMeters>2552.800048828125</AltitudeMeters>
            <DistanceMeters>NAN</DistanceMeters>
          </Trackpoint>
          <Trackpoint>
            <Time>2021-07-18T05:27:18.000Z</Time>
            <Position>
              <LatitudeDegrees>42.72531165741384029388427734375</LatitudeDegrees>
              <LongitudeDegrees>-0.20627033896744251251220703125</LongitudeDegrees>
            </Position>
            <AltitudeMeters>2553</AltitudeMeters>
            <DistanceMeters>NAN</DistanceMeters>
          </Trackpoint>
          <Trackpoint>
            <Time>2021-07-18T05:27:27.000Z</Time>
            <Position>
              <LatitudeDegrees>42.72529707290232181549072265625</LatitudeDegrees>
              <LongitudeDegrees>-0.20628056488931179046630859375</LongitudeDegrees>
            </Position>
            <AltitudeMeters>2554.199951171875</AltitudeMeters>
            <DistanceMeters>NAN</DistanceMeters>
          </Trackpoint>
          <Trackpoint>
            <Time>2021-07-18T05:27:43.000Z</Time>
            <Position>
              <LatitudeDegrees>42.72528827190399169921875</LatitudeDegrees>
              <LongitudeDegrees>-0.2063193731009960174560546875</LongitudeDegrees>
            </Position>
            <AltitudeMeters>2555.199951171875</AltitudeMeters>
            <DistanceMeters>NAN</DistanceMeters>
          </Trackpoint>
          <Trackpoint>
            <Time>2021-07-18T05:27:46.000Z</Time>
            <Position>
              <LatitudeDegrees>42.72528097964823246002197265625</LatitudeDegrees>
              <LongitudeDegrees>-0.20633228123188018798828125</LongitudeDegrees>
            </Position>
            <AltitudeMeters>2556</AltitudeMeters>
            <DistanceMeters>NAN</DistanceMeters>
          </Trackpoint>
          <Trackpoint>
            <Time>2021-07-18T05:28:01.000Z</Time>
            <Position>
              <LatitudeDegrees>42.72526421584188938140869140625</LatitudeDegrees>
              <LongitudeDegrees>-0.20637226291000843048095703125</LongitudeDegrees>
            </Position>
            <AltitudeMeters>2558</AltitudeMeters>
            <DistanceMeters>NAN</DistanceMeters>
          </Trackpoint>
          <Trackpoint>
            <Time>2021-07-18T05:28:03.000Z</Time>
            <Position>
              <LatitudeDegrees>42.72526220418512821197509765625</LatitudeDegrees>
              <LongitudeDegrees>-0.2063750289380550384521484375</LongitudeDegrees>
            </Position>
            <AltitudeMeters>2558.199951171875</AltitudeMeters>
            <DistanceMeters>NAN</DistanceMeters>
          </Trackpoint>
          <Trackpoint>
            <Time>2021-07-18T05:28:07.000Z</Time>
            <Position>
              <LatitudeDegrees>42.7252601087093353271484375</LatitudeDegrees>
              <LongitudeDegrees>-0.206380225718021392822265625</LongitudeDegrees>
            </Position>
            <AltitudeMeters>2558.39990234375</AltitudeMeters>
            <DistanceMeters>NAN</DistanceMeters>
          </Trackpoint>
          <Trackpoint>
            <Time>2021-07-18T05:28:13.000Z</Time>
            <Position>
              <LatitudeDegrees>42.7252542413771152496337890625</LatitudeDegrees>
              <LongitudeDegrees>-0.20638701505959033966064453125</LongitudeDegrees>
            </Position>
            <AltitudeMeters>2559</AltitudeMeters>
            <DistanceMeters>NAN</DistanceMeters>
          </Trackpoint>
          <Trackpoint>
            <Time>2021-07-18T05:28:17.000Z</Time>
            <Position>
              <LatitudeDegrees>42.725245021283626556396484375</LatitudeDegrees>
              <LongitudeDegrees>-0.2063892781734466552734375</LongitudeDegrees>
            </Position>
            <AltitudeMeters>2559.60009765625</AltitudeMeters>
            <DistanceMeters>NAN</DistanceMeters>
          </Trackpoint>
          <Trackpoint>
            <Time>2021-07-18T05:28:37.000Z</Time>
            <Position>
              <LatitudeDegrees>42.72521660663187503814697265625</LatitudeDegrees>
              <LongitudeDegrees>-0.20640495233237743377685546875</LongitudeDegrees>
            </Position>
            <AltitudeMeters>2562.199951171875</AltitudeMeters>
            <DistanceMeters>NAN</DistanceMeters>
          </Trackpoint>
          <Trackpoint>
            <Time>2021-07-18T05:28:41.000Z</Time>
            <Position>
              <LatitudeDegrees>42.7252163551747798919677734375</LatitudeDegrees>
              <LongitudeDegrees>-0.20640511997044086456298828125</LongitudeDegrees>
            </Position>
            <AltitudeMeters>2562.199951171875</AltitudeMeters>
            <DistanceMeters>NAN</DistanceMeters>
          </Trackpoint>
          <Trackpoint>
            <Time>2021-07-18T05:28:55.000Z</Time>
            <Position>
              <LatitudeDegrees>42.72521526552736759185791015625</LatitudeDegrees>
              <LongitudeDegrees>-0.20640579052269458770751953125</LongitudeDegrees>
            </Position>
            <AltitudeMeters>2562.199951171875</AltitudeMeters>
            <DistanceMeters>NAN</DistanceMeters>
          </Trackpoint>
          <Trackpoint>
            <Time>2021-07-18T05:29:05.000Z</Time>
            <Position>
              <LatitudeDegrees>42.72521425969898700714111328125</LatitudeDegrees>
              <LongitudeDegrees>-0.206406377255916595458984375</LongitudeDegrees>
            </Position>
            <AltitudeMeters>2562.39990234375</AltitudeMeters>
            <DistanceMeters>NAN</DistanceMeters>
          </Trackpoint>
          <Trackpoint>
            <Time>2021-07-18T05:29:15.000Z</Time>
            <Position>
              <LatitudeDegrees>42.7252130024135112762451171875</LatitudeDegrees>
              <LongitudeDegrees>-0.20640729926526546478271484375</LongitudeDegrees>
            </Position>
            <AltitudeMeters>2562.39990234375</AltitudeMeters>
            <DistanceMeters>NAN</DistanceMeters>
          </Trackpoint>
          <Trackpoint>
            <Time>2021-07-18T05:29:23.000Z</Time>
            <Position>
              <LatitudeDegrees>42.72521174512803554534912109375</LatitudeDegrees>
              <LongitudeDegrees>-0.2064082212746143341064453125</LongitudeDegrees>
            </Position>
            <AltitudeMeters>2562.60009765625</AltitudeMeters>
            <DistanceMeters>NAN</DistanceMeters>
          </Trackpoint>
          <Trackpoint>
            <Time>2021-07-18T05:29:27.000Z</Time>
            <Position>
              <LatitudeDegrees>42.72521107457578182220458984375</LatitudeDegrees>
              <LongitudeDegrees>-0.20640872418880462646484375</LongitudeDegrees>
            </Position>
            <AltitudeMeters>2562.60009765625</AltitudeMeters>
            <DistanceMeters>NAN</DistanceMeters>
          </Trackpoint>
          <Trackpoint>
            <Time>2021-07-18T05:29:35.000Z</Time>
            <Position>
              <LatitudeDegrees>42.72520973347127437591552734375</LatitudeDegrees>
              <LongitudeDegrees>-0.2064098976552486419677734375</LongitudeDegrees>
            </Position>
            <AltitudeMeters>2562.800048828125</AltitudeMeters>
            <DistanceMeters>NAN</DistanceMeters>
          </Trackpoint>
          <Trackpoint>
            <Time>2021-07-18T05:29:50.000Z</Time>
            <Position>
              <LatitudeDegrees>42.72520721890032291412353515625</LatitudeDegrees>
              <LongitudeDegrees>-0.2064120769500732421875</LongitudeDegrees>
            </Position>
            <AltitudeMeters>2563</AltitudeMeters>
            <DistanceMeters>NAN</DistanceMeters>
          </Trackpoint>
          <Trackpoint>
            <Time>2021-07-18T05:30:02.000Z</Time>
            <Position>
              <LatitudeDegrees>42.72520537488162517547607421875</LatitudeDegrees>
              <LongitudeDegrees>-0.20641383714973926544189453125</LongitudeDegrees>
            </Position>
            <AltitudeMeters>2563.199951171875</AltitudeMeters>
            <DistanceMeters>NAN</DistanceMeters>
          </Trackpoint>
          <Trackpoint>
            <Time>2021-07-18T05:30:05.000Z</Time>
            <Position>
              <LatitudeDegrees>42.7252049557864665985107421875</LatitudeDegrees>
              <LongitudeDegrees>-0.2064142562448978424072265625</LongitudeDegrees>
            </Position>
            <AltitudeMeters>2563.199951171875</AltitudeMeters>
            <DistanceMeters>NAN</DistanceMeters>
          </Trackpoint>
          <Trackpoint>
            <Time>2021-07-18T05:30:07.000Z</Time>
            <Position>
              <LatitudeDegrees>42.7252046205103397369384765625</LatitudeDegrees>
              <LongitudeDegrees>-0.20641450770199298858642578125</LongitudeDegrees>
            </Position>
            <AltitudeMeters>2563.199951171875</AltitudeMeters>
            <DistanceMeters>NAN</DistanceMeters>
          </Trackpoint>
          <Trackpoint>
            <Time>2021-07-18T05:30:12.000Z</Time>
            <Position>
              <LatitudeDegrees>42.72520386613905429840087890625</LatitudeDegrees>
              <LongitudeDegrees>-0.206415094435214996337890625</LongitudeDegrees>
            </Position>
            <AltitudeMeters>2563.199951171875</AltitudeMeters>
            <DistanceMeters>NAN</DistanceMeters>
          </Trackpoint>
          <Trackpoint>
            <Time>2021-07-18T05:30:14.000Z</Time>
            <Position>
              <LatitudeDegrees>42.72520353086292743682861328125</LatitudeDegrees>
              <LongitudeDegrees>-0.20641542971134185791015625</LongitudeDegrees>
            </Position>
            <AltitudeMeters>2563.199951171875</AltitudeMeters>
            <DistanceMeters>NAN</DistanceMeters>
          </Trackpoint>
          <Trackpoint>
            <Time>2021-07-18T05:30:18.000Z</Time>
            <Position>
              <LatitudeDegrees>42.7252029441297054290771484375</LatitudeDegrees>
              <LongitudeDegrees>-0.2064159326255321502685546875</LongitudeDegrees>
            </Position>
            <AltitudeMeters>2563.39990234375</AltitudeMeters>
            <DistanceMeters>NAN</DistanceMeters>
          </Trackpoint>
          <Trackpoint>
            <Time>2021-07-18T05:30:22.000Z</Time>
            <Position>
              <LatitudeDegrees>42.7252022735774517059326171875</LatitudeDegrees>
              <LongitudeDegrees>-0.206416435539722442626953125</LongitudeDegrees>
            </Position>
            <AltitudeMeters>2563.39990234375</AltitudeMeters>
            <DistanceMeters>NAN</DistanceMeters>
          </Trackpoint>
          <Trackpoint>
            <Time>2021-07-18T05:30:56.000Z</Time>
            <Position>
              <LatitudeDegrees>42.72519682534039020538330078125</LatitudeDegrees>
              <LongitudeDegrees>-0.20642054267227649688720703125</LongitudeDegrees>
            </Position>
            <AltitudeMeters>2563.800048828125</AltitudeMeters>
            <DistanceMeters>NAN</DistanceMeters>
          </Trackpoint>
          <Trackpoint>
            <Time>2021-07-18T05:31:04.000Z</Time>
            <Position>
              <LatitudeDegrees>42.72519531659781932830810546875</LatitudeDegrees>
              <LongitudeDegrees>-0.2064214646816253662109375</LongitudeDegrees>
            </Position>
            <AltitudeMeters>2564</AltitudeMeters>
            <DistanceMeters>NAN</DistanceMeters>
          </Trackpoint>
          <Trackpoint>
            <Time>2021-07-18T05:31:10.000Z</Time>
            <Position>
              <LatitudeDegrees>42.72519414313137531280517578125</LatitudeDegrees>
              <LongitudeDegrees>-0.20642221905291080474853515625</LongitudeDegrees>
            </Position>
            <AltitudeMeters>2564.199951171875</AltitudeMeters>
            <DistanceMeters>NAN</DistanceMeters>
          </Trackpoint>
          <Trackpoint>
            <Time>2021-07-18T05:31:20.000Z</Time>
            <Position>
              <LatitudeDegrees>42.72519213147461414337158203125</LatitudeDegrees>
              <LongitudeDegrees>-0.20642339251935482025146484375</LongitudeDegrees>
            </Position>
            <AltitudeMeters>2564.199951171875</AltitudeMeters>
            <DistanceMeters>NAN</DistanceMeters>
          </Trackpoint>
          <Trackpoint>
            <Time>2021-07-18T05:31:30.000Z</Time>
            <Position>
              <LatitudeDegrees>42.725190035998821258544921875</LatitudeDegrees>
              <LongitudeDegrees>-0.2064246498048305511474609375</LongitudeDegrees>
            </Position>
            <AltitudeMeters>2564.39990234375</AltitudeMeters>
            <DistanceMeters>NAN</DistanceMeters>
          </Trackpoint>
          <Trackpoint>
            <Time>2021-07-18T05:31:56.000Z</Time>
            <Position>
              <LatitudeDegrees>42.7251841686666011810302734375</LatitudeDegrees>
              <LongitudeDegrees>-0.2064283378422260284423828125</LongitudeDegrees>
            </Position>
            <AltitudeMeters>2565</AltitudeMeters>
            <DistanceMeters>NAN</DistanceMeters>
          </Trackpoint>
          <Trackpoint>
            <Time>2021-07-18T05:32:01.000Z</Time>
            <Position>
              <LatitudeDegrees>42.72518291138112545013427734375</LatitudeDegrees>
              <LongitudeDegrees>-0.2064293436706066131591796875</LongitudeDegrees>
            </Position>
            <AltitudeMeters>2565</AltitudeMeters>
            <DistanceMeters>NAN</DistanceMeters>
          </Trackpoint>
          <Trackpoint>
            <Time>2021-07-18T05:32:06.000Z</Time>
            <Position>
              <LatitudeDegrees>42.72518173791468143463134765625</LatitudeDegrees>
              <LongitudeDegrees>-0.2064303494989871978759765625</LongitudeDegrees>
            </Position>
            <AltitudeMeters>2565.199951171875</AltitudeMeters>
            <DistanceMeters>NAN</DistanceMeters>
          </Trackpoint>
          <Trackpoint>
            <Time>2021-07-18T05:32:34.000Z</Time>
            <Position>
              <LatitudeDegrees>42.72510713897645473480224609375</LatitudeDegrees>
              <LongitudeDegrees>-0.2065077982842922210693359375</LongitudeDegrees>
            </Position>
            <AltitudeMeters>2572.199951171875</AltitudeMeters>
            <DistanceMeters>NAN</DistanceMeters>
          </Trackpoint>
          <Trackpoint>
            <Time>2021-07-18T05:32:46.000Z</Time>
            <Position>
              <LatitudeDegrees>42.725043855607509613037109375</LatitudeDegrees>
              <LongitudeDegrees>-0.20657368004322052001953125</LongitudeDegrees>
            </Position>
            <AltitudeMeters>2577.39990234375</AltitudeMeters>
            <DistanceMeters>NAN</DistanceMeters>
          </Trackpoint>
          <Trackpoint>
            <Time>2021-07-18T05:33:32.000Z</Time>
            <Position>
              <LatitudeDegrees>42.7249893732368946075439453125</LatitudeDegrees>
              <LongitudeDegrees>-0.20660812966525554656982421875</LongitudeDegrees>
            </Position>
            <AltitudeMeters>2579.800048828125</AltitudeMeters>
            <DistanceMeters>NAN</DistanceMeters>
          </Trackpoint>
          <Trackpoint>
            <Time>2021-07-18T05:34:10.000Z</Time>
            <Position>
              <LatitudeDegrees>42.724980153143405914306640625</LatitudeDegrees>
              <LongitudeDegrees>-0.20665372721850872039794921875</LongitudeDegrees>
            </Position>
            <AltitudeMeters>2580.199951171875</AltitudeMeters>
            <DistanceMeters>NAN</DistanceMeters>
          </Trackpoint>
          <Trackpoint>
            <Time>2021-07-18T05:34:45.000Z</Time>
            <Position>
              <LatitudeDegrees>42.72495944984257221221923828125</LatitudeDegrees>
              <LongitudeDegrees>-0.2066787891089916229248046875</LongitudeDegrees>
            </Position>
            <AltitudeMeters>2581</AltitudeMeters>
            <DistanceMeters>NAN</DistanceMeters>
          </Trackpoint>
          <Trackpoint>
            <Time>2021-07-18T05:34:49.000Z</Time>
            <Position>
              <LatitudeDegrees>42.724949307739734649658203125</LatitudeDegrees>
              <LongitudeDegrees>-0.206686668097972869873046875</LongitudeDegrees>
            </Position>
            <AltitudeMeters>2581.39990234375</AltitudeMeters>
            <DistanceMeters>NAN</DistanceMeters>
          </Trackpoint>
          <Trackpoint>
            <Time>2021-07-18T05:35:12.000Z</Time>
            <Position>
              <LatitudeDegrees>42.7249193005263805389404296875</LatitudeDegrees>
              <LongitudeDegrees>-0.2067408151924610137939453125</LongitudeDegrees>
            </Position>
            <AltitudeMeters>2582.60009765625</AltitudeMeters>
            <DistanceMeters>NAN</DistanceMeters>
          </Trackpoint>
          <Trackpoint>
            <Time>2021-07-18T05:35:25.000Z</Time>
            <Position>
              <LatitudeDegrees>42.72489055059850215911865234375</LatitudeDegrees>
              <LongitudeDegrees>-0.20677844993770122528076171875</LongitudeDegrees>
            </Position>
            <AltitudeMeters>2583.800048828125</AltitudeMeters>
            <DistanceMeters>NAN</DistanceMeters>
          </Trackpoint>
          <Trackpoint>
            <Time>2021-07-18T05:35:32.000Z</Time>
            <Position>
              <LatitudeDegrees>42.72489977069199085235595703125</LatitudeDegrees>
              <LongitudeDegrees>-0.2067998237907886505126953125</LongitudeDegrees>
            </Position>
            <AltitudeMeters>2583.39990234375</AltitudeMeters>
            <DistanceMeters>NAN</DistanceMeters>
          </Trackpoint>
          <Trackpoint>
            <Time>2021-07-18T05:35:40.000Z</Time>
            <Position>
              <LatitudeDegrees>42.724895663559436798095703125</LatitudeDegrees>
              <LongitudeDegrees>-0.20680845715105533599853515625</LongitudeDegrees>
            </Position>
            <AltitudeMeters>2583.60009765625</AltitudeMeters>
            <DistanceMeters>NAN</DistanceMeters>
          </Trackpoint>
          <Trackpoint>
            <Time>2021-07-18T05:35:45.000Z</Time>
            <Position>
              <LatitudeDegrees>42.724910080432891845703125</LatitudeDegrees>
              <LongitudeDegrees>-0.2068082056939601898193359375</LongitudeDegrees>
            </Position>
            <AltitudeMeters>2583</AltitudeMeters>
            <DistanceMeters>NAN</DistanceMeters>
          </Trackpoint>
          <Trackpoint>
            <Time>2021-07-18T05:35:51.000Z</Time>
            <Position>
              <LatitudeDegrees>42.7249102480709552764892578125</LatitudeDegrees>
              <LongitudeDegrees>-0.20683460868895053863525390625</LongitudeDegrees>
            </Position>
            <AltitudeMeters>2583</AltitudeMeters>
            <DistanceMeters>NAN</DistanceMeters>
          </Trackpoint>
          <Trackpoint>
            <Time>2021-07-18T05:36:00.000Z</Time>
            <Position>
              <LatitudeDegrees>42.72491033188998699188232421875</LatitudeDegrees>
              <LongitudeDegrees>-0.20683586597442626953125</LongitudeDegrees>
            </Position>
            <AltitudeMeters>2583</AltitudeMeters>
            <DistanceMeters>NAN</DistanceMeters>
          </Trackpoint>
          <Trackpoint>
            <Time>2021-07-18T05:36:05.000Z</Time>
            <Position>
              <LatitudeDegrees>42.724907733500003814697265625</LatitudeDegrees>
              <LongitudeDegrees>-0.20683159120380878448486328125</LongitudeDegrees>
            </Position>
            <AltitudeMeters>2583.199951171875</AltitudeMeters>
            <DistanceMeters>NAN</DistanceMeters>
          </Trackpoint>
          <Trackpoint>
            <Time>2021-07-18T05:36:08.000Z</Time>
            <Position>
              <LatitudeDegrees>42.72490060888230800628662109375</LatitudeDegrees>
              <LongitudeDegrees>-0.2068457566201686859130859375</LongitudeDegrees>
            </Position>
            <AltitudeMeters>2583.39990234375</AltitudeMeters>
            <DistanceMeters>NAN</DistanceMeters>
          </Trackpoint>
          <Trackpoint>
            <Time>2021-07-18T05:36:15.000Z</Time>
            <Position>
              <LatitudeDegrees>42.72490806877613067626953125</LatitudeDegrees>
              <LongitudeDegrees>-0.2068420685827732086181640625</LongitudeDegrees>
            </Position>
            <AltitudeMeters>2583.199951171875</AltitudeMeters>
            <DistanceMeters>NAN</DistanceMeters>
          </Trackpoint>
          <Trackpoint>
            <Time>2021-07-18T05:36:19.000Z</Time>
            <Position>
              <LatitudeDegrees>42.7249146066606044769287109375</LatitudeDegrees>
              <LongitudeDegrees>-0.20684148184955120086669921875</LongitudeDegrees>
            </Position>
            <AltitudeMeters>2582.800048828125</AltitudeMeters>
            <DistanceMeters>NAN</DistanceMeters>
          </Trackpoint>
          <Trackpoint>
            <Time>2021-07-18T05:36:23.000Z</Time>
            <Position>
              <LatitudeDegrees>42.7249146066606044769287109375</LatitudeDegrees>
              <LongitudeDegrees>-0.20684148184955120086669921875</LongitudeDegrees>
            </Position>
            <AltitudeMeters>2582.800048828125</AltitudeMeters>
            <DistanceMeters>NAN</DistanceMeters>
          </Trackpoint>
          <Trackpoint>
            <Time>2021-07-18T05:36:53.000Z</Time>
            <Position>
              <LatitudeDegrees>42.7249042131006717681884765625</LatitudeDegrees>
              <LongitudeDegrees>-0.2068685553967952728271484375</LongitudeDegrees>
            </Position>
            <AltitudeMeters>2583.199951171875</AltitudeMeters>
            <DistanceMeters>NAN</DistanceMeters>
          </Trackpoint>
          <Trackpoint>
            <Time>2021-07-18T05:37:58.000Z</Time>
            <Position>
              <LatitudeDegrees>42.72479030303657054901123046875</LatitudeDegrees>
              <LongitudeDegrees>-0.2069325931370258331298828125</LongitudeDegrees>
            </Position>
            <AltitudeMeters>2586.800048828125</AltitudeMeters>
            <DistanceMeters>NAN</DistanceMeters>
          </Trackpoint>
          <Trackpoint>
            <Time>2021-07-18T05:38:04.000Z</Time>
            <Position>
              <LatitudeDegrees>42.72474772296845912933349609375</LatitudeDegrees>
              <LongitudeDegrees>-0.20694223232567310333251953125</LongitudeDegrees>
            </Position>
            <AltitudeMeters>2586.39990234375</AltitudeMeters>
            <DistanceMeters>NAN</DistanceMeters>
          </Trackpoint>
          <Trackpoint>
            <Time>2021-07-18T05:38:12.000Z</Time>
            <Position>
              <LatitudeDegrees>42.7247104234993457794189453125</LatitudeDegrees>
              <LongitudeDegrees>-0.206940136849880218505859375</LongitudeDegrees>
            </Position>
            <AltitudeMeters>2586</AltitudeMeters>
            <DistanceMeters>NAN</DistanceMeters>
          </Trackpoint>
          <Trackpoint>
            <Time>2021-07-18T05:38:25.000Z</Time>
            <Position>
              <LatitudeDegrees>42.72472341544926166534423828125</LatitudeDegrees>
              <LongitudeDegrees>-0.206940136849880218505859375</LongitudeDegrees>
            </Position>
            <AltitudeMeters>2586.199951171875</AltitudeMeters>
            <DistanceMeters>NAN</DistanceMeters>
          </Trackpoint>
          <Trackpoint>
            <Time>2021-07-18T05:38:29.000Z</Time>
            <Position>
              <LatitudeDegrees>42.7247268520295619964599609375</LatitudeDegrees>
              <LongitudeDegrees>-0.20693116821348667144775390625</LongitudeDegrees>
            </Position>
            <AltitudeMeters>2586.39990234375</AltitudeMeters>
            <DistanceMeters>NAN</DistanceMeters>
          </Trackpoint>
          <Trackpoint>
            <Time>2021-07-18T05:38:51.000Z</Time>
            <Position>
              <LatitudeDegrees>42.72474847733974456787109375</LatitudeDegrees>
              <LongitudeDegrees>-0.20692680962383747100830078125</LongitudeDegrees>
            </Position>
            <AltitudeMeters>2586.60009765625</AltitudeMeters>
            <DistanceMeters>NAN</DistanceMeters>
          </Trackpoint>
          <Trackpoint>
            <Time>2021-07-18T05:38:52.000Z</Time>
            <Position>
              <LatitudeDegrees>42.724750153720378875732421875</LatitudeDegrees>
              <LongitudeDegrees>-0.20692714489996433258056640625</LongitudeDegrees>
            </Position>
            <AltitudeMeters>2586.800048828125</AltitudeMeters>
            <DistanceMeters>NAN</DistanceMeters>
          </Trackpoint>
          <Trackpoint>
            <Time>2021-07-18T05:38:53.000Z</Time>
            <Position>
              <LatitudeDegrees>42.7247509919106960296630859375</LatitudeDegrees>
              <LongitudeDegrees>-0.206927396357059478759765625</LongitudeDegrees>
            </Position>
            <AltitudeMeters>2586.800048828125</AltitudeMeters>
            <DistanceMeters>NAN</DistanceMeters>
          </Trackpoint>
          <Trackpoint>
            <Time>2021-07-18T05:38:54.000Z</Time>
            <Position>
              <LatitudeDegrees>42.72475183010101318359375</LatitudeDegrees>
              <LongitudeDegrees>-0.20692848600447177886962890625</LongitudeDegrees>
            </Position>
            <AltitudeMeters>2586.800048828125</AltitudeMeters>
            <DistanceMeters>NAN</DistanceMeters>
          </Trackpoint>
          <Trackpoint>
            <Time>2021-07-18T05:38:57.000Z</Time>
            <Position>
              <LatitudeDegrees>42.7247566916048526763916015625</LatitudeDegrees>
              <LongitudeDegrees>-0.20692882128059864044189453125</LongitudeDegrees>
            </Position>
            <AltitudeMeters>2586.800048828125</AltitudeMeters>
            <DistanceMeters>NAN</DistanceMeters>
          </Trackpoint>
          <Trackpoint>
            <Time>2021-07-18T05:39:01.000Z</Time>
            <Position>
              <LatitudeDegrees>42.7247607149183750152587890625</LatitudeDegrees>
              <LongitudeDegrees>-0.20692731253802776336669921875</LongitudeDegrees>
            </Position>
            <AltitudeMeters>2586.800048828125</AltitudeMeters>
            <DistanceMeters>NAN</DistanceMeters>
          </Trackpoint>
          <Trackpoint>
            <Time>2021-07-18T05:39:06.000Z</Time>
            <Position>
              <LatitudeDegrees>42.7247644029557704925537109375</LatitudeDegrees>
              <LongitudeDegrees>-0.2069275639951229095458984375</LongitudeDegrees>
            </Position>
            <AltitudeMeters>2586.800048828125</AltitudeMeters>
            <DistanceMeters>NAN</DistanceMeters>
          </Trackpoint>
          <Trackpoint>
            <Time>2021-07-18T05:39:13.000Z</Time>
            <Position>
              <LatitudeDegrees>42.72477387450635433197021484375</LatitudeDegrees>
              <LongitudeDegrees>-0.2069292403757572174072265625</LongitudeDegrees>
            </Position>
            <AltitudeMeters>2587</AltitudeMeters>
            <DistanceMeters>NAN</DistanceMeters>
          </Trackpoint>
          <Trackpoint>
            <Time>2021-07-18T05:39:24.000Z</Time>
            <Position>
              <LatitudeDegrees>42.7247774787247180938720703125</LatitudeDegrees>
              <LongitudeDegrees>-0.206928737461566925048828125</LongitudeDegrees>
            </Position>
            <AltitudeMeters>2587</AltitudeMeters>
            <DistanceMeters>NAN</DistanceMeters>
          </Trackpoint>
          <Trackpoint>
            <Time>2021-07-18T05:40:08.000Z</Time>
            <Position>
              <LatitudeDegrees>42.7247746288776397705078125</LatitudeDegrees>
              <LongitudeDegrees>-0.20693804137408733367919921875</LongitudeDegrees>
            </Position>
            <AltitudeMeters>2586.800048828125</AltitudeMeters>
            <DistanceMeters>NAN</DistanceMeters>
          </Trackpoint>
          <Trackpoint>
            <Time>2021-07-18T05:40:13.000Z</Time>
            <Position>
              <LatitudeDegrees>42.72477353923022747039794921875</LatitudeDegrees>
              <LongitudeDegrees>-0.206935442984104156494140625</LongitudeDegrees>
            </Position>
            <AltitudeMeters>2586.800048828125</AltitudeMeters>
            <DistanceMeters>NAN</DistanceMeters>
          </Trackpoint>
          <Trackpoint>
            <Time>2021-07-18T05:40:17.000Z</Time>
            <Position>
              <LatitudeDegrees>42.72477219812572002410888671875</LatitudeDegrees>
              <LongitudeDegrees>-0.20693401806056499481201171875</LongitudeDegrees>
            </Position>
            <AltitudeMeters>2586.800048828125</AltitudeMeters>
            <DistanceMeters>NAN</DistanceMeters>
          </Trackpoint>
          <Trackpoint>
            <Time>2021-07-18T05:40:27.000Z</Time>
            <Position>
              <LatitudeDegrees>42.7247704379260540008544921875</LatitudeDegrees>
              <LongitudeDegrees>-0.20693100057542324066162109375</LongitudeDegrees>
            </Position>
            <AltitudeMeters>2586.800048828125</AltitudeMeters>
            <DistanceMeters>NAN</DistanceMeters>
          </Trackpoint>
          <Trackpoint>
            <Time>2021-07-18T05:40:46.000Z</Time>
            <Position>
              <LatitudeDegrees>42.72476633079349994659423828125</LatitudeDegrees>
              <LongitudeDegrees>-0.2069310843944549560546875</LongitudeDegrees>
            </Position>
            <AltitudeMeters>2586.800048828125</AltitudeMeters>
            <DistanceMeters>NAN</DistanceMeters>
          </Trackpoint>
          <Trackpoint>
            <Time>2021-07-18T05:40:48.000Z</Time>
            <Position>
              <LatitudeDegrees>42.72476591169834136962890625</LatitudeDegrees>
              <LongitudeDegrees>-0.2069309167563915252685546875</LongitudeDegrees>
            </Position>
            <AltitudeMeters>2586.800048828125</AltitudeMeters>
            <DistanceMeters>NAN</DistanceMeters>
          </Trackpoint>
          <Trackpoint>
            <Time>2021-07-18T05:40:50.000Z</Time>
            <Position>
              <LatitudeDegrees>42.72476566024124622344970703125</LatitudeDegrees>
              <LongitudeDegrees>-0.20692999474704265594482421875</LongitudeDegrees>
            </Position>
            <AltitudeMeters>2586.800048828125</AltitudeMeters>
            <DistanceMeters>NAN</DistanceMeters>
          </Trackpoint>
          <Trackpoint>
            <Time>2021-07-18T05:40:52.000Z</Time>
            <Position>
              <LatitudeDegrees>42.7247654087841510772705078125</LatitudeDegrees>
              <LongitudeDegrees>-0.20692907273769378662109375</LongitudeDegrees>
            </Position>
            <AltitudeMeters>2586.800048828125</AltitudeMeters>
            <DistanceMeters>NAN</DistanceMeters>
          </Trackpoint>
          <Trackpoint>
            <Time>2021-07-18T05:41:00.000Z</Time>
            <Position>
              <LatitudeDegrees>42.724765241146087646484375</LatitudeDegrees>
              <LongitudeDegrees>-0.20692395977675914764404296875</LongitudeDegrees>
            </Position>
            <AltitudeMeters>2587</AltitudeMeters>
            <DistanceMeters>NAN</DistanceMeters>
          </Trackpoint>
          <Trackpoint>
            <Time>2021-07-18T05:41:03.000Z</Time>
            <Position>
              <LatitudeDegrees>42.72476532496511936187744140625</LatitudeDegrees>
              <LongitudeDegrees>-0.20692127756774425506591796875</LongitudeDegrees>
            </Position>
            <AltitudeMeters>2587</AltitudeMeters>
            <DistanceMeters>NAN</DistanceMeters>
          </Trackpoint>
          <Trackpoint>
            <Time>2021-07-18T05:41:06.000Z</Time>
            <Position>
              <LatitudeDegrees>42.7247657440602779388427734375</LatitudeDegrees>
              <LongitudeDegrees>-0.20691876299679279327392578125</LongitudeDegrees>
            </Position>
            <AltitudeMeters>2587</AltitudeMeters>
            <DistanceMeters>NAN</DistanceMeters>
          </Trackpoint>
          <Trackpoint>
            <Time>2021-07-18T05:41:24.000Z</Time>
            <Position>
              <LatitudeDegrees>42.724769599735736846923828125</LatitudeDegrees>
              <LongitudeDegrees>-0.20691029727458953857421875</LongitudeDegrees>
            </Position>
            <AltitudeMeters>2587.199951171875</AltitudeMeters>
            <DistanceMeters>NAN</DistanceMeters>
          </Trackpoint>
          <Trackpoint>
            <Time>2021-07-18T05:41:28.000Z</Time>
            <Position>
              <LatitudeDegrees>42.72476985119283199310302734375</LatitudeDegrees>
              <LongitudeDegrees>-0.206909961998462677001953125</LongitudeDegrees>
            </Position>
            <AltitudeMeters>2587.199951171875</AltitudeMeters>
            <DistanceMeters>NAN</DistanceMeters>
          </Trackpoint>
          <Trackpoint>
            <Time>2021-07-18T05:41:39.000Z</Time>
            <Position>
              <LatitudeDegrees>42.72476985119283199310302734375</LatitudeDegrees>
              <LongitudeDegrees>-0.20691004581749439239501953125</LongitudeDegrees>
            </Position>
            <AltitudeMeters>2587.199951171875</AltitudeMeters>
            <DistanceMeters>NAN</DistanceMeters>
          </Trackpoint>
          <Trackpoint>
            <Time>2021-07-18T05:41:46.000Z</Time>
            <Position>
              <LatitudeDegrees>42.72476993501186370849609375</LatitudeDegrees>
              <LongitudeDegrees>-0.2069101296365261077880859375</LongitudeDegrees>
            </Position>
            <AltitudeMeters>2587.199951171875</AltitudeMeters>
            <DistanceMeters>NAN</DistanceMeters>
          </Trackpoint>
          <Trackpoint>
            <Time>2021-07-18T05:42:02.000Z</Time>
            <Position>
              <LatitudeDegrees>42.7247701026499271392822265625</LatitudeDegrees>
              <LongitudeDegrees>-0.206910632550716400146484375</LongitudeDegrees>
            </Position>
            <AltitudeMeters>2587.199951171875</AltitudeMeters>
            <DistanceMeters>NAN</DistanceMeters>
          </Trackpoint>
          <Trackpoint>
            <Time>2021-07-18T05:42:17.000Z</Time>
            <Position>
              <LatitudeDegrees>42.72477052174508571624755859375</LatitudeDegrees>
              <LongitudeDegrees>-0.206911303102970123291015625</LongitudeDegrees>
            </Position>
            <AltitudeMeters>2587.199951171875</AltitudeMeters>
            <DistanceMeters>NAN</DistanceMeters>
          </Trackpoint>
          <Trackpoint>
            <Time>2021-07-18T05:42:39.000Z</Time>
            <Position>
              <LatitudeDegrees>42.724771611392498016357421875</LatitudeDegrees>
              <LongitudeDegrees>-0.2069124765694141387939453125</LongitudeDegrees>
            </Position>
            <AltitudeMeters>2587.199951171875</AltitudeMeters>
            <DistanceMeters>NAN</DistanceMeters>
          </Trackpoint>
          <Trackpoint>
            <Time>2021-07-18T05:42:53.000Z</Time>
            <Position>
              <LatitudeDegrees>42.72477236576378345489501953125</LatitudeDegrees>
              <LongitudeDegrees>-0.20691339857876300811767578125</LongitudeDegrees>
            </Position>
            <AltitudeMeters>2587.199951171875</AltitudeMeters>
            <DistanceMeters>NAN</DistanceMeters>
          </Trackpoint>
          <Trackpoint>
            <Time>2021-07-18T05:42:55.000Z</Time>
            <Position>
              <LatitudeDegrees>42.7247724495828151702880859375</LatitudeDegrees>
              <LongitudeDegrees>-0.206913650035858154296875</LongitudeDegrees>
            </Position>
            <AltitudeMeters>2587.199951171875</AltitudeMeters>
            <DistanceMeters>NAN</DistanceMeters>
          </Trackpoint>
          <Trackpoint>
            <Time>2021-07-18T05:43:07.000Z</Time>
            <Position>
              <LatitudeDegrees>42.724772952497005462646484375</LatitudeDegrees>
              <LongitudeDegrees>-0.20691440440714359283447265625</LongitudeDegrees>
            </Position>
            <AltitudeMeters>2587.199951171875</AltitudeMeters>
            <DistanceMeters>NAN</DistanceMeters>
          </Trackpoint>
          <Trackpoint>
            <Time>2021-07-18T05:43:16.000Z</Time>
            <Position>
              <LatitudeDegrees>42.72477328777313232421875</LatitudeDegrees>
              <LongitudeDegrees>-0.20691507495939731597900390625</LongitudeDegrees>
            </Position>
            <AltitudeMeters>2587.199951171875</AltitudeMeters>
            <DistanceMeters>NAN</DistanceMeters>
          </Trackpoint>
          <Trackpoint>
            <Time>2021-07-18T05:43:17.000Z</Time>
            <Position>
              <LatitudeDegrees>42.72477337159216403961181640625</LatitudeDegrees>
              <LongitudeDegrees>-0.20691507495939731597900390625</LongitudeDegrees>
            </Position>
            <AltitudeMeters>2587.199951171875</AltitudeMeters>
            <DistanceMeters>NAN</DistanceMeters>
          </Trackpoint>
          <Trackpoint>
            <Time>2021-07-18T05:43:52.000Z</Time>
            <Position>
              <LatitudeDegrees>42.72477387450635433197021484375</LatitudeDegrees>
              <LongitudeDegrees>-0.2069178409874439239501953125</LongitudeDegrees>
            </Position>
            <AltitudeMeters>2587</AltitudeMeters>
            <DistanceMeters>NAN</DistanceMeters>
          </Trackpoint>
          <Trackpoint>
            <Time>2021-07-18T05:44:02.000Z</Time>
            <Position>
              <LatitudeDegrees>42.7247737906873226165771484375</LatitudeDegrees>
              <LongitudeDegrees>-0.20691859535872936248779296875</LongitudeDegrees>
            </Position>
            <AltitudeMeters>2587</AltitudeMeters>
            <DistanceMeters>NAN</DistanceMeters>
          </Trackpoint>
          <Trackpoint>
            <Time>2021-07-18T05:44:06.000Z</Time>
            <Position>
              <LatitudeDegrees>42.7247737906873226165771484375</LatitudeDegrees>
              <LongitudeDegrees>-0.20691893063485622406005859375</LongitudeDegrees>
            </Position>
            <AltitudeMeters>2587</AltitudeMeters>
            <DistanceMeters>NAN</DistanceMeters>
          </Trackpoint>
          <Trackpoint>
            <Time>2021-07-18T05:44:16.000Z</Time>
            <Position>
              <LatitudeDegrees>42.724773623049259185791015625</LatitudeDegrees>
              <LongitudeDegrees>-0.20691960118710994720458984375</LongitudeDegrees>
            </Position>
            <AltitudeMeters>2587</AltitudeMeters>
            <DistanceMeters>NAN</DistanceMeters>
          </Trackpoint>
          <Trackpoint>
            <Time>2021-07-18T05:44:18.000Z</Time>
            <Position>
              <LatitudeDegrees>42.72477353923022747039794921875</LatitudeDegrees>
              <LongitudeDegrees>-0.20691968500614166259765625</LongitudeDegrees>
            </Position>
            <AltitudeMeters>2587</AltitudeMeters>
            <DistanceMeters>NAN</DistanceMeters>
          </Trackpoint>
          <Trackpoint>
            <Time>2021-07-18T05:44:20.000Z</Time>
            <Position>
              <LatitudeDegrees>42.72477353923022747039794921875</LatitudeDegrees>
              <LongitudeDegrees>-0.2069198526442050933837890625</LongitudeDegrees>
            </Position>
            <AltitudeMeters>2587</AltitudeMeters>
            <DistanceMeters>NAN</DistanceMeters>
          </Trackpoint>
          <Trackpoint>
            <Time>2021-07-18T05:44:34.000Z</Time>
            <Position>
              <LatitudeDegrees>42.7247731201350688934326171875</LatitudeDegrees>
              <LongitudeDegrees>-0.2069208584725856781005859375</LongitudeDegrees>
            </Position>
            <AltitudeMeters>2587</AltitudeMeters>
            <DistanceMeters>NAN</DistanceMeters>
          </Trackpoint>
          <Trackpoint>
            <Time>2021-07-18T05:44:49.000Z</Time>
            <Position>
              <LatitudeDegrees>42.72477270103991031646728515625</LatitudeDegrees>
              <LongitudeDegrees>-0.20692194811999797821044921875</LongitudeDegrees>
            </Position>
            <AltitudeMeters>2587</AltitudeMeters>
            <DistanceMeters>NAN</DistanceMeters>
          </Trackpoint>
          <Trackpoint>
            <Time>2021-07-18T05:44:50.000Z</Time>
            <Position>
              <LatitudeDegrees>42.72477261722087860107421875</LatitudeDegrees>
              <LongitudeDegrees>-0.206922031939029693603515625</LongitudeDegrees>
            </Position>
            <AltitudeMeters>2587</AltitudeMeters>
            <DistanceMeters>NAN</DistanceMeters>
          </Trackpoint>
          <Trackpoint>
            <Time>2021-07-18T05:45:20.000Z</Time>
            <Position>
              <LatitudeDegrees>42.72477203048765659332275390625</LatitudeDegrees>
              <LongitudeDegrees>-0.206924043595790863037109375</LongitudeDegrees>
            </Position>
            <AltitudeMeters>2587</AltitudeMeters>
            <DistanceMeters>NAN</DistanceMeters>
          </Trackpoint>
          <Trackpoint>
            <Time>2021-07-18T05:45:28.000Z</Time>
            <Position>
              <LatitudeDegrees>42.72477186284959316253662109375</LatitudeDegrees>
              <LongitudeDegrees>-0.2069245465099811553955078125</LongitudeDegrees>
            </Position>
            <AltitudeMeters>2587</AltitudeMeters>
            <DistanceMeters>NAN</DistanceMeters>
          </Trackpoint>
          <Trackpoint>
            <Time>2021-07-18T05:45:35.000Z</Time>
            <Position>
              <LatitudeDegrees>42.72477186284959316253662109375</LatitudeDegrees>
              <LongitudeDegrees>-0.20692496560513973236083984375</LongitudeDegrees>
            </Position>
            <AltitudeMeters>2587</AltitudeMeters>
            <DistanceMeters>NAN</DistanceMeters>
          </Trackpoint>
          <Trackpoint>
            <Time>2021-07-18T05:46:02.000Z</Time>
            <Position>
              <LatitudeDegrees>42.7247724495828151702880859375</LatitudeDegrees>
              <LongitudeDegrees>-0.20692639052867889404296875</LongitudeDegrees>
            </Position>
            <AltitudeMeters>2587</AltitudeMeters>
            <DistanceMeters>NAN</DistanceMeters>
          </Trackpoint>
          <Trackpoint>
            <Time>2021-07-18T05:46:04.000Z</Time>
            <Position>
              <LatitudeDegrees>42.7247724495828151702880859375</LatitudeDegrees>
              <LongitudeDegrees>-0.20692647434771060943603515625</LongitudeDegrees>
            </Position>
            <AltitudeMeters>2587</AltitudeMeters>
            <DistanceMeters>NAN</DistanceMeters>
          </Trackpoint>
          <Trackpoint>
            <Time>2021-07-18T05:46:07.000Z</Time>
            <Position>
              <LatitudeDegrees>42.72477253340184688568115234375</LatitudeDegrees>
              <LongitudeDegrees>-0.20692664198577404022216796875</LongitudeDegrees>
            </Position>
            <AltitudeMeters>2587</AltitudeMeters>
            <DistanceMeters>NAN</DistanceMeters>
          </Trackpoint>
          <Trackpoint>
            <Time>2021-07-18T05:46:12.000Z</Time>
            <Position>
              <LatitudeDegrees>42.72477253340184688568115234375</LatitudeDegrees>
              <LongitudeDegrees>-0.20692680962383747100830078125</LongitudeDegrees>
            </Position>
            <AltitudeMeters>2587</AltitudeMeters>
            <DistanceMeters>NAN</DistanceMeters>
          </Trackpoint>
          <Trackpoint>
            <Time>2021-07-18T05:46:24.000Z</Time>
            <Position>
              <LatitudeDegrees>42.72477261722087860107421875</LatitudeDegrees>
              <LongitudeDegrees>-0.206927396357059478759765625</LongitudeDegrees>
            </Position>
            <AltitudeMeters>2587</AltitudeMeters>
            <DistanceMeters>NAN</DistanceMeters>
          </Trackpoint>
          <Trackpoint>
            <Time>2021-07-18T05:46:27.000Z</Time>
            <Position>
              <LatitudeDegrees>42.72477261722087860107421875</LatitudeDegrees>
              <LongitudeDegrees>-0.2069275639951229095458984375</LongitudeDegrees>
            </Position>
            <AltitudeMeters>2587</AltitudeMeters>
            <DistanceMeters>NAN</DistanceMeters>
          </Trackpoint>
          <Trackpoint>
            <Time>2021-07-18T05:46:29.000Z</Time>
            <Position>
              <LatitudeDegrees>42.72477261722087860107421875</LatitudeDegrees>
              <LongitudeDegrees>-0.20692773163318634033203125</LongitudeDegrees>
            </Position>
            <AltitudeMeters>2587</AltitudeMeters>
            <DistanceMeters>NAN</DistanceMeters>
          </Trackpoint>
          <Trackpoint>
            <Time>2021-07-18T05:46:32.000Z</Time>
            <Position>
              <LatitudeDegrees>42.72477270103991031646728515625</LatitudeDegrees>
              <LongitudeDegrees>-0.2069278992712497711181640625</LongitudeDegrees>
            </Position>
            <AltitudeMeters>2587</AltitudeMeters>
            <DistanceMeters>NAN</DistanceMeters>
          </Trackpoint>
          <Trackpoint>
            <Time>2021-07-18T05:46:37.000Z</Time>
            <Position>
              <LatitudeDegrees>42.72477270103991031646728515625</LatitudeDegrees>
              <LongitudeDegrees>-0.2069282345473766326904296875</LongitudeDegrees>
            </Position>
            <AltitudeMeters>2587</AltitudeMeters>
            <DistanceMeters>NAN</DistanceMeters>
          </Trackpoint>
          <Trackpoint>
            <Time>2021-07-18T05:46:44.000Z</Time>
            <Position>
              <LatitudeDegrees>42.7247727848589420318603515625</LatitudeDegrees>
              <LongitudeDegrees>-0.20692865364253520965576171875</LongitudeDegrees>
            </Position>
            <AltitudeMeters>2587</AltitudeMeters>
            <DistanceMeters>NAN</DistanceMeters>
          </Trackpoint>
          <Trackpoint>
            <Time>2021-07-18T05:46:51.000Z</Time>
            <Position>
              <LatitudeDegrees>42.7247727848589420318603515625</LatitudeDegrees>
              <LongitudeDegrees>-0.20692907273769378662109375</LongitudeDegrees>
            </Position>
            <AltitudeMeters>2587</AltitudeMeters>
            <DistanceMeters>NAN</DistanceMeters>
          </Trackpoint>
          <Trackpoint>
            <Time>2021-07-18T05:47:03.000Z</Time>
            <Position>
              <LatitudeDegrees>42.724772952497005462646484375</LatitudeDegrees>
              <LongitudeDegrees>-0.20692949183285236358642578125</LongitudeDegrees>
            </Position>
            <AltitudeMeters>2587</AltitudeMeters>
            <DistanceMeters>NAN</DistanceMeters>
          </Trackpoint>
          <Trackpoint>
            <Time>2021-07-18T05:47:12.000Z</Time>
            <Position>
              <LatitudeDegrees>42.72477303631603717803955078125</LatitudeDegrees>
              <LongitudeDegrees>-0.206929743289947509765625</LongitudeDegrees>
            </Position>
            <AltitudeMeters>2587</AltitudeMeters>
            <DistanceMeters>NAN</DistanceMeters>
          </Trackpoint>
          <Trackpoint>
            <Time>2021-07-18T05:47:32.000Z</Time>
            <Position>
              <LatitudeDegrees>42.72477353923022747039794921875</LatitudeDegrees>
              <LongitudeDegrees>-0.20693049766123294830322265625</LongitudeDegrees>
            </Position>
            <AltitudeMeters>2587</AltitudeMeters>
            <DistanceMeters>NAN</DistanceMeters>
          </Trackpoint>
          <Trackpoint>
            <Time>2021-07-18T05:47:33.000Z</Time>
            <Position>
              <LatitudeDegrees>42.724773623049259185791015625</LatitudeDegrees>
              <LongitudeDegrees>-0.20693049766123294830322265625</LongitudeDegrees>
            </Position>
            <AltitudeMeters>2587</AltitudeMeters>
            <DistanceMeters>NAN</DistanceMeters>
          </Trackpoint>
          <Trackpoint>
            <Time>2021-07-18T05:47:37.000Z</Time>
            <Position>
              <LatitudeDegrees>42.72477370686829090118408203125</LatitudeDegrees>
              <LongitudeDegrees>-0.20693066529929637908935546875</LongitudeDegrees>
            </Position>
            <AltitudeMeters>2587</AltitudeMeters>
            <DistanceMeters>NAN</DistanceMeters>
          </Trackpoint>
          <Trackpoint>
            <Time>2021-07-18T05:47:43.000Z</Time>
            <Position>
              <LatitudeDegrees>42.7247737906873226165771484375</LatitudeDegrees>
              <LongitudeDegrees>-0.2069309167563915252685546875</LongitudeDegrees>
            </Position>
            <AltitudeMeters>2587</AltitudeMeters>
            <DistanceMeters>NAN</DistanceMeters>
          </Trackpoint>
          <Trackpoint>
            <Time>2021-07-18T05:48:02.000Z</Time>
            <Position>
              <LatitudeDegrees>42.7247741259634494781494140625</LatitudeDegrees>
              <LongitudeDegrees>-0.20693100057542324066162109375</LongitudeDegrees>
            </Position>
            <AltitudeMeters>2587</AltitudeMeters>
            <DistanceMeters>NAN</DistanceMeters>
          </Trackpoint>
          <Trackpoint>
            <Time>2021-07-18T05:48:09.000Z</Time>
            <Position>
              <LatitudeDegrees>42.724774293601512908935546875</LatitudeDegrees>
              <LongitudeDegrees>-0.2069309167563915252685546875</LongitudeDegrees>
            </Position>
            <AltitudeMeters>2587</AltitudeMeters>
            <DistanceMeters>NAN</DistanceMeters>
          </Trackpoint>
          <Trackpoint>
            <Time>2021-07-18T05:48:16.000Z</Time>
            <Position>
              <LatitudeDegrees>42.7247744612395763397216796875</LatitudeDegrees>
              <LongitudeDegrees>-0.2069309167563915252685546875</LongitudeDegrees>
            </Position>
            <AltitudeMeters>2587</AltitudeMeters>
            <DistanceMeters>NAN</DistanceMeters>
          </Trackpoint>
          <Trackpoint>
            <Time>2021-07-18T05:48:20.000Z</Time>
            <Position>
              <LatitudeDegrees>42.72477454505860805511474609375</LatitudeDegrees>
              <LongitudeDegrees>-0.2069309167563915252685546875</LongitudeDegrees>
            </Position>
            <AltitudeMeters>2587</AltitudeMeters>
            <DistanceMeters>NAN</DistanceMeters>
          </Trackpoint>
          <Trackpoint>
            <Time>2021-07-18T05:48:34.000Z</Time>
            <Position>
              <LatitudeDegrees>42.72477488033473491668701171875</LatitudeDegrees>
              <LongitudeDegrees>-0.2069309167563915252685546875</LongitudeDegrees>
            </Position>
            <AltitudeMeters>2587</AltitudeMeters>
            <DistanceMeters>NAN</DistanceMeters>
          </Trackpoint>
          <Trackpoint>
            <Time>2021-07-18T05:48:36.000Z</Time>
            <Position>
              <LatitudeDegrees>42.72477488033473491668701171875</LatitudeDegrees>
              <LongitudeDegrees>-0.2069309167563915252685546875</LongitudeDegrees>
            </Position>
            <AltitudeMeters>2587</AltitudeMeters>
            <DistanceMeters>NAN</DistanceMeters>
          </Trackpoint>
          <Trackpoint>
            <Time>2021-07-18T05:48:39.000Z</Time>
            <Position>
              <LatitudeDegrees>42.724774964153766632080078125</LatitudeDegrees>
              <LongitudeDegrees>-0.2069309167563915252685546875</LongitudeDegrees>
            </Position>
            <AltitudeMeters>2587</AltitudeMeters>
            <DistanceMeters>NAN</DistanceMeters>
          </Trackpoint>
          <Trackpoint>
            <Time>2021-07-18T05:48:58.000Z</Time>
            <Position>
              <LatitudeDegrees>42.7247754670679569244384765625</LatitudeDegrees>
              <LongitudeDegrees>-0.20693083293735980987548828125</LongitudeDegrees>
            </Position>
            <AltitudeMeters>2587</AltitudeMeters>
            <DistanceMeters>NAN</DistanceMeters>
          </Trackpoint>
          <Trackpoint>
            <Time>2021-07-18T05:49:01.000Z</Time>
            <Position>
              <LatitudeDegrees>42.72477555088698863983154296875</LatitudeDegrees>
              <LongitudeDegrees>-0.2069309167563915252685546875</LongitudeDegrees>
            </Position>
            <AltitudeMeters>2587</AltitudeMeters>
            <DistanceMeters>NAN</DistanceMeters>
          </Trackpoint>
          <Trackpoint>
            <Time>2021-07-18T05:49:30.000Z</Time>
            <Position>
              <LatitudeDegrees>42.724775969982147216796875</LatitudeDegrees>
              <LongitudeDegrees>-0.20693167112767696380615234375</LongitudeDegrees>
            </Position>
            <AltitudeMeters>2587</AltitudeMeters>
            <DistanceMeters>NAN</DistanceMeters>
          </Trackpoint>
          <Trackpoint>
            <Time>2021-07-18T05:49:43.000Z</Time>
            <Position>
              <LatitudeDegrees>42.7247761376202106475830078125</LatitudeDegrees>
              <LongitudeDegrees>-0.20693183876574039459228515625</LongitudeDegrees>
            </Position>
            <AltitudeMeters>2587</AltitudeMeters>
            <DistanceMeters>NAN</DistanceMeters>
          </Trackpoint>
          <Trackpoint>
            <Time>2021-07-18T05:49:48.000Z</Time>
            <Position>
              <LatitudeDegrees>42.7247761376202106475830078125</LatitudeDegrees>
              <LongitudeDegrees>-0.2069319225847721099853515625</LongitudeDegrees>
            </Position>
            <AltitudeMeters>2587</AltitudeMeters>
            <DistanceMeters>NAN</DistanceMeters>
          </Trackpoint>
          <Trackpoint>
            <Time>2021-07-18T05:50:08.000Z</Time>
            <Position>
              <LatitudeDegrees>42.72477203048765659332275390625</LatitudeDegrees>
              <LongitudeDegrees>-0.2069335989654064178466796875</LongitudeDegrees>
            </Position>
            <AltitudeMeters>2586.800048828125</AltitudeMeters>
            <DistanceMeters>NAN</DistanceMeters>
          </Trackpoint>
          <Trackpoint>
            <Time>2021-07-18T05:50:12.000Z</Time>
            <Position>
              <LatitudeDegrees>42.72475786507129669189453125</LatitudeDegrees>
              <LongitudeDegrees>-0.2069470100104808807373046875</LongitudeDegrees>
            </Position>
            <AltitudeMeters>2586.60009765625</AltitudeMeters>
            <DistanceMeters>NAN</DistanceMeters>
          </Trackpoint>
          <Trackpoint>
            <Time>2021-07-18T05:50:25.000Z</Time>
            <Position>
              <LatitudeDegrees>42.72473481483757495880126953125</LatitudeDegrees>
              <LongitudeDegrees>-0.20695899613201618194580078125</LongitudeDegrees>
            </Position>
            <AltitudeMeters>2586</AltitudeMeters>
            <DistanceMeters>NAN</DistanceMeters>
          </Trackpoint>
          <Trackpoint>
            <Time>2021-07-18T05:50:29.000Z</Time>
            <Position>
              <LatitudeDegrees>42.724733054637908935546875</LatitudeDegrees>
              <LongitudeDegrees>-0.20696301944553852081298828125</LongitudeDegrees>
            </Position>
            <AltitudeMeters>2586</AltitudeMeters>
            <DistanceMeters>NAN</DistanceMeters>
          </Trackpoint>
          <Trackpoint>
            <Time>2021-07-18T05:50:31.000Z</Time>
            <Position>
              <LatitudeDegrees>42.72473179735243320465087890625</LatitudeDegrees>
              <LongitudeDegrees>-0.20696318708360195159912109375</LongitudeDegrees>
            </Position>
            <AltitudeMeters>2586</AltitudeMeters>
            <DistanceMeters>NAN</DistanceMeters>
          </Trackpoint>
          <Trackpoint>
            <Time>2021-07-18T05:50:33.000Z</Time>
            <Position>
              <LatitudeDegrees>42.724730037152767181396484375</LatitudeDegrees>
              <LongitudeDegrees>-0.20696436055004596710205078125</LongitudeDegrees>
            </Position>
            <AltitudeMeters>2586</AltitudeMeters>
            <DistanceMeters>NAN</DistanceMeters>
          </Trackpoint>
          <Trackpoint>
            <Time>2021-07-18T05:51:47.000Z</Time>
            <Position>
              <LatitudeDegrees>42.724785022437572479248046875</LatitudeDegrees>
              <LongitudeDegrees>-0.2069741673767566680908203125</LongitudeDegrees>
            </Position>
            <AltitudeMeters>2586.39990234375</AltitudeMeters>
            <DistanceMeters>NAN</DistanceMeters>
          </Trackpoint>
          <Trackpoint>
            <Time>2021-07-18T05:51:53.000Z</Time>
            <Position>
              <LatitudeDegrees>42.72481226362287998199462890625</LatitudeDegrees>
              <LongitudeDegrees>-0.20691406913101673126220703125</LongitudeDegrees>
            </Position>
            <AltitudeMeters>2586.199951171875</AltitudeMeters>
            <DistanceMeters>NAN</DistanceMeters>
          </Trackpoint>
          <Trackpoint>
            <Time>2021-07-18T05:51:57.000Z</Time>
            <Position>
              <LatitudeDegrees>42.72480270825326442718505859375</LatitudeDegrees>
              <LongitudeDegrees>-0.2069064415991306304931640625</LongitudeDegrees>
            </Position>
            <AltitudeMeters>2586.60009765625</AltitudeMeters>
            <DistanceMeters>NAN</DistanceMeters>
          </Trackpoint>
          <Trackpoint>
            <Time>2021-07-18T05:52:04.000Z</Time>
            <Position>
              <LatitudeDegrees>42.72479717619717121124267578125</LatitudeDegrees>
              <LongitudeDegrees>-0.2069030888378620147705078125</LongitudeDegrees>
            </Position>
            <AltitudeMeters>2587</AltitudeMeters>
            <DistanceMeters>NAN</DistanceMeters>
          </Trackpoint>
          <Trackpoint>
            <Time>2021-07-18T05:52:32.000Z</Time>
            <Position>
              <LatitudeDegrees>42.72480438463389873504638671875</LatitudeDegrees>
              <LongitudeDegrees>-0.20690551958978176116943359375</LongitudeDegrees>
            </Position>
            <AltitudeMeters>2586.60009765625</AltitudeMeters>
            <DistanceMeters>NAN</DistanceMeters>
          </Trackpoint>
          <Trackpoint>
            <Time>2021-07-18T05:52:37.000Z</Time>
            <Position>
              <LatitudeDegrees>42.7248106710612773895263671875</LatitudeDegrees>
              <LongitudeDegrees>-0.20688707940280437469482421875</LongitudeDegrees>
            </Position>
            <AltitudeMeters>2586.60009765625</AltitudeMeters>
            <DistanceMeters>NAN</DistanceMeters>
          </Trackpoint>
          <Trackpoint>
            <Time>2021-07-18T05:52:41.000Z</Time>
            <Position>
              <LatitudeDegrees>42.72481075488030910491943359375</LatitudeDegrees>
              <LongitudeDegrees>-0.206886827945709228515625</LongitudeDegrees>
            </Position>
            <AltitudeMeters>2586.60009765625</AltitudeMeters>
            <DistanceMeters>NAN</DistanceMeters>
          </Trackpoint>
          <Trackpoint>
            <Time>2021-07-18T05:52:45.000Z</Time>
            <Position>
              <LatitudeDegrees>42.72481075488030910491943359375</LatitudeDegrees>
              <LongitudeDegrees>-0.206886827945709228515625</LongitudeDegrees>
            </Position>
            <AltitudeMeters>2586.60009765625</AltitudeMeters>
            <DistanceMeters>NAN</DistanceMeters>
          </Trackpoint>
          <Trackpoint>
            <Time>2021-07-18T05:52:50.000Z</Time>
            <Position>
              <LatitudeDegrees>42.72480924613773822784423828125</LatitudeDegrees>
              <LongitudeDegrees>-0.206886827945709228515625</LongitudeDegrees>
            </Position>
            <AltitudeMeters>2586.60009765625</AltitudeMeters>
            <DistanceMeters>NAN</DistanceMeters>
          </Trackpoint>
          <Trackpoint>
            <Time>2021-07-18T05:53:16.000Z</Time>
            <Position>
              <LatitudeDegrees>42.7247831784188747406005859375</LatitudeDegrees>
              <LongitudeDegrees>-0.206924043595790863037109375</LongitudeDegrees>
            </Position>
            <AltitudeMeters>2587.199951171875</AltitudeMeters>
            <DistanceMeters>NAN</DistanceMeters>
          </Trackpoint>
          <Trackpoint>
            <Time>2021-07-18T05:53:19.000Z</Time>
            <Position>
              <LatitudeDegrees>42.72478058002889156341552734375</LatitudeDegrees>
              <LongitudeDegrees>-0.20692680962383747100830078125</LongitudeDegrees>
            </Position>
            <AltitudeMeters>2587</AltitudeMeters>
            <DistanceMeters>NAN</DistanceMeters>
          </Trackpoint>
          <Trackpoint>
            <Time>2021-07-18T05:53:29.000Z</Time>
            <Position>
              <LatitudeDegrees>42.72477270103991031646728515625</LatitudeDegrees>
              <LongitudeDegrees>-0.20693309605121612548828125</LongitudeDegrees>
            </Position>
            <AltitudeMeters>2586.800048828125</AltitudeMeters>
            <DistanceMeters>NAN</DistanceMeters>
          </Trackpoint>
          <Trackpoint>
            <Time>2021-07-18T05:53:44.000Z</Time>
            <Position>
              <LatitudeDegrees>42.724771611392498016357421875</LatitudeDegrees>
              <LongitudeDegrees>-0.20694089122116565704345703125</LongitudeDegrees>
            </Position>
            <AltitudeMeters>2586.800048828125</AltitudeMeters>
            <DistanceMeters>NAN</DistanceMeters>
          </Trackpoint>
          <Trackpoint>
            <Time>2021-07-18T05:53:46.000Z</Time>
            <Position>
              <LatitudeDegrees>42.72477270103991031646728515625</LatitudeDegrees>
              <LongitudeDegrees>-0.20694784820079803466796875</LongitudeDegrees>
            </Position>
            <AltitudeMeters>2586.60009765625</AltitudeMeters>
            <DistanceMeters>NAN</DistanceMeters>
          </Trackpoint>
          <Trackpoint>
            <Time>2021-07-18T05:54:06.000Z</Time>
            <Position>
              <LatitudeDegrees>42.7247794903814792633056640625</LatitudeDegrees>
              <LongitudeDegrees>-0.20695631392300128936767578125</LongitudeDegrees>
            </Position>
            <AltitudeMeters>2586.60009765625</AltitudeMeters>
            <DistanceMeters>NAN</DistanceMeters>
          </Trackpoint>
          <Trackpoint>
            <Time>2021-07-18T05:54:22.000Z</Time>
            <Position>
              <LatitudeDegrees>42.7247784845530986785888671875</LatitudeDegrees>
              <LongitudeDegrees>-0.20696989260613918304443359375</LongitudeDegrees>
            </Position>
            <AltitudeMeters>2586.39990234375</AltitudeMeters>
            <DistanceMeters>NAN</DistanceMeters>
          </Trackpoint>
          <Trackpoint>
            <Time>2021-07-18T05:54:43.000Z</Time>
            <Position>
              <LatitudeDegrees>42.72477756254374980926513671875</LatitudeDegrees>
              <LongitudeDegrees>-0.2069677971303462982177734375</LongitudeDegrees>
            </Position>
            <AltitudeMeters>2586.39990234375</AltitudeMeters>
            <DistanceMeters>NAN</DistanceMeters>
          </Trackpoint>
          <Trackpoint>
            <Time>2021-07-18T05:54:45.000Z</Time>
            <Position>
              <LatitudeDegrees>42.72477756254374980926513671875</LatitudeDegrees>
              <LongitudeDegrees>-0.20696754567325115203857421875</LongitudeDegrees>
            </Position>
            <AltitudeMeters>2586.39990234375</AltitudeMeters>
            <DistanceMeters>NAN</DistanceMeters>
          </Trackpoint>
          <Trackpoint>
            <Time>2021-07-18T05:54:48.000Z</Time>
            <Position>
              <LatitudeDegrees>42.72477773018181324005126953125</LatitudeDegrees>
              <LongitudeDegrees>-0.20696704275906085968017578125</LongitudeDegrees>
            </Position>
            <AltitudeMeters>2586.39990234375</AltitudeMeters>
            <DistanceMeters>NAN</DistanceMeters>
          </Trackpoint>
          <Trackpoint>
            <Time>2021-07-18T05:54:53.000Z</Time>
            <Position>
              <LatitudeDegrees>42.72477789781987667083740234375</LatitudeDegrees>
              <LongitudeDegrees>-0.2069657854735851287841796875</LongitudeDegrees>
            </Position>
            <AltitudeMeters>2586.39990234375</AltitudeMeters>
            <DistanceMeters>NAN</DistanceMeters>
          </Trackpoint>
          <Trackpoint>
            <Time>2021-07-18T05:55:00.000Z</Time>
            <Position>
              <LatitudeDegrees>42.7247788198292255401611328125</LatitudeDegrees>
              <LongitudeDegrees>-0.20696385763585567474365234375</LongitudeDegrees>
            </Position>
            <AltitudeMeters>2586.39990234375</AltitudeMeters>
            <DistanceMeters>NAN</DistanceMeters>
          </Trackpoint>
          <Trackpoint>
            <Time>2021-07-18T05:55:12.000Z</Time>
            <Position>
              <LatitudeDegrees>42.72478200495243072509765625</LatitudeDegrees>
              <LongitudeDegrees>-0.20696251653134822845458984375</LongitudeDegrees>
            </Position>
            <AltitudeMeters>2586.60009765625</AltitudeMeters>
            <DistanceMeters>NAN</DistanceMeters>
          </Trackpoint>
          <Trackpoint>
            <Time>2021-07-18T05:55:17.000Z</Time>
            <Position>
              <LatitudeDegrees>42.7247825078666210174560546875</LatitudeDegrees>
              <LongitudeDegrees>-0.20696234889328479766845703125</LongitudeDegrees>
            </Position>
            <AltitudeMeters>2586.60009765625</AltitudeMeters>
            <DistanceMeters>NAN</DistanceMeters>
          </Trackpoint>
          <Trackpoint>
            <Time>2021-07-18T05:55:58.000Z</Time>
            <Position>
              <LatitudeDegrees>42.724782340228557586669921875</LatitudeDegrees>
              <LongitudeDegrees>-0.20696234889328479766845703125</LongitudeDegrees>
            </Position>
            <AltitudeMeters>2586.60009765625</AltitudeMeters>
            <DistanceMeters>NAN</DistanceMeters>
          </Trackpoint>
          <Trackpoint>
            <Time>2021-07-18T05:56:07.000Z</Time>
            <Position>
              <LatitudeDegrees>42.72478208877146244049072265625</LatitudeDegrees>
              <LongitudeDegrees>-0.2069620974361896514892578125</LongitudeDegrees>
            </Position>
            <AltitudeMeters>2586.60009765625</AltitudeMeters>
            <DistanceMeters>NAN</DistanceMeters>
          </Trackpoint>
          <Trackpoint>
            <Time>2021-07-18T05:56:32.000Z</Time>
            <Position>
              <LatitudeDegrees>42.72478108294308185577392578125</LatitudeDegrees>
              <LongitudeDegrees>-0.20696134306490421295166015625</LongitudeDegrees>
            </Position>
            <AltitudeMeters>2586.60009765625</AltitudeMeters>
            <DistanceMeters>NAN</DistanceMeters>
          </Trackpoint>
          <Trackpoint>
            <Time>2021-07-18T05:56:39.000Z</Time>
            <Position>
              <LatitudeDegrees>42.72478066384792327880859375</LatitudeDegrees>
              <LongitudeDegrees>-0.20696117542684078216552734375</LongitudeDegrees>
            </Position>
            <AltitudeMeters>2586.60009765625</AltitudeMeters>
            <DistanceMeters>NAN</DistanceMeters>
          </Trackpoint>
          <Trackpoint>
            <Time>2021-07-18T05:56:53.000Z</Time>
            <Position>
              <LatitudeDegrees>42.72477990947663784027099609375</LatitudeDegrees>
              <LongitudeDegrees>-0.20696050487458705902099609375</LongitudeDegrees>
            </Position>
            <AltitudeMeters>2586.60009765625</AltitudeMeters>
            <DistanceMeters>NAN</DistanceMeters>
          </Trackpoint>
          <Trackpoint>
            <Time>2021-07-18T05:56:59.000Z</Time>
            <Position>
              <LatitudeDegrees>42.72477957420051097869873046875</LatitudeDegrees>
              <LongitudeDegrees>-0.206960253417491912841796875</LongitudeDegrees>
            </Position>
            <AltitudeMeters>2586.60009765625</AltitudeMeters>
            <DistanceMeters>NAN</DistanceMeters>
          </Trackpoint>
          <Trackpoint>
            <Time>2021-07-18T05:57:02.000Z</Time>
            <Position>
              <LatitudeDegrees>42.7247794903814792633056640625</LatitudeDegrees>
              <LongitudeDegrees>-0.2069600857794284820556640625</LongitudeDegrees>
            </Position>
            <AltitudeMeters>2586.60009765625</AltitudeMeters>
            <DistanceMeters>NAN</DistanceMeters>
          </Trackpoint>
          <Trackpoint>
            <Time>2021-07-18T05:57:12.000Z</Time>
            <Position>
              <LatitudeDegrees>42.72477890364825725555419921875</LatitudeDegrees>
              <LongitudeDegrees>-0.20695966668426990509033203125</LongitudeDegrees>
            </Position>
            <AltitudeMeters>2586.60009765625</AltitudeMeters>
            <DistanceMeters>NAN</DistanceMeters>
          </Trackpoint>
          <Trackpoint>
            <Time>2021-07-18T05:57:46.000Z</Time>
            <Position>
              <LatitudeDegrees>42.72477806545794010162353515625</LatitudeDegrees>
              <LongitudeDegrees>-0.20695899613201618194580078125</LongitudeDegrees>
            </Position>
            <AltitudeMeters>2586.60009765625</AltitudeMeters>
            <DistanceMeters>NAN</DistanceMeters>
          </Trackpoint>
          <Trackpoint>
            <Time>2021-07-18T05:58:04.000Z</Time>
            <Position>
              <LatitudeDegrees>42.7247781492769718170166015625</LatitudeDegrees>
              <LongitudeDegrees>-0.20695857703685760498046875</LongitudeDegrees>
            </Position>
            <AltitudeMeters>2586.60009765625</AltitudeMeters>
            <DistanceMeters>NAN</DistanceMeters>
          </Trackpoint>
          <Trackpoint>
            <Time>2021-07-18T05:58:57.000Z</Time>
            <Position>
              <LatitudeDegrees>42.72477890364825725555419921875</LatitudeDegrees>
              <LongitudeDegrees>-0.2069567330181598663330078125</LongitudeDegrees>
            </Position>
            <AltitudeMeters>2586.60009765625</AltitudeMeters>
            <DistanceMeters>NAN</DistanceMeters>
          </Trackpoint>
          <Trackpoint>
            <Time>2021-07-18T05:59:06.000Z</Time>
            <Position>
              <LatitudeDegrees>42.72477907128632068634033203125</LatitudeDegrees>
              <LongitudeDegrees>-0.20695631392300128936767578125</LongitudeDegrees>
            </Position>
            <AltitudeMeters>2586.60009765625</AltitudeMeters>
            <DistanceMeters>NAN</DistanceMeters>
          </Trackpoint>
          <Trackpoint>
            <Time>2021-07-18T05:59:08.000Z</Time>
            <Position>
              <LatitudeDegrees>42.7247791551053524017333984375</LatitudeDegrees>
              <LongitudeDegrees>-0.206956230103969573974609375</LongitudeDegrees>
            </Position>
            <AltitudeMeters>2586.60009765625</AltitudeMeters>
            <DistanceMeters>NAN</DistanceMeters>
          </Trackpoint>
          <Trackpoint>
            <Time>2021-07-18T05:59:18.000Z</Time>
            <Position>
              <LatitudeDegrees>42.72477940656244754791259765625</LatitudeDegrees>
              <LongitudeDegrees>-0.20695589482784271240234375</LongitudeDegrees>
            </Position>
            <AltitudeMeters>2586.60009765625</AltitudeMeters>
            <DistanceMeters>NAN</DistanceMeters>
          </Trackpoint>
          <Trackpoint>
            <Time>2021-07-18T05:59:31.000Z</Time>
            <Position>
              <LatitudeDegrees>42.724779658019542694091796875</LatitudeDegrees>
              <LongitudeDegrees>-0.20695564337074756622314453125</LongitudeDegrees>
            </Position>
            <AltitudeMeters>2586.60009765625</AltitudeMeters>
            <DistanceMeters>NAN</DistanceMeters>
          </Trackpoint>
          <Trackpoint>
            <Time>2021-07-18T06:00:19.000Z</Time>
            <Position>
              <LatitudeDegrees>42.7247808314859867095947265625</LatitudeDegrees>
              <LongitudeDegrees>-0.2069557271897792816162109375</LongitudeDegrees>
            </Position>
            <AltitudeMeters>2586.60009765625</AltitudeMeters>
            <DistanceMeters>NAN</DistanceMeters>
          </Trackpoint>
          <Trackpoint>
            <Time>2021-07-18T06:00:34.000Z</Time>
            <Position>
              <LatitudeDegrees>42.72478108294308185577392578125</LatitudeDegrees>
              <LongitudeDegrees>-0.2069560624659061431884765625</LongitudeDegrees>
            </Position>
            <AltitudeMeters>2586.60009765625</AltitudeMeters>
            <DistanceMeters>NAN</DistanceMeters>
          </Trackpoint>
          <Trackpoint>
            <Time>2021-07-18T06:00:41.000Z</Time>
            <Position>
              <LatitudeDegrees>42.7247811667621135711669921875</LatitudeDegrees>
              <LongitudeDegrees>-0.20695581100881099700927734375</LongitudeDegrees>
            </Position>
            <AltitudeMeters>2586.60009765625</AltitudeMeters>
            <DistanceMeters>NAN</DistanceMeters>
          </Trackpoint>
          <Trackpoint>
            <Time>2021-07-18T06:00:49.000Z</Time>
            <Position>
              <LatitudeDegrees>42.7247811667621135711669921875</LatitudeDegrees>
              <LongitudeDegrees>-0.20695547573268413543701171875</LongitudeDegrees>
            </Position>
            <AltitudeMeters>2586.60009765625</AltitudeMeters>
            <DistanceMeters>NAN</DistanceMeters>
          </Trackpoint>
          <Trackpoint>
            <Time>2021-07-18T06:01:03.000Z</Time>
            <Position>
              <LatitudeDegrees>42.7247811667621135711669921875</LatitudeDegrees>
              <LongitudeDegrees>-0.20695497281849384307861328125</LongitudeDegrees>
            </Position>
            <AltitudeMeters>2586.60009765625</AltitudeMeters>
            <DistanceMeters>NAN</DistanceMeters>
          </Trackpoint>
          <Trackpoint>
            <Time>2021-07-18T06:01:14.000Z</Time>
            <Position>
              <LatitudeDegrees>42.72478125058114528656005859375</LatitudeDegrees>
              <LongitudeDegrees>-0.20695455372333526611328125</LongitudeDegrees>
            </Position>
            <AltitudeMeters>2586.60009765625</AltitudeMeters>
            <DistanceMeters>NAN</DistanceMeters>
          </Trackpoint>
          <Trackpoint>
            <Time>2021-07-18T06:02:05.000Z</Time>
            <Position>
              <LatitudeDegrees>42.7247811667621135711669921875</LatitudeDegrees>
              <LongitudeDegrees>-0.20695312879979610443115234375</LongitudeDegrees>
            </Position>
            <AltitudeMeters>2586.60009765625</AltitudeMeters>
            <DistanceMeters>NAN</DistanceMeters>
          </Trackpoint>
          <Trackpoint>
            <Time>2021-07-18T06:02:07.000Z</Time>
            <Position>
              <LatitudeDegrees>42.7247811667621135711669921875</LatitudeDegrees>
              <LongitudeDegrees>-0.2069530449807643890380859375</LongitudeDegrees>
            </Position>
            <AltitudeMeters>2586.60009765625</AltitudeMeters>
            <DistanceMeters>NAN</DistanceMeters>
          </Trackpoint>
          <Trackpoint>
            <Time>2021-07-18T06:02:15.000Z</Time>
            <Position>
              <LatitudeDegrees>42.7247811667621135711669921875</LatitudeDegrees>
              <LongitudeDegrees>-0.20695279352366924285888671875</LongitudeDegrees>
            </Position>
            <AltitudeMeters>2586.60009765625</AltitudeMeters>
            <DistanceMeters>NAN</DistanceMeters>
          </Trackpoint>
          <Trackpoint>
            <Time>2021-07-18T06:02:25.000Z</Time>
            <Position>
              <LatitudeDegrees>42.7247811667621135711669921875</LatitudeDegrees>
              <LongitudeDegrees>-0.2069525420665740966796875</LongitudeDegrees>
            </Position>
            <AltitudeMeters>2586.60009765625</AltitudeMeters>
            <DistanceMeters>NAN</DistanceMeters>
          </Trackpoint>
          <Trackpoint>
            <Time>2021-07-18T06:02:31.000Z</Time>
            <Position>
              <LatitudeDegrees>42.7247811667621135711669921875</LatitudeDegrees>
              <LongitudeDegrees>-0.20695245824754238128662109375</LongitudeDegrees>
            </Position>
            <AltitudeMeters>2586.60009765625</AltitudeMeters>
            <DistanceMeters>NAN</DistanceMeters>
          </Trackpoint>
          <Trackpoint>
            <Time>2021-07-18T06:02:50.000Z</Time>
            <Position>
              <LatitudeDegrees>42.724781334400177001953125</LatitudeDegrees>
              <LongitudeDegrees>-0.20695212297141551971435546875</LongitudeDegrees>
            </Position>
            <AltitudeMeters>2586.60009765625</AltitudeMeters>
            <DistanceMeters>NAN</DistanceMeters>
          </Trackpoint>
          <Trackpoint>
            <Time>2021-07-18T06:02:52.000Z</Time>
            <Position>
              <LatitudeDegrees>42.72478141821920871734619140625</LatitudeDegrees>
              <LongitudeDegrees>-0.20695212297141551971435546875</LongitudeDegrees>
            </Position>
            <AltitudeMeters>2586.60009765625</AltitudeMeters>
            <DistanceMeters>NAN</DistanceMeters>
          </Trackpoint>
          <Trackpoint>
            <Time>2021-07-18T06:03:05.000Z</Time>
            <Position>
              <LatitudeDegrees>42.7247815020382404327392578125</LatitudeDegrees>
              <LongitudeDegrees>-0.20695178769528865814208984375</LongitudeDegrees>
            </Position>
            <AltitudeMeters>2586.60009765625</AltitudeMeters>
            <DistanceMeters>NAN</DistanceMeters>
          </Trackpoint>
          <Trackpoint>
            <Time>2021-07-18T06:03:08.000Z</Time>
            <Position>
              <LatitudeDegrees>42.7247815020382404327392578125</LatitudeDegrees>
              <LongitudeDegrees>-0.2069517038762569427490234375</LongitudeDegrees>
            </Position>
            <AltitudeMeters>2586.60009765625</AltitudeMeters>
            <DistanceMeters>NAN</DistanceMeters>
          </Trackpoint>
          <Trackpoint>
            <Time>2021-07-18T06:03:32.000Z</Time>
            <Position>
              <LatitudeDegrees>42.72478141821920871734619140625</LatitudeDegrees>
              <LongitudeDegrees>-0.20695111714303493499755859375</LongitudeDegrees>
            </Position>
            <AltitudeMeters>2586.60009765625</AltitudeMeters>
            <DistanceMeters>NAN</DistanceMeters>
          </Trackpoint>
          <Trackpoint>
            <Time>2021-07-18T06:03:39.000Z</Time>
            <Position>
              <LatitudeDegrees>42.72478141821920871734619140625</LatitudeDegrees>
              <LongitudeDegrees>-0.20695094950497150421142578125</LongitudeDegrees>
            </Position>
            <AltitudeMeters>2586.60009765625</AltitudeMeters>
            <DistanceMeters>NAN</DistanceMeters>
          </Trackpoint>
          <Trackpoint>
            <Time>2021-07-18T06:03:46.000Z</Time>
            <Position>
              <LatitudeDegrees>42.72478141821920871734619140625</LatitudeDegrees>
              <LongitudeDegrees>-0.20695078186690807342529296875</LongitudeDegrees>
            </Position>
            <AltitudeMeters>2586.800048828125</AltitudeMeters>
            <DistanceMeters>NAN</DistanceMeters>
          </Trackpoint>
          <Trackpoint>
            <Time>2021-07-18T06:04:05.000Z</Time>
            <Position>
              <LatitudeDegrees>42.724781334400177001953125</LatitudeDegrees>
              <LongitudeDegrees>-0.20695027895271778106689453125</LongitudeDegrees>
            </Position>
            <AltitudeMeters>2586.800048828125</AltitudeMeters>
            <DistanceMeters>NAN</DistanceMeters>
          </Trackpoint>
          <Trackpoint>
            <Time>2021-07-18T06:04:16.000Z</Time>
            <Position>
              <LatitudeDegrees>42.72478141821920871734619140625</LatitudeDegrees>
              <LongitudeDegrees>-0.20695011131465435028076171875</LongitudeDegrees>
            </Position>
            <AltitudeMeters>2586.800048828125</AltitudeMeters>
            <DistanceMeters>NAN</DistanceMeters>
          </Trackpoint>
          <Trackpoint>
            <Time>2021-07-18T06:04:30.000Z</Time>
            <Position>
              <LatitudeDegrees>42.7247815020382404327392578125</LatitudeDegrees>
              <LongitudeDegrees>-0.206949524581432342529296875</LongitudeDegrees>
            </Position>
            <AltitudeMeters>2586.800048828125</AltitudeMeters>
            <DistanceMeters>NAN</DistanceMeters>
          </Trackpoint>
          <Trackpoint>
            <Time>2021-07-18T06:04:33.000Z</Time>
            <Position>
              <LatitudeDegrees>42.72478158585727214813232421875</LatitudeDegrees>
              <LongitudeDegrees>-0.20694927312433719635009765625</LongitudeDegrees>
            </Position>
            <AltitudeMeters>2586.800048828125</AltitudeMeters>
            <DistanceMeters>NAN</DistanceMeters>
          </Trackpoint>
          <Trackpoint>
            <Time>2021-07-18T06:04:36.000Z</Time>
            <Position>
              <LatitudeDegrees>42.72478158585727214813232421875</LatitudeDegrees>
              <LongitudeDegrees>-0.2069490216672420501708984375</LongitudeDegrees>
            </Position>
            <AltitudeMeters>2586.800048828125</AltitudeMeters>
            <DistanceMeters>NAN</DistanceMeters>
          </Trackpoint>
          <Trackpoint>
            <Time>2021-07-18T06:04:49.000Z</Time>
            <Position>
              <LatitudeDegrees>42.72478175349533557891845703125</LatitudeDegrees>
              <LongitudeDegrees>-0.20694784820079803466796875</LongitudeDegrees>
            </Position>
            <AltitudeMeters>2586.800048828125</AltitudeMeters>
            <DistanceMeters>NAN</DistanceMeters>
          </Trackpoint>
          <Trackpoint>
            <Time>2021-07-18T06:05:01.000Z</Time>
            <Position>
              <LatitudeDegrees>42.72478125058114528656005859375</LatitudeDegrees>
              <LongitudeDegrees>-0.20694592036306858062744140625</LongitudeDegrees>
            </Position>
            <AltitudeMeters>2586.800048828125</AltitudeMeters>
            <DistanceMeters>NAN</DistanceMeters>
          </Trackpoint>
          <Trackpoint>
            <Time>2021-07-18T06:05:06.000Z</Time>
            <Position>
              <LatitudeDegrees>42.72478074766695499420166015625</LatitudeDegrees>
              <LongitudeDegrees>-0.2069446630775928497314453125</LongitudeDegrees>
            </Position>
            <AltitudeMeters>2586.800048828125</AltitudeMeters>
            <DistanceMeters>NAN</DistanceMeters>
          </Trackpoint>
          <Trackpoint>
            <Time>2021-07-18T06:05:10.000Z</Time>
            <Position>
              <LatitudeDegrees>42.72478024475276470184326171875</LatitudeDegrees>
              <LongitudeDegrees>-0.2069436572492122650146484375</LongitudeDegrees>
            </Position>
            <AltitudeMeters>2586.800048828125</AltitudeMeters>
            <DistanceMeters>NAN</DistanceMeters>
          </Trackpoint>
          <Trackpoint>
            <Time>2021-07-18T06:05:15.000Z</Time>
            <Position>
              <LatitudeDegrees>42.72477957420051097869873046875</LatitudeDegrees>
              <LongitudeDegrees>-0.2069423161447048187255859375</LongitudeDegrees>
            </Position>
            <AltitudeMeters>2586.800048828125</AltitudeMeters>
            <DistanceMeters>NAN</DistanceMeters>
          </Trackpoint>
          <Trackpoint>
            <Time>2021-07-18T06:05:32.000Z</Time>
            <Position>
              <LatitudeDegrees>42.724776975810527801513671875</LatitudeDegrees>
              <LongitudeDegrees>-0.2069366164505481719970703125</LongitudeDegrees>
            </Position>
            <AltitudeMeters>2586.800048828125</AltitudeMeters>
            <DistanceMeters>NAN</DistanceMeters>
          </Trackpoint>
          <Trackpoint>
            <Time>2021-07-18T06:05:33.000Z</Time>
            <Position>
              <LatitudeDegrees>42.7247768081724643707275390625</LatitudeDegrees>
              <LongitudeDegrees>-0.2069362811744213104248046875</LongitudeDegrees>
            </Position>
            <AltitudeMeters>2586.800048828125</AltitudeMeters>
            <DistanceMeters>NAN</DistanceMeters>
          </Trackpoint>
          <Trackpoint>
            <Time>2021-07-18T06:05:34.000Z</Time>
            <Position>
              <LatitudeDegrees>42.72477655671536922454833984375</LatitudeDegrees>
              <LongitudeDegrees>-0.20693586207926273345947265625</LongitudeDegrees>
            </Position>
            <AltitudeMeters>2586.800048828125</AltitudeMeters>
            <DistanceMeters>NAN</DistanceMeters>
          </Trackpoint>
          <Trackpoint>
            <Time>2021-07-18T06:05:39.000Z</Time>
            <Position>
              <LatitudeDegrees>42.7247754670679569244384765625</LatitudeDegrees>
              <LongitudeDegrees>-0.206934101879596710205078125</LongitudeDegrees>
            </Position>
            <AltitudeMeters>2586.800048828125</AltitudeMeters>
            <DistanceMeters>NAN</DistanceMeters>
          </Trackpoint>
          <Trackpoint>
            <Time>2021-07-18T06:05:41.000Z</Time>
            <Position>
              <LatitudeDegrees>42.724774964153766632080078125</LatitudeDegrees>
              <LongitudeDegrees>-0.20693334750831127166748046875</LongitudeDegrees>
            </Position>
            <AltitudeMeters>2586.800048828125</AltitudeMeters>
            <DistanceMeters>NAN</DistanceMeters>
          </Trackpoint>
          <Trackpoint>
            <Time>2021-07-18T06:05:47.000Z</Time>
            <Position>
              <LatitudeDegrees>42.72477353923022747039794921875</LatitudeDegrees>
              <LongitudeDegrees>-0.2069309167563915252685546875</LongitudeDegrees>
            </Position>
            <AltitudeMeters>2587</AltitudeMeters>
            <DistanceMeters>NAN</DistanceMeters>
          </Trackpoint>
          <Trackpoint>
            <Time>2021-07-18T06:06:06.000Z</Time>
            <Position>
              <LatitudeDegrees>42.72476834245026111602783203125</LatitudeDegrees>
              <LongitudeDegrees>-0.20692161284387111663818359375</LongitudeDegrees>
            </Position>
            <AltitudeMeters>2587</AltitudeMeters>
            <DistanceMeters>NAN</DistanceMeters>
          </Trackpoint>
          <Trackpoint>
            <Time>2021-07-18T06:06:18.000Z</Time>
            <Position>
              <LatitudeDegrees>42.7247647382318973541259765625</LatitudeDegrees>
              <LongitudeDegrees>-0.2069149911403656005859375</LongitudeDegrees>
            </Position>
            <AltitudeMeters>2587</AltitudeMeters>
            <DistanceMeters>NAN</DistanceMeters>
          </Trackpoint>
          <Trackpoint>
            <Time>2021-07-18T06:06:32.000Z</Time>
            <Position>
              <LatitudeDegrees>42.72476054728031158447265625</LatitudeDegrees>
              <LongitudeDegrees>-0.20690669305622577667236328125</LongitudeDegrees>
            </Position>
            <AltitudeMeters>2587.199951171875</AltitudeMeters>
            <DistanceMeters>NAN</DistanceMeters>
          </Trackpoint>
          <Trackpoint>
            <Time>2021-07-18T06:06:42.000Z</Time>
            <Position>
              <LatitudeDegrees>42.72475761361420154571533203125</LatitudeDegrees>
              <LongitudeDegrees>-0.2069004066288471221923828125</LongitudeDegrees>
            </Position>
            <AltitudeMeters>2587.199951171875</AltitudeMeters>
            <DistanceMeters>NAN</DistanceMeters>
          </Trackpoint>
          <Trackpoint>
            <Time>2021-07-18T06:07:06.000Z</Time>
            <Position>
              <LatitudeDegrees>42.72475124336779117584228515625</LatitudeDegrees>
              <LongitudeDegrees>-0.206885151565074920654296875</LongitudeDegrees>
            </Position>
            <AltitudeMeters>2587.199951171875</AltitudeMeters>
            <DistanceMeters>NAN</DistanceMeters>
          </Trackpoint>
          <Trackpoint>
            <Time>2021-07-18T06:07:14.000Z</Time>
            <Position>
              <LatitudeDegrees>42.7247493155300617218017578125</LatitudeDegrees>
              <LongitudeDegrees>-0.2068801224231719970703125</LongitudeDegrees>
            </Position>
            <AltitudeMeters>2587.39990234375</AltitudeMeters>
            <DistanceMeters>NAN</DistanceMeters>
          </Trackpoint>
          <Trackpoint>
            <Time>2021-07-18T06:07:26.000Z</Time>
            <Position>
              <LatitudeDegrees>42.72474671714007854461669921875</LatitudeDegrees>
              <LongitudeDegrees>-0.20687232725322246551513671875</LongitudeDegrees>
            </Position>
            <AltitudeMeters>2587.39990234375</AltitudeMeters>
            <DistanceMeters>NAN</DistanceMeters>
          </Trackpoint>
          <Trackpoint>
            <Time>2021-07-18T06:07:54.000Z</Time>
            <Position>
              <LatitudeDegrees>42.72474168799817562103271484375</LatitudeDegrees>
              <LongitudeDegrees>-0.20685438998043537139892578125</LongitudeDegrees>
            </Position>
            <AltitudeMeters>2587.39990234375</AltitudeMeters>
            <DistanceMeters>NAN</DistanceMeters>
          </Trackpoint>
          <Trackpoint>
            <Time>2021-07-18T06:08:15.000Z</Time>
            <Position>
              <LatitudeDegrees>42.72473934106528759002685546875</LatitudeDegrees>
              <LongitudeDegrees>-0.20684055984020233154296875</LongitudeDegrees>
            </Position>
            <AltitudeMeters>2587.199951171875</AltitudeMeters>
            <DistanceMeters>NAN</DistanceMeters>
          </Trackpoint>
          <Trackpoint>
            <Time>2021-07-18T06:08:28.000Z</Time>
            <Position>
              <LatitudeDegrees>42.72473799996078014373779296875</LatitudeDegrees>
              <LongitudeDegrees>-0.20683209411799907684326171875</LongitudeDegrees>
            </Position>
            <AltitudeMeters>2587.199951171875</AltitudeMeters>
            <DistanceMeters>NAN</DistanceMeters>
          </Trackpoint>
          <Trackpoint>
            <Time>2021-07-18T06:09:36.000Z</Time>
            <Position>
              <LatitudeDegrees>42.7247365750372409820556640625</LatitudeDegrees>
              <LongitudeDegrees>-0.20679051987826824188232421875</LongitudeDegrees>
            </Position>
            <AltitudeMeters>2587</AltitudeMeters>
            <DistanceMeters>NAN</DistanceMeters>
          </Trackpoint>
          <Trackpoint>
            <Time>2021-07-18T06:10:32.000Z</Time>
            <Position>
              <LatitudeDegrees>42.72473950870335102081298828125</LatitudeDegrees>
              <LongitudeDegrees>-0.2067565731704235076904296875</LongitudeDegrees>
            </Position>
            <AltitudeMeters>2587</AltitudeMeters>
            <DistanceMeters>NAN</DistanceMeters>
          </Trackpoint>
          <Trackpoint>
            <Time>2021-07-18T06:10:40.000Z</Time>
            <Position>
              <LatitudeDegrees>42.72474017925560474395751953125</LatitudeDegrees>
              <LongitudeDegrees>-0.206752382218837738037109375</LongitudeDegrees>
            </Position>
            <AltitudeMeters>2587</AltitudeMeters>
            <DistanceMeters>NAN</DistanceMeters>
          </Trackpoint>
          <Trackpoint>
            <Time>2021-07-18T06:10:50.000Z</Time>
            <Position>
              <LatitudeDegrees>42.72474101744592189788818359375</LatitudeDegrees>
              <LongitudeDegrees>-0.2067471854388713836669921875</LongitudeDegrees>
            </Position>
            <AltitudeMeters>2587</AltitudeMeters>
            <DistanceMeters>NAN</DistanceMeters>
          </Trackpoint>
          <Trackpoint>
            <Time>2021-07-18T06:10:54.000Z</Time>
            <Position>
              <LatitudeDegrees>42.72474135272204875946044921875</LatitudeDegrees>
              <LongitudeDegrees>-0.2067451737821102142333984375</LongitudeDegrees>
            </Position>
            <AltitudeMeters>2587</AltitudeMeters>
            <DistanceMeters>NAN</DistanceMeters>
          </Trackpoint>
          <Trackpoint>
            <Time>2021-07-18T06:10:57.000Z</Time>
            <Position>
              <LatitudeDegrees>42.7247416041791439056396484375</LatitudeDegrees>
              <LongitudeDegrees>-0.206743665039539337158203125</LongitudeDegrees>
            </Position>
            <AltitudeMeters>2587</AltitudeMeters>
            <DistanceMeters>NAN</DistanceMeters>
          </Trackpoint>
          <Trackpoint>
            <Time>2021-07-18T06:11:02.000Z</Time>
            <Position>
              <LatitudeDegrees>42.724742107093334197998046875</LatitudeDegrees>
              <LongitudeDegrees>-0.20674123428761959075927734375</LongitudeDegrees>
            </Position>
            <AltitudeMeters>2587</AltitudeMeters>
            <DistanceMeters>NAN</DistanceMeters>
          </Trackpoint>
          <Trackpoint>
            <Time>2021-07-18T06:11:04.000Z</Time>
            <Position>
              <LatitudeDegrees>42.72474235855042934417724609375</LatitudeDegrees>
              <LongitudeDegrees>-0.206740312278270721435546875</LongitudeDegrees>
            </Position>
            <AltitudeMeters>2587</AltitudeMeters>
            <DistanceMeters>NAN</DistanceMeters>
          </Trackpoint>
          <Trackpoint>
            <Time>2021-07-18T06:11:06.000Z</Time>
            <Position>
              <LatitudeDegrees>42.72474252618849277496337890625</LatitudeDegrees>
              <LongitudeDegrees>-0.20673939026892185211181640625</LongitudeDegrees>
            </Position>
            <AltitudeMeters>2587</AltitudeMeters>
            <DistanceMeters>NAN</DistanceMeters>
          </Trackpoint>
          <Trackpoint>
            <Time>2021-07-18T06:11:15.000Z</Time>
            <Position>
              <LatitudeDegrees>42.72474369965493679046630859375</LatitudeDegrees>
              <LongitudeDegrees>-0.2067352831363677978515625</LongitudeDegrees>
            </Position>
            <AltitudeMeters>2587</AltitudeMeters>
            <DistanceMeters>NAN</DistanceMeters>
          </Trackpoint>
          <Trackpoint>
            <Time>2021-07-18T06:11:21.000Z</Time>
            <Position>
              <LatitudeDegrees>42.7247446216642856597900390625</LatitudeDegrees>
              <LongitudeDegrees>-0.2067326009273529052734375</LongitudeDegrees>
            </Position>
            <AltitudeMeters>2587</AltitudeMeters>
            <DistanceMeters>NAN</DistanceMeters>
          </Trackpoint>
          <Trackpoint>
            <Time>2021-07-18T06:11:26.000Z</Time>
            <Position>
              <LatitudeDegrees>42.724745459854602813720703125</LatitudeDegrees>
              <LongitudeDegrees>-0.20673033781349658966064453125</LongitudeDegrees>
            </Position>
            <AltitudeMeters>2587</AltitudeMeters>
            <DistanceMeters>NAN</DistanceMeters>
          </Trackpoint>
          <Trackpoint>
            <Time>2021-07-18T06:11:49.000Z</Time>
            <Position>
              <LatitudeDegrees>42.72474981844425201416015625</LatitudeDegrees>
              <LongitudeDegrees>-0.206720195710659027099609375</LongitudeDegrees>
            </Position>
            <AltitudeMeters>2587</AltitudeMeters>
            <DistanceMeters>NAN</DistanceMeters>
          </Trackpoint>
          <Trackpoint>
            <Time>2021-07-18T06:12:36.000Z</Time>
            <Position>
              <LatitudeDegrees>42.72476163692772388458251953125</LatitudeDegrees>
              <LongitudeDegrees>-0.2067009173333644866943359375</LongitudeDegrees>
            </Position>
            <AltitudeMeters>2587</AltitudeMeters>
            <DistanceMeters>NAN</DistanceMeters>
          </Trackpoint>
          <Trackpoint>
            <Time>2021-07-18T06:12:41.000Z</Time>
            <Position>
              <LatitudeDegrees>42.7247630618512630462646484375</LatitudeDegrees>
              <LongitudeDegrees>-0.206699073314666748046875</LongitudeDegrees>
            </Position>
            <AltitudeMeters>2587</AltitudeMeters>
            <DistanceMeters>NAN</DistanceMeters>
          </Trackpoint>
          <Trackpoint>
            <Time>2021-07-18T06:12:47.000Z</Time>
            <Position>
              <LatitudeDegrees>42.72476482205092906951904296875</LatitudeDegrees>
              <LongitudeDegrees>-0.20669681020081043243408203125</LongitudeDegrees>
            </Position>
            <AltitudeMeters>2587.199951171875</AltitudeMeters>
            <DistanceMeters>NAN</DistanceMeters>
          </Trackpoint>
          <Trackpoint>
            <Time>2021-07-18T06:12:57.000Z</Time>
            <Position>
              <LatitudeDegrees>42.7247677557170391082763671875</LatitudeDegrees>
              <LongitudeDegrees>-0.2066932059824466705322265625</LongitudeDegrees>
            </Position>
            <AltitudeMeters>2587.199951171875</AltitudeMeters>
            <DistanceMeters>NAN</DistanceMeters>
          </Trackpoint>
          <Trackpoint>
            <Time>2021-07-18T06:13:01.000Z</Time>
            <Position>
              <LatitudeDegrees>42.72476901300251483917236328125</LatitudeDegrees>
              <LongitudeDegrees>-0.20669178105890750885009765625</LongitudeDegrees>
            </Position>
            <AltitudeMeters>2587.199951171875</AltitudeMeters>
            <DistanceMeters>NAN</DistanceMeters>
          </Trackpoint>
          <Trackpoint>
            <Time>2021-07-18T06:13:50.000Z</Time>
            <Position>
              <LatitudeDegrees>42.72478594444692134857177734375</LatitudeDegrees>
              <LongitudeDegrees>-0.20667334087193012237548828125</LongitudeDegrees>
            </Position>
            <AltitudeMeters>2587.199951171875</AltitudeMeters>
            <DistanceMeters>NAN</DistanceMeters>
          </Trackpoint>
          <Trackpoint>
            <Time>2021-07-18T06:13:56.000Z</Time>
            <Position>
              <LatitudeDegrees>42.72478812374174594879150390625</LatitudeDegrees>
              <LongitudeDegrees>-0.2066710777580738067626953125</LongitudeDegrees>
            </Position>
            <AltitudeMeters>2587.199951171875</AltitudeMeters>
            <DistanceMeters>NAN</DistanceMeters>
          </Trackpoint>
          <Trackpoint>
            <Time>2021-07-18T06:14:07.000Z</Time>
            <Position>
              <LatitudeDegrees>42.7247922308743000030517578125</LatitudeDegrees>
              <LongitudeDegrees>-0.20666713826358318328857421875</LongitudeDegrees>
            </Position>
            <AltitudeMeters>2587</AltitudeMeters>
            <DistanceMeters>NAN</DistanceMeters>
          </Trackpoint>
          <Trackpoint>
            <Time>2021-07-18T06:14:14.000Z</Time>
            <Position>
              <LatitudeDegrees>42.7247949130833148956298828125</LatitudeDegrees>
              <LongitudeDegrees>-0.20666479133069515228271484375</LongitudeDegrees>
            </Position>
            <AltitudeMeters>2587</AltitudeMeters>
            <DistanceMeters>NAN</DistanceMeters>
          </Trackpoint>
          <Trackpoint>
            <Time>2021-07-18T06:14:18.000Z</Time>
            <Position>
              <LatitudeDegrees>42.72479650564491748809814453125</LatitudeDegrees>
              <LongitudeDegrees>-0.2066633664071559906005859375</LongitudeDegrees>
            </Position>
            <AltitudeMeters>2586.800048828125</AltitudeMeters>
            <DistanceMeters>NAN</DistanceMeters>
          </Trackpoint>
          <Trackpoint>
            <Time>2021-07-18T06:14:42.000Z</Time>
            <Position>
              <LatitudeDegrees>42.724806480109691619873046875</LatitudeDegrees>
              <LongitudeDegrees>-0.2066553197801113128662109375</LongitudeDegrees>
            </Position>
            <AltitudeMeters>2586.39990234375</AltitudeMeters>
            <DistanceMeters>NAN</DistanceMeters>
          </Trackpoint>
          <Trackpoint>
            <Time>2021-07-18T06:14:52.000Z</Time>
            <Position>
              <LatitudeDegrees>42.7248108386993408203125</LatitudeDegrees>
              <LongitudeDegrees>-0.20665205083787441253662109375</LongitudeDegrees>
            </Position>
            <AltitudeMeters>2586.199951171875</AltitudeMeters>
            <DistanceMeters>NAN</DistanceMeters>
          </Trackpoint>
          <Trackpoint>
            <Time>2021-07-18T06:15:00.000Z</Time>
            <Position>
              <LatitudeDegrees>42.72481444291770458221435546875</LatitudeDegrees>
              <LongitudeDegrees>-0.20664953626692295074462890625</LongitudeDegrees>
            </Position>
            <AltitudeMeters>2586.199951171875</AltitudeMeters>
            <DistanceMeters>NAN</DistanceMeters>
          </Trackpoint>
          <Trackpoint>
            <Time>2021-07-18T06:15:16.000Z</Time>
            <Position>
              <LatitudeDegrees>42.7248224057257175445556640625</LatitudeDegrees>
              <LongitudeDegrees>-0.2066442556679248809814453125</LongitudeDegrees>
            </Position>
            <AltitudeMeters>2585.800048828125</AltitudeMeters>
            <DistanceMeters>NAN</DistanceMeters>
          </Trackpoint>
          <Trackpoint>
            <Time>2021-07-18T06:15:20.000Z</Time>
            <Position>
              <LatitudeDegrees>42.724824585020542144775390625</LatitudeDegrees>
              <LongitudeDegrees>-0.20664283074438571929931640625</LongitudeDegrees>
            </Position>
            <AltitudeMeters>2585.800048828125</AltitudeMeters>
            <DistanceMeters>NAN</DistanceMeters>
          </Trackpoint>
          <Trackpoint>
            <Time>2021-07-18T06:15:25.000Z</Time>
            <Position>
              <LatitudeDegrees>42.7248274348676204681396484375</LatitudeDegrees>
              <LongitudeDegrees>-0.20664098672568798065185546875</LongitudeDegrees>
            </Position>
            <AltitudeMeters>2585.60009765625</AltitudeMeters>
            <DistanceMeters>NAN</DistanceMeters>
          </Trackpoint>
          <Trackpoint>
            <Time>2021-07-18T06:15:56.000Z</Time>
            <Position>
              <LatitudeDegrees>42.72484512068331241607666015625</LatitudeDegrees>
              <LongitudeDegrees>-0.20662941969931125640869140625</LongitudeDegrees>
            </Position>
            <AltitudeMeters>2585</AltitudeMeters>
            <DistanceMeters>NAN</DistanceMeters>
          </Trackpoint>
          <Trackpoint>
            <Time>2021-07-18T06:16:16.000Z</Time>
            <Position>
              <LatitudeDegrees>42.72485601715743541717529296875</LatitudeDegrees>
              <LongitudeDegrees>-0.20662103779613971710205078125</LongitudeDegrees>
            </Position>
            <AltitudeMeters>2584.60009765625</AltitudeMeters>
            <DistanceMeters>NAN</DistanceMeters>
          </Trackpoint>
          <Trackpoint>
            <Time>2021-07-18T06:16:28.000Z</Time>
            <Position>
              <LatitudeDegrees>42.72486255504190921783447265625</LatitudeDegrees>
              <LongitudeDegrees>-0.20661584101617336273193359375</LongitudeDegrees>
            </Position>
            <AltitudeMeters>2584.39990234375</AltitudeMeters>
            <DistanceMeters>NAN</DistanceMeters>
          </Trackpoint>
          <Trackpoint>
            <Time>2021-07-18T06:16:57.000Z</Time>
            <Position>
              <LatitudeDegrees>42.72487948648631572723388671875</LatitudeDegrees>
              <LongitudeDegrees>-0.20660276524722576141357421875</LongitudeDegrees>
            </Position>
            <AltitudeMeters>2583.60009765625</AltitudeMeters>
            <DistanceMeters>NAN</DistanceMeters>
          </Trackpoint>
          <Trackpoint>
            <Time>2021-07-18T06:17:11.000Z</Time>
            <Position>
              <LatitudeDegrees>42.72488837130367755889892578125</LatitudeDegrees>
              <LongitudeDegrees>-0.2065959759056568145751953125</LongitudeDegrees>
            </Position>
            <AltitudeMeters>2583.39990234375</AltitudeMeters>
            <DistanceMeters>NAN</DistanceMeters>
          </Trackpoint>
          <Trackpoint>
            <Time>2021-07-18T06:17:16.000Z</Time>
            <Position>
              <LatitudeDegrees>42.724891640245914459228515625</LatitudeDegrees>
              <LongitudeDegrees>-0.20659354515373706817626953125</LongitudeDegrees>
            </Position>
            <AltitudeMeters>2583.199951171875</AltitudeMeters>
            <DistanceMeters>NAN</DistanceMeters>
          </Trackpoint>
          <Trackpoint>
            <Time>2021-07-18T06:17:19.000Z</Time>
            <Position>
              <LatitudeDegrees>42.724893651902675628662109375</LatitudeDegrees>
              <LongitudeDegrees>-0.20659203641116619110107421875</LongitudeDegrees>
            </Position>
            <AltitudeMeters>2583.199951171875</AltitudeMeters>
            <DistanceMeters>NAN</DistanceMeters>
          </Trackpoint>
          <Trackpoint>
            <Time>2021-07-18T06:17:49.000Z</Time>
            <Position>
              <LatitudeDegrees>42.7249156124889850616455078125</LatitudeDegrees>
              <LongitudeDegrees>-0.20657594315707683563232421875</LongitudeDegrees>
            </Position>
            <AltitudeMeters>2582.199951171875</AltitudeMeters>
            <DistanceMeters>NAN</DistanceMeters>
          </Trackpoint>
          <Trackpoint>
            <Time>2021-07-18T06:17:52.000Z</Time>
            <Position>
              <LatitudeDegrees>42.724917791783809661865234375</LatitudeDegrees>
              <LongitudeDegrees>-0.2065741829574108123779296875</LongitudeDegrees>
            </Position>
            <AltitudeMeters>2582</AltitudeMeters>
            <DistanceMeters>NAN</DistanceMeters>
          </Trackpoint>
          <Trackpoint>
            <Time>2021-07-18T06:18:41.000Z</Time>
            <Position>
              <LatitudeDegrees>42.72495391778647899627685546875</LatitudeDegrees>
              <LongitudeDegrees>-0.20654342137277126312255859375</LongitudeDegrees>
            </Position>
            <AltitudeMeters>2580.199951171875</AltitudeMeters>
            <DistanceMeters>NAN</DistanceMeters>
          </Trackpoint>
          <Trackpoint>
            <Time>2021-07-18T06:18:56.000Z</Time>
            <Position>
              <LatitudeDegrees>42.72496514953672885894775390625</LatitudeDegrees>
              <LongitudeDegrees>-0.2065339498221874237060546875</LongitudeDegrees>
            </Position>
            <AltitudeMeters>2579.60009765625</AltitudeMeters>
            <DistanceMeters>NAN</DistanceMeters>
          </Trackpoint>
          <Trackpoint>
            <Time>2021-07-18T06:18:59.000Z</Time>
            <Position>
              <LatitudeDegrees>42.724967412650585174560546875</LatitudeDegrees>
              <LongitudeDegrees>-0.20653202198445796966552734375</LongitudeDegrees>
            </Position>
            <AltitudeMeters>2579.39990234375</AltitudeMeters>
            <DistanceMeters>NAN</DistanceMeters>
          </Trackpoint>
          <Trackpoint>
            <Time>2021-07-18T06:19:09.000Z</Time>
            <Position>
              <LatitudeDegrees>42.72497487254440784454345703125</LatitudeDegrees>
              <LongitudeDegrees>-0.20652540028095245361328125</LongitudeDegrees>
            </Position>
            <AltitudeMeters>2579</AltitudeMeters>
            <DistanceMeters>NAN</DistanceMeters>
          </Trackpoint>
          <Trackpoint>
            <Time>2021-07-18T06:19:45.000Z</Time>
            <Position>
              <LatitudeDegrees>42.725001610815525054931640625</LatitudeDegrees>
              <LongitudeDegrees>-0.20650151185691356658935546875</LongitudeDegrees>
            </Position>
            <AltitudeMeters>2577.60009765625</AltitudeMeters>
            <DistanceMeters>NAN</DistanceMeters>
          </Trackpoint>
          <Trackpoint>
            <Time>2021-07-18T06:19:53.000Z</Time>
            <Position>
              <LatitudeDegrees>42.725007645785808563232421875</LatitudeDegrees>
              <LongitudeDegrees>-0.2064957283437252044677734375</LongitudeDegrees>
            </Position>
            <AltitudeMeters>2577.39990234375</AltitudeMeters>
            <DistanceMeters>NAN</DistanceMeters>
          </Trackpoint>
          <Trackpoint>
            <Time>2021-07-18T06:20:07.000Z</Time>
            <Position>
              <LatitudeDegrees>42.72501812316477298736572265625</LatitudeDegrees>
              <LongitudeDegrees>-0.2064849995076656341552734375</LongitudeDegrees>
            </Position>
            <AltitudeMeters>2576.800048828125</AltitudeMeters>
            <DistanceMeters>NAN</DistanceMeters>
          </Trackpoint>
          <Trackpoint>
            <Time>2021-07-18T06:20:26.000Z</Time>
            <Position>
              <LatitudeDegrees>42.7250319533050060272216796875</LatitudeDegrees>
              <LongitudeDegrees>-0.20647041499614715576171875</LongitudeDegrees>
            </Position>
            <AltitudeMeters>2576</AltitudeMeters>
            <DistanceMeters>NAN</DistanceMeters>
          </Trackpoint>
          <Trackpoint>
            <Time>2021-07-18T06:20:28.000Z</Time>
            <Position>
              <LatitudeDegrees>42.725033462047576904296875</LatitudeDegrees>
              <LongitudeDegrees>-0.2064689062535762786865234375</LongitudeDegrees>
            </Position>
            <AltitudeMeters>2576</AltitudeMeters>
            <DistanceMeters>NAN</DistanceMeters>
          </Trackpoint>
          <Trackpoint>
            <Time>2021-07-18T06:20:32.000Z</Time>
            <Position>
              <LatitudeDegrees>42.725036479532718658447265625</LatitudeDegrees>
              <LongitudeDegrees>-0.20646580494940280914306640625</LongitudeDegrees>
            </Position>
            <AltitudeMeters>2575.800048828125</AltitudeMeters>
            <DistanceMeters>NAN</DistanceMeters>
          </Trackpoint>
          <Trackpoint>
            <Time>2021-07-18T06:20:34.000Z</Time>
            <Position>
              <LatitudeDegrees>42.7250379882752895355224609375</LatitudeDegrees>
              <LongitudeDegrees>-0.20646429620683193206787109375</LongitudeDegrees>
            </Position>
            <AltitudeMeters>2575.800048828125</AltitudeMeters>
            <DistanceMeters>NAN</DistanceMeters>
          </Trackpoint>
          <Trackpoint>
            <Time>2021-07-18T06:20:38.000Z</Time>
            <Position>
              <LatitudeDegrees>42.7250410057604312896728515625</LatitudeDegrees>
              <LongitudeDegrees>-0.2064611949026584625244140625</LongitudeDegrees>
            </Position>
            <AltitudeMeters>2575.60009765625</AltitudeMeters>
            <DistanceMeters>NAN</DistanceMeters>
          </Trackpoint>
          <Trackpoint>
            <Time>2021-07-18T06:20:40.000Z</Time>
            <Position>
              <LatitudeDegrees>42.725042514503002166748046875</LatitudeDegrees>
              <LongitudeDegrees>-0.20645968616008758544921875</LongitudeDegrees>
            </Position>
            <AltitudeMeters>2575.39990234375</AltitudeMeters>
            <DistanceMeters>NAN</DistanceMeters>
          </Trackpoint>
          <Trackpoint>
            <Time>2021-07-18T06:20:42.000Z</Time>
            <Position>
              <LatitudeDegrees>42.7250440232455730438232421875</LatitudeDegrees>
              <LongitudeDegrees>-0.2064581774175167083740234375</LongitudeDegrees>
            </Position>
            <AltitudeMeters>2575.39990234375</AltitudeMeters>
            <DistanceMeters>NAN</DistanceMeters>
          </Trackpoint>
          <Trackpoint>
            <Time>2021-07-18T06:20:44.000Z</Time>
            <Position>
              <LatitudeDegrees>42.72504561580717563629150390625</LatitudeDegrees>
              <LongitudeDegrees>-0.206456668674945831298828125</LongitudeDegrees>
            </Position>
            <AltitudeMeters>2575.199951171875</AltitudeMeters>
            <DistanceMeters>NAN</DistanceMeters>
          </Trackpoint>
          <Trackpoint>
            <Time>2021-07-18T06:20:46.000Z</Time>
            <Position>
              <LatitudeDegrees>42.72504712454974651336669921875</LatitudeDegrees>
              <LongitudeDegrees>-0.20645507611334323883056640625</LongitudeDegrees>
            </Position>
            <AltitudeMeters>2575.199951171875</AltitudeMeters>
            <DistanceMeters>NAN</DistanceMeters>
          </Trackpoint>
          <Trackpoint>
            <Time>2021-07-18T06:20:54.000Z</Time>
            <Position>
              <LatitudeDegrees>42.7250534109771251678466796875</LatitudeDegrees>
              <LongitudeDegrees>-0.2064491249620914459228515625</LongitudeDegrees>
            </Position>
            <AltitudeMeters>2574.800048828125</AltitudeMeters>
            <DistanceMeters>NAN</DistanceMeters>
          </Trackpoint>
          <Trackpoint>
            <Time>2021-07-18T06:20:57.000Z</Time>
            <Position>
              <LatitudeDegrees>42.7250557579100131988525390625</LatitudeDegrees>
              <LongitudeDegrees>-0.2064467780292034149169921875</LongitudeDegrees>
            </Position>
            <AltitudeMeters>2574.800048828125</AltitudeMeters>
            <DistanceMeters>NAN</DistanceMeters>
          </Trackpoint>
          <Trackpoint>
            <Time>2021-07-18T06:21:00.000Z</Time>
            <Position>
              <LatitudeDegrees>42.72505818866193294525146484375</LatitudeDegrees>
              <LongitudeDegrees>-0.2064444310963153839111328125</LongitudeDegrees>
            </Position>
            <AltitudeMeters>2574.60009765625</AltitudeMeters>
            <DistanceMeters>NAN</DistanceMeters>
          </Trackpoint>
          <Trackpoint>
            <Time>2021-07-18T06:21:15.000Z</Time>
            <Position>
              <LatitudeDegrees>42.72507059387862682342529296875</LatitudeDegrees>
              <LongitudeDegrees>-0.20643160678446292877197265625</LongitudeDegrees>
            </Position>
            <AltitudeMeters>2573.60009765625</AltitudeMeters>
            <DistanceMeters>NAN</DistanceMeters>
          </Trackpoint>
          <Trackpoint>
            <Time>2021-07-18T06:21:40.000Z</Time>
            <Position>
              <LatitudeDegrees>42.72509171627461910247802734375</LatitudeDegrees>
              <LongitudeDegrees>-0.20641098730266094207763671875</LongitudeDegrees>
            </Position>
            <AltitudeMeters>2571.60009765625</AltitudeMeters>
            <DistanceMeters>NAN</DistanceMeters>
          </Trackpoint>
          <Trackpoint>
            <Time>2021-07-18T06:22:21.000Z</Time>
            <Position>
              <LatitudeDegrees>42.725128345191478729248046875</LatitudeDegrees>
              <LongitudeDegrees>-0.20637762732803821563720703125</LongitudeDegrees>
            </Position>
            <AltitudeMeters>2568.199951171875</AltitudeMeters>
            <DistanceMeters>NAN</DistanceMeters>
          </Trackpoint>
          <Trackpoint>
            <Time>2021-07-18T06:23:03.000Z</Time>
            <Position>
              <LatitudeDegrees>42.7251680754125118255615234375</LatitudeDegrees>
              <LongitudeDegrees>-0.20634192042052745819091796875</LongitudeDegrees>
            </Position>
            <AltitudeMeters>2564.60009765625</AltitudeMeters>
            <DistanceMeters>NAN</DistanceMeters>
          </Trackpoint>
          <Trackpoint>
            <Time>2021-07-18T06:23:10.000Z</Time>
            <Position>
              <LatitudeDegrees>42.72517503239214420318603515625</LatitudeDegrees>
              <LongitudeDegrees>-0.2063361369073390960693359375</LongitudeDegrees>
            </Position>
            <AltitudeMeters>2564</AltitudeMeters>
            <DistanceMeters>NAN</DistanceMeters>
          </Trackpoint>
          <Trackpoint>
            <Time>2021-07-18T06:23:13.000Z</Time>
            <Position>
              <LatitudeDegrees>42.72517804987728595733642578125</LatitudeDegrees>
              <LongitudeDegrees>-0.20633362233638763427734375</LongitudeDegrees>
            </Position>
            <AltitudeMeters>2563.800048828125</AltitudeMeters>
            <DistanceMeters>NAN</DistanceMeters>
          </Trackpoint>
          <Trackpoint>
            <Time>2021-07-18T06:23:25.000Z</Time>
            <Position>
              <LatitudeDegrees>42.72519028745591640472412109375</LatitudeDegrees>
              <LongitudeDegrees>-0.2063237316906452178955078125</LongitudeDegrees>
            </Position>
            <AltitudeMeters>2562.60009765625</AltitudeMeters>
            <DistanceMeters>NAN</DistanceMeters>
          </Trackpoint>
          <Trackpoint>
            <Time>2021-07-18T06:23:27.000Z</Time>
            <Position>
              <LatitudeDegrees>42.72519229911267757415771484375</LatitudeDegrees>
              <LongitudeDegrees>-0.20632213912904262542724609375</LongitudeDegrees>
            </Position>
            <AltitudeMeters>2562.39990234375</AltitudeMeters>
            <DistanceMeters>NAN</DistanceMeters>
          </Trackpoint>
          <Trackpoint>
            <Time>2021-07-18T06:23:29.000Z</Time>
            <Position>
              <LatitudeDegrees>42.72519431076943874359130859375</LatitudeDegrees>
              <LongitudeDegrees>-0.20632046274840831756591796875</LongitudeDegrees>
            </Position>
            <AltitudeMeters>2562.199951171875</AltitudeMeters>
            <DistanceMeters>NAN</DistanceMeters>
          </Trackpoint>
          <Trackpoint>
            <Time>2021-07-18T06:23:47.000Z</Time>
            <Position>
              <LatitudeDegrees>42.7252123318612575531005859375</LatitudeDegrees>
              <LongitudeDegrees>-0.20630587823688983917236328125</LongitudeDegrees>
            </Position>
            <AltitudeMeters>2560.60009765625</AltitudeMeters>
            <DistanceMeters>NAN</DistanceMeters>
          </Trackpoint>
          <Trackpoint>
            <Time>2021-07-18T06:23:51.000Z</Time>
            <Position>
              <LatitudeDegrees>42.72521627135574817657470703125</LatitudeDegrees>
              <LongitudeDegrees>-0.20630269311368465423583984375</LongitudeDegrees>
            </Position>
            <AltitudeMeters>2560.39990234375</AltitudeMeters>
            <DistanceMeters>NAN</DistanceMeters>
          </Trackpoint>
          <Trackpoint>
            <Time>2021-07-18T06:24:02.000Z</Time>
            <Position>
              <LatitudeDegrees>42.725226916372776031494140625</LatitudeDegrees>
              <LongitudeDegrees>-0.20629397593438625335693359375</LongitudeDegrees>
            </Position>
            <AltitudeMeters>2559.60009765625</AltitudeMeters>
            <DistanceMeters>NAN</DistanceMeters>
          </Trackpoint>
          <Trackpoint>
            <Time>2021-07-18T06:24:10.000Z</Time>
            <Position>
              <LatitudeDegrees>42.725294642150402069091796875</LatitudeDegrees>
              <LongitudeDegrees>-0.20623764954507350921630859375</LongitudeDegrees>
            </Position>
            <AltitudeMeters>2554.199951171875</AltitudeMeters>
            <DistanceMeters>NAN</DistanceMeters>
          </Trackpoint>
          <Trackpoint>
            <Time>2021-07-18T06:24:13.000Z</Time>
            <Position>
              <LatitudeDegrees>42.72549907676875591278076171875</LatitudeDegrees>
              <LongitudeDegrees>-0.2060729451477527618408203125</LongitudeDegrees>
            </Position>
            <AltitudeMeters>2537.60009765625</AltitudeMeters>
            <DistanceMeters>NAN</DistanceMeters>
          </Trackpoint>
          <Trackpoint>
            <Time>2021-07-18T06:24:16.000Z</Time>
            <Position>
              <LatitudeDegrees>42.72570208646357059478759765625</LatitudeDegrees>
              <LongitudeDegrees>-0.205914191901683807373046875</LongitudeDegrees>
            </Position>
            <AltitudeMeters>2523.60009765625</AltitudeMeters>
            <DistanceMeters>NAN</DistanceMeters>
          </Trackpoint>
          <Trackpoint>
            <Time>2021-07-18T06:24:19.000Z</Time>
            <Position>
              <LatitudeDegrees>42.72589822299778461456298828125</LatitudeDegrees>
              <LongitudeDegrees>-0.20576038397848606109619140625</LongitudeDegrees>
            </Position>
            <AltitudeMeters>2513.800048828125</AltitudeMeters>
            <DistanceMeters>NAN</DistanceMeters>
          </Trackpoint>
          <Trackpoint>
            <Time>2021-07-18T06:24:23.000Z</Time>
            <Position>
              <LatitudeDegrees>42.7259190939366817474365234375</LatitudeDegrees>
              <LongitudeDegrees>-0.2057562768459320068359375</LongitudeDegrees>
            </Position>
            <AltitudeMeters>2513</AltitudeMeters>
            <DistanceMeters>NAN</DistanceMeters>
          </Trackpoint>
          <Trackpoint>
            <Time>2021-07-18T06:24:32.000Z</Time>
            <Position>
              <LatitudeDegrees>42.72596879862248897552490234375</LatitudeDegrees>
              <LongitudeDegrees>-0.20565996877849102020263671875</LongitudeDegrees>
            </Position>
            <AltitudeMeters>2510.60009765625</AltitudeMeters>
            <DistanceMeters>NAN</DistanceMeters>
          </Trackpoint>
          <Trackpoint>
            <Time>2021-07-18T06:24:35.000Z</Time>
            <Position>
              <LatitudeDegrees>42.72598371841013431549072265625</LatitudeDegrees>
              <LongitudeDegrees>-0.20564387552440166473388671875</LongitudeDegrees>
            </Position>
            <AltitudeMeters>2510</AltitudeMeters>
            <DistanceMeters>NAN</DistanceMeters>
          </Trackpoint>
          <Trackpoint>
            <Time>2021-07-18T06:24:40.000Z</Time>
            <Position>
              <LatitudeDegrees>42.72599344141781330108642578125</LatitudeDegrees>
              <LongitudeDegrees>-0.2056052349507808685302734375</LongitudeDegrees>
            </Position>
            <AltitudeMeters>2509.199951171875</AltitudeMeters>
            <DistanceMeters>NAN</DistanceMeters>
          </Trackpoint>
          <Trackpoint>
            <Time>2021-07-18T06:24:41.000Z</Time>
            <Position>
              <LatitudeDegrees>42.72599461488425731658935546875</LatitudeDegrees>
              <LongitudeDegrees>-0.20560163073241710662841796875</LongitudeDegrees>
            </Position>
            <AltitudeMeters>2509.199951171875</AltitudeMeters>
            <DistanceMeters>NAN</DistanceMeters>
          </Trackpoint>
          <Trackpoint>
            <Time>2021-07-18T06:24:49.000Z</Time>
            <Position>
              <LatitudeDegrees>42.726030237972736358642578125</LatitudeDegrees>
              <LongitudeDegrees>-0.2055690251290798187255859375</LongitudeDegrees>
            </Position>
            <AltitudeMeters>2507.60009765625</AltitudeMeters>
            <DistanceMeters>NAN</DistanceMeters>
          </Trackpoint>
          <Trackpoint>
            <Time>2021-07-18T06:24:57.000Z</Time>
            <Position>
              <LatitudeDegrees>42.726075164973735809326171875</LatitudeDegrees>
              <LongitudeDegrees>-0.20549182780086994171142578125</LongitudeDegrees>
            </Position>
            <AltitudeMeters>2505.39990234375</AltitudeMeters>
            <DistanceMeters>NAN</DistanceMeters>
          </Trackpoint>
          <Trackpoint>
            <Time>2021-07-18T06:25:00.000Z</Time>
            <Position>
              <LatitudeDegrees>42.7260755002498626708984375</LatitudeDegrees>
              <LongitudeDegrees>-0.2054746448993682861328125</LongitudeDegrees>
            </Position>
            <AltitudeMeters>2505.199951171875</AltitudeMeters>
            <DistanceMeters>NAN</DistanceMeters>
          </Trackpoint>
          <Trackpoint>
            <Time>2021-07-18T06:25:02.000Z</Time>
            <Position>
              <LatitudeDegrees>42.7260726504027843475341796875</LatitudeDegrees>
              <LongitudeDegrees>-0.2054614014923572540283203125</LongitudeDegrees>
            </Position>
            <AltitudeMeters>2505.39990234375</AltitudeMeters>
            <DistanceMeters>NAN</DistanceMeters>
          </Trackpoint>
          <Trackpoint>
            <Time>2021-07-18T06:25:04.000Z</Time>
            <Position>
              <LatitudeDegrees>42.72607206366956233978271484375</LatitudeDegrees>
              <LongitudeDegrees>-0.20545394159853458404541015625</LongitudeDegrees>
            </Position>
            <AltitudeMeters>2505.39990234375</AltitudeMeters>
            <DistanceMeters>NAN</DistanceMeters>
          </Trackpoint>
          <Trackpoint>
            <Time>2021-07-18T06:25:06.000Z</Time>
            <Position>
              <LatitudeDegrees>42.726074494421482086181640625</LatitudeDegrees>
              <LongitudeDegrees>-0.20545075647532939910888671875</LongitudeDegrees>
            </Position>
            <AltitudeMeters>2505.39990234375</AltitudeMeters>
            <DistanceMeters>NAN</DistanceMeters>
          </Trackpoint>
          <Trackpoint>
            <Time>2021-07-18T06:25:07.000Z</Time>
            <Position>
              <LatitudeDegrees>42.72607759572565555572509765625</LatitudeDegrees>
              <LongitudeDegrees>-0.20545042119920253753662109375</LongitudeDegrees>
            </Position>
            <AltitudeMeters>2505.199951171875</AltitudeMeters>
            <DistanceMeters>NAN</DistanceMeters>
          </Trackpoint>
          <Trackpoint>
            <Time>2021-07-18T06:25:10.000Z</Time>
            <Position>
              <LatitudeDegrees>42.72609033621847629547119140625</LatitudeDegrees>
              <LongitudeDegrees>-0.2054550312459468841552734375</LongitudeDegrees>
            </Position>
            <AltitudeMeters>2504.800048828125</AltitudeMeters>
            <DistanceMeters>NAN</DistanceMeters>
          </Trackpoint>
          <Trackpoint>
            <Time>2021-07-18T06:25:16.000Z</Time>
            <Position>
              <LatitudeDegrees>42.72610207088291645050048828125</LatitudeDegrees>
              <LongitudeDegrees>-0.2054396085441112518310546875</LongitudeDegrees>
            </Position>
            <AltitudeMeters>2504.39990234375</AltitudeMeters>
            <DistanceMeters>NAN</DistanceMeters>
          </Trackpoint>
          <Trackpoint>
            <Time>2021-07-18T06:25:21.000Z</Time>
            <Position>
              <LatitudeDegrees>42.726120762526988983154296875</LatitudeDegrees>
              <LongitudeDegrees>-0.2054127864539623260498046875</LongitudeDegrees>
            </Position>
            <AltitudeMeters>2504</AltitudeMeters>
            <DistanceMeters>NAN</DistanceMeters>
          </Trackpoint>
          <Trackpoint>
            <Time>2021-07-18T06:25:23.000Z</Time>
            <Position>
              <LatitudeDegrees>42.72612218745052814483642578125</LatitudeDegrees>
              <LongitudeDegrees>-0.205407924950122833251953125</LongitudeDegrees>
            </Position>
            <AltitudeMeters>2504</AltitudeMeters>
            <DistanceMeters>NAN</DistanceMeters>
          </Trackpoint>
          <Trackpoint>
            <Time>2021-07-18T06:25:26.000Z</Time>
            <Position>
              <LatitudeDegrees>42.7261299826204776763916015625</LatitudeDegrees>
              <LongitudeDegrees>-0.205399878323078155517578125</LongitudeDegrees>
            </Position>
            <AltitudeMeters>2503.60009765625</AltitudeMeters>
            <DistanceMeters>NAN</DistanceMeters>
          </Trackpoint>
          <Trackpoint>
            <Time>2021-07-18T06:25:31.000Z</Time>
            <Position>
              <LatitudeDegrees>42.72611782886087894439697265625</LatitudeDegrees>
              <LongitudeDegrees>-0.20535939373075962066650390625</LongitudeDegrees>
            </Position>
            <AltitudeMeters>2504.199951171875</AltitudeMeters>
            <DistanceMeters>NAN</DistanceMeters>
          </Trackpoint>
          <Trackpoint>
            <Time>2021-07-18T06:25:37.000Z</Time>
            <Position>
              <LatitudeDegrees>42.7261155657470226287841796875</LatitudeDegrees>
              <LongitudeDegrees>-0.205358974635601043701171875</LongitudeDegrees>
            </Position>
            <AltitudeMeters>2504.39990234375</AltitudeMeters>
            <DistanceMeters>NAN</DistanceMeters>
          </Trackpoint>
          <Trackpoint>
            <Time>2021-07-18T06:25:42.000Z</Time>
            <Position>
              <LatitudeDegrees>42.7261155657470226287841796875</LatitudeDegrees>
              <LongitudeDegrees>-0.205362327396869659423828125</LongitudeDegrees>
            </Position>
            <AltitudeMeters>2504.199951171875</AltitudeMeters>
            <DistanceMeters>NAN</DistanceMeters>
          </Trackpoint>
          <Trackpoint>
            <Time>2021-07-18T06:25:44.000Z</Time>
            <Position>
              <LatitudeDegrees>42.7261155657470226287841796875</LatitudeDegrees>
              <LongitudeDegrees>-0.20536400377750396728515625</LongitudeDegrees>
            </Position>
            <AltitudeMeters>2504.199951171875</AltitudeMeters>
            <DistanceMeters>NAN</DistanceMeters>
          </Trackpoint>
          <Trackpoint>
            <Time>2021-07-18T06:25:45.000Z</Time>
            <Position>
              <LatitudeDegrees>42.7261155657470226287841796875</LatitudeDegrees>
              <LongitudeDegrees>-0.20536542870104312896728515625</LongitudeDegrees>
            </Position>
            <AltitudeMeters>2504.199951171875</AltitudeMeters>
            <DistanceMeters>NAN</DistanceMeters>
          </Trackpoint>
          <Trackpoint>
            <Time>2021-07-18T06:25:46.000Z</Time>
            <Position>
              <LatitudeDegrees>42.7261155657470226287841796875</LatitudeDegrees>
              <LongitudeDegrees>-0.2053675241768360137939453125</LongitudeDegrees>
            </Position>
            <AltitudeMeters>2504.199951171875</AltitudeMeters>
            <DistanceMeters>NAN</DistanceMeters>
          </Trackpoint>
          <Trackpoint>
            <Time>2021-07-18T06:25:47.000Z</Time>
            <Position>
              <LatitudeDegrees>42.7261155657470226287841796875</LatitudeDegrees>
              <LongitudeDegrees>-0.2053685300052165985107421875</LongitudeDegrees>
            </Position>
            <AltitudeMeters>2504.199951171875</AltitudeMeters>
            <DistanceMeters>NAN</DistanceMeters>
          </Trackpoint>
          <Trackpoint>
            <Time>2021-07-18T06:25:48.000Z</Time>
            <Position>
              <LatitudeDegrees>42.7261155657470226287841796875</LatitudeDegrees>
              <LongitudeDegrees>-0.20537062548100948333740234375</LongitudeDegrees>
            </Position>
            <AltitudeMeters>2504.199951171875</AltitudeMeters>
            <DistanceMeters>NAN</DistanceMeters>
          </Trackpoint>
          <Trackpoint>
            <Time>2021-07-18T06:25:50.000Z</Time>
            <Position>
              <LatitudeDegrees>42.7261155657470226287841796875</LatitudeDegrees>
              <LongitudeDegrees>-0.20537079311907291412353515625</LongitudeDegrees>
            </Position>
            <AltitudeMeters>2504.199951171875</AltitudeMeters>
            <DistanceMeters>NAN</DistanceMeters>
          </Trackpoint>
          <Trackpoint>
            <Time>2021-07-18T06:25:51.000Z</Time>
            <Position>
              <LatitudeDegrees>42.7261155657470226287841796875</LatitudeDegrees>
              <LongitudeDegrees>-0.20537079311907291412353515625</LongitudeDegrees>
            </Position>
            <AltitudeMeters>2504.199951171875</AltitudeMeters>
            <DistanceMeters>NAN</DistanceMeters>
          </Trackpoint>
          <Trackpoint>
            <Time>2021-07-18T06:25:52.000Z</Time>
            <Position>
              <LatitudeDegrees>42.7261155657470226287841796875</LatitudeDegrees>
              <LongitudeDegrees>-0.20537079311907291412353515625</LongitudeDegrees>
            </Position>
            <AltitudeMeters>2504.199951171875</AltitudeMeters>
            <DistanceMeters>NAN</DistanceMeters>
          </Trackpoint>
          <Trackpoint>
            <Time>2021-07-18T06:25:54.000Z</Time>
            <Position>
              <LatitudeDegrees>42.72611447609961032867431640625</LatitudeDegrees>
              <LongitudeDegrees>-0.20536878146231174468994140625</LongitudeDegrees>
            </Position>
            <AltitudeMeters>2504.39990234375</AltitudeMeters>
            <DistanceMeters>NAN</DistanceMeters>
          </Trackpoint>
          <Trackpoint>
            <Time>2021-07-18T06:26:06.000Z</Time>
            <Position>
              <LatitudeDegrees>42.72608312778174877166748046875</LatitudeDegrees>
              <LongitudeDegrees>-0.20535729825496673583984375</LongitudeDegrees>
            </Position>
            <AltitudeMeters>2505.39990234375</AltitudeMeters>
            <DistanceMeters>NAN</DistanceMeters>
          </Trackpoint>
          <Trackpoint>
            <Time>2021-07-18T06:26:09.000Z</Time>
            <Position>
              <LatitudeDegrees>42.7260620892047882080078125</LatitudeDegrees>
              <LongitudeDegrees>-0.205356292426586151123046875</LongitudeDegrees>
            </Position>
            <AltitudeMeters>2506</AltitudeMeters>
            <DistanceMeters>NAN</DistanceMeters>
          </Trackpoint>
          <Trackpoint>
            <Time>2021-07-18T06:26:19.000Z</Time>
            <Position>
              <LatitudeDegrees>42.72604130208492279052734375</LatitudeDegrees>
              <LongitudeDegrees>-0.205317400395870208740234375</LongitudeDegrees>
            </Position>
            <AltitudeMeters>2506.60009765625</AltitudeMeters>
            <DistanceMeters>NAN</DistanceMeters>
          </Trackpoint>
          <Trackpoint>
            <Time>2021-07-18T06:26:20.000Z</Time>
            <Position>
              <LatitudeDegrees>42.7260377816855907440185546875</LatitudeDegrees>
              <LongitudeDegrees>-0.20531564019620418548583984375</LongitudeDegrees>
            </Position>
            <AltitudeMeters>2506.60009765625</AltitudeMeters>
            <DistanceMeters>NAN</DistanceMeters>
          </Trackpoint>
          <Trackpoint>
            <Time>2021-07-18T06:26:21.000Z</Time>
            <Position>
              <LatitudeDegrees>42.7260324172675609588623046875</LatitudeDegrees>
              <LongitudeDegrees>-0.205315053462982177734375</LongitudeDegrees>
            </Position>
            <AltitudeMeters>2506.60009765625</AltitudeMeters>
            <DistanceMeters>NAN</DistanceMeters>
          </Trackpoint>
          <Trackpoint>
            <Time>2021-07-18T06:26:23.000Z</Time>
            <Position>
              <LatitudeDegrees>42.72602546028792858123779296875</LatitudeDegrees>
              <LongitudeDegrees>-0.205312035977840423583984375</LongitudeDegrees>
            </Position>
            <AltitudeMeters>2506.60009765625</AltitudeMeters>
            <DistanceMeters>NAN</DistanceMeters>
          </Trackpoint>
          <Trackpoint>
            <Time>2021-07-18T06:26:24.000Z</Time>
            <Position>
              <LatitudeDegrees>42.7260223589837551116943359375</LatitudeDegrees>
              <LongitudeDegrees>-0.20531094633042812347412109375</LongitudeDegrees>
            </Position>
            <AltitudeMeters>2506.800048828125</AltitudeMeters>
            <DistanceMeters>NAN</DistanceMeters>
          </Trackpoint>
          <Trackpoint>
            <Time>2021-07-18T06:26:34.000Z</Time>
            <Position>
              <LatitudeDegrees>42.72600651718676090240478515625</LatitudeDegrees>
              <LongitudeDegrees>-0.2052962779998779296875</LongitudeDegrees>
            </Position>
            <AltitudeMeters>2506.60009765625</AltitudeMeters>
            <DistanceMeters>NAN</DistanceMeters>
          </Trackpoint>
          <Trackpoint>
            <Time>2021-07-18T06:26:38.000Z</Time>
            <Position>
              <LatitudeDegrees>42.72599662654101848602294921875</LatitudeDegrees>
              <LongitudeDegrees>-0.2052870579063892364501953125</LongitudeDegrees>
            </Position>
            <AltitudeMeters>2506.60009765625</AltitudeMeters>
            <DistanceMeters>NAN</DistanceMeters>
          </Trackpoint>
          <Trackpoint>
            <Time>2021-07-18T06:26:44.000Z</Time>
            <Position>
              <LatitudeDegrees>42.7259710617363452911376953125</LatitudeDegrees>
              <LongitudeDegrees>-0.20527825690805912017822265625</LongitudeDegrees>
            </Position>
            <AltitudeMeters>2506.60009765625</AltitudeMeters>
            <DistanceMeters>NAN</DistanceMeters>
          </Trackpoint>
          <Trackpoint>
            <Time>2021-07-18T06:26:48.000Z</Time>
            <Position>
              <LatitudeDegrees>42.7259643562138080596923828125</LatitudeDegrees>
              <LongitudeDegrees>-0.20527222193777561187744140625</LongitudeDegrees>
            </Position>
            <AltitudeMeters>2506.60009765625</AltitudeMeters>
            <DistanceMeters>NAN</DistanceMeters>
          </Trackpoint>
          <Trackpoint>
            <Time>2021-07-18T06:26:57.000Z</Time>
            <Position>
              <LatitudeDegrees>42.7259321697056293487548828125</LatitudeDegrees>
              <LongitudeDegrees>-0.205263085663318634033203125</LongitudeDegrees>
            </Position>
            <AltitudeMeters>2506.800048828125</AltitudeMeters>
            <DistanceMeters>NAN</DistanceMeters>
          </Trackpoint>
          <Trackpoint>
            <Time>2021-07-18T06:27:37.000Z</Time>
            <Position>
              <LatitudeDegrees>42.72583083249628543853759765625</LatitudeDegrees>
              <LongitudeDegrees>-0.205203406512737274169921875</LongitudeDegrees>
            </Position>
            <AltitudeMeters>2507.800048828125</AltitudeMeters>
            <DistanceMeters>NAN</DistanceMeters>
          </Trackpoint>
          <Trackpoint>
            <Time>2021-07-18T06:27:43.000Z</Time>
            <Position>
              <LatitudeDegrees>42.72582060657441616058349609375</LatitudeDegrees>
              <LongitudeDegrees>-0.20520315505564212799072265625</LongitudeDegrees>
            </Position>
            <AltitudeMeters>2508</AltitudeMeters>
            <DistanceMeters>NAN</DistanceMeters>
          </Trackpoint>
          <Trackpoint>
            <Time>2021-07-18T06:27:56.000Z</Time>
            <Position>
              <LatitudeDegrees>42.72578640840947628021240234375</LatitudeDegrees>
              <LongitudeDegrees>-0.2051881514489650726318359375</LongitudeDegrees>
            </Position>
            <AltitudeMeters>2508.60009765625</AltitudeMeters>
            <DistanceMeters>NAN</DistanceMeters>
          </Trackpoint>
          <Trackpoint>
            <Time>2021-07-18T06:28:09.000Z</Time>
            <Position>
              <LatitudeDegrees>42.72574516944587230682373046875</LatitudeDegrees>
              <LongitudeDegrees>-0.20518605597317218780517578125</LongitudeDegrees>
            </Position>
            <AltitudeMeters>2509.60009765625</AltitudeMeters>
            <DistanceMeters>NAN</DistanceMeters>
          </Trackpoint>
          <Trackpoint>
            <Time>2021-07-18T06:28:14.000Z</Time>
            <Position>
              <LatitudeDegrees>42.72573058493435382843017578125</LatitudeDegrees>
              <LongitudeDegrees>-0.20518421195447444915771484375</LongitudeDegrees>
            </Position>
            <AltitudeMeters>2510</AltitudeMeters>
            <DistanceMeters>NAN</DistanceMeters>
          </Trackpoint>
          <Trackpoint>
            <Time>2021-07-18T06:28:15.000Z</Time>
            <Position>
              <LatitudeDegrees>42.72572790272533893585205078125</LatitudeDegrees>
              <LongitudeDegrees>-0.20518253557384014129638671875</LongitudeDegrees>
            </Position>
            <AltitudeMeters>2510</AltitudeMeters>
            <DistanceMeters>NAN</DistanceMeters>
          </Trackpoint>
          <Trackpoint>
            <Time>2021-07-18T06:28:21.000Z</Time>
            <Position>
              <LatitudeDegrees>42.72570929490029811859130859375</LatitudeDegrees>
              <LongitudeDegrees>-0.20517298020422458648681640625</LongitudeDegrees>
            </Position>
            <AltitudeMeters>2510.39990234375</AltitudeMeters>
            <DistanceMeters>NAN</DistanceMeters>
          </Trackpoint>
          <Trackpoint>
            <Time>2021-07-18T06:28:24.000Z</Time>
            <Position>
              <LatitudeDegrees>42.72570141591131687164306640625</LatitudeDegrees>
              <LongitudeDegrees>-0.20517080090939998626708984375</LongitudeDegrees>
            </Position>
            <AltitudeMeters>2510.60009765625</AltitudeMeters>
            <DistanceMeters>NAN</DistanceMeters>
          </Trackpoint>
          <Trackpoint>
            <Time>2021-07-18T06:28:45.000Z</Time>
            <Position>
              <LatitudeDegrees>42.72564232349395751953125</LatitudeDegrees>
              <LongitudeDegrees>-0.2050738222897052764892578125</LongitudeDegrees>
            </Position>
            <AltitudeMeters>2508.800048828125</AltitudeMeters>
            <DistanceMeters>NAN</DistanceMeters>
          </Trackpoint>
          <Trackpoint>
            <Time>2021-07-18T06:28:48.000Z</Time>
            <Position>
              <LatitudeDegrees>42.72559513337910175323486328125</LatitudeDegrees>
              <LongitudeDegrees>-0.20500232465565204620361328125</LongitudeDegrees>
            </Position>
            <AltitudeMeters>2506.60009765625</AltitudeMeters>
            <DistanceMeters>NAN</DistanceMeters>
          </Trackpoint>
          <Trackpoint>
            <Time>2021-07-18T06:28:49.000Z</Time>
            <Position>
              <LatitudeDegrees>42.72557987831532955169677734375</LatitudeDegrees>
              <LongitudeDegrees>-0.20498170517385005950927734375</LongitudeDegrees>
            </Position>
            <AltitudeMeters>2506</AltitudeMeters>
            <DistanceMeters>NAN</DistanceMeters>
          </Trackpoint>
          <Trackpoint>
            <Time>2021-07-18T06:28:54.000Z</Time>
            <Position>
              <LatitudeDegrees>42.725547440350055694580078125</LatitudeDegrees>
              <LongitudeDegrees>-0.20492018200457096099853515625</LongitudeDegrees>
            </Position>
            <AltitudeMeters>2504</AltitudeMeters>
            <DistanceMeters>NAN</DistanceMeters>
          </Trackpoint>
          <Trackpoint>
            <Time>2021-07-18T06:28:56.000Z</Time>
            <Position>
              <LatitudeDegrees>42.7255516313016414642333984375</LatitudeDegrees>
              <LongitudeDegrees>-0.20492604933679103851318359375</LongitudeDegrees>
            </Position>
            <AltitudeMeters>2504.199951171875</AltitudeMeters>
            <DistanceMeters>NAN</DistanceMeters>
          </Trackpoint>
          <Trackpoint>
            <Time>2021-07-18T06:29:02.000Z</Time>
            <Position>
              <LatitudeDegrees>42.7255667187273502349853515625</LatitudeDegrees>
              <LongitudeDegrees>-0.2049309946596622467041015625</LongitudeDegrees>
            </Position>
            <AltitudeMeters>2504.39990234375</AltitudeMeters>
            <DistanceMeters>NAN</DistanceMeters>
          </Trackpoint>
          <Trackpoint>
            <Time>2021-07-18T06:29:12.000Z</Time>
            <Position>
              <LatitudeDegrees>42.7255978994071483612060546875</LatitudeDegrees>
              <LongitudeDegrees>-0.20492336712777614593505859375</LongitudeDegrees>
            </Position>
            <AltitudeMeters>2504.199951171875</AltitudeMeters>
            <DistanceMeters>NAN</DistanceMeters>
          </Trackpoint>
          <Trackpoint>
            <Time>2021-07-18T06:29:20.000Z</Time>
            <Position>
              <LatitudeDegrees>42.7256183512508869171142578125</LatitudeDegrees>
              <LongitudeDegrees>-0.204887576401233673095703125</LongitudeDegrees>
            </Position>
            <AltitudeMeters>2503.199951171875</AltitudeMeters>
            <DistanceMeters>NAN</DistanceMeters>
          </Trackpoint>
          <Trackpoint>
            <Time>2021-07-18T06:29:29.000Z</Time>
            <Position>
              <LatitudeDegrees>42.72561860270798206329345703125</LatitudeDegrees>
              <LongitudeDegrees>-0.204853713512420654296875</LongitudeDegrees>
            </Position>
            <AltitudeMeters>2502.199951171875</AltitudeMeters>
            <DistanceMeters>NAN</DistanceMeters>
          </Trackpoint>
          <Trackpoint>
            <Time>2021-07-18T06:29:38.000Z</Time>
            <Position>
              <LatitudeDegrees>42.72559429518878459930419921875</LatitudeDegrees>
              <LongitudeDegrees>-0.20481725223362445831298828125</LongitudeDegrees>
            </Position>
            <AltitudeMeters>2501</AltitudeMeters>
            <DistanceMeters>NAN</DistanceMeters>
          </Trackpoint>
          <Trackpoint>
            <Time>2021-07-18T06:29:44.000Z</Time>
            <Position>
              <LatitudeDegrees>42.72560133598744869232177734375</LatitudeDegrees>
              <LongitudeDegrees>-0.20477919839322566986083984375</LongitudeDegrees>
            </Position>
            <AltitudeMeters>2500</AltitudeMeters>
            <DistanceMeters>NAN</DistanceMeters>
          </Trackpoint>
          <Trackpoint>
            <Time>2021-07-18T06:29:46.000Z</Time>
            <Position>
              <LatitudeDegrees>42.7255948819220066070556640625</LatitudeDegrees>
              <LongitudeDegrees>-0.2047596685588359832763671875</LongitudeDegrees>
            </Position>
            <AltitudeMeters>2499.39990234375</AltitudeMeters>
            <DistanceMeters>NAN</DistanceMeters>
          </Trackpoint>
          <Trackpoint>
            <Time>2021-07-18T06:29:47.000Z</Time>
            <Position>
              <LatitudeDegrees>42.7255935408174991607666015625</LatitudeDegrees>
              <LongitudeDegrees>-0.20475505851209163665771484375</LongitudeDegrees>
            </Position>
            <AltitudeMeters>2499.39990234375</AltitudeMeters>
            <DistanceMeters>NAN</DistanceMeters>
          </Trackpoint>
          <Trackpoint>
            <Time>2021-07-18T06:29:49.000Z</Time>
            <Position>
              <LatitudeDegrees>42.72559932433068752288818359375</LatitudeDegrees>
              <LongitudeDegrees>-0.20473862998187541961669921875</LongitudeDegrees>
            </Position>
            <AltitudeMeters>2498.800048828125</AltitudeMeters>
            <DistanceMeters>NAN</DistanceMeters>
          </Trackpoint>
          <Trackpoint>
            <Time>2021-07-18T06:29:52.000Z</Time>
            <Position>
              <LatitudeDegrees>42.72560066543519496917724609375</LatitudeDegrees>
              <LongitudeDegrees>-0.20472102798521518707275390625</LongitudeDegrees>
            </Position>
            <AltitudeMeters>2498.39990234375</AltitudeMeters>
            <DistanceMeters>NAN</DistanceMeters>
          </Trackpoint>
          <Trackpoint>
            <Time>2021-07-18T06:29:56.000Z</Time>
            <Position>
              <LatitudeDegrees>42.7256049402058124542236328125</LatitudeDegrees>
              <LongitudeDegrees>-0.20467995665967464447021484375</LongitudeDegrees>
            </Position>
            <AltitudeMeters>2497.199951171875</AltitudeMeters>
            <DistanceMeters>NAN</DistanceMeters>
          </Trackpoint>
          <Trackpoint>
            <Time>2021-07-18T06:30:00.000Z</Time>
            <Position>
              <LatitudeDegrees>42.72560049779713153839111328125</LatitudeDegrees>
              <LongitudeDegrees>-0.20466134883463382720947265625</LongitudeDegrees>
            </Position>
            <AltitudeMeters>2496.60009765625</AltitudeMeters>
            <DistanceMeters>NAN</DistanceMeters>
          </Trackpoint>
          <Trackpoint>
            <Time>2021-07-18T06:30:01.000Z</Time>
            <Position>
              <LatitudeDegrees>42.72559815086424350738525390625</LatitudeDegrees>
              <LongitudeDegrees>-0.2046590857207775115966796875</LongitudeDegrees>
            </Position>
            <AltitudeMeters>2496.60009765625</AltitudeMeters>
            <DistanceMeters>NAN</DistanceMeters>
          </Trackpoint>
          <Trackpoint>
            <Time>2021-07-18T06:30:03.000Z</Time>
            <Position>
              <LatitudeDegrees>42.7255992405116558074951171875</LatitudeDegrees>
              <LongitudeDegrees>-0.2046456746757030487060546875</LongitudeDegrees>
            </Position>
            <AltitudeMeters>2496.199951171875</AltitudeMeters>
            <DistanceMeters>NAN</DistanceMeters>
          </Trackpoint>
          <Trackpoint>
            <Time>2021-07-18T06:30:06.000Z</Time>
            <Position>
              <LatitudeDegrees>42.72558641619980335235595703125</LatitudeDegrees>
              <LongitudeDegrees>-0.2046218700706958770751953125</LongitudeDegrees>
            </Position>
            <AltitudeMeters>2495.60009765625</AltitudeMeters>
            <DistanceMeters>NAN</DistanceMeters>
          </Trackpoint>
          <Trackpoint>
            <Time>2021-07-18T06:30:07.000Z</Time>
            <Position>
              <LatitudeDegrees>42.7255834825336933135986328125</LatitudeDegrees>
              <LongitudeDegrees>-0.20461575128138065338134765625</LongitudeDegrees>
            </Position>
            <AltitudeMeters>2495.39990234375</AltitudeMeters>
            <DistanceMeters>NAN</DistanceMeters>
          </Trackpoint>
          <Trackpoint>
            <Time>2021-07-18T06:30:09.000Z</Time>
            <Position>
              <LatitudeDegrees>42.72558071650564670562744140625</LatitudeDegrees>
              <LongitudeDegrees>-0.20460267551243305206298828125</LongitudeDegrees>
            </Position>
            <AltitudeMeters>2495</AltitudeMeters>
            <DistanceMeters>NAN</DistanceMeters>
          </Trackpoint>
          <Trackpoint>
            <Time>2021-07-18T06:30:11.000Z</Time>
            <Position>
              <LatitudeDegrees>42.725580632686614990234375</LatitudeDegrees>
              <LongitudeDegrees>-0.2045836485922336578369140625</LongitudeDegrees>
            </Position>
            <AltitudeMeters>2494.60009765625</AltitudeMeters>
            <DistanceMeters>NAN</DistanceMeters>
          </Trackpoint>
          <Trackpoint>
            <Time>2021-07-18T06:30:14.000Z</Time>
            <Position>
              <LatitudeDegrees>42.72557686083018779754638671875</LatitudeDegrees>
              <LongitudeDegrees>-0.20455372519791126251220703125</LongitudeDegrees>
            </Position>
            <AltitudeMeters>2493.60009765625</AltitudeMeters>
            <DistanceMeters>NAN</DistanceMeters>
          </Trackpoint>
          <Trackpoint>
            <Time>2021-07-18T06:30:17.000Z</Time>
            <Position>
              <LatitudeDegrees>42.725561521947383880615234375</LatitudeDegrees>
              <LongitudeDegrees>-0.20452874712646007537841796875</LongitudeDegrees>
            </Position>
            <AltitudeMeters>2493</AltitudeMeters>
            <DistanceMeters>NAN</DistanceMeters>
          </Trackpoint>
          <Trackpoint>
            <Time>2021-07-18T06:30:18.000Z</Time>
            <Position>
              <LatitudeDegrees>42.7255559898912906646728515625</LatitudeDegrees>
              <LongitudeDegrees>-0.204524807631969451904296875</LongitudeDegrees>
            </Position>
            <AltitudeMeters>2493</AltitudeMeters>
            <DistanceMeters>NAN</DistanceMeters>
          </Trackpoint>
          <Trackpoint>
            <Time>2021-07-18T06:30:19.000Z</Time>
            <Position>
              <LatitudeDegrees>42.72555523552000522613525390625</LatitudeDegrees>
              <LongitudeDegrees>-0.204515755176544189453125</LongitudeDegrees>
            </Position>
            <AltitudeMeters>2492.60009765625</AltitudeMeters>
            <DistanceMeters>NAN</DistanceMeters>
          </Trackpoint>
          <Trackpoint>
            <Time>2021-07-18T06:30:21.000Z</Time>
            <Position>
              <LatitudeDegrees>42.7255455963313579559326171875</LatitudeDegrees>
              <LongitudeDegrees>-0.20448884926736354827880859375</LongitudeDegrees>
            </Position>
            <AltitudeMeters>2492</AltitudeMeters>
            <DistanceMeters>NAN</DistanceMeters>
          </Trackpoint>
          <Trackpoint>
            <Time>2021-07-18T06:30:24.000Z</Time>
            <Position>
              <LatitudeDegrees>42.72554316557943820953369140625</LatitudeDegrees>
              <LongitudeDegrees>-0.20445163361728191375732421875</LongitudeDegrees>
            </Position>
            <AltitudeMeters>2490.800048828125</AltitudeMeters>
            <DistanceMeters>NAN</DistanceMeters>
          </Trackpoint>
          <Trackpoint>
            <Time>2021-07-18T06:30:31.000Z</Time>
            <Position>
              <LatitudeDegrees>42.72554350085556507110595703125</LatitudeDegrees>
              <LongitudeDegrees>-0.20434618927538394927978515625</LongitudeDegrees>
            </Position>
            <AltitudeMeters>2488.60009765625</AltitudeMeters>
            <DistanceMeters>NAN</DistanceMeters>
          </Trackpoint>
          <Trackpoint>
            <Time>2021-07-18T06:30:36.000Z</Time>
            <Position>
              <LatitudeDegrees>42.7255452610552310943603515625</LatitudeDegrees>
              <LongitudeDegrees>-0.20427745766937732696533203125</LongitudeDegrees>
            </Position>
            <AltitudeMeters>2487.199951171875</AltitudeMeters>
            <DistanceMeters>NAN</DistanceMeters>
          </Trackpoint>
          <Trackpoint>
            <Time>2021-07-18T06:30:41.000Z</Time>
            <Position>
              <LatitudeDegrees>42.725544758141040802001953125</LatitudeDegrees>
              <LongitudeDegrees>-0.2042309381067752838134765625</LongitudeDegrees>
            </Position>
            <AltitudeMeters>2486.39990234375</AltitudeMeters>
            <DistanceMeters>NAN</DistanceMeters>
          </Trackpoint>
          <Trackpoint>
            <Time>2021-07-18T06:30:43.000Z</Time>
            <Position>
              <LatitudeDegrees>42.725523300468921661376953125</LatitudeDegrees>
              <LongitudeDegrees>-0.20422833971679210662841796875</LongitudeDegrees>
            </Position>
            <AltitudeMeters>2486.60009765625</AltitudeMeters>
            <DistanceMeters>NAN</DistanceMeters>
          </Trackpoint>
          <Trackpoint>
            <Time>2021-07-18T06:30:46.000Z</Time>
            <Position>
              <LatitudeDegrees>42.725519277155399322509765625</LatitudeDegrees>
              <LongitudeDegrees>-0.20421761088073253631591796875</LongitudeDegrees>
            </Position>
            <AltitudeMeters>2486.39990234375</AltitudeMeters>
            <DistanceMeters>NAN</DistanceMeters>
          </Trackpoint>
          <Trackpoint>
            <Time>2021-07-18T06:30:49.000Z</Time>
            <Position>
              <LatitudeDegrees>42.7255417406558990478515625</LatitudeDegrees>
              <LongitudeDegrees>-0.20419984124600887298583984375</LongitudeDegrees>
            </Position>
            <AltitudeMeters>2486</AltitudeMeters>
            <DistanceMeters>NAN</DistanceMeters>
          </Trackpoint>
          <Trackpoint>
            <Time>2021-07-18T06:30:52.000Z</Time>
            <Position>
              <LatitudeDegrees>42.72553109563887119293212890625</LatitudeDegrees>
              <LongitudeDegrees>-0.20418559201061725616455078125</LongitudeDegrees>
            </Position>
            <AltitudeMeters>2485.800048828125</AltitudeMeters>
            <DistanceMeters>NAN</DistanceMeters>
          </Trackpoint>
          <Trackpoint>
            <Time>2021-07-18T06:30:55.000Z</Time>
            <Position>
              <LatitudeDegrees>42.72552405484020709991455078125</LatitudeDegrees>
              <LongitudeDegrees>-0.2041665650904178619384765625</LongitudeDegrees>
            </Position>
            <AltitudeMeters>2485.39990234375</AltitudeMeters>
            <DistanceMeters>NAN</DistanceMeters>
          </Trackpoint>
          <Trackpoint>
            <Time>2021-07-18T06:30:58.000Z</Time>
            <Position>
              <LatitudeDegrees>42.72551148198544979095458984375</LatitudeDegrees>
              <LongitudeDegrees>-0.2041588537395000457763671875</LongitudeDegrees>
            </Position>
            <AltitudeMeters>2485.39990234375</AltitudeMeters>
            <DistanceMeters>NAN</DistanceMeters>
          </Trackpoint>
          <Trackpoint>
            <Time>2021-07-18T06:30:59.000Z</Time>
            <Position>
              <LatitudeDegrees>42.72551022469997406005859375</LatitudeDegrees>
              <LongitudeDegrees>-0.20415432751178741455078125</LongitudeDegrees>
            </Position>
            <AltitudeMeters>2485.39990234375</AltitudeMeters>
            <DistanceMeters>NAN</DistanceMeters>
          </Trackpoint>
          <Trackpoint>
            <Time>2021-07-18T06:31:01.000Z</Time>
            <Position>
              <LatitudeDegrees>42.72550997324287891387939453125</LatitudeDegrees>
              <LongitudeDegrees>-0.2041414193809032440185546875</LongitudeDegrees>
            </Position>
            <AltitudeMeters>2485.199951171875</AltitudeMeters>
            <DistanceMeters>NAN</DistanceMeters>
          </Trackpoint>
          <Trackpoint>
            <Time>2021-07-18T06:31:02.000Z</Time>
            <Position>
              <LatitudeDegrees>42.725509889423847198486328125</LatitudeDegrees>
              <LongitudeDegrees>-0.2041389048099517822265625</LongitudeDegrees>
            </Position>
            <AltitudeMeters>2485.199951171875</AltitudeMeters>
            <DistanceMeters>NAN</DistanceMeters>
          </Trackpoint>
          <Trackpoint>
            <Time>2021-07-18T06:31:04.000Z</Time>
            <Position>
              <LatitudeDegrees>42.72551424801349639892578125</LatitudeDegrees>
              <LongitudeDegrees>-0.204125829041004180908203125</LongitudeDegrees>
            </Position>
            <AltitudeMeters>2484.800048828125</AltitudeMeters>
            <DistanceMeters>NAN</DistanceMeters>
          </Trackpoint>
          <Trackpoint>
            <Time>2021-07-18T06:31:06.000Z</Time>
            <Position>
              <LatitudeDegrees>42.72551533766090869903564453125</LatitudeDegrees>
              <LongitudeDegrees>-0.20411551930010318756103515625</LongitudeDegrees>
            </Position>
            <AltitudeMeters>2484.60009765625</AltitudeMeters>
            <DistanceMeters>NAN</DistanceMeters>
          </Trackpoint>
          <Trackpoint>
            <Time>2021-07-18T06:31:09.000Z</Time>
            <Position>
              <LatitudeDegrees>42.725509218871593475341796875</LatitudeDegrees>
              <LongitudeDegrees>-0.20410068333148956298828125</LongitudeDegrees>
            </Position>
            <AltitudeMeters>2484.39990234375</AltitudeMeters>
            <DistanceMeters>NAN</DistanceMeters>
          </Trackpoint>
          <Trackpoint>
            <Time>2021-07-18T06:31:19.000Z</Time>
            <Position>
              <LatitudeDegrees>42.72548742592334747314453125</LatitudeDegrees>
              <LongitudeDegrees>-0.20408148877322673797607421875</LongitudeDegrees>
            </Position>
            <AltitudeMeters>2484.39990234375</AltitudeMeters>
            <DistanceMeters>NAN</DistanceMeters>
          </Trackpoint>
          <Trackpoint>
            <Time>2021-07-18T06:31:26.000Z</Time>
            <Position>
              <LatitudeDegrees>42.72548298351466655731201171875</LatitudeDegrees>
              <LongitudeDegrees>-0.2040602825582027435302734375</LongitudeDegrees>
            </Position>
            <AltitudeMeters>2483.800048828125</AltitudeMeters>
            <DistanceMeters>NAN</DistanceMeters>
          </Trackpoint>
          <Trackpoint>
            <Time>2021-07-18T06:31:30.000Z</Time>
            <Position>
              <LatitudeDegrees>42.72547711618244647979736328125</LatitudeDegrees>
              <LongitudeDegrees>-0.2040401659905910491943359375</LongitudeDegrees>
            </Position>
            <AltitudeMeters>2483.39990234375</AltitudeMeters>
            <DistanceMeters>NAN</DistanceMeters>
          </Trackpoint>
          <Trackpoint>
            <Time>2021-07-18T06:31:33.000Z</Time>
            <Position>
              <LatitudeDegrees>42.725475020706653594970703125</LatitudeDegrees>
              <LongitudeDegrees>-0.20402700640261173248291015625</LongitudeDegrees>
            </Position>
            <AltitudeMeters>2483</AltitudeMeters>
            <DistanceMeters>NAN</DistanceMeters>
          </Trackpoint>
          <Trackpoint>
            <Time>2021-07-18T06:31:34.000Z</Time>
            <Position>
              <LatitudeDegrees>42.72547158412635326385498046875</LatitudeDegrees>
              <LongitudeDegrees>-0.204021893441677093505859375</LongitudeDegrees>
            </Position>
            <AltitudeMeters>2483</AltitudeMeters>
            <DistanceMeters>NAN</DistanceMeters>
          </Trackpoint>
          <Trackpoint>
            <Time>2021-07-18T06:31:37.000Z</Time>
            <Position>
              <LatitudeDegrees>42.72546236403286457061767578125</LatitudeDegrees>
              <LongitudeDegrees>-0.204007811844348907470703125</LongitudeDegrees>
            </Position>
            <AltitudeMeters>2482.800048828125</AltitudeMeters>
            <DistanceMeters>NAN</DistanceMeters>
          </Trackpoint>
          <Trackpoint>
            <Time>2021-07-18T06:31:39.000Z</Time>
            <Position>
              <LatitudeDegrees>42.725461609661579132080078125</LatitudeDegrees>
              <LongitudeDegrees>-0.20400018431246280670166015625</LongitudeDegrees>
            </Position>
            <AltitudeMeters>2482.60009765625</AltitudeMeters>
            <DistanceMeters>NAN</DistanceMeters>
          </Trackpoint>
          <Trackpoint>
            <Time>2021-07-18T06:31:43.000Z</Time>
            <Position>
              <LatitudeDegrees>42.72546538151800632476806640625</LatitudeDegrees>
              <LongitudeDegrees>-0.20399549044668674468994140625</LongitudeDegrees>
            </Position>
            <AltitudeMeters>2482.39990234375</AltitudeMeters>
            <DistanceMeters>NAN</DistanceMeters>
          </Trackpoint>
          <Trackpoint>
            <Time>2021-07-18T06:31:45.000Z</Time>
            <Position>
              <LatitudeDegrees>42.72546596825122833251953125</LatitudeDegrees>
              <LongitudeDegrees>-0.203990377485752105712890625</LongitudeDegrees>
            </Position>
            <AltitudeMeters>2482.199951171875</AltitudeMeters>
            <DistanceMeters>NAN</DistanceMeters>
          </Trackpoint>
          <Trackpoint>
            <Time>2021-07-18T06:31:59.000Z</Time>
            <Position>
              <LatitudeDegrees>42.72546596825122833251953125</LatitudeDegrees>
              <LongitudeDegrees>-0.20398979075253009796142578125</LongitudeDegrees>
            </Position>
            <AltitudeMeters>2482.199951171875</AltitudeMeters>
            <DistanceMeters>NAN</DistanceMeters>
          </Trackpoint>
          <Trackpoint>
            <Time>2021-07-18T06:32:05.000Z</Time>
            <Position>
              <LatitudeDegrees>42.72546420805156230926513671875</LatitudeDegrees>
              <LongitudeDegrees>-0.20398358814418315887451171875</LongitudeDegrees>
            </Position>
            <AltitudeMeters>2482.199951171875</AltitudeMeters>
            <DistanceMeters>NAN</DistanceMeters>
          </Trackpoint>
          <Trackpoint>
            <Time>2021-07-18T06:32:10.000Z</Time>
            <Position>
              <LatitudeDegrees>42.72546001709997653961181640625</LatitudeDegrees>
              <LongitudeDegrees>-0.203980989754199981689453125</LongitudeDegrees>
            </Position>
            <AltitudeMeters>2482.199951171875</AltitudeMeters>
            <DistanceMeters>NAN</DistanceMeters>
          </Trackpoint>
          <Trackpoint>
            <Time>2021-07-18T06:32:19.000Z</Time>
            <Position>
              <LatitudeDegrees>42.72545029409229755401611328125</LatitudeDegrees>
              <LongitudeDegrees>-0.20394419319927692413330078125</LongitudeDegrees>
            </Position>
            <AltitudeMeters>2481.199951171875</AltitudeMeters>
            <DistanceMeters>NAN</DistanceMeters>
          </Trackpoint>
          <Trackpoint>
            <Time>2021-07-18T06:32:33.000Z</Time>
            <Position>
              <LatitudeDegrees>42.72543017752468585968017578125</LatitudeDegrees>
              <LongitudeDegrees>-0.20391619764268398284912109375</LongitudeDegrees>
            </Position>
            <AltitudeMeters>2480.60009765625</AltitudeMeters>
            <DistanceMeters>NAN</DistanceMeters>
          </Trackpoint>
          <Trackpoint>
            <Time>2021-07-18T06:33:01.000Z</Time>
            <Position>
              <LatitudeDegrees>42.72539413534104824066162109375</LatitudeDegrees>
              <LongitudeDegrees>-0.2038550935685634613037109375</LongitudeDegrees>
            </Position>
            <AltitudeMeters>2479</AltitudeMeters>
            <DistanceMeters>NAN</DistanceMeters>
          </Trackpoint>
          <Trackpoint>
            <Time>2021-07-18T06:33:08.000Z</Time>
            <Position>
              <LatitudeDegrees>42.72539514116942882537841796875</LatitudeDegrees>
              <LongitudeDegrees>-0.203846208751201629638671875</LongitudeDegrees>
            </Position>
            <AltitudeMeters>2478.800048828125</AltitudeMeters>
            <DistanceMeters>NAN</DistanceMeters>
          </Trackpoint>
          <Trackpoint>
            <Time>2021-07-18T06:33:20.000Z</Time>
            <Position>
              <LatitudeDegrees>42.72539128549396991729736328125</LatitudeDegrees>
              <LongitudeDegrees>-0.2038165368139743804931640625</LongitudeDegrees>
            </Position>
            <AltitudeMeters>2478</AltitudeMeters>
            <DistanceMeters>NAN</DistanceMeters>
          </Trackpoint>
          <Trackpoint>
            <Time>2021-07-18T06:33:23.000Z</Time>
            <Position>
              <LatitudeDegrees>42.72538424469530582427978515625</LatitudeDegrees>
              <LongitudeDegrees>-0.203807651996612548828125</LongitudeDegrees>
            </Position>
            <AltitudeMeters>2477.800048828125</AltitudeMeters>
            <DistanceMeters>NAN</DistanceMeters>
          </Trackpoint>
          <Trackpoint>
            <Time>2021-07-18T06:33:33.000Z</Time>
            <Position>
              <LatitudeDegrees>42.7253727614879608154296875</LatitudeDegrees>
              <LongitudeDegrees>-0.203793235123157501220703125</LongitudeDegrees>
            </Position>
            <AltitudeMeters>2477.39990234375</AltitudeMeters>
            <DistanceMeters>NAN</DistanceMeters>
          </Trackpoint>
          <Trackpoint>
            <Time>2021-07-18T06:33:40.000Z</Time>
            <Position>
              <LatitudeDegrees>42.7253727614879608154296875</LatitudeDegrees>
              <LongitudeDegrees>-0.20378426648676395416259765625</LongitudeDegrees>
            </Position>
            <AltitudeMeters>2477.199951171875</AltitudeMeters>
            <DistanceMeters>NAN</DistanceMeters>
          </Trackpoint>
          <Trackpoint>
            <Time>2021-07-18T06:34:40.000Z</Time>
            <Position>
              <LatitudeDegrees>42.7254054509103298187255859375</LatitudeDegrees>
              <LongitudeDegrees>-0.20363129675388336181640625</LongitudeDegrees>
            </Position>
            <AltitudeMeters>2469.39990234375</AltitudeMeters>
            <DistanceMeters>NAN</DistanceMeters>
          </Trackpoint>
          <Trackpoint>
            <Time>2021-07-18T06:34:50.000Z</Time>
            <Position>
              <LatitudeDegrees>42.7253913693130016326904296875</LatitudeDegrees>
              <LongitudeDegrees>-0.20360958762466907501220703125</LongitudeDegrees>
            </Position>
            <AltitudeMeters>2467.800048828125</AltitudeMeters>
            <DistanceMeters>NAN</DistanceMeters>
          </Trackpoint>
          <Trackpoint>
            <Time>2021-07-18T06:35:09.000Z</Time>
            <Position>
              <LatitudeDegrees>42.7253769524395465850830078125</LatitudeDegrees>
              <LongitudeDegrees>-0.2035989426076412200927734375</LongitudeDegrees>
            </Position>
            <AltitudeMeters>2466.800048828125</AltitudeMeters>
            <DistanceMeters>NAN</DistanceMeters>
          </Trackpoint>
          <Trackpoint>
            <Time>2021-07-18T06:35:11.000Z</Time>
            <Position>
              <LatitudeDegrees>42.7253769524395465850830078125</LatitudeDegrees>
              <LongitudeDegrees>-0.20359885878860950469970703125</LongitudeDegrees>
            </Position>
            <AltitudeMeters>2466.800048828125</AltitudeMeters>
            <DistanceMeters>NAN</DistanceMeters>
          </Trackpoint>
          <Trackpoint>
            <Time>2021-07-18T06:35:16.000Z</Time>
            <Position>
              <LatitudeDegrees>42.725376784801483154296875</LatitudeDegrees>
              <LongitudeDegrees>-0.20359852351248264312744140625</LongitudeDegrees>
            </Position>
            <AltitudeMeters>2466.800048828125</AltitudeMeters>
            <DistanceMeters>NAN</DistanceMeters>
          </Trackpoint>
          <Trackpoint>
            <Time>2021-07-18T06:35:27.000Z</Time>
            <Position>
              <LatitudeDegrees>42.725376449525356292724609375</LatitudeDegrees>
              <LongitudeDegrees>-0.203597433865070343017578125</LongitudeDegrees>
            </Position>
            <AltitudeMeters>2466.800048828125</AltitudeMeters>
            <DistanceMeters>NAN</DistanceMeters>
          </Trackpoint>
          <Trackpoint>
            <Time>2021-07-18T06:35:36.000Z</Time>
            <Position>
              <LatitudeDegrees>42.7253762818872928619384765625</LatitudeDegrees>
              <LongitudeDegrees>-0.2035959251224994659423828125</LongitudeDegrees>
            </Position>
            <AltitudeMeters>2466.60009765625</AltitudeMeters>
            <DistanceMeters>NAN</DistanceMeters>
          </Trackpoint>
          <Trackpoint>
            <Time>2021-07-18T06:35:38.000Z</Time>
            <Position>
              <LatitudeDegrees>42.7253762818872928619384765625</LatitudeDegrees>
              <LongitudeDegrees>-0.2035955898463726043701171875</LongitudeDegrees>
            </Position>
            <AltitudeMeters>2466.60009765625</AltitudeMeters>
            <DistanceMeters>NAN</DistanceMeters>
          </Trackpoint>
          <Trackpoint>
            <Time>2021-07-18T06:35:53.000Z</Time>
            <Position>
              <LatitudeDegrees>42.7253759466111660003662109375</LatitudeDegrees>
              <LongitudeDegrees>-0.20359181798994541168212890625</LongitudeDegrees>
            </Position>
            <AltitudeMeters>2466.39990234375</AltitudeMeters>
            <DistanceMeters>NAN</DistanceMeters>
          </Trackpoint>
          <Trackpoint>
            <Time>2021-07-18T06:36:09.000Z</Time>
            <Position>
              <LatitudeDegrees>42.72537519223988056182861328125</LatitudeDegrees>
              <LongitudeDegrees>-0.2035862021148204803466796875</LongitudeDegrees>
            </Position>
            <AltitudeMeters>2466</AltitudeMeters>
            <DistanceMeters>NAN</DistanceMeters>
          </Trackpoint>
          <Trackpoint>
            <Time>2021-07-18T06:36:36.000Z</Time>
            <Position>
              <LatitudeDegrees>42.7253739349544048309326171875</LatitudeDegrees>
              <LongitudeDegrees>-0.20357404835522174835205078125</LongitudeDegrees>
            </Position>
            <AltitudeMeters>2465.39990234375</AltitudeMeters>
            <DistanceMeters>NAN</DistanceMeters>
          </Trackpoint>
          <Trackpoint>
            <Time>2021-07-18T06:37:06.000Z</Time>
            <Position>
              <LatitudeDegrees>42.725371085107326507568359375</LatitudeDegrees>
              <LongitudeDegrees>-0.20355761982500553131103515625</LongitudeDegrees>
            </Position>
            <AltitudeMeters>2464.39990234375</AltitudeMeters>
            <DistanceMeters>NAN</DistanceMeters>
          </Trackpoint>
          <Trackpoint>
            <Time>2021-07-18T06:37:11.000Z</Time>
            <Position>
              <LatitudeDegrees>42.72537049837410449981689453125</LatitudeDegrees>
              <LongitudeDegrees>-0.2035546861588954925537109375</LongitudeDegrees>
            </Position>
            <AltitudeMeters>2464.199951171875</AltitudeMeters>
            <DistanceMeters>NAN</DistanceMeters>
          </Trackpoint>
          <Trackpoint>
            <Time>2021-07-18T06:37:18.000Z</Time>
            <Position>
              <LatitudeDegrees>42.7253695763647556304931640625</LatitudeDegrees>
              <LongitudeDegrees>-0.20355041138827800750732421875</LongitudeDegrees>
            </Position>
            <AltitudeMeters>2463.800048828125</AltitudeMeters>
            <DistanceMeters>NAN</DistanceMeters>
          </Trackpoint>
          <Trackpoint>
            <Time>2021-07-18T06:37:20.000Z</Time>
            <Position>
              <LatitudeDegrees>42.72536932490766048431396484375</LatitudeDegrees>
              <LongitudeDegrees>-0.203549154102802276611328125</LongitudeDegrees>
            </Position>
            <AltitudeMeters>2463.800048828125</AltitudeMeters>
            <DistanceMeters>NAN</DistanceMeters>
          </Trackpoint>
          <Trackpoint>
            <Time>2021-07-18T06:37:35.000Z</Time>
            <Position>
              <LatitudeDegrees>42.72536714561283588409423828125</LatitudeDegrees>
              <LongitudeDegrees>-0.20353884436190128326416015625</LongitudeDegrees>
            </Position>
            <AltitudeMeters>2463.199951171875</AltitudeMeters>
            <DistanceMeters>NAN</DistanceMeters>
          </Trackpoint>
          <Trackpoint>
            <Time>2021-07-18T06:37:49.000Z</Time>
            <Position>
              <LatitudeDegrees>42.7253647148609161376953125</LatitudeDegrees>
              <LongitudeDegrees>-0.20352845080196857452392578125</LongitudeDegrees>
            </Position>
            <AltitudeMeters>2462.60009765625</AltitudeMeters>
            <DistanceMeters>NAN</DistanceMeters>
          </Trackpoint>
          <Trackpoint>
            <Time>2021-07-18T06:37:52.000Z</Time>
            <Position>
              <LatitudeDegrees>42.7253642119467258453369140625</LatitudeDegrees>
              <LongitudeDegrees>-0.203526020050048828125</LongitudeDegrees>
            </Position>
            <AltitudeMeters>2462.39990234375</AltitudeMeters>
            <DistanceMeters>NAN</DistanceMeters>
          </Trackpoint>
          <Trackpoint>
            <Time>2021-07-18T06:37:56.000Z</Time>
            <Position>
              <LatitudeDegrees>42.72536337375640869140625</LatitudeDegrees>
              <LongitudeDegrees>-0.20352266728878021240234375</LongitudeDegrees>
            </Position>
            <AltitudeMeters>2462.199951171875</AltitudeMeters>
            <DistanceMeters>NAN</DistanceMeters>
          </Trackpoint>
          <Trackpoint>
            <Time>2021-07-18T06:38:07.000Z</Time>
            <Position>
              <LatitudeDegrees>42.72529623471200466156005859375</LatitudeDegrees>
              <LongitudeDegrees>-0.20322519354522228240966796875</LongitudeDegrees>
            </Position>
            <AltitudeMeters>2446.60009765625</AltitudeMeters>
            <DistanceMeters>NAN</DistanceMeters>
          </Trackpoint>
          <Trackpoint>
            <Time>2021-07-18T06:38:08.000Z</Time>
            <Position>
              <LatitudeDegrees>42.72528232075273990631103515625</LatitudeDegrees>
              <LongitudeDegrees>-0.20315344445407390594482421875</LongitudeDegrees>
            </Position>
            <AltitudeMeters>2444.39990234375</AltitudeMeters>
            <DistanceMeters>NAN</DistanceMeters>
          </Trackpoint>
          <Trackpoint>
            <Time>2021-07-18T06:38:11.000Z</Time>
            <Position>
              <LatitudeDegrees>42.72523370571434497833251953125</LatitudeDegrees>
              <LongitudeDegrees>-0.20293048582971096038818359375</LongitudeDegrees>
            </Position>
            <AltitudeMeters>2437</AltitudeMeters>
            <DistanceMeters>NAN</DistanceMeters>
          </Trackpoint>
          <Trackpoint>
            <Time>2021-07-18T06:38:17.000Z</Time>
            <Position>
              <LatitudeDegrees>42.72519531659781932830810546875</LatitudeDegrees>
              <LongitudeDegrees>-0.2027684636414051055908203125</LongitudeDegrees>
            </Position>
            <AltitudeMeters>2432.39990234375</AltitudeMeters>
            <DistanceMeters>NAN</DistanceMeters>
          </Trackpoint>
          <Trackpoint>
            <Time>2021-07-18T06:38:24.000Z</Time>
            <Position>
              <LatitudeDegrees>42.725191377103328704833984375</LatitudeDegrees>
              <LongitudeDegrees>-0.20275077782571315765380859375</LongitudeDegrees>
            </Position>
            <AltitudeMeters>2431.800048828125</AltitudeMeters>
            <DistanceMeters>NAN</DistanceMeters>
          </Trackpoint>
          <Trackpoint>
            <Time>2021-07-18T06:38:33.000Z</Time>
            <Position>
              <LatitudeDegrees>42.7251850068569183349609375</LatitudeDegrees>
              <LongitudeDegrees>-0.2027275599539279937744140625</LongitudeDegrees>
            </Position>
            <AltitudeMeters>2431</AltitudeMeters>
            <DistanceMeters>NAN</DistanceMeters>
          </Trackpoint>
          <Trackpoint>
            <Time>2021-07-18T06:38:42.000Z</Time>
            <Position>
              <LatitudeDegrees>42.7251710928976535797119140625</LatitudeDegrees>
              <LongitudeDegrees>-0.202687494456768035888671875</LongitudeDegrees>
            </Position>
            <AltitudeMeters>2429.60009765625</AltitudeMeters>
            <DistanceMeters>NAN</DistanceMeters>
          </Trackpoint>
          <Trackpoint>
            <Time>2021-07-18T06:38:49.000Z</Time>
            <Position>
              <LatitudeDegrees>42.72516547702252864837646484375</LatitudeDegrees>
              <LongitudeDegrees>-0.20265874452888965606689453125</LongitudeDegrees>
            </Position>
            <AltitudeMeters>2429</AltitudeMeters>
            <DistanceMeters>NAN</DistanceMeters>
          </Trackpoint>
          <Trackpoint>
            <Time>2021-07-18T06:38:56.000Z</Time>
            <Position>
              <LatitudeDegrees>42.7251224778592586517333984375</LatitudeDegrees>
              <LongitudeDegrees>-0.20262270234525203704833984375</LongitudeDegrees>
            </Position>
            <AltitudeMeters>2428.199951171875</AltitudeMeters>
            <DistanceMeters>NAN</DistanceMeters>
          </Trackpoint>
          <Trackpoint>
            <Time>2021-07-18T06:38:58.000Z</Time>
            <Position>
              <LatitudeDegrees>42.72511485032737255096435546875</LatitudeDegrees>
              <LongitudeDegrees>-0.20261071622371673583984375</LongitudeDegrees>
            </Position>
            <AltitudeMeters>2427.800048828125</AltitudeMeters>
            <DistanceMeters>NAN</DistanceMeters>
          </Trackpoint>
          <Trackpoint>
            <Time>2021-07-18T06:39:03.000Z</Time>
            <Position>
              <LatitudeDegrees>42.72511728107929229736328125</LatitudeDegrees>
              <LongitudeDegrees>-0.20256738178431987762451171875</LongitudeDegrees>
            </Position>
            <AltitudeMeters>2427</AltitudeMeters>
            <DistanceMeters>NAN</DistanceMeters>
          </Trackpoint>
          <Trackpoint>
            <Time>2021-07-18T06:39:04.000Z</Time>
            <Position>
              <LatitudeDegrees>42.7251211367547512054443359375</LatitudeDegrees>
              <LongitudeDegrees>-0.20255866460502147674560546875</LongitudeDegrees>
            </Position>
            <AltitudeMeters>2427</AltitudeMeters>
            <DistanceMeters>NAN</DistanceMeters>
          </Trackpoint>
          <Trackpoint>
            <Time>2021-07-18T06:39:08.000Z</Time>
            <Position>
              <LatitudeDegrees>42.7251137606799602508544921875</LatitudeDegrees>
              <LongitudeDegrees>-0.20253050141036510467529296875</LongitudeDegrees>
            </Position>
            <AltitudeMeters>2426.39990234375</AltitudeMeters>
            <DistanceMeters>NAN</DistanceMeters>
          </Trackpoint>
          <Trackpoint>
            <Time>2021-07-18T06:39:09.000Z</Time>
            <Position>
              <LatitudeDegrees>42.72511518560349941253662109375</LatitudeDegrees>
              <LongitudeDegrees>-0.20252178423106670379638671875</LongitudeDegrees>
            </Position>
            <AltitudeMeters>2426.199951171875</AltitudeMeters>
            <DistanceMeters>NAN</DistanceMeters>
          </Trackpoint>
          <Trackpoint>
            <Time>2021-07-18T06:39:10.000Z</Time>
            <Position>
              <LatitudeDegrees>42.72511401213705539703369140625</LatitudeDegrees>
              <LongitudeDegrees>-0.20251776091754436492919921875</LongitudeDegrees>
            </Position>
            <AltitudeMeters>2426.199951171875</AltitudeMeters>
            <DistanceMeters>NAN</DistanceMeters>
          </Trackpoint>
          <Trackpoint>
            <Time>2021-07-18T06:39:12.000Z</Time>
            <Position>
              <LatitudeDegrees>42.72511585615575313568115234375</LatitudeDegrees>
              <LongitudeDegrees>-0.20251641981303691864013671875</LongitudeDegrees>
            </Position>
            <AltitudeMeters>2426.199951171875</AltitudeMeters>
            <DistanceMeters>NAN</DistanceMeters>
          </Trackpoint>
          <Trackpoint>
            <Time>2021-07-18T06:39:14.000Z</Time>
            <Position>
              <LatitudeDegrees>42.7251147665083408355712890625</LatitudeDegrees>
              <LongitudeDegrees>-0.2025025896728038787841796875</LongitudeDegrees>
            </Position>
            <AltitudeMeters>2426</AltitudeMeters>
            <DistanceMeters>NAN</DistanceMeters>
          </Trackpoint>
          <Trackpoint>
            <Time>2021-07-18T06:39:15.000Z</Time>
            <Position>
              <LatitudeDegrees>42.725113593041896820068359375</LatitudeDegrees>
              <LongitudeDegrees>-0.202496387064456939697265625</LongitudeDegrees>
            </Position>
            <AltitudeMeters>2425.800048828125</AltitudeMeters>
            <DistanceMeters>NAN</DistanceMeters>
          </Trackpoint>
          <Trackpoint>
            <Time>2021-07-18T06:39:16.000Z</Time>
            <Position>
              <LatitudeDegrees>42.72511535324156284332275390625</LatitudeDegrees>
              <LongitudeDegrees>-0.2024871669709682464599609375</LongitudeDegrees>
            </Position>
            <AltitudeMeters>2425.60009765625</AltitudeMeters>
            <DistanceMeters>NAN</DistanceMeters>
          </Trackpoint>
          <Trackpoint>
            <Time>2021-07-18T06:39:26.000Z</Time>
            <Position>
              <LatitudeDegrees>42.7251191250979900360107421875</LatitudeDegrees>
              <LongitudeDegrees>-0.20241382531821727752685546875</LongitudeDegrees>
            </Position>
            <AltitudeMeters>2424.39990234375</AltitudeMeters>
            <DistanceMeters>NAN</DistanceMeters>
          </Trackpoint>
          <Trackpoint>
            <Time>2021-07-18T06:39:36.000Z</Time>
            <Position>
              <LatitudeDegrees>42.72513806819915771484375</LatitudeDegrees>
              <LongitudeDegrees>-0.202341489493846893310546875</LongitudeDegrees>
            </Position>
            <AltitudeMeters>2422.39990234375</AltitudeMeters>
            <DistanceMeters>NAN</DistanceMeters>
          </Trackpoint>
          <Trackpoint>
            <Time>2021-07-18T06:39:38.000Z</Time>
            <Position>
              <LatitudeDegrees>42.7251375652849674224853515625</LatitudeDegrees>
              <LongitudeDegrees>-0.20233981311321258544921875</LongitudeDegrees>
            </Position>
            <AltitudeMeters>2422.199951171875</AltitudeMeters>
            <DistanceMeters>NAN</DistanceMeters>
          </Trackpoint>
          <Trackpoint>
            <Time>2021-07-18T06:39:43.000Z</Time>
            <Position>
              <LatitudeDegrees>42.7251392416656017303466796875</LatitudeDegrees>
              <LongitudeDegrees>-0.2023238874971866607666015625</LongitudeDegrees>
            </Position>
            <AltitudeMeters>2421.800048828125</AltitudeMeters>
            <DistanceMeters>NAN</DistanceMeters>
          </Trackpoint>
          <Trackpoint>
            <Time>2021-07-18T06:39:45.000Z</Time>
            <Position>
              <LatitudeDegrees>42.725147791206836700439453125</LatitudeDegrees>
              <LongitudeDegrees>-0.2023123204708099365234375</LongitudeDegrees>
            </Position>
            <AltitudeMeters>2421.60009765625</AltitudeMeters>
            <DistanceMeters>NAN</DistanceMeters>
          </Trackpoint>
          <Trackpoint>
            <Time>2021-07-18T06:39:49.000Z</Time>
            <Position>
              <LatitudeDegrees>42.725157849490642547607421875</LatitudeDegrees>
              <LongitudeDegrees>-0.20229832269251346588134765625</LongitudeDegrees>
            </Position>
            <AltitudeMeters>2421.199951171875</AltitudeMeters>
            <DistanceMeters>NAN</DistanceMeters>
          </Trackpoint>
          <Trackpoint>
            <Time>2021-07-18T06:39:54.000Z</Time>
            <Position>
              <LatitudeDegrees>42.72515022195875644683837890625</LatitudeDegrees>
              <LongitudeDegrees>-0.2022772841155529022216796875</LongitudeDegrees>
            </Position>
            <AltitudeMeters>2420.39990234375</AltitudeMeters>
            <DistanceMeters>NAN</DistanceMeters>
          </Trackpoint>
          <Trackpoint>
            <Time>2021-07-18T06:40:02.000Z</Time>
            <Position>
              <LatitudeDegrees>42.72513999603688716888427734375</LatitudeDegrees>
              <LongitudeDegrees>-0.20225808955729007720947265625</LongitudeDegrees>
            </Position>
            <AltitudeMeters>2419.60009765625</AltitudeMeters>
            <DistanceMeters>NAN</DistanceMeters>
          </Trackpoint>
          <Trackpoint>
            <Time>2021-07-18T06:40:10.000Z</Time>
            <Position>
              <LatitudeDegrees>42.72511862218379974365234375</LatitudeDegrees>
              <LongitudeDegrees>-0.20220628939568996429443359375</LongitudeDegrees>
            </Position>
            <AltitudeMeters>2417.800048828125</AltitudeMeters>
            <DistanceMeters>NAN</DistanceMeters>
          </Trackpoint>
          <Trackpoint>
            <Time>2021-07-18T06:40:18.000Z</Time>
            <Position>
              <LatitudeDegrees>42.7251214720308780670166015625</LatitudeDegrees>
              <LongitudeDegrees>-0.20215532742440700531005859375</LongitudeDegrees>
            </Position>
            <AltitudeMeters>2416.199951171875</AltitudeMeters>
            <DistanceMeters>NAN</DistanceMeters>
          </Trackpoint>
          <Trackpoint>
            <Time>2021-07-18T06:40:27.000Z</Time>
            <Position>
              <LatitudeDegrees>42.72511099465191364288330078125</LatitudeDegrees>
              <LongitudeDegrees>-0.20213596522808074951171875</LongitudeDegrees>
            </Position>
            <AltitudeMeters>2415.39990234375</AltitudeMeters>
            <DistanceMeters>NAN</DistanceMeters>
          </Trackpoint>
          <Trackpoint>
            <Time>2021-07-18T06:40:34.000Z</Time>
            <Position>
              <LatitudeDegrees>42.725108563899993896484375</LatitudeDegrees>
              <LongitudeDegrees>-0.20211559720337390899658203125</LongitudeDegrees>
            </Position>
            <AltitudeMeters>2415</AltitudeMeters>
            <DistanceMeters>NAN</DistanceMeters>
          </Trackpoint>
          <Trackpoint>
            <Time>2021-07-18T06:40:42.000Z</Time>
            <Position>
              <LatitudeDegrees>42.72508769296109676361083984375</LatitudeDegrees>
              <LongitudeDegrees>-0.20211006514728069305419921875</LongitudeDegrees>
            </Position>
            <AltitudeMeters>2414.60009765625</AltitudeMeters>
            <DistanceMeters>NAN</DistanceMeters>
          </Trackpoint>
          <Trackpoint>
            <Time>2021-07-18T06:40:52.000Z</Time>
            <Position>
              <LatitudeDegrees>42.72506657056510448455810546875</LatitudeDegrees>
              <LongitudeDegrees>-0.202091373503208160400390625</LongitudeDegrees>
            </Position>
            <AltitudeMeters>2413.60009765625</AltitudeMeters>
            <DistanceMeters>NAN</DistanceMeters>
          </Trackpoint>
          <Trackpoint>
            <Time>2021-07-18T06:41:01.000Z</Time>
            <Position>
              <LatitudeDegrees>42.72504108957946300506591796875</LatitudeDegrees>
              <LongitudeDegrees>-0.202058851718902587890625</LongitudeDegrees>
            </Position>
            <AltitudeMeters>2413.199951171875</AltitudeMeters>
            <DistanceMeters>NAN</DistanceMeters>
          </Trackpoint>
          <Trackpoint>
            <Time>2021-07-18T06:41:09.000Z</Time>
            <Position>
              <LatitudeDegrees>42.72504083812236785888671875</LatitudeDegrees>
              <LongitudeDegrees>-0.20203965716063976287841796875</LongitudeDegrees>
            </Position>
            <AltitudeMeters>2412.60009765625</AltitudeMeters>
            <DistanceMeters>NAN</DistanceMeters>
          </Trackpoint>
          <Trackpoint>
            <Time>2021-07-18T06:41:18.000Z</Time>
            <Position>
              <LatitudeDegrees>42.72502415813505649566650390625</LatitudeDegrees>
              <LongitudeDegrees>-0.20202037878334522247314453125</LongitudeDegrees>
            </Position>
            <AltitudeMeters>2412.60009765625</AltitudeMeters>
            <DistanceMeters>NAN</DistanceMeters>
          </Trackpoint>
          <Trackpoint>
            <Time>2021-07-18T06:41:21.000Z</Time>
            <Position>
              <LatitudeDegrees>42.7250272594392299652099609375</LatitudeDegrees>
              <LongitudeDegrees>-0.20201786421239376068115234375</LongitudeDegrees>
            </Position>
            <AltitudeMeters>2412.39990234375</AltitudeMeters>
            <DistanceMeters>NAN</DistanceMeters>
          </Trackpoint>
          <Trackpoint>
            <Time>2021-07-18T06:41:27.000Z</Time>
            <Position>
              <LatitudeDegrees>42.7250272594392299652099609375</LatitudeDegrees>
              <LongitudeDegrees>-0.20201786421239376068115234375</LongitudeDegrees>
            </Position>
            <AltitudeMeters>2412.39990234375</AltitudeMeters>
            <DistanceMeters>NAN</DistanceMeters>
          </Trackpoint>
          <Trackpoint>
            <Time>2021-07-18T06:41:28.000Z</Time>
            <Position>
              <LatitudeDegrees>42.7250272594392299652099609375</LatitudeDegrees>
              <LongitudeDegrees>-0.20201786421239376068115234375</LongitudeDegrees>
            </Position>
            <AltitudeMeters>2412.39990234375</AltitudeMeters>
            <DistanceMeters>NAN</DistanceMeters>
          </Trackpoint>
          <Trackpoint>
            <Time>2021-07-18T06:41:30.000Z</Time>
            <Position>
              <LatitudeDegrees>42.7250272594392299652099609375</LatitudeDegrees>
              <LongitudeDegrees>-0.20201786421239376068115234375</LongitudeDegrees>
            </Position>
            <AltitudeMeters>2412.39990234375</AltitudeMeters>
            <DistanceMeters>NAN</DistanceMeters>
          </Trackpoint>
          <Trackpoint>
            <Time>2021-07-18T06:41:36.000Z</Time>
            <Position>
              <LatitudeDegrees>42.7250259183347225189208984375</LatitudeDegrees>
              <LongitudeDegrees>-0.20201635546982288360595703125</LongitudeDegrees>
            </Position>
            <AltitudeMeters>2412.39990234375</AltitudeMeters>
            <DistanceMeters>NAN</DistanceMeters>
          </Trackpoint>
          <Trackpoint>
            <Time>2021-07-18T06:41:45.000Z</Time>
            <Position>
              <LatitudeDegrees>42.72501401603221893310546875</LatitudeDegrees>
              <LongitudeDegrees>-0.20199020393192768096923828125</LongitudeDegrees>
            </Position>
            <AltitudeMeters>2412</AltitudeMeters>
            <DistanceMeters>NAN</DistanceMeters>
          </Trackpoint>
          <Trackpoint>
            <Time>2021-07-18T06:41:50.000Z</Time>
            <Position>
              <LatitudeDegrees>42.725011669099330902099609375</LatitudeDegrees>
              <LongitudeDegrees>-0.2019886113703250885009765625</LongitudeDegrees>
            </Position>
            <AltitudeMeters>2412</AltitudeMeters>
            <DistanceMeters>NAN</DistanceMeters>
          </Trackpoint>
          <Trackpoint>
            <Time>2021-07-18T06:41:54.000Z</Time>
            <Position>
              <LatitudeDegrees>42.72501108236610889434814453125</LatitudeDegrees>
              <LongitudeDegrees>-0.201986096799373626708984375</LongitudeDegrees>
            </Position>
            <AltitudeMeters>2411.800048828125</AltitudeMeters>
            <DistanceMeters>NAN</DistanceMeters>
          </Trackpoint>
          <Trackpoint>
            <Time>2021-07-18T06:41:57.000Z</Time>
            <Position>
              <LatitudeDegrees>42.725010327994823455810546875</LatitudeDegrees>
              <LongitudeDegrees>-0.20198148675262928009033203125</LongitudeDegrees>
            </Position>
            <AltitudeMeters>2411.800048828125</AltitudeMeters>
            <DistanceMeters>NAN</DistanceMeters>
          </Trackpoint>
          <Trackpoint>
            <Time>2021-07-18T06:42:01.000Z</Time>
            <Position>
              <LatitudeDegrees>42.72500974126160144805908203125</LatitudeDegrees>
              <LongitudeDegrees>-0.2019743621349334716796875</LongitudeDegrees>
            </Position>
            <AltitudeMeters>2411.60009765625</AltitudeMeters>
            <DistanceMeters>NAN</DistanceMeters>
          </Trackpoint>
          <Trackpoint>
            <Time>2021-07-18T06:42:31.000Z</Time>
            <Position>
              <LatitudeDegrees>42.72499046288430690765380859375</LatitudeDegrees>
              <LongitudeDegrees>-0.20184972323477268218994140625</LongitudeDegrees>
            </Position>
            <AltitudeMeters>2406.39990234375</AltitudeMeters>
            <DistanceMeters>NAN</DistanceMeters>
          </Trackpoint>
          <Trackpoint>
            <Time>2021-07-18T06:42:40.000Z</Time>
            <Position>
              <LatitudeDegrees>42.72497436963021755218505859375</LatitudeDegrees>
              <LongitudeDegrees>-0.20180664025247097015380859375</LongitudeDegrees>
            </Position>
            <AltitudeMeters>2405.199951171875</AltitudeMeters>
            <DistanceMeters>NAN</DistanceMeters>
          </Trackpoint>
          <Trackpoint>
            <Time>2021-07-18T06:42:42.000Z</Time>
            <Position>
              <LatitudeDegrees>42.72497017867863178253173828125</LatitudeDegrees>
              <LongitudeDegrees>-0.20179289393126964569091796875</LongitudeDegrees>
            </Position>
            <AltitudeMeters>2404.800048828125</AltitudeMeters>
            <DistanceMeters>NAN</DistanceMeters>
          </Trackpoint>
          <Trackpoint>
            <Time>2021-07-18T06:42:46.000Z</Time>
            <Position>
              <LatitudeDegrees>42.72495810873806476593017578125</LatitudeDegrees>
              <LongitudeDegrees>-0.20176825113594532012939453125</LongitudeDegrees>
            </Position>
            <AltitudeMeters>2404.199951171875</AltitudeMeters>
            <DistanceMeters>NAN</DistanceMeters>
          </Trackpoint>
          <Trackpoint>
            <Time>2021-07-18T06:43:12.000Z</Time>
            <Position>
              <LatitudeDegrees>42.72493950091302394866943359375</LatitudeDegrees>
              <LongitudeDegrees>-0.20163548178970813751220703125</LongitudeDegrees>
            </Position>
            <AltitudeMeters>2401.800048828125</AltitudeMeters>
            <DistanceMeters>NAN</DistanceMeters>
          </Trackpoint>
          <Trackpoint>
            <Time>2021-07-18T06:43:29.000Z</Time>
            <Position>
              <LatitudeDegrees>42.7249538339674472808837890625</LatitudeDegrees>
              <LongitudeDegrees>-0.20160245709121227264404296875</LongitudeDegrees>
            </Position>
            <AltitudeMeters>2401</AltitudeMeters>
            <DistanceMeters>NAN</DistanceMeters>
          </Trackpoint>
          <Trackpoint>
            <Time>2021-07-18T06:43:51.000Z</Time>
            <Position>
              <LatitudeDegrees>42.724956013262271881103515625</LatitudeDegrees>
              <LongitudeDegrees>-0.201503969728946685791015625</LongitudeDegrees>
            </Position>
            <AltitudeMeters>2397</AltitudeMeters>
            <DistanceMeters>NAN</DistanceMeters>
          </Trackpoint>
          <Trackpoint>
            <Time>2021-07-18T06:43:53.000Z</Time>
            <Position>
              <LatitudeDegrees>42.72495475597679615020751953125</LatitudeDegrees>
              <LongitudeDegrees>-0.20149785093963146209716796875</LongitudeDegrees>
            </Position>
            <AltitudeMeters>2396.800048828125</AltitudeMeters>
            <DistanceMeters>NAN</DistanceMeters>
          </Trackpoint>
          <Trackpoint>
            <Time>2021-07-18T06:43:55.000Z</Time>
            <Position>
              <LatitudeDegrees>42.7249531634151935577392578125</LatitudeDegrees>
              <LongitudeDegrees>-0.20149357616901397705078125</LongitudeDegrees>
            </Position>
            <AltitudeMeters>2396.800048828125</AltitudeMeters>
            <DistanceMeters>NAN</DistanceMeters>
          </Trackpoint>
          <Trackpoint>
            <Time>2021-07-18T06:45:07.000Z</Time>
            <Position>
              <LatitudeDegrees>42.72494561970233917236328125</LatitudeDegrees>
              <LongitudeDegrees>-0.2013757266104221343994140625</LongitudeDegrees>
            </Position>
            <AltitudeMeters>2390.60009765625</AltitudeMeters>
            <DistanceMeters>NAN</DistanceMeters>
          </Trackpoint>
          <Trackpoint>
            <Time>2021-07-18T06:45:17.000Z</Time>
            <Position>
              <LatitudeDegrees>42.72494553588330745697021484375</LatitudeDegrees>
              <LongitudeDegrees>-0.20137178711593151092529296875</LongitudeDegrees>
            </Position>
            <AltitudeMeters>2390.39990234375</AltitudeMeters>
            <DistanceMeters>NAN</DistanceMeters>
          </Trackpoint>
          <Trackpoint>
            <Time>2021-07-18T06:45:20.000Z</Time>
            <Position>
              <LatitudeDegrees>42.72494536824524402618408203125</LatitudeDegrees>
              <LongitudeDegrees>-0.20137044601142406463623046875</LongitudeDegrees>
            </Position>
            <AltitudeMeters>2390.199951171875</AltitudeMeters>
            <DistanceMeters>NAN</DistanceMeters>
          </Trackpoint>
          <Trackpoint>
            <Time>2021-07-18T06:45:29.000Z</Time>
            <Position>
              <LatitudeDegrees>42.72494503296911716461181640625</LatitudeDegrees>
              <LongitudeDegrees>-0.20136617124080657958984375</LongitudeDegrees>
            </Position>
            <AltitudeMeters>2390</AltitudeMeters>
            <DistanceMeters>NAN</DistanceMeters>
          </Trackpoint>
          <Trackpoint>
            <Time>2021-07-18T06:45:33.000Z</Time>
            <Position>
              <LatitudeDegrees>42.72494486533105373382568359375</LatitudeDegrees>
              <LongitudeDegrees>-0.20136415958404541015625</LongitudeDegrees>
            </Position>
            <AltitudeMeters>2389.800048828125</AltitudeMeters>
            <DistanceMeters>NAN</DistanceMeters>
          </Trackpoint>
          <Trackpoint>
            <Time>2021-07-18T06:45:39.000Z</Time>
            <Position>
              <LatitudeDegrees>42.724944613873958587646484375</LatitudeDegrees>
              <LongitudeDegrees>-0.2013609744608402252197265625</LongitudeDegrees>
            </Position>
            <AltitudeMeters>2389.60009765625</AltitudeMeters>
            <DistanceMeters>NAN</DistanceMeters>
          </Trackpoint>
          <Trackpoint>
            <Time>2021-07-18T06:45:49.000Z</Time>
            <Position>
              <LatitudeDegrees>42.72494419477880001068115234375</LatitudeDegrees>
              <LongitudeDegrees>-0.201355107128620147705078125</LongitudeDegrees>
            </Position>
            <AltitudeMeters>2389.39990234375</AltitudeMeters>
            <DistanceMeters>NAN</DistanceMeters>
          </Trackpoint>
          <Trackpoint>
            <Time>2021-07-18T06:45:55.000Z</Time>
            <Position>
              <LatitudeDegrees>42.724943943321704864501953125</LatitudeDegrees>
              <LongitudeDegrees>-0.20135133527219295501708984375</LongitudeDegrees>
            </Position>
            <AltitudeMeters>2389</AltitudeMeters>
            <DistanceMeters>NAN</DistanceMeters>
          </Trackpoint>
          <Trackpoint>
            <Time>2021-07-18T06:46:14.000Z</Time>
            <Position>
              <LatitudeDegrees>42.7249431051313877105712890625</LatitudeDegrees>
              <LongitudeDegrees>-0.20133825950324535369873046875</LongitudeDegrees>
            </Position>
            <AltitudeMeters>2388.199951171875</AltitudeMeters>
            <DistanceMeters>NAN</DistanceMeters>
          </Trackpoint>
          <Trackpoint>
            <Time>2021-07-18T06:46:26.000Z</Time>
            <Position>
              <LatitudeDegrees>42.72494235076010227203369140625</LatitudeDegrees>
              <LongitudeDegrees>-0.20132954232394695281982421875</LongitudeDegrees>
            </Position>
            <AltitudeMeters>2387.60009765625</AltitudeMeters>
            <DistanceMeters>NAN</DistanceMeters>
          </Trackpoint>
          <Trackpoint>
            <Time>2021-07-18T06:46:31.000Z</Time>
            <Position>
              <LatitudeDegrees>42.724941931664943695068359375</LatitudeDegrees>
              <LongitudeDegrees>-0.20132568664848804473876953125</LongitudeDegrees>
            </Position>
            <AltitudeMeters>2387.39990234375</AltitudeMeters>
            <DistanceMeters>NAN</DistanceMeters>
          </Trackpoint>
          <Trackpoint>
            <Time>2021-07-18T06:46:34.000Z</Time>
            <Position>
              <LatitudeDegrees>42.7249417640268802642822265625</LatitudeDegrees>
              <LongitudeDegrees>-0.20132317207753658294677734375</LongitudeDegrees>
            </Position>
            <AltitudeMeters>2387.199951171875</AltitudeMeters>
            <DistanceMeters>NAN</DistanceMeters>
          </Trackpoint>
          <Trackpoint>
            <Time>2021-07-18T06:46:42.000Z</Time>
            <Position>
              <LatitudeDegrees>42.7249410934746265411376953125</LatitudeDegrees>
              <LongitudeDegrees>-0.20131613127887248992919921875</LongitudeDegrees>
            </Position>
            <AltitudeMeters>2386.800048828125</AltitudeMeters>
            <DistanceMeters>NAN</DistanceMeters>
          </Trackpoint>
          <Trackpoint>
            <Time>2021-07-18T06:46:47.000Z</Time>
            <Position>
              <LatitudeDegrees>42.72494050674140453338623046875</LatitudeDegrees>
              <LongitudeDegrees>-0.20131143741309642791748046875</LongitudeDegrees>
            </Position>
            <AltitudeMeters>2386.60009765625</AltitudeMeters>
            <DistanceMeters>NAN</DistanceMeters>
          </Trackpoint>
          <Trackpoint>
            <Time>2021-07-18T06:46:54.000Z</Time>
            <Position>
              <LatitudeDegrees>42.724893651902675628662109375</LatitudeDegrees>
              <LongitudeDegrees>-0.20103223621845245361328125</LongitudeDegrees>
            </Position>
            <AltitudeMeters>2380.39990234375</AltitudeMeters>
            <DistanceMeters>NAN</DistanceMeters>
          </Trackpoint>
          <Trackpoint>
            <Time>2021-07-18T06:46:55.000Z</Time>
            <Position>
              <LatitudeDegrees>42.72488334216177463531494140625</LatitudeDegrees>
              <LongitudeDegrees>-0.20095805637538433074951171875</LongitudeDegrees>
            </Position>
            <AltitudeMeters>2379</AltitudeMeters>
            <DistanceMeters>NAN</DistanceMeters>
          </Trackpoint>
          <Trackpoint>
            <Time>2021-07-18T06:46:56.000Z</Time>
            <Position>
              <LatitudeDegrees>42.72487093694508075714111328125</LatitudeDegrees>
              <LongitudeDegrees>-0.20088563673198223114013671875</LongitudeDegrees>
            </Position>
            <AltitudeMeters>2377.60009765625</AltitudeMeters>
            <DistanceMeters>NAN</DistanceMeters>
          </Trackpoint>
          <Trackpoint>
            <Time>2021-07-18T06:46:58.000Z</Time>
            <Position>
              <LatitudeDegrees>42.72484092973172664642333984375</LatitudeDegrees>
              <LongitudeDegrees>-0.200744234025478363037109375</LongitudeDegrees>
            </Position>
            <AltitudeMeters>2374.60009765625</AltitudeMeters>
            <DistanceMeters>NAN</DistanceMeters>
          </Trackpoint>
          <Trackpoint>
            <Time>2021-07-18T06:47:00.000Z</Time>
            <Position>
              <LatitudeDegrees>42.72480874322354793548583984375</LatitudeDegrees>
              <LongitudeDegrees>-0.200605429708957672119140625</LongitudeDegrees>
            </Position>
            <AltitudeMeters>2370</AltitudeMeters>
            <DistanceMeters>NAN</DistanceMeters>
          </Trackpoint>
          <Trackpoint>
            <Time>2021-07-18T06:47:03.000Z</Time>
            <Position>
              <LatitudeDegrees>42.7248002775013446807861328125</LatitudeDegrees>
              <LongitudeDegrees>-0.2005770988762378692626953125</LongitudeDegrees>
            </Position>
            <AltitudeMeters>2369</AltitudeMeters>
            <DistanceMeters>NAN</DistanceMeters>
          </Trackpoint>
          <Trackpoint>
            <Time>2021-07-18T06:47:04.000Z</Time>
            <Position>
              <LatitudeDegrees>42.72480212152004241943359375</LatitudeDegrees>
              <LongitudeDegrees>-0.20056779496371746063232421875</LongitudeDegrees>
            </Position>
            <AltitudeMeters>2368.60009765625</AltitudeMeters>
            <DistanceMeters>NAN</DistanceMeters>
          </Trackpoint>
          <Trackpoint>
            <Time>2021-07-18T06:47:06.000Z</Time>
            <Position>
              <LatitudeDegrees>42.72479985840618610382080078125</LatitudeDegrees>
              <LongitudeDegrees>-0.2005516178905963897705078125</LongitudeDegrees>
            </Position>
            <AltitudeMeters>2368</AltitudeMeters>
            <DistanceMeters>NAN</DistanceMeters>
          </Trackpoint>
          <Trackpoint>
            <Time>2021-07-18T06:47:09.000Z</Time>
            <Position>
              <LatitudeDegrees>42.724780999124050140380859375</LatitudeDegrees>
              <LongitudeDegrees>-0.2005378715693950653076171875</LongitudeDegrees>
            </Position>
            <AltitudeMeters>2367.39990234375</AltitudeMeters>
            <DistanceMeters>NAN</DistanceMeters>
          </Trackpoint>
          <Trackpoint>
            <Time>2021-07-18T06:47:12.000Z</Time>
            <Position>
              <LatitudeDegrees>42.7247754670679569244384765625</LatitudeDegrees>
              <LongitudeDegrees>-0.20053141750395298004150390625</LongitudeDegrees>
            </Position>
            <AltitudeMeters>2367.39990234375</AltitudeMeters>
            <DistanceMeters>NAN</DistanceMeters>
          </Trackpoint>
          <Trackpoint>
            <Time>2021-07-18T06:47:20.000Z</Time>
            <Position>
              <LatitudeDegrees>42.724742107093334197998046875</LatitudeDegrees>
              <LongitudeDegrees>-0.200471319258213043212890625</LongitudeDegrees>
            </Position>
            <AltitudeMeters>2366</AltitudeMeters>
            <DistanceMeters>NAN</DistanceMeters>
          </Trackpoint>
          <Trackpoint>
            <Time>2021-07-18T06:47:30.000Z</Time>
            <Position>
              <LatitudeDegrees>42.72468687035143375396728515625</LatitudeDegrees>
              <LongitudeDegrees>-0.2003819681704044342041015625</LongitudeDegrees>
            </Position>
            <AltitudeMeters>2365.800048828125</AltitudeMeters>
            <DistanceMeters>NAN</DistanceMeters>
          </Trackpoint>
          <Trackpoint>
            <Time>2021-07-18T06:47:39.000Z</Time>
            <Position>
              <LatitudeDegrees>42.72463825531303882598876953125</LatitudeDegrees>
              <LongitudeDegrees>-0.2002823911607265472412109375</LongitudeDegrees>
            </Position>
            <AltitudeMeters>2364</AltitudeMeters>
            <DistanceMeters>NAN</DistanceMeters>
          </Trackpoint>
          <Trackpoint>
            <Time>2021-07-18T06:47:47.000Z</Time>
            <Position>
              <LatitudeDegrees>42.7245917357504367828369140625</LatitudeDegrees>
              <LongitudeDegrees>-0.20018138922750949859619140625</LongitudeDegrees>
            </Position>
            <AltitudeMeters>2360.60009765625</AltitudeMeters>
            <DistanceMeters>NAN</DistanceMeters>
          </Trackpoint>
          <Trackpoint>
            <Time>2021-07-18T06:47:56.000Z</Time>
            <Position>
              <LatitudeDegrees>42.72454739548265933990478515625</LatitudeDegrees>
              <LongitudeDegrees>-0.20010762847959995269775390625</LongitudeDegrees>
            </Position>
            <AltitudeMeters>2359.60009765625</AltitudeMeters>
            <DistanceMeters>NAN</DistanceMeters>
          </Trackpoint>
          <Trackpoint>
            <Time>2021-07-18T06:47:57.000Z</Time>
            <Position>
              <LatitudeDegrees>42.7245478145778179168701171875</LatitudeDegrees>
              <LongitudeDegrees>-0.2000968158245086669921875</LongitudeDegrees>
            </Position>
            <AltitudeMeters>2359.39990234375</AltitudeMeters>
            <DistanceMeters>NAN</DistanceMeters>
          </Trackpoint>
          <Trackpoint>
            <Time>2021-07-18T06:47:59.000Z</Time>
            <Position>
              <LatitudeDegrees>42.7245426177978515625</LatitudeDegrees>
              <LongitudeDegrees>-0.200079716742038726806640625</LongitudeDegrees>
            </Position>
            <AltitudeMeters>2359</AltitudeMeters>
            <DistanceMeters>NAN</DistanceMeters>
          </Trackpoint>
          <Trackpoint>
            <Time>2021-07-18T06:48:02.000Z</Time>
            <Position>
              <LatitudeDegrees>42.7245263569056987762451171875</LatitudeDegrees>
              <LongitudeDegrees>-0.20005582831799983978271484375</LongitudeDegrees>
            </Position>
            <AltitudeMeters>2358.60009765625</AltitudeMeters>
            <DistanceMeters>NAN</DistanceMeters>
          </Trackpoint>
          <Trackpoint>
            <Time>2021-07-18T06:48:04.000Z</Time>
            <Position>
              <LatitudeDegrees>42.724519483745098114013671875</LatitudeDegrees>
              <LongitudeDegrees>-0.200036130845546722412109375</LongitudeDegrees>
            </Position>
            <AltitudeMeters>2358.199951171875</AltitudeMeters>
            <DistanceMeters>NAN</DistanceMeters>
          </Trackpoint>
          <Trackpoint>
            <Time>2021-07-18T06:48:08.000Z</Time>
            <Position>
              <LatitudeDegrees>42.72448989562690258026123046875</LatitudeDegrees>
              <LongitudeDegrees>-0.19999179057776927947998046875</LongitudeDegrees>
            </Position>
            <AltitudeMeters>2357.800048828125</AltitudeMeters>
            <DistanceMeters>NAN</DistanceMeters>
          </Trackpoint>
          <Trackpoint>
            <Time>2021-07-18T06:48:14.000Z</Time>
            <Position>
              <LatitudeDegrees>42.72445477545261383056640625</LatitudeDegrees>
              <LongitudeDegrees>-0.19993831403553485870361328125</LongitudeDegrees>
            </Position>
            <AltitudeMeters>2357.60009765625</AltitudeMeters>
            <DistanceMeters>NAN</DistanceMeters>
          </Trackpoint>
          <Trackpoint>
            <Time>2021-07-18T06:48:17.000Z</Time>
            <Position>
              <LatitudeDegrees>42.72443507798016071319580078125</LatitudeDegrees>
              <LongitudeDegrees>-0.19992138259112834930419921875</LongitudeDegrees>
            </Position>
            <AltitudeMeters>2357.39990234375</AltitudeMeters>
            <DistanceMeters>NAN</DistanceMeters>
          </Trackpoint>
          <Trackpoint>
            <Time>2021-07-18T06:48:22.000Z</Time>
            <Position>
              <LatitudeDegrees>42.72438260726630687713623046875</LatitudeDegrees>
              <LongitudeDegrees>-0.1998723484575748443603515625</LongitudeDegrees>
            </Position>
            <AltitudeMeters>2357.60009765625</AltitudeMeters>
            <DistanceMeters>NAN</DistanceMeters>
          </Trackpoint>
          <Trackpoint>
            <Time>2021-07-18T06:48:31.000Z</Time>
            <Position>
              <LatitudeDegrees>42.7243298850953578948974609375</LatitudeDegrees>
              <LongitudeDegrees>-0.19979548640549182891845703125</LongitudeDegrees>
            </Position>
            <AltitudeMeters>2357.199951171875</AltitudeMeters>
            <DistanceMeters>NAN</DistanceMeters>
          </Trackpoint>
          <Trackpoint>
            <Time>2021-07-18T06:48:33.000Z</Time>
            <Position>
              <LatitudeDegrees>42.72431773133575916290283203125</LatitudeDegrees>
              <LongitudeDegrees>-0.1997791416943073272705078125</LongitudeDegrees>
            </Position>
            <AltitudeMeters>2357</AltitudeMeters>
            <DistanceMeters>NAN</DistanceMeters>
          </Trackpoint>
          <Trackpoint>
            <Time>2021-07-18T06:48:34.000Z</Time>
            <Position>
              <LatitudeDegrees>42.7243141271173954010009765625</LatitudeDegrees>
              <LongitudeDegrees>-0.19977319054305553436279296875</LongitudeDegrees>
            </Position>
            <AltitudeMeters>2357</AltitudeMeters>
            <DistanceMeters>NAN</DistanceMeters>
          </Trackpoint>
          <Trackpoint>
            <Time>2021-07-18T06:48:36.000Z</Time>
            <Position>
              <LatitudeDegrees>42.72430054843425750732421875</LatitudeDegrees>
              <LongitudeDegrees>-0.19976430572569370269775390625</LongitudeDegrees>
            </Position>
            <AltitudeMeters>2357</AltitudeMeters>
            <DistanceMeters>NAN</DistanceMeters>
          </Trackpoint>
          <Trackpoint>
            <Time>2021-07-18T06:48:37.000Z</Time>
            <Position>
              <LatitudeDegrees>42.72429593838751316070556640625</LatitudeDegrees>
              <LongitudeDegrees>-0.19976078532636165618896484375</LongitudeDegrees>
            </Position>
            <AltitudeMeters>2357</AltitudeMeters>
            <DistanceMeters>NAN</DistanceMeters>
          </Trackpoint>
          <Trackpoint>
            <Time>2021-07-18T06:48:40.000Z</Time>
            <Position>
              <LatitudeDegrees>42.7242769114673137664794921875</LatitudeDegrees>
              <LongitudeDegrees>-0.19975282251834869384765625</LongitudeDegrees>
            </Position>
            <AltitudeMeters>2357</AltitudeMeters>
            <DistanceMeters>NAN</DistanceMeters>
          </Trackpoint>
          <Trackpoint>
            <Time>2021-07-18T06:48:41.000Z</Time>
            <Position>
              <LatitudeDegrees>42.72426559589803218841552734375</LatitudeDegrees>
              <LongitudeDegrees>-0.19975089468061923980712890625</LongitudeDegrees>
            </Position>
            <AltitudeMeters>2357</AltitudeMeters>
            <DistanceMeters>NAN</DistanceMeters>
          </Trackpoint>
          <Trackpoint>
            <Time>2021-07-18T06:48:48.000Z</Time>
            <Position>
              <LatitudeDegrees>42.7242061682045459747314453125</LatitudeDegrees>
              <LongitudeDegrees>-0.1997197978198528289794921875</LongitudeDegrees>
            </Position>
            <AltitudeMeters>2357</AltitudeMeters>
            <DistanceMeters>NAN</DistanceMeters>
          </Trackpoint>
          <Trackpoint>
            <Time>2021-07-18T06:48:54.000Z</Time>
            <Position>
              <LatitudeDegrees>42.72415294311940670013427734375</LatitudeDegrees>
              <LongitudeDegrees>-0.1996810734272003173828125</LongitudeDegrees>
            </Position>
            <AltitudeMeters>2356.60009765625</AltitudeMeters>
            <DistanceMeters>NAN</DistanceMeters>
          </Trackpoint>
          <Trackpoint>
            <Time>2021-07-18T06:48:57.000Z</Time>
            <Position>
              <LatitudeDegrees>42.72412352263927459716796875</LatitudeDegrees>
              <LongitudeDegrees>-0.1996651478111743927001953125</LongitudeDegrees>
            </Position>
            <AltitudeMeters>2356.199951171875</AltitudeMeters>
            <DistanceMeters>NAN</DistanceMeters>
          </Trackpoint>
          <Trackpoint>
            <Time>2021-07-18T06:49:05.000Z</Time>
            <Position>
              <LatitudeDegrees>42.72404976189136505126953125</LatitudeDegrees>
              <LongitudeDegrees>-0.199596919119358062744140625</LongitudeDegrees>
            </Position>
            <AltitudeMeters>2355.199951171875</AltitudeMeters>
            <DistanceMeters>NAN</DistanceMeters>
          </Trackpoint>
          <Trackpoint>
            <Time>2021-07-18T06:49:14.000Z</Time>
            <Position>
              <LatitudeDegrees>42.72397977299988269805908203125</LatitudeDegrees>
              <LongitudeDegrees>-0.199524499475955963134765625</LongitudeDegrees>
            </Position>
            <AltitudeMeters>2354</AltitudeMeters>
            <DistanceMeters>NAN</DistanceMeters>
          </Trackpoint>
          <Trackpoint>
            <Time>2021-07-18T06:49:24.000Z</Time>
            <Position>
              <LatitudeDegrees>42.7239047549664974212646484375</LatitudeDegrees>
              <LongitudeDegrees>-0.1994871161878108978271484375</LongitudeDegrees>
            </Position>
            <AltitudeMeters>2352.800048828125</AltitudeMeters>
            <DistanceMeters>NAN</DistanceMeters>
          </Trackpoint>
          <Trackpoint>
            <Time>2021-07-18T06:49:26.000Z</Time>
            <Position>
              <LatitudeDegrees>42.7238853089511394500732421875</LatitudeDegrees>
              <LongitudeDegrees>-0.1994844339787960052490234375</LongitudeDegrees>
            </Position>
            <AltitudeMeters>2352.60009765625</AltitudeMeters>
            <DistanceMeters>NAN</DistanceMeters>
          </Trackpoint>
          <Trackpoint>
            <Time>2021-07-18T06:49:31.000Z</Time>
            <Position>
              <LatitudeDegrees>42.723844237625598907470703125</LatitudeDegrees>
              <LongitudeDegrees>-0.19946515560150146484375</LongitudeDegrees>
            </Position>
            <AltitudeMeters>2351.800048828125</AltitudeMeters>
            <DistanceMeters>NAN</DistanceMeters>
          </Trackpoint>
          <Trackpoint>
            <Time>2021-07-18T06:49:42.000Z</Time>
            <Position>
              <LatitudeDegrees>42.7237548865377902984619140625</LatitudeDegrees>
              <LongitudeDegrees>-0.19943053834140300750732421875</LongitudeDegrees>
            </Position>
            <AltitudeMeters>2349.60009765625</AltitudeMeters>
            <DistanceMeters>NAN</DistanceMeters>
          </Trackpoint>
          <Trackpoint>
            <Time>2021-07-18T06:49:50.000Z</Time>
            <Position>
              <LatitudeDegrees>42.72367517463862895965576171875</LatitudeDegrees>
              <LongitudeDegrees>-0.1993982680141925811767578125</LongitudeDegrees>
            </Position>
            <AltitudeMeters>2347.800048828125</AltitudeMeters>
            <DistanceMeters>NAN</DistanceMeters>
          </Trackpoint>
          <Trackpoint>
            <Time>2021-07-18T06:49:58.000Z</Time>
            <Position>
              <LatitudeDegrees>42.7236154116690158843994140625</LatitudeDegrees>
              <LongitudeDegrees>-0.1993701048195362091064453125</LongitudeDegrees>
            </Position>
            <AltitudeMeters>2346.199951171875</AltitudeMeters>
            <DistanceMeters>NAN</DistanceMeters>
          </Trackpoint>
          <Trackpoint>
            <Time>2021-07-18T06:50:02.000Z</Time>
            <Position>
              <LatitudeDegrees>42.7235875837504863739013671875</LatitudeDegrees>
              <LongitudeDegrees>-0.1993833482265472412109375</LongitudeDegrees>
            </Position>
            <AltitudeMeters>2346</AltitudeMeters>
            <DistanceMeters>NAN</DistanceMeters>
          </Trackpoint>
          <Trackpoint>
            <Time>2021-07-18T06:50:04.000Z</Time>
            <Position>
              <LatitudeDegrees>42.72356696426868438720703125</LatitudeDegrees>
              <LongitudeDegrees>-0.19938896410167217254638671875</LongitudeDegrees>
            </Position>
            <AltitudeMeters>2345.800048828125</AltitudeMeters>
            <DistanceMeters>NAN</DistanceMeters>
          </Trackpoint>
          <Trackpoint>
            <Time>2021-07-18T06:50:14.000Z</Time>
            <Position>
              <LatitudeDegrees>42.72346772253513336181640625</LatitudeDegrees>
              <LongitudeDegrees>-0.19942131824791431427001953125</LongitudeDegrees>
            </Position>
            <AltitudeMeters>2345</AltitudeMeters>
            <DistanceMeters>NAN</DistanceMeters>
          </Trackpoint>
          <Trackpoint>
            <Time>2021-07-18T06:50:21.000Z</Time>
            <Position>
              <LatitudeDegrees>42.7233946323394775390625</LatitudeDegrees>
              <LongitudeDegrees>-0.19942517392337322235107421875</LongitudeDegrees>
            </Position>
            <AltitudeMeters>2344</AltitudeMeters>
            <DistanceMeters>NAN</DistanceMeters>
          </Trackpoint>
          <Trackpoint>
            <Time>2021-07-18T06:50:25.000Z</Time>
            <Position>
              <LatitudeDegrees>42.72336822934448719024658203125</LatitudeDegrees>
              <LongitudeDegrees>-0.19942584447562694549560546875</LongitudeDegrees>
            </Position>
            <AltitudeMeters>2343.199951171875</AltitudeMeters>
            <DistanceMeters>NAN</DistanceMeters>
          </Trackpoint>
          <Trackpoint>
            <Time>2021-07-18T06:50:26.000Z</Time>
            <Position>
              <LatitudeDegrees>42.72336135618388652801513671875</LatitudeDegrees>
              <LongitudeDegrees>-0.19942567683756351470947265625</LongitudeDegrees>
            </Position>
            <AltitudeMeters>2343</AltitudeMeters>
            <DistanceMeters>NAN</DistanceMeters>
          </Trackpoint>
          <Trackpoint>
            <Time>2021-07-18T06:50:30.000Z</Time>
            <Position>
              <LatitudeDegrees>42.72333034314215183258056640625</LatitudeDegrees>
              <LongitudeDegrees>-0.199425928294658660888671875</LongitudeDegrees>
            </Position>
            <AltitudeMeters>2342</AltitudeMeters>
            <DistanceMeters>NAN</DistanceMeters>
          </Trackpoint>
          <Trackpoint>
            <Time>2021-07-18T06:50:32.000Z</Time>
            <Position>
              <LatitudeDegrees>42.72331626154482364654541015625</LatitudeDegrees>
              <LongitudeDegrees>-0.1994237489998340606689453125</LongitudeDegrees>
            </Position>
            <AltitudeMeters>2341.800048828125</AltitudeMeters>
            <DistanceMeters>NAN</DistanceMeters>
          </Trackpoint>
          <Trackpoint>
            <Time>2021-07-18T06:50:34.000Z</Time>
            <Position>
              <LatitudeDegrees>42.723300755023956298828125</LatitudeDegrees>
              <LongitudeDegrees>-0.1994187198579311370849609375</LongitudeDegrees>
            </Position>
            <AltitudeMeters>2341.39990234375</AltitudeMeters>
            <DistanceMeters>NAN</DistanceMeters>
          </Trackpoint>
          <Trackpoint>
            <Time>2021-07-18T06:50:38.000Z</Time>
            <Position>
              <LatitudeDegrees>42.72328508086502552032470703125</LatitudeDegrees>
              <LongitudeDegrees>-0.1994264312088489532470703125</LongitudeDegrees>
            </Position>
            <AltitudeMeters>2341</AltitudeMeters>
            <DistanceMeters>NAN</DistanceMeters>
          </Trackpoint>
          <Trackpoint>
            <Time>2021-07-18T06:50:42.000Z</Time>
            <Position>
              <LatitudeDegrees>42.72327686659991741180419921875</LatitudeDegrees>
              <LongitudeDegrees>-0.1994277723133563995361328125</LongitudeDegrees>
            </Position>
            <AltitudeMeters>2341</AltitudeMeters>
            <DistanceMeters>NAN</DistanceMeters>
          </Trackpoint>
          <Trackpoint>
            <Time>2021-07-18T06:50:47.000Z</Time>
            <Position>
              <LatitudeDegrees>42.7232690714299678802490234375</LatitudeDegrees>
              <LongitudeDegrees>-0.19940321333706378936767578125</LongitudeDegrees>
            </Position>
            <AltitudeMeters>2340.60009765625</AltitudeMeters>
            <DistanceMeters>NAN</DistanceMeters>
          </Trackpoint>
          <Trackpoint>
            <Time>2021-07-18T06:50:49.000Z</Time>
            <Position>
              <LatitudeDegrees>42.72327552549540996551513671875</LatitudeDegrees>
              <LongitudeDegrees>-0.19939265213906764984130859375</LongitudeDegrees>
            </Position>
            <AltitudeMeters>2340.60009765625</AltitudeMeters>
            <DistanceMeters>NAN</DistanceMeters>
          </Trackpoint>
          <Trackpoint>
            <Time>2021-07-18T06:50:54.000Z</Time>
            <Position>
              <LatitudeDegrees>42.7232466079294681549072265625</LatitudeDegrees>
              <LongitudeDegrees>-0.19936985336244106292724609375</LongitudeDegrees>
            </Position>
            <AltitudeMeters>2339.800048828125</AltitudeMeters>
            <DistanceMeters>NAN</DistanceMeters>
          </Trackpoint>
          <Trackpoint>
            <Time>2021-07-18T06:51:00.000Z</Time>
            <Position>
              <LatitudeDegrees>42.7232234738767147064208984375</LatitudeDegrees>
              <LongitudeDegrees>-0.1993593759834766387939453125</LongitudeDegrees>
            </Position>
            <AltitudeMeters>2339.199951171875</AltitudeMeters>
            <DistanceMeters>NAN</DistanceMeters>
          </Trackpoint>
          <Trackpoint>
            <Time>2021-07-18T06:51:01.000Z</Time>
            <Position>
              <LatitudeDegrees>42.7232204563915729522705078125</LatitudeDegrees>
              <LongitudeDegrees>-0.1993603818118572235107421875</LongitudeDegrees>
            </Position>
            <AltitudeMeters>2339.199951171875</AltitudeMeters>
            <DistanceMeters>NAN</DistanceMeters>
          </Trackpoint>
          <Trackpoint>
            <Time>2021-07-18T06:51:02.000Z</Time>
            <Position>
              <LatitudeDegrees>42.723215930163860321044921875</LatitudeDegrees>
              <LongitudeDegrees>-0.19935627467930316925048828125</LongitudeDegrees>
            </Position>
            <AltitudeMeters>2339.199951171875</AltitudeMeters>
            <DistanceMeters>NAN</DistanceMeters>
          </Trackpoint>
          <Trackpoint>
            <Time>2021-07-18T06:51:03.000Z</Time>
            <Position>
              <LatitudeDegrees>42.723211906850337982177734375</LatitudeDegrees>
              <LongitudeDegrees>-0.19934915006160736083984375</LongitudeDegrees>
            </Position>
            <AltitudeMeters>2339</AltitudeMeters>
            <DistanceMeters>NAN</DistanceMeters>
          </Trackpoint>
          <Trackpoint>
            <Time>2021-07-18T06:51:12.000Z</Time>
            <Position>
              <LatitudeDegrees>42.7231768704950809478759765625</LatitudeDegrees>
              <LongitudeDegrees>-0.19929106347262859344482421875</LongitudeDegrees>
            </Position>
            <AltitudeMeters>2338.199951171875</AltitudeMeters>
            <DistanceMeters>NAN</DistanceMeters>
          </Trackpoint>
          <Trackpoint>
            <Time>2021-07-18T06:51:16.000Z</Time>
            <Position>
              <LatitudeDegrees>42.72315465845167636871337890625</LatitudeDegrees>
              <LongitudeDegrees>-0.19925820641219615936279296875</LongitudeDegrees>
            </Position>
            <AltitudeMeters>2338.199951171875</AltitudeMeters>
            <DistanceMeters>NAN</DistanceMeters>
          </Trackpoint>
          <Trackpoint>
            <Time>2021-07-18T06:51:18.000Z</Time>
            <Position>
              <LatitudeDegrees>42.723145522177219390869140625</LatitudeDegrees>
              <LongitudeDegrees>-0.19923959858715534210205078125</LongitudeDegrees>
            </Position>
            <AltitudeMeters>2338.199951171875</AltitudeMeters>
            <DistanceMeters>NAN</DistanceMeters>
          </Trackpoint>
          <Trackpoint>
            <Time>2021-07-18T06:51:19.000Z</Time>
            <Position>
              <LatitudeDegrees>42.72314795292913913726806640625</LatitudeDegrees>
              <LongitudeDegrees>-0.19922937266528606414794921875</LongitudeDegrees>
            </Position>
            <AltitudeMeters>2338.199951171875</AltitudeMeters>
            <DistanceMeters>NAN</DistanceMeters>
          </Trackpoint>
          <Trackpoint>
            <Time>2021-07-18T06:51:22.000Z</Time>
            <Position>
              <LatitudeDegrees>42.7231371402740478515625</LatitudeDegrees>
              <LongitudeDegrees>-0.1992041431367397308349609375</LongitudeDegrees>
            </Position>
            <AltitudeMeters>2338.39990234375</AltitudeMeters>
            <DistanceMeters>NAN</DistanceMeters>
          </Trackpoint>
          <Trackpoint>
            <Time>2021-07-18T06:51:26.000Z</Time>
            <Position>
              <LatitudeDegrees>42.72311459295451641082763671875</LatitudeDegrees>
              <LongitudeDegrees>-0.1991739682853221893310546875</LongitudeDegrees>
            </Position>
            <AltitudeMeters>2338.39990234375</AltitudeMeters>
            <DistanceMeters>NAN</DistanceMeters>
          </Trackpoint>
          <Trackpoint>
            <Time>2021-07-18T06:51:28.000Z</Time>
            <Position>
              <LatitudeDegrees>42.72310570813715457916259765625</LatitudeDegrees>
              <LongitudeDegrees>-0.199153013527393341064453125</LongitudeDegrees>
            </Position>
            <AltitudeMeters>2338.39990234375</AltitudeMeters>
            <DistanceMeters>NAN</DistanceMeters>
          </Trackpoint>
          <Trackpoint>
            <Time>2021-07-18T06:51:35.000Z</Time>
            <Position>
              <LatitudeDegrees>42.72305734455585479736328125</LatitudeDegrees>
              <LongitudeDegrees>-0.19911269657313823699951171875</LongitudeDegrees>
            </Position>
            <AltitudeMeters>2338.199951171875</AltitudeMeters>
            <DistanceMeters>NAN</DistanceMeters>
          </Trackpoint>
          <Trackpoint>
            <Time>2021-07-18T06:51:37.000Z</Time>
            <Position>
              <LatitudeDegrees>42.72303714416921138763427734375</LatitudeDegrees>
              <LongitudeDegrees>-0.199116133153438568115234375</LongitudeDegrees>
            </Position>
            <AltitudeMeters>2338</AltitudeMeters>
            <DistanceMeters>NAN</DistanceMeters>
          </Trackpoint>
          <Trackpoint>
            <Time>2021-07-18T06:51:46.000Z</Time>
            <Position>
              <LatitudeDegrees>42.72296455688774585723876953125</LatitudeDegrees>
              <LongitudeDegrees>-0.19909023307263851165771484375</LongitudeDegrees>
            </Position>
            <AltitudeMeters>2337.800048828125</AltitudeMeters>
            <DistanceMeters>NAN</DistanceMeters>
          </Trackpoint>
          <Trackpoint>
            <Time>2021-07-18T06:51:52.000Z</Time>
            <Position>
              <LatitudeDegrees>42.72292918525636196136474609375</LatitudeDegrees>
              <LongitudeDegrees>-0.1990418694913387298583984375</LongitudeDegrees>
            </Position>
            <AltitudeMeters>2338.199951171875</AltitudeMeters>
            <DistanceMeters>NAN</DistanceMeters>
          </Trackpoint>
          <Trackpoint>
            <Time>2021-07-18T06:51:56.000Z</Time>
            <Position>
              <LatitudeDegrees>42.7229133434593677520751953125</LatitudeDegrees>
              <LongitudeDegrees>-0.199010185897350311279296875</LongitudeDegrees>
            </Position>
            <AltitudeMeters>2338.60009765625</AltitudeMeters>
            <DistanceMeters>NAN</DistanceMeters>
          </Trackpoint>
          <Trackpoint>
            <Time>2021-07-18T06:52:00.000Z</Time>
            <Position>
              <LatitudeDegrees>42.72288207896053791046142578125</LatitudeDegrees>
              <LongitudeDegrees>-0.19897372461855411529541015625</LongitudeDegrees>
            </Position>
            <AltitudeMeters>2338.800048828125</AltitudeMeters>
            <DistanceMeters>NAN</DistanceMeters>
          </Trackpoint>
          <Trackpoint>
            <Time>2021-07-18T06:52:08.000Z</Time>
            <Position>
              <LatitudeDegrees>42.722834050655364990234375</LatitudeDegrees>
              <LongitudeDegrees>-0.19889694638550281524658203125</LongitudeDegrees>
            </Position>
            <AltitudeMeters>2339.60009765625</AltitudeMeters>
            <DistanceMeters>NAN</DistanceMeters>
          </Trackpoint>
          <Trackpoint>
            <Time>2021-07-18T06:52:18.000Z</Time>
            <Position>
              <LatitudeDegrees>42.722758948802947998046875</LatitudeDegrees>
              <LongitudeDegrees>-0.19884296692907810211181640625</LongitudeDegrees>
            </Position>
            <AltitudeMeters>2338.199951171875</AltitudeMeters>
            <DistanceMeters>NAN</DistanceMeters>
          </Trackpoint>
          <Trackpoint>
            <Time>2021-07-18T06:52:26.000Z</Time>
            <Position>
              <LatitudeDegrees>42.72271092049777507781982421875</LatitudeDegrees>
              <LongitudeDegrees>-0.1988128758966922760009765625</LongitudeDegrees>
            </Position>
            <AltitudeMeters>2337.199951171875</AltitudeMeters>
            <DistanceMeters>NAN</DistanceMeters>
          </Trackpoint>
          <Trackpoint>
            <Time>2021-07-18T06:52:28.000Z</Time>
            <Position>
              <LatitudeDegrees>42.7227079868316650390625</LatitudeDegrees>
              <LongitudeDegrees>-0.19879125058650970458984375</LongitudeDegrees>
            </Position>
            <AltitudeMeters>2337.199951171875</AltitudeMeters>
            <DistanceMeters>NAN</DistanceMeters>
          </Trackpoint>
          <Trackpoint>
            <Time>2021-07-18T06:52:37.000Z</Time>
            <Position>
              <LatitudeDegrees>42.7226786501705646514892578125</LatitudeDegrees>
              <LongitudeDegrees>-0.19875638186931610107421875</LongitudeDegrees>
            </Position>
            <AltitudeMeters>2336.60009765625</AltitudeMeters>
            <DistanceMeters>NAN</DistanceMeters>
          </Trackpoint>
          <Trackpoint>
            <Time>2021-07-18T06:52:45.000Z</Time>
            <Position>
              <LatitudeDegrees>42.72268175147473812103271484375</LatitudeDegrees>
              <LongitudeDegrees>-0.1987438090145587921142578125</LongitudeDegrees>
            </Position>
            <AltitudeMeters>2336.60009765625</AltitudeMeters>
            <DistanceMeters>NAN</DistanceMeters>
          </Trackpoint>
          <Trackpoint>
            <Time>2021-07-18T06:52:52.000Z</Time>
            <Position>
              <LatitudeDegrees>42.722686864435672760009765625</LatitudeDegrees>
              <LongitudeDegrees>-0.19872545264661312103271484375</LongitudeDegrees>
            </Position>
            <AltitudeMeters>2336.800048828125</AltitudeMeters>
            <DistanceMeters>NAN</DistanceMeters>
          </Trackpoint>
          <Trackpoint>
            <Time>2021-07-18T06:53:01.000Z</Time>
            <Position>
              <LatitudeDegrees>42.72268493659794330596923828125</LatitudeDegrees>
              <LongitudeDegrees>-0.19869427196681499481201171875</LongitudeDegrees>
            </Position>
            <AltitudeMeters>2337</AltitudeMeters>
            <DistanceMeters>NAN</DistanceMeters>
          </Trackpoint>
          <Trackpoint>
            <Time>2021-07-18T06:53:04.000Z</Time>
            <Position>
              <LatitudeDegrees>42.72267672233283519744873046875</LatitudeDegrees>
              <LongitudeDegrees>-0.19868052564561367034912109375</LongitudeDegrees>
            </Position>
            <AltitudeMeters>2336.800048828125</AltitudeMeters>
            <DistanceMeters>NAN</DistanceMeters>
          </Trackpoint>
          <Trackpoint>
            <Time>2021-07-18T06:53:08.000Z</Time>
            <Position>
              <LatitudeDegrees>42.7226813323795795440673828125</LatitudeDegrees>
              <LongitudeDegrees>-0.198653452098369598388671875</LongitudeDegrees>
            </Position>
            <AltitudeMeters>2337</AltitudeMeters>
            <DistanceMeters>NAN</DistanceMeters>
          </Trackpoint>
          <Trackpoint>
            <Time>2021-07-18T06:53:10.000Z</Time>
            <Position>
              <LatitudeDegrees>42.722676806151866912841796875</LatitudeDegrees>
              <LongitudeDegrees>-0.198636688292026519775390625</LongitudeDegrees>
            </Position>
            <AltitudeMeters>2337</AltitudeMeters>
            <DistanceMeters>NAN</DistanceMeters>
          </Trackpoint>
          <Trackpoint>
            <Time>2021-07-18T06:53:11.000Z</Time>
            <Position>
              <LatitudeDegrees>42.722673453390598297119140625</LatitudeDegrees>
              <LongitudeDegrees>-0.1986376941204071044921875</LongitudeDegrees>
            </Position>
            <AltitudeMeters>2336.800048828125</AltitudeMeters>
            <DistanceMeters>NAN</DistanceMeters>
          </Trackpoint>
          <Trackpoint>
            <Time>2021-07-18T06:53:14.000Z</Time>
            <Position>
              <LatitudeDegrees>42.72266850806772708892822265625</LatitudeDegrees>
              <LongitudeDegrees>-0.198634676635265350341796875</LongitudeDegrees>
            </Position>
            <AltitudeMeters>2336.60009765625</AltitudeMeters>
            <DistanceMeters>NAN</DistanceMeters>
          </Trackpoint>
          <Trackpoint>
            <Time>2021-07-18T06:53:16.000Z</Time>
            <Position>
              <LatitudeDegrees>42.7226625569164752960205078125</LatitudeDegrees>
              <LongitudeDegrees>-0.19864314235746860504150390625</LongitudeDegrees>
            </Position>
            <AltitudeMeters>2336.39990234375</AltitudeMeters>
            <DistanceMeters>NAN</DistanceMeters>
          </Trackpoint>
          <Trackpoint>
            <Time>2021-07-18T06:53:19.000Z</Time>
            <Position>
              <LatitudeDegrees>42.7226615510880947113037109375</LatitudeDegrees>
              <LongitudeDegrees>-0.19863844849169254302978515625</LongitudeDegrees>
            </Position>
            <AltitudeMeters>2336.39990234375</AltitudeMeters>
            <DistanceMeters>NAN</DistanceMeters>
          </Trackpoint>
          <Trackpoint>
            <Time>2021-07-18T06:53:31.000Z</Time>
            <Position>
              <LatitudeDegrees>42.7226675860583782196044921875</LatitudeDegrees>
              <LongitudeDegrees>-0.19862361252307891845703125</LongitudeDegrees>
            </Position>
            <AltitudeMeters>2336.60009765625</AltitudeMeters>
            <DistanceMeters>NAN</DistanceMeters>
          </Trackpoint>
          <Trackpoint>
            <Time>2021-07-18T06:54:03.000Z</Time>
            <Position>
              <LatitudeDegrees>42.722657360136508941650390625</LatitudeDegrees>
              <LongitudeDegrees>-0.1986019872128963470458984375</LongitudeDegrees>
            </Position>
            <AltitudeMeters>2336.39990234375</AltitudeMeters>
            <DistanceMeters>NAN</DistanceMeters>
          </Trackpoint>
          <Trackpoint>
            <Time>2021-07-18T06:54:11.000Z</Time>
            <Position>
              <LatitudeDegrees>42.722657360136508941650390625</LatitudeDegrees>
              <LongitudeDegrees>-0.19860173575580120086669921875</LongitudeDegrees>
            </Position>
            <AltitudeMeters>2336.39990234375</AltitudeMeters>
            <DistanceMeters>NAN</DistanceMeters>
          </Trackpoint>
          <Trackpoint>
            <Time>2021-07-18T06:54:27.000Z</Time>
            <Position>
              <LatitudeDegrees>42.72264772094786167144775390625</LatitudeDegrees>
              <LongitudeDegrees>-0.19860676489770412445068359375</LongitudeDegrees>
            </Position>
            <AltitudeMeters>2336.199951171875</AltitudeMeters>
            <DistanceMeters>NAN</DistanceMeters>
          </Trackpoint>
          <Trackpoint>
            <Time>2021-07-18T06:55:16.000Z</Time>
            <Position>
              <LatitudeDegrees>42.72263950668275356292724609375</LatitudeDegrees>
              <LongitudeDegrees>-0.19862168468534946441650390625</LongitudeDegrees>
            </Position>
            <AltitudeMeters>2335.800048828125</AltitudeMeters>
            <DistanceMeters>NAN</DistanceMeters>
          </Trackpoint>
          <Trackpoint>
            <Time>2021-07-18T06:55:22.000Z</Time>
            <Position>
              <LatitudeDegrees>42.72264068014919757843017578125</LatitudeDegrees>
              <LongitudeDegrees>-0.19862872548401355743408203125</LongitudeDegrees>
            </Position>
            <AltitudeMeters>2336</AltitudeMeters>
            <DistanceMeters>NAN</DistanceMeters>
          </Trackpoint>
          <Trackpoint>
            <Time>2021-07-18T06:55:35.000Z</Time>
            <Position>
              <LatitudeDegrees>42.72264285944402217864990234375</LatitudeDegrees>
              <LongitudeDegrees>-0.1986318267881870269775390625</LongitudeDegrees>
            </Position>
            <AltitudeMeters>2336</AltitudeMeters>
            <DistanceMeters>NAN</DistanceMeters>
          </Trackpoint>
          <Trackpoint>
            <Time>2021-07-18T06:55:40.000Z</Time>
            <Position>
              <LatitudeDegrees>42.7226434461772441864013671875</LatitudeDegrees>
              <LongitudeDegrees>-0.19863165915012359619140625</LongitudeDegrees>
            </Position>
            <AltitudeMeters>2336</AltitudeMeters>
            <DistanceMeters>NAN</DistanceMeters>
          </Trackpoint>
          <Trackpoint>
            <Time>2021-07-18T06:55:42.000Z</Time>
            <Position>
              <LatitudeDegrees>42.72264352999627590179443359375</LatitudeDegrees>
              <LongitudeDegrees>-0.19863165915012359619140625</LongitudeDegrees>
            </Position>
            <AltitudeMeters>2336</AltitudeMeters>
            <DistanceMeters>NAN</DistanceMeters>
          </Trackpoint>
          <Trackpoint>
            <Time>2021-07-18T06:56:03.000Z</Time>
            <Position>
              <LatitudeDegrees>42.72263581864535808563232421875</LatitudeDegrees>
              <LongitudeDegrees>-0.198619924485683441162109375</LongitudeDegrees>
            </Position>
            <AltitudeMeters>2335.800048828125</AltitudeMeters>
            <DistanceMeters>NAN</DistanceMeters>
          </Trackpoint>
          <Trackpoint>
            <Time>2021-07-18T06:56:25.000Z</Time>
            <Position>
              <LatitudeDegrees>42.72261939011514186859130859375</LatitudeDegrees>
              <LongitudeDegrees>-0.19862302578985691070556640625</LongitudeDegrees>
            </Position>
            <AltitudeMeters>2335.39990234375</AltitudeMeters>
            <DistanceMeters>NAN</DistanceMeters>
          </Trackpoint>
          <Trackpoint>
            <Time>2021-07-18T06:56:27.000Z</Time>
            <Position>
              <LatitudeDegrees>42.7226186357438564300537109375</LatitudeDegrees>
              <LongitudeDegrees>-0.1986251212656497955322265625</LongitudeDegrees>
            </Position>
            <AltitudeMeters>2335.199951171875</AltitudeMeters>
            <DistanceMeters>NAN</DistanceMeters>
          </Trackpoint>
          <Trackpoint>
            <Time>2021-07-18T06:56:33.000Z</Time>
            <Position>
              <LatitudeDegrees>42.72261721082031726837158203125</LatitudeDegrees>
              <LongitudeDegrees>-0.19862855784595012664794921875</LongitudeDegrees>
            </Position>
            <AltitudeMeters>2335.199951171875</AltitudeMeters>
            <DistanceMeters>NAN</DistanceMeters>
          </Trackpoint>
          <Trackpoint>
            <Time>2021-07-18T06:56:38.000Z</Time>
            <Position>
              <LatitudeDegrees>42.72261687554419040679931640625</LatitudeDegrees>
              <LongitudeDegrees>-0.19862989895045757293701171875</LongitudeDegrees>
            </Position>
            <AltitudeMeters>2335.199951171875</AltitudeMeters>
            <DistanceMeters>NAN</DistanceMeters>
          </Trackpoint>
          <Trackpoint>
            <Time>2021-07-18T06:56:46.000Z</Time>
            <Position>
              <LatitudeDegrees>42.72261670790612697601318359375</LatitudeDegrees>
              <LongitudeDegrees>-0.19863023422658443450927734375</LongitudeDegrees>
            </Position>
            <AltitudeMeters>2335.199951171875</AltitudeMeters>
            <DistanceMeters>NAN</DistanceMeters>
          </Trackpoint>
          <Trackpoint>
            <Time>2021-07-18T06:56:51.000Z</Time>
            <Position>
              <LatitudeDegrees>42.72261670790612697601318359375</LatitudeDegrees>
              <LongitudeDegrees>-0.19863023422658443450927734375</LongitudeDegrees>
            </Position>
            <AltitudeMeters>2335.199951171875</AltitudeMeters>
            <DistanceMeters>NAN</DistanceMeters>
          </Trackpoint>
          <Trackpoint>
            <Time>2021-07-18T06:56:53.000Z</Time>
            <Position>
              <LatitudeDegrees>42.72261670790612697601318359375</LatitudeDegrees>
              <LongitudeDegrees>-0.19863023422658443450927734375</LongitudeDegrees>
            </Position>
            <AltitudeMeters>2335.199951171875</AltitudeMeters>
            <DistanceMeters>NAN</DistanceMeters>
          </Trackpoint>
          <Trackpoint>
            <Time>2021-07-18T06:57:00.000Z</Time>
            <Position>
              <LatitudeDegrees>42.72261654026806354522705078125</LatitudeDegrees>
              <LongitudeDegrees>-0.19863023422658443450927734375</LongitudeDegrees>
            </Position>
            <AltitudeMeters>2335.199951171875</AltitudeMeters>
            <DistanceMeters>NAN</DistanceMeters>
          </Trackpoint>
          <Trackpoint>
            <Time>2021-07-18T06:57:08.000Z</Time>
            <Position>
              <LatitudeDegrees>42.72261637263000011444091796875</LatitudeDegrees>
              <LongitudeDegrees>-0.19863023422658443450927734375</LongitudeDegrees>
            </Position>
            <AltitudeMeters>2335.199951171875</AltitudeMeters>
            <DistanceMeters>NAN</DistanceMeters>
          </Trackpoint>
          <Trackpoint>
            <Time>2021-07-18T06:57:13.000Z</Time>
            <Position>
              <LatitudeDegrees>42.72261637263000011444091796875</LatitudeDegrees>
              <LongitudeDegrees>-0.19863023422658443450927734375</LongitudeDegrees>
            </Position>
            <AltitudeMeters>2335.199951171875</AltitudeMeters>
            <DistanceMeters>NAN</DistanceMeters>
          </Trackpoint>
          <Trackpoint>
            <Time>2021-07-18T06:57:16.000Z</Time>
            <Position>
              <LatitudeDegrees>42.7226162888109683990478515625</LatitudeDegrees>
              <LongitudeDegrees>-0.1986301504075527191162109375</LongitudeDegrees>
            </Position>
            <AltitudeMeters>2335.199951171875</AltitudeMeters>
            <DistanceMeters>NAN</DistanceMeters>
          </Trackpoint>
          <Trackpoint>
            <Time>2021-07-18T06:57:26.000Z</Time>
            <Position>
              <LatitudeDegrees>42.72261620499193668365478515625</LatitudeDegrees>
              <LongitudeDegrees>-0.19862906076014041900634765625</LongitudeDegrees>
            </Position>
            <AltitudeMeters>2335.199951171875</AltitudeMeters>
            <DistanceMeters>NAN</DistanceMeters>
          </Trackpoint>
          <Trackpoint>
            <Time>2021-07-18T06:57:31.000Z</Time>
            <Position>
              <LatitudeDegrees>42.72261620499193668365478515625</LatitudeDegrees>
              <LongitudeDegrees>-0.19862805493175983428955078125</LongitudeDegrees>
            </Position>
            <AltitudeMeters>2335.199951171875</AltitudeMeters>
            <DistanceMeters>NAN</DistanceMeters>
          </Trackpoint>
          <Trackpoint>
            <Time>2021-07-18T06:57:35.000Z</Time>
            <Position>
              <LatitudeDegrees>42.72261612117290496826171875</LatitudeDegrees>
              <LongitudeDegrees>-0.1986271329224109649658203125</LongitudeDegrees>
            </Position>
            <AltitudeMeters>2335.199951171875</AltitudeMeters>
            <DistanceMeters>NAN</DistanceMeters>
          </Trackpoint>
          <Trackpoint>
            <Time>2021-07-18T06:57:40.000Z</Time>
            <Position>
              <LatitudeDegrees>42.72261586971580982208251953125</LatitudeDegrees>
              <LongitudeDegrees>-0.198625959455966949462890625</LongitudeDegrees>
            </Position>
            <AltitudeMeters>2335.199951171875</AltitudeMeters>
            <DistanceMeters>NAN</DistanceMeters>
          </Trackpoint>
          <Trackpoint>
            <Time>2021-07-18T06:57:45.000Z</Time>
            <Position>
              <LatitudeDegrees>42.72261553443968296051025390625</LatitudeDegrees>
              <LongitudeDegrees>-0.198624618351459503173828125</LongitudeDegrees>
            </Position>
            <AltitudeMeters>2335.199951171875</AltitudeMeters>
            <DistanceMeters>NAN</DistanceMeters>
          </Trackpoint>
          <Trackpoint>
            <Time>2021-07-18T06:57:46.000Z</Time>
            <Position>
              <LatitudeDegrees>42.72261553443968296051025390625</LatitudeDegrees>
              <LongitudeDegrees>-0.19862436689436435699462890625</LongitudeDegrees>
            </Position>
            <AltitudeMeters>2335.199951171875</AltitudeMeters>
            <DistanceMeters>NAN</DistanceMeters>
          </Trackpoint>
          <Trackpoint>
            <Time>2021-07-18T06:57:47.000Z</Time>
            <Position>
              <LatitudeDegrees>42.7226154506206512451171875</LatitudeDegrees>
              <LongitudeDegrees>-0.1986241154372692108154296875</LongitudeDegrees>
            </Position>
            <AltitudeMeters>2335.199951171875</AltitudeMeters>
            <DistanceMeters>NAN</DistanceMeters>
          </Trackpoint>
          <Trackpoint>
            <Time>2021-07-18T06:57:48.000Z</Time>
            <Position>
              <LatitudeDegrees>42.72261536680161952972412109375</LatitudeDegrees>
              <LongitudeDegrees>-0.19862386398017406463623046875</LongitudeDegrees>
            </Position>
            <AltitudeMeters>2335.199951171875</AltitudeMeters>
            <DistanceMeters>NAN</DistanceMeters>
          </Trackpoint>
          <Trackpoint>
            <Time>2021-07-18T06:57:50.000Z</Time>
            <Position>
              <LatitudeDegrees>42.7226152829825878143310546875</LatitudeDegrees>
              <LongitudeDegrees>-0.198623277246952056884765625</LongitudeDegrees>
            </Position>
            <AltitudeMeters>2335.199951171875</AltitudeMeters>
            <DistanceMeters>NAN</DistanceMeters>
          </Trackpoint>
          <Trackpoint>
            <Time>2021-07-18T06:57:52.000Z</Time>
            <Position>
              <LatitudeDegrees>42.722615115344524383544921875</LatitudeDegrees>
              <LongitudeDegrees>-0.1986227743327617645263671875</LongitudeDegrees>
            </Position>
            <AltitudeMeters>2335.199951171875</AltitudeMeters>
            <DistanceMeters>NAN</DistanceMeters>
          </Trackpoint>
          <Trackpoint>
            <Time>2021-07-18T06:57:58.000Z</Time>
            <Position>
              <LatitudeDegrees>42.7226146124303340911865234375</LatitudeDegrees>
              <LongitudeDegrees>-0.1986210979521274566650390625</LongitudeDegrees>
            </Position>
            <AltitudeMeters>2335.199951171875</AltitudeMeters>
            <DistanceMeters>NAN</DistanceMeters>
          </Trackpoint>
          <Trackpoint>
            <Time>2021-07-18T06:58:00.000Z</Time>
            <Position>
              <LatitudeDegrees>42.722614444792270660400390625</LatitudeDegrees>
              <LongitudeDegrees>-0.19862051121890544891357421875</LongitudeDegrees>
            </Position>
            <AltitudeMeters>2335.199951171875</AltitudeMeters>
            <DistanceMeters>NAN</DistanceMeters>
          </Trackpoint>
          <Trackpoint>
            <Time>2021-07-18T06:58:20.000Z</Time>
            <Position>
              <LatitudeDegrees>42.7226119302213191986083984375</LatitudeDegrees>
              <LongitudeDegrees>-0.198614560067653656005859375</LongitudeDegrees>
            </Position>
            <AltitudeMeters>2335.199951171875</AltitudeMeters>
            <DistanceMeters>NAN</DistanceMeters>
          </Trackpoint>
          <Trackpoint>
            <Time>2021-07-18T06:58:26.000Z</Time>
            <Position>
              <LatitudeDegrees>42.72261084057390689849853515625</LatitudeDegrees>
              <LongitudeDegrees>-0.1986127160489559173583984375</LongitudeDegrees>
            </Position>
            <AltitudeMeters>2335.199951171875</AltitudeMeters>
            <DistanceMeters>NAN</DistanceMeters>
          </Trackpoint>
          <Trackpoint>
            <Time>2021-07-18T06:58:44.000Z</Time>
            <Position>
              <LatitudeDegrees>42.72260614670813083648681640625</LatitudeDegrees>
              <LongitudeDegrees>-0.198606513440608978271484375</LongitudeDegrees>
            </Position>
            <AltitudeMeters>2335</AltitudeMeters>
            <DistanceMeters>NAN</DistanceMeters>
          </Trackpoint>
          <Trackpoint>
            <Time>2021-07-18T06:58:49.000Z</Time>
            <Position>
              <LatitudeDegrees>42.7226045541465282440185546875</LatitudeDegrees>
              <LongitudeDegrees>-0.19860475324094295501708984375</LongitudeDegrees>
            </Position>
            <AltitudeMeters>2335</AltitudeMeters>
            <DistanceMeters>NAN</DistanceMeters>
          </Trackpoint>
          <Trackpoint>
            <Time>2021-07-18T06:58:51.000Z</Time>
            <Position>
              <LatitudeDegrees>42.7226038835942745208740234375</LatitudeDegrees>
              <LongitudeDegrees>-0.1986039988696575164794921875</LongitudeDegrees>
            </Position>
            <AltitudeMeters>2335</AltitudeMeters>
            <DistanceMeters>NAN</DistanceMeters>
          </Trackpoint>
          <Trackpoint>
            <Time>2021-07-18T06:59:25.000Z</Time>
            <Position>
              <LatitudeDegrees>42.7225898019969463348388671875</LatitudeDegrees>
              <LongitudeDegrees>-0.19858882762491703033447265625</LongitudeDegrees>
            </Position>
            <AltitudeMeters>2334.60009765625</AltitudeMeters>
            <DistanceMeters>NAN</DistanceMeters>
          </Trackpoint>
          <Trackpoint>
            <Time>2021-07-18T06:59:40.000Z</Time>
            <Position>
              <LatitudeDegrees>42.7225832641124725341796875</LatitudeDegrees>
              <LongitudeDegrees>-0.1985800266265869140625</LongitudeDegrees>
            </Position>
            <AltitudeMeters>2334.39990234375</AltitudeMeters>
            <DistanceMeters>NAN</DistanceMeters>
          </Trackpoint>
          <Trackpoint>
            <Time>2021-07-18T06:59:51.000Z</Time>
            <Position>
              <LatitudeDegrees>42.72257848642766475677490234375</LatitudeDegrees>
              <LongitudeDegrees>-0.1985728181898593902587890625</LongitudeDegrees>
            </Position>
            <AltitudeMeters>2334.39990234375</AltitudeMeters>
            <DistanceMeters>NAN</DistanceMeters>
          </Trackpoint>
          <Trackpoint>
            <Time>2021-07-18T07:00:02.000Z</Time>
            <Position>
              <LatitudeDegrees>42.72257379256188869476318359375</LatitudeDegrees>
              <LongitudeDegrees>-0.1985651068389415740966796875</LongitudeDegrees>
            </Position>
            <AltitudeMeters>2334.199951171875</AltitudeMeters>
            <DistanceMeters>NAN</DistanceMeters>
          </Trackpoint>
          <Trackpoint>
            <Time>2021-07-18T07:00:36.000Z</Time>
            <Position>
              <LatitudeDegrees>42.72255820222198963165283203125</LatitudeDegrees>
              <LongitudeDegrees>-0.19853903912007808685302734375</LongitudeDegrees>
            </Position>
            <AltitudeMeters>2333.800048828125</AltitudeMeters>
            <DistanceMeters>NAN</DistanceMeters>
          </Trackpoint>
          <Trackpoint>
            <Time>2021-07-18T07:00:55.000Z</Time>
            <Position>
              <LatitudeDegrees>42.7225478924810886383056640625</LatitudeDegrees>
              <LongitudeDegrees>-0.198523700237274169921875</LongitudeDegrees>
            </Position>
            <AltitudeMeters>2333.199951171875</AltitudeMeters>
            <DistanceMeters>NAN</DistanceMeters>
          </Trackpoint>
          <Trackpoint>
            <Time>2021-07-18T07:01:12.000Z</Time>
            <Position>
              <LatitudeDegrees>42.722538001835346221923828125</LatitudeDegrees>
              <LongitudeDegrees>-0.19850961863994598388671875</LongitudeDegrees>
            </Position>
            <AltitudeMeters>2332.60009765625</AltitudeMeters>
            <DistanceMeters>NAN</DistanceMeters>
          </Trackpoint>
          <Trackpoint>
            <Time>2021-07-18T07:01:23.000Z</Time>
            <Position>
              <LatitudeDegrees>42.7225311286747455596923828125</LatitudeDegrees>
              <LongitudeDegrees>-0.198500566184520721435546875</LongitudeDegrees>
            </Position>
            <AltitudeMeters>2332.199951171875</AltitudeMeters>
            <DistanceMeters>NAN</DistanceMeters>
          </Trackpoint>
          <Trackpoint>
            <Time>2021-07-18T07:01:38.000Z</Time>
            <Position>
              <LatitudeDegrees>42.7225210703909397125244140625</LatitudeDegrees>
              <LongitudeDegrees>-0.1984883286058902740478515625</LongitudeDegrees>
            </Position>
            <AltitudeMeters>2331.60009765625</AltitudeMeters>
            <DistanceMeters>NAN</DistanceMeters>
          </Trackpoint>
          <Trackpoint>
            <Time>2021-07-18T07:01:51.000Z</Time>
            <Position>
              <LatitudeDegrees>42.722511850297451019287109375</LatitudeDegrees>
              <LongitudeDegrees>-0.19847785122692584991455078125</LongitudeDegrees>
            </Position>
            <AltitudeMeters>2331.199951171875</AltitudeMeters>
            <DistanceMeters>NAN</DistanceMeters>
          </Trackpoint>
          <Trackpoint>
            <Time>2021-07-18T07:02:43.000Z</Time>
            <Position>
              <LatitudeDegrees>42.7224704436957836151123046875</LatitudeDegrees>
              <LongitudeDegrees>-0.19843661226332187652587890625</LongitudeDegrees>
            </Position>
            <AltitudeMeters>2328.800048828125</AltitudeMeters>
            <DistanceMeters>NAN</DistanceMeters>
          </Trackpoint>
          <Trackpoint>
            <Time>2021-07-18T07:02:57.000Z</Time>
            <Position>
              <LatitudeDegrees>42.722458876669406890869140625</LatitudeDegrees>
              <LongitudeDegrees>-0.19842722453176975250244140625</LongitudeDegrees>
            </Position>
            <AltitudeMeters>2328</AltitudeMeters>
            <DistanceMeters>NAN</DistanceMeters>
          </Trackpoint>
          <Trackpoint>
            <Time>2021-07-18T07:03:13.000Z</Time>
            <Position>
              <LatitudeDegrees>42.72244521416723728179931640625</LatitudeDegrees>
              <LongitudeDegrees>-0.19841766916215419769287109375</LongitudeDegrees>
            </Position>
            <AltitudeMeters>2327.39990234375</AltitudeMeters>
            <DistanceMeters>NAN</DistanceMeters>
          </Trackpoint>
          <Trackpoint>
            <Time>2021-07-18T07:03:32.000Z</Time>
            <Position>
              <LatitudeDegrees>42.72242744453251361846923828125</LatitudeDegrees>
              <LongitudeDegrees>-0.19840492866933345794677734375</LongitudeDegrees>
            </Position>
            <AltitudeMeters>2326.39990234375</AltitudeMeters>
            <DistanceMeters>NAN</DistanceMeters>
          </Trackpoint>
          <Trackpoint>
            <Time>2021-07-18T07:04:03.000Z</Time>
            <Position>
              <LatitudeDegrees>42.7223966829478740692138671875</LatitudeDegrees>
              <LongitudeDegrees>-0.19838757812976837158203125</LongitudeDegrees>
            </Position>
            <AltitudeMeters>2324.60009765625</AltitudeMeters>
            <DistanceMeters>NAN</DistanceMeters>
          </Trackpoint>
          <Trackpoint>
            <Time>2021-07-18T07:04:15.000Z</Time>
            <Position>
              <LatitudeDegrees>42.72238411009311676025390625</LatitudeDegrees>
              <LongitudeDegrees>-0.1983827166259288787841796875</LongitudeDegrees>
            </Position>
            <AltitudeMeters>2324</AltitudeMeters>
            <DistanceMeters>NAN</DistanceMeters>
          </Trackpoint>
          <Trackpoint>
            <Time>2021-07-18T07:04:30.000Z</Time>
            <Position>
              <LatitudeDegrees>42.7223675139248371124267578125</LatitudeDegrees>
              <LongitudeDegrees>-0.19837810657918453216552734375</LongitudeDegrees>
            </Position>
            <AltitudeMeters>2323.199951171875</AltitudeMeters>
            <DistanceMeters>NAN</DistanceMeters>
          </Trackpoint>
          <Trackpoint>
            <Time>2021-07-18T07:06:02.000Z</Time>
            <Position>
              <LatitudeDegrees>42.72224907763302326202392578125</LatitudeDegrees>
              <LongitudeDegrees>-0.19835161976516246795654296875</LongitudeDegrees>
            </Position>
            <AltitudeMeters>2317.199951171875</AltitudeMeters>
            <DistanceMeters>NAN</DistanceMeters>
          </Trackpoint>
          <Trackpoint>
            <Time>2021-07-18T07:07:03.000Z</Time>
            <Position>
              <LatitudeDegrees>42.72216618061065673828125</LatitudeDegrees>
              <LongitudeDegrees>-0.19832429476082324981689453125</LongitudeDegrees>
            </Position>
            <AltitudeMeters>2312.39990234375</AltitudeMeters>
            <DistanceMeters>NAN</DistanceMeters>
          </Trackpoint>
          <Trackpoint>
            <Time>2021-07-18T07:07:32.000Z</Time>
            <Position>
              <LatitudeDegrees>42.72212485782802104949951171875</LatitudeDegrees>
              <LongitudeDegrees>-0.19830836914479732513427734375</LongitudeDegrees>
            </Position>
            <AltitudeMeters>2310</AltitudeMeters>
            <DistanceMeters>NAN</DistanceMeters>
          </Trackpoint>
          <Trackpoint>
            <Time>2021-07-18T07:07:47.000Z</Time>
            <Position>
              <LatitudeDegrees>42.72210272960364818572998046875</LatitudeDegrees>
              <LongitudeDegrees>-0.19829864613711833953857421875</LongitudeDegrees>
            </Position>
            <AltitudeMeters>2308.800048828125</AltitudeMeters>
            <DistanceMeters>NAN</DistanceMeters>
          </Trackpoint>
          <Trackpoint>
            <Time>2021-07-18T07:08:05.000Z</Time>
            <Position>
              <LatitudeDegrees>42.722073979675769805908203125</LatitudeDegrees>
              <LongitudeDegrees>-0.19828640855848789215087890625</LongitudeDegrees>
            </Position>
            <AltitudeMeters>2307</AltitudeMeters>
            <DistanceMeters>NAN</DistanceMeters>
          </Trackpoint>
          <Trackpoint>
            <Time>2021-07-18T07:08:08.000Z</Time>
            <Position>
              <LatitudeDegrees>42.7220691181719303131103515625</LatitudeDegrees>
              <LongitudeDegrees>-0.19828439690172672271728515625</LongitudeDegrees>
            </Position>
            <AltitudeMeters>2306.800048828125</AltitudeMeters>
            <DistanceMeters>NAN</DistanceMeters>
          </Trackpoint>
          <Trackpoint>
            <Time>2021-07-18T07:08:32.000Z</Time>
            <Position>
              <LatitudeDegrees>42.72181506268680095672607421875</LatitudeDegrees>
              <LongitudeDegrees>-0.1981688104569911956787109375</LongitudeDegrees>
            </Position>
            <AltitudeMeters>2295.199951171875</AltitudeMeters>
            <DistanceMeters>NAN</DistanceMeters>
          </Trackpoint>
          <Trackpoint>
            <Time>2021-07-18T07:08:33.000Z</Time>
            <Position>
              <LatitudeDegrees>42.72170559503138065338134765625</LatitudeDegrees>
              <LongitudeDegrees>-0.19811977632343769073486328125</LongitudeDegrees>
            </Position>
            <AltitudeMeters>2290.39990234375</AltitudeMeters>
            <DistanceMeters>NAN</DistanceMeters>
          </Trackpoint>
          <Trackpoint>
            <Time>2021-07-18T07:08:35.000Z</Time>
            <Position>
              <LatitudeDegrees>42.7214843966066837310791015625</LatitudeDegrees>
              <LongitudeDegrees>-0.198018439114093780517578125</LongitudeDegrees>
            </Position>
            <AltitudeMeters>2279.800048828125</AltitudeMeters>
            <DistanceMeters>NAN</DistanceMeters>
          </Trackpoint>
          <Trackpoint>
            <Time>2021-07-18T07:08:36.000Z</Time>
            <Position>
              <LatitudeDegrees>42.72137367166578769683837890625</LatitudeDegrees>
              <LongitudeDegrees>-0.1979686506092548370361328125</LongitudeDegrees>
            </Position>
            <AltitudeMeters>2274.199951171875</AltitudeMeters>
            <DistanceMeters>NAN</DistanceMeters>
          </Trackpoint>
          <Trackpoint>
            <Time>2021-07-18T07:08:37.000Z</Time>
            <Position>
              <LatitudeDegrees>42.72126386873424053192138671875</LatitudeDegrees>
              <LongitudeDegrees>-0.19792146049439907073974609375</LongitudeDegrees>
            </Position>
            <AltitudeMeters>2268.39990234375</AltitudeMeters>
            <DistanceMeters>NAN</DistanceMeters>
          </Trackpoint>
          <Trackpoint>
            <Time>2021-07-18T07:08:39.000Z</Time>
            <Position>
              <LatitudeDegrees>42.72104208357632160186767578125</LatitudeDegrees>
              <LongitudeDegrees>-0.19782423041760921478271484375</LongitudeDegrees>
            </Position>
            <AltitudeMeters>2258.39990234375</AltitudeMeters>
            <DistanceMeters>NAN</DistanceMeters>
          </Trackpoint>
          <Trackpoint>
            <Time>2021-07-18T07:08:40.000Z</Time>
            <Position>
              <LatitudeDegrees>42.72093311883509159088134765625</LatitudeDegrees>
              <LongitudeDegrees>-0.19777469336986541748046875</LongitudeDegrees>
            </Position>
            <AltitudeMeters>2253.60009765625</AltitudeMeters>
            <DistanceMeters>NAN</DistanceMeters>
          </Trackpoint>
          <Trackpoint>
            <Time>2021-07-18T07:08:42.000Z</Time>
            <Position>
              <LatitudeDegrees>42.7209352143108844757080078125</LatitudeDegrees>
              <LongitudeDegrees>-0.1977785490453243255615234375</LongitudeDegrees>
            </Position>
            <AltitudeMeters>2253.800048828125</AltitudeMeters>
            <DistanceMeters>NAN</DistanceMeters>
          </Trackpoint>
          <Trackpoint>
            <Time>2021-07-18T07:08:45.000Z</Time>
            <Position>
              <LatitudeDegrees>42.72091769613325595855712890625</LatitudeDegrees>
              <LongitudeDegrees>-0.19778533838689327239990234375</LongitudeDegrees>
            </Position>
            <AltitudeMeters>2253</AltitudeMeters>
            <DistanceMeters>NAN</DistanceMeters>
          </Trackpoint>
          <Trackpoint>
            <Time>2021-07-18T07:08:56.000Z</Time>
            <Position>
              <LatitudeDegrees>42.72087260149419307708740234375</LatitudeDegrees>
              <LongitudeDegrees>-0.19782003946602344512939453125</LongitudeDegrees>
            </Position>
            <AltitudeMeters>2251.199951171875</AltitudeMeters>
            <DistanceMeters>NAN</DistanceMeters>
          </Trackpoint>
          <Trackpoint>
            <Time>2021-07-18T07:09:00.000Z</Time>
            <Position>
              <LatitudeDegrees>42.720863632857799530029296875</LatitudeDegrees>
              <LongitudeDegrees>-0.19784082658588886260986328125</LongitudeDegrees>
            </Position>
            <AltitudeMeters>2251</AltitudeMeters>
            <DistanceMeters>NAN</DistanceMeters>
          </Trackpoint>
          <Trackpoint>
            <Time>2021-07-18T07:09:05.000Z</Time>
            <Position>
              <LatitudeDegrees>42.72086053155362606048583984375</LatitudeDegrees>
              <LongitudeDegrees>-0.19788105972111225128173828125</LongitudeDegrees>
            </Position>
            <AltitudeMeters>2250.800048828125</AltitudeMeters>
            <DistanceMeters>NAN</DistanceMeters>
          </Trackpoint>
          <Trackpoint>
            <Time>2021-07-18T07:09:06.000Z</Time>
            <Position>
              <LatitudeDegrees>42.7208621241152286529541015625</LatitudeDegrees>
              <LongitudeDegrees>-0.19789111800491809844970703125</LongitudeDegrees>
            </Position>
            <AltitudeMeters>2251</AltitudeMeters>
            <DistanceMeters>NAN</DistanceMeters>
          </Trackpoint>
          <Trackpoint>
            <Time>2021-07-18T07:09:14.000Z</Time>
            <Position>
              <LatitudeDegrees>42.7208688296377658843994140625</LatitudeDegrees>
              <LongitudeDegrees>-0.19792866893112659454345703125</LongitudeDegrees>
            </Position>
            <AltitudeMeters>2251.199951171875</AltitudeMeters>
            <DistanceMeters>NAN</DistanceMeters>
          </Trackpoint>
          <Trackpoint>
            <Time>2021-07-18T07:09:20.000Z</Time>
            <Position>
              <LatitudeDegrees>42.72085349075496196746826171875</LatitudeDegrees>
              <LongitudeDegrees>-0.19794342108070850372314453125</LongitudeDegrees>
            </Position>
            <AltitudeMeters>2250.60009765625</AltitudeMeters>
            <DistanceMeters>NAN</DistanceMeters>
          </Trackpoint>
          <Trackpoint>
            <Time>2021-07-18T07:09:27.000Z</Time>
            <Position>
              <LatitudeDegrees>42.7208366431295871734619140625</LatitudeDegrees>
              <LongitudeDegrees>-0.19793964922428131103515625</LongitudeDegrees>
            </Position>
            <AltitudeMeters>2250.199951171875</AltitudeMeters>
            <DistanceMeters>NAN</DistanceMeters>
          </Trackpoint>
          <Trackpoint>
            <Time>2021-07-18T07:09:38.000Z</Time>
            <Position>
              <LatitudeDegrees>42.7207836695015430450439453125</LatitudeDegrees>
              <LongitudeDegrees>-0.1979525573551654815673828125</LongitudeDegrees>
            </Position>
            <AltitudeMeters>2248.39990234375</AltitudeMeters>
            <DistanceMeters>NAN</DistanceMeters>
          </Trackpoint>
          <Trackpoint>
            <Time>2021-07-18T07:09:51.000Z</Time>
            <Position>
              <LatitudeDegrees>42.72075274027884006500244140625</LatitudeDegrees>
              <LongitudeDegrees>-0.1980072073638439178466796875</LongitudeDegrees>
            </Position>
            <AltitudeMeters>2247.60009765625</AltitudeMeters>
            <DistanceMeters>NAN</DistanceMeters>
          </Trackpoint>
          <Trackpoint>
            <Time>2021-07-18T07:09:54.000Z</Time>
            <Position>
              <LatitudeDegrees>42.7207420952618122100830078125</LatitudeDegrees>
              <LongitudeDegrees>-0.19802070222795009613037109375</LongitudeDegrees>
            </Position>
            <AltitudeMeters>2247.39990234375</AltitudeMeters>
            <DistanceMeters>NAN</DistanceMeters>
          </Trackpoint>
          <Trackpoint>
            <Time>2021-07-18T07:09:55.000Z</Time>
            <Position>
              <LatitudeDegrees>42.72073647938668727874755859375</LatitudeDegrees>
              <LongitudeDegrees>-0.19802388735115528106689453125</LongitudeDegrees>
            </Position>
            <AltitudeMeters>2247.199951171875</AltitudeMeters>
            <DistanceMeters>NAN</DistanceMeters>
          </Trackpoint>
          <Trackpoint>
            <Time>2021-07-18T07:09:57.000Z</Time>
            <Position>
              <LatitudeDegrees>42.7207286842167377471923828125</LatitudeDegrees>
              <LongitudeDegrees>-0.19802774302661418914794921875</LongitudeDegrees>
            </Position>
            <AltitudeMeters>2247</AltitudeMeters>
            <DistanceMeters>NAN</DistanceMeters>
          </Trackpoint>
          <Trackpoint>
            <Time>2021-07-18T07:10:01.000Z</Time>
            <Position>
              <LatitudeDegrees>42.72071150131523609161376953125</LatitudeDegrees>
              <LongitudeDegrees>-0.19803981296718120574951171875</LongitudeDegrees>
            </Position>
            <AltitudeMeters>2246.60009765625</AltitudeMeters>
            <DistanceMeters>NAN</DistanceMeters>
          </Trackpoint>
          <Trackpoint>
            <Time>2021-07-18T07:10:06.000Z</Time>
            <Position>
              <LatitudeDegrees>42.72069205529987812042236328125</LatitudeDegrees>
              <LongitudeDegrees>-0.19806747324764728546142578125</LongitudeDegrees>
            </Position>
            <AltitudeMeters>2246.199951171875</AltitudeMeters>
            <DistanceMeters>NAN</DistanceMeters>
          </Trackpoint>
          <Trackpoint>
            <Time>2021-07-18T07:10:10.000Z</Time>
            <Position>
              <LatitudeDegrees>42.72067487239837646484375</LatitudeDegrees>
              <LongitudeDegrees>-0.19808289594948291778564453125</LongitudeDegrees>
            </Position>
            <AltitudeMeters>2245.60009765625</AltitudeMeters>
            <DistanceMeters>NAN</DistanceMeters>
          </Trackpoint>
          <Trackpoint>
            <Time>2021-07-18T07:10:16.000Z</Time>
            <Position>
              <LatitudeDegrees>42.720655761659145355224609375</LatitudeDegrees>
              <LongitudeDegrees>-0.19810586236417293548583984375</LongitudeDegrees>
            </Position>
            <AltitudeMeters>2245.199951171875</AltitudeMeters>
            <DistanceMeters>NAN</DistanceMeters>
          </Trackpoint>
          <Trackpoint>
            <Time>2021-07-18T07:10:18.000Z</Time>
            <Position>
              <LatitudeDegrees>42.72064729593694210052490234375</LatitudeDegrees>
              <LongitudeDegrees>-0.198111645877361297607421875</LongitudeDegrees>
            </Position>
            <AltitudeMeters>2245</AltitudeMeters>
            <DistanceMeters>NAN</DistanceMeters>
          </Trackpoint>
          <Trackpoint>
            <Time>2021-07-18T07:10:25.000Z</Time>
            <Position>
              <LatitudeDegrees>42.72061921656131744384765625</LatitudeDegrees>
              <LongitudeDegrees>-0.19812581129372119903564453125</LongitudeDegrees>
            </Position>
            <AltitudeMeters>2244.199951171875</AltitudeMeters>
            <DistanceMeters>NAN</DistanceMeters>
          </Trackpoint>
          <Trackpoint>
            <Time>2021-07-18T07:10:28.000Z</Time>
            <Position>
              <LatitudeDegrees>42.72059298120439052581787109375</LatitudeDegrees>
              <LongitudeDegrees>-0.1981295831501483917236328125</LongitudeDegrees>
            </Position>
            <AltitudeMeters>2243.800048828125</AltitudeMeters>
            <DistanceMeters>NAN</DistanceMeters>
          </Trackpoint>
          <Trackpoint>
            <Time>2021-07-18T07:10:33.000Z</Time>
            <Position>
              <LatitudeDegrees>42.72053983993828296661376953125</LatitudeDegrees>
              <LongitudeDegrees>-0.19812916405498981475830078125</LongitudeDegrees>
            </Position>
            <AltitudeMeters>2243</AltitudeMeters>
            <DistanceMeters>NAN</DistanceMeters>
          </Trackpoint>
          <Trackpoint>
            <Time>2021-07-18T07:10:37.000Z</Time>
            <Position>
              <LatitudeDegrees>42.72050698287785053253173828125</LatitudeDegrees>
              <LongitudeDegrees>-0.19814928062260150909423828125</LongitudeDegrees>
            </Position>
            <AltitudeMeters>2242.60009765625</AltitudeMeters>
            <DistanceMeters>NAN</DistanceMeters>
          </Trackpoint>
          <Trackpoint>
            <Time>2021-07-18T07:10:42.000Z</Time>
            <Position>
              <LatitudeDegrees>42.720461972057819366455078125</LatitudeDegrees>
              <LongitudeDegrees>-0.19813771359622478485107421875</LongitudeDegrees>
            </Position>
            <AltitudeMeters>2242</AltitudeMeters>
            <DistanceMeters>NAN</DistanceMeters>
          </Trackpoint>
          <Trackpoint>
            <Time>2021-07-18T07:10:43.000Z</Time>
            <Position>
              <LatitudeDegrees>42.7204507403075695037841796875</LatitudeDegrees>
              <LongitudeDegrees>-0.198131762444972991943359375</LongitudeDegrees>
            </Position>
            <AltitudeMeters>2241.800048828125</AltitudeMeters>
            <DistanceMeters>NAN</DistanceMeters>
          </Trackpoint>
          <Trackpoint>
            <Time>2021-07-18T07:10:50.000Z</Time>
            <Position>
              <LatitudeDegrees>42.72037957794964313507080078125</LatitudeDegrees>
              <LongitudeDegrees>-0.198094882071018218994140625</LongitudeDegrees>
            </Position>
            <AltitudeMeters>2240.39990234375</AltitudeMeters>
            <DistanceMeters>NAN</DistanceMeters>
          </Trackpoint>
          <Trackpoint>
            <Time>2021-07-18T07:10:55.000Z</Time>
            <Position>
              <LatitudeDegrees>42.720336578786373138427734375</LatitudeDegrees>
              <LongitudeDegrees>-0.19808985292911529541015625</LongitudeDegrees>
            </Position>
            <AltitudeMeters>2239.800048828125</AltitudeMeters>
            <DistanceMeters>NAN</DistanceMeters>
          </Trackpoint>
          <Trackpoint>
            <Time>2021-07-18T07:10:59.000Z</Time>
            <Position>
              <LatitudeDegrees>42.72030782885849475860595703125</LatitudeDegrees>
              <LongitudeDegrees>-0.19809597171843051910400390625</LongitudeDegrees>
            </Position>
            <AltitudeMeters>2239.60009765625</AltitudeMeters>
            <DistanceMeters>NAN</DistanceMeters>
          </Trackpoint>
          <Trackpoint>
            <Time>2021-07-18T07:11:06.000Z</Time>
            <Position>
              <LatitudeDegrees>42.72024714387953281402587890625</LatitudeDegrees>
              <LongitudeDegrees>-0.19807107746601104736328125</LongitudeDegrees>
            </Position>
            <AltitudeMeters>2239</AltitudeMeters>
            <DistanceMeters>NAN</DistanceMeters>
          </Trackpoint>
          <Trackpoint>
            <Time>2021-07-18T07:11:07.000Z</Time>
            <Position>
              <LatitudeDegrees>42.720233984291553497314453125</LatitudeDegrees>
              <LongitudeDegrees>-0.19806814379990100860595703125</LongitudeDegrees>
            </Position>
            <AltitudeMeters>2239</AltitudeMeters>
            <DistanceMeters>NAN</DistanceMeters>
          </Trackpoint>
          <Trackpoint>
            <Time>2021-07-18T07:11:13.000Z</Time>
            <Position>
              <LatitudeDegrees>42.7201665937900543212890625</LatitudeDegrees>
              <LongitudeDegrees>-0.198055990040302276611328125</LongitudeDegrees>
            </Position>
            <AltitudeMeters>2238.60009765625</AltitudeMeters>
            <DistanceMeters>NAN</DistanceMeters>
          </Trackpoint>
          <Trackpoint>
            <Time>2021-07-18T07:11:20.000Z</Time>
            <Position>
              <LatitudeDegrees>42.7201080881059169769287109375</LatitudeDegrees>
              <LongitudeDegrees>-0.1980678923428058624267578125</LongitudeDegrees>
            </Position>
            <AltitudeMeters>2238.60009765625</AltitudeMeters>
            <DistanceMeters>NAN</DistanceMeters>
          </Trackpoint>
          <Trackpoint>
            <Time>2021-07-18T07:11:21.000Z</Time>
            <Position>
              <LatitudeDegrees>42.720097862184047698974609375</LatitudeDegrees>
              <LongitudeDegrees>-0.1980722509324550628662109375</LongitudeDegrees>
            </Position>
            <AltitudeMeters>2238.39990234375</AltitudeMeters>
            <DistanceMeters>NAN</DistanceMeters>
          </Trackpoint>
          <Trackpoint>
            <Time>2021-07-18T07:11:25.000Z</Time>
            <Position>
              <LatitudeDegrees>42.7200769074261188507080078125</LatitudeDegrees>
              <LongitudeDegrees>-0.1980876736342906951904296875</LongitudeDegrees>
            </Position>
            <AltitudeMeters>2238.39990234375</AltitudeMeters>
            <DistanceMeters>NAN</DistanceMeters>
          </Trackpoint>
          <Trackpoint>
            <Time>2021-07-18T07:11:27.000Z</Time>
            <Position>
              <LatitudeDegrees>42.72005461156368255615234375</LatitudeDegrees>
              <LongitudeDegrees>-0.198092870414257049560546875</LongitudeDegrees>
            </Position>
            <AltitudeMeters>2238.39990234375</AltitudeMeters>
            <DistanceMeters>NAN</DistanceMeters>
          </Trackpoint>
          <Trackpoint>
            <Time>2021-07-18T07:11:33.000Z</Time>
            <Position>
              <LatitudeDegrees>42.72000088356435298919677734375</LatitudeDegrees>
              <LongitudeDegrees>-0.19810728728771209716796875</LongitudeDegrees>
            </Position>
            <AltitudeMeters>2239</AltitudeMeters>
            <DistanceMeters>NAN</DistanceMeters>
          </Trackpoint>
          <Trackpoint>
            <Time>2021-07-18T07:11:34.000Z</Time>
            <Position>
              <LatitudeDegrees>42.719991244375705718994140625</LatitudeDegrees>
              <LongitudeDegrees>-0.19810737110674381256103515625</LongitudeDegrees>
            </Position>
            <AltitudeMeters>2239</AltitudeMeters>
            <DistanceMeters>NAN</DistanceMeters>
          </Trackpoint>
          <Trackpoint>
            <Time>2021-07-18T07:11:43.000Z</Time>
            <Position>
              <LatitudeDegrees>42.71992041729390621185302734375</LatitudeDegrees>
              <LongitudeDegrees>-0.1981376297771930694580078125</LongitudeDegrees>
            </Position>
            <AltitudeMeters>2239.60009765625</AltitudeMeters>
            <DistanceMeters>NAN</DistanceMeters>
          </Trackpoint>
          <Trackpoint>
            <Time>2021-07-18T07:11:44.000Z</Time>
            <Position>
              <LatitudeDegrees>42.719912789762020111083984375</LatitudeDegrees>
              <LongitudeDegrees>-0.19814274273812770843505859375</LongitudeDegrees>
            </Position>
            <AltitudeMeters>2239.60009765625</AltitudeMeters>
            <DistanceMeters>NAN</DistanceMeters>
          </Trackpoint>
          <Trackpoint>
            <Time>2021-07-18T07:11:48.000Z</Time>
            <Position>
              <LatitudeDegrees>42.719894684851169586181640625</LatitudeDegrees>
              <LongitudeDegrees>-0.1981610991060733795166015625</LongitudeDegrees>
            </Position>
            <AltitudeMeters>2239.800048828125</AltitudeMeters>
            <DistanceMeters>NAN</DistanceMeters>
          </Trackpoint>
          <Trackpoint>
            <Time>2021-07-18T07:11:51.000Z</Time>
            <Position>
              <LatitudeDegrees>42.7199025638401508331298828125</LatitudeDegrees>
              <LongitudeDegrees>-0.19815623760223388671875</LongitudeDegrees>
            </Position>
            <AltitudeMeters>2239.800048828125</AltitudeMeters>
            <DistanceMeters>NAN</DistanceMeters>
          </Trackpoint>
          <Trackpoint>
            <Time>2021-07-18T07:11:55.000Z</Time>
            <Position>
              <LatitudeDegrees>42.71990482695400714874267578125</LatitudeDegrees>
              <LongitudeDegrees>-0.1981768570840358734130859375</LongitudeDegrees>
            </Position>
            <AltitudeMeters>2239.800048828125</AltitudeMeters>
            <DistanceMeters>NAN</DistanceMeters>
          </Trackpoint>
          <Trackpoint>
            <Time>2021-07-18T08:53:27.000Z</Time>
            <Position>
              <LatitudeDegrees>42.72040841169655323028564453125</LatitudeDegrees>
              <LongitudeDegrees>-0.1989758200943470001220703125</LongitudeDegrees>
            </Position>
            <AltitudeMeters>2246.60009765625</AltitudeMeters>
            <DistanceMeters>NAN</DistanceMeters>
          </Trackpoint>
          <Trackpoint>
            <Time>2021-07-18T08:53:30.000Z</Time>
            <Position>
              <LatitudeDegrees>42.7203823439776897430419921875</LatitudeDegrees>
              <LongitudeDegrees>-0.1989624090492725372314453125</LongitudeDegrees>
            </Position>
            <AltitudeMeters>2246.199951171875</AltitudeMeters>
            <DistanceMeters>NAN</DistanceMeters>
          </Trackpoint>
          <Trackpoint>
            <Time>2021-07-18T08:53:31.000Z</Time>
            <Position>
              <LatitudeDegrees>42.7204071544110774993896484375</LatitudeDegrees>
              <LongitudeDegrees>-0.198947824537754058837890625</LongitudeDegrees>
            </Position>
            <AltitudeMeters>2246.39990234375</AltitudeMeters>
            <DistanceMeters>NAN</DistanceMeters>
          </Trackpoint>
          <Trackpoint>
            <Time>2021-07-18T08:53:36.000Z</Time>
            <Position>
              <LatitudeDegrees>42.72040598094463348388671875</LatitudeDegrees>
              <LongitudeDegrees>-0.1989855431020259857177734375</LongitudeDegrees>
            </Position>
            <AltitudeMeters>2246.60009765625</AltitudeMeters>
            <DistanceMeters>NAN</DistanceMeters>
          </Trackpoint>
          <Trackpoint>
            <Time>2021-07-18T08:53:41.000Z</Time>
            <Position>
              <LatitudeDegrees>42.720448561012744903564453125</LatitudeDegrees>
              <LongitudeDegrees>-0.19899778068065643310546875</LongitudeDegrees>
            </Position>
            <AltitudeMeters>2247.199951171875</AltitudeMeters>
            <DistanceMeters>NAN</DistanceMeters>
          </Trackpoint>
          <Trackpoint>
            <Time>2021-07-18T08:53:44.000Z</Time>
            <Position>
              <LatitudeDegrees>42.7204589545726776123046875</LatitudeDegrees>
              <LongitudeDegrees>-0.19901915453374385833740234375</LongitudeDegrees>
            </Position>
            <AltitudeMeters>2247.39990234375</AltitudeMeters>
            <DistanceMeters>NAN</DistanceMeters>
          </Trackpoint>
          <Trackpoint>
            <Time>2021-07-18T08:53:49.000Z</Time>
            <Position>
              <LatitudeDegrees>42.72044110111892223358154296875</LatitudeDegrees>
              <LongitudeDegrees>-0.1990747265517711639404296875</LongitudeDegrees>
            </Position>
            <AltitudeMeters>2247.39990234375</AltitudeMeters>
            <DistanceMeters>NAN</DistanceMeters>
          </Trackpoint>
          <Trackpoint>
            <Time>2021-07-18T08:53:53.000Z</Time>
            <Position>
              <LatitudeDegrees>42.7204017899930477142333984375</LatitudeDegrees>
              <LongitudeDegrees>-0.19913465715944766998291015625</LongitudeDegrees>
            </Position>
            <AltitudeMeters>2247</AltitudeMeters>
            <DistanceMeters>NAN</DistanceMeters>
          </Trackpoint>
          <Trackpoint>
            <Time>2021-07-18T08:54:00.000Z</Time>
            <Position>
              <LatitudeDegrees>42.72040329873561859130859375</LatitudeDegrees>
              <LongitudeDegrees>-0.19920372404158115386962890625</LongitudeDegrees>
            </Position>
            <AltitudeMeters>2247.39990234375</AltitudeMeters>
            <DistanceMeters>NAN</DistanceMeters>
          </Trackpoint>
          <Trackpoint>
            <Time>2021-07-18T08:54:02.000Z</Time>
            <Position>
              <LatitudeDegrees>42.720411680638790130615234375</LatitudeDegrees>
              <LongitudeDegrees>-0.19921428523957729339599609375</LongitudeDegrees>
            </Position>
            <AltitudeMeters>2247.60009765625</AltitudeMeters>
            <DistanceMeters>NAN</DistanceMeters>
          </Trackpoint>
          <Trackpoint>
            <Time>2021-07-18T08:54:04.000Z</Time>
            <Position>
              <LatitudeDegrees>42.72042031399905681610107421875</LatitudeDegrees>
              <LongitudeDegrees>-0.1992135308682918548583984375</LongitudeDegrees>
            </Position>
            <AltitudeMeters>2247.60009765625</AltitudeMeters>
            <DistanceMeters>NAN</DistanceMeters>
          </Trackpoint>
          <Trackpoint>
            <Time>2021-07-18T08:54:07.000Z</Time>
            <Position>
              <LatitudeDegrees>42.7204081602394580841064453125</LatitudeDegrees>
              <LongitudeDegrees>-0.1992426998913288116455078125</LongitudeDegrees>
            </Position>
            <AltitudeMeters>2247.60009765625</AltitudeMeters>
            <DistanceMeters>NAN</DistanceMeters>
          </Trackpoint>
          <Trackpoint>
            <Time>2021-07-18T08:54:09.000Z</Time>
            <Position>
              <LatitudeDegrees>42.72038997150957584381103515625</LatitudeDegrees>
              <LongitudeDegrees>-0.19926709122955799102783203125</LongitudeDegrees>
            </Position>
            <AltitudeMeters>2247.39990234375</AltitudeMeters>
            <DistanceMeters>NAN</DistanceMeters>
          </Trackpoint>
          <Trackpoint>
            <Time>2021-07-18T08:54:10.000Z</Time>
            <Position>
              <LatitudeDegrees>42.72038209252059459686279296875</LatitudeDegrees>
              <LongitudeDegrees>-0.19927681423723697662353515625</LongitudeDegrees>
            </Position>
            <AltitudeMeters>2247.39990234375</AltitudeMeters>
            <DistanceMeters>NAN</DistanceMeters>
          </Trackpoint>
          <Trackpoint>
            <Time>2021-07-18T08:54:17.000Z</Time>
            <Position>
              <LatitudeDegrees>42.72039785049855709075927734375</LatitudeDegrees>
              <LongitudeDegrees>-0.199337415397167205810546875</LongitudeDegrees>
            </Position>
            <AltitudeMeters>2247.60009765625</AltitudeMeters>
            <DistanceMeters>NAN</DistanceMeters>
          </Trackpoint>
          <Trackpoint>
            <Time>2021-07-18T08:54:27.000Z</Time>
            <Position>
              <LatitudeDegrees>42.7203853614628314971923828125</LatitudeDegrees>
              <LongitudeDegrees>-0.1994559355080127716064453125</LongitudeDegrees>
            </Position>
            <AltitudeMeters>2247.199951171875</AltitudeMeters>
            <DistanceMeters>NAN</DistanceMeters>
          </Trackpoint>
          <Trackpoint>
            <Time>2021-07-18T08:54:34.000Z</Time>
            <Position>
              <LatitudeDegrees>42.7203598804771900177001953125</LatitudeDegrees>
              <LongitudeDegrees>-0.19952760078012943267822265625</LongitudeDegrees>
            </Position>
            <AltitudeMeters>2246.60009765625</AltitudeMeters>
            <DistanceMeters>NAN</DistanceMeters>
          </Trackpoint>
          <Trackpoint>
            <Time>2021-07-18T08:54:38.000Z</Time>
            <Position>
              <LatitudeDegrees>42.72036373615264892578125</LatitudeDegrees>
              <LongitudeDegrees>-0.19956640899181365966796875</LongitudeDegrees>
            </Position>
            <AltitudeMeters>2246.60009765625</AltitudeMeters>
            <DistanceMeters>NAN</DistanceMeters>
          </Trackpoint>
          <Trackpoint>
            <Time>2021-07-18T08:54:41.000Z</Time>
            <Position>
              <LatitudeDegrees>42.72033733315765857696533203125</LatitudeDegrees>
              <LongitudeDegrees>-0.19960890524089336395263671875</LongitudeDegrees>
            </Position>
            <AltitudeMeters>2246</AltitudeMeters>
            <DistanceMeters>NAN</DistanceMeters>
          </Trackpoint>
          <Trackpoint>
            <Time>2021-07-18T08:54:43.000Z</Time>
            <Position>
              <LatitudeDegrees>42.7203343994915485382080078125</LatitudeDegrees>
              <LongitudeDegrees>-0.19962818361818790435791015625</LongitudeDegrees>
            </Position>
            <AltitudeMeters>2246</AltitudeMeters>
            <DistanceMeters>NAN</DistanceMeters>
          </Trackpoint>
          <Trackpoint>
            <Time>2021-07-18T08:54:53.000Z</Time>
            <Position>
              <LatitudeDegrees>42.720299027860164642333984375</LatitudeDegrees>
              <LongitudeDegrees>-0.1997387409210205078125</LongitudeDegrees>
            </Position>
            <AltitudeMeters>2245</AltitudeMeters>
            <DistanceMeters>NAN</DistanceMeters>
          </Trackpoint>
          <Trackpoint>
            <Time>2021-07-18T08:55:03.000Z</Time>
            <Position>
              <LatitudeDegrees>42.720281593501567840576171875</LatitudeDegrees>
              <LongitudeDegrees>-0.1998589374125003814697265625</LongitudeDegrees>
            </Position>
            <AltitudeMeters>2244.199951171875</AltitudeMeters>
            <DistanceMeters>NAN</DistanceMeters>
          </Trackpoint>
          <Trackpoint>
            <Time>2021-07-18T08:55:12.000Z</Time>
            <Position>
              <LatitudeDegrees>42.7203221619129180908203125</LatitudeDegrees>
              <LongitudeDegrees>-0.19992993213236331939697265625</LongitudeDegrees>
            </Position>
            <AltitudeMeters>2244.60009765625</AltitudeMeters>
            <DistanceMeters>NAN</DistanceMeters>
          </Trackpoint>
          <Trackpoint>
            <Time>2021-07-18T08:55:21.000Z</Time>
            <Position>
              <LatitudeDegrees>42.72029869258403778076171875</LatitudeDegrees>
              <LongitudeDegrees>-0.2000342868268489837646484375</LongitudeDegrees>
            </Position>
            <AltitudeMeters>2243.39990234375</AltitudeMeters>
            <DistanceMeters>NAN</DistanceMeters>
          </Trackpoint>
          <Trackpoint>
            <Time>2021-07-18T08:55:27.000Z</Time>
            <Position>
              <LatitudeDegrees>42.72030464373528957366943359375</LatitudeDegrees>
              <LongitudeDegrees>-0.20007628016173839569091796875</LongitudeDegrees>
            </Position>
            <AltitudeMeters>2243.199951171875</AltitudeMeters>
            <DistanceMeters>NAN</DistanceMeters>
          </Trackpoint>
          <Trackpoint>
            <Time>2021-07-18T08:55:30.000Z</Time>
            <Position>
              <LatitudeDegrees>42.720282264053821563720703125</LatitudeDegrees>
              <LongitudeDegrees>-0.20010226406157016754150390625</LongitudeDegrees>
            </Position>
            <AltitudeMeters>2242.60009765625</AltitudeMeters>
            <DistanceMeters>NAN</DistanceMeters>
          </Trackpoint>
          <Trackpoint>
            <Time>2021-07-18T08:55:32.000Z</Time>
            <Position>
              <LatitudeDegrees>42.72027329541742801666259765625</LatitudeDegrees>
              <LongitudeDegrees>-0.20012221299111843109130859375</LongitudeDegrees>
            </Position>
            <AltitudeMeters>2242.39990234375</AltitudeMeters>
            <DistanceMeters>NAN</DistanceMeters>
          </Trackpoint>
          <Trackpoint>
            <Time>2021-07-18T08:55:34.000Z</Time>
            <Position>
              <LatitudeDegrees>42.7202703617513179779052734375</LatitudeDegrees>
              <LongitudeDegrees>-0.20013612695038318634033203125</LongitudeDegrees>
            </Position>
            <AltitudeMeters>2242.199951171875</AltitudeMeters>
            <DistanceMeters>NAN</DistanceMeters>
          </Trackpoint>
          <Trackpoint>
            <Time>2021-07-18T08:55:40.000Z</Time>
            <Position>
              <LatitudeDegrees>42.72026591934263706207275390625</LatitudeDegrees>
              <LongitudeDegrees>-0.20017535425722599029541015625</LongitudeDegrees>
            </Position>
            <AltitudeMeters>2241.800048828125</AltitudeMeters>
            <DistanceMeters>NAN</DistanceMeters>
          </Trackpoint>
          <Trackpoint>
            <Time>2021-07-18T08:55:47.000Z</Time>
            <Position>
              <LatitudeDegrees>42.7202257700264453887939453125</LatitudeDegrees>
              <LongitudeDegrees>-0.20023033954203128814697265625</LongitudeDegrees>
            </Position>
            <AltitudeMeters>2240.800048828125</AltitudeMeters>
            <DistanceMeters>NAN</DistanceMeters>
          </Trackpoint>
          <Trackpoint>
            <Time>2021-07-18T08:55:53.000Z</Time>
            <Position>
              <LatitudeDegrees>42.7202363312244415283203125</LatitudeDegrees>
              <LongitudeDegrees>-0.20024023018777370452880859375</LongitudeDegrees>
            </Position>
            <AltitudeMeters>2241</AltitudeMeters>
            <DistanceMeters>NAN</DistanceMeters>
          </Trackpoint>
          <Trackpoint>
            <Time>2021-07-18T08:56:02.000Z</Time>
            <Position>
              <LatitudeDegrees>42.72020054049789905548095703125</LatitudeDegrees>
              <LongitudeDegrees>-0.2002810500562191009521484375</LongitudeDegrees>
            </Position>
            <AltitudeMeters>2240.199951171875</AltitudeMeters>
            <DistanceMeters>NAN</DistanceMeters>
          </Trackpoint>
          <Trackpoint>
            <Time>2021-07-18T08:56:08.000Z</Time>
            <Position>
              <LatitudeDegrees>42.72020104341208934783935546875</LatitudeDegrees>
              <LongitudeDegrees>-0.2002803795039653778076171875</LongitudeDegrees>
            </Position>
            <AltitudeMeters>2240.199951171875</AltitudeMeters>
            <DistanceMeters>NAN</DistanceMeters>
          </Trackpoint>
          <Trackpoint>
            <Time>2021-07-18T08:56:10.000Z</Time>
            <Position>
              <LatitudeDegrees>42.72019852884113788604736328125</LatitudeDegrees>
              <LongitudeDegrees>-0.20029194653034210205078125</LongitudeDegrees>
            </Position>
            <AltitudeMeters>2240.199951171875</AltitudeMeters>
            <DistanceMeters>NAN</DistanceMeters>
          </Trackpoint>
          <Trackpoint>
            <Time>2021-07-18T08:56:16.000Z</Time>
            <Position>
              <LatitudeDegrees>42.72019048221409320831298828125</LatitudeDegrees>
              <LongitudeDegrees>-0.20031969062983989715576171875</LongitudeDegrees>
            </Position>
            <AltitudeMeters>2239.800048828125</AltitudeMeters>
            <DistanceMeters>NAN</DistanceMeters>
          </Trackpoint>
          <Trackpoint>
            <Time>2021-07-18T08:56:24.000Z</Time>
            <Position>
              <LatitudeDegrees>42.720154188573360443115234375</LatitudeDegrees>
              <LongitudeDegrees>-0.20036277361214160919189453125</LongitudeDegrees>
            </Position>
            <AltitudeMeters>2239</AltitudeMeters>
            <DistanceMeters>NAN</DistanceMeters>
          </Trackpoint>
          <Trackpoint>
            <Time>2021-07-18T08:56:30.000Z</Time>
            <Position>
              <LatitudeDegrees>42.72012577392160892486572265625</LatitudeDegrees>
              <LongitudeDegrees>-0.2004128135740756988525390625</LongitudeDegrees>
            </Position>
            <AltitudeMeters>2238.39990234375</AltitudeMeters>
            <DistanceMeters>NAN</DistanceMeters>
          </Trackpoint>
          <Trackpoint>
            <Time>2021-07-18T08:56:34.000Z</Time>
            <Position>
              <LatitudeDegrees>42.72011236287653446197509765625</LatitudeDegrees>
              <LongitudeDegrees>-0.20043049938976764678955078125</LongitudeDegrees>
            </Position>
            <AltitudeMeters>2238.199951171875</AltitudeMeters>
            <DistanceMeters>NAN</DistanceMeters>
          </Trackpoint>
          <Trackpoint>
            <Time>2021-07-18T08:56:44.000Z</Time>
            <Position>
              <LatitudeDegrees>42.72009090520441532135009765625</LatitudeDegrees>
              <LongitudeDegrees>-0.2005120553076267242431640625</LongitudeDegrees>
            </Position>
            <AltitudeMeters>2237.800048828125</AltitudeMeters>
            <DistanceMeters>NAN</DistanceMeters>
          </Trackpoint>
          <Trackpoint>
            <Time>2021-07-18T08:56:47.000Z</Time>
            <Position>
              <LatitudeDegrees>42.72008403204381465911865234375</LatitudeDegrees>
              <LongitudeDegrees>-0.2005313336849212646484375</LongitudeDegrees>
            </Position>
            <AltitudeMeters>2237.800048828125</AltitudeMeters>
            <DistanceMeters>NAN</DistanceMeters>
          </Trackpoint>
          <Trackpoint>
            <Time>2021-07-18T08:56:54.000Z</Time>
            <Position>
              <LatitudeDegrees>42.7200651727616786956787109375</LatitudeDegrees>
              <LongitudeDegrees>-0.20059964619576930999755859375</LongitudeDegrees>
            </Position>
            <AltitudeMeters>2237.60009765625</AltitudeMeters>
            <DistanceMeters>NAN</DistanceMeters>
          </Trackpoint>
          <Trackpoint>
            <Time>2021-07-18T08:57:03.000Z</Time>
            <Position>
              <LatitudeDegrees>42.72002116777002811431884765625</LatitudeDegrees>
              <LongitudeDegrees>-0.20069167949259281158447265625</LongitudeDegrees>
            </Position>
            <AltitudeMeters>2237.199951171875</AltitudeMeters>
            <DistanceMeters>NAN</DistanceMeters>
          </Trackpoint>
          <Trackpoint>
            <Time>2021-07-18T08:57:05.000Z</Time>
            <Position>
              <LatitudeDegrees>42.72001110948622226715087890625</LatitudeDegrees>
              <LongitudeDegrees>-0.20071079023182392120361328125</LongitudeDegrees>
            </Position>
            <AltitudeMeters>2237.199951171875</AltitudeMeters>
            <DistanceMeters>NAN</DistanceMeters>
          </Trackpoint>
          <Trackpoint>
            <Time>2021-07-18T08:57:08.000Z</Time>
            <Position>
              <LatitudeDegrees>42.71999560296535491943359375</LatitudeDegrees>
              <LongitudeDegrees>-0.20073040388524532318115234375</LongitudeDegrees>
            </Position>
            <AltitudeMeters>2237</AltitudeMeters>
            <DistanceMeters>NAN</DistanceMeters>
          </Trackpoint>
          <Trackpoint>
            <Time>2021-07-18T08:57:11.000Z</Time>
            <Position>
              <LatitudeDegrees>42.72001496516168117523193359375</LatitudeDegrees>
              <LongitudeDegrees>-0.20073191262781620025634765625</LongitudeDegrees>
            </Position>
            <AltitudeMeters>2237.199951171875</AltitudeMeters>
            <DistanceMeters>NAN</DistanceMeters>
          </Trackpoint>
          <Trackpoint>
            <Time>2021-07-18T08:57:20.000Z</Time>
            <Position>
              <LatitudeDegrees>42.72007531486451625823974609375</LatitudeDegrees>
              <LongitudeDegrees>-0.2007433958351612091064453125</LongitudeDegrees>
            </Position>
            <AltitudeMeters>2238.39990234375</AltitudeMeters>
            <DistanceMeters>NAN</DistanceMeters>
          </Trackpoint>
          <Trackpoint>
            <Time>2021-07-18T08:57:26.000Z</Time>
            <Position>
              <LatitudeDegrees>42.72010683082044124603271484375</LatitudeDegrees>
              <LongitudeDegrees>-0.20072436891496181488037109375</LongitudeDegrees>
            </Position>
            <AltitudeMeters>2239</AltitudeMeters>
            <DistanceMeters>NAN</DistanceMeters>
          </Trackpoint>
          <Trackpoint>
            <Time>2021-07-18T08:57:34.000Z</Time>
            <Position>
              <LatitudeDegrees>42.72013834677636623382568359375</LatitudeDegrees>
              <LongitudeDegrees>-0.20070425234735012054443359375</LongitudeDegrees>
            </Position>
            <AltitudeMeters>2239.60009765625</AltitudeMeters>
            <DistanceMeters>NAN</DistanceMeters>
          </Trackpoint>
          <Trackpoint>
            <Time>2021-07-18T08:57:41.000Z</Time>
            <Position>
              <LatitudeDegrees>42.7201022207736968994140625</LatitudeDegrees>
              <LongitudeDegrees>-0.20068212412297725677490234375</LongitudeDegrees>
            </Position>
            <AltitudeMeters>2238.60009765625</AltitudeMeters>
            <DistanceMeters>NAN</DistanceMeters>
          </Trackpoint>
          <Trackpoint>
            <Time>2021-07-18T08:57:45.000Z</Time>
            <Position>
              <LatitudeDegrees>42.72008436731994152069091796875</LatitudeDegrees>
              <LongitudeDegrees>-0.20069536752998828887939453125</LongitudeDegrees>
            </Position>
            <AltitudeMeters>2238.39990234375</AltitudeMeters>
            <DistanceMeters>NAN</DistanceMeters>
          </Trackpoint>
          <Trackpoint>
            <Time>2021-07-18T08:58:00.000Z</Time>
            <Position>
              <LatitudeDegrees>42.72008269093930721282958984375</LatitudeDegrees>
              <LongitudeDegrees>-0.20068866200745105743408203125</LongitudeDegrees>
            </Position>
            <AltitudeMeters>2238.199951171875</AltitudeMeters>
            <DistanceMeters>NAN</DistanceMeters>
          </Trackpoint>
          <Trackpoint>
            <Time>2021-07-18T08:58:08.000Z</Time>
            <Position>
              <LatitudeDegrees>42.720077075064182281494140625</LatitudeDegrees>
              <LongitudeDegrees>-0.20068480633199214935302734375</LongitudeDegrees>
            </Position>
            <AltitudeMeters>2238.199951171875</AltitudeMeters>
            <DistanceMeters>NAN</DistanceMeters>
          </Trackpoint>
          <Trackpoint>
            <Time>2021-07-18T08:58:37.000Z</Time>
            <Position>
              <LatitudeDegrees>42.7200688607990741729736328125</LatitudeDegrees>
              <LongitudeDegrees>-0.20067474804818630218505859375</LongitudeDegrees>
            </Position>
            <AltitudeMeters>2237.800048828125</AltitudeMeters>
            <DistanceMeters>NAN</DistanceMeters>
          </Trackpoint>
          <Trackpoint>
            <Time>2021-07-18T08:58:49.000Z</Time>
            <Position>
              <LatitudeDegrees>42.72007347084581851959228515625</LatitudeDegrees>
              <LongitudeDegrees>-0.20066988654434680938720703125</LongitudeDegrees>
            </Position>
            <AltitudeMeters>2238</AltitudeMeters>
            <DistanceMeters>NAN</DistanceMeters>
          </Trackpoint>
          <Trackpoint>
            <Time>2021-07-18T08:58:51.000Z</Time>
            <Position>
              <LatitudeDegrees>42.72007598541676998138427734375</LatitudeDegrees>
              <LongitudeDegrees>-0.200665779411792755126953125</LongitudeDegrees>
            </Position>
            <AltitudeMeters>2238</AltitudeMeters>
            <DistanceMeters>NAN</DistanceMeters>
          </Trackpoint>
          <Trackpoint>
            <Time>2021-07-18T08:58:53.000Z</Time>
            <Position>
              <LatitudeDegrees>42.72008009254932403564453125</LatitudeDegrees>
              <LongitudeDegrees>-0.20066485740244388580322265625</LongitudeDegrees>
            </Position>
            <AltitudeMeters>2238.199951171875</AltitudeMeters>
            <DistanceMeters>NAN</DistanceMeters>
          </Trackpoint>
          <Trackpoint>
            <Time>2021-07-18T08:58:56.000Z</Time>
            <Position>
              <LatitudeDegrees>42.72008185274899005889892578125</LatitudeDegrees>
              <LongitudeDegrees>-0.20066477358341217041015625</LongitudeDegrees>
            </Position>
            <AltitudeMeters>2238.199951171875</AltitudeMeters>
            <DistanceMeters>NAN</DistanceMeters>
          </Trackpoint>
          <Trackpoint>
            <Time>2021-07-18T08:59:10.000Z</Time>
            <Position>
              <LatitudeDegrees>42.7200779132544994354248046875</LatitudeDegrees>
              <LongitudeDegrees>-0.200669467449188232421875</LongitudeDegrees>
            </Position>
            <AltitudeMeters>2238</AltitudeMeters>
            <DistanceMeters>NAN</DistanceMeters>
          </Trackpoint>
          <Trackpoint>
            <Time>2021-07-18T08:59:12.000Z</Time>
            <Position>
              <LatitudeDegrees>42.72007212974131107330322265625</LatitudeDegrees>
              <LongitudeDegrees>-0.20067282021045684814453125</LongitudeDegrees>
            </Position>
            <AltitudeMeters>2238</AltitudeMeters>
            <DistanceMeters>NAN</DistanceMeters>
          </Trackpoint>
          <Trackpoint>
            <Time>2021-07-18T08:59:14.000Z</Time>
            <Position>
              <LatitudeDegrees>42.72006927989423274993896484375</LatitudeDegrees>
              <LongitudeDegrees>-0.200682543218135833740234375</LongitudeDegrees>
            </Position>
            <AltitudeMeters>2238</AltitudeMeters>
            <DistanceMeters>NAN</DistanceMeters>
          </Trackpoint>
          <Trackpoint>
            <Time>2021-07-18T08:59:16.000Z</Time>
            <Position>
              <LatitudeDegrees>42.72006106562912464141845703125</LatitudeDegrees>
              <LongitudeDegrees>-0.20069570280611515045166015625</LongitudeDegrees>
            </Position>
            <AltitudeMeters>2237.800048828125</AltitudeMeters>
            <DistanceMeters>NAN</DistanceMeters>
          </Trackpoint>
          <Trackpoint>
            <Time>2021-07-18T08:59:31.000Z</Time>
            <Position>
              <LatitudeDegrees>42.72003038786351680755615234375</LatitudeDegrees>
              <LongitudeDegrees>-0.2007444016635417938232421875</LongitudeDegrees>
            </Position>
            <AltitudeMeters>2237.60009765625</AltitudeMeters>
            <DistanceMeters>NAN</DistanceMeters>
          </Trackpoint>
          <Trackpoint>
            <Time>2021-07-18T08:59:34.000Z</Time>
            <Position>
              <LatitudeDegrees>42.7200257778167724609375</LatitudeDegrees>
              <LongitudeDegrees>-0.20074984990060329437255859375</LongitudeDegrees>
            </Position>
            <AltitudeMeters>2237.39990234375</AltitudeMeters>
            <DistanceMeters>NAN</DistanceMeters>
          </Trackpoint>
          <Trackpoint>
            <Time>2021-07-18T08:59:37.000Z</Time>
            <Position>
              <LatitudeDegrees>42.72001303732395172119140625</LatitudeDegrees>
              <LongitudeDegrees>-0.20075471140444278717041015625</LongitudeDegrees>
            </Position>
            <AltitudeMeters>2237.39990234375</AltitudeMeters>
            <DistanceMeters>NAN</DistanceMeters>
          </Trackpoint>
          <Trackpoint>
            <Time>2021-07-18T08:59:49.000Z</Time>
            <Position>
              <LatitudeDegrees>42.71995025686919689178466796875</LatitudeDegrees>
              <LongitudeDegrees>-0.2008102834224700927734375</LongitudeDegrees>
            </Position>
            <AltitudeMeters>2236.800048828125</AltitudeMeters>
            <DistanceMeters>NAN</DistanceMeters>
          </Trackpoint>
          <Trackpoint>
            <Time>2021-07-18T08:59:50.000Z</Time>
            <Position>
              <LatitudeDegrees>42.719938941299915313720703125</LatitudeDegrees>
              <LongitudeDegrees>-0.20083417184650897979736328125</LongitudeDegrees>
            </Position>
            <AltitudeMeters>2236.800048828125</AltitudeMeters>
            <DistanceMeters>NAN</DistanceMeters>
          </Trackpoint>
          <Trackpoint>
            <Time>2021-07-18T08:59:54.000Z</Time>
            <Position>
              <LatitudeDegrees>42.7199117839336395263671875</LatitudeDegrees>
              <LongitudeDegrees>-0.200901143252849578857421875</LongitudeDegrees>
            </Position>
            <AltitudeMeters>2237</AltitudeMeters>
            <DistanceMeters>NAN</DistanceMeters>
          </Trackpoint>
          <Trackpoint>
            <Time>2021-07-18T08:59:57.000Z</Time>
            <Position>
              <LatitudeDegrees>42.71991035901010036468505859375</LatitudeDegrees>
              <LongitudeDegrees>-0.2009408734738826751708984375</LongitudeDegrees>
            </Position>
            <AltitudeMeters>2237.39990234375</AltitudeMeters>
            <DistanceMeters>NAN</DistanceMeters>
          </Trackpoint>
          <Trackpoint>
            <Time>2021-07-18T09:00:04.000Z</Time>
            <Position>
              <LatitudeDegrees>42.71991513669490814208984375</LatitudeDegrees>
              <LongitudeDegrees>-0.20101203583180904388427734375</LongitudeDegrees>
            </Position>
            <AltitudeMeters>2238.199951171875</AltitudeMeters>
            <DistanceMeters>NAN</DistanceMeters>
          </Trackpoint>
          <Trackpoint>
            <Time>2021-07-18T09:00:13.000Z</Time>
            <Position>
              <LatitudeDegrees>42.71992008201777935028076171875</LatitudeDegrees>
              <LongitudeDegrees>-0.2011148817837238311767578125</LongitudeDegrees>
            </Position>
            <AltitudeMeters>2240.39990234375</AltitudeMeters>
            <DistanceMeters>NAN</DistanceMeters>
          </Trackpoint>
          <Trackpoint>
            <Time>2021-07-18T09:00:20.000Z</Time>
            <Position>
              <LatitudeDegrees>42.71991647779941558837890625</LatitudeDegrees>
              <LongitudeDegrees>-0.2011911571025848388671875</LongitudeDegrees>
            </Position>
            <AltitudeMeters>2242</AltitudeMeters>
            <DistanceMeters>NAN</DistanceMeters>
          </Trackpoint>
          <Trackpoint>
            <Time>2021-07-18T09:00:21.000Z</Time>
            <Position>
              <LatitudeDegrees>42.7199277095496654510498046875</LatitudeDegrees>
              <LongitudeDegrees>-0.20119727589190006256103515625</LongitudeDegrees>
            </Position>
            <AltitudeMeters>2242.39990234375</AltitudeMeters>
            <DistanceMeters>NAN</DistanceMeters>
          </Trackpoint>
          <Trackpoint>
            <Time>2021-07-18T09:00:28.000Z</Time>
            <Position>
              <LatitudeDegrees>42.71993516944348812103271484375</LatitudeDegrees>
              <LongitudeDegrees>-0.20129584707319736480712890625</LongitudeDegrees>
            </Position>
            <AltitudeMeters>2245</AltitudeMeters>
            <DistanceMeters>NAN</DistanceMeters>
          </Trackpoint>
          <Trackpoint>
            <Time>2021-07-18T09:00:36.000Z</Time>
            <Position>
              <LatitudeDegrees>42.719938941299915313720703125</LatitudeDegrees>
              <LongitudeDegrees>-0.2013938315212726593017578125</LongitudeDegrees>
            </Position>
            <AltitudeMeters>2246.60009765625</AltitudeMeters>
            <DistanceMeters>NAN</DistanceMeters>
          </Trackpoint>
          <Trackpoint>
            <Time>2021-07-18T09:00:37.000Z</Time>
            <Position>
              <LatitudeDegrees>42.719934917986392974853515625</LatitudeDegrees>
              <LongitudeDegrees>-0.20141176879405975341796875</LongitudeDegrees>
            </Position>
            <AltitudeMeters>2246.800048828125</AltitudeMeters>
            <DistanceMeters>NAN</DistanceMeters>
          </Trackpoint>
          <Trackpoint>
            <Time>2021-07-18T09:00:46.000Z</Time>
            <Position>
              <LatitudeDegrees>42.719920836389064788818359375</LatitudeDegrees>
              <LongitudeDegrees>-0.20152182318270206451416015625</LongitudeDegrees>
            </Position>
            <AltitudeMeters>2248.800048828125</AltitudeMeters>
            <DistanceMeters>NAN</DistanceMeters>
          </Trackpoint>
          <Trackpoint>
            <Time>2021-07-18T09:00:56.000Z</Time>
            <Position>
              <LatitudeDegrees>42.71989493630826473236083984375</LatitudeDegrees>
              <LongitudeDegrees>-0.20164252258837223052978515625</LongitudeDegrees>
            </Position>
            <AltitudeMeters>2250.199951171875</AltitudeMeters>
            <DistanceMeters>NAN</DistanceMeters>
          </Trackpoint>
          <Trackpoint>
            <Time>2021-07-18T09:01:08.000Z</Time>
            <Position>
              <LatitudeDegrees>42.71983441896736621856689453125</LatitudeDegrees>
              <LongitudeDegrees>-0.20175484009087085723876953125</LongitudeDegrees>
            </Position>
            <AltitudeMeters>2249.60009765625</AltitudeMeters>
            <DistanceMeters>NAN</DistanceMeters>
          </Trackpoint>
          <Trackpoint>
            <Time>2021-07-18T09:01:14.000Z</Time>
            <Position>
              <LatitudeDegrees>42.7197992987930774688720703125</LatitudeDegrees>
              <LongitudeDegrees>-0.20181007683277130126953125</LongitudeDegrees>
            </Position>
            <AltitudeMeters>2249</AltitudeMeters>
            <DistanceMeters>NAN</DistanceMeters>
          </Trackpoint>
          <Trackpoint>
            <Time>2021-07-18T09:01:17.000Z</Time>
            <Position>
              <LatitudeDegrees>42.71979443728923797607421875</LatitudeDegrees>
              <LongitudeDegrees>-0.201842598617076873779296875</LongitudeDegrees>
            </Position>
            <AltitudeMeters>2249.199951171875</AltitudeMeters>
            <DistanceMeters>NAN</DistanceMeters>
          </Trackpoint>
          <Trackpoint>
            <Time>2021-07-18T09:01:19.000Z</Time>
            <Position>
              <LatitudeDegrees>42.7198003046214580535888671875</LatitudeDegrees>
              <LongitudeDegrees>-0.20185978151857852935791015625</LongitudeDegrees>
            </Position>
            <AltitudeMeters>2249.60009765625</AltitudeMeters>
            <DistanceMeters>NAN</DistanceMeters>
          </Trackpoint>
          <Trackpoint>
            <Time>2021-07-18T09:01:22.000Z</Time>
            <Position>
              <LatitudeDegrees>42.71979569457471370697021484375</LatitudeDegrees>
              <LongitudeDegrees>-0.2018860168755054473876953125</LongitudeDegrees>
            </Position>
            <AltitudeMeters>2249.60009765625</AltitudeMeters>
            <DistanceMeters>NAN</DistanceMeters>
          </Trackpoint>
          <Trackpoint>
            <Time>2021-07-18T09:01:25.000Z</Time>
            <Position>
              <LatitudeDegrees>42.71978748030960559844970703125</LatitudeDegrees>
              <LongitudeDegrees>-0.201917700469493865966796875</LongitudeDegrees>
            </Position>
            <AltitudeMeters>2249.60009765625</AltitudeMeters>
            <DistanceMeters>NAN</DistanceMeters>
          </Trackpoint>
          <Trackpoint>
            <Time>2021-07-18T09:01:27.000Z</Time>
            <Position>
              <LatitudeDegrees>42.71978563629090785980224609375</LatitudeDegrees>
              <LongitudeDegrees>-0.20193488337099552154541015625</LongitudeDegrees>
            </Position>
            <AltitudeMeters>2249.60009765625</AltitudeMeters>
            <DistanceMeters>NAN</DistanceMeters>
          </Trackpoint>
          <Trackpoint>
            <Time>2021-07-18T09:01:30.000Z</Time>
            <Position>
              <LatitudeDegrees>42.71978077478706836700439453125</LatitudeDegrees>
              <LongitudeDegrees>-0.2019540779292583465576171875</LongitudeDegrees>
            </Position>
            <AltitudeMeters>2249.60009765625</AltitudeMeters>
            <DistanceMeters>NAN</DistanceMeters>
          </Trackpoint>
          <Trackpoint>
            <Time>2021-07-18T09:01:32.000Z</Time>
            <Position>
              <LatitudeDegrees>42.71977323107421398162841796875</LatitudeDegrees>
              <LongitudeDegrees>-0.2019770443439483642578125</LongitudeDegrees>
            </Position>
            <AltitudeMeters>2249.60009765625</AltitudeMeters>
            <DistanceMeters>NAN</DistanceMeters>
          </Trackpoint>
          <Trackpoint>
            <Time>2021-07-18T09:01:39.000Z</Time>
            <Position>
              <LatitudeDegrees>42.71974104456603527069091796875</LatitudeDegrees>
              <LongitudeDegrees>-0.2020348794758319854736328125</LongitudeDegrees>
            </Position>
            <AltitudeMeters>2249.199951171875</AltitudeMeters>
            <DistanceMeters>NAN</DistanceMeters>
          </Trackpoint>
          <Trackpoint>
            <Time>2021-07-18T09:01:48.000Z</Time>
            <Position>
              <LatitudeDegrees>42.71968471817672252655029296875</LatitudeDegrees>
              <LongitudeDegrees>-0.20212590694427490234375</LongitudeDegrees>
            </Position>
            <AltitudeMeters>2248.39990234375</AltitudeMeters>
            <DistanceMeters>NAN</DistanceMeters>
          </Trackpoint>
          <Trackpoint>
            <Time>2021-07-18T09:01:55.000Z</Time>
            <Position>
              <LatitudeDegrees>42.71968823857605457305908203125</LatitudeDegrees>
              <LongitudeDegrees>-0.20218868739902973175048828125</LongitudeDegrees>
            </Position>
            <AltitudeMeters>2248.800048828125</AltitudeMeters>
            <DistanceMeters>NAN</DistanceMeters>
          </Trackpoint>
          <Trackpoint>
            <Time>2021-07-18T09:01:56.000Z</Time>
            <Position>
              <LatitudeDegrees>42.7196889929473400115966796875</LatitudeDegrees>
              <LongitudeDegrees>-0.20219623111188411712646484375</LongitudeDegrees>
            </Position>
            <AltitudeMeters>2248.800048828125</AltitudeMeters>
            <DistanceMeters>NAN</DistanceMeters>
          </Trackpoint>
          <Trackpoint>
            <Time>2021-07-18T09:02:03.000Z</Time>
            <Position>
              <LatitudeDegrees>42.7196816168725490570068359375</LatitudeDegrees>
              <LongitudeDegrees>-0.20222489722073078155517578125</LongitudeDegrees>
            </Position>
            <AltitudeMeters>2248.800048828125</AltitudeMeters>
            <DistanceMeters>NAN</DistanceMeters>
          </Trackpoint>
          <Trackpoint>
            <Time>2021-07-18T09:02:09.000Z</Time>
            <Position>
              <LatitudeDegrees>42.7196809463202953338623046875</LatitudeDegrees>
              <LongitudeDegrees>-0.2022152580320835113525390625</LongitudeDegrees>
            </Position>
            <AltitudeMeters>2248.60009765625</AltitudeMeters>
            <DistanceMeters>NAN</DistanceMeters>
          </Trackpoint>
          <Trackpoint>
            <Time>2021-07-18T09:02:20.000Z</Time>
            <Position>
              <LatitudeDegrees>42.719668038189411163330078125</LatitudeDegrees>
              <LongitudeDegrees>-0.20221048034727573394775390625</LongitudeDegrees>
            </Position>
            <AltitudeMeters>2248.39990234375</AltitudeMeters>
            <DistanceMeters>NAN</DistanceMeters>
          </Trackpoint>
          <Trackpoint>
            <Time>2021-07-18T09:02:25.000Z</Time>
            <Position>
              <LatitudeDegrees>42.71966091357171535491943359375</LatitudeDegrees>
              <LongitudeDegrees>-0.20222447812557220458984375</LongitudeDegrees>
            </Position>
            <AltitudeMeters>2248.199951171875</AltitudeMeters>
            <DistanceMeters>NAN</DistanceMeters>
          </Trackpoint>
          <Trackpoint>
            <Time>2021-07-18T09:02:29.000Z</Time>
            <Position>
              <LatitudeDegrees>42.71964750252664089202880859375</LatitudeDegrees>
              <LongitudeDegrees>-0.20223428495228290557861328125</LongitudeDegrees>
            </Position>
            <AltitudeMeters>2248</AltitudeMeters>
            <DistanceMeters>NAN</DistanceMeters>
          </Trackpoint>
          <Trackpoint>
            <Time>2021-07-18T09:02:34.000Z</Time>
            <Position>
              <LatitudeDegrees>42.71962017752230167388916015625</LatitudeDegrees>
              <LongitudeDegrees>-0.202275104820728302001953125</LongitudeDegrees>
            </Position>
            <AltitudeMeters>2247.39990234375</AltitudeMeters>
            <DistanceMeters>NAN</DistanceMeters>
          </Trackpoint>
          <Trackpoint>
            <Time>2021-07-18T09:02:36.000Z</Time>
            <Position>
              <LatitudeDegrees>42.719612382352352142333984375</LatitudeDegrees>
              <LongitudeDegrees>-0.20229262299835681915283203125</LongitudeDegrees>
            </Position>
            <AltitudeMeters>2247.199951171875</AltitudeMeters>
            <DistanceMeters>NAN</DistanceMeters>
          </Trackpoint>
          <Trackpoint>
            <Time>2021-07-18T09:02:40.000Z</Time>
            <Position>
              <LatitudeDegrees>42.71960324607789516448974609375</LatitudeDegrees>
              <LongitudeDegrees>-0.2023242227733135223388671875</LongitudeDegrees>
            </Position>
            <AltitudeMeters>2247.199951171875</AltitudeMeters>
            <DistanceMeters>NAN</DistanceMeters>
          </Trackpoint>
          <Trackpoint>
            <Time>2021-07-18T09:02:41.000Z</Time>
            <Position>
              <LatitudeDegrees>42.71959871985018253326416015625</LatitudeDegrees>
              <LongitudeDegrees>-0.20233319140970706939697265625</LongitudeDegrees>
            </Position>
            <AltitudeMeters>2247</AltitudeMeters>
            <DistanceMeters>NAN</DistanceMeters>
          </Trackpoint>
          <Trackpoint>
            <Time>2021-07-18T09:02:43.000Z</Time>
            <Position>
              <LatitudeDegrees>42.71959461271762847900390625</LatitudeDegrees>
              <LongitudeDegrees>-0.20235213451087474822998046875</LongitudeDegrees>
            </Position>
            <AltitudeMeters>2247</AltitudeMeters>
            <DistanceMeters>NAN</DistanceMeters>
          </Trackpoint>
          <Trackpoint>
            <Time>2021-07-18T09:02:46.000Z</Time>
            <Position>
              <LatitudeDegrees>42.71959871985018253326416015625</LatitudeDegrees>
              <LongitudeDegrees>-0.202364623546600341796875</LongitudeDegrees>
            </Position>
            <AltitudeMeters>2247.199951171875</AltitudeMeters>
            <DistanceMeters>NAN</DistanceMeters>
          </Trackpoint>
          <Trackpoint>
            <Time>2021-07-18T09:02:48.000Z</Time>
            <Position>
              <LatitudeDegrees>42.7195867337286472320556640625</LatitudeDegrees>
              <LongitudeDegrees>-0.20237074233591556549072265625</LongitudeDegrees>
            </Position>
            <AltitudeMeters>2246.800048828125</AltitudeMeters>
            <DistanceMeters>NAN</DistanceMeters>
          </Trackpoint>
          <Trackpoint>
            <Time>2021-07-18T09:02:50.000Z</Time>
            <Position>
              <LatitudeDegrees>42.71957877092063426971435546875</LatitudeDegrees>
              <LongitudeDegrees>-0.202375687658786773681640625</LongitudeDegrees>
            </Position>
            <AltitudeMeters>2246.60009765625</AltitudeMeters>
            <DistanceMeters>NAN</DistanceMeters>
          </Trackpoint>
          <Trackpoint>
            <Time>2021-07-18T09:02:51.000Z</Time>
            <Position>
              <LatitudeDegrees>42.7195753343403339385986328125</LatitudeDegrees>
              <LongitudeDegrees>-0.2023798786103725433349609375</LongitudeDegrees>
            </Position>
            <AltitudeMeters>2246.60009765625</AltitudeMeters>
            <DistanceMeters>NAN</DistanceMeters>
          </Trackpoint>
          <Trackpoint>
            <Time>2021-07-18T09:02:54.000Z</Time>
            <Position>
              <LatitudeDegrees>42.71957156248390674591064453125</LatitudeDegrees>
              <LongitudeDegrees>-0.20239320583641529083251953125</LongitudeDegrees>
            </Position>
            <AltitudeMeters>2246.60009765625</AltitudeMeters>
            <DistanceMeters>NAN</DistanceMeters>
          </Trackpoint>
          <Trackpoint>
            <Time>2021-07-18T09:03:00.000Z</Time>
            <Position>
              <LatitudeDegrees>42.71954759024083614349365234375</LatitudeDegrees>
              <LongitudeDegrees>-0.2024196088314056396484375</LongitudeDegrees>
            </Position>
            <AltitudeMeters>2246</AltitudeMeters>
            <DistanceMeters>NAN</DistanceMeters>
          </Trackpoint>
          <Trackpoint>
            <Time>2021-07-18T09:03:05.000Z</Time>
            <Position>
              <LatitudeDegrees>42.71953753195703029632568359375</LatitudeDegrees>
              <LongitudeDegrees>-0.20245120860636234283447265625</LongitudeDegrees>
            </Position>
            <AltitudeMeters>2245.800048828125</AltitudeMeters>
            <DistanceMeters>NAN</DistanceMeters>
          </Trackpoint>
          <Trackpoint>
            <Time>2021-07-18T09:03:08.000Z</Time>
            <Position>
              <LatitudeDegrees>42.7195267193019390106201171875</LatitudeDegrees>
              <LongitudeDegrees>-0.2024683915078639984130859375</LongitudeDegrees>
            </Position>
            <AltitudeMeters>2245.60009765625</AltitudeMeters>
            <DistanceMeters>NAN</DistanceMeters>
          </Trackpoint>
          <Trackpoint>
            <Time>2021-07-18T09:03:12.000Z</Time>
            <Position>
              <LatitudeDegrees>42.71950316615402698516845703125</LatitudeDegrees>
              <LongitudeDegrees>-0.20249940454959869384765625</LongitudeDegrees>
            </Position>
            <AltitudeMeters>2245</AltitudeMeters>
            <DistanceMeters>NAN</DistanceMeters>
          </Trackpoint>
          <Trackpoint>
            <Time>2021-07-18T09:03:18.000Z</Time>
            <Position>
              <LatitudeDegrees>42.71950534544885158538818359375</LatitudeDegrees>
              <LongitudeDegrees>-0.2025210298597812652587890625</LongitudeDegrees>
            </Position>
            <AltitudeMeters>2245</AltitudeMeters>
            <DistanceMeters>NAN</DistanceMeters>
          </Trackpoint>
          <Trackpoint>
            <Time>2021-07-18T09:03:42.000Z</Time>
            <Position>
              <LatitudeDegrees>42.7195129729807376861572265625</LatitudeDegrees>
              <LongitudeDegrees>-0.2025082893669605255126953125</LongitudeDegrees>
            </Position>
            <AltitudeMeters>2245.199951171875</AltitudeMeters>
            <DistanceMeters>NAN</DistanceMeters>
          </Trackpoint>
          <Trackpoint>
            <Time>2021-07-18T09:03:45.000Z</Time>
            <Position>
              <LatitudeDegrees>42.719511128962039947509765625</LatitudeDegrees>
              <LongitudeDegrees>-0.20250745117664337158203125</LongitudeDegrees>
            </Position>
            <AltitudeMeters>2245.199951171875</AltitudeMeters>
            <DistanceMeters>NAN</DistanceMeters>
          </Trackpoint>
          <Trackpoint>
            <Time>2021-07-18T09:03:55.000Z</Time>
            <Position>
              <LatitudeDegrees>42.7195079438388347625732421875</LatitudeDegrees>
              <LongitudeDegrees>-0.20250082947313785552978515625</LongitudeDegrees>
            </Position>
            <AltitudeMeters>2245</AltitudeMeters>
            <DistanceMeters>NAN</DistanceMeters>
          </Trackpoint>
          <Trackpoint>
            <Time>2021-07-18T09:03:59.000Z</Time>
            <Position>
              <LatitudeDegrees>42.71949394606053829193115234375</LatitudeDegrees>
              <LongitudeDegrees>-0.2024893462657928466796875</LongitudeDegrees>
            </Position>
            <AltitudeMeters>2245.39990234375</AltitudeMeters>
            <DistanceMeters>NAN</DistanceMeters>
          </Trackpoint>
          <Trackpoint>
            <Time>2021-07-18T09:04:01.000Z</Time>
            <Position>
              <LatitudeDegrees>42.71946108900010585784912109375</LatitudeDegrees>
              <LongitudeDegrees>-0.20250166766345500946044921875</LongitudeDegrees>
            </Position>
            <AltitudeMeters>2246.199951171875</AltitudeMeters>
            <DistanceMeters>NAN</DistanceMeters>
          </Trackpoint>
          <Trackpoint>
            <Time>2021-07-18T09:04:03.000Z</Time>
            <Position>
              <LatitudeDegrees>42.71943544037640094757080078125</LatitudeDegrees>
              <LongitudeDegrees>-0.2025183476507663726806640625</LongitudeDegrees>
            </Position>
            <AltitudeMeters>2247</AltitudeMeters>
            <DistanceMeters>NAN</DistanceMeters>
          </Trackpoint>
          <Trackpoint>
            <Time>2021-07-18T09:04:13.000Z</Time>
            <Position>
              <LatitudeDegrees>42.7193332649767398834228515625</LatitudeDegrees>
              <LongitudeDegrees>-0.20260862074792385101318359375</LongitudeDegrees>
            </Position>
            <AltitudeMeters>2250</AltitudeMeters>
            <DistanceMeters>NAN</DistanceMeters>
          </Trackpoint>
          <Trackpoint>
            <Time>2021-07-18T09:04:14.000Z</Time>
            <Position>
              <LatitudeDegrees>42.7193305827677249908447265625</LatitudeDegrees>
              <LongitudeDegrees>-0.2026149071753025054931640625</LongitudeDegrees>
            </Position>
            <AltitudeMeters>2250</AltitudeMeters>
            <DistanceMeters>NAN</DistanceMeters>
          </Trackpoint>
          <Trackpoint>
            <Time>2021-07-18T09:04:17.000Z</Time>
            <Position>
              <LatitudeDegrees>42.7193175069987773895263671875</LatitudeDegrees>
              <LongitudeDegrees>-0.2026467584073543548583984375</LongitudeDegrees>
            </Position>
            <AltitudeMeters>2250.39990234375</AltitudeMeters>
            <DistanceMeters>NAN</DistanceMeters>
          </Trackpoint>
          <Trackpoint>
            <Time>2021-07-18T09:04:20.000Z</Time>
            <Position>
              <LatitudeDegrees>42.7193168364465236663818359375</LatitudeDegrees>
              <LongitudeDegrees>-0.2026581577956676483154296875</LongitudeDegrees>
            </Position>
            <AltitudeMeters>2250.39990234375</AltitudeMeters>
            <DistanceMeters>NAN</DistanceMeters>
          </Trackpoint>
          <Trackpoint>
            <Time>2021-07-18T09:04:21.000Z</Time>
            <Position>
              <LatitudeDegrees>42.71931432187557220458984375</LatitudeDegrees>
              <LongitudeDegrees>-0.20266276784241199493408203125</LongitudeDegrees>
            </Position>
            <AltitudeMeters>2250.60009765625</AltitudeMeters>
            <DistanceMeters>NAN</DistanceMeters>
          </Trackpoint>
          <Trackpoint>
            <Time>2021-07-18T09:04:23.000Z</Time>
            <Position>
              <LatitudeDegrees>42.7193064428865909576416015625</LatitudeDegrees>
              <LongitudeDegrees>-0.20267399959266185760498046875</LongitudeDegrees>
            </Position>
            <AltitudeMeters>2250.800048828125</AltitudeMeters>
            <DistanceMeters>NAN</DistanceMeters>
          </Trackpoint>
          <Trackpoint>
            <Time>2021-07-18T09:04:25.000Z</Time>
            <Position>
              <LatitudeDegrees>42.71930384449660778045654296875</LatitudeDegrees>
              <LongitudeDegrees>-0.20268841646611690521240234375</LongitudeDegrees>
            </Position>
            <AltitudeMeters>2250.800048828125</AltitudeMeters>
            <DistanceMeters>NAN</DistanceMeters>
          </Trackpoint>
          <Trackpoint>
            <Time>2021-07-18T09:04:29.000Z</Time>
            <Position>
              <LatitudeDegrees>42.71929797716438770294189453125</LatitudeDegrees>
              <LongitudeDegrees>-0.202689506113529205322265625</LongitudeDegrees>
            </Position>
            <AltitudeMeters>2251</AltitudeMeters>
            <DistanceMeters>NAN</DistanceMeters>
          </Trackpoint>
          <Trackpoint>
            <Time>2021-07-18T09:04:33.000Z</Time>
            <Position>
              <LatitudeDegrees>42.7192886732518672943115234375</LatitudeDegrees>
              <LongitudeDegrees>-0.2027144841849803924560546875</LongitudeDegrees>
            </Position>
            <AltitudeMeters>2251</AltitudeMeters>
            <DistanceMeters>NAN</DistanceMeters>
          </Trackpoint>
          <Trackpoint>
            <Time>2021-07-18T09:04:36.000Z</Time>
            <Position>
              <LatitudeDegrees>42.71927735768258571624755859375</LatitudeDegrees>
              <LongitudeDegrees>-0.20273921079933643341064453125</LongitudeDegrees>
            </Position>
            <AltitudeMeters>2251</AltitudeMeters>
            <DistanceMeters>NAN</DistanceMeters>
          </Trackpoint>
          <Trackpoint>
            <Time>2021-07-18T09:04:41.000Z</Time>
            <Position>
              <LatitudeDegrees>42.71925472654402256011962890625</LatitudeDegrees>
              <LongitudeDegrees>-0.20279738120734691619873046875</LongitudeDegrees>
            </Position>
            <AltitudeMeters>2250.800048828125</AltitudeMeters>
            <DistanceMeters>NAN</DistanceMeters>
          </Trackpoint>
          <Trackpoint>
            <Time>2021-07-18T09:04:45.000Z</Time>
            <Position>
              <LatitudeDegrees>42.7192377112805843353271484375</LatitudeDegrees>
              <LongitudeDegrees>-0.20282755605876445770263671875</LongitudeDegrees>
            </Position>
            <AltitudeMeters>2250.800048828125</AltitudeMeters>
            <DistanceMeters>NAN</DistanceMeters>
          </Trackpoint>
          <Trackpoint>
            <Time>2021-07-18T09:04:46.000Z</Time>
            <Position>
              <LatitudeDegrees>42.719231508672237396240234375</LatitudeDegrees>
              <LongitudeDegrees>-0.20283660851418972015380859375</LongitudeDegrees>
            </Position>
            <AltitudeMeters>2250.800048828125</AltitudeMeters>
            <DistanceMeters>NAN</DistanceMeters>
          </Trackpoint>
          <Trackpoint>
            <Time>2021-07-18T09:04:48.000Z</Time>
            <Position>
              <LatitudeDegrees>42.71921399049460887908935546875</LatitudeDegrees>
              <LongitudeDegrees>-0.202855132520198822021484375</LongitudeDegrees>
            </Position>
            <AltitudeMeters>2251.39990234375</AltitudeMeters>
            <DistanceMeters>NAN</DistanceMeters>
          </Trackpoint>
          <Trackpoint>
            <Time>2021-07-18T09:04:52.000Z</Time>
            <Position>
              <LatitudeDegrees>42.719183899462223052978515625</LatitudeDegrees>
              <LongitudeDegrees>-0.2028821222484111785888671875</LongitudeDegrees>
            </Position>
            <AltitudeMeters>2252.39990234375</AltitudeMeters>
            <DistanceMeters>NAN</DistanceMeters>
          </Trackpoint>
          <Trackpoint>
            <Time>2021-07-18T09:04:55.000Z</Time>
            <Position>
              <LatitudeDegrees>42.7191706560552120208740234375</LatitudeDegrees>
              <LongitudeDegrees>-0.20291171036660671234130859375</LongitudeDegrees>
            </Position>
            <AltitudeMeters>2252.60009765625</AltitudeMeters>
            <DistanceMeters>NAN</DistanceMeters>
          </Trackpoint>
          <Trackpoint>
            <Time>2021-07-18T09:04:56.000Z</Time>
            <Position>
              <LatitudeDegrees>42.719170153141021728515625</LatitudeDegrees>
              <LongitudeDegrees>-0.20291673950850963592529296875</LongitudeDegrees>
            </Position>
            <AltitudeMeters>2252.39990234375</AltitudeMeters>
            <DistanceMeters>NAN</DistanceMeters>
          </Trackpoint>
          <Trackpoint>
            <Time>2021-07-18T09:05:03.000Z</Time>
            <Position>
              <LatitudeDegrees>42.71914131939411163330078125</LatitudeDegrees>
              <LongitudeDegrees>-0.2029635943472385406494140625</LongitudeDegrees>
            </Position>
            <AltitudeMeters>2253.199951171875</AltitudeMeters>
            <DistanceMeters>NAN</DistanceMeters>
          </Trackpoint>
          <Trackpoint>
            <Time>2021-07-18T09:05:05.000Z</Time>
            <Position>
              <LatitudeDegrees>42.71913955919444561004638671875</LatitudeDegrees>
              <LongitudeDegrees>-0.20298161543905735015869140625</LongitudeDegrees>
            </Position>
            <AltitudeMeters>2252.800048828125</AltitudeMeters>
            <DistanceMeters>NAN</DistanceMeters>
          </Trackpoint>
          <Trackpoint>
            <Time>2021-07-18T09:05:07.000Z</Time>
            <Position>
              <LatitudeDegrees>42.71914668381214141845703125</LatitudeDegrees>
              <LongitudeDegrees>-0.20299452356994152069091796875</LongitudeDegrees>
            </Position>
            <AltitudeMeters>2252</AltitudeMeters>
            <DistanceMeters>NAN</DistanceMeters>
          </Trackpoint>
          <Trackpoint>
            <Time>2021-07-18T09:05:14.000Z</Time>
            <Position>
              <LatitudeDegrees>42.71914006210863590240478515625</LatitudeDegrees>
              <LongitudeDegrees>-0.20301765762269496917724609375</LongitudeDegrees>
            </Position>
            <AltitudeMeters>2251.39990234375</AltitudeMeters>
            <DistanceMeters>NAN</DistanceMeters>
          </Trackpoint>
          <Trackpoint>
            <Time>2021-07-18T09:05:23.000Z</Time>
            <Position>
              <LatitudeDegrees>42.7191150002181529998779296875</LatitudeDegrees>
              <LongitudeDegrees>-0.20305252633988857269287109375</LongitudeDegrees>
            </Position>
            <AltitudeMeters>2251.199951171875</AltitudeMeters>
            <DistanceMeters>NAN</DistanceMeters>
          </Trackpoint>
          <Trackpoint>
            <Time>2021-07-18T09:05:32.000Z</Time>
            <Position>
              <LatitudeDegrees>42.71911474876105785369873046875</LatitudeDegrees>
              <LongitudeDegrees>-0.20306962542235851287841796875</LongitudeDegrees>
            </Position>
            <AltitudeMeters>2250.39990234375</AltitudeMeters>
            <DistanceMeters>NAN</DistanceMeters>
          </Trackpoint>
          <Trackpoint>
            <Time>2021-07-18T09:05:38.000Z</Time>
            <Position>
              <LatitudeDegrees>42.71911474876105785369873046875</LatitudeDegrees>
              <LongitudeDegrees>-0.20306962542235851287841796875</LongitudeDegrees>
            </Position>
            <AltitudeMeters>2250.39990234375</AltitudeMeters>
            <DistanceMeters>NAN</DistanceMeters>
          </Trackpoint>
          <Trackpoint>
            <Time>2021-07-18T09:05:47.000Z</Time>
            <Position>
              <LatitudeDegrees>42.7191042713820934295654296875</LatitudeDegrees>
              <LongitudeDegrees>-0.20307465456426143646240234375</LongitudeDegrees>
            </Position>
            <AltitudeMeters>2250.800048828125</AltitudeMeters>
            <DistanceMeters>NAN</DistanceMeters>
          </Trackpoint>
          <Trackpoint>
            <Time>2021-07-18T09:05:51.000Z</Time>
            <Position>
              <LatitudeDegrees>42.7190740965306758880615234375</LatitudeDegrees>
              <LongitudeDegrees>-0.20313550718128681182861328125</LongitudeDegrees>
            </Position>
            <AltitudeMeters>2250</AltitudeMeters>
            <DistanceMeters>NAN</DistanceMeters>
          </Trackpoint>
          <Trackpoint>
            <Time>2021-07-18T09:05:53.000Z</Time>
            <Position>
              <LatitudeDegrees>42.71905473433434963226318359375</LatitudeDegrees>
              <LongitudeDegrees>-0.2031657658517360687255859375</LongitudeDegrees>
            </Position>
            <AltitudeMeters>2249.800048828125</AltitudeMeters>
            <DistanceMeters>NAN</DistanceMeters>
          </Trackpoint>
          <Trackpoint>
            <Time>2021-07-18T09:05:57.000Z</Time>
            <Position>
              <LatitudeDegrees>42.71902539767324924468994140625</LatitudeDegrees>
              <LongitudeDegrees>-0.20321815274655818939208984375</LongitudeDegrees>
            </Position>
            <AltitudeMeters>2249.60009765625</AltitudeMeters>
            <DistanceMeters>NAN</DistanceMeters>
          </Trackpoint>
          <Trackpoint>
            <Time>2021-07-18T09:06:06.000Z</Time>
            <Position>
              <LatitudeDegrees>42.71899254061281681060791015625</LatitudeDegrees>
              <LongitudeDegrees>-0.2032792568206787109375</LongitudeDegrees>
            </Position>
            <AltitudeMeters>2249.199951171875</AltitudeMeters>
            <DistanceMeters>NAN</DistanceMeters>
          </Trackpoint>
          <Trackpoint>
            <Time>2021-07-18T09:06:09.000Z</Time>
            <Position>
              <LatitudeDegrees>42.71899103187024593353271484375</LatitudeDegrees>
              <LongitudeDegrees>-0.203287638723850250244140625</LongitudeDegrees>
            </Position>
            <AltitudeMeters>2249.199951171875</AltitudeMeters>
            <DistanceMeters>NAN</DistanceMeters>
          </Trackpoint>
          <Trackpoint>
            <Time>2021-07-18T09:06:13.000Z</Time>
            <Position>
              <LatitudeDegrees>42.71897695027291774749755859375</LatitudeDegrees>
              <LongitudeDegrees>-0.20331345498561859130859375</LongitudeDegrees>
            </Position>
            <AltitudeMeters>2249</AltitudeMeters>
            <DistanceMeters>NAN</DistanceMeters>
          </Trackpoint>
          <Trackpoint>
            <Time>2021-07-18T09:06:15.000Z</Time>
            <Position>
              <LatitudeDegrees>42.7189671434462070465087890625</LatitudeDegrees>
              <LongitudeDegrees>-0.20332242362201213836669921875</LongitudeDegrees>
            </Position>
            <AltitudeMeters>2249.199951171875</AltitudeMeters>
            <DistanceMeters>NAN</DistanceMeters>
          </Trackpoint>
          <Trackpoint>
            <Time>2021-07-18T09:06:19.000Z</Time>
            <Position>
              <LatitudeDegrees>42.71895431913435459136962890625</LatitudeDegrees>
              <LongitudeDegrees>-0.20333734340965747833251953125</LongitudeDegrees>
            </Position>
            <AltitudeMeters>2249.39990234375</AltitudeMeters>
            <DistanceMeters>NAN</DistanceMeters>
          </Trackpoint>
          <Trackpoint>
            <Time>2021-07-18T09:06:22.000Z</Time>
            <Position>
              <LatitudeDegrees>42.71893805824220180511474609375</LatitudeDegrees>
              <LongitudeDegrees>-0.20334505476057529449462890625</LongitudeDegrees>
            </Position>
            <AltitudeMeters>2249.60009765625</AltitudeMeters>
            <DistanceMeters>NAN</DistanceMeters>
          </Trackpoint>
          <Trackpoint>
            <Time>2021-07-18T09:06:31.000Z</Time>
            <Position>
              <LatitudeDegrees>42.718899250030517578125</LatitudeDegrees>
              <LongitudeDegrees>-0.2033652551472187042236328125</LongitudeDegrees>
            </Position>
            <AltitudeMeters>2250</AltitudeMeters>
            <DistanceMeters>NAN</DistanceMeters>
          </Trackpoint>
          <Trackpoint>
            <Time>2021-07-18T09:06:34.000Z</Time>
            <Position>
              <LatitudeDegrees>42.71888726390898227691650390625</LatitudeDegrees>
              <LongitudeDegrees>-0.20336148329079151153564453125</LongitudeDegrees>
            </Position>
            <AltitudeMeters>2250.39990234375</AltitudeMeters>
            <DistanceMeters>NAN</DistanceMeters>
          </Trackpoint>
          <Trackpoint>
            <Time>2021-07-18T09:06:43.000Z</Time>
            <Position>
              <LatitudeDegrees>42.718870081007480621337890625</LatitudeDegrees>
              <LongitudeDegrees>-0.2034071646630764007568359375</LongitudeDegrees>
            </Position>
            <AltitudeMeters>2250</AltitudeMeters>
            <DistanceMeters>NAN</DistanceMeters>
          </Trackpoint>
          <Trackpoint>
            <Time>2021-07-18T09:06:51.000Z</Time>
            <Position>
              <LatitudeDegrees>42.71883630193769931793212890625</LatitudeDegrees>
              <LongitudeDegrees>-0.20342208445072174072265625</LongitudeDegrees>
            </Position>
            <AltitudeMeters>2250.39990234375</AltitudeMeters>
            <DistanceMeters>NAN</DistanceMeters>
          </Trackpoint>
          <Trackpoint>
            <Time>2021-07-18T09:07:00.000Z</Time>
            <Position>
              <LatitudeDegrees>42.7188135869801044464111328125</LatitudeDegrees>
              <LongitudeDegrees>-0.2034396864473819732666015625</LongitudeDegrees>
            </Position>
            <AltitudeMeters>2250.60009765625</AltitudeMeters>
            <DistanceMeters>NAN</DistanceMeters>
          </Trackpoint>
          <Trackpoint>
            <Time>2021-07-18T09:07:08.000Z</Time>
            <Position>
              <LatitudeDegrees>42.71880780346691608428955078125</LatitudeDegrees>
              <LongitudeDegrees>-0.20340171642601490020751953125</LongitudeDegrees>
            </Position>
            <AltitudeMeters>2251.39990234375</AltitudeMeters>
            <DistanceMeters>NAN</DistanceMeters>
          </Trackpoint>
          <Trackpoint>
            <Time>2021-07-18T09:07:15.000Z</Time>
            <Position>
              <LatitudeDegrees>42.71877511404454708099365234375</LatitudeDegrees>
              <LongitudeDegrees>-0.203418731689453125</LongitudeDegrees>
            </Position>
            <AltitudeMeters>2251.800048828125</AltitudeMeters>
            <DistanceMeters>NAN</DistanceMeters>
          </Trackpoint>
          <Trackpoint>
            <Time>2021-07-18T09:07:23.000Z</Time>
            <Position>
              <LatitudeDegrees>42.718754075467586517333984375</LatitudeDegrees>
              <LongitudeDegrees>-0.2034219168126583099365234375</LongitudeDegrees>
            </Position>
            <AltitudeMeters>2252.60009765625</AltitudeMeters>
            <DistanceMeters>NAN</DistanceMeters>
          </Trackpoint>
          <Trackpoint>
            <Time>2021-07-18T09:07:36.000Z</Time>
            <Position>
              <LatitudeDegrees>42.718714177608489990234375</LatitudeDegrees>
              <LongitudeDegrees>-0.20345334894955158233642578125</LongitudeDegrees>
            </Position>
            <AltitudeMeters>2253</AltitudeMeters>
            <DistanceMeters>NAN</DistanceMeters>
          </Trackpoint>
          <Trackpoint>
            <Time>2021-07-18T09:07:42.000Z</Time>
            <Position>
              <LatitudeDegrees>42.718714177608489990234375</LatitudeDegrees>
              <LongitudeDegrees>-0.20345334894955158233642578125</LongitudeDegrees>
            </Position>
            <AltitudeMeters>2253</AltitudeMeters>
            <DistanceMeters>NAN</DistanceMeters>
          </Trackpoint>
          <Trackpoint>
            <Time>2021-07-18T09:07:57.000Z</Time>
            <Position>
              <LatitudeDegrees>42.7187307737767696380615234375</LatitudeDegrees>
              <LongitudeDegrees>-0.20345536060631275177001953125</LongitudeDegrees>
            </Position>
            <AltitudeMeters>2252.199951171875</AltitudeMeters>
            <DistanceMeters>NAN</DistanceMeters>
          </Trackpoint>
          <Trackpoint>
            <Time>2021-07-18T09:08:03.000Z</Time>
            <Position>
              <LatitudeDegrees>42.7187301032245159149169921875</LatitudeDegrees>
              <LongitudeDegrees>-0.20346038974821567535400390625</LongitudeDegrees>
            </Position>
            <AltitudeMeters>2252.199951171875</AltitudeMeters>
            <DistanceMeters>NAN</DistanceMeters>
          </Trackpoint>
          <Trackpoint>
            <Time>2021-07-18T09:08:26.000Z</Time>
            <Position>
              <LatitudeDegrees>42.71870135329663753509521484375</LatitudeDegrees>
              <LongitudeDegrees>-0.20347044803202152252197265625</LongitudeDegrees>
            </Position>
            <AltitudeMeters>2252.800048828125</AltitudeMeters>
            <DistanceMeters>NAN</DistanceMeters>
          </Trackpoint>
          <Trackpoint>
            <Time>2021-07-18T09:08:28.000Z</Time>
            <Position>
              <LatitudeDegrees>42.71869179792702198028564453125</LatitudeDegrees>
              <LongitudeDegrees>-0.20347044803202152252197265625</LongitudeDegrees>
            </Position>
            <AltitudeMeters>2253.199951171875</AltitudeMeters>
            <DistanceMeters>NAN</DistanceMeters>
          </Trackpoint>
          <Trackpoint>
            <Time>2021-07-18T09:08:29.000Z</Time>
            <Position>
              <LatitudeDegrees>42.718689702451229095458984375</LatitudeDegrees>
              <LongitudeDegrees>-0.20346642471849918365478515625</LongitudeDegrees>
            </Position>
            <AltitudeMeters>2253.39990234375</AltitudeMeters>
            <DistanceMeters>NAN</DistanceMeters>
          </Trackpoint>
          <Trackpoint>
            <Time>2021-07-18T09:08:30.000Z</Time>
            <Position>
              <LatitudeDegrees>42.71868509240448474884033203125</LatitudeDegrees>
              <LongitudeDegrees>-0.20346072502434253692626953125</LongitudeDegrees>
            </Position>
            <AltitudeMeters>2253.800048828125</AltitudeMeters>
            <DistanceMeters>NAN</DistanceMeters>
          </Trackpoint>
          <Trackpoint>
            <Time>2021-07-18T09:08:32.000Z</Time>
            <Position>
              <LatitudeDegrees>42.7186764590442180633544921875</LatitudeDegrees>
              <LongitudeDegrees>-0.2034487389028072357177734375</LongitudeDegrees>
            </Position>
            <AltitudeMeters>2254.39990234375</AltitudeMeters>
            <DistanceMeters>NAN</DistanceMeters>
          </Trackpoint>
          <Trackpoint>
            <Time>2021-07-18T09:08:34.000Z</Time>
            <Position>
              <LatitudeDegrees>42.7186724357306957244873046875</LatitudeDegrees>
              <LongitudeDegrees>-0.203444547951221466064453125</LongitudeDegrees>
            </Position>
            <AltitudeMeters>2254.800048828125</AltitudeMeters>
            <DistanceMeters>NAN</DistanceMeters>
          </Trackpoint>
          <Trackpoint>
            <Time>2021-07-18T09:08:36.000Z</Time>
            <Position>
              <LatitudeDegrees>42.7186633832752704620361328125</LatitudeDegrees>
              <LongitudeDegrees>-0.20344379357993602752685546875</LongitudeDegrees>
            </Position>
            <AltitudeMeters>2254.60009765625</AltitudeMeters>
            <DistanceMeters>NAN</DistanceMeters>
          </Trackpoint>
          <Trackpoint>
            <Time>2021-07-18T09:08:39.000Z</Time>
            <Position>
              <LatitudeDegrees>42.71865047514438629150390625</LatitudeDegrees>
              <LongitudeDegrees>-0.2034437097609043121337890625</LongitudeDegrees>
            </Position>
            <AltitudeMeters>2254.39990234375</AltitudeMeters>
            <DistanceMeters>NAN</DistanceMeters>
          </Trackpoint>
          <Trackpoint>
            <Time>2021-07-18T09:08:47.000Z</Time>
            <Position>
              <LatitudeDegrees>42.7186174504458904266357421875</LatitudeDegrees>
              <LongitudeDegrees>-0.2034415304660797119140625</LongitudeDegrees>
            </Position>
            <AltitudeMeters>2253.800048828125</AltitudeMeters>
            <DistanceMeters>NAN</DistanceMeters>
          </Trackpoint>
          <Trackpoint>
            <Time>2021-07-18T09:08:54.000Z</Time>
            <Position>
              <LatitudeDegrees>42.71859121508896350860595703125</LatitudeDegrees>
              <LongitudeDegrees>-0.2034396864473819732666015625</LongitudeDegrees>
            </Position>
            <AltitudeMeters>2253.39990234375</AltitudeMeters>
            <DistanceMeters>NAN</DistanceMeters>
          </Trackpoint>
          <Trackpoint>
            <Time>2021-07-18T09:09:01.000Z</Time>
            <Position>
              <LatitudeDegrees>42.71858719177544116973876953125</LatitudeDegrees>
              <LongitudeDegrees>-0.20343071781098842620849609375</LongitudeDegrees>
            </Position>
            <AltitudeMeters>2253.60009765625</AltitudeMeters>
            <DistanceMeters>NAN</DistanceMeters>
          </Trackpoint>
          <Trackpoint>
            <Time>2021-07-18T09:09:15.000Z</Time>
            <Position>
              <LatitudeDegrees>42.7185530774295330047607421875</LatitudeDegrees>
              <LongitudeDegrees>-0.2034024707973003387451171875</LongitudeDegrees>
            </Position>
            <AltitudeMeters>2254</AltitudeMeters>
            <DistanceMeters>NAN</DistanceMeters>
          </Trackpoint>
          <Trackpoint>
            <Time>2021-07-18T09:09:44.000Z</Time>
            <Position>
              <LatitudeDegrees>42.71850655786693096160888671875</LatitudeDegrees>
              <LongitudeDegrees>-0.20338679663836956024169921875</LongitudeDegrees>
            </Position>
            <AltitudeMeters>2253.39990234375</AltitudeMeters>
            <DistanceMeters>NAN</DistanceMeters>
          </Trackpoint>
          <Trackpoint>
            <Time>2021-07-18T09:09:56.000Z</Time>
            <Position>
              <LatitudeDegrees>42.718484513461589813232421875</LatitudeDegrees>
              <LongitudeDegrees>-0.2034088410437107086181640625</LongitudeDegrees>
            </Position>
            <AltitudeMeters>2252.39990234375</AltitudeMeters>
            <DistanceMeters>NAN</DistanceMeters>
          </Trackpoint>
          <Trackpoint>
            <Time>2021-07-18T09:10:00.000Z</Time>
            <Position>
              <LatitudeDegrees>42.71847973577678203582763671875</LatitudeDegrees>
              <LongitudeDegrees>-0.2034222520887851715087890625</LongitudeDegrees>
            </Position>
            <AltitudeMeters>2251.800048828125</AltitudeMeters>
            <DistanceMeters>NAN</DistanceMeters>
          </Trackpoint>
          <Trackpoint>
            <Time>2021-07-18T09:10:12.000Z</Time>
            <Position>
              <LatitudeDegrees>42.71844503469765186309814453125</LatitudeDegrees>
              <LongitudeDegrees>-0.2034467272460460662841796875</LongitudeDegrees>
            </Position>
            <AltitudeMeters>2250.39990234375</AltitudeMeters>
            <DistanceMeters>NAN</DistanceMeters>
          </Trackpoint>
          <Trackpoint>
            <Time>2021-07-18T09:10:15.000Z</Time>
            <Position>
              <LatitudeDegrees>42.71843799389898777008056640625</LatitudeDegrees>
              <LongitudeDegrees>-0.203457288444042205810546875</LongitudeDegrees>
            </Position>
            <AltitudeMeters>2250</AltitudeMeters>
            <DistanceMeters>NAN</DistanceMeters>
          </Trackpoint>
          <Trackpoint>
            <Time>2021-07-18T09:10:21.000Z</Time>
            <Position>
              <LatitudeDegrees>42.71843145601451396942138671875</LatitudeDegrees>
              <LongitudeDegrees>-0.2034844458103179931640625</LongitudeDegrees>
            </Position>
            <AltitudeMeters>2249</AltitudeMeters>
            <DistanceMeters>NAN</DistanceMeters>
          </Trackpoint>
          <Trackpoint>
            <Time>2021-07-18T09:10:24.000Z</Time>
            <Position>
              <LatitudeDegrees>42.7184260077774524688720703125</LatitudeDegrees>
              <LongitudeDegrees>-0.2034924924373626708984375</LongitudeDegrees>
            </Position>
            <AltitudeMeters>2248.800048828125</AltitudeMeters>
            <DistanceMeters>NAN</DistanceMeters>
          </Trackpoint>
          <Trackpoint>
            <Time>2021-07-18T09:10:34.000Z</Time>
            <Position>
              <LatitudeDegrees>42.71840396337211132049560546875</LatitudeDegrees>
              <LongitudeDegrees>-0.20351151935756206512451171875</LongitudeDegrees>
            </Position>
            <AltitudeMeters>2247.60009765625</AltitudeMeters>
            <DistanceMeters>NAN</DistanceMeters>
          </Trackpoint>
          <Trackpoint>
            <Time>2021-07-18T09:10:58.000Z</Time>
            <Position>
              <LatitudeDegrees>42.718376554548740386962890625</LatitudeDegrees>
              <LongitudeDegrees>-0.20354907028377056121826171875</LongitudeDegrees>
            </Position>
            <AltitudeMeters>2245.60009765625</AltitudeMeters>
            <DistanceMeters>NAN</DistanceMeters>
          </Trackpoint>
          <Trackpoint>
            <Time>2021-07-18T09:11:09.000Z</Time>
            <Position>
              <LatitudeDegrees>42.7183757163584232330322265625</LatitudeDegrees>
              <LongitudeDegrees>-0.20355057902634143829345703125</LongitudeDegrees>
            </Position>
            <AltitudeMeters>2245.39990234375</AltitudeMeters>
            <DistanceMeters>NAN</DistanceMeters>
          </Trackpoint>
          <Trackpoint>
            <Time>2021-07-18T09:11:11.000Z</Time>
            <Position>
              <LatitudeDegrees>42.71837546490132808685302734375</LatitudeDegrees>
              <LongitudeDegrees>-0.20355083048343658447265625</LongitudeDegrees>
            </Position>
            <AltitudeMeters>2245.39990234375</AltitudeMeters>
            <DistanceMeters>NAN</DistanceMeters>
          </Trackpoint>
          <Trackpoint>
            <Time>2021-07-18T09:11:13.000Z</Time>
            <Position>
              <LatitudeDegrees>42.71837512962520122528076171875</LatitudeDegrees>
              <LongitudeDegrees>-0.203551165759563446044921875</LongitudeDegrees>
            </Position>
            <AltitudeMeters>2245.39990234375</AltitudeMeters>
            <DistanceMeters>NAN</DistanceMeters>
          </Trackpoint>
          <Trackpoint>
            <Time>2021-07-18T09:11:19.000Z</Time>
            <Position>
              <LatitudeDegrees>42.71831880323588848114013671875</LatitudeDegrees>
              <LongitudeDegrees>-0.203566588461399078369140625</LongitudeDegrees>
            </Position>
            <AltitudeMeters>2242.199951171875</AltitudeMeters>
            <DistanceMeters>NAN</DistanceMeters>
          </Trackpoint>
          <Trackpoint>
            <Time>2021-07-18T09:11:22.000Z</Time>
            <Position>
              <LatitudeDegrees>42.71823699586093425750732421875</LatitudeDegrees>
              <LongitudeDegrees>-0.203593410551548004150390625</LongitudeDegrees>
            </Position>
            <AltitudeMeters>2237.39990234375</AltitudeMeters>
            <DistanceMeters>NAN</DistanceMeters>
          </Trackpoint>
          <Trackpoint>
            <Time>2021-07-18T09:11:24.000Z</Time>
            <Position>
              <LatitudeDegrees>42.7181822620332241058349609375</LatitudeDegrees>
              <LongitudeDegrees>-0.2036096714437007904052734375</LongitudeDegrees>
            </Position>
            <AltitudeMeters>2234.199951171875</AltitudeMeters>
            <DistanceMeters>NAN</DistanceMeters>
          </Trackpoint>
          <Trackpoint>
            <Time>2021-07-18T09:11:35.000Z</Time>
            <Position>
              <LatitudeDegrees>42.71807673387229442596435546875</LatitudeDegrees>
              <LongitudeDegrees>-0.2036368288099765777587890625</LongitudeDegrees>
            </Position>
            <AltitudeMeters>2229.199951171875</AltitudeMeters>
            <DistanceMeters>NAN</DistanceMeters>
          </Trackpoint>
          <Trackpoint>
            <Time>2021-07-18T09:11:46.000Z</Time>
            <Position>
              <LatitudeDegrees>42.7180618979036808013916015625</LatitudeDegrees>
              <LongitudeDegrees>-0.203681252896785736083984375</LongitudeDegrees>
            </Position>
            <AltitudeMeters>2227.800048828125</AltitudeMeters>
            <DistanceMeters>NAN</DistanceMeters>
          </Trackpoint>
          <Trackpoint>
            <Time>2021-07-18T09:11:54.000Z</Time>
            <Position>
              <LatitudeDegrees>42.71808930672705173492431640625</LatitudeDegrees>
              <LongitudeDegrees>-0.20374738611280918121337890625</LongitudeDegrees>
            </Position>
            <AltitudeMeters>2226.800048828125</AltitudeMeters>
            <DistanceMeters>NAN</DistanceMeters>
          </Trackpoint>
          <Trackpoint>
            <Time>2021-07-18T09:12:04.000Z</Time>
            <Position>
              <LatitudeDegrees>42.71811059676110744476318359375</LatitudeDegrees>
              <LongitudeDegrees>-0.20379600115120410919189453125</LongitudeDegrees>
            </Position>
            <AltitudeMeters>2226.199951171875</AltitudeMeters>
            <DistanceMeters>NAN</DistanceMeters>
          </Trackpoint>
          <Trackpoint>
            <Time>2021-07-18T09:12:13.000Z</Time>
            <Position>
              <LatitudeDegrees>42.718106321990489959716796875</LatitudeDegrees>
              <LongitudeDegrees>-0.20383422262966632843017578125</LongitudeDegrees>
            </Position>
            <AltitudeMeters>2224.800048828125</AltitudeMeters>
            <DistanceMeters>NAN</DistanceMeters>
          </Trackpoint>
          <Trackpoint>
            <Time>2021-07-18T09:12:20.000Z</Time>
            <Position>
              <LatitudeDegrees>42.7180806733667850494384765625</LatitudeDegrees>
              <LongitudeDegrees>-0.203837491571903228759765625</LongitudeDegrees>
            </Position>
            <AltitudeMeters>2224</AltitudeMeters>
            <DistanceMeters>NAN</DistanceMeters>
          </Trackpoint>
          <Trackpoint>
            <Time>2021-07-18T09:12:21.000Z</Time>
            <Position>
              <LatitudeDegrees>42.71807991899549961090087890625</LatitudeDegrees>
              <LongitudeDegrees>-0.203836150467395782470703125</LongitudeDegrees>
            </Position>
            <AltitudeMeters>2224</AltitudeMeters>
            <DistanceMeters>NAN</DistanceMeters>
          </Trackpoint>
          <Trackpoint>
            <Time>2021-07-18T09:12:26.000Z</Time>
            <Position>
              <LatitudeDegrees>42.718075811862945556640625</LatitudeDegrees>
              <LongitudeDegrees>-0.203826092183589935302734375</LongitudeDegrees>
            </Position>
            <AltitudeMeters>2224.199951171875</AltitudeMeters>
            <DistanceMeters>NAN</DistanceMeters>
          </Trackpoint>
          <Trackpoint>
            <Time>2021-07-18T09:12:35.000Z</Time>
            <Position>
              <LatitudeDegrees>42.7180756442248821258544921875</LatitudeDegrees>
              <LongitudeDegrees>-0.203823409974575042724609375</LongitudeDegrees>
            </Position>
            <AltitudeMeters>2224.39990234375</AltitudeMeters>
            <DistanceMeters>NAN</DistanceMeters>
          </Trackpoint>
          <Trackpoint>
            <Time>2021-07-18T09:12:44.000Z</Time>
            <Position>
              <LatitudeDegrees>42.71806776523590087890625</LatitudeDegrees>
              <LongitudeDegrees>-0.203839838504791259765625</LongitudeDegrees>
            </Position>
            <AltitudeMeters>2223.60009765625</AltitudeMeters>
            <DistanceMeters>NAN</DistanceMeters>
          </Trackpoint>
          <Trackpoint>
            <Time>2021-07-18T09:12:50.000Z</Time>
            <Position>
              <LatitudeDegrees>42.71805904805660247802734375</LatitudeDegrees>
              <LongitudeDegrees>-0.20381712354719638824462890625</LongitudeDegrees>
            </Position>
            <AltitudeMeters>2224.199951171875</AltitudeMeters>
            <DistanceMeters>NAN</DistanceMeters>
          </Trackpoint>
          <Trackpoint>
            <Time>2021-07-18T09:12:52.000Z</Time>
            <Position>
              <LatitudeDegrees>42.71805644966661930084228515625</LatitudeDegrees>
              <LongitudeDegrees>-0.20380924455821514129638671875</LongitudeDegrees>
            </Position>
            <AltitudeMeters>2224.39990234375</AltitudeMeters>
            <DistanceMeters>NAN</DistanceMeters>
          </Trackpoint>
          <Trackpoint>
            <Time>2021-07-18T09:12:59.000Z</Time>
            <Position>
              <LatitudeDegrees>42.71804572083055973052978515625</LatitudeDegrees>
              <LongitudeDegrees>-0.2038304507732391357421875</LongitudeDegrees>
            </Position>
            <AltitudeMeters>2223.39990234375</AltitudeMeters>
            <DistanceMeters>NAN</DistanceMeters>
          </Trackpoint>
          <Trackpoint>
            <Time>2021-07-18T09:13:05.000Z</Time>
            <Position>
              <LatitudeDegrees>42.71804806776344776153564453125</LatitudeDegrees>
              <LongitudeDegrees>-0.20386154763400554656982421875</LongitudeDegrees>
            </Position>
            <AltitudeMeters>2222.39990234375</AltitudeMeters>
            <DistanceMeters>NAN</DistanceMeters>
          </Trackpoint>
          <Trackpoint>
            <Time>2021-07-18T09:13:11.000Z</Time>
            <Position>
              <LatitudeDegrees>42.71804806776344776153564453125</LatitudeDegrees>
              <LongitudeDegrees>-0.20386154763400554656982421875</LongitudeDegrees>
            </Position>
            <AltitudeMeters>2222.39990234375</AltitudeMeters>
            <DistanceMeters>NAN</DistanceMeters>
          </Trackpoint>
          <Trackpoint>
            <Time>2021-07-18T09:13:12.000Z</Time>
            <Position>
              <LatitudeDegrees>42.71804806776344776153564453125</LatitudeDegrees>
              <LongitudeDegrees>-0.20386154763400554656982421875</LongitudeDegrees>
            </Position>
            <AltitudeMeters>2222.39990234375</AltitudeMeters>
            <DistanceMeters>NAN</DistanceMeters>
          </Trackpoint>
          <Trackpoint>
            <Time>2021-07-18T09:13:38.000Z</Time>
            <Position>
              <LatitudeDegrees>42.71802711300551891326904296875</LatitudeDegrees>
              <LongitudeDegrees>-0.203850232064723968505859375</LongitudeDegrees>
            </Position>
            <AltitudeMeters>2222.199951171875</AltitudeMeters>
            <DistanceMeters>NAN</DistanceMeters>
          </Trackpoint>
          <Trackpoint>
            <Time>2021-07-18T09:13:43.000Z</Time>
            <Position>
              <LatitudeDegrees>42.7179938368499279022216796875</LatitudeDegrees>
              <LongitudeDegrees>-0.203801952302455902099609375</LongitudeDegrees>
            </Position>
            <AltitudeMeters>2223</AltitudeMeters>
            <DistanceMeters>NAN</DistanceMeters>
          </Trackpoint>
          <Trackpoint>
            <Time>2021-07-18T09:13:47.000Z</Time>
            <Position>
              <LatitudeDegrees>42.71796743385493755340576171875</LatitudeDegrees>
              <LongitudeDegrees>-0.20378175191581249237060546875</LongitudeDegrees>
            </Position>
            <AltitudeMeters>2222.800048828125</AltitudeMeters>
            <DistanceMeters>NAN</DistanceMeters>
          </Trackpoint>
          <Trackpoint>
            <Time>2021-07-18T09:13:56.000Z</Time>
            <Position>
              <LatitudeDegrees>42.71790205501019954681396484375</LatitudeDegrees>
              <LongitudeDegrees>-0.20374596118927001953125</LongitudeDegrees>
            </Position>
            <AltitudeMeters>2222.199951171875</AltitudeMeters>
            <DistanceMeters>NAN</DistanceMeters>
          </Trackpoint>
          <Trackpoint>
            <Time>2021-07-18T09:13:57.000Z</Time>
            <Position>
              <LatitudeDegrees>42.7178966067731380462646484375</LatitudeDegrees>
              <LongitudeDegrees>-0.2037427760660648345947265625</LongitudeDegrees>
            </Position>
            <AltitudeMeters>2222</AltitudeMeters>
            <DistanceMeters>NAN</DistanceMeters>
          </Trackpoint>
          <Trackpoint>
            <Time>2021-07-18T09:14:01.000Z</Time>
            <Position>
              <LatitudeDegrees>42.7178679406642913818359375</LatitudeDegrees>
              <LongitudeDegrees>-0.2037176303565502166748046875</LongitudeDegrees>
            </Position>
            <AltitudeMeters>2221.800048828125</AltitudeMeters>
            <DistanceMeters>NAN</DistanceMeters>
          </Trackpoint>
          <Trackpoint>
            <Time>2021-07-18T09:14:06.000Z</Time>
            <Position>
              <LatitudeDegrees>42.717826701700687408447265625</LatitudeDegrees>
              <LongitudeDegrees>-0.2037038840353488922119140625</LongitudeDegrees>
            </Position>
            <AltitudeMeters>2221</AltitudeMeters>
            <DistanceMeters>NAN</DistanceMeters>
          </Trackpoint>
          <Trackpoint>
            <Time>2021-07-18T09:14:12.000Z</Time>
            <Position>
              <LatitudeDegrees>42.71778571419417858123779296875</LatitudeDegrees>
              <LongitudeDegrees>-0.20369709469377994537353515625</LongitudeDegrees>
            </Position>
            <AltitudeMeters>2220.60009765625</AltitudeMeters>
            <DistanceMeters>NAN</DistanceMeters>
          </Trackpoint>
          <Trackpoint>
            <Time>2021-07-18T09:14:14.000Z</Time>
            <Position>
              <LatitudeDegrees>42.7177832834422588348388671875</LatitudeDegrees>
              <LongitudeDegrees>-0.20369675941765308380126953125</LongitudeDegrees>
            </Position>
            <AltitudeMeters>2220.60009765625</AltitudeMeters>
            <DistanceMeters>NAN</DistanceMeters>
          </Trackpoint>
          <Trackpoint>
            <Time>2021-07-18T09:14:15.000Z</Time>
            <Position>
              <LatitudeDegrees>42.71778068505227565765380859375</LatitudeDegrees>
              <LongitudeDegrees>-0.20369893871247768402099609375</LongitudeDegrees>
            </Position>
            <AltitudeMeters>2220.39990234375</AltitudeMeters>
            <DistanceMeters>NAN</DistanceMeters>
          </Trackpoint>
          <Trackpoint>
            <Time>2021-07-18T09:14:21.000Z</Time>
            <Position>
              <LatitudeDegrees>42.71775059401988983154296875</LatitudeDegrees>
              <LongitudeDegrees>-0.20370480604469776153564453125</LongitudeDegrees>
            </Position>
            <AltitudeMeters>2220</AltitudeMeters>
            <DistanceMeters>NAN</DistanceMeters>
          </Trackpoint>
          <Trackpoint>
            <Time>2021-07-18T09:14:31.000Z</Time>
            <Position>
              <LatitudeDegrees>42.71769971586763858795166015625</LatitudeDegrees>
              <LongitudeDegrees>-0.2036918140947818756103515625</LongitudeDegrees>
            </Position>
            <AltitudeMeters>2219.39990234375</AltitudeMeters>
            <DistanceMeters>NAN</DistanceMeters>
          </Trackpoint>
          <Trackpoint>
            <Time>2021-07-18T09:14:40.000Z</Time>
            <Position>
              <LatitudeDegrees>42.7176666073501110076904296875</LatitudeDegrees>
              <LongitudeDegrees>-0.2037058956921100616455078125</LongitudeDegrees>
            </Position>
            <AltitudeMeters>2218.800048828125</AltitudeMeters>
            <DistanceMeters>NAN</DistanceMeters>
          </Trackpoint>
          <Trackpoint>
            <Time>2021-07-18T09:14:42.000Z</Time>
            <Position>
              <LatitudeDegrees>42.7176622487604618072509765625</LatitudeDegrees>
              <LongitudeDegrees>-0.20370899699628353118896484375</LongitudeDegrees>
            </Position>
            <AltitudeMeters>2218.60009765625</AltitudeMeters>
            <DistanceMeters>NAN</DistanceMeters>
          </Trackpoint>
          <Trackpoint>
            <Time>2021-07-18T09:14:44.000Z</Time>
            <Position>
              <LatitudeDegrees>42.7176558785140514373779296875</LatitudeDegrees>
              <LongitudeDegrees>-0.20370162092149257659912109375</LongitudeDegrees>
            </Position>
            <AltitudeMeters>2218.800048828125</AltitudeMeters>
            <DistanceMeters>NAN</DistanceMeters>
          </Trackpoint>
          <Trackpoint>
            <Time>2021-07-18T09:14:47.000Z</Time>
            <Position>
              <LatitudeDegrees>42.71762494929134845733642578125</LatitudeDegrees>
              <LongitudeDegrees>-0.2037095837295055389404296875</LongitudeDegrees>
            </Position>
            <AltitudeMeters>2218.60009765625</AltitudeMeters>
            <DistanceMeters>NAN</DistanceMeters>
          </Trackpoint>
          <Trackpoint>
            <Time>2021-07-18T09:14:48.000Z</Time>
            <Position>
              <LatitudeDegrees>42.7176149748265743255615234375</LatitudeDegrees>
              <LongitudeDegrees>-0.20371251739561557769775390625</LongitudeDegrees>
            </Position>
            <AltitudeMeters>2218.60009765625</AltitudeMeters>
            <DistanceMeters>NAN</DistanceMeters>
          </Trackpoint>
          <Trackpoint>
            <Time>2021-07-18T09:14:58.000Z</Time>
            <Position>
              <LatitudeDegrees>42.7175395376980304718017578125</LatitudeDegrees>
              <LongitudeDegrees>-0.20367966033518314361572265625</LongitudeDegrees>
            </Position>
            <AltitudeMeters>2219.60009765625</AltitudeMeters>
            <DistanceMeters>NAN</DistanceMeters>
          </Trackpoint>
          <Trackpoint>
            <Time>2021-07-18T09:15:00.000Z</Time>
            <Position>
              <LatitudeDegrees>42.7175438962876796722412109375</LatitudeDegrees>
              <LongitudeDegrees>-0.20366373471915721893310546875</LongitudeDegrees>
            </Position>
            <AltitudeMeters>2220.199951171875</AltitudeMeters>
            <DistanceMeters>NAN</DistanceMeters>
          </Trackpoint>
          <Trackpoint>
            <Time>2021-07-18T09:15:02.000Z</Time>
            <Position>
              <LatitudeDegrees>42.7175445668399333953857421875</LatitudeDegrees>
              <LongitudeDegrees>-0.203661806881427764892578125</LongitudeDegrees>
            </Position>
            <AltitudeMeters>2220.39990234375</AltitudeMeters>
            <DistanceMeters>NAN</DistanceMeters>
          </Trackpoint>
          <Trackpoint>
            <Time>2021-07-18T09:15:05.000Z</Time>
            <Position>
              <LatitudeDegrees>42.71754414774477481842041015625</LatitudeDegrees>
              <LongitudeDegrees>-0.20366122014820575714111328125</LongitudeDegrees>
            </Position>
            <AltitudeMeters>2220.39990234375</AltitudeMeters>
            <DistanceMeters>NAN</DistanceMeters>
          </Trackpoint>
          <Trackpoint>
            <Time>2021-07-18T09:15:10.000Z</Time>
            <Position>
              <LatitudeDegrees>42.717549093067646026611328125</LatitudeDegrees>
              <LongitudeDegrees>-0.203648395836353302001953125</LongitudeDegrees>
            </Position>
            <AltitudeMeters>2221</AltitudeMeters>
            <DistanceMeters>NAN</DistanceMeters>
          </Trackpoint>
          <Trackpoint>
            <Time>2021-07-18T09:15:13.000Z</Time>
            <Position>
              <LatitudeDegrees>42.7175273001194000244140625</LatitudeDegrees>
              <LongitudeDegrees>-0.20365065895020961761474609375</LongitudeDegrees>
            </Position>
            <AltitudeMeters>2220.39990234375</AltitudeMeters>
            <DistanceMeters>NAN</DistanceMeters>
          </Trackpoint>
          <Trackpoint>
            <Time>2021-07-18T09:15:18.000Z</Time>
            <Position>
              <LatitudeDegrees>42.7175140567123889923095703125</LatitudeDegrees>
              <LongitudeDegrees>-0.20365267060697078704833984375</LongitudeDegrees>
            </Position>
            <AltitudeMeters>2220</AltitudeMeters>
            <DistanceMeters>NAN</DistanceMeters>
          </Trackpoint>
          <Trackpoint>
            <Time>2021-07-18T09:15:24.000Z</Time>
            <Position>
              <LatitudeDegrees>42.71749536506831645965576171875</LatitudeDegrees>
              <LongitudeDegrees>-0.20364562980830669403076171875</LongitudeDegrees>
            </Position>
            <AltitudeMeters>2219.800048828125</AltitudeMeters>
            <DistanceMeters>NAN</DistanceMeters>
          </Trackpoint>
          <Trackpoint>
            <Time>2021-07-18T09:15:28.000Z</Time>
            <Position>
              <LatitudeDegrees>42.71749251522123813629150390625</LatitudeDegrees>
              <LongitudeDegrees>-0.203654430806636810302734375</LongitudeDegrees>
            </Position>
            <AltitudeMeters>2219.39990234375</AltitudeMeters>
            <DistanceMeters>NAN</DistanceMeters>
          </Trackpoint>
          <Trackpoint>
            <Time>2021-07-18T09:15:30.000Z</Time>
            <Position>
              <LatitudeDegrees>42.71749000065028667449951171875</LatitudeDegrees>
              <LongitudeDegrees>-0.20366222597658634185791015625</LongitudeDegrees>
            </Position>
            <AltitudeMeters>2219</AltitudeMeters>
            <DistanceMeters>NAN</DistanceMeters>
          </Trackpoint>
          <Trackpoint>
            <Time>2021-07-18T09:15:36.000Z</Time>
            <Position>
              <LatitudeDegrees>42.71745999343693256378173828125</LatitudeDegrees>
              <LongitudeDegrees>-0.2036740444600582122802734375</LongitudeDegrees>
            </Position>
            <AltitudeMeters>2217.800048828125</AltitudeMeters>
            <DistanceMeters>NAN</DistanceMeters>
          </Trackpoint>
          <Trackpoint>
            <Time>2021-07-18T09:15:38.000Z</Time>
            <Position>
              <LatitudeDegrees>42.71745555102825164794921875</LatitudeDegrees>
              <LongitudeDegrees>-0.20367228426039218902587890625</LongitudeDegrees>
            </Position>
            <AltitudeMeters>2217.60009765625</AltitudeMeters>
            <DistanceMeters>NAN</DistanceMeters>
          </Trackpoint>
          <Trackpoint>
            <Time>2021-07-18T09:15:40.000Z</Time>
            <Position>
              <LatitudeDegrees>42.71745261736214160919189453125</LatitudeDegrees>
              <LongitudeDegrees>-0.20367697812616825103759765625</LongitudeDegrees>
            </Position>
            <AltitudeMeters>2217.39990234375</AltitudeMeters>
            <DistanceMeters>NAN</DistanceMeters>
          </Trackpoint>
          <Trackpoint>
            <Time>2021-07-18T09:15:47.000Z</Time>
            <Position>
              <LatitudeDegrees>42.71742428652942180633544921875</LatitudeDegrees>
              <LongitudeDegrees>-0.203691311180591583251953125</LongitudeDegrees>
            </Position>
            <AltitudeMeters>2216.199951171875</AltitudeMeters>
            <DistanceMeters>NAN</DistanceMeters>
          </Trackpoint>
          <Trackpoint>
            <Time>2021-07-18T09:15:51.000Z</Time>
            <Position>
              <LatitudeDegrees>42.71741422824561595916748046875</LatitudeDegrees>
              <LongitudeDegrees>-0.2036936581134796142578125</LongitudeDegrees>
            </Position>
            <AltitudeMeters>2215.800048828125</AltitudeMeters>
            <DistanceMeters>NAN</DistanceMeters>
          </Trackpoint>
          <Trackpoint>
            <Time>2021-07-18T09:15:59.000Z</Time>
            <Position>
              <LatitudeDegrees>42.71741037257015705108642578125</LatitudeDegrees>
              <LongitudeDegrees>-0.203728862106800079345703125</LongitudeDegrees>
            </Position>
            <AltitudeMeters>2214.199951171875</AltitudeMeters>
            <DistanceMeters>NAN</DistanceMeters>
          </Trackpoint>
          <Trackpoint>
            <Time>2021-07-18T09:16:00.000Z</Time>
            <Position>
              <LatitudeDegrees>42.71741322241723537445068359375</LatitudeDegrees>
              <LongitudeDegrees>-0.203732885420322418212890625</LongitudeDegrees>
            </Position>
            <AltitudeMeters>2214.199951171875</AltitudeMeters>
            <DistanceMeters>NAN</DistanceMeters>
          </Trackpoint>
          <Trackpoint>
            <Time>2021-07-18T09:16:09.000Z</Time>
            <Position>
              <LatitudeDegrees>42.71739193238317966461181640625</LatitudeDegrees>
              <LongitudeDegrees>-0.2037685923278331756591796875</LongitudeDegrees>
            </Position>
            <AltitudeMeters>2212.199951171875</AltitudeMeters>
            <DistanceMeters>NAN</DistanceMeters>
          </Trackpoint>
          <Trackpoint>
            <Time>2021-07-18T09:16:14.000Z</Time>
            <Position>
              <LatitudeDegrees>42.71739193238317966461181640625</LatitudeDegrees>
              <LongitudeDegrees>-0.2037685923278331756591796875</LongitudeDegrees>
            </Position>
            <AltitudeMeters>2212.199951171875</AltitudeMeters>
            <DistanceMeters>NAN</DistanceMeters>
          </Trackpoint>
          <Trackpoint>
            <Time>2021-07-18T09:16:47.000Z</Time>
            <Position>
              <LatitudeDegrees>42.717357315123081207275390625</LatitudeDegrees>
              <LongitudeDegrees>-0.2038037963211536407470703125</LongitudeDegrees>
            </Position>
            <AltitudeMeters>2210</AltitudeMeters>
            <DistanceMeters>NAN</DistanceMeters>
          </Trackpoint>
          <Trackpoint>
            <Time>2021-07-18T09:16:51.000Z</Time>
            <Position>
              <LatitudeDegrees>42.7173400484025478363037109375</LatitudeDegrees>
              <LongitudeDegrees>-0.20380471833050251007080078125</LongitudeDegrees>
            </Position>
            <AltitudeMeters>2209.60009765625</AltitudeMeters>
            <DistanceMeters>NAN</DistanceMeters>
          </Trackpoint>
          <Trackpoint>
            <Time>2021-07-18T09:16:59.000Z</Time>
            <Position>
              <LatitudeDegrees>42.71724642254412174224853515625</LatitudeDegrees>
              <LongitudeDegrees>-0.20382265560328960418701171875</LongitudeDegrees>
            </Position>
            <AltitudeMeters>2207.60009765625</AltitudeMeters>
            <DistanceMeters>NAN</DistanceMeters>
          </Trackpoint>
          <Trackpoint>
            <Time>2021-07-18T09:17:02.000Z</Time>
            <Position>
              <LatitudeDegrees>42.7171933650970458984375</LatitudeDegrees>
              <LongitudeDegrees>-0.2038239128887653350830078125</LongitudeDegrees>
            </Position>
            <AltitudeMeters>2208.199951171875</AltitudeMeters>
            <DistanceMeters>NAN</DistanceMeters>
          </Trackpoint>
          <Trackpoint>
            <Time>2021-07-18T09:17:05.000Z</Time>
            <Position>
              <LatitudeDegrees>42.717147767543792724609375</LatitudeDegrees>
              <LongitudeDegrees>-0.20382667891681194305419921875</LongitudeDegrees>
            </Position>
            <AltitudeMeters>2208.60009765625</AltitudeMeters>
            <DistanceMeters>NAN</DistanceMeters>
          </Trackpoint>
          <Trackpoint>
            <Time>2021-07-18T09:17:09.000Z</Time>
            <Position>
              <LatitudeDegrees>42.71712086163461208343505859375</LatitudeDegrees>
              <LongitudeDegrees>-0.20381259731948375701904296875</LongitudeDegrees>
            </Position>
            <AltitudeMeters>2209.39990234375</AltitudeMeters>
            <DistanceMeters>NAN</DistanceMeters>
          </Trackpoint>
          <Trackpoint>
            <Time>2021-07-18T09:17:12.000Z</Time>
            <Position>
              <LatitudeDegrees>42.7170959673821926116943359375</LatitudeDegrees>
              <LongitudeDegrees>-0.2038061432540416717529296875</LongitudeDegrees>
            </Position>
            <AltitudeMeters>2210</AltitudeMeters>
            <DistanceMeters>NAN</DistanceMeters>
          </Trackpoint>
          <Trackpoint>
            <Time>2021-07-18T09:17:16.000Z</Time>
            <Position>
              <LatitudeDegrees>42.7170698158442974090576171875</LatitudeDegrees>
              <LongitudeDegrees>-0.2038071490824222564697265625</LongitudeDegrees>
            </Position>
            <AltitudeMeters>2210.199951171875</AltitudeMeters>
            <DistanceMeters>NAN</DistanceMeters>
          </Trackpoint>
          <Trackpoint>
            <Time>2021-07-18T09:17:24.000Z</Time>
            <Position>
              <LatitudeDegrees>42.71701156161725521087646484375</LatitudeDegrees>
              <LongitudeDegrees>-0.20382307469844818115234375</LongitudeDegrees>
            </Position>
            <AltitudeMeters>2210.199951171875</AltitudeMeters>
            <DistanceMeters>NAN</DistanceMeters>
          </Trackpoint>
          <Trackpoint>
            <Time>2021-07-18T09:17:25.000Z</Time>
            <Position>
              <LatitudeDegrees>42.7170014195144176483154296875</LatitudeDegrees>
              <LongitudeDegrees>-0.2038272656500339508056640625</LongitudeDegrees>
            </Position>
            <AltitudeMeters>2210.199951171875</AltitudeMeters>
            <DistanceMeters>NAN</DistanceMeters>
          </Trackpoint>
          <Trackpoint>
            <Time>2021-07-18T09:17:34.000Z</Time>
            <Position>
              <LatitudeDegrees>42.7169078774750232696533203125</LatitudeDegrees>
              <LongitudeDegrees>-0.20383522845804691314697265625</LongitudeDegrees>
            </Position>
            <AltitudeMeters>2211.60009765625</AltitudeMeters>
            <DistanceMeters>NAN</DistanceMeters>
          </Trackpoint>
          <Trackpoint>
            <Time>2021-07-18T09:17:40.000Z</Time>
            <Position>
              <LatitudeDegrees>42.71688449196517467498779296875</LatitudeDegrees>
              <LongitudeDegrees>-0.203877054154872894287109375</LongitudeDegrees>
            </Position>
            <AltitudeMeters>2210.199951171875</AltitudeMeters>
            <DistanceMeters>NAN</DistanceMeters>
          </Trackpoint>
          <Trackpoint>
            <Time>2021-07-18T09:17:48.000Z</Time>
            <Position>
              <LatitudeDegrees>42.71681861020624637603759765625</LatitudeDegrees>
              <LongitudeDegrees>-0.20391636528074741363525390625</LongitudeDegrees>
            </Position>
            <AltitudeMeters>2209.60009765625</AltitudeMeters>
            <DistanceMeters>NAN</DistanceMeters>
          </Trackpoint>
          <Trackpoint>
            <Time>2021-07-18T09:17:54.000Z</Time>
            <Position>
              <LatitudeDegrees>42.716761864721775054931640625</LatitudeDegrees>
              <LongitudeDegrees>-0.20394771359860897064208984375</LongitudeDegrees>
            </Position>
            <AltitudeMeters>2209.199951171875</AltitudeMeters>
            <DistanceMeters>NAN</DistanceMeters>
          </Trackpoint>
          <Trackpoint>
            <Time>2021-07-18T09:18:02.000Z</Time>
            <Position>
              <LatitudeDegrees>42.71672104485332965850830078125</LatitudeDegrees>
              <LongitudeDegrees>-0.20400001667439937591552734375</LongitudeDegrees>
            </Position>
            <AltitudeMeters>2207.60009765625</AltitudeMeters>
            <DistanceMeters>NAN</DistanceMeters>
          </Trackpoint>
          <Trackpoint>
            <Time>2021-07-18T09:18:17.000Z</Time>
            <Position>
              <LatitudeDegrees>42.71669338457286357879638671875</LatitudeDegrees>
              <LongitudeDegrees>-0.20403270609676837921142578125</LongitudeDegrees>
            </Position>
            <AltitudeMeters>2206.199951171875</AltitudeMeters>
            <DistanceMeters>NAN</DistanceMeters>
          </Trackpoint>
          <Trackpoint>
            <Time>2021-07-18T09:18:32.000Z</Time>
            <Position>
              <LatitudeDegrees>42.71668969653546810150146484375</LatitudeDegrees>
              <LongitudeDegrees>-0.20403052680194377899169921875</LongitudeDegrees>
            </Position>
            <AltitudeMeters>2206.39990234375</AltitudeMeters>
            <DistanceMeters>NAN</DistanceMeters>
          </Trackpoint>
          <Trackpoint>
            <Time>2021-07-18T09:18:45.000Z</Time>
            <Position>
              <LatitudeDegrees>42.716673351824283599853515625</LatitudeDegrees>
              <LongitudeDegrees>-0.20403907634317874908447265625</LongitudeDegrees>
            </Position>
            <AltitudeMeters>2206</AltitudeMeters>
            <DistanceMeters>NAN</DistanceMeters>
          </Trackpoint>
          <Trackpoint>
            <Time>2021-07-18T09:18:49.000Z</Time>
            <Position>
              <LatitudeDegrees>42.71666354499757289886474609375</LatitudeDegrees>
              <LongitudeDegrees>-0.2040428481996059417724609375</LongitudeDegrees>
            </Position>
            <AltitudeMeters>2205.800048828125</AltitudeMeters>
            <DistanceMeters>NAN</DistanceMeters>
          </Trackpoint>
          <Trackpoint>
            <Time>2021-07-18T09:19:01.000Z</Time>
            <Position>
              <LatitudeDegrees>42.7166322804987430572509765625</LatitudeDegrees>
              <LongitudeDegrees>-0.20406447350978851318359375</LongitudeDegrees>
            </Position>
            <AltitudeMeters>2204.800048828125</AltitudeMeters>
            <DistanceMeters>NAN</DistanceMeters>
          </Trackpoint>
          <Trackpoint>
            <Time>2021-07-18T09:19:05.000Z</Time>
            <Position>
              <LatitudeDegrees>42.7166242338716983795166015625</LatitudeDegrees>
              <LongitudeDegrees>-0.20408232696354389190673828125</LongitudeDegrees>
            </Position>
            <AltitudeMeters>2204</AltitudeMeters>
            <DistanceMeters>NAN</DistanceMeters>
          </Trackpoint>
          <Trackpoint>
            <Time>2021-07-18T09:19:10.000Z</Time>
            <Position>
              <LatitudeDegrees>42.71660084836184978485107421875</LatitudeDegrees>
              <LongitudeDegrees>-0.20410948432981967926025390625</LongitudeDegrees>
            </Position>
            <AltitudeMeters>2203.199951171875</AltitudeMeters>
            <DistanceMeters>NAN</DistanceMeters>
          </Trackpoint>
          <Trackpoint>
            <Time>2021-07-18T09:19:12.000Z</Time>
            <Position>
              <LatitudeDegrees>42.71659280173480510711669921875</LatitudeDegrees>
              <LongitudeDegrees>-0.20411686040461063385009765625</LongitudeDegrees>
            </Position>
            <AltitudeMeters>2203</AltitudeMeters>
            <DistanceMeters>NAN</DistanceMeters>
          </Trackpoint>
          <Trackpoint>
            <Time>2021-07-18T09:19:14.000Z</Time>
            <Position>
              <LatitudeDegrees>42.71658777259290218353271484375</LatitudeDegrees>
              <LongitudeDegrees>-0.20412205718457698822021484375</LongitudeDegrees>
            </Position>
            <AltitudeMeters>2202.800048828125</AltitudeMeters>
            <DistanceMeters>NAN</DistanceMeters>
          </Trackpoint>
          <Trackpoint>
            <Time>2021-07-18T09:19:17.000Z</Time>
            <Position>
              <LatitudeDegrees>42.71656564436852931976318359375</LatitudeDegrees>
              <LongitudeDegrees>-0.2041330374777317047119140625</LongitudeDegrees>
            </Position>
            <AltitudeMeters>2202.39990234375</AltitudeMeters>
            <DistanceMeters>NAN</DistanceMeters>
          </Trackpoint>
          <Trackpoint>
            <Time>2021-07-18T09:19:20.000Z</Time>
            <Position>
              <LatitudeDegrees>42.716556005179882049560546875</LatitudeDegrees>
              <LongitudeDegrees>-0.2041474543511867523193359375</LongitudeDegrees>
            </Position>
            <AltitudeMeters>2202</AltitudeMeters>
            <DistanceMeters>NAN</DistanceMeters>
          </Trackpoint>
          <Trackpoint>
            <Time>2021-07-18T09:19:35.000Z</Time>
            <Position>
              <LatitudeDegrees>42.71651518531143665313720703125</LatitudeDegrees>
              <LongitudeDegrees>-0.20423789508640766143798828125</LongitudeDegrees>
            </Position>
            <AltitudeMeters>2199</AltitudeMeters>
            <DistanceMeters>NAN</DistanceMeters>
          </Trackpoint>
          <Trackpoint>
            <Time>2021-07-18T09:19:37.000Z</Time>
            <Position>
              <LatitudeDegrees>42.716505713760852813720703125</LatitudeDegrees>
              <LongitudeDegrees>-0.2042674832046031951904296875</LongitudeDegrees>
            </Position>
            <AltitudeMeters>2198</AltitudeMeters>
            <DistanceMeters>NAN</DistanceMeters>
          </Trackpoint>
          <Trackpoint>
            <Time>2021-07-18T09:19:43.000Z</Time>
            <Position>
              <LatitudeDegrees>42.7164840884506702423095703125</LatitudeDegrees>
              <LongitudeDegrees>-0.20432875491678714752197265625</LongitudeDegrees>
            </Position>
            <AltitudeMeters>2196</AltitudeMeters>
            <DistanceMeters>NAN</DistanceMeters>
          </Trackpoint>
          <Trackpoint>
            <Time>2021-07-18T09:19:45.000Z</Time>
            <Position>
              <LatitudeDegrees>42.716478891670703887939453125</LatitudeDegrees>
              <LongitudeDegrees>-0.20434677600860595703125</LongitudeDegrees>
            </Position>
            <AltitudeMeters>2195.39990234375</AltitudeMeters>
            <DistanceMeters>NAN</DistanceMeters>
          </Trackpoint>
          <Trackpoint>
            <Time>2021-07-18T09:19:50.000Z</Time>
            <Position>
              <LatitudeDegrees>42.7164616249501705169677734375</LatitudeDegrees>
              <LongitudeDegrees>-0.204394720494747161865234375</LongitudeDegrees>
            </Position>
            <AltitudeMeters>2194</AltitudeMeters>
            <DistanceMeters>NAN</DistanceMeters>
          </Trackpoint>
          <Trackpoint>
            <Time>2021-07-18T09:19:53.000Z</Time>
            <Position>
              <LatitudeDegrees>42.71645911037921905517578125</LatitudeDegrees>
              <LongitudeDegrees>-0.2044250629842281341552734375</LongitudeDegrees>
            </Position>
            <AltitudeMeters>2193.39990234375</AltitudeMeters>
            <DistanceMeters>NAN</DistanceMeters>
          </Trackpoint>
          <Trackpoint>
            <Time>2021-07-18T09:19:55.000Z</Time>
            <Position>
              <LatitudeDegrees>42.71645735017955303192138671875</LatitudeDegrees>
              <LongitudeDegrees>-0.20444911904633045196533203125</LongitudeDegrees>
            </Position>
            <AltitudeMeters>2192.800048828125</AltitudeMeters>
            <DistanceMeters>NAN</DistanceMeters>
          </Trackpoint>
          <Trackpoint>
            <Time>2021-07-18T09:19:57.000Z</Time>
            <Position>
              <LatitudeDegrees>42.71645382978022098541259765625</LatitudeDegrees>
              <LongitudeDegrees>-0.20446571521461009979248046875</LongitudeDegrees>
            </Position>
            <AltitudeMeters>2192.39990234375</AltitudeMeters>
            <DistanceMeters>NAN</DistanceMeters>
          </Trackpoint>
          <Trackpoint>
            <Time>2021-07-18T09:20:04.000Z</Time>
            <Position>
              <LatitudeDegrees>42.71643857471644878387451171875</LatitudeDegrees>
              <LongitudeDegrees>-0.20454215817153453826904296875</LongitudeDegrees>
            </Position>
            <AltitudeMeters>2190.199951171875</AltitudeMeters>
            <DistanceMeters>NAN</DistanceMeters>
          </Trackpoint>
          <Trackpoint>
            <Time>2021-07-18T09:20:11.000Z</Time>
            <Position>
              <LatitudeDegrees>42.7164220623672008514404296875</LatitudeDegrees>
              <LongitudeDegrees>-0.204583816230297088623046875</LongitudeDegrees>
            </Position>
            <AltitudeMeters>2189</AltitudeMeters>
            <DistanceMeters>NAN</DistanceMeters>
          </Trackpoint>
          <Trackpoint>
            <Time>2021-07-18T09:20:13.000Z</Time>
            <Position>
              <LatitudeDegrees>42.71641024388372898101806640625</LatitudeDegrees>
              <LongitudeDegrees>-0.2045816369354724884033203125</LongitudeDegrees>
            </Position>
            <AltitudeMeters>2188.800048828125</AltitudeMeters>
            <DistanceMeters>NAN</DistanceMeters>
          </Trackpoint>
          <Trackpoint>
            <Time>2021-07-18T09:20:15.000Z</Time>
            <Position>
              <LatitudeDegrees>42.7164034545421600341796875</LatitudeDegrees>
              <LongitudeDegrees>-0.20457149483263492584228515625</LongitudeDegrees>
            </Position>
            <AltitudeMeters>2189</AltitudeMeters>
            <DistanceMeters>NAN</DistanceMeters>
          </Trackpoint>
          <Trackpoint>
            <Time>2021-07-18T09:20:20.000Z</Time>
            <Position>
              <LatitudeDegrees>42.71640102379024028778076171875</LatitudeDegrees>
              <LongitudeDegrees>-0.204565040767192840576171875</LongitudeDegrees>
            </Position>
            <AltitudeMeters>2189</AltitudeMeters>
            <DistanceMeters>NAN</DistanceMeters>
          </Trackpoint>
          <Trackpoint>
            <Time>2021-07-18T09:20:27.000Z</Time>
            <Position>
              <LatitudeDegrees>42.71640102379024028778076171875</LatitudeDegrees>
              <LongitudeDegrees>-0.204565040767192840576171875</LongitudeDegrees>
            </Position>
            <AltitudeMeters>2189</AltitudeMeters>
            <DistanceMeters>NAN</DistanceMeters>
          </Trackpoint>
          <Trackpoint>
            <Time>2021-07-18T09:20:42.000Z</Time>
            <Position>
              <LatitudeDegrees>42.716356851160526275634765625</LatitudeDegrees>
              <LongitudeDegrees>-0.20450980402529239654541015625</LongitudeDegrees>
            </Position>
            <AltitudeMeters>2189.60009765625</AltitudeMeters>
            <DistanceMeters>NAN</DistanceMeters>
          </Trackpoint>
          <Trackpoint>
            <Time>2021-07-18T09:20:52.000Z</Time>
            <Position>
              <LatitudeDegrees>42.71633866243064403533935546875</LatitudeDegrees>
              <LongitudeDegrees>-0.20449362695217132568359375</LongitudeDegrees>
            </Position>
            <AltitudeMeters>2189.800048828125</AltitudeMeters>
            <DistanceMeters>NAN</DistanceMeters>
          </Trackpoint>
          <Trackpoint>
            <Time>2021-07-18T09:20:54.000Z</Time>
            <Position>
              <LatitudeDegrees>42.71633866243064403533935546875</LatitudeDegrees>
              <LongitudeDegrees>-0.20449362695217132568359375</LongitudeDegrees>
            </Position>
            <AltitudeMeters>2189.800048828125</AltitudeMeters>
            <DistanceMeters>NAN</DistanceMeters>
          </Trackpoint>
          <Trackpoint>
            <Time>2021-07-18T09:20:58.000Z</Time>
            <Position>
              <LatitudeDegrees>42.7163390815258026123046875</LatitudeDegrees>
              <LongitudeDegrees>-0.20449186675250530242919921875</LongitudeDegrees>
            </Position>
            <AltitudeMeters>2189.800048828125</AltitudeMeters>
            <DistanceMeters>NAN</DistanceMeters>
          </Trackpoint>
          <Trackpoint>
            <Time>2021-07-18T09:21:00.000Z</Time>
            <Position>
              <LatitudeDegrees>42.7163390815258026123046875</LatitudeDegrees>
              <LongitudeDegrees>-0.20449119620025157928466796875</LongitudeDegrees>
            </Position>
            <AltitudeMeters>2189.800048828125</AltitudeMeters>
            <DistanceMeters>NAN</DistanceMeters>
          </Trackpoint>
          <Trackpoint>
            <Time>2021-07-18T09:21:14.000Z</Time>
            <Position>
              <LatitudeDegrees>42.716334052383899688720703125</LatitudeDegrees>
              <LongitudeDegrees>-0.20447778515517711639404296875</LongitudeDegrees>
            </Position>
            <AltitudeMeters>2190</AltitudeMeters>
            <DistanceMeters>NAN</DistanceMeters>
          </Trackpoint>
          <Trackpoint>
            <Time>2021-07-18T09:21:17.000Z</Time>
            <Position>
              <LatitudeDegrees>42.71633162163197994232177734375</LatitudeDegrees>
              <LongitudeDegrees>-0.20447309128940105438232421875</LongitudeDegrees>
            </Position>
            <AltitudeMeters>2190.199951171875</AltitudeMeters>
            <DistanceMeters>NAN</DistanceMeters>
          </Trackpoint>
          <Trackpoint>
            <Time>2021-07-18T09:21:19.000Z</Time>
            <Position>
              <LatitudeDegrees>42.71633036434650421142578125</LatitudeDegrees>
              <LongitudeDegrees>-0.2044706605374813079833984375</LongitudeDegrees>
            </Position>
            <AltitudeMeters>2190.199951171875</AltitudeMeters>
            <DistanceMeters>NAN</DistanceMeters>
          </Trackpoint>
          <Trackpoint>
            <Time>2021-07-18T09:21:40.000Z</Time>
            <Position>
              <LatitudeDegrees>42.7162946574389934539794921875</LatitudeDegrees>
              <LongitudeDegrees>-0.20438659004867076873779296875</LongitudeDegrees>
            </Position>
            <AltitudeMeters>2192</AltitudeMeters>
            <DistanceMeters>NAN</DistanceMeters>
          </Trackpoint>
          <Trackpoint>
            <Time>2021-07-18T09:21:43.000Z</Time>
            <Position>
              <LatitudeDegrees>42.71627479232847690582275390625</LatitudeDegrees>
              <LongitudeDegrees>-0.20434677600860595703125</LongitudeDegrees>
            </Position>
            <AltitudeMeters>2193</AltitudeMeters>
            <DistanceMeters>NAN</DistanceMeters>
          </Trackpoint>
          <Trackpoint>
            <Time>2021-07-18T09:21:47.000Z</Time>
            <Position>
              <LatitudeDegrees>42.7162500657141208648681640625</LatitudeDegrees>
              <LongitudeDegrees>-0.20428709685802459716796875</LongitudeDegrees>
            </Position>
            <AltitudeMeters>2194.60009765625</AltitudeMeters>
            <DistanceMeters>NAN</DistanceMeters>
          </Trackpoint>
          <Trackpoint>
            <Time>2021-07-18T09:21:49.000Z</Time>
            <Position>
              <LatitudeDegrees>42.716246210038661956787109375</LatitudeDegrees>
              <LongitudeDegrees>-0.2042741887271404266357421875</LongitudeDegrees>
            </Position>
            <AltitudeMeters>2194.800048828125</AltitudeMeters>
            <DistanceMeters>NAN</DistanceMeters>
          </Trackpoint>
          <Trackpoint>
            <Time>2021-07-18T09:21:51.000Z</Time>
            <Position>
              <LatitudeDegrees>42.71624444983899593353271484375</LatitudeDegrees>
              <LongitudeDegrees>-0.20426237024366855621337890625</LongitudeDegrees>
            </Position>
            <AltitudeMeters>2195</AltitudeMeters>
            <DistanceMeters>NAN</DistanceMeters>
          </Trackpoint>
          <Trackpoint>
            <Time>2021-07-18T09:21:52.000Z</Time>
            <Position>
              <LatitudeDegrees>42.7162447012960910797119140625</LatitudeDegrees>
              <LongitudeDegrees>-0.20425734110176563262939453125</LongitudeDegrees>
            </Position>
            <AltitudeMeters>2195.199951171875</AltitudeMeters>
            <DistanceMeters>NAN</DistanceMeters>
          </Trackpoint>
          <Trackpoint>
            <Time>2021-07-18T09:21:55.000Z</Time>
            <Position>
              <LatitudeDegrees>42.71624143235385417938232421875</LatitudeDegrees>
              <LongitudeDegrees>-0.20425013266503810882568359375</LongitudeDegrees>
            </Position>
            <AltitudeMeters>2195.199951171875</AltitudeMeters>
            <DistanceMeters>NAN</DistanceMeters>
          </Trackpoint>
          <Trackpoint>
            <Time>2021-07-18T09:21:58.000Z</Time>
            <Position>
              <LatitudeDegrees>42.71623606793582439422607421875</LatitudeDegrees>
              <LongitudeDegrees>-0.20423487760126590728759765625</LongitudeDegrees>
            </Position>
            <AltitudeMeters>2195.39990234375</AltitudeMeters>
            <DistanceMeters>NAN</DistanceMeters>
          </Trackpoint>
          <Trackpoint>
            <Time>2021-07-18T09:22:04.000Z</Time>
            <Position>
              <LatitudeDegrees>42.71623003296554088592529296875</LatitudeDegrees>
              <LongitudeDegrees>-0.204220712184906005859375</LongitudeDegrees>
            </Position>
            <AltitudeMeters>2195.60009765625</AltitudeMeters>
            <DistanceMeters>NAN</DistanceMeters>
          </Trackpoint>
          <Trackpoint>
            <Time>2021-07-18T09:22:13.000Z</Time>
            <Position>
              <LatitudeDegrees>42.71621125750243663787841796875</LatitudeDegrees>
              <LongitudeDegrees>-0.2041605301201343536376953125</LongitudeDegrees>
            </Position>
            <AltitudeMeters>2196.39990234375</AltitudeMeters>
            <DistanceMeters>NAN</DistanceMeters>
          </Trackpoint>
          <Trackpoint>
            <Time>2021-07-18T09:22:20.000Z</Time>
            <Position>
              <LatitudeDegrees>42.716203629970550537109375</LatitudeDegrees>
              <LongitudeDegrees>-0.204117782413959503173828125</LongitudeDegrees>
            </Position>
            <AltitudeMeters>2197</AltitudeMeters>
            <DistanceMeters>NAN</DistanceMeters>
          </Trackpoint>
          <Trackpoint>
            <Time>2021-07-18T09:22:21.000Z</Time>
            <Position>
              <LatitudeDegrees>42.7162037976086139678955078125</LatitudeDegrees>
              <LongitudeDegrees>-0.204107053577899932861328125</LongitudeDegrees>
            </Position>
            <AltitudeMeters>2197.39990234375</AltitudeMeters>
            <DistanceMeters>NAN</DistanceMeters>
          </Trackpoint>
          <Trackpoint>
            <Time>2021-07-18T09:22:23.000Z</Time>
            <Position>
              <LatitudeDegrees>42.71620036102831363677978515625</LatitudeDegrees>
              <LongitudeDegrees>-0.20408727228641510009765625</LongitudeDegrees>
            </Position>
            <AltitudeMeters>2197.60009765625</AltitudeMeters>
            <DistanceMeters>NAN</DistanceMeters>
          </Trackpoint>
          <Trackpoint>
            <Time>2021-07-18T09:22:25.000Z</Time>
            <Position>
              <LatitudeDegrees>42.71620589308440685272216796875</LatitudeDegrees>
              <LongitudeDegrees>-0.204070173203945159912109375</LongitudeDegrees>
            </Position>
            <AltitudeMeters>2198.39990234375</AltitudeMeters>
            <DistanceMeters>NAN</DistanceMeters>
          </Trackpoint>
          <Trackpoint>
            <Time>2021-07-18T09:22:29.000Z</Time>
            <Position>
              <LatitudeDegrees>42.7162021212279796600341796875</LatitudeDegrees>
              <LongitudeDegrees>-0.20404159091413021087646484375</LongitudeDegrees>
            </Position>
            <AltitudeMeters>2199.39990234375</AltitudeMeters>
            <DistanceMeters>NAN</DistanceMeters>
          </Trackpoint>
          <Trackpoint>
            <Time>2021-07-18T09:22:31.000Z</Time>
            <Position>
              <LatitudeDegrees>42.7161863632500171661376953125</LatitudeDegrees>
              <LongitudeDegrees>-0.2040267549455165863037109375</LongitudeDegrees>
            </Position>
            <AltitudeMeters>2199</AltitudeMeters>
            <DistanceMeters>NAN</DistanceMeters>
          </Trackpoint>
          <Trackpoint>
            <Time>2021-07-18T09:22:34.000Z</Time>
            <Position>
              <LatitudeDegrees>42.71617052145302295684814453125</LatitudeDegrees>
              <LongitudeDegrees>-0.20399448461830615997314453125</LongitudeDegrees>
            </Position>
            <AltitudeMeters>2199.199951171875</AltitudeMeters>
            <DistanceMeters>NAN</DistanceMeters>
          </Trackpoint>
          <Trackpoint>
            <Time>2021-07-18T09:22:39.000Z</Time>
            <Position>
              <LatitudeDegrees>42.716159708797931671142578125</LatitudeDegrees>
              <LongitudeDegrees>-0.2039298601448535919189453125</LongitudeDegrees>
            </Position>
            <AltitudeMeters>2200.39990234375</AltitudeMeters>
            <DistanceMeters>NAN</DistanceMeters>
          </Trackpoint>
          <Trackpoint>
            <Time>2021-07-18T09:22:41.000Z</Time>
            <Position>
              <LatitudeDegrees>42.71614973433315753936767578125</LatitudeDegrees>
              <LongitudeDegrees>-0.20390664227306842803955078125</LongitudeDegrees>
            </Position>
            <AltitudeMeters>2200.60009765625</AltitudeMeters>
            <DistanceMeters>NAN</DistanceMeters>
          </Trackpoint>
          <Trackpoint>
            <Time>2021-07-18T09:22:47.000Z</Time>
            <Position>
              <LatitudeDegrees>42.716144956648349761962890625</LatitudeDegrees>
              <LongitudeDegrees>-0.203862972557544708251953125</LongitudeDegrees>
            </Position>
            <AltitudeMeters>2201.39990234375</AltitudeMeters>
            <DistanceMeters>NAN</DistanceMeters>
          </Trackpoint>
          <Trackpoint>
            <Time>2021-07-18T09:22:48.000Z</Time>
            <Position>
              <LatitudeDegrees>42.71614604629576206207275390625</LatitudeDegrees>
              <LongitudeDegrees>-0.20386322401463985443115234375</LongitudeDegrees>
            </Position>
            <AltitudeMeters>2201.39990234375</AltitudeMeters>
            <DistanceMeters>NAN</DistanceMeters>
          </Trackpoint>
          <Trackpoint>
            <Time>2021-07-18T09:22:50.000Z</Time>
            <Position>
              <LatitudeDegrees>42.71614755503833293914794921875</LatitudeDegrees>
              <LongitudeDegrees>-0.20386599004268646240234375</LongitudeDegrees>
            </Position>
            <AltitudeMeters>2201.39990234375</AltitudeMeters>
            <DistanceMeters>NAN</DistanceMeters>
          </Trackpoint>
          <Trackpoint>
            <Time>2021-07-18T09:22:57.000Z</Time>
            <Position>
              <LatitudeDegrees>42.71612743847072124481201171875</LatitudeDegrees>
              <LongitudeDegrees>-0.20384646020829677581787109375</LongitudeDegrees>
            </Position>
            <AltitudeMeters>2201</AltitudeMeters>
            <DistanceMeters>NAN</DistanceMeters>
          </Trackpoint>
          <Trackpoint>
            <Time>2021-07-18T09:23:04.000Z</Time>
            <Position>
              <LatitudeDegrees>42.71610371768474578857421875</LatitudeDegrees>
              <LongitudeDegrees>-0.20385065115988254547119140625</LongitudeDegrees>
            </Position>
            <AltitudeMeters>2199.800048828125</AltitudeMeters>
            <DistanceMeters>NAN</DistanceMeters>
          </Trackpoint>
          <Trackpoint>
            <Time>2021-07-18T09:23:05.000Z</Time>
            <Position>
              <LatitudeDegrees>42.7161012031137943267822265625</LatitudeDegrees>
              <LongitudeDegrees>-0.20385048352181911468505859375</LongitudeDegrees>
            </Position>
            <AltitudeMeters>2199.800048828125</AltitudeMeters>
            <DistanceMeters>NAN</DistanceMeters>
          </Trackpoint>
          <Trackpoint>
            <Time>2021-07-18T09:23:06.000Z</Time>
            <Position>
              <LatitudeDegrees>42.71609743125736713409423828125</LatitudeDegrees>
              <LongitudeDegrees>-0.20384847186505794525146484375</LongitudeDegrees>
            </Position>
            <AltitudeMeters>2199.60009765625</AltitudeMeters>
            <DistanceMeters>NAN</DistanceMeters>
          </Trackpoint>
          <Trackpoint>
            <Time>2021-07-18T09:23:09.000Z</Time>
            <Position>
              <LatitudeDegrees>42.71608100272715091705322265625</LatitudeDegrees>
              <LongitudeDegrees>-0.2038373239338397979736328125</LongitudeDegrees>
            </Position>
            <AltitudeMeters>2199.199951171875</AltitudeMeters>
            <DistanceMeters>NAN</DistanceMeters>
          </Trackpoint>
          <Trackpoint>
            <Time>2021-07-18T09:23:13.000Z</Time>
            <Position>
              <LatitudeDegrees>42.716061137616634368896484375</LatitudeDegrees>
              <LongitudeDegrees>-0.20382315851747989654541015625</LongitudeDegrees>
            </Position>
            <AltitudeMeters>2198.39990234375</AltitudeMeters>
            <DistanceMeters>NAN</DistanceMeters>
          </Trackpoint>
          <Trackpoint>
            <Time>2021-07-18T09:23:14.000Z</Time>
            <Position>
              <LatitudeDegrees>42.716058455407619476318359375</LatitudeDegrees>
              <LongitudeDegrees>-0.2038212306797504425048828125</LongitudeDegrees>
            </Position>
            <AltitudeMeters>2198.39990234375</AltitudeMeters>
            <DistanceMeters>NAN</DistanceMeters>
          </Trackpoint>
          <Trackpoint>
            <Time>2021-07-18T09:23:20.000Z</Time>
            <Position>
              <LatitudeDegrees>42.71606407128274440765380859375</LatitudeDegrees>
              <LongitudeDegrees>-0.20381108857691287994384765625</LongitudeDegrees>
            </Position>
            <AltitudeMeters>2198.800048828125</AltitudeMeters>
            <DistanceMeters>NAN</DistanceMeters>
          </Trackpoint>
          <Trackpoint>
            <Time>2021-07-18T09:23:33.000Z</Time>
            <Position>
              <LatitudeDegrees>42.71605401299893856048583984375</LatitudeDegrees>
              <LongitudeDegrees>-0.20381058566272258758544921875</LongitudeDegrees>
            </Position>
            <AltitudeMeters>2198.39990234375</AltitudeMeters>
            <DistanceMeters>NAN</DistanceMeters>
          </Trackpoint>
          <Trackpoint>
            <Time>2021-07-18T09:23:35.000Z</Time>
            <Position>
              <LatitudeDegrees>42.71605401299893856048583984375</LatitudeDegrees>
              <LongitudeDegrees>-0.20381058566272258758544921875</LongitudeDegrees>
            </Position>
            <AltitudeMeters>2198.39990234375</AltitudeMeters>
            <DistanceMeters>NAN</DistanceMeters>
          </Trackpoint>
          <Trackpoint>
            <Time>2021-07-18T09:23:36.000Z</Time>
            <Position>
              <LatitudeDegrees>42.71605401299893856048583984375</LatitudeDegrees>
              <LongitudeDegrees>-0.20381058566272258758544921875</LongitudeDegrees>
            </Position>
            <AltitudeMeters>2198.39990234375</AltitudeMeters>
            <DistanceMeters>NAN</DistanceMeters>
          </Trackpoint>
          <Trackpoint>
            <Time>2021-07-18T09:24:11.000Z</Time>
            <Position>
              <LatitudeDegrees>42.71606340073049068450927734375</LatitudeDegrees>
              <LongitudeDegrees>-0.20381276495754718780517578125</LongitudeDegrees>
            </Position>
            <AltitudeMeters>2198.800048828125</AltitudeMeters>
            <DistanceMeters>NAN</DistanceMeters>
          </Trackpoint>
          <Trackpoint>
            <Time>2021-07-18T09:24:21.000Z</Time>
            <Position>
              <LatitudeDegrees>42.71603859029710292816162109375</LatitudeDegrees>
              <LongitudeDegrees>-0.2038252539932727813720703125</LongitudeDegrees>
            </Position>
            <AltitudeMeters>2197.39990234375</AltitudeMeters>
            <DistanceMeters>NAN</DistanceMeters>
          </Trackpoint>
          <Trackpoint>
            <Time>2021-07-18T09:24:34.000Z</Time>
            <Position>
              <LatitudeDegrees>42.71602501161396503448486328125</LatitudeDegrees>
              <LongitudeDegrees>-0.20383204333484172821044921875</LongitudeDegrees>
            </Position>
            <AltitudeMeters>2196.60009765625</AltitudeMeters>
            <DistanceMeters>NAN</DistanceMeters>
          </Trackpoint>
          <Trackpoint>
            <Time>2021-07-18T09:25:12.000Z</Time>
            <Position>
              <LatitudeDegrees>42.71604202687740325927734375</LatitudeDegrees>
              <LongitudeDegrees>-0.2038222365081310272216796875</LongitudeDegrees>
            </Position>
            <AltitudeMeters>2197.60009765625</AltitudeMeters>
            <DistanceMeters>NAN</DistanceMeters>
          </Trackpoint>
          <Trackpoint>
            <Time>2021-07-18T09:25:15.000Z</Time>
            <Position>
              <LatitudeDegrees>42.71604227833449840545654296875</LatitudeDegrees>
              <LongitudeDegrees>-0.2038219012320041656494140625</LongitudeDegrees>
            </Position>
            <AltitudeMeters>2197.60009765625</AltitudeMeters>
            <DistanceMeters>NAN</DistanceMeters>
          </Trackpoint>
          <Trackpoint>
            <Time>2021-07-18T09:25:20.000Z</Time>
            <Position>
              <LatitudeDegrees>42.71604127250611782073974609375</LatitudeDegrees>
              <LongitudeDegrees>-0.20382114686071872711181640625</LongitudeDegrees>
            </Position>
            <AltitudeMeters>2197.60009765625</AltitudeMeters>
            <DistanceMeters>NAN</DistanceMeters>
          </Trackpoint>
          <Trackpoint>
            <Time>2021-07-18T09:25:25.000Z</Time>
            <Position>
              <LatitudeDegrees>42.71604043431580066680908203125</LatitudeDegrees>
              <LongitudeDegrees>-0.20381963811814785003662109375</LongitudeDegrees>
            </Position>
            <AltitudeMeters>2197.60009765625</AltitudeMeters>
            <DistanceMeters>NAN</DistanceMeters>
          </Trackpoint>
          <Trackpoint>
            <Time>2021-07-18T09:25:36.000Z</Time>
            <Position>
              <LatitudeDegrees>42.71597136743366718292236328125</LatitudeDegrees>
              <LongitudeDegrees>-0.20375342108309268951416015625</LongitudeDegrees>
            </Position>
            <AltitudeMeters>2196.60009765625</AltitudeMeters>
            <DistanceMeters>NAN</DistanceMeters>
          </Trackpoint>
          <Trackpoint>
            <Time>2021-07-18T09:25:40.000Z</Time>
            <Position>
              <LatitudeDegrees>42.715910933911800384521484375</LatitudeDegrees>
              <LongitudeDegrees>-0.20372039638459682464599609375</LongitudeDegrees>
            </Position>
            <AltitudeMeters>2193.39990234375</AltitudeMeters>
            <DistanceMeters>NAN</DistanceMeters>
          </Trackpoint>
          <Trackpoint>
            <Time>2021-07-18T09:25:43.000Z</Time>
            <Position>
              <LatitudeDegrees>42.71588486619293689727783203125</LatitudeDegrees>
              <LongitudeDegrees>-0.2037012018263339996337890625</LongitudeDegrees>
            </Position>
            <AltitudeMeters>2192</AltitudeMeters>
            <DistanceMeters>NAN</DistanceMeters>
          </Trackpoint>
          <Trackpoint>
            <Time>2021-07-18T09:25:44.000Z</Time>
            <Position>
              <LatitudeDegrees>42.71587581373751163482666015625</LatitudeDegrees>
              <LongitudeDegrees>-0.20369340665638446807861328125</LongitudeDegrees>
            </Position>
            <AltitudeMeters>2191.60009765625</AltitudeMeters>
            <DistanceMeters>NAN</DistanceMeters>
          </Trackpoint>
          <Trackpoint>
            <Time>2021-07-18T09:25:51.000Z</Time>
            <Position>
              <LatitudeDegrees>42.71582434885203838348388671875</LatitudeDegrees>
              <LongitudeDegrees>-0.2036311291158199310302734375</LongitudeDegrees>
            </Position>
            <AltitudeMeters>2189.800048828125</AltitudeMeters>
            <DistanceMeters>NAN</DistanceMeters>
          </Trackpoint>
          <Trackpoint>
            <Time>2021-07-18T09:25:55.000Z</Time>
            <Position>
              <LatitudeDegrees>42.7158018015325069427490234375</LatitudeDegrees>
              <LongitudeDegrees>-0.203612186014652252197265625</LongitudeDegrees>
            </Position>
            <AltitudeMeters>2189</AltitudeMeters>
            <DistanceMeters>NAN</DistanceMeters>
          </Trackpoint>
          <Trackpoint>
            <Time>2021-07-18T09:25:57.000Z</Time>
            <Position>
              <LatitudeDegrees>42.71578461863100528717041015625</LatitudeDegrees>
              <LongitudeDegrees>-0.20360891707241535186767578125</LongitudeDegrees>
            </Position>
            <AltitudeMeters>2188.199951171875</AltitudeMeters>
            <DistanceMeters>NAN</DistanceMeters>
          </Trackpoint>
          <Trackpoint>
            <Time>2021-07-18T09:26:07.000Z</Time>
            <Position>
              <LatitudeDegrees>42.7157280407845973968505859375</LatitudeDegrees>
              <LongitudeDegrees>-0.20359039306640625</LongitudeDegrees>
            </Position>
            <AltitudeMeters>2186.39990234375</AltitudeMeters>
            <DistanceMeters>NAN</DistanceMeters>
          </Trackpoint>
          <Trackpoint>
            <Time>2021-07-18T09:26:10.000Z</Time>
            <Position>
              <LatitudeDegrees>42.71570180542767047882080078125</LatitudeDegrees>
              <LongitudeDegrees>-0.203586034476757049560546875</LongitudeDegrees>
            </Position>
            <AltitudeMeters>2185.199951171875</AltitudeMeters>
            <DistanceMeters>NAN</DistanceMeters>
          </Trackpoint>
          <Trackpoint>
            <Time>2021-07-18T09:26:11.000Z</Time>
            <Position>
              <LatitudeDegrees>42.7156914956867694854736328125</LatitudeDegrees>
              <LongitudeDegrees>-0.2035851962864398956298828125</LongitudeDegrees>
            </Position>
            <AltitudeMeters>2184.800048828125</AltitudeMeters>
            <DistanceMeters>NAN</DistanceMeters>
          </Trackpoint>
          <Trackpoint>
            <Time>2021-07-18T09:26:13.000Z</Time>
            <Position>
              <LatitudeDegrees>42.71567313931882381439208984375</LatitudeDegrees>
              <LongitudeDegrees>-0.20358058623969554901123046875</LongitudeDegrees>
            </Position>
            <AltitudeMeters>2184.199951171875</AltitudeMeters>
            <DistanceMeters>NAN</DistanceMeters>
          </Trackpoint>
          <Trackpoint>
            <Time>2021-07-18T09:26:14.000Z</Time>
            <Position>
              <LatitudeDegrees>42.71567045710980892181396484375</LatitudeDegrees>
              <LongitudeDegrees>-0.2035805024206638336181640625</LongitudeDegrees>
            </Position>
            <AltitudeMeters>2184</AltitudeMeters>
            <DistanceMeters>NAN</DistanceMeters>
          </Trackpoint>
          <Trackpoint>
            <Time>2021-07-18T09:26:15.000Z</Time>
            <Position>
              <LatitudeDegrees>42.71566961891949176788330078125</LatitudeDegrees>
              <LongitudeDegrees>-0.20357765257358551025390625</LongitudeDegrees>
            </Position>
            <AltitudeMeters>2184.199951171875</AltitudeMeters>
            <DistanceMeters>NAN</DistanceMeters>
          </Trackpoint>
          <Trackpoint>
            <Time>2021-07-18T09:26:16.000Z</Time>
            <Position>
              <LatitudeDegrees>42.7156643383204936981201171875</LatitudeDegrees>
              <LongitudeDegrees>-0.2035781554877758026123046875</LongitudeDegrees>
            </Position>
            <AltitudeMeters>2183.800048828125</AltitudeMeters>
            <DistanceMeters>NAN</DistanceMeters>
          </Trackpoint>
          <Trackpoint>
            <Time>2021-07-18T09:26:20.000Z</Time>
            <Position>
              <LatitudeDegrees>42.71565285511314868927001953125</LatitudeDegrees>
              <LongitudeDegrees>-0.203620232641696929931640625</LongitudeDegrees>
            </Position>
            <AltitudeMeters>2182.39990234375</AltitudeMeters>
            <DistanceMeters>NAN</DistanceMeters>
          </Trackpoint>
          <Trackpoint>
            <Time>2021-07-18T09:26:22.000Z</Time>
            <Position>
              <LatitudeDegrees>42.71566115319728851318359375</LatitudeDegrees>
              <LongitudeDegrees>-0.20363942719995975494384765625</LongitudeDegrees>
            </Position>
            <AltitudeMeters>2182.199951171875</AltitudeMeters>
            <DistanceMeters>NAN</DistanceMeters>
          </Trackpoint>
          <Trackpoint>
            <Time>2021-07-18T09:26:26.000Z</Time>
            <Position>
              <LatitudeDegrees>42.7156747318804264068603515625</LatitudeDegrees>
              <LongitudeDegrees>-0.2036820910871028900146484375</LongitudeDegrees>
            </Position>
            <AltitudeMeters>2181.60009765625</AltitudeMeters>
            <DistanceMeters>NAN</DistanceMeters>
          </Trackpoint>
          <Trackpoint>
            <Time>2021-07-18T09:26:27.000Z</Time>
            <Position>
              <LatitudeDegrees>42.715676911175251007080078125</LatitudeDegrees>
              <LongitudeDegrees>-0.2036931551992893218994140625</LongitudeDegrees>
            </Position>
            <AltitudeMeters>2181.60009765625</AltitudeMeters>
            <DistanceMeters>NAN</DistanceMeters>
          </Trackpoint>
          <Trackpoint>
            <Time>2021-07-18T09:26:30.000Z</Time>
            <Position>
              <LatitudeDegrees>42.7156807668507099151611328125</LatitudeDegrees>
              <LongitudeDegrees>-0.2037186361849308013916015625</LongitudeDegrees>
            </Position>
            <AltitudeMeters>2181</AltitudeMeters>
            <DistanceMeters>NAN</DistanceMeters>
          </Trackpoint>
          <Trackpoint>
            <Time>2021-07-18T09:26:34.000Z</Time>
            <Position>
              <LatitudeDegrees>42.71566785871982574462890625</LatitudeDegrees>
              <LongitudeDegrees>-0.203727185726165771484375</LongitudeDegrees>
            </Position>
            <AltitudeMeters>2180.199951171875</AltitudeMeters>
            <DistanceMeters>NAN</DistanceMeters>
          </Trackpoint>
          <Trackpoint>
            <Time>2021-07-18T09:26:35.000Z</Time>
            <Position>
              <LatitudeDegrees>42.7156626619398593902587890625</LatitudeDegrees>
              <LongitudeDegrees>-0.203727521002292633056640625</LongitudeDegrees>
            </Position>
            <AltitudeMeters>2180</AltitudeMeters>
            <DistanceMeters>NAN</DistanceMeters>
          </Trackpoint>
          <Trackpoint>
            <Time>2021-07-18T09:26:40.000Z</Time>
            <Position>
              <LatitudeDegrees>42.71562821231782436370849609375</LatitudeDegrees>
              <LongitudeDegrees>-0.20373062230646610260009765625</LongitudeDegrees>
            </Position>
            <AltitudeMeters>2178.39990234375</AltitudeMeters>
            <DistanceMeters>NAN</DistanceMeters>
          </Trackpoint>
          <Trackpoint>
            <Time>2021-07-18T09:26:42.000Z</Time>
            <Position>
              <LatitudeDegrees>42.7156122028827667236328125</LatitudeDegrees>
              <LongitudeDegrees>-0.203732214868068695068359375</LongitudeDegrees>
            </Position>
            <AltitudeMeters>2177.800048828125</AltitudeMeters>
            <DistanceMeters>NAN</DistanceMeters>
          </Trackpoint>
          <Trackpoint>
            <Time>2021-07-18T09:26:45.000Z</Time>
            <Position>
              <LatitudeDegrees>42.71559803746640682220458984375</LatitudeDegrees>
              <LongitudeDegrees>-0.20373162813484668731689453125</LongitudeDegrees>
            </Position>
            <AltitudeMeters>2177.60009765625</AltitudeMeters>
            <DistanceMeters>NAN</DistanceMeters>
          </Trackpoint>
          <Trackpoint>
            <Time>2021-07-18T09:26:54.000Z</Time>
            <Position>
              <LatitudeDegrees>42.71553265862166881561279296875</LatitudeDegrees>
              <LongitudeDegrees>-0.203755684196949005126953125</LongitudeDegrees>
            </Position>
            <AltitudeMeters>2175.39990234375</AltitudeMeters>
            <DistanceMeters>NAN</DistanceMeters>
          </Trackpoint>
          <Trackpoint>
            <Time>2021-07-18T09:26:55.000Z</Time>
            <Position>
              <LatitudeDegrees>42.71552662365138530731201171875</LatitudeDegrees>
              <LongitudeDegrees>-0.2037585340440273284912109375</LongitudeDegrees>
            </Position>
            <AltitudeMeters>2175.199951171875</AltitudeMeters>
            <DistanceMeters>NAN</DistanceMeters>
          </Trackpoint>
          <Trackpoint>
            <Time>2021-07-18T09:26:57.000Z</Time>
            <Position>
              <LatitudeDegrees>42.7155168168246746063232421875</LatitudeDegrees>
              <LongitudeDegrees>-0.203764736652374267578125</LongitudeDegrees>
            </Position>
            <AltitudeMeters>2175</AltitudeMeters>
            <DistanceMeters>NAN</DistanceMeters>
          </Trackpoint>
          <Trackpoint>
            <Time>2021-07-18T09:27:01.000Z</Time>
            <Position>
              <LatitudeDegrees>42.71551773883402347564697265625</LatitudeDegrees>
              <LongitudeDegrees>-0.203797258436679840087890625</LongitudeDegrees>
            </Position>
            <AltitudeMeters>2174.199951171875</AltitudeMeters>
            <DistanceMeters>NAN</DistanceMeters>
          </Trackpoint>
          <Trackpoint>
            <Time>2021-07-18T09:27:03.000Z</Time>
            <Position>
              <LatitudeDegrees>42.71552436053752899169921875</LatitudeDegrees>
              <LongitudeDegrees>-0.20381368696689605712890625</LongitudeDegrees>
            </Position>
            <AltitudeMeters>2174</AltitudeMeters>
            <DistanceMeters>NAN</DistanceMeters>
          </Trackpoint>
          <Trackpoint>
            <Time>2021-07-18T09:27:11.000Z</Time>
            <Position>
              <LatitudeDegrees>42.715539447963237762451171875</LatitudeDegrees>
              <LongitudeDegrees>-0.20386892370879650115966796875</LongitudeDegrees>
            </Position>
            <AltitudeMeters>2173.199951171875</AltitudeMeters>
            <DistanceMeters>NAN</DistanceMeters>
          </Trackpoint>
          <Trackpoint>
            <Time>2021-07-18T09:27:20.000Z</Time>
            <Position>
              <LatitudeDegrees>42.71552561782300472259521484375</LatitudeDegrees>
              <LongitudeDegrees>-0.203932709991931915283203125</LongitudeDegrees>
            </Position>
            <AltitudeMeters>2172</AltitudeMeters>
            <DistanceMeters>NAN</DistanceMeters>
          </Trackpoint>
          <Trackpoint>
            <Time>2021-07-18T09:27:29.000Z</Time>
            <Position>
              <LatitudeDegrees>42.715542130172252655029296875</LatitudeDegrees>
              <LongitudeDegrees>-0.20401543937623500823974609375</LongitudeDegrees>
            </Position>
            <AltitudeMeters>2171.199951171875</AltitudeMeters>
            <DistanceMeters>NAN</DistanceMeters>
          </Trackpoint>
          <Trackpoint>
            <Time>2021-07-18T09:27:46.000Z</Time>
            <Position>
              <LatitudeDegrees>42.71558261476457118988037109375</LatitudeDegrees>
              <LongitudeDegrees>-0.2041645534336566925048828125</LongitudeDegrees>
            </Position>
            <AltitudeMeters>2169</AltitudeMeters>
            <DistanceMeters>NAN</DistanceMeters>
          </Trackpoint>
          <Trackpoint>
            <Time>2021-07-18T09:27:53.000Z</Time>
            <Position>
              <LatitudeDegrees>42.71559300832450389862060546875</LatitudeDegrees>
              <LongitudeDegrees>-0.20420285873115062713623046875</LongitudeDegrees>
            </Position>
            <AltitudeMeters>2168.39990234375</AltitudeMeters>
            <DistanceMeters>NAN</DistanceMeters>
          </Trackpoint>
          <Trackpoint>
            <Time>2021-07-18T09:27:57.000Z</Time>
            <Position>
              <LatitudeDegrees>42.7156066708266735076904296875</LatitudeDegrees>
              <LongitudeDegrees>-0.20422716625034809112548828125</LongitudeDegrees>
            </Position>
            <AltitudeMeters>2168.199951171875</AltitudeMeters>
            <DistanceMeters>NAN</DistanceMeters>
          </Trackpoint>
          <Trackpoint>
            <Time>2021-07-18T09:28:00.000Z</Time>
            <Position>
              <LatitudeDegrees>42.71559275686740875244140625</LatitudeDegrees>
              <LongitudeDegrees>-0.204239152371883392333984375</LongitudeDegrees>
            </Position>
            <AltitudeMeters>2167.39990234375</AltitudeMeters>
            <DistanceMeters>NAN</DistanceMeters>
          </Trackpoint>
          <Trackpoint>
            <Time>2021-07-18T09:28:05.000Z</Time>
            <Position>
              <LatitudeDegrees>42.71558596752583980560302734375</LatitudeDegrees>
              <LongitudeDegrees>-0.20424493588507175445556640625</LongitudeDegrees>
            </Position>
            <AltitudeMeters>2167.199951171875</AltitudeMeters>
            <DistanceMeters>NAN</DistanceMeters>
          </Trackpoint>
          <Trackpoint>
            <Time>2021-07-18T09:28:08.000Z</Time>
            <Position>
              <LatitudeDegrees>42.71558596752583980560302734375</LatitudeDegrees>
              <LongitudeDegrees>-0.20424493588507175445556640625</LongitudeDegrees>
            </Position>
            <AltitudeMeters>2167.199951171875</AltitudeMeters>
            <DistanceMeters>NAN</DistanceMeters>
          </Trackpoint>
          <Trackpoint>
            <Time>2021-07-18T09:28:21.000Z</Time>
            <Position>
              <LatitudeDegrees>42.71558596752583980560302734375</LatitudeDegrees>
              <LongitudeDegrees>-0.204249881207942962646484375</LongitudeDegrees>
            </Position>
            <AltitudeMeters>2167</AltitudeMeters>
            <DistanceMeters>NAN</DistanceMeters>
          </Trackpoint>
          <Trackpoint>
            <Time>2021-07-18T09:28:28.000Z</Time>
            <Position>
              <LatitudeDegrees>42.715570628643035888671875</LatitudeDegrees>
              <LongitudeDegrees>-0.20425633527338504791259765625</LongitudeDegrees>
            </Position>
            <AltitudeMeters>2166.39990234375</AltitudeMeters>
            <DistanceMeters>NAN</DistanceMeters>
          </Trackpoint>
          <Trackpoint>
            <Time>2021-07-18T09:28:30.000Z</Time>
            <Position>
              <LatitudeDegrees>42.71553366445004940032958984375</LatitudeDegrees>
              <LongitudeDegrees>-0.2042688243091106414794921875</LongitudeDegrees>
            </Position>
            <AltitudeMeters>2165</AltitudeMeters>
            <DistanceMeters>NAN</DistanceMeters>
          </Trackpoint>
          <Trackpoint>
            <Time>2021-07-18T09:28:33.000Z</Time>
            <Position>
              <LatitudeDegrees>42.71548119373619556427001953125</LatitudeDegrees>
              <LongitudeDegrees>-0.204293467104434967041015625</LongitudeDegrees>
            </Position>
            <AltitudeMeters>2162.800048828125</AltitudeMeters>
            <DistanceMeters>NAN</DistanceMeters>
          </Trackpoint>
          <Trackpoint>
            <Time>2021-07-18T09:28:34.000Z</Time>
            <Position>
              <LatitudeDegrees>42.7154625020921230316162109375</LatitudeDegrees>
              <LongitudeDegrees>-0.2043046988546848297119140625</LongitudeDegrees>
            </Position>
            <AltitudeMeters>2162</AltitudeMeters>
            <DistanceMeters>NAN</DistanceMeters>
          </Trackpoint>
          <Trackpoint>
            <Time>2021-07-18T09:28:40.000Z</Time>
            <Position>
              <LatitudeDegrees>42.71539159119129180908203125</LatitudeDegrees>
              <LongitudeDegrees>-0.20434384234249591827392578125</LongitudeDegrees>
            </Position>
            <AltitudeMeters>2159</AltitudeMeters>
            <DistanceMeters>NAN</DistanceMeters>
          </Trackpoint>
          <Trackpoint>
            <Time>2021-07-18T09:28:42.000Z</Time>
            <Position>
              <LatitudeDegrees>42.715390585362911224365234375</LatitudeDegrees>
              <LongitudeDegrees>-0.20436194725334644317626953125</LongitudeDegrees>
            </Position>
            <AltitudeMeters>2158.60009765625</AltitudeMeters>
            <DistanceMeters>NAN</DistanceMeters>
          </Trackpoint>
          <Trackpoint>
            <Time>2021-07-18T09:28:44.000Z</Time>
            <Position>
              <LatitudeDegrees>42.71539083682000637054443359375</LatitudeDegrees>
              <LongitudeDegrees>-0.20437116734683513641357421875</LongitudeDegrees>
            </Position>
            <AltitudeMeters>2158.199951171875</AltitudeMeters>
            <DistanceMeters>NAN</DistanceMeters>
          </Trackpoint>
          <Trackpoint>
            <Time>2021-07-18T09:28:48.000Z</Time>
            <Position>
              <LatitudeDegrees>42.715403996407985687255859375</LatitudeDegrees>
              <LongitudeDegrees>-0.20439061336219310760498046875</LongitudeDegrees>
            </Position>
            <AltitudeMeters>2158</AltitudeMeters>
            <DistanceMeters>NAN</DistanceMeters>
          </Trackpoint>
          <Trackpoint>
            <Time>2021-07-18T09:28:55.000Z</Time>
            <Position>
              <LatitudeDegrees>42.71539821289479732513427734375</LatitudeDegrees>
              <LongitudeDegrees>-0.20443336106836795806884765625</LongitudeDegrees>
            </Position>
            <AltitudeMeters>2156.800048828125</AltitudeMeters>
            <DistanceMeters>NAN</DistanceMeters>
          </Trackpoint>
          <Trackpoint>
            <Time>2021-07-18T09:29:01.000Z</Time>
            <Position>
              <LatitudeDegrees>42.7154256217181682586669921875</LatitudeDegrees>
              <LongitudeDegrees>-0.20444911904633045196533203125</LongitudeDegrees>
            </Position>
            <AltitudeMeters>2157</AltitudeMeters>
            <DistanceMeters>NAN</DistanceMeters>
          </Trackpoint>
          <Trackpoint>
            <Time>2021-07-18T09:29:11.000Z</Time>
            <Position>
              <LatitudeDegrees>42.71546208299696445465087890625</LatitudeDegrees>
              <LongitudeDegrees>-0.20452120341360569000244140625</LongitudeDegrees>
            </Position>
            <AltitudeMeters>2156</AltitudeMeters>
            <DistanceMeters>NAN</DistanceMeters>
          </Trackpoint>
          <Trackpoint>
            <Time>2021-07-18T09:29:18.000Z</Time>
            <Position>
              <LatitudeDegrees>42.71547599695622920989990234375</LatitudeDegrees>
              <LongitudeDegrees>-0.204605273902416229248046875</LongitudeDegrees>
            </Position>
            <AltitudeMeters>2153.199951171875</AltitudeMeters>
            <DistanceMeters>NAN</DistanceMeters>
          </Trackpoint>
          <Trackpoint>
            <Time>2021-07-18T09:29:27.000Z</Time>
            <Position>
              <LatitudeDegrees>42.71551036275923252105712890625</LatitudeDegrees>
              <LongitudeDegrees>-0.2046745084226131439208984375</LongitudeDegrees>
            </Position>
            <AltitudeMeters>2151.60009765625</AltitudeMeters>
            <DistanceMeters>NAN</DistanceMeters>
          </Trackpoint>
          <Trackpoint>
            <Time>2021-07-18T09:29:33.000Z</Time>
            <Position>
              <LatitudeDegrees>42.71554321981966495513916015625</LatitudeDegrees>
              <LongitudeDegrees>-0.2047070302069187164306640625</LongitudeDegrees>
            </Position>
            <AltitudeMeters>2151.199951171875</AltitudeMeters>
            <DistanceMeters>NAN</DistanceMeters>
          </Trackpoint>
          <Trackpoint>
            <Time>2021-07-18T09:29:36.000Z</Time>
            <Position>
              <LatitudeDegrees>42.71556518040597438812255859375</LatitudeDegrees>
              <LongitudeDegrees>-0.20472672767937183380126953125</LongitudeDegrees>
            </Position>
            <AltitudeMeters>2151.60009765625</AltitudeMeters>
            <DistanceMeters>NAN</DistanceMeters>
          </Trackpoint>
          <Trackpoint>
            <Time>2021-07-18T09:29:46.000Z</Time>
            <Position>
              <LatitudeDegrees>42.71560708992183208465576171875</LatitudeDegrees>
              <LongitudeDegrees>-0.204827226698398590087890625</LongitudeDegrees>
            </Position>
            <AltitudeMeters>2151.39990234375</AltitudeMeters>
            <DistanceMeters>NAN</DistanceMeters>
          </Trackpoint>
          <Trackpoint>
            <Time>2021-07-18T09:29:54.000Z</Time>
            <Position>
              <LatitudeDegrees>42.71564732305705547332763671875</LatitudeDegrees>
              <LongitudeDegrees>-0.20491205155849456787109375</LongitudeDegrees>
            </Position>
            <AltitudeMeters>2152</AltitudeMeters>
            <DistanceMeters>NAN</DistanceMeters>
          </Trackpoint>
          <Trackpoint>
            <Time>2021-07-18T09:30:02.000Z</Time>
            <Position>
              <LatitudeDegrees>42.71565453149378299713134765625</LatitudeDegrees>
              <LongitudeDegrees>-0.20498187281191349029541015625</LongitudeDegrees>
            </Position>
            <AltitudeMeters>2150.800048828125</AltitudeMeters>
            <DistanceMeters>NAN</DistanceMeters>
          </Trackpoint>
          <Trackpoint>
            <Time>2021-07-18T09:30:03.000Z</Time>
            <Position>
              <LatitudeDegrees>42.715656124055385589599609375</LatitudeDegrees>
              <LongitudeDegrees>-0.20499025471508502960205078125</LongitudeDegrees>
            </Position>
            <AltitudeMeters>2150.800048828125</AltitudeMeters>
            <DistanceMeters>NAN</DistanceMeters>
          </Trackpoint>
          <Trackpoint>
            <Time>2021-07-18T09:30:06.000Z</Time>
            <Position>
              <LatitudeDegrees>42.7156673558056354522705078125</LatitudeDegrees>
              <LongitudeDegrees>-0.2050107903778553009033203125</LongitudeDegrees>
            </Position>
            <AltitudeMeters>2151</AltitudeMeters>
            <DistanceMeters>NAN</DistanceMeters>
          </Trackpoint>
          <Trackpoint>
            <Time>2021-07-18T09:30:09.000Z</Time>
            <Position>
              <LatitudeDegrees>42.715674899518489837646484375</LatitudeDegrees>
              <LongitudeDegrees>-0.20503702573478221893310546875</LongitudeDegrees>
            </Position>
            <AltitudeMeters>2150.800048828125</AltitudeMeters>
            <DistanceMeters>NAN</DistanceMeters>
          </Trackpoint>
          <Trackpoint>
            <Time>2021-07-18T09:30:10.000Z</Time>
            <Position>
              <LatitudeDegrees>42.715679593384265899658203125</LatitudeDegrees>
              <LongitudeDegrees>-0.2050473354756832122802734375</LongitudeDegrees>
            </Position>
            <AltitudeMeters>2151</AltitudeMeters>
            <DistanceMeters>NAN</DistanceMeters>
          </Trackpoint>
          <Trackpoint>
            <Time>2021-07-18T09:30:14.000Z</Time>
            <Position>
              <LatitudeDegrees>42.7156925015151500701904296875</LatitudeDegrees>
              <LongitudeDegrees>-0.205087400972843170166015625</LongitudeDegrees>
            </Position>
            <AltitudeMeters>2150.800048828125</AltitudeMeters>
            <DistanceMeters>NAN</DistanceMeters>
          </Trackpoint>
          <Trackpoint>
            <Time>2021-07-18T09:30:22.000Z</Time>
            <Position>
              <LatitudeDegrees>42.71571605466306209564208984375</LatitudeDegrees>
              <LongitudeDegrees>-0.20517817698419094085693359375</LongitudeDegrees>
            </Position>
            <AltitudeMeters>2149.199951171875</AltitudeMeters>
            <DistanceMeters>NAN</DistanceMeters>
          </Trackpoint>
          <Trackpoint>
            <Time>2021-07-18T09:30:30.000Z</Time>
            <Position>
              <LatitudeDegrees>42.71573483012616634368896484375</LatitudeDegrees>
              <LongitudeDegrees>-0.20524271763861179351806640625</LongitudeDegrees>
            </Position>
            <AltitudeMeters>2148</AltitudeMeters>
            <DistanceMeters>NAN</DistanceMeters>
          </Trackpoint>
          <Trackpoint>
            <Time>2021-07-18T09:30:36.000Z</Time>
            <Position>
              <LatitudeDegrees>42.71572426892817020416259765625</LatitudeDegrees>
              <LongitudeDegrees>-0.2052468247711658477783203125</LongitudeDegrees>
            </Position>
            <AltitudeMeters>2147.39990234375</AltitudeMeters>
            <DistanceMeters>NAN</DistanceMeters>
          </Trackpoint>
          <Trackpoint>
            <Time>2021-07-18T09:30:45.000Z</Time>
            <Position>
              <LatitudeDegrees>42.7156502567231655120849609375</LatitudeDegrees>
              <LongitudeDegrees>-0.2052260376513004302978515625</LongitudeDegrees>
            </Position>
            <AltitudeMeters>2144.60009765625</AltitudeMeters>
            <DistanceMeters>NAN</DistanceMeters>
          </Trackpoint>
          <Trackpoint>
            <Time>2021-07-18T09:30:50.000Z</Time>
            <Position>
              <LatitudeDegrees>42.71561161614954471588134765625</LatitudeDegrees>
              <LongitudeDegrees>-0.20520349033176898956298828125</LongitudeDegrees>
            </Position>
            <AltitudeMeters>2143.60009765625</AltitudeMeters>
            <DistanceMeters>NAN</DistanceMeters>
          </Trackpoint>
          <Trackpoint>
            <Time>2021-07-18T09:30:55.000Z</Time>
            <Position>
              <LatitudeDegrees>42.71557842381298542022705078125</LatitudeDegrees>
              <LongitudeDegrees>-0.20521254278719425201416015625</LongitudeDegrees>
            </Position>
            <AltitudeMeters>2142</AltitudeMeters>
            <DistanceMeters>NAN</DistanceMeters>
          </Trackpoint>
          <Trackpoint>
            <Time>2021-07-18T09:31:03.000Z</Time>
            <Position>
              <LatitudeDegrees>42.715550847351551055908203125</LatitudeDegrees>
              <LongitudeDegrees>-0.205259732902050018310546875</LongitudeDegrees>
            </Position>
            <AltitudeMeters>2139.39990234375</AltitudeMeters>
            <DistanceMeters>NAN</DistanceMeters>
          </Trackpoint>
          <Trackpoint>
            <Time>2021-07-18T09:31:11.000Z</Time>
            <Position>
              <LatitudeDegrees>42.71555193699896335601806640625</LatitudeDegrees>
              <LongitudeDegrees>-0.20529401488602161407470703125</LongitudeDegrees>
            </Position>
            <AltitudeMeters>2138.39990234375</AltitudeMeters>
            <DistanceMeters>NAN</DistanceMeters>
          </Trackpoint>
          <Trackpoint>
            <Time>2021-07-18T09:31:19.000Z</Time>
            <Position>
              <LatitudeDegrees>42.71552058868110179901123046875</LatitudeDegrees>
              <LongitudeDegrees>-0.2053494192659854888916015625</LongitudeDegrees>
            </Position>
            <AltitudeMeters>2135.199951171875</AltitudeMeters>
            <DistanceMeters>NAN</DistanceMeters>
          </Trackpoint>
          <Trackpoint>
            <Time>2021-07-18T09:31:27.000Z</Time>
            <Position>
              <LatitudeDegrees>42.715535424649715423583984375</LatitudeDegrees>
              <LongitudeDegrees>-0.20541890524327754974365234375</LongitudeDegrees>
            </Position>
            <AltitudeMeters>2133.60009765625</AltitudeMeters>
            <DistanceMeters>NAN</DistanceMeters>
          </Trackpoint>
          <Trackpoint>
            <Time>2021-07-18T09:31:38.000Z</Time>
            <Position>
              <LatitudeDegrees>42.71555864252150058746337890625</LatitudeDegrees>
              <LongitudeDegrees>-0.20551814697682857513427734375</LongitudeDegrees>
            </Position>
            <AltitudeMeters>2131.39990234375</AltitudeMeters>
            <DistanceMeters>NAN</DistanceMeters>
          </Trackpoint>
          <Trackpoint>
            <Time>2021-07-18T09:31:48.000Z</Time>
            <Position>
              <LatitudeDegrees>42.7155183255672454833984375</LatitudeDegrees>
              <LongitudeDegrees>-0.205578245222568511962890625</LongitudeDegrees>
            </Position>
            <AltitudeMeters>2128.199951171875</AltitudeMeters>
            <DistanceMeters>NAN</DistanceMeters>
          </Trackpoint>
          <Trackpoint>
            <Time>2021-07-18T09:31:58.000Z</Time>
            <Position>
              <LatitudeDegrees>42.71548823453485965728759765625</LatitudeDegrees>
              <LongitudeDegrees>-0.2056364156305789947509765625</LongitudeDegrees>
            </Position>
            <AltitudeMeters>2125.199951171875</AltitudeMeters>
            <DistanceMeters>NAN</DistanceMeters>
          </Trackpoint>
          <Trackpoint>
            <Time>2021-07-18T09:32:07.000Z</Time>
            <Position>
              <LatitudeDegrees>42.715497873723506927490234375</LatitudeDegrees>
              <LongitudeDegrees>-0.2056945860385894775390625</LongitudeDegrees>
            </Position>
            <AltitudeMeters>2123.60009765625</AltitudeMeters>
            <DistanceMeters>NAN</DistanceMeters>
          </Trackpoint>
          <Trackpoint>
            <Time>2021-07-18T09:32:15.000Z</Time>
            <Position>
              <LatitudeDegrees>42.715498544275760650634765625</LatitudeDegrees>
              <LongitudeDegrees>-0.20572752691805362701416015625</LongitudeDegrees>
            </Position>
            <AltitudeMeters>2122.60009765625</AltitudeMeters>
            <DistanceMeters>NAN</DistanceMeters>
          </Trackpoint>
          <Trackpoint>
            <Time>2021-07-18T09:32:20.000Z</Time>
            <Position>
              <LatitudeDegrees>42.71549158729612827301025390625</LatitudeDegrees>
              <LongitudeDegrees>-0.20576507784426212310791015625</LongitudeDegrees>
            </Position>
            <AltitudeMeters>2121.199951171875</AltitudeMeters>
            <DistanceMeters>NAN</DistanceMeters>
          </Trackpoint>
          <Trackpoint>
            <Time>2021-07-18T09:32:22.000Z</Time>
            <Position>
              <LatitudeDegrees>42.7154923416674137115478515625</LatitudeDegrees>
              <LongitudeDegrees>-0.205784104764461517333984375</LongitudeDegrees>
            </Position>
            <AltitudeMeters>2120.800048828125</AltitudeMeters>
            <DistanceMeters>NAN</DistanceMeters>
          </Trackpoint>
          <Trackpoint>
            <Time>2021-07-18T09:32:29.000Z</Time>
            <Position>
              <LatitudeDegrees>42.71553416736423969268798828125</LatitudeDegrees>
              <LongitudeDegrees>-0.205794163048267364501953125</LongitudeDegrees>
            </Position>
            <AltitudeMeters>2122.199951171875</AltitudeMeters>
            <DistanceMeters>NAN</DistanceMeters>
          </Trackpoint>
          <Trackpoint>
            <Time>2021-07-18T09:32:36.000Z</Time>
            <Position>
              <LatitudeDegrees>42.71554623730480670928955078125</LatitudeDegrees>
              <LongitudeDegrees>-0.2058117650449275970458984375</LongitudeDegrees>
            </Position>
            <AltitudeMeters>2122.199951171875</AltitudeMeters>
            <DistanceMeters>NAN</DistanceMeters>
          </Trackpoint>
          <Trackpoint>
            <Time>2021-07-18T09:32:48.000Z</Time>
            <Position>
              <LatitudeDegrees>42.71552570164203643798828125</LatitudeDegrees>
              <LongitudeDegrees>-0.20585124380886554718017578125</LongitudeDegrees>
            </Position>
            <AltitudeMeters>2120.39990234375</AltitudeMeters>
            <DistanceMeters>NAN</DistanceMeters>
          </Trackpoint>
          <Trackpoint>
            <Time>2021-07-18T09:32:54.000Z</Time>
            <Position>
              <LatitudeDegrees>42.7155221812427043914794921875</LatitudeDegrees>
              <LongitudeDegrees>-0.205867588520050048828125</LongitudeDegrees>
            </Position>
            <AltitudeMeters>2119.800048828125</AltitudeMeters>
            <DistanceMeters>NAN</DistanceMeters>
          </Trackpoint>
          <Trackpoint>
            <Time>2021-07-18T09:32:56.000Z</Time>
            <Position>
              <LatitudeDegrees>42.71551472134888172149658203125</LatitudeDegrees>
              <LongitudeDegrees>-0.20587722770869731903076171875</LongitudeDegrees>
            </Position>
            <AltitudeMeters>2119.39990234375</AltitudeMeters>
            <DistanceMeters>NAN</DistanceMeters>
          </Trackpoint>
          <Trackpoint>
            <Time>2021-07-18T09:33:01.000Z</Time>
            <Position>
              <LatitudeDegrees>42.715516984462738037109375</LatitudeDegrees>
              <LongitudeDegrees>-0.20589248277246952056884765625</LongitudeDegrees>
            </Position>
            <AltitudeMeters>2118.800048828125</AltitudeMeters>
            <DistanceMeters>NAN</DistanceMeters>
          </Trackpoint>
          <Trackpoint>
            <Time>2021-07-18T09:33:03.000Z</Time>
            <Position>
              <LatitudeDegrees>42.71551421843469142913818359375</LatitudeDegrees>
              <LongitudeDegrees>-0.20589801482856273651123046875</LongitudeDegrees>
            </Position>
            <AltitudeMeters>2118.60009765625</AltitudeMeters>
            <DistanceMeters>NAN</DistanceMeters>
          </Trackpoint>
          <Trackpoint>
            <Time>2021-07-18T09:33:13.000Z</Time>
            <Position>
              <LatitudeDegrees>42.7155080996453762054443359375</LatitudeDegrees>
              <LongitudeDegrees>-0.205928273499011993408203125</LongitudeDegrees>
            </Position>
            <AltitudeMeters>2117.39990234375</AltitudeMeters>
            <DistanceMeters>NAN</DistanceMeters>
          </Trackpoint>
          <Trackpoint>
            <Time>2021-07-18T09:33:20.000Z</Time>
            <Position>
              <LatitudeDegrees>42.71550918929278850555419921875</LatitudeDegrees>
              <LongitudeDegrees>-0.2059284411370754241943359375</LongitudeDegrees>
            </Position>
            <AltitudeMeters>2117.39990234375</AltitudeMeters>
            <DistanceMeters>NAN</DistanceMeters>
          </Trackpoint>
          <Trackpoint>
            <Time>2021-07-18T09:33:22.000Z</Time>
            <Position>
              <LatitudeDegrees>42.71550918929278850555419921875</LatitudeDegrees>
              <LongitudeDegrees>-0.2059284411370754241943359375</LongitudeDegrees>
            </Position>
            <AltitudeMeters>2117.39990234375</AltitudeMeters>
            <DistanceMeters>NAN</DistanceMeters>
          </Trackpoint>
          <Trackpoint>
            <Time>2021-07-18T09:33:23.000Z</Time>
            <Position>
              <LatitudeDegrees>42.71550918929278850555419921875</LatitudeDegrees>
              <LongitudeDegrees>-0.2059284411370754241943359375</LongitudeDegrees>
            </Position>
            <AltitudeMeters>2117.39990234375</AltitudeMeters>
            <DistanceMeters>NAN</DistanceMeters>
          </Trackpoint>
          <Trackpoint>
            <Time>2021-07-18T09:33:28.000Z</Time>
            <Position>
              <LatitudeDegrees>42.71550918929278850555419921875</LatitudeDegrees>
              <LongitudeDegrees>-0.2059284411370754241943359375</LongitudeDegrees>
            </Position>
            <AltitudeMeters>2117.39990234375</AltitudeMeters>
            <DistanceMeters>NAN</DistanceMeters>
          </Trackpoint>
          <Trackpoint>
            <Time>2021-07-18T09:33:43.000Z</Time>
            <Position>
              <LatitudeDegrees>42.71552192978560924530029296875</LatitudeDegrees>
              <LongitudeDegrees>-0.205937661230564117431640625</LongitudeDegrees>
            </Position>
            <AltitudeMeters>2117.199951171875</AltitudeMeters>
            <DistanceMeters>NAN</DistanceMeters>
          </Trackpoint>
          <Trackpoint>
            <Time>2021-07-18T09:33:46.000Z</Time>
            <Position>
              <LatitudeDegrees>42.71552662365138530731201171875</LatitudeDegrees>
              <LongitudeDegrees>-0.20594512112438678741455078125</LongitudeDegrees>
            </Position>
            <AltitudeMeters>2117.199951171875</AltitudeMeters>
            <DistanceMeters>NAN</DistanceMeters>
          </Trackpoint>
          <Trackpoint>
            <Time>2021-07-18T09:33:53.000Z</Time>
            <Position>
              <LatitudeDegrees>42.71554087288677692413330078125</LatitudeDegrees>
              <LongitudeDegrees>-0.205957777798175811767578125</LongitudeDegrees>
            </Position>
            <AltitudeMeters>2117</AltitudeMeters>
            <DistanceMeters>NAN</DistanceMeters>
          </Trackpoint>
          <Trackpoint>
            <Time>2021-07-18T09:34:14.000Z</Time>
            <Position>
              <LatitudeDegrees>42.71553668193519115447998046875</LatitudeDegrees>
              <LongitudeDegrees>-0.20605408586561679840087890625</LongitudeDegrees>
            </Position>
            <AltitudeMeters>2113.199951171875</AltitudeMeters>
            <DistanceMeters>NAN</DistanceMeters>
          </Trackpoint>
          <Trackpoint>
            <Time>2021-07-18T09:34:47.000Z</Time>
            <Position>
              <LatitudeDegrees>42.71551094949245452880859375</LatitudeDegrees>
              <LongitudeDegrees>-0.2061916328966617584228515625</LongitudeDegrees>
            </Position>
            <AltitudeMeters>2106.60009765625</AltitudeMeters>
            <DistanceMeters>NAN</DistanceMeters>
          </Trackpoint>
          <Trackpoint>
            <Time>2021-07-18T09:34:54.000Z</Time>
            <Position>
              <LatitudeDegrees>42.715505920350551605224609375</LatitudeDegrees>
              <LongitudeDegrees>-0.2062037028372287750244140625</LongitudeDegrees>
            </Position>
            <AltitudeMeters>2106</AltitudeMeters>
            <DistanceMeters>NAN</DistanceMeters>
          </Trackpoint>
          <Trackpoint>
            <Time>2021-07-18T09:35:05.000Z</Time>
            <Position>
              <LatitudeDegrees>42.71550114266574382781982421875</LatitudeDegrees>
              <LongitudeDegrees>-0.20620529539883136749267578125</LongitudeDegrees>
            </Position>
            <AltitudeMeters>2105.800048828125</AltitudeMeters>
            <DistanceMeters>NAN</DistanceMeters>
          </Trackpoint>
          <Trackpoint>
            <Time>2021-07-18T09:35:11.000Z</Time>
            <Position>
              <LatitudeDegrees>42.71549929864704608917236328125</LatitudeDegrees>
              <LongitudeDegrees>-0.20620663650333881378173828125</LongitudeDegrees>
            </Position>
            <AltitudeMeters>2105.60009765625</AltitudeMeters>
            <DistanceMeters>NAN</DistanceMeters>
          </Trackpoint>
          <Trackpoint>
            <Time>2021-07-18T09:35:16.000Z</Time>
            <Position>
              <LatitudeDegrees>42.71548270247876644134521484375</LatitudeDegrees>
              <LongitudeDegrees>-0.20621828734874725341796875</LongitudeDegrees>
            </Position>
            <AltitudeMeters>2104.800048828125</AltitudeMeters>
            <DistanceMeters>NAN</DistanceMeters>
          </Trackpoint>
          <Trackpoint>
            <Time>2021-07-18T09:35:34.000Z</Time>
            <Position>
              <LatitudeDegrees>42.7153734862804412841796875</LatitudeDegrees>
              <LongitudeDegrees>-0.2063542418181896209716796875</LongitudeDegrees>
            </Position>
            <AltitudeMeters>2095.60009765625</AltitudeMeters>
            <DistanceMeters>NAN</DistanceMeters>
          </Trackpoint>
          <Trackpoint>
            <Time>2021-07-18T09:35:37.000Z</Time>
            <Position>
              <LatitudeDegrees>42.7153387852013111114501953125</LatitudeDegrees>
              <LongitudeDegrees>-0.20638852380216121673583984375</LongitudeDegrees>
            </Position>
            <AltitudeMeters>2093</AltitudeMeters>
            <DistanceMeters>NAN</DistanceMeters>
          </Trackpoint>
          <Trackpoint>
            <Time>2021-07-18T09:35:41.000Z</Time>
            <Position>
              <LatitudeDegrees>42.71532696671783924102783203125</LatitudeDegrees>
              <LongitudeDegrees>-0.20638885907828807830810546875</LongitudeDegrees>
            </Position>
            <AltitudeMeters>2092.800048828125</AltitudeMeters>
            <DistanceMeters>NAN</DistanceMeters>
          </Trackpoint>
          <Trackpoint>
            <Time>2021-07-18T09:35:48.000Z</Time>
            <Position>
              <LatitudeDegrees>42.71529494784772396087646484375</LatitudeDegrees>
              <LongitudeDegrees>-0.2064068801701068878173828125</LongitudeDegrees>
            </Position>
            <AltitudeMeters>2091.199951171875</AltitudeMeters>
            <DistanceMeters>NAN</DistanceMeters>
          </Trackpoint>
          <Trackpoint>
            <Time>2021-07-18T09:35:59.000Z</Time>
            <Position>
              <LatitudeDegrees>42.7152378670871257781982421875</LatitudeDegrees>
              <LongitudeDegrees>-0.206447951495647430419921875</LongitudeDegrees>
            </Position>
            <AltitudeMeters>2088.199951171875</AltitudeMeters>
            <DistanceMeters>NAN</DistanceMeters>
          </Trackpoint>
          <Trackpoint>
            <Time>2021-07-18T09:36:02.000Z</Time>
            <Position>
              <LatitudeDegrees>42.7152224443852901458740234375</LatitudeDegrees>
              <LongitudeDegrees>-0.20646764896810054779052734375</LongitudeDegrees>
            </Position>
            <AltitudeMeters>2086.800048828125</AltitudeMeters>
            <DistanceMeters>NAN</DistanceMeters>
          </Trackpoint>
          <Trackpoint>
            <Time>2021-07-18T09:36:08.000Z</Time>
            <Position>
              <LatitudeDegrees>42.7151932753622531890869140625</LatitudeDegrees>
              <LongitudeDegrees>-0.20649187266826629638671875</LongitudeDegrees>
            </Position>
            <AltitudeMeters>2085.199951171875</AltitudeMeters>
            <DistanceMeters>NAN</DistanceMeters>
          </Trackpoint>
          <Trackpoint>
            <Time>2021-07-18T09:36:19.000Z</Time>
            <Position>
              <LatitudeDegrees>42.7151305787265300750732421875</LatitudeDegrees>
              <LongitudeDegrees>-0.20651978440582752227783203125</LongitudeDegrees>
            </Position>
            <AltitudeMeters>2082.60009765625</AltitudeMeters>
            <DistanceMeters>NAN</DistanceMeters>
          </Trackpoint>
          <Trackpoint>
            <Time>2021-07-18T09:36:27.000Z</Time>
            <Position>
              <LatitudeDegrees>42.71508171223104000091552734375</LatitudeDegrees>
              <LongitudeDegrees>-0.20653571002185344696044921875</LongitudeDegrees>
            </Position>
            <AltitudeMeters>2080.60009765625</AltitudeMeters>
            <DistanceMeters>NAN</DistanceMeters>
          </Trackpoint>
          <Trackpoint>
            <Time>2021-07-18T09:36:35.000Z</Time>
            <Position>
              <LatitudeDegrees>42.7150410600006580352783203125</LatitudeDegrees>
              <LongitudeDegrees>-0.206561274826526641845703125</LongitudeDegrees>
            </Position>
            <AltitudeMeters>2078</AltitudeMeters>
            <DistanceMeters>NAN</DistanceMeters>
          </Trackpoint>
          <Trackpoint>
            <Time>2021-07-18T09:36:37.000Z</Time>
            <Position>
              <LatitudeDegrees>42.715028487145900726318359375</LatitudeDegrees>
              <LongitudeDegrees>-0.2065704949200153350830078125</LongitudeDegrees>
            </Position>
            <AltitudeMeters>2076.800048828125</AltitudeMeters>
            <DistanceMeters>NAN</DistanceMeters>
          </Trackpoint>
          <Trackpoint>
            <Time>2021-07-18T09:36:45.000Z</Time>
            <Position>
              <LatitudeDegrees>42.71499437279999256134033203125</LatitudeDegrees>
              <LongitudeDegrees>-0.2066003344953060150146484375</LongitudeDegrees>
            </Position>
            <AltitudeMeters>2073.800048828125</AltitudeMeters>
            <DistanceMeters>NAN</DistanceMeters>
          </Trackpoint>
          <Trackpoint>
            <Time>2021-07-18T09:36:55.000Z</Time>
            <Position>
              <LatitudeDegrees>42.7149461768567562103271484375</LatitudeDegrees>
              <LongitudeDegrees>-0.20663931034505367279052734375</LongitudeDegrees>
            </Position>
            <AltitudeMeters>2069.60009765625</AltitudeMeters>
            <DistanceMeters>NAN</DistanceMeters>
          </Trackpoint>
          <Trackpoint>
            <Time>2021-07-18T09:37:06.000Z</Time>
            <Position>
              <LatitudeDegrees>42.7149062789976596832275390625</LatitudeDegrees>
              <LongitudeDegrees>-0.20667904056608676910400390625</LongitudeDegrees>
            </Position>
            <AltitudeMeters>2065.60009765625</AltitudeMeters>
            <DistanceMeters>NAN</DistanceMeters>
          </Trackpoint>
          <Trackpoint>
            <Time>2021-07-18T09:37:09.000Z</Time>
            <Position>
              <LatitudeDegrees>42.7148848213255405426025390625</LatitudeDegrees>
              <LongitudeDegrees>-0.2066958881914615631103515625</LongitudeDegrees>
            </Position>
            <AltitudeMeters>2063.800048828125</AltitudeMeters>
            <DistanceMeters>NAN</DistanceMeters>
          </Trackpoint>
          <Trackpoint>
            <Time>2021-07-18T09:37:14.000Z</Time>
            <Position>
              <LatitudeDegrees>42.71483897231519222259521484375</LatitudeDegrees>
              <LongitudeDegrees>-0.20672027952969074249267578125</LongitudeDegrees>
            </Position>
            <AltitudeMeters>2060.199951171875</AltitudeMeters>
            <DistanceMeters>NAN</DistanceMeters>
          </Trackpoint>
          <Trackpoint>
            <Time>2021-07-18T09:37:22.000Z</Time>
            <Position>
              <LatitudeDegrees>42.71478138864040374755859375</LatitudeDegrees>
              <LongitudeDegrees>-0.206773169338703155517578125</LongitudeDegrees>
            </Position>
            <AltitudeMeters>2054.800048828125</AltitudeMeters>
            <DistanceMeters>NAN</DistanceMeters>
          </Trackpoint>
          <Trackpoint>
            <Time>2021-07-18T09:37:30.000Z</Time>
            <Position>
              <LatitudeDegrees>42.71474182605743408203125</LatitudeDegrees>
              <LongitudeDegrees>-0.206843912601470947265625</LongitudeDegrees>
            </Position>
            <AltitudeMeters>2050</AltitudeMeters>
            <DistanceMeters>NAN</DistanceMeters>
          </Trackpoint>
          <Trackpoint>
            <Time>2021-07-18T09:37:33.000Z</Time>
            <Position>
              <LatitudeDegrees>42.71473671309649944305419921875</LatitudeDegrees>
              <LongitudeDegrees>-0.20686344243586063385009765625</LongitudeDegrees>
            </Position>
            <AltitudeMeters>2048.800048828125</AltitudeMeters>
            <DistanceMeters>NAN</DistanceMeters>
          </Trackpoint>
          <Trackpoint>
            <Time>2021-07-18T09:37:38.000Z</Time>
            <Position>
              <LatitudeDegrees>42.7147064544260501861572265625</LatitudeDegrees>
              <LongitudeDegrees>-0.20687752403318881988525390625</LongitudeDegrees>
            </Position>
            <AltitudeMeters>2047</AltitudeMeters>
            <DistanceMeters>NAN</DistanceMeters>
          </Trackpoint>
          <Trackpoint>
            <Time>2021-07-18T09:37:48.000Z</Time>
            <Position>
              <LatitudeDegrees>42.71464593708515167236328125</LatitudeDegrees>
              <LongitudeDegrees>-0.2069292403757572174072265625</LongitudeDegrees>
            </Position>
            <AltitudeMeters>2042.800048828125</AltitudeMeters>
            <DistanceMeters>NAN</DistanceMeters>
          </Trackpoint>
          <Trackpoint>
            <Time>2021-07-18T09:37:55.000Z</Time>
            <Position>
              <LatitudeDegrees>42.71459321491420269012451171875</LatitudeDegrees>
              <LongitudeDegrees>-0.20695463754236698150634765625</LongitudeDegrees>
            </Position>
            <AltitudeMeters>2039.5999755859375</AltitudeMeters>
            <DistanceMeters>NAN</DistanceMeters>
          </Trackpoint>
          <Trackpoint>
            <Time>2021-07-18T09:38:02.000Z</Time>
            <Position>
              <LatitudeDegrees>42.71456287242472171783447265625</LatitudeDegrees>
              <LongitudeDegrees>-0.20697475410997867584228515625</LongitudeDegrees>
            </Position>
            <AltitudeMeters>2037.5999755859375</AltitudeMeters>
            <DistanceMeters>NAN</DistanceMeters>
          </Trackpoint>
          <Trackpoint>
            <Time>2021-07-18T09:38:06.000Z</Time>
            <Position>
              <LatitudeDegrees>42.71455616690218448638916015625</LatitudeDegrees>
              <LongitudeDegrees>-0.2069711498916149139404296875</LongitudeDegrees>
            </Position>
            <AltitudeMeters>2037.4000244140625</AltitudeMeters>
            <DistanceMeters>NAN</DistanceMeters>
          </Trackpoint>
          <Trackpoint>
            <Time>2021-07-18T09:38:13.000Z</Time>
            <Position>
              <LatitudeDegrees>42.7145217172801494598388671875</LatitudeDegrees>
              <LongitudeDegrees>-0.2069684676826000213623046875</LongitudeDegrees>
            </Position>
            <AltitudeMeters>2035.800048828125</AltitudeMeters>
            <DistanceMeters>NAN</DistanceMeters>
          </Trackpoint>
          <Trackpoint>
            <Time>2021-07-18T09:38:23.000Z</Time>
            <Position>
              <LatitudeDegrees>42.71446413360536098480224609375</LatitudeDegrees>
              <LongitudeDegrees>-0.20701062865555286407470703125</LongitudeDegrees>
            </Position>
            <AltitudeMeters>2032.4000244140625</AltitudeMeters>
            <DistanceMeters>NAN</DistanceMeters>
          </Trackpoint>
          <Trackpoint>
            <Time>2021-07-18T09:38:34.000Z</Time>
            <Position>
              <LatitudeDegrees>42.7144281752407550811767578125</LatitudeDegrees>
              <LongitudeDegrees>-0.2070987224578857421875</LongitudeDegrees>
            </Position>
            <AltitudeMeters>2028.4000244140625</AltitudeMeters>
            <DistanceMeters>NAN</DistanceMeters>
          </Trackpoint>
          <Trackpoint>
            <Time>2021-07-18T09:38:39.000Z</Time>
            <Position>
              <LatitudeDegrees>42.71443094126880168914794921875</LatitudeDegrees>
              <LongitudeDegrees>-0.207141302525997161865234375</LongitudeDegrees>
            </Position>
            <AltitudeMeters>2027.4000244140625</AltitudeMeters>
            <DistanceMeters>NAN</DistanceMeters>
          </Trackpoint>
          <Trackpoint>
            <Time>2021-07-18T09:38:46.000Z</Time>
            <Position>
              <LatitudeDegrees>42.714475281536579132080078125</LatitudeDegrees>
              <LongitudeDegrees>-0.2071749977767467498779296875</LongitudeDegrees>
            </Position>
            <AltitudeMeters>2027.4000244140625</AltitudeMeters>
            <DistanceMeters>NAN</DistanceMeters>
          </Trackpoint>
          <Trackpoint>
            <Time>2021-07-18T09:38:51.000Z</Time>
            <Position>
              <LatitudeDegrees>42.7145186997950077056884765625</LatitudeDegrees>
              <LongitudeDegrees>-0.20717089064419269561767578125</LongitudeDegrees>
            </Position>
            <AltitudeMeters>2030</AltitudeMeters>
            <DistanceMeters>NAN</DistanceMeters>
          </Trackpoint>
          <Trackpoint>
            <Time>2021-07-18T09:38:53.000Z</Time>
            <Position>
              <LatitudeDegrees>42.71452791988849639892578125</LatitudeDegrees>
              <LongitudeDegrees>-0.2071639336645603179931640625</LongitudeDegrees>
            </Position>
            <AltitudeMeters>2030.4000244140625</AltitudeMeters>
            <DistanceMeters>NAN</DistanceMeters>
          </Trackpoint>
          <Trackpoint>
            <Time>2021-07-18T09:38:55.000Z</Time>
            <Position>
              <LatitudeDegrees>42.71453588269650936126708984375</LatitudeDegrees>
              <LongitudeDegrees>-0.2071578986942768096923828125</LongitudeDegrees>
            </Position>
            <AltitudeMeters>2030.800048828125</AltitudeMeters>
            <DistanceMeters>NAN</DistanceMeters>
          </Trackpoint>
          <Trackpoint>
            <Time>2021-07-18T09:39:03.000Z</Time>
            <Position>
              <LatitudeDegrees>42.71457410417497158050537109375</LatitudeDegrees>
              <LongitudeDegrees>-0.2071314118802547454833984375</LongitudeDegrees>
            </Position>
            <AltitudeMeters>2033.199951171875</AltitudeMeters>
            <DistanceMeters>NAN</DistanceMeters>
          </Trackpoint>
          <Trackpoint>
            <Time>2021-07-18T09:39:12.000Z</Time>
            <Position>
              <LatitudeDegrees>42.714606039226055145263671875</LatitudeDegrees>
              <LongitudeDegrees>-0.2071394585072994232177734375</LongitudeDegrees>
            </Position>
            <AltitudeMeters>2034</AltitudeMeters>
            <DistanceMeters>NAN</DistanceMeters>
          </Trackpoint>
          <Trackpoint>
            <Time>2021-07-18T09:39:20.000Z</Time>
            <Position>
              <LatitudeDegrees>42.71462204866111278533935546875</LatitudeDegrees>
              <LongitudeDegrees>-0.20718120038509368896484375</LongitudeDegrees>
            </Position>
            <AltitudeMeters>2033.800048828125</AltitudeMeters>
            <DistanceMeters>NAN</DistanceMeters>
          </Trackpoint>
          <Trackpoint>
            <Time>2021-07-18T09:39:25.000Z</Time>
            <Position>
              <LatitudeDegrees>42.71463252604007720947265625</LatitudeDegrees>
              <LongitudeDegrees>-0.2072008140385150909423828125</LongitudeDegrees>
            </Position>
            <AltitudeMeters>2033.800048828125</AltitudeMeters>
            <DistanceMeters>NAN</DistanceMeters>
          </Trackpoint>
          <Trackpoint>
            <Time>2021-07-18T09:39:27.000Z</Time>
            <Position>
              <LatitudeDegrees>42.714637555181980133056640625</LatitudeDegrees>
              <LongitudeDegrees>-0.2072038315236568450927734375</LongitudeDegrees>
            </Position>
            <AltitudeMeters>2034</AltitudeMeters>
            <DistanceMeters>NAN</DistanceMeters>
          </Trackpoint>
          <Trackpoint>
            <Time>2021-07-18T09:39:35.000Z</Time>
            <Position>
              <LatitudeDegrees>42.7146585099399089813232421875</LatitudeDegrees>
              <LongitudeDegrees>-0.20724917761981487274169921875</LongitudeDegrees>
            </Position>
            <AltitudeMeters>2033.800048828125</AltitudeMeters>
            <DistanceMeters>NAN</DistanceMeters>
          </Trackpoint>
          <Trackpoint>
            <Time>2021-07-18T09:39:43.000Z</Time>
            <Position>
              <LatitudeDegrees>42.71466228179633617401123046875</LatitudeDegrees>
              <LongitudeDegrees>-0.20726971328258514404296875</LongitudeDegrees>
            </Position>
            <AltitudeMeters>2033.199951171875</AltitudeMeters>
            <DistanceMeters>NAN</DistanceMeters>
          </Trackpoint>
          <Trackpoint>
            <Time>2021-07-18T09:39:53.000Z</Time>
            <Position>
              <LatitudeDegrees>42.71468709222972393035888671875</LatitudeDegrees>
              <LongitudeDegrees>-0.20730567164719104766845703125</LongitudeDegrees>
            </Position>
            <AltitudeMeters>2032.199951171875</AltitudeMeters>
            <DistanceMeters>NAN</DistanceMeters>
          </Trackpoint>
          <Trackpoint>
            <Time>2021-07-18T09:40:01.000Z</Time>
            <Position>
              <LatitudeDegrees>42.71471274085342884063720703125</LatitudeDegrees>
              <LongitudeDegrees>-0.2073107846081256866455078125</LongitudeDegrees>
            </Position>
            <AltitudeMeters>2032.4000244140625</AltitudeMeters>
            <DistanceMeters>NAN</DistanceMeters>
          </Trackpoint>
          <Trackpoint>
            <Time>2021-07-18T09:40:08.000Z</Time>
            <Position>
              <LatitudeDegrees>42.71475255489349365234375</LatitudeDegrees>
              <LongitudeDegrees>-0.2073077671229839324951171875</LongitudeDegrees>
            </Position>
            <AltitudeMeters>2033.199951171875</AltitudeMeters>
            <DistanceMeters>NAN</DistanceMeters>
          </Trackpoint>
          <Trackpoint>
            <Time>2021-07-18T09:40:11.000Z</Time>
            <Position>
              <LatitudeDegrees>42.7147557400166988372802734375</LatitudeDegrees>
              <LongitudeDegrees>-0.2073092758655548095703125</LongitudeDegrees>
            </Position>
            <AltitudeMeters>2033.199951171875</AltitudeMeters>
            <DistanceMeters>NAN</DistanceMeters>
          </Trackpoint>
          <Trackpoint>
            <Time>2021-07-18T09:40:14.000Z</Time>
            <Position>
              <LatitudeDegrees>42.71476001478731632232666015625</LatitudeDegrees>
              <LongitudeDegrees>-0.2073201723396778106689453125</LongitudeDegrees>
            </Position>
            <AltitudeMeters>2032.800048828125</AltitudeMeters>
            <DistanceMeters>NAN</DistanceMeters>
          </Trackpoint>
          <Trackpoint>
            <Time>2021-07-18T09:40:23.000Z</Time>
            <Position>
              <LatitudeDegrees>42.7147711627185344696044921875</LatitudeDegrees>
              <LongitudeDegrees>-0.2073667757213115692138671875</LongitudeDegrees>
            </Position>
            <AltitudeMeters>2031</AltitudeMeters>
            <DistanceMeters>NAN</DistanceMeters>
          </Trackpoint>
          <Trackpoint>
            <Time>2021-07-18T09:40:27.000Z</Time>
            <Position>
              <LatitudeDegrees>42.7147855795919895172119140625</LatitudeDegrees>
              <LongitudeDegrees>-0.20736970938742160797119140625</LongitudeDegrees>
            </Position>
            <AltitudeMeters>2031.199951171875</AltitudeMeters>
            <DistanceMeters>NAN</DistanceMeters>
          </Trackpoint>
          <Trackpoint>
            <Time>2021-07-18T09:40:33.000Z</Time>
            <Position>
              <LatitudeDegrees>42.714799158275127410888671875</LatitudeDegrees>
              <LongitudeDegrees>-0.2073583938181400299072265625</LongitudeDegrees>
            </Position>
            <AltitudeMeters>2032</AltitudeMeters>
            <DistanceMeters>NAN</DistanceMeters>
          </Trackpoint>
          <Trackpoint>
            <Time>2021-07-18T09:40:43.000Z</Time>
            <Position>
              <LatitudeDegrees>42.71484551019966602325439453125</LatitudeDegrees>
              <LongitudeDegrees>-0.20738529972732067108154296875</LongitudeDegrees>
            </Position>
            <AltitudeMeters>2031.800048828125</AltitudeMeters>
            <DistanceMeters>NAN</DistanceMeters>
          </Trackpoint>
          <Trackpoint>
            <Time>2021-07-18T09:40:49.000Z</Time>
            <Position>
              <LatitudeDegrees>42.71486965008080005645751953125</LatitudeDegrees>
              <LongitudeDegrees>-0.20740977488458156585693359375</LongitudeDegrees>
            </Position>
            <AltitudeMeters>2031</AltitudeMeters>
            <DistanceMeters>NAN</DistanceMeters>
          </Trackpoint>
          <Trackpoint>
            <Time>2021-07-18T09:40:54.000Z</Time>
            <Position>
              <LatitudeDegrees>42.71487836726009845733642578125</LatitudeDegrees>
              <LongitudeDegrees>-0.20743123255670070648193359375</LongitudeDegrees>
            </Position>
            <AltitudeMeters>2030.199951171875</AltitudeMeters>
            <DistanceMeters>NAN</DistanceMeters>
          </Trackpoint>
          <Trackpoint>
            <Time>2021-07-18T09:41:05.000Z</Time>
            <Position>
              <LatitudeDegrees>42.7148972265422344207763671875</LatitudeDegrees>
              <LongitudeDegrees>-0.2074928395450115203857421875</LongitudeDegrees>
            </Position>
            <AltitudeMeters>2027.4000244140625</AltitudeMeters>
            <DistanceMeters>NAN</DistanceMeters>
          </Trackpoint>
          <Trackpoint>
            <Time>2021-07-18T09:41:14.000Z</Time>
            <Position>
              <LatitudeDegrees>42.7148975618183612823486328125</LatitudeDegrees>
              <LongitudeDegrees>-0.20752410404384136199951171875</LongitudeDegrees>
            </Position>
            <AltitudeMeters>2025.800048828125</AltitudeMeters>
            <DistanceMeters>NAN</DistanceMeters>
          </Trackpoint>
          <Trackpoint>
            <Time>2021-07-18T09:41:23.000Z</Time>
            <Position>
              <LatitudeDegrees>42.714905440807342529296875</LatitudeDegrees>
              <LongitudeDegrees>-0.20757548511028289794921875</LongitudeDegrees>
            </Position>
            <AltitudeMeters>2023.4000244140625</AltitudeMeters>
            <DistanceMeters>NAN</DistanceMeters>
          </Trackpoint>
          <Trackpoint>
            <Time>2021-07-18T09:41:24.000Z</Time>
            <Position>
              <LatitudeDegrees>42.714908123016357421875</LatitudeDegrees>
              <LongitudeDegrees>-0.207582525908946990966796875</LongitudeDegrees>
            </Position>
            <AltitudeMeters>2023</AltitudeMeters>
            <DistanceMeters>NAN</DistanceMeters>
          </Trackpoint>
          <Trackpoint>
            <Time>2021-07-18T09:41:34.000Z</Time>
            <Position>
              <LatitudeDegrees>42.71497023291885852813720703125</LatitudeDegrees>
              <LongitudeDegrees>-0.2075840346515178680419921875</LongitudeDegrees>
            </Position>
            <AltitudeMeters>2024.4000244140625</AltitudeMeters>
            <DistanceMeters>NAN</DistanceMeters>
          </Trackpoint>
          <Trackpoint>
            <Time>2021-07-18T09:41:44.000Z</Time>
            <Position>
              <LatitudeDegrees>42.7150102145969867706298828125</LatitudeDegrees>
              <LongitudeDegrees>-0.20759484730660915374755859375</LongitudeDegrees>
            </Position>
            <AltitudeMeters>2024.5999755859375</AltitudeMeters>
            <DistanceMeters>NAN</DistanceMeters>
          </Trackpoint>
          <Trackpoint>
            <Time>2021-07-18T09:41:49.000Z</Time>
            <Position>
              <LatitudeDegrees>42.71502438001334667205810546875</LatitudeDegrees>
              <LongitudeDegrees>-0.207603983581066131591796875</LongitudeDegrees>
            </Position>
            <AltitudeMeters>2024.5999755859375</AltitudeMeters>
            <DistanceMeters>NAN</DistanceMeters>
          </Trackpoint>
          <Trackpoint>
            <Time>2021-07-18T09:41:55.000Z</Time>
            <Position>
              <LatitudeDegrees>42.71501298062503337860107421875</LatitudeDegrees>
              <LongitudeDegrees>-0.20763927139341831207275390625</LongitudeDegrees>
            </Position>
            <AltitudeMeters>2022.5999755859375</AltitudeMeters>
            <DistanceMeters>NAN</DistanceMeters>
          </Trackpoint>
          <Trackpoint>
            <Time>2021-07-18T09:42:10.000Z</Time>
            <Position>
              <LatitudeDegrees>42.71500669419765472412109375</LatitudeDegrees>
              <LongitudeDegrees>-0.20764647983014583587646484375</LongitudeDegrees>
            </Position>
            <AltitudeMeters>2022.199951171875</AltitudeMeters>
            <DistanceMeters>NAN</DistanceMeters>
          </Trackpoint>
          <Trackpoint>
            <Time>2021-07-18T09:42:15.000Z</Time>
            <Position>
              <LatitudeDegrees>42.715007364749908447265625</LatitudeDegrees>
              <LongitudeDegrees>-0.20765536464750766754150390625</LongitudeDegrees>
            </Position>
            <AltitudeMeters>2021.800048828125</AltitudeMeters>
            <DistanceMeters>NAN</DistanceMeters>
          </Trackpoint>
          <Trackpoint>
            <Time>2021-07-18T09:42:17.000Z</Time>
            <Position>
              <LatitudeDegrees>42.7150092087686061859130859375</LatitudeDegrees>
              <LongitudeDegrees>-0.20766290836036205291748046875</LongitudeDegrees>
            </Position>
            <AltitudeMeters>2021.4000244140625</AltitudeMeters>
            <DistanceMeters>NAN</DistanceMeters>
          </Trackpoint>
          <Trackpoint>
            <Time>2021-07-18T09:42:23.000Z</Time>
            <Position>
              <LatitudeDegrees>42.71501281298696994781494140625</LatitudeDegrees>
              <LongitudeDegrees>-0.20767380483448505401611328125</LongitudeDegrees>
            </Position>
            <AltitudeMeters>2021</AltitudeMeters>
            <DistanceMeters>NAN</DistanceMeters>
          </Trackpoint>
          <Trackpoint>
            <Time>2021-07-18T09:42:41.000Z</Time>
            <Position>
              <LatitudeDegrees>42.71508389152586460113525390625</LatitudeDegrees>
              <LongitudeDegrees>-0.2076976932585239410400390625</LongitudeDegrees>
            </Position>
            <AltitudeMeters>2022</AltitudeMeters>
            <DistanceMeters>NAN</DistanceMeters>
          </Trackpoint>
          <Trackpoint>
            <Time>2021-07-18T09:43:06.000Z</Time>
            <Position>
              <LatitudeDegrees>42.71522621624171733856201171875</LatitudeDegrees>
              <LongitudeDegrees>-0.20779542624950408935546875</LongitudeDegrees>
            </Position>
            <AltitudeMeters>2024.199951171875</AltitudeMeters>
            <DistanceMeters>NAN</DistanceMeters>
          </Trackpoint>
          <Trackpoint>
            <Time>2021-07-18T09:43:14.000Z</Time>
            <Position>
              <LatitudeDegrees>42.7152449078857898712158203125</LatitudeDegrees>
              <LongitudeDegrees>-0.20787849090993404388427734375</LongitudeDegrees>
            </Position>
            <AltitudeMeters>2019.800048828125</AltitudeMeters>
            <DistanceMeters>NAN</DistanceMeters>
          </Trackpoint>
          <Trackpoint>
            <Time>2021-07-18T09:43:22.000Z</Time>
            <Position>
              <LatitudeDegrees>42.71520073525607585906982421875</LatitudeDegrees>
              <LongitudeDegrees>-0.20791755057871341705322265625</LongitudeDegrees>
            </Position>
            <AltitudeMeters>2016</AltitudeMeters>
            <DistanceMeters>NAN</DistanceMeters>
          </Trackpoint>
          <Trackpoint>
            <Time>2021-07-18T09:43:30.000Z</Time>
            <Position>
              <LatitudeDegrees>42.7152066864073276519775390625</LatitudeDegrees>
              <LongitudeDegrees>-0.20797119475901126861572265625</LongitudeDegrees>
            </Position>
            <AltitudeMeters>2013</AltitudeMeters>
            <DistanceMeters>NAN</DistanceMeters>
          </Trackpoint>
          <Trackpoint>
            <Time>2021-07-18T09:43:39.000Z</Time>
            <Position>
              <LatitudeDegrees>42.71523325704038143157958984375</LatitudeDegrees>
              <LongitudeDegrees>-0.20801402628421783447265625</LongitudeDegrees>
            </Position>
            <AltitudeMeters>2011.199951171875</AltitudeMeters>
            <DistanceMeters>NAN</DistanceMeters>
          </Trackpoint>
          <Trackpoint>
            <Time>2021-07-18T09:43:48.000Z</Time>
            <Position>
              <LatitudeDegrees>42.7152957022190093994140625</LatitudeDegrees>
              <LongitudeDegrees>-0.2079950831830501556396484375</LongitudeDegrees>
            </Position>
            <AltitudeMeters>2014.4000244140625</AltitudeMeters>
            <DistanceMeters>NAN</DistanceMeters>
          </Trackpoint>
          <Trackpoint>
            <Time>2021-07-18T09:43:54.000Z</Time>
            <Position>
              <LatitudeDegrees>42.71533434279263019561767578125</LatitudeDegrees>
              <LongitudeDegrees>-0.2080024592578411102294921875</LongitudeDegrees>
            </Position>
            <AltitudeMeters>2015.199951171875</AltitudeMeters>
            <DistanceMeters>NAN</DistanceMeters>
          </Trackpoint>
          <Trackpoint>
            <Time>2021-07-18T09:44:02.000Z</Time>
            <Position>
              <LatitudeDegrees>42.7153909206390380859375</LatitudeDegrees>
              <LongitudeDegrees>-0.20798913203179836273193359375</LongitudeDegrees>
            </Position>
            <AltitudeMeters>2016.800048828125</AltitudeMeters>
            <DistanceMeters>NAN</DistanceMeters>
          </Trackpoint>
          <Trackpoint>
            <Time>2021-07-18T09:44:06.000Z</Time>
            <Position>
              <LatitudeDegrees>42.715421430766582489013671875</LatitudeDegrees>
              <LongitudeDegrees>-0.20798108540475368499755859375</LongitudeDegrees>
            </Position>
            <AltitudeMeters>2017.5999755859375</AltitudeMeters>
            <DistanceMeters>NAN</DistanceMeters>
          </Trackpoint>
          <Trackpoint>
            <Time>2021-07-18T09:44:09.000Z</Time>
            <Position>
              <LatitudeDegrees>42.71544364280998706817626953125</LatitudeDegrees>
              <LongitudeDegrees>-0.207976140081882476806640625</LongitudeDegrees>
            </Position>
            <AltitudeMeters>2018</AltitudeMeters>
            <DistanceMeters>NAN</DistanceMeters>
          </Trackpoint>
          <Trackpoint>
            <Time>2021-07-18T09:44:18.000Z</Time>
            <Position>
              <LatitudeDegrees>42.71547884680330753326416015625</LatitudeDegrees>
              <LongitudeDegrees>-0.207976810634136199951171875</LongitudeDegrees>
            </Position>
            <AltitudeMeters>2018.4000244140625</AltitudeMeters>
            <DistanceMeters>NAN</DistanceMeters>
          </Trackpoint>
          <Trackpoint>
            <Time>2021-07-18T09:44:27.000Z</Time>
            <Position>
              <LatitudeDegrees>42.715463340282440185546875</LatitudeDegrees>
              <LongitudeDegrees>-0.20802215673029422760009765625</LongitudeDegrees>
            </Position>
            <AltitudeMeters>2015.5999755859375</AltitudeMeters>
            <DistanceMeters>NAN</DistanceMeters>
          </Trackpoint>
          <Trackpoint>
            <Time>2021-07-18T09:44:38.000Z</Time>
            <Position>
              <LatitudeDegrees>42.71545588038861751556396484375</LatitudeDegrees>
              <LongitudeDegrees>-0.20806825719773769378662109375</LongitudeDegrees>
            </Position>
            <AltitudeMeters>2012.800048828125</AltitudeMeters>
            <DistanceMeters>NAN</DistanceMeters>
          </Trackpoint>
          <Trackpoint>
            <Time>2021-07-18T09:44:47.000Z</Time>
            <Position>
              <LatitudeDegrees>42.71545638330280780792236328125</LatitudeDegrees>
              <LongitudeDegrees>-0.20808887667953968048095703125</LongitudeDegrees>
            </Position>
            <AltitudeMeters>2011.5999755859375</AltitudeMeters>
            <DistanceMeters>NAN</DistanceMeters>
          </Trackpoint>
          <Trackpoint>
            <Time>2021-07-18T09:45:47.000Z</Time>
            <Position>
              <LatitudeDegrees>42.715568281710147857666015625</LatitudeDegrees>
              <LongitudeDegrees>-0.20809608511626720428466796875</LongitudeDegrees>
            </Position>
            <AltitudeMeters>2012.199951171875</AltitudeMeters>
            <DistanceMeters>NAN</DistanceMeters>
          </Trackpoint>
          <Trackpoint>
            <Time>2021-07-18T09:47:08.000Z</Time>
            <Position>
              <LatitudeDegrees>42.71572041325271129608154296875</LatitudeDegrees>
              <LongitudeDegrees>-0.2082291059195995330810546875</LongitudeDegrees>
            </Position>
            <AltitudeMeters>2005</AltitudeMeters>
            <DistanceMeters>NAN</DistanceMeters>
          </Trackpoint>
          <Trackpoint>
            <Time>2021-07-18T09:47:13.000Z</Time>
            <Position>
              <LatitudeDegrees>42.715723514556884765625</LatitudeDegrees>
              <LongitudeDegrees>-0.20824201405048370361328125</LongitudeDegrees>
            </Position>
            <AltitudeMeters>2004.5999755859375</AltitudeMeters>
            <DistanceMeters>NAN</DistanceMeters>
          </Trackpoint>
          <Trackpoint>
            <Time>2021-07-18T09:47:15.000Z</Time>
            <Position>
              <LatitudeDegrees>42.7157240174710750579833984375</LatitudeDegrees>
              <LongitudeDegrees>-0.20824679173529148101806640625</LongitudeDegrees>
            </Position>
            <AltitudeMeters>2004.4000244140625</AltitudeMeters>
            <DistanceMeters>NAN</DistanceMeters>
          </Trackpoint>
          <Trackpoint>
            <Time>2021-07-18T09:47:27.000Z</Time>
            <Position>
              <LatitudeDegrees>42.71572292782366275787353515625</LatitudeDegrees>
              <LongitudeDegrees>-0.20827361382544040679931640625</LongitudeDegrees>
            </Position>
            <AltitudeMeters>2003.4000244140625</AltitudeMeters>
            <DistanceMeters>NAN</DistanceMeters>
          </Trackpoint>
          <Trackpoint>
            <Time>2021-07-18T09:47:46.000Z</Time>
            <Position>
              <LatitudeDegrees>42.7157310582697391510009765625</LatitudeDegrees>
              <LongitudeDegrees>-0.20833128131926059722900390625</LongitudeDegrees>
            </Position>
            <AltitudeMeters>2001.5999755859375</AltitudeMeters>
            <DistanceMeters>NAN</DistanceMeters>
          </Trackpoint>
          <Trackpoint>
            <Time>2021-07-18T09:48:06.000Z</Time>
            <Position>
              <LatitudeDegrees>42.71581512875854969024658203125</LatitudeDegrees>
              <LongitudeDegrees>-0.208397917449474334716796875</LongitudeDegrees>
            </Position>
            <AltitudeMeters>1998.199951171875</AltitudeMeters>
            <DistanceMeters>NAN</DistanceMeters>
          </Trackpoint>
          <Trackpoint>
            <Time>2021-07-18T09:48:07.000Z</Time>
            <Position>
              <LatitudeDegrees>42.7158316411077976226806640625</LatitudeDegrees>
              <LongitudeDegrees>-0.20840965211391448974609375</LongitudeDegrees>
            </Position>
            <AltitudeMeters>1997.199951171875</AltitudeMeters>
            <DistanceMeters>NAN</DistanceMeters>
          </Trackpoint>
          <Trackpoint>
            <Time>2021-07-18T09:48:15.000Z</Time>
            <Position>
              <LatitudeDegrees>42.71589576266705989837646484375</LatitudeDegrees>
              <LongitudeDegrees>-0.20847662352025508880615234375</LongitudeDegrees>
            </Position>
            <AltitudeMeters>1991.4000244140625</AltitudeMeters>
            <DistanceMeters>NAN</DistanceMeters>
          </Trackpoint>
          <Trackpoint>
            <Time>2021-07-18T09:48:25.000Z</Time>
            <Position>
              <LatitudeDegrees>42.71592191420495510101318359375</LatitudeDegrees>
              <LongitudeDegrees>-0.20850696600973606109619140625</LongitudeDegrees>
            </Position>
            <AltitudeMeters>1989.199951171875</AltitudeMeters>
            <DistanceMeters>NAN</DistanceMeters>
          </Trackpoint>
          <Trackpoint>
            <Time>2021-07-18T09:48:32.000Z</Time>
            <Position>
              <LatitudeDegrees>42.715947814285755157470703125</LatitudeDegrees>
              <LongitudeDegrees>-0.2085526473820209503173828125</LongitudeDegrees>
            </Position>
            <AltitudeMeters>1986.199951171875</AltitudeMeters>
            <DistanceMeters>NAN</DistanceMeters>
          </Trackpoint>
          <Trackpoint>
            <Time>2021-07-18T09:48:34.000Z</Time>
            <Position>
              <LatitudeDegrees>42.715954519808292388916015625</LatitudeDegrees>
              <LongitudeDegrees>-0.208570919930934906005859375</LongitudeDegrees>
            </Position>
            <AltitudeMeters>1985</AltitudeMeters>
            <DistanceMeters>NAN</DistanceMeters>
          </Trackpoint>
          <Trackpoint>
            <Time>2021-07-18T09:48:37.000Z</Time>
            <Position>
              <LatitudeDegrees>42.715958543121814727783203125</LatitudeDegrees>
              <LongitudeDegrees>-0.20857729017734527587890625</LongitudeDegrees>
            </Position>
            <AltitudeMeters>1984.4000244140625</AltitudeMeters>
            <DistanceMeters>NAN</DistanceMeters>
          </Trackpoint>
          <Trackpoint>
            <Time>2021-07-18T09:48:40.000Z</Time>
            <Position>
              <LatitudeDegrees>42.7159640751779079437255859375</LatitudeDegrees>
              <LongitudeDegrees>-0.20858324132859706878662109375</LongitudeDegrees>
            </Position>
            <AltitudeMeters>1984</AltitudeMeters>
            <DistanceMeters>NAN</DistanceMeters>
          </Trackpoint>
          <Trackpoint>
            <Time>2021-07-18T09:48:47.000Z</Time>
            <Position>
              <LatitudeDegrees>42.71599165163934230804443359375</LatitudeDegrees>
              <LongitudeDegrees>-0.2085945568978786468505859375</LongitudeDegrees>
            </Position>
            <AltitudeMeters>1983.199951171875</AltitudeMeters>
            <DistanceMeters>NAN</DistanceMeters>
          </Trackpoint>
          <Trackpoint>
            <Time>2021-07-18T09:48:53.000Z</Time>
            <Position>
              <LatitudeDegrees>42.71601076237857341766357421875</LatitudeDegrees>
              <LongitudeDegrees>-0.2086002565920352935791015625</LongitudeDegrees>
            </Position>
            <AltitudeMeters>1982.5999755859375</AltitudeMeters>
            <DistanceMeters>NAN</DistanceMeters>
          </Trackpoint>
          <Trackpoint>
            <Time>2021-07-18T09:49:01.000Z</Time>
            <Position>
              <LatitudeDegrees>42.71605351008474826812744140625</LatitudeDegrees>
              <LongitudeDegrees>-0.20863504149019718170166015625</LongitudeDegrees>
            </Position>
            <AltitudeMeters>1980</AltitudeMeters>
            <DistanceMeters>NAN</DistanceMeters>
          </Trackpoint>
          <Trackpoint>
            <Time>2021-07-18T09:49:02.000Z</Time>
            <Position>
              <LatitudeDegrees>42.71605736576020717620849609375</LatitudeDegrees>
              <LongitudeDegrees>-0.208641327917575836181640625</LongitudeDegrees>
            </Position>
            <AltitudeMeters>1979.5999755859375</AltitudeMeters>
            <DistanceMeters>NAN</DistanceMeters>
          </Trackpoint>
          <Trackpoint>
            <Time>2021-07-18T09:49:06.000Z</Time>
            <Position>
              <LatitudeDegrees>42.7160767279565334320068359375</LatitudeDegrees>
              <LongitudeDegrees>-0.20865784026682376861572265625</LongitudeDegrees>
            </Position>
            <AltitudeMeters>1979.4000244140625</AltitudeMeters>
            <DistanceMeters>NAN</DistanceMeters>
          </Trackpoint>
          <Trackpoint>
            <Time>2021-07-18T09:49:09.000Z</Time>
            <Position>
              <LatitudeDegrees>42.71607899107038974761962890625</LatitudeDegrees>
              <LongitudeDegrees>-0.20866119302809238433837890625</LongitudeDegrees>
            </Position>
            <AltitudeMeters>1979.4000244140625</AltitudeMeters>
            <DistanceMeters>NAN</DistanceMeters>
          </Trackpoint>
          <Trackpoint>
            <Time>2021-07-18T09:49:19.000Z</Time>
            <Position>
              <LatitudeDegrees>42.71610665135085582733154296875</LatitudeDegrees>
              <LongitudeDegrees>-0.20867946557700634002685546875</LongitudeDegrees>
            </Position>
            <AltitudeMeters>1979.5999755859375</AltitudeMeters>
            <DistanceMeters>NAN</DistanceMeters>
          </Trackpoint>
          <Trackpoint>
            <Time>2021-07-18T09:49:30.000Z</Time>
            <Position>
              <LatitudeDegrees>42.71612911485135555267333984375</LatitudeDegrees>
              <LongitudeDegrees>-0.20867460407316684722900390625</LongitudeDegrees>
            </Position>
            <AltitudeMeters>1980.199951171875</AltitudeMeters>
            <DistanceMeters>NAN</DistanceMeters>
          </Trackpoint>
          <Trackpoint>
            <Time>2021-07-18T09:49:36.000Z</Time>
            <Position>
              <LatitudeDegrees>42.7161298692226409912109375</LatitudeDegrees>
              <LongitudeDegrees>-0.20867778919637203216552734375</LongitudeDegrees>
            </Position>
            <AltitudeMeters>1980.199951171875</AltitudeMeters>
            <DistanceMeters>NAN</DistanceMeters>
          </Trackpoint>
          <Trackpoint>
            <Time>2021-07-18T09:49:45.000Z</Time>
            <Position>
              <LatitudeDegrees>42.7161298692226409912109375</LatitudeDegrees>
              <LongitudeDegrees>-0.20867929793894290924072265625</LongitudeDegrees>
            </Position>
            <AltitudeMeters>1980.199951171875</AltitudeMeters>
            <DistanceMeters>NAN</DistanceMeters>
          </Trackpoint>
          <Trackpoint>
            <Time>2021-07-18T09:49:50.000Z</Time>
            <Position>
              <LatitudeDegrees>42.716136910021305084228515625</LatitudeDegrees>
              <LongitudeDegrees>-0.208686254918575286865234375</LongitudeDegrees>
            </Position>
            <AltitudeMeters>1980</AltitudeMeters>
            <DistanceMeters>NAN</DistanceMeters>
          </Trackpoint>
          <Trackpoint>
            <Time>2021-07-18T09:49:51.000Z</Time>
            <Position>
              <LatitudeDegrees>42.7161394245922565460205078125</LatitudeDegrees>
              <LongitudeDegrees>-0.20868969149887561798095703125</LongitudeDegrees>
            </Position>
            <AltitudeMeters>1980</AltitudeMeters>
            <DistanceMeters>NAN</DistanceMeters>
          </Trackpoint>
          <Trackpoint>
            <Time>2021-07-18T09:50:02.000Z</Time>
            <Position>
              <LatitudeDegrees>42.71616281010210514068603515625</LatitudeDegrees>
              <LongitudeDegrees>-0.2087172679603099822998046875</LongitudeDegrees>
            </Position>
            <AltitudeMeters>1979.800048828125</AltitudeMeters>
            <DistanceMeters>NAN</DistanceMeters>
          </Trackpoint>
          <Trackpoint>
            <Time>2021-07-18T09:51:06.000Z</Time>
            <Position>
              <LatitudeDegrees>42.71629708819091320037841796875</LatitudeDegrees>
              <LongitudeDegrees>-0.20894885994493961334228515625</LongitudeDegrees>
            </Position>
            <AltitudeMeters>1975.800048828125</AltitudeMeters>
            <DistanceMeters>NAN</DistanceMeters>
          </Trackpoint>
          <Trackpoint>
            <Time>2021-07-18T09:51:13.000Z</Time>
            <Position>
              <LatitudeDegrees>42.71629876457154750823974609375</LatitudeDegrees>
              <LongitudeDegrees>-0.20895020104944705963134765625</LongitudeDegrees>
            </Position>
            <AltitudeMeters>1975.800048828125</AltitudeMeters>
            <DistanceMeters>NAN</DistanceMeters>
          </Trackpoint>
          <Trackpoint>
            <Time>2021-07-18T09:51:20.000Z</Time>
            <Position>
              <LatitudeDegrees>42.71629876457154750823974609375</LatitudeDegrees>
              <LongitudeDegrees>-0.20895120687782764434814453125</LongitudeDegrees>
            </Position>
            <AltitudeMeters>1975.5999755859375</AltitudeMeters>
            <DistanceMeters>NAN</DistanceMeters>
          </Trackpoint>
          <Trackpoint>
            <Time>2021-07-18T09:51:33.000Z</Time>
            <Position>
              <LatitudeDegrees>42.716301195323467254638671875</LatitudeDegrees>
              <LongitudeDegrees>-0.20895414054393768310546875</LongitudeDegrees>
            </Position>
            <AltitudeMeters>1975.5999755859375</AltitudeMeters>
            <DistanceMeters>NAN</DistanceMeters>
          </Trackpoint>
          <Trackpoint>
            <Time>2021-07-18T09:51:41.000Z</Time>
            <Position>
              <LatitudeDegrees>42.7163020335137844085693359375</LatitudeDegrees>
              <LongitudeDegrees>-0.2089724130928516387939453125</LongitudeDegrees>
            </Position>
            <AltitudeMeters>1975</AltitudeMeters>
            <DistanceMeters>NAN</DistanceMeters>
          </Trackpoint>
          <Trackpoint>
            <Time>2021-07-18T09:51:55.000Z</Time>
            <Position>
              <LatitudeDegrees>42.7163365669548511505126953125</LatitudeDegrees>
              <LongitudeDegrees>-0.20900619216263294219970703125</LongitudeDegrees>
            </Position>
            <AltitudeMeters>1974</AltitudeMeters>
            <DistanceMeters>NAN</DistanceMeters>
          </Trackpoint>
          <Trackpoint>
            <Time>2021-07-18T09:52:02.000Z</Time>
            <Position>
              <LatitudeDegrees>42.71638266742229461669921875</LatitudeDegrees>
              <LongitudeDegrees>-0.20901189185678958892822265625</LongitudeDegrees>
            </Position>
            <AltitudeMeters>1974.199951171875</AltitudeMeters>
            <DistanceMeters>NAN</DistanceMeters>
          </Trackpoint>
          <Trackpoint>
            <Time>2021-07-18T09:52:04.000Z</Time>
            <Position>
              <LatitudeDegrees>42.71639046259224414825439453125</LatitudeDegrees>
              <LongitudeDegrees>-0.20901381969451904296875</LongitudeDegrees>
            </Position>
            <AltitudeMeters>1974.199951171875</AltitudeMeters>
            <DistanceMeters>NAN</DistanceMeters>
          </Trackpoint>
          <Trackpoint>
            <Time>2021-07-18T09:52:07.000Z</Time>
            <Position>
              <LatitudeDegrees>42.7163999341428279876708984375</LatitudeDegrees>
              <LongitudeDegrees>-0.20901826210319995880126953125</LongitudeDegrees>
            </Position>
            <AltitudeMeters>1974</AltitudeMeters>
            <DistanceMeters>NAN</DistanceMeters>
          </Trackpoint>
          <Trackpoint>
            <Time>2021-07-18T09:52:28.000Z</Time>
            <Position>
              <LatitudeDegrees>42.716419212520122528076171875</LatitudeDegrees>
              <LongitudeDegrees>-0.2090864069759845733642578125</LongitudeDegrees>
            </Position>
            <AltitudeMeters>1971.800048828125</AltitudeMeters>
            <DistanceMeters>NAN</DistanceMeters>
          </Trackpoint>
          <Trackpoint>
            <Time>2021-07-18T09:52:40.000Z</Time>
            <Position>
              <LatitudeDegrees>42.71641108207404613494873046875</LatitudeDegrees>
              <LongitudeDegrees>-0.2091038413345813751220703125</LongitudeDegrees>
            </Position>
            <AltitudeMeters>1971.4000244140625</AltitudeMeters>
            <DistanceMeters>NAN</DistanceMeters>
          </Trackpoint>
          <Trackpoint>
            <Time>2021-07-18T09:52:44.000Z</Time>
            <Position>
              <LatitudeDegrees>42.716408483684062957763671875</LatitudeDegrees>
              <LongitudeDegrees>-0.20910593681037425994873046875</LongitudeDegrees>
            </Position>
            <AltitudeMeters>1971.199951171875</AltitudeMeters>
            <DistanceMeters>NAN</DistanceMeters>
          </Trackpoint>
          <Trackpoint>
            <Time>2021-07-18T09:52:48.000Z</Time>
            <Position>
              <LatitudeDegrees>42.7164056338369846343994140625</LatitudeDegrees>
              <LongitudeDegrees>-0.20910694263875484466552734375</LongitudeDegrees>
            </Position>
            <AltitudeMeters>1971.199951171875</AltitudeMeters>
            <DistanceMeters>NAN</DistanceMeters>
          </Trackpoint>
          <Trackpoint>
            <Time>2021-07-18T09:53:01.000Z</Time>
            <Position>
              <LatitudeDegrees>42.7164029516279697418212890625</LatitudeDegrees>
              <LongitudeDegrees>-0.20910744555294513702392578125</LongitudeDegrees>
            </Position>
            <AltitudeMeters>1971.199951171875</AltitudeMeters>
            <DistanceMeters>NAN</DistanceMeters>
          </Trackpoint>
          <Trackpoint>
            <Time>2021-07-18T09:53:12.000Z</Time>
            <Position>
              <LatitudeDegrees>42.7164006046950817108154296875</LatitudeDegrees>
              <LongitudeDegrees>-0.20910778082907199859619140625</LongitudeDegrees>
            </Position>
            <AltitudeMeters>1971.199951171875</AltitudeMeters>
            <DistanceMeters>NAN</DistanceMeters>
          </Trackpoint>
          <Trackpoint>
            <Time>2021-07-18T09:55:09.000Z</Time>
            <Position>
              <LatitudeDegrees>42.71634779870510101318359375</LatitudeDegrees>
              <LongitudeDegrees>-0.2091330103576183319091796875</LongitudeDegrees>
            </Position>
            <AltitudeMeters>1970.199951171875</AltitudeMeters>
            <DistanceMeters>NAN</DistanceMeters>
          </Trackpoint>
          <Trackpoint>
            <Time>2021-07-18T09:55:13.000Z</Time>
            <Position>
              <LatitudeDegrees>42.716344781219959259033203125</LatitudeDegrees>
              <LongitudeDegrees>-0.20913410000503063201904296875</LongitudeDegrees>
            </Position>
            <AltitudeMeters>1970.199951171875</AltitudeMeters>
            <DistanceMeters>NAN</DistanceMeters>
          </Trackpoint>
          <Trackpoint>
            <Time>2021-07-18T09:55:18.000Z</Time>
            <Position>
              <LatitudeDegrees>42.71634084172546863555908203125</LatitudeDegrees>
              <LongitudeDegrees>-0.209135524928569793701171875</LongitudeDegrees>
            </Position>
            <AltitudeMeters>1970.199951171875</AltitudeMeters>
            <DistanceMeters>NAN</DistanceMeters>
          </Trackpoint>
          <Trackpoint>
            <Time>2021-07-18T09:55:20.000Z</Time>
            <Position>
              <LatitudeDegrees>42.71633916534483432769775390625</LatitudeDegrees>
              <LongitudeDegrees>-0.2091360278427600860595703125</LongitudeDegrees>
            </Position>
            <AltitudeMeters>1970.199951171875</AltitudeMeters>
            <DistanceMeters>NAN</DistanceMeters>
          </Trackpoint>
          <Trackpoint>
            <Time>2021-07-18T09:55:27.000Z</Time>
            <Position>
              <LatitudeDegrees>42.716333381831645965576171875</LatitudeDegrees>
              <LongitudeDegrees>-0.2091380394995212554931640625</LongitudeDegrees>
            </Position>
            <AltitudeMeters>1970</AltitudeMeters>
            <DistanceMeters>NAN</DistanceMeters>
          </Trackpoint>
          <Trackpoint>
            <Time>2021-07-18T09:56:14.000Z</Time>
            <Position>
              <LatitudeDegrees>42.7162906341254711151123046875</LatitudeDegrees>
              <LongitudeDegrees>-0.20915321074426174163818359375</LongitudeDegrees>
            </Position>
            <AltitudeMeters>1969.4000244140625</AltitudeMeters>
            <DistanceMeters>NAN</DistanceMeters>
          </Trackpoint>
          <Trackpoint>
            <Time>2021-07-18T09:56:46.000Z</Time>
            <Position>
              <LatitudeDegrees>42.7162584476172924041748046875</LatitudeDegrees>
              <LongitudeDegrees>-0.20916561596095561981201171875</LongitudeDegrees>
            </Position>
            <AltitudeMeters>1969</AltitudeMeters>
            <DistanceMeters>NAN</DistanceMeters>
          </Trackpoint>
          <Trackpoint>
            <Time>2021-07-18T09:57:00.000Z</Time>
            <Position>
              <LatitudeDegrees>42.7162440307438373565673828125</LatitudeDegrees>
              <LongitudeDegrees>-0.20917198620736598968505859375</LongitudeDegrees>
            </Position>
            <AltitudeMeters>1968.5999755859375</AltitudeMeters>
            <DistanceMeters>NAN</DistanceMeters>
          </Trackpoint>
          <Trackpoint>
            <Time>2021-07-18T09:57:21.000Z</Time>
            <Position>
              <LatitudeDegrees>42.7162212319672107696533203125</LatitudeDegrees>
              <LongitudeDegrees>-0.2091826312243938446044921875</LongitudeDegrees>
            </Position>
            <AltitudeMeters>1968.199951171875</AltitudeMeters>
            <DistanceMeters>NAN</DistanceMeters>
          </Trackpoint>
          <Trackpoint>
            <Time>2021-07-18T09:57:26.000Z</Time>
            <Position>
              <LatitudeDegrees>42.7162158675491809844970703125</LatitudeDegrees>
              <LongitudeDegrees>-0.20918539725244045257568359375</LongitudeDegrees>
            </Position>
            <AltitudeMeters>1968.199951171875</AltitudeMeters>
            <DistanceMeters>NAN</DistanceMeters>
          </Trackpoint>
          <Trackpoint>
            <Time>2021-07-18T09:57:48.000Z</Time>
            <Position>
              <LatitudeDegrees>42.71619281731545925140380859375</LatitudeDegrees>
              <LongitudeDegrees>-0.2091987244784832000732421875</LongitudeDegrees>
            </Position>
            <AltitudeMeters>1967.800048828125</AltitudeMeters>
            <DistanceMeters>NAN</DistanceMeters>
          </Trackpoint>
          <Trackpoint>
            <Time>2021-07-18T09:57:52.000Z</Time>
            <Position>
              <LatitudeDegrees>42.7161887101829051971435546875</LatitudeDegrees>
              <LongitudeDegrees>-0.20920132286846637725830078125</LongitudeDegrees>
            </Position>
            <AltitudeMeters>1967.5999755859375</AltitudeMeters>
            <DistanceMeters>NAN</DistanceMeters>
          </Trackpoint>
          <Trackpoint>
            <Time>2021-07-18T09:57:55.000Z</Time>
            <Position>
              <LatitudeDegrees>42.7161856926977634429931640625</LatitudeDegrees>
              <LongitudeDegrees>-0.209203250706195831298828125</LongitudeDegrees>
            </Position>
            <AltitudeMeters>1967.5999755859375</AltitudeMeters>
            <DistanceMeters>NAN</DistanceMeters>
          </Trackpoint>
          <Trackpoint>
            <Time>2021-07-18T09:57:58.000Z</Time>
            <Position>
              <LatitudeDegrees>42.71618259139358997344970703125</LatitudeDegrees>
              <LongitudeDegrees>-0.20920517854392528533935546875</LongitudeDegrees>
            </Position>
            <AltitudeMeters>1967.5999755859375</AltitudeMeters>
            <DistanceMeters>NAN</DistanceMeters>
          </Trackpoint>
          <Trackpoint>
            <Time>2021-07-18T09:58:01.000Z</Time>
            <Position>
              <LatitudeDegrees>42.7161796577274799346923828125</LatitudeDegrees>
              <LongitudeDegrees>-0.2092071063816547393798828125</LongitudeDegrees>
            </Position>
            <AltitudeMeters>1967.4000244140625</AltitudeMeters>
            <DistanceMeters>NAN</DistanceMeters>
          </Trackpoint>
          <Trackpoint>
            <Time>2021-07-18T09:58:08.000Z</Time>
            <Position>
              <LatitudeDegrees>42.71617270074784755706787109375</LatitudeDegrees>
              <LongitudeDegrees>-0.2092114649713039398193359375</LongitudeDegrees>
            </Position>
            <AltitudeMeters>1967.199951171875</AltitudeMeters>
            <DistanceMeters>NAN</DistanceMeters>
          </Trackpoint>
          <Trackpoint>
            <Time>2021-07-18T09:58:14.000Z</Time>
            <Position>
              <LatitudeDegrees>42.71616683341562747955322265625</LatitudeDegrees>
              <LongitudeDegrees>-0.2092151530086994171142578125</LongitudeDegrees>
            </Position>
            <AltitudeMeters>1967</AltitudeMeters>
            <DistanceMeters>NAN</DistanceMeters>
          </Trackpoint>
          <Trackpoint>
            <Time>2021-07-18T09:58:32.000Z</Time>
            <Position>
              <LatitudeDegrees>42.71615023724734783172607421875</LatitudeDegrees>
              <LongitudeDegrees>-0.2092258818447589874267578125</LongitudeDegrees>
            </Position>
            <AltitudeMeters>1966.4000244140625</AltitudeMeters>
            <DistanceMeters>NAN</DistanceMeters>
          </Trackpoint>
          <Trackpoint>
            <Time>2021-07-18T09:58:34.000Z</Time>
            <Position>
              <LatitudeDegrees>42.7161484770476818084716796875</LatitudeDegrees>
              <LongitudeDegrees>-0.20922697149217128753662109375</LongitudeDegrees>
            </Position>
            <AltitudeMeters>1966.4000244140625</AltitudeMeters>
            <DistanceMeters>NAN</DistanceMeters>
          </Trackpoint>
          <Trackpoint>
            <Time>2021-07-18T09:58:44.000Z</Time>
            <Position>
              <LatitudeDegrees>42.71613967604935169219970703125</LatitudeDegrees>
              <LongitudeDegrees>-0.209232755005359649658203125</LongitudeDegrees>
            </Position>
            <AltitudeMeters>1966</AltitudeMeters>
            <DistanceMeters>NAN</DistanceMeters>
          </Trackpoint>
          <Trackpoint>
            <Time>2021-07-18T09:58:55.000Z</Time>
            <Position>
              <LatitudeDegrees>42.71612978540360927581787109375</LatitudeDegrees>
              <LongitudeDegrees>-0.20923912525177001953125</LongitudeDegrees>
            </Position>
            <AltitudeMeters>1965.5999755859375</AltitudeMeters>
            <DistanceMeters>NAN</DistanceMeters>
          </Trackpoint>
          <Trackpoint>
            <Time>2021-07-18T09:59:03.000Z</Time>
            <Position>
              <LatitudeDegrees>42.71612249314785003662109375</LatitudeDegrees>
              <LongitudeDegrees>-0.20924423821270465850830078125</LongitudeDegrees>
            </Position>
            <AltitudeMeters>1965.199951171875</AltitudeMeters>
            <DistanceMeters>NAN</DistanceMeters>
          </Trackpoint>
          <Trackpoint>
            <Time>2021-07-18T09:59:54.000Z</Time>
            <Position>
              <LatitudeDegrees>42.7160770632326602935791015625</LatitudeDegrees>
              <LongitudeDegrees>-0.20928212441504001617431640625</LongitudeDegrees>
            </Position>
            <AltitudeMeters>1963</AltitudeMeters>
            <DistanceMeters>NAN</DistanceMeters>
          </Trackpoint>
          <Trackpoint>
            <Time>2021-07-18T09:59:59.000Z</Time>
            <Position>
              <LatitudeDegrees>42.71607287228107452392578125</LatitudeDegrees>
              <LongitudeDegrees>-0.20928648300468921661376953125</LongitudeDegrees>
            </Position>
            <AltitudeMeters>1962.800048828125</AltitudeMeters>
            <DistanceMeters>NAN</DistanceMeters>
          </Trackpoint>
          <Trackpoint>
            <Time>2021-07-18T10:00:07.000Z</Time>
            <Position>
              <LatitudeDegrees>42.716066502034664154052734375</LatitudeDegrees>
              <LongitudeDegrees>-0.20929369144141674041748046875</LongitudeDegrees>
            </Position>
            <AltitudeMeters>1962.4000244140625</AltitudeMeters>
            <DistanceMeters>NAN</DistanceMeters>
          </Trackpoint>
          <Trackpoint>
            <Time>2021-07-18T10:00:09.000Z</Time>
            <Position>
              <LatitudeDegrees>42.71606490947306156158447265625</LatitudeDegrees>
              <LongitudeDegrees>-0.20929553546011447906494140625</LongitudeDegrees>
            </Position>
            <AltitudeMeters>1962.4000244140625</AltitudeMeters>
            <DistanceMeters>NAN</DistanceMeters>
          </Trackpoint>
          <Trackpoint>
            <Time>2021-07-18T10:00:10.000Z</Time>
            <Position>
              <LatitudeDegrees>42.716064155101776123046875</LatitudeDegrees>
              <LongitudeDegrees>-0.209296457469463348388671875</LongitudeDegrees>
            </Position>
            <AltitudeMeters>1962.4000244140625</AltitudeMeters>
            <DistanceMeters>NAN</DistanceMeters>
          </Trackpoint>
          <Trackpoint>
            <Time>2021-07-18T10:00:12.000Z</Time>
            <Position>
              <LatitudeDegrees>42.7160626463592052459716796875</LatitudeDegrees>
              <LongitudeDegrees>-0.2092983014881610870361328125</LongitudeDegrees>
            </Position>
            <AltitudeMeters>1962.199951171875</AltitudeMeters>
            <DistanceMeters>NAN</DistanceMeters>
          </Trackpoint>
          <Trackpoint>
            <Time>2021-07-18T10:00:33.000Z</Time>
            <Position>
              <LatitudeDegrees>42.71604579873383045196533203125</LatitudeDegrees>
              <LongitudeDegrees>-0.209317244589328765869140625</LongitudeDegrees>
            </Position>
            <AltitudeMeters>1961.4000244140625</AltitudeMeters>
            <DistanceMeters>NAN</DistanceMeters>
          </Trackpoint>
          <Trackpoint>
            <Time>2021-07-18T10:00:39.000Z</Time>
            <Position>
              <LatitudeDegrees>42.71604076959192752838134765625</LatitudeDegrees>
              <LongitudeDegrees>-0.20932269282639026641845703125</LongitudeDegrees>
            </Position>
            <AltitudeMeters>1961.199951171875</AltitudeMeters>
            <DistanceMeters>NAN</DistanceMeters>
          </Trackpoint>
          <Trackpoint>
            <Time>2021-07-18T10:01:11.000Z</Time>
            <Position>
              <LatitudeDegrees>42.716014198958873748779296875</LatitudeDegrees>
              <LongitudeDegrees>-0.20935487933456897735595703125</LongitudeDegrees>
            </Position>
            <AltitudeMeters>1959.5999755859375</AltitudeMeters>
            <DistanceMeters>NAN</DistanceMeters>
          </Trackpoint>
          <Trackpoint>
            <Time>2021-07-18T10:01:16.000Z</Time>
            <Position>
              <LatitudeDegrees>42.71601009182631969451904296875</LatitudeDegrees>
              <LongitudeDegrees>-0.20936024375259876251220703125</LongitudeDegrees>
            </Position>
            <AltitudeMeters>1959.4000244140625</AltitudeMeters>
            <DistanceMeters>NAN</DistanceMeters>
          </Trackpoint>
          <Trackpoint>
            <Time>2021-07-18T10:01:18.000Z</Time>
            <Position>
              <LatitudeDegrees>42.71600849926471710205078125</LatitudeDegrees>
              <LongitudeDegrees>-0.209362506866455078125</LongitudeDegrees>
            </Position>
            <AltitudeMeters>1959.4000244140625</AltitudeMeters>
            <DistanceMeters>NAN</DistanceMeters>
          </Trackpoint>
          <Trackpoint>
            <Time>2021-07-18T10:01:22.000Z</Time>
            <Position>
              <LatitudeDegrees>42.716005146503448486328125</LatitudeDegrees>
              <LongitudeDegrees>-0.20936694927513599395751953125</LongitudeDegrees>
            </Position>
            <AltitudeMeters>1959</AltitudeMeters>
            <DistanceMeters>NAN</DistanceMeters>
          </Trackpoint>
          <Trackpoint>
            <Time>2021-07-18T10:01:35.000Z</Time>
            <Position>
              <LatitudeDegrees>42.71599450148642063140869140625</LatitudeDegrees>
              <LongitudeDegrees>-0.2093826234340667724609375</LongitudeDegrees>
            </Position>
            <AltitudeMeters>1958</AltitudeMeters>
            <DistanceMeters>NAN</DistanceMeters>
          </Trackpoint>
          <Trackpoint>
            <Time>2021-07-18T10:01:59.000Z</Time>
            <Position>
              <LatitudeDegrees>42.7159748040139675140380859375</LatitudeDegrees>
              <LongitudeDegrees>-0.2094139717519283294677734375</LongitudeDegrees>
            </Position>
            <AltitudeMeters>1955.800048828125</AltitudeMeters>
            <DistanceMeters>NAN</DistanceMeters>
          </Trackpoint>
          <Trackpoint>
            <Time>2021-07-18T10:02:15.000Z</Time>
            <Position>
              <LatitudeDegrees>42.71596265025436878204345703125</LatitudeDegrees>
              <LongitudeDegrees>-0.209436602890491485595703125</LongitudeDegrees>
            </Position>
            <AltitudeMeters>1954.4000244140625</AltitudeMeters>
            <DistanceMeters>NAN</DistanceMeters>
          </Trackpoint>
          <Trackpoint>
            <Time>2021-07-18T10:02:18.000Z</Time>
            <Position>
              <LatitudeDegrees>42.715960554778575897216796875</LatitudeDegrees>
              <LongitudeDegrees>-0.20944104529917240142822265625</LongitudeDegrees>
            </Position>
            <AltitudeMeters>1954</AltitudeMeters>
            <DistanceMeters>NAN</DistanceMeters>
          </Trackpoint>
          <Trackpoint>
            <Time>2021-07-18T10:02:24.000Z</Time>
            <Position>
              <LatitudeDegrees>42.71595628000795841217041015625</LatitudeDegrees>
              <LongitudeDegrees>-0.20944976247847080230712890625</LongitudeDegrees>
            </Position>
            <AltitudeMeters>1953.4000244140625</AltitudeMeters>
            <DistanceMeters>NAN</DistanceMeters>
          </Trackpoint>
          <Trackpoint>
            <Time>2021-07-18T10:02:37.000Z</Time>
            <Position>
              <LatitudeDegrees>42.7159473113715648651123046875</LatitudeDegrees>
              <LongitudeDegrees>-0.2094684541225433349609375</LongitudeDegrees>
            </Position>
            <AltitudeMeters>1952.199951171875</AltitudeMeters>
            <DistanceMeters>NAN</DistanceMeters>
          </Trackpoint>
          <Trackpoint>
            <Time>2021-07-18T10:02:55.000Z</Time>
            <Position>
              <LatitudeDegrees>42.71593482233583927154541015625</LatitudeDegrees>
              <LongitudeDegrees>-0.20949468947947025299072265625</LongitudeDegrees>
            </Position>
            <AltitudeMeters>1950.5999755859375</AltitudeMeters>
            <DistanceMeters>NAN</DistanceMeters>
          </Trackpoint>
          <Trackpoint>
            <Time>2021-07-18T10:03:09.000Z</Time>
            <Position>
              <LatitudeDegrees>42.7159245125949382781982421875</LatitudeDegrees>
              <LongitudeDegrees>-0.209515728056430816650390625</LongitudeDegrees>
            </Position>
            <AltitudeMeters>1949.199951171875</AltitudeMeters>
            <DistanceMeters>NAN</DistanceMeters>
          </Trackpoint>
          <Trackpoint>
            <Time>2021-07-18T10:03:13.000Z</Time>
            <Position>
              <LatitudeDegrees>42.7159214951097965240478515625</LatitudeDegrees>
              <LongitudeDegrees>-0.2095219306647777557373046875</LongitudeDegrees>
            </Position>
            <AltitudeMeters>1948.800048828125</AltitudeMeters>
            <DistanceMeters>NAN</DistanceMeters>
          </Trackpoint>
          <Trackpoint>
            <Time>2021-07-18T10:03:32.000Z</Time>
            <Position>
              <LatitudeDegrees>42.71590657532215118408203125</LatitudeDegrees>
              <LongitudeDegrees>-0.2095534466207027435302734375</LongitudeDegrees>
            </Position>
            <AltitudeMeters>1946.800048828125</AltitudeMeters>
            <DistanceMeters>NAN</DistanceMeters>
          </Trackpoint>
          <Trackpoint>
            <Time>2021-07-18T10:04:04.000Z</Time>
            <Position>
              <LatitudeDegrees>42.71588151343166828155517578125</LatitudeDegrees>
              <LongitudeDegrees>-0.20961337722837924957275390625</LongitudeDegrees>
            </Position>
            <AltitudeMeters>1942.5999755859375</AltitudeMeters>
            <DistanceMeters>NAN</DistanceMeters>
          </Trackpoint>
          <Trackpoint>
            <Time>2021-07-18T10:04:12.000Z</Time>
            <Position>
              <LatitudeDegrees>42.71587480790913105010986328125</LatitudeDegrees>
              <LongitudeDegrees>-0.20962871611118316650390625</LongitudeDegrees>
            </Position>
            <AltitudeMeters>1941.199951171875</AltitudeMeters>
            <DistanceMeters>NAN</DistanceMeters>
          </Trackpoint>
          <Trackpoint>
            <Time>2021-07-18T10:04:14.000Z</Time>
            <Position>
              <LatitudeDegrees>42.71587313152849674224853515625</LatitudeDegrees>
              <LongitudeDegrees>-0.2096325717866420745849609375</LongitudeDegrees>
            </Position>
            <AltitudeMeters>1941</AltitudeMeters>
            <DistanceMeters>NAN</DistanceMeters>
          </Trackpoint>
          <Trackpoint>
            <Time>2021-07-18T10:04:34.000Z</Time>
            <Position>
              <LatitudeDegrees>42.71585620008409023284912109375</LatitudeDegrees>
              <LongitudeDegrees>-0.20967054180800914764404296875</LongitudeDegrees>
            </Position>
            <AltitudeMeters>1938.4000244140625</AltitudeMeters>
            <DistanceMeters>NAN</DistanceMeters>
          </Trackpoint>
          <Trackpoint>
            <Time>2021-07-18T10:04:40.000Z</Time>
            <Position>
              <LatitudeDegrees>42.7158510871231555938720703125</LatitudeDegrees>
              <LongitudeDegrees>-0.2096818573772907257080078125</LongitudeDegrees>
            </Position>
            <AltitudeMeters>1937.800048828125</AltitudeMeters>
            <DistanceMeters>NAN</DistanceMeters>
          </Trackpoint>
          <Trackpoint>
            <Time>2021-07-18T10:04:47.000Z</Time>
            <Position>
              <LatitudeDegrees>42.7158450521528720855712890625</LatitudeDegrees>
              <LongitudeDegrees>-0.20969501696527004241943359375</LongitudeDegrees>
            </Position>
            <AltitudeMeters>1936.800048828125</AltitudeMeters>
            <DistanceMeters>NAN</DistanceMeters>
          </Trackpoint>
          <Trackpoint>
            <Time>2021-07-18T10:04:51.000Z</Time>
            <Position>
              <LatitudeDegrees>42.71584161557257175445556640625</LatitudeDegrees>
              <LongitudeDegrees>-0.20970247685909271240234375</LongitudeDegrees>
            </Position>
            <AltitudeMeters>1936.4000244140625</AltitudeMeters>
            <DistanceMeters>NAN</DistanceMeters>
          </Trackpoint>
          <Trackpoint>
            <Time>2021-07-18T10:05:08.000Z</Time>
            <Position>
              <LatitudeDegrees>42.7158272825181484222412109375</LatitudeDegrees>
              <LongitudeDegrees>-0.20973307080566883087158203125</LongitudeDegrees>
            </Position>
            <AltitudeMeters>1934</AltitudeMeters>
            <DistanceMeters>NAN</DistanceMeters>
          </Trackpoint>
          <Trackpoint>
            <Time>2021-07-18T10:05:13.000Z</Time>
            <Position>
              <LatitudeDegrees>42.71582317538559436798095703125</LatitudeDegrees>
              <LongitudeDegrees>-0.20974162034690380096435546875</LongitudeDegrees>
            </Position>
            <AltitudeMeters>1933.4000244140625</AltitudeMeters>
            <DistanceMeters>NAN</DistanceMeters>
          </Trackpoint>
          <Trackpoint>
            <Time>2021-07-18T10:05:20.000Z</Time>
            <Position>
              <LatitudeDegrees>42.715817391872406005859375</LatitudeDegrees>
              <LongitudeDegrees>-0.20975352264940738677978515625</LongitudeDegrees>
            </Position>
            <AltitudeMeters>1932.5999755859375</AltitudeMeters>
            <DistanceMeters>NAN</DistanceMeters>
          </Trackpoint>
          <Trackpoint>
            <Time>2021-07-18T10:05:23.000Z</Time>
            <Position>
              <LatitudeDegrees>42.715815044939517974853515625</LatitudeDegrees>
              <LongitudeDegrees>-0.20975855179131031036376953125</LongitudeDegrees>
            </Position>
            <AltitudeMeters>1932.199951171875</AltitudeMeters>
            <DistanceMeters>NAN</DistanceMeters>
          </Trackpoint>
          <Trackpoint>
            <Time>2021-07-18T10:05:41.000Z</Time>
            <Position>
              <LatitudeDegrees>42.71580071188509464263916015625</LatitudeDegrees>
              <LongitudeDegrees>-0.20978830754756927490234375</LongitudeDegrees>
            </Position>
            <AltitudeMeters>1930</AltitudeMeters>
            <DistanceMeters>NAN</DistanceMeters>
          </Trackpoint>
          <Trackpoint>
            <Time>2021-07-18T10:05:47.000Z</Time>
            <Position>
              <LatitudeDegrees>42.71579601801931858062744140625</LatitudeDegrees>
              <LongitudeDegrees>-0.20979811437427997589111328125</LongitudeDegrees>
            </Position>
            <AltitudeMeters>1929.199951171875</AltitudeMeters>
            <DistanceMeters>NAN</DistanceMeters>
          </Trackpoint>
          <Trackpoint>
            <Time>2021-07-18T10:05:49.000Z</Time>
            <Position>
              <LatitudeDegrees>42.7157944254577159881591796875</LatitudeDegrees>
              <LongitudeDegrees>-0.209801383316516876220703125</LongitudeDegrees>
            </Position>
            <AltitudeMeters>1929</AltitudeMeters>
            <DistanceMeters>NAN</DistanceMeters>
          </Trackpoint>
          <Trackpoint>
            <Time>2021-07-18T10:05:51.000Z</Time>
            <Position>
              <LatitudeDegrees>42.71579283289611339569091796875</LatitudeDegrees>
              <LongitudeDegrees>-0.20980465225875377655029296875</LongitudeDegrees>
            </Position>
            <AltitudeMeters>1928.800048828125</AltitudeMeters>
            <DistanceMeters>NAN</DistanceMeters>
          </Trackpoint>
          <Trackpoint>
            <Time>2021-07-18T10:05:54.000Z</Time>
            <Position>
              <LatitudeDegrees>42.715790569782257080078125</LatitudeDegrees>
              <LongitudeDegrees>-0.2098095975816249847412109375</LongitudeDegrees>
            </Position>
            <AltitudeMeters>1928.4000244140625</AltitudeMeters>
            <DistanceMeters>NAN</DistanceMeters>
          </Trackpoint>
          <Trackpoint>
            <Time>2021-07-18T10:05:57.000Z</Time>
            <Position>
              <LatitudeDegrees>42.715788222849369049072265625</LatitudeDegrees>
              <LongitudeDegrees>-0.2098144590854644775390625</LongitudeDegrees>
            </Position>
            <AltitudeMeters>1928</AltitudeMeters>
            <DistanceMeters>NAN</DistanceMeters>
          </Trackpoint>
          <Trackpoint>
            <Time>2021-07-18T10:06:01.000Z</Time>
            <Position>
              <LatitudeDegrees>42.71578512154519557952880859375</LatitudeDegrees>
              <LongitudeDegrees>-0.20982091315090656280517578125</LongitudeDegrees>
            </Position>
            <AltitudeMeters>1927.5999755859375</AltitudeMeters>
            <DistanceMeters>NAN</DistanceMeters>
          </Trackpoint>
          <Trackpoint>
            <Time>2021-07-18T10:06:04.000Z</Time>
            <Position>
              <LatitudeDegrees>42.715782858431339263916015625</LatitudeDegrees>
              <LongitudeDegrees>-0.2098256908357143402099609375</LongitudeDegrees>
            </Position>
            <AltitudeMeters>1927.199951171875</AltitudeMeters>
            <DistanceMeters>NAN</DistanceMeters>
          </Trackpoint>
          <Trackpoint>
            <Time>2021-07-18T10:06:07.000Z</Time>
            <Position>
              <LatitudeDegrees>42.71578059531748294830322265625</LatitudeDegrees>
              <LongitudeDegrees>-0.20983046852052211761474609375</LongitudeDegrees>
            </Position>
            <AltitudeMeters>1926.800048828125</AltitudeMeters>
            <DistanceMeters>NAN</DistanceMeters>
          </Trackpoint>
          <Trackpoint>
            <Time>2021-07-18T10:06:15.000Z</Time>
            <Position>
              <LatitudeDegrees>42.71577472798526287078857421875</LatitudeDegrees>
              <LongitudeDegrees>-0.2098431251943111419677734375</LongitudeDegrees>
            </Position>
            <AltitudeMeters>1925.800048828125</AltitudeMeters>
            <DistanceMeters>NAN</DistanceMeters>
          </Trackpoint>
          <Trackpoint>
            <Time>2021-07-18T10:06:32.000Z</Time>
            <Position>
              <LatitudeDegrees>42.71576282568275928497314453125</LatitudeDegrees>
              <LongitudeDegrees>-0.20986919291317462921142578125</LongitudeDegrees>
            </Position>
            <AltitudeMeters>1924</AltitudeMeters>
            <DistanceMeters>NAN</DistanceMeters>
          </Trackpoint>
          <Trackpoint>
            <Time>2021-07-18T10:06:38.000Z</Time>
            <Position>
              <LatitudeDegrees>42.71575880236923694610595703125</LatitudeDegrees>
              <LongitudeDegrees>-0.20987816154956817626953125</LongitudeDegrees>
            </Position>
            <AltitudeMeters>1923.4000244140625</AltitudeMeters>
            <DistanceMeters>NAN</DistanceMeters>
          </Trackpoint>
          <Trackpoint>
            <Time>2021-07-18T10:06:42.000Z</Time>
            <Position>
              <LatitudeDegrees>42.71575612016022205352783203125</LatitudeDegrees>
              <LongitudeDegrees>-0.20988411270081996917724609375</LongitudeDegrees>
            </Position>
            <AltitudeMeters>1922.800048828125</AltitudeMeters>
            <DistanceMeters>NAN</DistanceMeters>
          </Trackpoint>
          <Trackpoint>
            <Time>2021-07-18T10:07:03.000Z</Time>
            <Position>
              <LatitudeDegrees>42.7157411165535449981689453125</LatitudeDegrees>
              <LongitudeDegrees>-0.20991562865674495697021484375</LongitudeDegrees>
            </Position>
            <AltitudeMeters>1920.5999755859375</AltitudeMeters>
            <DistanceMeters>NAN</DistanceMeters>
          </Trackpoint>
          <Trackpoint>
            <Time>2021-07-18T10:07:21.000Z</Time>
            <Position>
              <LatitudeDegrees>42.71572913043200969696044921875</LatitudeDegrees>
              <LongitudeDegrees>-0.20994077436625957489013671875</LongitudeDegrees>
            </Position>
            <AltitudeMeters>1919.4000244140625</AltitudeMeters>
            <DistanceMeters>NAN</DistanceMeters>
          </Trackpoint>
          <Trackpoint>
            <Time>2021-07-18T10:07:24.000Z</Time>
            <Position>
              <LatitudeDegrees>42.715727202594280242919921875</LatitudeDegrees>
              <LongitudeDegrees>-0.209944881498813629150390625</LongitudeDegrees>
            </Position>
            <AltitudeMeters>1919.199951171875</AltitudeMeters>
            <DistanceMeters>NAN</DistanceMeters>
          </Trackpoint>
          <Trackpoint>
            <Time>2021-07-18T10:07:34.000Z</Time>
            <Position>
              <LatitudeDegrees>42.715720832347869873046875</LatitudeDegrees>
              <LongitudeDegrees>-0.20995820872485637664794921875</LongitudeDegrees>
            </Position>
            <AltitudeMeters>1918.5999755859375</AltitudeMeters>
            <DistanceMeters>NAN</DistanceMeters>
          </Trackpoint>
          <Trackpoint>
            <Time>2021-07-18T10:07:37.000Z</Time>
            <Position>
              <LatitudeDegrees>42.7157189883291721343994140625</LatitudeDegrees>
              <LongitudeDegrees>-0.2099621482193470001220703125</LongitudeDegrees>
            </Position>
            <AltitudeMeters>1918.4000244140625</AltitudeMeters>
            <DistanceMeters>NAN</DistanceMeters>
          </Trackpoint>
          <Trackpoint>
            <Time>2021-07-18T10:07:55.000Z</Time>
            <Position>
              <LatitudeDegrees>42.71570784039795398712158203125</LatitudeDegrees>
              <LongitudeDegrees>-0.20998477935791015625</LongitudeDegrees>
            </Position>
            <AltitudeMeters>1917.4000244140625</AltitudeMeters>
            <DistanceMeters>NAN</DistanceMeters>
          </Trackpoint>
          <Trackpoint>
            <Time>2021-07-18T10:07:57.000Z</Time>
            <Position>
              <LatitudeDegrees>42.71570666693150997161865234375</LatitudeDegrees>
              <LongitudeDegrees>-0.20998721010982990264892578125</LongitudeDegrees>
            </Position>
            <AltitudeMeters>1917.4000244140625</AltitudeMeters>
            <DistanceMeters>NAN</DistanceMeters>
          </Trackpoint>
          <Trackpoint>
            <Time>2021-07-18T10:08:07.000Z</Time>
            <Position>
              <LatitudeDegrees>42.71570046432316303253173828125</LatitudeDegrees>
              <LongitudeDegrees>-0.20999944768846035003662109375</LongitudeDegrees>
            </Position>
            <AltitudeMeters>1916.800048828125</AltitudeMeters>
            <DistanceMeters>NAN</DistanceMeters>
          </Trackpoint>
          <Trackpoint>
            <Time>2021-07-18T10:08:26.000Z</Time>
            <Position>
              <LatitudeDegrees>42.71568872965872287750244140625</LatitudeDegrees>
              <LongitudeDegrees>-0.21002258174121379852294921875</LongitudeDegrees>
            </Position>
            <AltitudeMeters>1915.800048828125</AltitudeMeters>
            <DistanceMeters>NAN</DistanceMeters>
          </Trackpoint>
          <Trackpoint>
            <Time>2021-07-18T10:08:34.000Z</Time>
            <Position>
              <LatitudeDegrees>42.71568386815488338470458984375</LatitudeDegrees>
              <LongitudeDegrees>-0.2100322209298610687255859375</LongitudeDegrees>
            </Position>
            <AltitudeMeters>1915.4000244140625</AltitudeMeters>
            <DistanceMeters>NAN</DistanceMeters>
          </Trackpoint>
          <Trackpoint>
            <Time>2021-07-18T10:08:54.000Z</Time>
            <Position>
              <LatitudeDegrees>42.71567146293818950653076171875</LatitudeDegrees>
              <LongitudeDegrees>-0.2100558578968048095703125</LongitudeDegrees>
            </Position>
            <AltitudeMeters>1914.4000244140625</AltitudeMeters>
            <DistanceMeters>NAN</DistanceMeters>
          </Trackpoint>
          <Trackpoint>
            <Time>2021-07-18T10:08:59.000Z</Time>
            <Position>
              <LatitudeDegrees>42.71566844545304775238037109375</LatitudeDegrees>
              <LongitudeDegrees>-0.2100617252290248870849609375</LongitudeDegrees>
            </Position>
            <AltitudeMeters>1914.199951171875</AltitudeMeters>
            <DistanceMeters>NAN</DistanceMeters>
          </Trackpoint>
          <Trackpoint>
            <Time>2021-07-18T10:10:08.000Z</Time>
            <Position>
              <LatitudeDegrees>42.71563106216490268707275390625</LatitudeDegrees>
              <LongitudeDegrees>-0.21013607271015644073486328125</LongitudeDegrees>
            </Position>
            <AltitudeMeters>1910.800048828125</AltitudeMeters>
            <DistanceMeters>NAN</DistanceMeters>
          </Trackpoint>
          <Trackpoint>
            <Time>2021-07-18T10:10:15.000Z</Time>
            <Position>
              <LatitudeDegrees>42.71562770940363407135009765625</LatitudeDegrees>
              <LongitudeDegrees>-0.2101431973278522491455078125</LongitudeDegrees>
            </Position>
            <AltitudeMeters>1910.5999755859375</AltitudeMeters>
            <DistanceMeters>NAN</DistanceMeters>
          </Trackpoint>
          <Trackpoint>
            <Time>2021-07-18T10:10:18.000Z</Time>
            <Position>
              <LatitudeDegrees>42.71562628448009490966796875</LatitudeDegrees>
              <LongitudeDegrees>-0.21014629863202571868896484375</LongitudeDegrees>
            </Position>
            <AltitudeMeters>1910.4000244140625</AltitudeMeters>
            <DistanceMeters>NAN</DistanceMeters>
          </Trackpoint>
          <Trackpoint>
            <Time>2021-07-18T10:10:41.000Z</Time>
            <Position>
              <LatitudeDegrees>42.71561580710113048553466796875</LatitudeDegrees>
              <LongitudeDegrees>-0.2101690135896205902099609375</LongitudeDegrees>
            </Position>
            <AltitudeMeters>1909.5999755859375</AltitudeMeters>
            <DistanceMeters>NAN</DistanceMeters>
          </Trackpoint>
          <Trackpoint>
            <Time>2021-07-18T10:11:00.000Z</Time>
            <Position>
              <LatitudeDegrees>42.7156076766550540924072265625</LatitudeDegrees>
              <LongitudeDegrees>-0.210186950862407684326171875</LongitudeDegrees>
            </Position>
            <AltitudeMeters>1909.199951171875</AltitudeMeters>
            <DistanceMeters>NAN</DistanceMeters>
          </Trackpoint>
          <Trackpoint>
            <Time>2021-07-18T10:11:09.000Z</Time>
            <Position>
              <LatitudeDegrees>42.71560390479862689971923828125</LatitudeDegrees>
              <LongitudeDegrees>-0.2101953327655792236328125</LongitudeDegrees>
            </Position>
            <AltitudeMeters>1909</AltitudeMeters>
            <DistanceMeters>NAN</DistanceMeters>
          </Trackpoint>
          <Trackpoint>
            <Time>2021-07-18T10:11:14.000Z</Time>
            <Position>
              <LatitudeDegrees>42.71560172550380229949951171875</LatitudeDegrees>
              <LongitudeDegrees>-0.21019994281232357025146484375</LongitudeDegrees>
            </Position>
            <AltitudeMeters>1908.800048828125</AltitudeMeters>
            <DistanceMeters>NAN</DistanceMeters>
          </Trackpoint>
          <Trackpoint>
            <Time>2021-07-18T10:11:23.000Z</Time>
            <Position>
              <LatitudeDegrees>42.71559786982834339141845703125</LatitudeDegrees>
              <LongitudeDegrees>-0.2102082408964633941650390625</LongitudeDegrees>
            </Position>
            <AltitudeMeters>1908.800048828125</AltitudeMeters>
            <DistanceMeters>NAN</DistanceMeters>
          </Trackpoint>
          <Trackpoint>
            <Time>2021-07-18T10:11:25.000Z</Time>
            <Position>
              <LatitudeDegrees>42.71559703163802623748779296875</LatitudeDegrees>
              <LongitudeDegrees>-0.2102100849151611328125</LongitudeDegrees>
            </Position>
            <AltitudeMeters>1908.800048828125</AltitudeMeters>
            <DistanceMeters>NAN</DistanceMeters>
          </Trackpoint>
          <Trackpoint>
            <Time>2021-07-18T10:11:40.000Z</Time>
            <Position>
              <LatitudeDegrees>42.715590409934520721435546875</LatitudeDegrees>
              <LongitudeDegrees>-0.210223495960235595703125</LongitudeDegrees>
            </Position>
            <AltitudeMeters>1908.5999755859375</AltitudeMeters>
            <DistanceMeters>NAN</DistanceMeters>
          </Trackpoint>
          <Trackpoint>
            <Time>2021-07-18T10:11:52.000Z</Time>
            <Position>
              <LatitudeDegrees>42.71558529697358608245849609375</LatitudeDegrees>
              <LongitudeDegrees>-0.2102337218821048736572265625</LongitudeDegrees>
            </Position>
            <AltitudeMeters>1908.4000244140625</AltitudeMeters>
            <DistanceMeters>NAN</DistanceMeters>
          </Trackpoint>
          <Trackpoint>
            <Time>2021-07-18T10:12:37.000Z</Time>
            <Position>
              <LatitudeDegrees>42.7155692875385284423828125</LatitudeDegrees>
              <LongitudeDegrees>-0.21027018316090106964111328125</LongitudeDegrees>
            </Position>
            <AltitudeMeters>1908</AltitudeMeters>
            <DistanceMeters>NAN</DistanceMeters>
          </Trackpoint>
          <Trackpoint>
            <Time>2021-07-18T10:12:45.000Z</Time>
            <Position>
              <LatitudeDegrees>42.71556652151048183441162109375</LatitudeDegrees>
              <LongitudeDegrees>-0.2102766372263431549072265625</LongitudeDegrees>
            </Position>
            <AltitudeMeters>1908</AltitudeMeters>
            <DistanceMeters>NAN</DistanceMeters>
          </Trackpoint>
          <Trackpoint>
            <Time>2021-07-18T10:12:55.000Z</Time>
            <Position>
              <LatitudeDegrees>42.7155627496540546417236328125</LatitudeDegrees>
              <LongitudeDegrees>-0.21028451621532440185546875</LongitudeDegrees>
            </Position>
            <AltitudeMeters>1908</AltitudeMeters>
            <DistanceMeters>NAN</DistanceMeters>
          </Trackpoint>
          <Trackpoint>
            <Time>2021-07-18T10:12:57.000Z</Time>
            <Position>
              <LatitudeDegrees>42.71556199528276920318603515625</LatitudeDegrees>
              <LongitudeDegrees>-0.2102860249578952789306640625</LongitudeDegrees>
            </Position>
            <AltitudeMeters>1908</AltitudeMeters>
            <DistanceMeters>NAN</DistanceMeters>
          </Trackpoint>
          <Trackpoint>
            <Time>2021-07-18T10:13:14.000Z</Time>
            <Position>
              <LatitudeDegrees>42.715556211769580841064453125</LatitudeDegrees>
              <LongitudeDegrees>-0.2102984301745891571044921875</LongitudeDegrees>
            </Position>
            <AltitudeMeters>1907.800048828125</AltitudeMeters>
            <DistanceMeters>NAN</DistanceMeters>
          </Trackpoint>
          <Trackpoint>
            <Time>2021-07-18T10:13:21.000Z</Time>
            <Position>
              <LatitudeDegrees>42.71555394865572452545166015625</LatitudeDegrees>
              <LongitudeDegrees>-0.21030337549746036529541015625</LongitudeDegrees>
            </Position>
            <AltitudeMeters>1907.800048828125</AltitudeMeters>
            <DistanceMeters>NAN</DistanceMeters>
          </Trackpoint>
          <Trackpoint>
            <Time>2021-07-18T10:13:34.000Z</Time>
            <Position>
              <LatitudeDegrees>42.71554992534220218658447265625</LatitudeDegrees>
              <LongitudeDegrees>-0.21031259559094905853271484375</LongitudeDegrees>
            </Position>
            <AltitudeMeters>1907.5999755859375</AltitudeMeters>
            <DistanceMeters>NAN</DistanceMeters>
          </Trackpoint>
          <Trackpoint>
            <Time>2021-07-18T10:13:38.000Z</Time>
            <Position>
              <LatitudeDegrees>42.715525366365909576416015625</LatitudeDegrees>
              <LongitudeDegrees>-0.21035903133451938629150390625</LongitudeDegrees>
            </Position>
            <AltitudeMeters>1907.199951171875</AltitudeMeters>
            <DistanceMeters>NAN</DistanceMeters>
          </Trackpoint>
          <Trackpoint>
            <Time>2021-07-18T10:13:39.000Z</Time>
            <Position>
              <LatitudeDegrees>42.715495191514492034912109375</LatitudeDegrees>
              <LongitudeDegrees>-0.2104033716022968292236328125</LongitudeDegrees>
            </Position>
            <AltitudeMeters>1906.5999755859375</AltitudeMeters>
            <DistanceMeters>NAN</DistanceMeters>
          </Trackpoint>
          <Trackpoint>
            <Time>2021-07-18T10:13:40.000Z</Time>
            <Position>
              <LatitudeDegrees>42.71547029726207256317138671875</LatitudeDegrees>
              <LongitudeDegrees>-0.210444442927837371826171875</LongitudeDegrees>
            </Position>
            <AltitudeMeters>1906</AltitudeMeters>
            <DistanceMeters>NAN</DistanceMeters>
          </Trackpoint>
          <Trackpoint>
            <Time>2021-07-18T10:13:43.000Z</Time>
            <Position>
              <LatitudeDegrees>42.7153837122023105621337890625</LatitudeDegrees>
              <LongitudeDegrees>-0.210584588348865509033203125</LongitudeDegrees>
            </Position>
            <AltitudeMeters>1905</AltitudeMeters>
            <DistanceMeters>NAN</DistanceMeters>
          </Trackpoint>
          <Trackpoint>
            <Time>2021-07-18T10:13:44.000Z</Time>
            <Position>
              <LatitudeDegrees>42.7153600752353668212890625</LatitudeDegrees>
              <LongitudeDegrees>-0.21062574349343776702880859375</LongitudeDegrees>
            </Position>
            <AltitudeMeters>1904.800048828125</AltitudeMeters>
            <DistanceMeters>NAN</DistanceMeters>
          </Trackpoint>
          <Trackpoint>
            <Time>2021-07-18T10:13:45.000Z</Time>
            <Position>
              <LatitudeDegrees>42.71534708328545093536376953125</LatitudeDegrees>
              <LongitudeDegrees>-0.21066346205770969390869140625</LongitudeDegrees>
            </Position>
            <AltitudeMeters>1904.800048828125</AltitudeMeters>
            <DistanceMeters>NAN</DistanceMeters>
          </Trackpoint>
          <Trackpoint>
            <Time>2021-07-18T10:13:48.000Z</Time>
            <Position>
              <LatitudeDegrees>42.715297043323516845703125</LatitudeDegrees>
              <LongitudeDegrees>-0.21074828691780567169189453125</LongitudeDegrees>
            </Position>
            <AltitudeMeters>1906.5999755859375</AltitudeMeters>
            <DistanceMeters>NAN</DistanceMeters>
          </Trackpoint>
          <Trackpoint>
            <Time>2021-07-18T10:13:50.000Z</Time>
            <Position>
              <LatitudeDegrees>42.71530332975089550018310546875</LatitudeDegrees>
              <LongitudeDegrees>-0.21074853837490081787109375</LongitudeDegrees>
            </Position>
            <AltitudeMeters>1906.4000244140625</AltitudeMeters>
            <DistanceMeters>NAN</DistanceMeters>
          </Trackpoint>
          <Trackpoint>
            <Time>2021-07-18T10:13:54.000Z</Time>
            <Position>
              <LatitudeDegrees>42.71533551625907421112060546875</LatitudeDegrees>
              <LongitudeDegrees>-0.21074183285236358642578125</LongitudeDegrees>
            </Position>
            <AltitudeMeters>1905</AltitudeMeters>
            <DistanceMeters>NAN</DistanceMeters>
          </Trackpoint>
          <Trackpoint>
            <Time>2021-07-18T10:14:09.000Z</Time>
            <Position>
              <LatitudeDegrees>42.7153347618877887725830078125</LatitudeDegrees>
              <LongitudeDegrees>-0.21074946038424968719482421875</LongitudeDegrees>
            </Position>
            <AltitudeMeters>1905</AltitudeMeters>
            <DistanceMeters>NAN</DistanceMeters>
          </Trackpoint>
          <Trackpoint>
            <Time>2021-07-18T10:14:21.000Z</Time>
            <Position>
              <LatitudeDegrees>42.71533434279263019561767578125</LatitudeDegrees>
              <LongitudeDegrees>-0.2107480354607105255126953125</LongitudeDegrees>
            </Position>
            <AltitudeMeters>1905.199951171875</AltitudeMeters>
            <DistanceMeters>NAN</DistanceMeters>
          </Trackpoint>
          <Trackpoint>
            <Time>2021-07-18T10:14:35.000Z</Time>
            <Position>
              <LatitudeDegrees>42.71533048711717128753662109375</LatitudeDegrees>
              <LongitudeDegrees>-0.2107463590800762176513671875</LongitudeDegrees>
            </Position>
            <AltitudeMeters>1905.199951171875</AltitudeMeters>
            <DistanceMeters>NAN</DistanceMeters>
          </Trackpoint>
          <Trackpoint>
            <Time>2021-07-18T10:15:04.000Z</Time>
            <Position>
              <LatitudeDegrees>42.71535026840865612030029296875</LatitudeDegrees>
              <LongitudeDegrees>-0.21076337434351444244384765625</LongitudeDegrees>
            </Position>
            <AltitudeMeters>1905.199951171875</AltitudeMeters>
            <DistanceMeters>NAN</DistanceMeters>
          </Trackpoint>
          <Trackpoint>
            <Time>2021-07-18T10:15:25.000Z</Time>
            <Position>
              <LatitudeDegrees>42.71531020291149616241455078125</LatitudeDegrees>
              <LongitudeDegrees>-0.21075725555419921875</LongitudeDegrees>
            </Position>
            <AltitudeMeters>1906.199951171875</AltitudeMeters>
            <DistanceMeters>NAN</DistanceMeters>
          </Trackpoint>
          <Trackpoint>
            <Time>2021-07-18T10:15:28.000Z</Time>
            <Position>
              <LatitudeDegrees>42.7153099514544010162353515625</LatitudeDegrees>
              <LongitudeDegrees>-0.21074845455586910247802734375</LongitudeDegrees>
            </Position>
            <AltitudeMeters>1906</AltitudeMeters>
            <DistanceMeters>NAN</DistanceMeters>
          </Trackpoint>
          <Trackpoint>
            <Time>2021-07-18T10:15:44.000Z</Time>
            <Position>
              <LatitudeDegrees>42.715316154062747955322265625</LatitudeDegrees>
              <LongitudeDegrees>-0.21074451506137847900390625</LongitudeDegrees>
            </Position>
            <AltitudeMeters>1905.800048828125</AltitudeMeters>
            <DistanceMeters>NAN</DistanceMeters>
          </Trackpoint>
          <Trackpoint>
            <Time>2021-07-18T10:15:56.000Z</Time>
            <Position>
              <LatitudeDegrees>42.71532193757593631744384765625</LatitudeDegrees>
              <LongitudeDegrees>-0.2107463590800762176513671875</LongitudeDegrees>
            </Position>
            <AltitudeMeters>1905.5999755859375</AltitudeMeters>
            <DistanceMeters>NAN</DistanceMeters>
          </Trackpoint>
          <Trackpoint>
            <Time>2021-07-18T10:16:36.000Z</Time>
            <Position>
              <LatitudeDegrees>42.71532394923269748687744140625</LatitudeDegrees>
              <LongitudeDegrees>-0.210748203098773956298828125</LongitudeDegrees>
            </Position>
            <AltitudeMeters>1905.5999755859375</AltitudeMeters>
            <DistanceMeters>NAN</DistanceMeters>
          </Trackpoint>
          <Trackpoint>
            <Time>2021-07-18T10:16:37.000Z</Time>
            <Position>
              <LatitudeDegrees>42.7153233624994754791259765625</LatitudeDegrees>
              <LongitudeDegrees>-0.21074912510812282562255859375</LongitudeDegrees>
            </Position>
            <AltitudeMeters>1905.5999755859375</AltitudeMeters>
            <DistanceMeters>NAN</DistanceMeters>
          </Trackpoint>
          <Trackpoint>
            <Time>2021-07-18T10:16:40.000Z</Time>
            <Position>
              <LatitudeDegrees>42.715322189033031463623046875</LatitudeDegrees>
              <LongitudeDegrees>-0.21075231023132801055908203125</LongitudeDegrees>
            </Position>
            <AltitudeMeters>1905.5999755859375</AltitudeMeters>
            <DistanceMeters>NAN</DistanceMeters>
          </Trackpoint>
          <Trackpoint>
            <Time>2021-07-18T10:16:51.000Z</Time>
            <Position>
              <LatitudeDegrees>42.7153213508427143096923828125</LatitudeDegrees>
              <LongitudeDegrees>-0.21075800992548465728759765625</LongitudeDegrees>
            </Position>
            <AltitudeMeters>1905.800048828125</AltitudeMeters>
            <DistanceMeters>NAN</DistanceMeters>
          </Trackpoint>
          <Trackpoint>
            <Time>2021-07-18T10:16:56.000Z</Time>
            <Position>
              <LatitudeDegrees>42.71532059647142887115478515625</LatitudeDegrees>
              <LongitudeDegrees>-0.2107584290206432342529296875</LongitudeDegrees>
            </Position>
            <AltitudeMeters>1905.800048828125</AltitudeMeters>
            <DistanceMeters>NAN</DistanceMeters>
          </Trackpoint>
          <Trackpoint>
            <Time>2021-07-18T10:16:59.000Z</Time>
            <Position>
              <LatitudeDegrees>42.7153203450143337249755859375</LatitudeDegrees>
              <LongitudeDegrees>-0.21075784228742122650146484375</LongitudeDegrees>
            </Position>
            <AltitudeMeters>1905.800048828125</AltitudeMeters>
            <DistanceMeters>NAN</DistanceMeters>
          </Trackpoint>
          <Trackpoint>
            <Time>2021-07-18T10:17:03.000Z</Time>
            <Position>
              <LatitudeDegrees>42.7153200097382068634033203125</LatitudeDegrees>
              <LongitudeDegrees>-0.21075733937323093414306640625</LongitudeDegrees>
            </Position>
            <AltitudeMeters>1905.800048828125</AltitudeMeters>
            <DistanceMeters>NAN</DistanceMeters>
          </Trackpoint>
          <Trackpoint>
            <Time>2021-07-18T10:17:06.000Z</Time>
            <Position>
              <LatitudeDegrees>42.71531975828111171722412109375</LatitudeDegrees>
              <LongitudeDegrees>-0.21075717173516750335693359375</LongitudeDegrees>
            </Position>
            <AltitudeMeters>1905.800048828125</AltitudeMeters>
            <DistanceMeters>NAN</DistanceMeters>
          </Trackpoint>
          <Trackpoint>
            <Time>2021-07-18T10:17:10.000Z</Time>
            <Position>
              <LatitudeDegrees>42.715318165719509124755859375</LatitudeDegrees>
              <LongitudeDegrees>-0.21075700409710407257080078125</LongitudeDegrees>
            </Position>
            <AltitudeMeters>1905.800048828125</AltitudeMeters>
            <DistanceMeters>NAN</DistanceMeters>
          </Trackpoint>
          <Trackpoint>
            <Time>2021-07-18T10:17:28.000Z</Time>
            <Position>
              <LatitudeDegrees>42.7153143100440502166748046875</LatitudeDegrees>
              <LongitudeDegrees>-0.21075767464935779571533203125</LongitudeDegrees>
            </Position>
            <AltitudeMeters>1906</AltitudeMeters>
            <DistanceMeters>NAN</DistanceMeters>
          </Trackpoint>
          <Trackpoint>
            <Time>2021-07-18T10:17:36.000Z</Time>
            <Position>
              <LatitudeDegrees>42.71531405858695507049560546875</LatitudeDegrees>
              <LongitudeDegrees>-0.2107577584683895111083984375</LongitudeDegrees>
            </Position>
            <AltitudeMeters>1906</AltitudeMeters>
            <DistanceMeters>NAN</DistanceMeters>
          </Trackpoint>
          <Trackpoint>
            <Time>2021-07-18T10:17:41.000Z</Time>
            <Position>
              <LatitudeDegrees>42.7153139747679233551025390625</LatitudeDegrees>
              <LongitudeDegrees>-0.2107577584683895111083984375</LongitudeDegrees>
            </Position>
            <AltitudeMeters>1906</AltitudeMeters>
            <DistanceMeters>NAN</DistanceMeters>
          </Trackpoint>
          <Trackpoint>
            <Time>2021-07-18T10:17:45.000Z</Time>
            <Position>
              <LatitudeDegrees>42.7153139747679233551025390625</LatitudeDegrees>
              <LongitudeDegrees>-0.2107577584683895111083984375</LongitudeDegrees>
            </Position>
            <AltitudeMeters>1906</AltitudeMeters>
            <DistanceMeters>NAN</DistanceMeters>
          </Trackpoint>
          <Trackpoint>
            <Time>2021-07-18T10:17:57.000Z</Time>
            <Position>
              <LatitudeDegrees>42.71531405858695507049560546875</LatitudeDegrees>
              <LongitudeDegrees>-0.2107577584683895111083984375</LongitudeDegrees>
            </Position>
            <AltitudeMeters>1906</AltitudeMeters>
            <DistanceMeters>NAN</DistanceMeters>
          </Trackpoint>
          <Trackpoint>
            <Time>2021-07-18T10:18:10.000Z</Time>
            <Position>
              <LatitudeDegrees>42.71531422622501850128173828125</LatitudeDegrees>
              <LongitudeDegrees>-0.21075750701129436492919921875</LongitudeDegrees>
            </Position>
            <AltitudeMeters>1906</AltitudeMeters>
            <DistanceMeters>NAN</DistanceMeters>
          </Trackpoint>
          <Trackpoint>
            <Time>2021-07-18T10:18:15.000Z</Time>
            <Position>
              <LatitudeDegrees>42.71531439386308193206787109375</LatitudeDegrees>
              <LongitudeDegrees>-0.21075733937323093414306640625</LongitudeDegrees>
            </Position>
            <AltitudeMeters>1906</AltitudeMeters>
            <DistanceMeters>NAN</DistanceMeters>
          </Trackpoint>
          <Trackpoint>
            <Time>2021-07-18T10:18:27.000Z</Time>
            <Position>
              <LatitudeDegrees>42.7153146453201770782470703125</LatitudeDegrees>
              <LongitudeDegrees>-0.21075700409710407257080078125</LongitudeDegrees>
            </Position>
            <AltitudeMeters>1906</AltitudeMeters>
            <DistanceMeters>NAN</DistanceMeters>
          </Trackpoint>
          <Trackpoint>
            <Time>2021-07-18T10:18:39.000Z</Time>
            <Position>
              <LatitudeDegrees>42.7153149805963039398193359375</LatitudeDegrees>
              <LongitudeDegrees>-0.21075658500194549560546875</LongitudeDegrees>
            </Position>
            <AltitudeMeters>1906</AltitudeMeters>
            <DistanceMeters>NAN</DistanceMeters>
          </Trackpoint>
          <Trackpoint>
            <Time>2021-07-18T10:18:51.000Z</Time>
            <Position>
              <LatitudeDegrees>42.71531523205339908599853515625</LatitudeDegrees>
              <LongitudeDegrees>-0.210756249725818634033203125</LongitudeDegrees>
            </Position>
            <AltitudeMeters>1906</AltitudeMeters>
            <DistanceMeters>NAN</DistanceMeters>
          </Trackpoint>
          <Trackpoint>
            <Time>2021-07-18T10:19:07.000Z</Time>
            <Position>
              <LatitudeDegrees>42.71531556732952594757080078125</LatitudeDegrees>
              <LongitudeDegrees>-0.21075599826872348785400390625</LongitudeDegrees>
            </Position>
            <AltitudeMeters>1906</AltitudeMeters>
            <DistanceMeters>NAN</DistanceMeters>
          </Trackpoint>
          <Trackpoint>
            <Time>2021-07-18T10:20:04.000Z</Time>
            <Position>
              <LatitudeDegrees>42.71531657315790653228759765625</LatitudeDegrees>
              <LongitudeDegrees>-0.21075583063066005706787109375</LongitudeDegrees>
            </Position>
            <AltitudeMeters>1906</AltitudeMeters>
            <DistanceMeters>NAN</DistanceMeters>
          </Trackpoint>
          <Trackpoint>
            <Time>2021-07-18T10:20:12.000Z</Time>
            <Position>
              <LatitudeDegrees>42.7153166569769382476806640625</LatitudeDegrees>
              <LongitudeDegrees>-0.2107557468116283416748046875</LongitudeDegrees>
            </Position>
            <AltitudeMeters>1905.800048828125</AltitudeMeters>
            <DistanceMeters>NAN</DistanceMeters>
          </Trackpoint>
          <Trackpoint>
            <Time>2021-07-18T10:20:29.000Z</Time>
            <Position>
              <LatitudeDegrees>42.71531690843403339385986328125</LatitudeDegrees>
              <LongitudeDegrees>-0.2107554115355014801025390625</LongitudeDegrees>
            </Position>
            <AltitudeMeters>1905.800048828125</AltitudeMeters>
            <DistanceMeters>NAN</DistanceMeters>
          </Trackpoint>
          <Trackpoint>
            <Time>2021-07-18T10:20:33.000Z</Time>
            <Position>
              <LatitudeDegrees>42.7153169922530651092529296875</LatitudeDegrees>
              <LongitudeDegrees>-0.21075524389743804931640625</LongitudeDegrees>
            </Position>
            <AltitudeMeters>1905.800048828125</AltitudeMeters>
            <DistanceMeters>NAN</DistanceMeters>
          </Trackpoint>
          <Trackpoint>
            <Time>2021-07-18T10:20:45.000Z</Time>
            <Position>
              <LatitudeDegrees>42.7153171598911285400390625</LatitudeDegrees>
              <LongitudeDegrees>-0.21075482480227947235107421875</LongitudeDegrees>
            </Position>
            <AltitudeMeters>1905.800048828125</AltitudeMeters>
            <DistanceMeters>NAN</DistanceMeters>
          </Trackpoint>
          <Trackpoint>
            <Time>2021-07-18T10:20:54.000Z</Time>
            <Position>
              <LatitudeDegrees>42.7153173275291919708251953125</LatitudeDegrees>
              <LongitudeDegrees>-0.210754573345184326171875</LongitudeDegrees>
            </Position>
            <AltitudeMeters>1905.800048828125</AltitudeMeters>
            <DistanceMeters>NAN</DistanceMeters>
          </Trackpoint>
          <Trackpoint>
            <Time>2021-07-18T10:21:06.000Z</Time>
            <Position>
              <LatitudeDegrees>42.71531757898628711700439453125</LatitudeDegrees>
              <LongitudeDegrees>-0.2107544057071208953857421875</LongitudeDegrees>
            </Position>
            <AltitudeMeters>1905.800048828125</AltitudeMeters>
            <DistanceMeters>NAN</DistanceMeters>
          </Trackpoint>
          <Trackpoint>
            <Time>2021-07-18T10:21:18.000Z</Time>
            <Position>
              <LatitudeDegrees>42.71531774662435054779052734375</LatitudeDegrees>
              <LongitudeDegrees>-0.2107544057071208953857421875</LongitudeDegrees>
            </Position>
            <AltitudeMeters>1905.800048828125</AltitudeMeters>
            <DistanceMeters>NAN</DistanceMeters>
          </Trackpoint>
          <Trackpoint>
            <Time>2021-07-18T10:21:26.000Z</Time>
            <Position>
              <LatitudeDegrees>42.71531783044338226318359375</LatitudeDegrees>
              <LongitudeDegrees>-0.21075448952615261077880859375</LongitudeDegrees>
            </Position>
            <AltitudeMeters>1905.800048828125</AltitudeMeters>
            <DistanceMeters>NAN</DistanceMeters>
          </Trackpoint>
          <Trackpoint>
            <Time>2021-07-18T10:21:42.000Z</Time>
            <Position>
              <LatitudeDegrees>42.71531791426241397857666015625</LatitudeDegrees>
              <LongitudeDegrees>-0.210754573345184326171875</LongitudeDegrees>
            </Position>
            <AltitudeMeters>1905.800048828125</AltitudeMeters>
            <DistanceMeters>NAN</DistanceMeters>
          </Trackpoint>
          <Trackpoint>
            <Time>2021-07-18T10:22:00.000Z</Time>
            <Position>
              <LatitudeDegrees>42.71531783044338226318359375</LatitudeDegrees>
              <LongitudeDegrees>-0.21075465716421604156494140625</LongitudeDegrees>
            </Position>
            <AltitudeMeters>1905.800048828125</AltitudeMeters>
            <DistanceMeters>NAN</DistanceMeters>
          </Trackpoint>
          <Trackpoint>
            <Time>2021-07-18T10:22:06.000Z</Time>
            <Position>
              <LatitudeDegrees>42.71531774662435054779052734375</LatitudeDegrees>
              <LongitudeDegrees>-0.21075465716421604156494140625</LongitudeDegrees>
            </Position>
            <AltitudeMeters>1905.800048828125</AltitudeMeters>
            <DistanceMeters>NAN</DistanceMeters>
          </Trackpoint>
          <Trackpoint>
            <Time>2021-07-18T10:22:12.000Z</Time>
            <Position>
              <LatitudeDegrees>42.7153176628053188323974609375</LatitudeDegrees>
              <LongitudeDegrees>-0.210754573345184326171875</LongitudeDegrees>
            </Position>
            <AltitudeMeters>1905.800048828125</AltitudeMeters>
            <DistanceMeters>NAN</DistanceMeters>
          </Trackpoint>
          <Trackpoint>
            <Time>2021-07-18T10:22:18.000Z</Time>
            <Position>
              <LatitudeDegrees>42.71531774662435054779052734375</LatitudeDegrees>
              <LongitudeDegrees>-0.210754573345184326171875</LongitudeDegrees>
            </Position>
            <AltitudeMeters>1905.800048828125</AltitudeMeters>
            <DistanceMeters>NAN</DistanceMeters>
          </Trackpoint>
          <Trackpoint>
            <Time>2021-07-18T10:22:27.000Z</Time>
            <Position>
              <LatitudeDegrees>42.71531783044338226318359375</LatitudeDegrees>
              <LongitudeDegrees>-0.2107547409832477569580078125</LongitudeDegrees>
            </Position>
            <AltitudeMeters>1905.800048828125</AltitudeMeters>
            <DistanceMeters>NAN</DistanceMeters>
          </Trackpoint>
          <Trackpoint>
            <Time>2021-07-18T10:22:30.000Z</Time>
            <Position>
              <LatitudeDegrees>42.71531791426241397857666015625</LatitudeDegrees>
              <LongitudeDegrees>-0.21075482480227947235107421875</LongitudeDegrees>
            </Position>
            <AltitudeMeters>1905.800048828125</AltitudeMeters>
            <DistanceMeters>NAN</DistanceMeters>
          </Trackpoint>
          <Trackpoint>
            <Time>2021-07-18T10:22:34.000Z</Time>
            <Position>
              <LatitudeDegrees>42.7153179980814456939697265625</LatitudeDegrees>
              <LongitudeDegrees>-0.21075499244034290313720703125</LongitudeDegrees>
            </Position>
            <AltitudeMeters>1905.800048828125</AltitudeMeters>
            <DistanceMeters>NAN</DistanceMeters>
          </Trackpoint>
          <Trackpoint>
            <Time>2021-07-18T10:22:48.000Z</Time>
            <Position>
              <LatitudeDegrees>42.7153183333575725555419921875</LatitudeDegrees>
              <LongitudeDegrees>-0.21075566299259662628173828125</LongitudeDegrees>
            </Position>
            <AltitudeMeters>1905.800048828125</AltitudeMeters>
            <DistanceMeters>NAN</DistanceMeters>
          </Trackpoint>
          <Trackpoint>
            <Time>2021-07-18T10:23:41.000Z</Time>
            <Position>
              <LatitudeDegrees>42.71531892009079456329345703125</LatitudeDegrees>
              <LongitudeDegrees>-0.2107577584683895111083984375</LongitudeDegrees>
            </Position>
            <AltitudeMeters>1905.800048828125</AltitudeMeters>
            <DistanceMeters>NAN</DistanceMeters>
          </Trackpoint>
          <Trackpoint>
            <Time>2021-07-18T10:23:42.000Z</Time>
            <Position>
              <LatitudeDegrees>42.71531892009079456329345703125</LatitudeDegrees>
              <LongitudeDegrees>-0.2107577584683895111083984375</LongitudeDegrees>
            </Position>
            <AltitudeMeters>1905.800048828125</AltitudeMeters>
            <DistanceMeters>NAN</DistanceMeters>
          </Trackpoint>
          <Trackpoint>
            <Time>2021-07-18T10:23:44.000Z</Time>
            <Position>
              <LatitudeDegrees>42.71531892009079456329345703125</LatitudeDegrees>
              <LongitudeDegrees>-0.2107577584683895111083984375</LongitudeDegrees>
            </Position>
            <AltitudeMeters>1905.800048828125</AltitudeMeters>
            <DistanceMeters>NAN</DistanceMeters>
          </Trackpoint>
          <Trackpoint>
            <Time>2021-07-18T10:23:46.000Z</Time>
            <Position>
              <LatitudeDegrees>42.71531892009079456329345703125</LatitudeDegrees>
              <LongitudeDegrees>-0.2107577584683895111083984375</LongitudeDegrees>
            </Position>
            <AltitudeMeters>1905.800048828125</AltitudeMeters>
            <DistanceMeters>NAN</DistanceMeters>
          </Trackpoint>
          <Trackpoint>
            <Time>2021-07-18T10:24:10.000Z</Time>
            <Position>
              <LatitudeDegrees>42.71531925536692142486572265625</LatitudeDegrees>
              <LongitudeDegrees>-0.21075800992548465728759765625</LongitudeDegrees>
            </Position>
            <AltitudeMeters>1905.800048828125</AltitudeMeters>
            <DistanceMeters>NAN</DistanceMeters>
          </Trackpoint>
          <Trackpoint>
            <Time>2021-07-18T10:24:12.000Z</Time>
            <Position>
              <LatitudeDegrees>42.7153193391859531402587890625</LatitudeDegrees>
              <LongitudeDegrees>-0.2107580937445163726806640625</LongitudeDegrees>
            </Position>
            <AltitudeMeters>1905.800048828125</AltitudeMeters>
            <DistanceMeters>NAN</DistanceMeters>
          </Trackpoint>
          <Trackpoint>
            <Time>2021-07-18T10:24:14.000Z</Time>
            <Position>
              <LatitudeDegrees>42.7153193391859531402587890625</LatitudeDegrees>
              <LongitudeDegrees>-0.21075817756354808807373046875</LongitudeDegrees>
            </Position>
            <AltitudeMeters>1905.800048828125</AltitudeMeters>
            <DistanceMeters>NAN</DistanceMeters>
          </Trackpoint>
          <Trackpoint>
            <Time>2021-07-18T10:24:45.000Z</Time>
            <Position>
              <LatitudeDegrees>42.71532076410949230194091796875</LatitudeDegrees>
              <LongitudeDegrees>-0.21076002158224582672119140625</LongitudeDegrees>
            </Position>
            <AltitudeMeters>1905.800048828125</AltitudeMeters>
            <DistanceMeters>NAN</DistanceMeters>
          </Trackpoint>
          <Trackpoint>
            <Time>2021-07-18T10:24:50.000Z</Time>
            <Position>
              <LatitudeDegrees>42.71532093174755573272705078125</LatitudeDegrees>
              <LongitudeDegrees>-0.2107604406774044036865234375</LongitudeDegrees>
            </Position>
            <AltitudeMeters>1905.800048828125</AltitudeMeters>
            <DistanceMeters>NAN</DistanceMeters>
          </Trackpoint>
          <Trackpoint>
            <Time>2021-07-18T10:25:02.000Z</Time>
            <Position>
              <LatitudeDegrees>42.71532126702368259429931640625</LatitudeDegrees>
              <LongitudeDegrees>-0.21076136268675327301025390625</LongitudeDegrees>
            </Position>
            <AltitudeMeters>1905.800048828125</AltitudeMeters>
            <DistanceMeters>NAN</DistanceMeters>
          </Trackpoint>
          <Trackpoint>
            <Time>2021-07-18T10:25:10.000Z</Time>
            <Position>
              <LatitudeDegrees>42.715321518480777740478515625</LatitudeDegrees>
              <LongitudeDegrees>-0.21076203323900699615478515625</LongitudeDegrees>
            </Position>
            <AltitudeMeters>1905.800048828125</AltitudeMeters>
            <DistanceMeters>NAN</DistanceMeters>
          </Trackpoint>
          <Trackpoint>
            <Time>2021-07-18T10:25:14.000Z</Time>
            <Position>
              <LatitudeDegrees>42.71532160229980945587158203125</LatitudeDegrees>
              <LongitudeDegrees>-0.21076236851513385772705078125</LongitudeDegrees>
            </Position>
            <AltitudeMeters>1905.800048828125</AltitudeMeters>
            <DistanceMeters>NAN</DistanceMeters>
          </Trackpoint>
          <Trackpoint>
            <Time>2021-07-18T10:25:18.000Z</Time>
            <Position>
              <LatitudeDegrees>42.7153216861188411712646484375</LatitudeDegrees>
              <LongitudeDegrees>-0.21076270379126071929931640625</LongitudeDegrees>
            </Position>
            <AltitudeMeters>1905.800048828125</AltitudeMeters>
            <DistanceMeters>NAN</DistanceMeters>
          </Trackpoint>
          <Trackpoint>
            <Time>2021-07-18T10:25:28.000Z</Time>
            <Position>
              <LatitudeDegrees>42.71532193757593631744384765625</LatitudeDegrees>
              <LongitudeDegrees>-0.2107634581625461578369140625</LongitudeDegrees>
            </Position>
            <AltitudeMeters>1905.800048828125</AltitudeMeters>
            <DistanceMeters>NAN</DistanceMeters>
          </Trackpoint>
          <Trackpoint>
            <Time>2021-07-18T10:25:31.000Z</Time>
            <Position>
              <LatitudeDegrees>42.7153220213949680328369140625</LatitudeDegrees>
              <LongitudeDegrees>-0.21076370961964130401611328125</LongitudeDegrees>
            </Position>
            <AltitudeMeters>1905.800048828125</AltitudeMeters>
            <DistanceMeters>NAN</DistanceMeters>
          </Trackpoint>
          <Trackpoint>
            <Time>2021-07-18T10:25:49.000Z</Time>
            <Position>
              <LatitudeDegrees>42.7153223566710948944091796875</LatitudeDegrees>
              <LongitudeDegrees>-0.21076471544802188873291015625</LongitudeDegrees>
            </Position>
            <AltitudeMeters>1905.800048828125</AltitudeMeters>
            <DistanceMeters>NAN</DistanceMeters>
          </Trackpoint>
          <Trackpoint>
            <Time>2021-07-18T10:26:06.000Z</Time>
            <Position>
              <LatitudeDegrees>42.7153225243091583251953125</LatitudeDegrees>
              <LongitudeDegrees>-0.2107654698193073272705078125</LongitudeDegrees>
            </Position>
            <AltitudeMeters>1906</AltitudeMeters>
            <DistanceMeters>NAN</DistanceMeters>
          </Trackpoint>
          <Trackpoint>
            <Time>2021-07-18T10:26:29.000Z</Time>
            <Position>
              <LatitudeDegrees>42.71532277576625347137451171875</LatitudeDegrees>
              <LongitudeDegrees>-0.2107666432857513427734375</LongitudeDegrees>
            </Position>
            <AltitudeMeters>1906</AltitudeMeters>
            <DistanceMeters>NAN</DistanceMeters>
          </Trackpoint>
          <Trackpoint>
            <Time>2021-07-18T10:26:33.000Z</Time>
            <Position>
              <LatitudeDegrees>42.71532294340431690216064453125</LatitudeDegrees>
              <LongitudeDegrees>-0.2107668109238147735595703125</LongitudeDegrees>
            </Position>
            <AltitudeMeters>1906</AltitudeMeters>
            <DistanceMeters>NAN</DistanceMeters>
          </Trackpoint>
          <Trackpoint>
            <Time>2021-07-18T10:27:08.000Z</Time>
            <Position>
              <LatitudeDegrees>42.7153243683278560638427734375</LatitudeDegrees>
              <LongitudeDegrees>-0.21076857112348079681396484375</LongitudeDegrees>
            </Position>
            <AltitudeMeters>1905.800048828125</AltitudeMeters>
            <DistanceMeters>NAN</DistanceMeters>
          </Trackpoint>
          <Trackpoint>
            <Time>2021-07-18T10:27:16.000Z</Time>
            <Position>
              <LatitudeDegrees>42.71532445214688777923583984375</LatitudeDegrees>
              <LongitudeDegrees>-0.2107688225805759429931640625</LongitudeDegrees>
            </Position>
            <AltitudeMeters>1905.800048828125</AltitudeMeters>
            <DistanceMeters>NAN</DistanceMeters>
          </Trackpoint>
          <Trackpoint>
            <Time>2021-07-18T10:27:24.000Z</Time>
            <Position>
              <LatitudeDegrees>42.71532453596591949462890625</LatitudeDegrees>
              <LongitudeDegrees>-0.21076907403767108917236328125</LongitudeDegrees>
            </Position>
            <AltitudeMeters>1905.800048828125</AltitudeMeters>
            <DistanceMeters>NAN</DistanceMeters>
          </Trackpoint>
          <Trackpoint>
            <Time>2021-07-18T10:27:31.000Z</Time>
            <Position>
              <LatitudeDegrees>42.71532461978495121002197265625</LatitudeDegrees>
              <LongitudeDegrees>-0.2107693254947662353515625</LongitudeDegrees>
            </Position>
            <AltitudeMeters>1905.800048828125</AltitudeMeters>
            <DistanceMeters>NAN</DistanceMeters>
          </Trackpoint>
          <Trackpoint>
            <Time>2021-07-18T10:28:15.000Z</Time>
            <Position>
              <LatitudeDegrees>42.7153253741562366485595703125</LatitudeDegrees>
              <LongitudeDegrees>-0.21077142097055912017822265625</LongitudeDegrees>
            </Position>
            <AltitudeMeters>1905.800048828125</AltitudeMeters>
            <DistanceMeters>NAN</DistanceMeters>
          </Trackpoint>
          <Trackpoint>
            <Time>2021-07-18T10:28:20.000Z</Time>
            <Position>
              <LatitudeDegrees>42.7153253741562366485595703125</LatitudeDegrees>
              <LongitudeDegrees>-0.210771672427654266357421875</LongitudeDegrees>
            </Position>
            <AltitudeMeters>1905.800048828125</AltitudeMeters>
            <DistanceMeters>NAN</DistanceMeters>
          </Trackpoint>
          <Trackpoint>
            <Time>2021-07-18T10:28:28.000Z</Time>
            <Position>
              <LatitudeDegrees>42.7153253741562366485595703125</LatitudeDegrees>
              <LongitudeDegrees>-0.21077192388474941253662109375</LongitudeDegrees>
            </Position>
            <AltitudeMeters>1905.800048828125</AltitudeMeters>
            <DistanceMeters>NAN</DistanceMeters>
          </Trackpoint>
          <Trackpoint>
            <Time>2021-07-18T10:28:33.000Z</Time>
            <Position>
              <LatitudeDegrees>42.71532545797526836395263671875</LatitudeDegrees>
              <LongitudeDegrees>-0.21077209152281284332275390625</LongitudeDegrees>
            </Position>
            <AltitudeMeters>1905.800048828125</AltitudeMeters>
            <DistanceMeters>NAN</DistanceMeters>
          </Trackpoint>
          <Trackpoint>
            <Time>2021-07-18T10:28:42.000Z</Time>
            <Position>
              <LatitudeDegrees>42.71532545797526836395263671875</LatitudeDegrees>
              <LongitudeDegrees>-0.210772342979907989501953125</LongitudeDegrees>
            </Position>
            <AltitudeMeters>1905.800048828125</AltitudeMeters>
            <DistanceMeters>NAN</DistanceMeters>
          </Trackpoint>
          <Trackpoint>
            <Time>2021-07-18T10:29:14.000Z</Time>
            <Position>
              <LatitudeDegrees>42.715326212346553802490234375</LatitudeDegrees>
              <LongitudeDegrees>-0.21077460609376430511474609375</LongitudeDegrees>
            </Position>
            <AltitudeMeters>1905.800048828125</AltitudeMeters>
            <DistanceMeters>NAN</DistanceMeters>
          </Trackpoint>
          <Trackpoint>
            <Time>2021-07-18T10:29:24.000Z</Time>
            <Position>
              <LatitudeDegrees>42.71532629616558551788330078125</LatitudeDegrees>
              <LongitudeDegrees>-0.21077544428408145904541015625</LongitudeDegrees>
            </Position>
            <AltitudeMeters>1905.800048828125</AltitudeMeters>
            <DistanceMeters>NAN</DistanceMeters>
          </Trackpoint>
          <Trackpoint>
            <Time>2021-07-18T10:29:28.000Z</Time>
            <Position>
              <LatitudeDegrees>42.71532629616558551788330078125</LatitudeDegrees>
              <LongitudeDegrees>-0.210775695741176605224609375</LongitudeDegrees>
            </Position>
            <AltitudeMeters>1905.800048828125</AltitudeMeters>
            <DistanceMeters>NAN</DistanceMeters>
          </Trackpoint>
          <Trackpoint>
            <Time>2021-07-18T10:29:31.000Z</Time>
            <Position>
              <LatitudeDegrees>42.71532629616558551788330078125</LatitudeDegrees>
              <LongitudeDegrees>-0.2107758633792400360107421875</LongitudeDegrees>
            </Position>
            <AltitudeMeters>1905.800048828125</AltitudeMeters>
            <DistanceMeters>NAN</DistanceMeters>
          </Trackpoint>
          <Trackpoint>
            <Time>2021-07-18T10:29:33.000Z</Time>
            <Position>
              <LatitudeDegrees>42.71532629616558551788330078125</LatitudeDegrees>
              <LongitudeDegrees>-0.21077594719827175140380859375</LongitudeDegrees>
            </Position>
            <AltitudeMeters>1905.800048828125</AltitudeMeters>
            <DistanceMeters>NAN</DistanceMeters>
          </Trackpoint>
          <Trackpoint>
            <Time>2021-07-18T10:29:35.000Z</Time>
            <Position>
              <LatitudeDegrees>42.71532629616558551788330078125</LatitudeDegrees>
              <LongitudeDegrees>-0.210776031017303466796875</LongitudeDegrees>
            </Position>
            <AltitudeMeters>1905.800048828125</AltitudeMeters>
            <DistanceMeters>NAN</DistanceMeters>
          </Trackpoint>
          <Trackpoint>
            <Time>2021-07-18T10:29:48.000Z</Time>
            <Position>
              <LatitudeDegrees>42.71532629616558551788330078125</LatitudeDegrees>
              <LongitudeDegrees>-0.2107765339314937591552734375</LongitudeDegrees>
            </Position>
            <AltitudeMeters>1906</AltitudeMeters>
            <DistanceMeters>NAN</DistanceMeters>
          </Trackpoint>
          <Trackpoint>
            <Time>2021-07-18T10:29:49.000Z</Time>
            <Position>
              <LatitudeDegrees>42.71532629616558551788330078125</LatitudeDegrees>
              <LongitudeDegrees>-0.21077661775052547454833984375</LongitudeDegrees>
            </Position>
            <AltitudeMeters>1906</AltitudeMeters>
            <DistanceMeters>NAN</DistanceMeters>
          </Trackpoint>
          <Trackpoint>
            <Time>2021-07-18T10:30:03.000Z</Time>
            <Position>
              <LatitudeDegrees>42.715326212346553802490234375</LatitudeDegrees>
              <LongitudeDegrees>-0.210777036845684051513671875</LongitudeDegrees>
            </Position>
            <AltitudeMeters>1906</AltitudeMeters>
            <DistanceMeters>NAN</DistanceMeters>
          </Trackpoint>
          <Trackpoint>
            <Time>2021-07-18T10:30:15.000Z</Time>
            <Position>
              <LatitudeDegrees>42.7153263799846172332763671875</LatitudeDegrees>
              <LongitudeDegrees>-0.21077745594084262847900390625</LongitudeDegrees>
            </Position>
            <AltitudeMeters>1906</AltitudeMeters>
            <DistanceMeters>NAN</DistanceMeters>
          </Trackpoint>
          <Trackpoint>
            <Time>2021-07-18T10:30:43.000Z</Time>
            <Position>
              <LatitudeDegrees>42.71532663144171237945556640625</LatitudeDegrees>
              <LongitudeDegrees>-0.21077879704535007476806640625</LongitudeDegrees>
            </Position>
            <AltitudeMeters>1906</AltitudeMeters>
            <DistanceMeters>NAN</DistanceMeters>
          </Trackpoint>
          <Trackpoint>
            <Time>2021-07-18T10:30:46.000Z</Time>
            <Position>
              <LatitudeDegrees>42.71532663144171237945556640625</LatitudeDegrees>
              <LongitudeDegrees>-0.21077896468341350555419921875</LongitudeDegrees>
            </Position>
            <AltitudeMeters>1906</AltitudeMeters>
            <DistanceMeters>NAN</DistanceMeters>
          </Trackpoint>
          <Trackpoint>
            <Time>2021-07-18T10:30:48.000Z</Time>
            <Position>
              <LatitudeDegrees>42.71532663144171237945556640625</LatitudeDegrees>
              <LongitudeDegrees>-0.21077913232147693634033203125</LongitudeDegrees>
            </Position>
            <AltitudeMeters>1906</AltitudeMeters>
            <DistanceMeters>NAN</DistanceMeters>
          </Trackpoint>
          <Trackpoint>
            <Time>2021-07-18T10:31:11.000Z</Time>
            <Position>
              <LatitudeDegrees>42.71534523926675319671630859375</LatitudeDegrees>
              <LongitudeDegrees>-0.21092749200761318206787109375</LongitudeDegrees>
            </Position>
            <AltitudeMeters>1907.5999755859375</AltitudeMeters>
            <DistanceMeters>NAN</DistanceMeters>
          </Trackpoint>
          <Trackpoint>
            <Time>2021-07-18T10:31:13.000Z</Time>
            <Position>
              <LatitudeDegrees>42.7153508551418781280517578125</LatitudeDegrees>
              <LongitudeDegrees>-0.210984908044338226318359375</LongitudeDegrees>
            </Position>
            <AltitudeMeters>1908.4000244140625</AltitudeMeters>
            <DistanceMeters>NAN</DistanceMeters>
          </Trackpoint>
          <Trackpoint>
            <Time>2021-07-18T10:31:16.000Z</Time>
            <Position>
              <LatitudeDegrees>42.71536384709179401397705078125</LatitudeDegrees>
              <LongitudeDegrees>-0.2110509574413299560546875</LongitudeDegrees>
            </Position>
            <AltitudeMeters>1908.800048828125</AltitudeMeters>
            <DistanceMeters>NAN</DistanceMeters>
          </Trackpoint>
          <Trackpoint>
            <Time>2021-07-18T10:31:19.000Z</Time>
            <Position>
              <LatitudeDegrees>42.71537960506975650787353515625</LatitudeDegrees>
              <LongitudeDegrees>-0.21108658052980899810791015625</LongitudeDegrees>
            </Position>
            <AltitudeMeters>1909</AltitudeMeters>
            <DistanceMeters>NAN</DistanceMeters>
          </Trackpoint>
          <Trackpoint>
            <Time>2021-07-18T10:31:21.000Z</Time>
            <Position>
              <LatitudeDegrees>42.7153937704861164093017578125</LatitudeDegrees>
              <LongitudeDegrees>-0.21110770292580127716064453125</LongitudeDegrees>
            </Position>
            <AltitudeMeters>1909</AltitudeMeters>
            <DistanceMeters>NAN</DistanceMeters>
          </Trackpoint>
          <Trackpoint>
            <Time>2021-07-18T10:31:27.000Z</Time>
            <Position>
              <LatitudeDegrees>42.7154266275465488433837890625</LatitudeDegrees>
              <LongitudeDegrees>-0.211164951324462890625</LongitudeDegrees>
            </Position>
            <AltitudeMeters>1909.199951171875</AltitudeMeters>
            <DistanceMeters>NAN</DistanceMeters>
          </Trackpoint>
          <Trackpoint>
            <Time>2021-07-18T10:31:35.000Z</Time>
            <Position>
              <LatitudeDegrees>42.71545873023569583892822265625</LatitudeDegrees>
              <LongitudeDegrees>-0.21123125217854976654052734375</LongitudeDegrees>
            </Position>
            <AltitudeMeters>1908.5999755859375</AltitudeMeters>
            <DistanceMeters>NAN</DistanceMeters>
          </Trackpoint>
          <Trackpoint>
            <Time>2021-07-18T10:31:39.000Z</Time>
            <Position>
              <LatitudeDegrees>42.7155022323131561279296875</LatitudeDegrees>
              <LongitudeDegrees>-0.21127349697053432464599609375</LongitudeDegrees>
            </Position>
            <AltitudeMeters>1907</AltitudeMeters>
            <DistanceMeters>NAN</DistanceMeters>
          </Trackpoint>
          <Trackpoint>
            <Time>2021-07-18T10:31:42.000Z</Time>
            <Position>
              <LatitudeDegrees>42.71552863530814647674560546875</LatitudeDegrees>
              <LongitudeDegrees>-0.2112995646893978118896484375</LongitudeDegrees>
            </Position>
            <AltitudeMeters>1905.800048828125</AltitudeMeters>
            <DistanceMeters>NAN</DistanceMeters>
          </Trackpoint>
          <Trackpoint>
            <Time>2021-07-18T10:31:49.000Z</Time>
            <Position>
              <LatitudeDegrees>42.71556769497692584991455078125</LatitudeDegrees>
              <LongitudeDegrees>-0.21137508563697338104248046875</LongitudeDegrees>
            </Position>
            <AltitudeMeters>1906.199951171875</AltitudeMeters>
            <DistanceMeters>NAN</DistanceMeters>
          </Trackpoint>
          <Trackpoint>
            <Time>2021-07-18T10:31:50.000Z</Time>
            <Position>
              <LatitudeDegrees>42.715573646128177642822265625</LatitudeDegrees>
              <LongitudeDegrees>-0.21138614974915981292724609375</LongitudeDegrees>
            </Position>
            <AltitudeMeters>1906</AltitudeMeters>
            <DistanceMeters>NAN</DistanceMeters>
          </Trackpoint>
          <Trackpoint>
            <Time>2021-07-18T10:31:58.000Z</Time>
            <Position>
              <LatitudeDegrees>42.71560105495154857635498046875</LatitudeDegrees>
              <LongitudeDegrees>-0.21144147031009197235107421875</LongitudeDegrees>
            </Position>
            <AltitudeMeters>1905.5999755859375</AltitudeMeters>
            <DistanceMeters>NAN</DistanceMeters>
          </Trackpoint>
          <Trackpoint>
            <Time>2021-07-18T10:32:17.000Z</Time>
            <Position>
              <LatitudeDegrees>42.715605832636356353759765625</LatitudeDegrees>
              <LongitudeDegrees>-0.21142872981727123260498046875</LongitudeDegrees>
            </Position>
            <AltitudeMeters>1905.199951171875</AltitudeMeters>
            <DistanceMeters>NAN</DistanceMeters>
          </Trackpoint>
          <Trackpoint>
            <Time>2021-07-18T10:32:21.000Z</Time>
            <Position>
              <LatitudeDegrees>42.71560742519795894622802734375</LatitudeDegrees>
              <LongitudeDegrees>-0.21143141202628612518310546875</LongitudeDegrees>
            </Position>
            <AltitudeMeters>1905.199951171875</AltitudeMeters>
            <DistanceMeters>NAN</DistanceMeters>
          </Trackpoint>
          <Trackpoint>
            <Time>2021-07-18T10:32:25.000Z</Time>
            <Position>
              <LatitudeDegrees>42.7156106941401958465576171875</LatitudeDegrees>
              <LongitudeDegrees>-0.21143610589206218719482421875</LongitudeDegrees>
            </Position>
            <AltitudeMeters>1905</AltitudeMeters>
            <DistanceMeters>NAN</DistanceMeters>
          </Trackpoint>
          <Trackpoint>
            <Time>2021-07-18T10:32:26.000Z</Time>
            <Position>
              <LatitudeDegrees>42.71561086177825927734375</LatitudeDegrees>
              <LongitudeDegrees>-0.2114373631775379180908203125</LongitudeDegrees>
            </Position>
            <AltitudeMeters>1905</AltitudeMeters>
            <DistanceMeters>NAN</DistanceMeters>
          </Trackpoint>
          <Trackpoint>
            <Time>2021-07-18T10:32:27.000Z</Time>
            <Position>
              <LatitudeDegrees>42.71561111323535442352294921875</LatitudeDegrees>
              <LongitudeDegrees>-0.211437530815601348876953125</LongitudeDegrees>
            </Position>
            <AltitudeMeters>1905</AltitudeMeters>
            <DistanceMeters>NAN</DistanceMeters>
          </Trackpoint>
          <Trackpoint>
            <Time>2021-07-18T10:32:29.000Z</Time>
            <Position>
              <LatitudeDegrees>42.71561228670179843902587890625</LatitudeDegrees>
              <LongitudeDegrees>-0.211437530815601348876953125</LongitudeDegrees>
            </Position>
            <AltitudeMeters>1905</AltitudeMeters>
            <DistanceMeters>NAN</DistanceMeters>
          </Trackpoint>
          <Trackpoint>
            <Time>2021-07-18T10:32:30.000Z</Time>
            <Position>
              <LatitudeDegrees>42.715613543987274169921875</LatitudeDegrees>
              <LongitudeDegrees>-0.2114383690059185028076171875</LongitudeDegrees>
            </Position>
            <AltitudeMeters>1905</AltitudeMeters>
            <DistanceMeters>NAN</DistanceMeters>
          </Trackpoint>
          <Trackpoint>
            <Time>2021-07-18T10:32:36.000Z</Time>
            <Position>
              <LatitudeDegrees>42.71563324145972728729248046875</LatitudeDegrees>
              <LongitudeDegrees>-0.21153316833078861236572265625</LongitudeDegrees>
            </Position>
            <AltitudeMeters>1906.199951171875</AltitudeMeters>
            <DistanceMeters>NAN</DistanceMeters>
          </Trackpoint>
          <Trackpoint>
            <Time>2021-07-18T10:32:37.000Z</Time>
            <Position>
              <LatitudeDegrees>42.7156371809542179107666015625</LatitudeDegrees>
              <LongitudeDegrees>-0.211561582982540130615234375</LongitudeDegrees>
            </Position>
            <AltitudeMeters>1906.5999755859375</AltitudeMeters>
            <DistanceMeters>NAN</DistanceMeters>
          </Trackpoint>
          <Trackpoint>
            <Time>2021-07-18T10:32:40.000Z</Time>
            <Position>
              <LatitudeDegrees>42.71565712988376617431640625</LatitudeDegrees>
              <LongitudeDegrees>-0.2116355113685131072998046875</LongitudeDegrees>
            </Position>
            <AltitudeMeters>1905.800048828125</AltitudeMeters>
            <DistanceMeters>NAN</DistanceMeters>
          </Trackpoint>
          <Trackpoint>
            <Time>2021-07-18T10:32:43.000Z</Time>
            <Position>
              <LatitudeDegrees>42.7156666852533817291259765625</LatitudeDegrees>
              <LongitudeDegrees>-0.2116982080042362213134765625</LongitudeDegrees>
            </Position>
            <AltitudeMeters>1905.800048828125</AltitudeMeters>
            <DistanceMeters>NAN</DistanceMeters>
          </Trackpoint>
          <Trackpoint>
            <Time>2021-07-18T10:32:45.000Z</Time>
            <Position>
              <LatitudeDegrees>42.7156720496714115142822265625</LatitudeDegrees>
              <LongitudeDegrees>-0.21171354688704013824462890625</LongitudeDegrees>
            </Position>
            <AltitudeMeters>1905.5999755859375</AltitudeMeters>
            <DistanceMeters>NAN</DistanceMeters>
          </Trackpoint>
          <Trackpoint>
            <Time>2021-07-18T10:32:48.000Z</Time>
            <Position>
              <LatitudeDegrees>42.7156774140894412994384765625</LatitudeDegrees>
              <LongitudeDegrees>-0.21174103952944278717041015625</LongitudeDegrees>
            </Position>
            <AltitudeMeters>1905.5999755859375</AltitudeMeters>
            <DistanceMeters>NAN</DistanceMeters>
          </Trackpoint>
          <Trackpoint>
            <Time>2021-07-18T10:32:50.000Z</Time>
            <Position>
              <LatitudeDegrees>42.71567858755588531494140625</LatitudeDegrees>
              <LongitudeDegrees>-0.21177289076149463653564453125</LongitudeDegrees>
            </Position>
            <AltitudeMeters>1905.5999755859375</AltitudeMeters>
            <DistanceMeters>NAN</DistanceMeters>
          </Trackpoint>
          <Trackpoint>
            <Time>2021-07-18T10:32:52.000Z</Time>
            <Position>
              <LatitudeDegrees>42.71568101830780506134033203125</LatitudeDegrees>
              <LongitudeDegrees>-0.21180256269872188568115234375</LongitudeDegrees>
            </Position>
            <AltitudeMeters>1905.5999755859375</AltitudeMeters>
            <DistanceMeters>NAN</DistanceMeters>
          </Trackpoint>
          <Trackpoint>
            <Time>2021-07-18T10:32:58.000Z</Time>
            <Position>
              <LatitudeDegrees>42.7157106064260005950927734375</LatitudeDegrees>
              <LongitudeDegrees>-0.21184028126299381256103515625</LongitudeDegrees>
            </Position>
            <AltitudeMeters>1903.800048828125</AltitudeMeters>
            <DistanceMeters>NAN</DistanceMeters>
          </Trackpoint>
          <Trackpoint>
            <Time>2021-07-18T10:33:01.000Z</Time>
            <Position>
              <LatitudeDegrees>42.71573516540229320526123046875</LatitudeDegrees>
              <LongitudeDegrees>-0.21185855381190776824951171875</LongitudeDegrees>
            </Position>
            <AltitudeMeters>1902.4000244140625</AltitudeMeters>
            <DistanceMeters>NAN</DistanceMeters>
          </Trackpoint>
          <Trackpoint>
            <Time>2021-07-18T10:33:02.000Z</Time>
            <Position>
              <LatitudeDegrees>42.71574832499027252197265625</LatitudeDegrees>
              <LongitudeDegrees>-0.21186375059187412261962890625</LongitudeDegrees>
            </Position>
            <AltitudeMeters>1901.800048828125</AltitudeMeters>
            <DistanceMeters>NAN</DistanceMeters>
          </Trackpoint>
          <Trackpoint>
            <Time>2021-07-18T10:33:04.000Z</Time>
            <Position>
              <LatitudeDegrees>42.715769112110137939453125</LatitudeDegrees>
              <LongitudeDegrees>-0.21186291240155696868896484375</LongitudeDegrees>
            </Position>
            <AltitudeMeters>1900.800048828125</AltitudeMeters>
            <DistanceMeters>NAN</DistanceMeters>
          </Trackpoint>
          <Trackpoint>
            <Time>2021-07-18T10:33:06.000Z</Time>
            <Position>
              <LatitudeDegrees>42.71578545682132244110107421875</LatitudeDegrees>
              <LongitudeDegrees>-0.2118755690753459930419921875</LongitudeDegrees>
            </Position>
            <AltitudeMeters>1900.4000244140625</AltitudeMeters>
            <DistanceMeters>NAN</DistanceMeters>
          </Trackpoint>
          <Trackpoint>
            <Time>2021-07-18T10:33:09.000Z</Time>
            <Position>
              <LatitudeDegrees>42.71579752676188945770263671875</LatitudeDegrees>
              <LongitudeDegrees>-0.21190130151808261871337890625</LongitudeDegrees>
            </Position>
            <AltitudeMeters>1900.4000244140625</AltitudeMeters>
            <DistanceMeters>NAN</DistanceMeters>
          </Trackpoint>
          <Trackpoint>
            <Time>2021-07-18T10:33:10.000Z</Time>
            <Position>
              <LatitudeDegrees>42.7157987840473651885986328125</LatitudeDegrees>
              <LongitudeDegrees>-0.21190767176449298858642578125</LongitudeDegrees>
            </Position>
            <AltitudeMeters>1900.5999755859375</AltitudeMeters>
            <DistanceMeters>NAN</DistanceMeters>
          </Trackpoint>
          <Trackpoint>
            <Time>2021-07-18T10:33:12.000Z</Time>
            <Position>
              <LatitudeDegrees>42.71580465137958526611328125</LatitudeDegrees>
              <LongitudeDegrees>-0.21191773004829883575439453125</LongitudeDegrees>
            </Position>
            <AltitudeMeters>1900.4000244140625</AltitudeMeters>
            <DistanceMeters>NAN</DistanceMeters>
          </Trackpoint>
          <Trackpoint>
            <Time>2021-07-18T10:33:14.000Z</Time>
            <Position>
              <LatitudeDegrees>42.71581001579761505126953125</LatitudeDegrees>
              <LongitudeDegrees>-0.2119334042072296142578125</LongitudeDegrees>
            </Position>
            <AltitudeMeters>1900.5999755859375</AltitudeMeters>
            <DistanceMeters>NAN</DistanceMeters>
          </Trackpoint>
          <Trackpoint>
            <Time>2021-07-18T10:33:16.000Z</Time>
            <Position>
              <LatitudeDegrees>42.71582116372883319854736328125</LatitudeDegrees>
              <LongitudeDegrees>-0.21194471977651119232177734375</LongitudeDegrees>
            </Position>
            <AltitudeMeters>1900.199951171875</AltitudeMeters>
            <DistanceMeters>NAN</DistanceMeters>
          </Trackpoint>
          <Trackpoint>
            <Time>2021-07-18T10:33:19.000Z</Time>
            <Position>
              <LatitudeDegrees>42.715833820402622222900390625</LatitudeDegrees>
              <LongitudeDegrees>-0.211964584887027740478515625</LongitudeDegrees>
            </Position>
            <AltitudeMeters>1899.199951171875</AltitudeMeters>
            <DistanceMeters>NAN</DistanceMeters>
          </Trackpoint>
          <Trackpoint>
            <Time>2021-07-18T10:33:23.000Z</Time>
            <Position>
              <LatitudeDegrees>42.71585267968475818634033203125</LatitudeDegrees>
              <LongitudeDegrees>-0.21198428235948085784912109375</LongitudeDegrees>
            </Position>
            <AltitudeMeters>1897.5999755859375</AltitudeMeters>
            <DistanceMeters>NAN</DistanceMeters>
          </Trackpoint>
          <Trackpoint>
            <Time>2021-07-18T10:33:31.000Z</Time>
            <Position>
              <LatitudeDegrees>42.71588117815554141998291015625</LatitudeDegrees>
              <LongitudeDegrees>-0.2120297960937023162841796875</LongitudeDegrees>
            </Position>
            <AltitudeMeters>1895.4000244140625</AltitudeMeters>
            <DistanceMeters>NAN</DistanceMeters>
          </Trackpoint>
          <Trackpoint>
            <Time>2021-07-18T10:33:39.000Z</Time>
            <Position>
              <LatitudeDegrees>42.715909592807292938232421875</LatitudeDegrees>
              <LongitudeDegrees>-0.212062485516071319580078125</LongitudeDegrees>
            </Position>
            <AltitudeMeters>1894.4000244140625</AltitudeMeters>
            <DistanceMeters>NAN</DistanceMeters>
          </Trackpoint>
          <Trackpoint>
            <Time>2021-07-18T10:33:47.000Z</Time>
            <Position>
              <LatitudeDegrees>42.715953849256038665771484375</LatitudeDegrees>
              <LongitudeDegrees>-0.21211512386798858642578125</LongitudeDegrees>
            </Position>
            <AltitudeMeters>1894.5999755859375</AltitudeMeters>
            <DistanceMeters>NAN</DistanceMeters>
          </Trackpoint>
          <Trackpoint>
            <Time>2021-07-18T10:33:57.000Z</Time>
            <Position>
              <LatitudeDegrees>42.71599550731480121612548828125</LatitudeDegrees>
              <LongitudeDegrees>-0.21220028400421142578125</LongitudeDegrees>
            </Position>
            <AltitudeMeters>1895.5999755859375</AltitudeMeters>
            <DistanceMeters>NAN</DistanceMeters>
          </Trackpoint>
          <Trackpoint>
            <Time>2021-07-18T10:34:02.000Z</Time>
            <Position>
              <LatitudeDegrees>42.71600472740828990936279296875</LatitudeDegrees>
              <LongitudeDegrees>-0.21221034228801727294921875</LongitudeDegrees>
            </Position>
            <AltitudeMeters>1895.800048828125</AltitudeMeters>
            <DistanceMeters>NAN</DistanceMeters>
          </Trackpoint>
          <Trackpoint>
            <Time>2021-07-18T10:34:04.000Z</Time>
            <Position>
              <LatitudeDegrees>42.7160036377608776092529296875</LatitudeDegrees>
              <LongitudeDegrees>-0.21220874972641468048095703125</LongitudeDegrees>
            </Position>
            <AltitudeMeters>1895.800048828125</AltitudeMeters>
            <DistanceMeters>NAN</DistanceMeters>
          </Trackpoint>
          <Trackpoint>
            <Time>2021-07-18T10:34:15.000Z</Time>
            <Position>
              <LatitudeDegrees>42.7160328067839145660400390625</LatitudeDegrees>
              <LongitudeDegrees>-0.21223942749202251434326171875</LongitudeDegrees>
            </Position>
            <AltitudeMeters>1896.4000244140625</AltitudeMeters>
            <DistanceMeters>NAN</DistanceMeters>
          </Trackpoint>
          <Trackpoint>
            <Time>2021-07-18T10:34:23.000Z</Time>
            <Position>
              <LatitudeDegrees>42.7160489000380039215087890625</LatitudeDegrees>
              <LongitudeDegrees>-0.2122963406145572662353515625</LongitudeDegrees>
            </Position>
            <AltitudeMeters>1896.800048828125</AltitudeMeters>
            <DistanceMeters>NAN</DistanceMeters>
          </Trackpoint>
          <Trackpoint>
            <Time>2021-07-18T10:34:32.000Z</Time>
            <Position>
              <LatitudeDegrees>42.71606893278658390045166015625</LatitudeDegrees>
              <LongitudeDegrees>-0.2123838476836681365966796875</LongitudeDegrees>
            </Position>
            <AltitudeMeters>1896.800048828125</AltitudeMeters>
            <DistanceMeters>NAN</DistanceMeters>
          </Trackpoint>
          <Trackpoint>
            <Time>2021-07-18T10:34:33.000Z</Time>
            <Position>
              <LatitudeDegrees>42.7160727046430110931396484375</LatitudeDegrees>
              <LongitudeDegrees>-0.21238879300653934478759765625</LongitudeDegrees>
            </Position>
            <AltitudeMeters>1896.800048828125</AltitudeMeters>
            <DistanceMeters>NAN</DistanceMeters>
          </Trackpoint>
          <Trackpoint>
            <Time>2021-07-18T10:34:35.000Z</Time>
            <Position>
              <LatitudeDegrees>42.71608452312648296356201171875</LatitudeDegrees>
              <LongitudeDegrees>-0.21240304224193096160888671875</LongitudeDegrees>
            </Position>
            <AltitudeMeters>1896.5999755859375</AltitudeMeters>
            <DistanceMeters>NAN</DistanceMeters>
          </Trackpoint>
          <Trackpoint>
            <Time>2021-07-18T10:34:37.000Z</Time>
            <Position>
              <LatitudeDegrees>42.7160877920687198638916015625</LatitudeDegrees>
              <LongitudeDegrees>-0.21242684684693813323974609375</LongitudeDegrees>
            </Position>
            <AltitudeMeters>1896.800048828125</AltitudeMeters>
            <DistanceMeters>NAN</DistanceMeters>
          </Trackpoint>
          <Trackpoint>
            <Time>2021-07-18T10:34:40.000Z</Time>
            <Position>
              <LatitudeDegrees>42.71609826944768428802490234375</LatitudeDegrees>
              <LongitudeDegrees>-0.2124612964689731597900390625</LongitudeDegrees>
            </Position>
            <AltitudeMeters>1897.5999755859375</AltitudeMeters>
            <DistanceMeters>NAN</DistanceMeters>
          </Trackpoint>
          <Trackpoint>
            <Time>2021-07-18T10:34:46.000Z</Time>
            <Position>
              <LatitudeDegrees>42.716110087931156158447265625</LatitudeDegrees>
              <LongitudeDegrees>-0.2125189639627933502197265625</LongitudeDegrees>
            </Position>
            <AltitudeMeters>1898</AltitudeMeters>
            <DistanceMeters>NAN</DistanceMeters>
          </Trackpoint>
          <Trackpoint>
            <Time>2021-07-18T10:34:47.000Z</Time>
            <Position>
              <LatitudeDegrees>42.7161105908453464508056640625</LatitudeDegrees>
              <LongitudeDegrees>-0.212523154914379119873046875</LongitudeDegrees>
            </Position>
            <AltitudeMeters>1898</AltitudeMeters>
            <DistanceMeters>NAN</DistanceMeters>
          </Trackpoint>
          <Trackpoint>
            <Time>2021-07-18T10:34:52.000Z</Time>
            <Position>
              <LatitudeDegrees>42.7161032147705554962158203125</LatitudeDegrees>
              <LongitudeDegrees>-0.21254050545394420623779296875</LongitudeDegrees>
            </Position>
            <AltitudeMeters>1898.199951171875</AltitudeMeters>
            <DistanceMeters>NAN</DistanceMeters>
          </Trackpoint>
          <Trackpoint>
            <Time>2021-07-18T10:35:01.000Z</Time>
            <Position>
              <LatitudeDegrees>42.7160934917628765106201171875</LatitudeDegrees>
              <LongitudeDegrees>-0.21255073137581348419189453125</LongitudeDegrees>
            </Position>
            <AltitudeMeters>1898.5999755859375</AltitudeMeters>
            <DistanceMeters>NAN</DistanceMeters>
          </Trackpoint>
          <Trackpoint>
            <Time>2021-07-18T10:35:25.000Z</Time>
            <Position>
              <LatitudeDegrees>42.71612509153783321380615234375</LatitudeDegrees>
              <LongitudeDegrees>-0.2126621268689632415771484375</LongitudeDegrees>
            </Position>
            <AltitudeMeters>1897.4000244140625</AltitudeMeters>
            <DistanceMeters>NAN</DistanceMeters>
          </Trackpoint>
          <Trackpoint>
            <Time>2021-07-18T10:35:31.000Z</Time>
            <Position>
              <LatitudeDegrees>42.7161271870136260986328125</LatitudeDegrees>
              <LongitudeDegrees>-0.21276446990668773651123046875</LongitudeDegrees>
            </Position>
            <AltitudeMeters>1899</AltitudeMeters>
            <DistanceMeters>NAN</DistanceMeters>
          </Trackpoint>
          <Trackpoint>
            <Time>2021-07-18T10:35:33.000Z</Time>
            <Position>
              <LatitudeDegrees>42.71613716147840023040771484375</LatitudeDegrees>
              <LongitudeDegrees>-0.21278425119817256927490234375</LongitudeDegrees>
            </Position>
            <AltitudeMeters>1898.800048828125</AltitudeMeters>
            <DistanceMeters>NAN</DistanceMeters>
          </Trackpoint>
          <Trackpoint>
            <Time>2021-07-18T10:35:38.000Z</Time>
            <Position>
              <LatitudeDegrees>42.71615476347506046295166015625</LatitudeDegrees>
              <LongitudeDegrees>-0.21284108050167560577392578125</LongitudeDegrees>
            </Position>
            <AltitudeMeters>1899.199951171875</AltitudeMeters>
            <DistanceMeters>NAN</DistanceMeters>
          </Trackpoint>
          <Trackpoint>
            <Time>2021-07-18T10:35:41.000Z</Time>
            <Position>
              <LatitudeDegrees>42.7161665819585323333740234375</LatitudeDegrees>
              <LongitudeDegrees>-0.21287159062922000885009765625</LongitudeDegrees>
            </Position>
            <AltitudeMeters>1899.4000244140625</AltitudeMeters>
            <DistanceMeters>NAN</DistanceMeters>
          </Trackpoint>
          <Trackpoint>
            <Time>2021-07-18T10:35:51.000Z</Time>
            <Position>
              <LatitudeDegrees>42.71618946455419063568115234375</LatitudeDegrees>
              <LongitudeDegrees>-0.21296597085893154144287109375</LongitudeDegrees>
            </Position>
            <AltitudeMeters>1900.4000244140625</AltitudeMeters>
            <DistanceMeters>NAN</DistanceMeters>
          </Trackpoint>
          <Trackpoint>
            <Time>2021-07-18T10:35:58.000Z</Time>
            <Position>
              <LatitudeDegrees>42.716207318007946014404296875</LatitudeDegrees>
              <LongitudeDegrees>-0.213007628917694091796875</LongitudeDegrees>
            </Position>
            <AltitudeMeters>1899.5999755859375</AltitudeMeters>
            <DistanceMeters>NAN</DistanceMeters>
          </Trackpoint>
          <Trackpoint>
            <Time>2021-07-18T10:36:06.000Z</Time>
            <Position>
              <LatitudeDegrees>42.71623539738357067108154296875</LatitudeDegrees>
              <LongitudeDegrees>-0.21312070079147815704345703125</LongitudeDegrees>
            </Position>
            <AltitudeMeters>1899</AltitudeMeters>
            <DistanceMeters>NAN</DistanceMeters>
          </Trackpoint>
          <Trackpoint>
            <Time>2021-07-18T10:36:15.000Z</Time>
            <Position>
              <LatitudeDegrees>42.71625165827572345733642578125</LatitudeDegrees>
              <LongitudeDegrees>-0.21323586814105510711669921875</LongitudeDegrees>
            </Position>
            <AltitudeMeters>1898.199951171875</AltitudeMeters>
            <DistanceMeters>NAN</DistanceMeters>
          </Trackpoint>
          <Trackpoint>
            <Time>2021-07-18T10:36:16.000Z</Time>
            <Position>
              <LatitudeDegrees>42.7162532508373260498046875</LatitudeDegrees>
              <LongitudeDegrees>-0.21324877627193927764892578125</LongitudeDegrees>
            </Position>
            <AltitudeMeters>1898.199951171875</AltitudeMeters>
            <DistanceMeters>NAN</DistanceMeters>
          </Trackpoint>
          <Trackpoint>
            <Time>2021-07-18T10:36:19.000Z</Time>
            <Position>
              <LatitudeDegrees>42.71625853143632411956787109375</LatitudeDegrees>
              <LongitudeDegrees>-0.21328917704522609710693359375</LongitudeDegrees>
            </Position>
            <AltitudeMeters>1897.800048828125</AltitudeMeters>
            <DistanceMeters>NAN</DistanceMeters>
          </Trackpoint>
          <Trackpoint>
            <Time>2021-07-18T10:36:26.000Z</Time>
            <Position>
              <LatitudeDegrees>42.71625802852213382720947265625</LatitudeDegrees>
              <LongitudeDegrees>-0.2133621834218502044677734375</LongitudeDegrees>
            </Position>
            <AltitudeMeters>1897.5999755859375</AltitudeMeters>
            <DistanceMeters>NAN</DistanceMeters>
          </Trackpoint>
          <Trackpoint>
            <Time>2021-07-18T10:36:28.000Z</Time>
            <Position>
              <LatitudeDegrees>42.71625149063766002655029296875</LatitudeDegrees>
              <LongitudeDegrees>-0.21338053978979587554931640625</LongitudeDegrees>
            </Position>
            <AltitudeMeters>1897.800048828125</AltitudeMeters>
            <DistanceMeters>NAN</DistanceMeters>
          </Trackpoint>
          <Trackpoint>
            <Time>2021-07-18T10:36:29.000Z</Time>
            <Position>
              <LatitudeDegrees>42.7162497304379940032958984375</LatitudeDegrees>
              <LongitudeDegrees>-0.21339328028261661529541015625</LongitudeDegrees>
            </Position>
            <AltitudeMeters>1897.800048828125</AltitudeMeters>
            <DistanceMeters>NAN</DistanceMeters>
          </Trackpoint>
          <Trackpoint>
            <Time>2021-07-18T10:36:31.000Z</Time>
            <Position>
              <LatitudeDegrees>42.71625584922730922698974609375</LatitudeDegrees>
              <LongitudeDegrees>-0.2134118042886257171630859375</LongitudeDegrees>
            </Position>
            <AltitudeMeters>1897.4000244140625</AltitudeMeters>
            <DistanceMeters>NAN</DistanceMeters>
          </Trackpoint>
          <Trackpoint>
            <Time>2021-07-18T10:36:33.000Z</Time>
            <Position>
              <LatitudeDegrees>42.7162755466997623443603515625</LatitudeDegrees>
              <LongitudeDegrees>-0.213438458740711212158203125</LongitudeDegrees>
            </Position>
            <AltitudeMeters>1896.4000244140625</AltitudeMeters>
            <DistanceMeters>NAN</DistanceMeters>
          </Trackpoint>
          <Trackpoint>
            <Time>2021-07-18T10:36:35.000Z</Time>
            <Position>
              <LatitudeDegrees>42.71628904156386852264404296875</LatitudeDegrees>
              <LongitudeDegrees>-0.21346922032535076141357421875</LongitudeDegrees>
            </Position>
            <AltitudeMeters>1895.5999755859375</AltitudeMeters>
            <DistanceMeters>NAN</DistanceMeters>
          </Trackpoint>
          <Trackpoint>
            <Time>2021-07-18T10:36:40.000Z</Time>
            <Position>
              <LatitudeDegrees>42.7162896282970905303955078125</LatitudeDegrees>
              <LongitudeDegrees>-0.21353594027459621429443359375</LongitudeDegrees>
            </Position>
            <AltitudeMeters>1895</AltitudeMeters>
            <DistanceMeters>NAN</DistanceMeters>
          </Trackpoint>
          <Trackpoint>
            <Time>2021-07-18T10:36:45.000Z</Time>
            <Position>
              <LatitudeDegrees>42.7162919752299785614013671875</LatitudeDegrees>
              <LongitudeDegrees>-0.2135767601430416107177734375</LongitudeDegrees>
            </Position>
            <AltitudeMeters>1893.800048828125</AltitudeMeters>
            <DistanceMeters>NAN</DistanceMeters>
          </Trackpoint>
          <Trackpoint>
            <Time>2021-07-18T10:36:49.000Z</Time>
            <Position>
              <LatitudeDegrees>42.71629792638123035430908203125</LatitudeDegrees>
              <LongitudeDegrees>-0.21360567770898342132568359375</LongitudeDegrees>
            </Position>
            <AltitudeMeters>1892.800048828125</AltitudeMeters>
            <DistanceMeters>NAN</DistanceMeters>
          </Trackpoint>
          <Trackpoint>
            <Time>2021-07-18T10:36:51.000Z</Time>
            <Position>
              <LatitudeDegrees>42.716297842562198638916015625</LatitudeDegrees>
              <LongitudeDegrees>-0.2136205136775970458984375</LongitudeDegrees>
            </Position>
            <AltitudeMeters>1892.4000244140625</AltitudeMeters>
            <DistanceMeters>NAN</DistanceMeters>
          </Trackpoint>
          <Trackpoint>
            <Time>2021-07-18T10:36:53.000Z</Time>
            <Position>
              <LatitudeDegrees>42.71629750728607177734375</LatitudeDegrees>
              <LongitudeDegrees>-0.21363870240747928619384765625</LongitudeDegrees>
            </Position>
            <AltitudeMeters>1892</AltitudeMeters>
            <DistanceMeters>NAN</DistanceMeters>
          </Trackpoint>
          <Trackpoint>
            <Time>2021-07-18T10:36:54.000Z</Time>
            <Position>
              <LatitudeDegrees>42.71630178205668926239013671875</LatitudeDegrees>
              <LongitudeDegrees>-0.2136451564729213714599609375</LongitudeDegrees>
            </Position>
            <AltitudeMeters>1891.5999755859375</AltitudeMeters>
            <DistanceMeters>NAN</DistanceMeters>
          </Trackpoint>
          <Trackpoint>
            <Time>2021-07-18T10:37:00.000Z</Time>
            <Position>
              <LatitudeDegrees>42.7163042128086090087890625</LatitudeDegrees>
              <LongitudeDegrees>-0.21371849812567234039306640625</LongitudeDegrees>
            </Position>
            <AltitudeMeters>1889.800048828125</AltitudeMeters>
            <DistanceMeters>NAN</DistanceMeters>
          </Trackpoint>
          <Trackpoint>
            <Time>2021-07-18T10:37:01.000Z</Time>
            <Position>
              <LatitudeDegrees>42.71630345843732357025146484375</LatitudeDegrees>
              <LongitudeDegrees>-0.21373107098042964935302734375</LongitudeDegrees>
            </Position>
            <AltitudeMeters>1889.5999755859375</AltitudeMeters>
            <DistanceMeters>NAN</DistanceMeters>
          </Trackpoint>
          <Trackpoint>
            <Time>2021-07-18T10:37:06.000Z</Time>
            <Position>
              <LatitudeDegrees>42.71629683673381805419921875</LatitudeDegrees>
              <LongitudeDegrees>-0.213797874748706817626953125</LongitudeDegrees>
            </Position>
            <AltitudeMeters>1888.4000244140625</AltitudeMeters>
            <DistanceMeters>NAN</DistanceMeters>
          </Trackpoint>
          <Trackpoint>
            <Time>2021-07-18T10:37:07.000Z</Time>
            <Position>
              <LatitudeDegrees>42.71629189141094684600830078125</LatitudeDegrees>
              <LongitudeDegrees>-0.21381120197474956512451171875</LongitudeDegrees>
            </Position>
            <AltitudeMeters>1888.199951171875</AltitudeMeters>
            <DistanceMeters>NAN</DistanceMeters>
          </Trackpoint>
          <Trackpoint>
            <Time>2021-07-18T10:37:09.000Z</Time>
            <Position>
              <LatitudeDegrees>42.7162849344313144683837890625</LatitudeDegrees>
              <LongitudeDegrees>-0.21383718587458133697509765625</LongitudeDegrees>
            </Position>
            <AltitudeMeters>1887.199951171875</AltitudeMeters>
            <DistanceMeters>NAN</DistanceMeters>
          </Trackpoint>
          <Trackpoint>
            <Time>2021-07-18T10:37:15.000Z</Time>
            <Position>
              <LatitudeDegrees>42.7163174562156200408935546875</LatitudeDegrees>
              <LongitudeDegrees>-0.213870294392108917236328125</LongitudeDegrees>
            </Position>
            <AltitudeMeters>1883.800048828125</AltitudeMeters>
            <DistanceMeters>NAN</DistanceMeters>
          </Trackpoint>
          <Trackpoint>
            <Time>2021-07-18T10:37:25.000Z</Time>
            <Position>
              <LatitudeDegrees>42.71636498160660266876220703125</LatitudeDegrees>
              <LongitudeDegrees>-0.21394447423517704010009765625</LongitudeDegrees>
            </Position>
            <AltitudeMeters>1879.199951171875</AltitudeMeters>
            <DistanceMeters>NAN</DistanceMeters>
          </Trackpoint>
          <Trackpoint>
            <Time>2021-07-18T10:37:35.000Z</Time>
            <Position>
              <LatitudeDegrees>42.7164061367511749267578125</LatitudeDegrees>
              <LongitudeDegrees>-0.21400482393801212310791015625</LongitudeDegrees>
            </Position>
            <AltitudeMeters>1876.800048828125</AltitudeMeters>
            <DistanceMeters>NAN</DistanceMeters>
          </Trackpoint>
          <Trackpoint>
            <Time>2021-07-18T10:37:41.000Z</Time>
            <Position>
              <LatitudeDegrees>42.7164166979491710662841796875</LatitudeDegrees>
              <LongitudeDegrees>-0.2140525169670581817626953125</LongitudeDegrees>
            </Position>
            <AltitudeMeters>1875.4000244140625</AltitudeMeters>
            <DistanceMeters>NAN</DistanceMeters>
          </Trackpoint>
          <Trackpoint>
            <Time>2021-07-18T10:37:44.000Z</Time>
            <Position>
              <LatitudeDegrees>42.716414518654346466064453125</LatitudeDegrees>
              <LongitudeDegrees>-0.214070789515972137451171875</LongitudeDegrees>
            </Position>
            <AltitudeMeters>1875</AltitudeMeters>
            <DistanceMeters>NAN</DistanceMeters>
          </Trackpoint>
          <Trackpoint>
            <Time>2021-07-18T10:37:48.000Z</Time>
            <Position>
              <LatitudeDegrees>42.716408483684062957763671875</LatitudeDegrees>
              <LongitudeDegrees>-0.21411043591797351837158203125</LongitudeDegrees>
            </Position>
            <AltitudeMeters>1873.800048828125</AltitudeMeters>
            <DistanceMeters>NAN</DistanceMeters>
          </Trackpoint>
          <Trackpoint>
            <Time>2021-07-18T10:37:51.000Z</Time>
            <Position>
              <LatitudeDegrees>42.7164086513221263885498046875</LatitudeDegrees>
              <LongitudeDegrees>-0.21412217058241367340087890625</LongitudeDegrees>
            </Position>
            <AltitudeMeters>1873.4000244140625</AltitudeMeters>
            <DistanceMeters>NAN</DistanceMeters>
          </Trackpoint>
          <Trackpoint>
            <Time>2021-07-18T10:37:57.000Z</Time>
            <Position>
              <LatitudeDegrees>42.71641393192112445831298828125</LatitudeDegrees>
              <LongitudeDegrees>-0.2141715399920940399169921875</LongitudeDegrees>
            </Position>
            <AltitudeMeters>1872.199951171875</AltitudeMeters>
            <DistanceMeters>NAN</DistanceMeters>
          </Trackpoint>
          <Trackpoint>
            <Time>2021-07-18T10:38:04.000Z</Time>
            <Position>
              <LatitudeDegrees>42.71640479564666748046875</LatitudeDegrees>
              <LongitudeDegrees>-0.214220322668552398681640625</LongitudeDegrees>
            </Position>
            <AltitudeMeters>1871</AltitudeMeters>
            <DistanceMeters>NAN</DistanceMeters>
          </Trackpoint>
          <Trackpoint>
            <Time>2021-07-18T10:38:06.000Z</Time>
            <Position>
              <LatitudeDegrees>42.71639632992446422576904296875</LatitudeDegrees>
              <LongitudeDegrees>-0.2142298780381679534912109375</LongitudeDegrees>
            </Position>
            <AltitudeMeters>1870.800048828125</AltitudeMeters>
            <DistanceMeters>NAN</DistanceMeters>
          </Trackpoint>
          <Trackpoint>
            <Time>2021-07-18T10:38:08.000Z</Time>
            <Position>
              <LatitudeDegrees>42.716388367116451263427734375</LatitudeDegrees>
              <LongitudeDegrees>-0.2142406068742275238037109375</LongitudeDegrees>
            </Position>
            <AltitudeMeters>1870.5999755859375</AltitudeMeters>
            <DistanceMeters>NAN</DistanceMeters>
          </Trackpoint>
          <Trackpoint>
            <Time>2021-07-18T10:38:16.000Z</Time>
            <Position>
              <LatitudeDegrees>42.71638409234583377838134765625</LatitudeDegrees>
              <LongitudeDegrees>-0.2142724581062793731689453125</LongitudeDegrees>
            </Position>
            <AltitudeMeters>1869.800048828125</AltitudeMeters>
            <DistanceMeters>NAN</DistanceMeters>
          </Trackpoint>
          <Trackpoint>
            <Time>2021-07-18T10:38:17.000Z</Time>
            <Position>
              <LatitudeDegrees>42.71638342179358005523681640625</LatitudeDegrees>
              <LongitudeDegrees>-0.2142761461436748504638671875</LongitudeDegrees>
            </Position>
            <AltitudeMeters>1869.800048828125</AltitudeMeters>
            <DistanceMeters>NAN</DistanceMeters>
          </Trackpoint>
          <Trackpoint>
            <Time>2021-07-18T10:38:25.000Z</Time>
            <Position>
              <LatitudeDegrees>42.7163794822990894317626953125</LatitudeDegrees>
              <LongitudeDegrees>-0.2142734639346599578857421875</LongitudeDegrees>
            </Position>
            <AltitudeMeters>1869.800048828125</AltitudeMeters>
            <DistanceMeters>NAN</DistanceMeters>
          </Trackpoint>
          <Trackpoint>
            <Time>2021-07-18T10:38:29.000Z</Time>
            <Position>
              <LatitudeDegrees>42.7163794822990894317626953125</LatitudeDegrees>
              <LongitudeDegrees>-0.2142734639346599578857421875</LongitudeDegrees>
            </Position>
            <AltitudeMeters>1869.800048828125</AltitudeMeters>
            <DistanceMeters>NAN</DistanceMeters>
          </Trackpoint>
          <Trackpoint>
            <Time>2021-07-18T10:38:36.000Z</Time>
            <Position>
              <LatitudeDegrees>42.7163794822990894317626953125</LatitudeDegrees>
              <LongitudeDegrees>-0.21427564322948455810546875</LongitudeDegrees>
            </Position>
            <AltitudeMeters>1869.800048828125</AltitudeMeters>
            <DistanceMeters>NAN</DistanceMeters>
          </Trackpoint>
          <Trackpoint>
            <Time>2021-07-18T10:38:52.000Z</Time>
            <Position>
              <LatitudeDegrees>42.71636598743498325347900390625</LatitudeDegrees>
              <LongitudeDegrees>-0.21429718472063541412353515625</LongitudeDegrees>
            </Position>
            <AltitudeMeters>1869.4000244140625</AltitudeMeters>
            <DistanceMeters>NAN</DistanceMeters>
          </Trackpoint>
          <Trackpoint>
            <Time>2021-07-18T10:38:55.000Z</Time>
            <Position>
              <LatitudeDegrees>42.71635257638990879058837890625</LatitudeDegrees>
              <LongitudeDegrees>-0.214359462261199951171875</LongitudeDegrees>
            </Position>
            <AltitudeMeters>1867.800048828125</AltitudeMeters>
            <DistanceMeters>NAN</DistanceMeters>
          </Trackpoint>
          <Trackpoint>
            <Time>2021-07-18T10:38:57.000Z</Time>
            <Position>
              <LatitudeDegrees>42.71634821780025959014892578125</LatitudeDegrees>
              <LongitudeDegrees>-0.2144090831279754638671875</LongitudeDegrees>
            </Position>
            <AltitudeMeters>1867.199951171875</AltitudeMeters>
            <DistanceMeters>NAN</DistanceMeters>
          </Trackpoint>
          <Trackpoint>
            <Time>2021-07-18T10:38:58.000Z</Time>
            <Position>
              <LatitudeDegrees>42.7163446135818958282470703125</LatitudeDegrees>
              <LongitudeDegrees>-0.2144317142665386199951171875</LongitudeDegrees>
            </Position>
            <AltitudeMeters>1867</AltitudeMeters>
            <DistanceMeters>NAN</DistanceMeters>
          </Trackpoint>
          <Trackpoint>
            <Time>2021-07-18T10:39:04.000Z</Time>
            <Position>
              <LatitudeDegrees>42.716324664652347564697265625</LatitudeDegrees>
              <LongitudeDegrees>-0.21453288383781909942626953125</LongitudeDegrees>
            </Position>
            <AltitudeMeters>1865.5999755859375</AltitudeMeters>
            <DistanceMeters>NAN</DistanceMeters>
          </Trackpoint>
          <Trackpoint>
            <Time>2021-07-18T10:39:08.000Z</Time>
            <Position>
              <LatitudeDegrees>42.7163218148052692413330078125</LatitudeDegrees>
              <LongitudeDegrees>-0.21456792019307613372802734375</LongitudeDegrees>
            </Position>
            <AltitudeMeters>1865</AltitudeMeters>
            <DistanceMeters>NAN</DistanceMeters>
          </Trackpoint>
          <Trackpoint>
            <Time>2021-07-18T10:39:10.000Z</Time>
            <Position>
              <LatitudeDegrees>42.71632038988173007965087890625</LatitudeDegrees>
              <LongitudeDegrees>-0.2145879529416561126708984375</LongitudeDegrees>
            </Position>
            <AltitudeMeters>1864.5999755859375</AltitudeMeters>
            <DistanceMeters>NAN</DistanceMeters>
          </Trackpoint>
          <Trackpoint>
            <Time>2021-07-18T10:39:21.000Z</Time>
            <Position>
              <LatitudeDegrees>42.716319300234317779541015625</LatitudeDegrees>
              <LongitudeDegrees>-0.2146774716675281524658203125</LongitudeDegrees>
            </Position>
            <AltitudeMeters>1863</AltitudeMeters>
            <DistanceMeters>NAN</DistanceMeters>
          </Trackpoint>
          <Trackpoint>
            <Time>2021-07-18T10:39:24.000Z</Time>
            <Position>
              <LatitudeDegrees>42.71631502546370029449462890625</LatitudeDegrees>
              <LongitudeDegrees>-0.21470940671861171722412109375</LongitudeDegrees>
            </Position>
            <AltitudeMeters>1863</AltitudeMeters>
            <DistanceMeters>NAN</DistanceMeters>
          </Trackpoint>
          <Trackpoint>
            <Time>2021-07-18T10:39:26.000Z</Time>
            <Position>
              <LatitudeDegrees>42.716310918331146240234375</LatitudeDegrees>
              <LongitudeDegrees>-0.2147227339446544647216796875</LongitudeDegrees>
            </Position>
            <AltitudeMeters>1863</AltitudeMeters>
            <DistanceMeters>NAN</DistanceMeters>
          </Trackpoint>
          <Trackpoint>
            <Time>2021-07-18T10:39:31.000Z</Time>
            <Position>
              <LatitudeDegrees>42.7163090743124485015869140625</LatitudeDegrees>
              <LongitudeDegrees>-0.214791633188724517822265625</LongitudeDegrees>
            </Position>
            <AltitudeMeters>1862.4000244140625</AltitudeMeters>
            <DistanceMeters>NAN</DistanceMeters>
          </Trackpoint>
          <Trackpoint>
            <Time>2021-07-18T10:39:36.000Z</Time>
            <Position>
              <LatitudeDegrees>42.7162996865808963775634765625</LatitudeDegrees>
              <LongitudeDegrees>-0.21485500037670135498046875</LongitudeDegrees>
            </Position>
            <AltitudeMeters>1862.199951171875</AltitudeMeters>
            <DistanceMeters>NAN</DistanceMeters>
          </Trackpoint>
          <Trackpoint>
            <Time>2021-07-18T10:39:39.000Z</Time>
            <Position>
              <LatitudeDegrees>42.716295830905437469482421875</LatitudeDegrees>
              <LongitudeDegrees>-0.21486212499439716339111328125</LongitudeDegrees>
            </Position>
            <AltitudeMeters>1862.199951171875</AltitudeMeters>
            <DistanceMeters>NAN</DistanceMeters>
          </Trackpoint>
          <Trackpoint>
            <Time>2021-07-18T10:39:47.000Z</Time>
            <Position>
              <LatitudeDegrees>42.7162988483905792236328125</LatitudeDegrees>
              <LongitudeDegrees>-0.21492666564881801605224609375</LongitudeDegrees>
            </Position>
            <AltitudeMeters>1861.5999755859375</AltitudeMeters>
            <DistanceMeters>NAN</DistanceMeters>
          </Trackpoint>
          <Trackpoint>
            <Time>2021-07-18T10:39:56.000Z</Time>
            <Position>
              <LatitudeDegrees>42.71627026610076427459716796875</LatitudeDegrees>
              <LongitudeDegrees>-0.21502473391592502593994140625</LongitudeDegrees>
            </Position>
            <AltitudeMeters>1860</AltitudeMeters>
            <DistanceMeters>NAN</DistanceMeters>
          </Trackpoint>
          <Trackpoint>
            <Time>2021-07-18T10:39:59.000Z</Time>
            <Position>
              <LatitudeDegrees>42.7162688411772251129150390625</LatitudeDegrees>
              <LongitudeDegrees>-0.215038396418094635009765625</LongitudeDegrees>
            </Position>
            <AltitudeMeters>1859.800048828125</AltitudeMeters>
            <DistanceMeters>NAN</DistanceMeters>
          </Trackpoint>
          <Trackpoint>
            <Time>2021-07-18T10:40:03.000Z</Time>
            <Position>
              <LatitudeDegrees>42.7162631414830684661865234375</LatitudeDegrees>
              <LongitudeDegrees>-0.21507603116333484649658203125</LongitudeDegrees>
            </Position>
            <AltitudeMeters>1859</AltitudeMeters>
            <DistanceMeters>NAN</DistanceMeters>
          </Trackpoint>
          <Trackpoint>
            <Time>2021-07-18T10:40:06.000Z</Time>
            <Position>
              <LatitudeDegrees>42.71626708097755908966064453125</LatitudeDegrees>
              <LongitudeDegrees>-0.21509614773094654083251953125</LongitudeDegrees>
            </Position>
            <AltitudeMeters>1858.4000244140625</AltitudeMeters>
            <DistanceMeters>NAN</DistanceMeters>
          </Trackpoint>
          <Trackpoint>
            <Time>2021-07-18T10:40:10.000Z</Time>
            <Position>
              <LatitudeDegrees>42.71627009846270084381103515625</LatitudeDegrees>
              <LongitudeDegrees>-0.2151361294090747833251953125</LongitudeDegrees>
            </Position>
            <AltitudeMeters>1858</AltitudeMeters>
            <DistanceMeters>NAN</DistanceMeters>
          </Trackpoint>
          <Trackpoint>
            <Time>2021-07-18T10:40:14.000Z</Time>
            <Position>
              <LatitudeDegrees>42.71626205183565616607666015625</LatitudeDegrees>
              <LongitudeDegrees>-0.215184576809406280517578125</LongitudeDegrees>
            </Position>
            <AltitudeMeters>1857.4000244140625</AltitudeMeters>
            <DistanceMeters>NAN</DistanceMeters>
          </Trackpoint>
          <Trackpoint>
            <Time>2021-07-18T10:40:21.000Z</Time>
            <Position>
              <LatitudeDegrees>42.71622902713716030120849609375</LatitudeDegrees>
              <LongitudeDegrees>-0.215281136333942413330078125</LongitudeDegrees>
            </Position>
            <AltitudeMeters>1857</AltitudeMeters>
            <DistanceMeters>NAN</DistanceMeters>
          </Trackpoint>
          <Trackpoint>
            <Time>2021-07-18T10:40:22.000Z</Time>
            <Position>
              <LatitudeDegrees>42.7162210643291473388671875</LatitudeDegrees>
              <LongitudeDegrees>-0.21528842858970165252685546875</LongitudeDegrees>
            </Position>
            <AltitudeMeters>1857</AltitudeMeters>
            <DistanceMeters>NAN</DistanceMeters>
          </Trackpoint>
          <Trackpoint>
            <Time>2021-07-18T10:40:27.000Z</Time>
            <Position>
              <LatitudeDegrees>42.71618057973682880401611328125</LatitudeDegrees>
              <LongitudeDegrees>-0.2153181843459606170654296875</LongitudeDegrees>
            </Position>
            <AltitudeMeters>1857</AltitudeMeters>
            <DistanceMeters>NAN</DistanceMeters>
          </Trackpoint>
          <Trackpoint>
            <Time>2021-07-18T10:40:30.000Z</Time>
            <Position>
              <LatitudeDegrees>42.71616213954985141754150390625</LatitudeDegrees>
              <LongitudeDegrees>-0.21533704362809658050537109375</LongitudeDegrees>
            </Position>
            <AltitudeMeters>1857.199951171875</AltitudeMeters>
            <DistanceMeters>NAN</DistanceMeters>
          </Trackpoint>
          <Trackpoint>
            <Time>2021-07-18T10:40:38.000Z</Time>
            <Position>
              <LatitudeDegrees>42.7161245048046112060546875</LatitudeDegrees>
              <LongitudeDegrees>-0.215383730828762054443359375</LongitudeDegrees>
            </Position>
            <AltitudeMeters>1858</AltitudeMeters>
            <DistanceMeters>NAN</DistanceMeters>
          </Trackpoint>
          <Trackpoint>
            <Time>2021-07-18T10:40:47.000Z</Time>
            <Position>
              <LatitudeDegrees>42.71608829498291015625</LatitudeDegrees>
              <LongitudeDegrees>-0.215462185442447662353515625</LongitudeDegrees>
            </Position>
            <AltitudeMeters>1858.4000244140625</AltitudeMeters>
            <DistanceMeters>NAN</DistanceMeters>
          </Trackpoint>
          <Trackpoint>
            <Time>2021-07-18T10:40:58.000Z</Time>
            <Position>
              <LatitudeDegrees>42.71606004796922206878662109375</LatitudeDegrees>
              <LongitudeDegrees>-0.21555799059569835662841796875</LongitudeDegrees>
            </Position>
            <AltitudeMeters>1859.4000244140625</AltitudeMeters>
            <DistanceMeters>NAN</DistanceMeters>
          </Trackpoint>
          <Trackpoint>
            <Time>2021-07-18T10:41:04.000Z</Time>
            <Position>
              <LatitudeDegrees>42.71601788699626922607421875</LatitudeDegrees>
              <LongitudeDegrees>-0.21561783738434314727783203125</LongitudeDegrees>
            </Position>
            <AltitudeMeters>1861</AltitudeMeters>
            <DistanceMeters>NAN</DistanceMeters>
          </Trackpoint>
          <Trackpoint>
            <Time>2021-07-18T10:41:05.000Z</Time>
            <Position>
              <LatitudeDegrees>42.7160123549401760101318359375</LatitudeDegrees>
              <LongitudeDegrees>-0.21562521345913410186767578125</LongitudeDegrees>
            </Position>
            <AltitudeMeters>1861.199951171875</AltitudeMeters>
            <DistanceMeters>NAN</DistanceMeters>
          </Trackpoint>
          <Trackpoint>
            <Time>2021-07-18T10:41:14.000Z</Time>
            <Position>
              <LatitudeDegrees>42.71596818231046199798583984375</LatitudeDegrees>
              <LongitudeDegrees>-0.2157278917729854583740234375</LongitudeDegrees>
            </Position>
            <AltitudeMeters>1862.800048828125</AltitudeMeters>
            <DistanceMeters>NAN</DistanceMeters>
          </Trackpoint>
          <Trackpoint>
            <Time>2021-07-18T10:41:16.000Z</Time>
            <Position>
              <LatitudeDegrees>42.71595611236989498138427734375</LatitudeDegrees>
              <LongitudeDegrees>-0.215751864016056060791015625</LongitudeDegrees>
            </Position>
            <AltitudeMeters>1863.199951171875</AltitudeMeters>
            <DistanceMeters>NAN</DistanceMeters>
          </Trackpoint>
          <Trackpoint>
            <Time>2021-07-18T10:41:22.000Z</Time>
            <Position>
              <LatitudeDegrees>42.71591596305370330810546875</LatitudeDegrees>
              <LongitudeDegrees>-0.21580659784376621246337890625</LongitudeDegrees>
            </Position>
            <AltitudeMeters>1864.199951171875</AltitudeMeters>
            <DistanceMeters>NAN</DistanceMeters>
          </Trackpoint>
          <Trackpoint>
            <Time>2021-07-18T10:41:26.000Z</Time>
            <Position>
              <LatitudeDegrees>42.7159074135124683380126953125</LatitudeDegrees>
              <LongitudeDegrees>-0.215845070779323577880859375</LongitudeDegrees>
            </Position>
            <AltitudeMeters>1864.199951171875</AltitudeMeters>
            <DistanceMeters>NAN</DistanceMeters>
          </Trackpoint>
          <Trackpoint>
            <Time>2021-07-18T10:41:28.000Z</Time>
            <Position>
              <LatitudeDegrees>42.7159067429602146148681640625</LatitudeDegrees>
              <LongitudeDegrees>-0.21586007438600063323974609375</LongitudeDegrees>
            </Position>
            <AltitudeMeters>1864.199951171875</AltitudeMeters>
            <DistanceMeters>NAN</DistanceMeters>
          </Trackpoint>
          <Trackpoint>
            <Time>2021-07-18T10:41:31.000Z</Time>
            <Position>
              <LatitudeDegrees>42.71591872908174991607666015625</LatitudeDegrees>
              <LongitudeDegrees>-0.21588387899100780487060546875</LongitudeDegrees>
            </Position>
            <AltitudeMeters>1863.800048828125</AltitudeMeters>
            <DistanceMeters>NAN</DistanceMeters>
          </Trackpoint>
          <Trackpoint>
            <Time>2021-07-18T10:41:32.000Z</Time>
            <Position>
              <LatitudeDegrees>42.71592124365270137786865234375</LatitudeDegrees>
              <LongitudeDegrees>-0.2158915065228939056396484375</LongitudeDegrees>
            </Position>
            <AltitudeMeters>1863.800048828125</AltitudeMeters>
            <DistanceMeters>NAN</DistanceMeters>
          </Trackpoint>
          <Trackpoint>
            <Time>2021-07-18T10:41:34.000Z</Time>
            <Position>
              <LatitudeDegrees>42.71592828445136547088623046875</LatitudeDegrees>
              <LongitudeDegrees>-0.2158955298364162445068359375</LongitudeDegrees>
            </Position>
            <AltitudeMeters>1863.4000244140625</AltitudeMeters>
            <DistanceMeters>NAN</DistanceMeters>
          </Trackpoint>
          <Trackpoint>
            <Time>2021-07-18T10:41:38.000Z</Time>
            <Position>
              <LatitudeDegrees>42.715920992195606231689453125</LatitudeDegrees>
              <LongitudeDegrees>-0.21589108742773532867431640625</LongitudeDegrees>
            </Position>
            <AltitudeMeters>1863.800048828125</AltitudeMeters>
            <DistanceMeters>NAN</DistanceMeters>
          </Trackpoint>
          <Trackpoint>
            <Time>2021-07-18T10:41:41.000Z</Time>
            <Position>
              <LatitudeDegrees>42.7159131132066249847412109375</LatitudeDegrees>
              <LongitudeDegrees>-0.21591606549918651580810546875</LongitudeDegrees>
            </Position>
            <AltitudeMeters>1863.800048828125</AltitudeMeters>
            <DistanceMeters>NAN</DistanceMeters>
          </Trackpoint>
          <Trackpoint>
            <Time>2021-07-18T10:41:44.000Z</Time>
            <Position>
              <LatitudeDegrees>42.71591789089143276214599609375</LatitudeDegrees>
              <LongitudeDegrees>-0.21593517623841762542724609375</LongitudeDegrees>
            </Position>
            <AltitudeMeters>1863.5999755859375</AltitudeMeters>
            <DistanceMeters>NAN</DistanceMeters>
          </Trackpoint>
          <Trackpoint>
            <Time>2021-07-18T10:41:45.000Z</Time>
            <Position>
              <LatitudeDegrees>42.7159275300800800323486328125</LatitudeDegrees>
              <LongitudeDegrees>-0.215939618647098541259765625</LongitudeDegrees>
            </Position>
            <AltitudeMeters>1863.4000244140625</AltitudeMeters>
            <DistanceMeters>NAN</DistanceMeters>
          </Trackpoint>
          <Trackpoint>
            <Time>2021-07-18T10:41:52.000Z</Time>
            <Position>
              <LatitudeDegrees>42.71598310209810733795166015625</LatitudeDegrees>
              <LongitudeDegrees>-0.21600223146378993988037109375</LongitudeDegrees>
            </Position>
            <AltitudeMeters>1861.5999755859375</AltitudeMeters>
            <DistanceMeters>NAN</DistanceMeters>
          </Trackpoint>
          <Trackpoint>
            <Time>2021-07-18T10:42:00.000Z</Time>
            <Position>
              <LatitudeDegrees>42.7160147018730640411376953125</LatitudeDegrees>
              <LongitudeDegrees>-0.21609627641737461090087890625</LongitudeDegrees>
            </Position>
            <AltitudeMeters>1860.199951171875</AltitudeMeters>
            <DistanceMeters>NAN</DistanceMeters>
          </Trackpoint>
          <Trackpoint>
            <Time>2021-07-18T10:42:08.000Z</Time>
            <Position>
              <LatitudeDegrees>42.716031633317470550537109375</LatitudeDegrees>
              <LongitudeDegrees>-0.216172635555267333984375</LongitudeDegrees>
            </Position>
            <AltitudeMeters>1859.5999755859375</AltitudeMeters>
            <DistanceMeters>NAN</DistanceMeters>
          </Trackpoint>
          <Trackpoint>
            <Time>2021-07-18T10:42:12.000Z</Time>
            <Position>
              <LatitudeDegrees>42.71603842265903949737548828125</LatitudeDegrees>
              <LongitudeDegrees>-0.21620708517730236053466796875</LongitudeDegrees>
            </Position>
            <AltitudeMeters>1858.800048828125</AltitudeMeters>
            <DistanceMeters>NAN</DistanceMeters>
          </Trackpoint>
          <Trackpoint>
            <Time>2021-07-18T10:42:15.000Z</Time>
            <Position>
              <LatitudeDegrees>42.71606038324534893035888671875</LatitudeDegrees>
              <LongitudeDegrees>-0.2162358351051807403564453125</LongitudeDegrees>
            </Position>
            <AltitudeMeters>1857.800048828125</AltitudeMeters>
            <DistanceMeters>NAN</DistanceMeters>
          </Trackpoint>
          <Trackpoint>
            <Time>2021-07-18T10:42:21.000Z</Time>
            <Position>
              <LatitudeDegrees>42.716071195900440216064453125</LatitudeDegrees>
              <LongitudeDegrees>-0.21626324392855167388916015625</LongitudeDegrees>
            </Position>
            <AltitudeMeters>1857.199951171875</AltitudeMeters>
            <DistanceMeters>NAN</DistanceMeters>
          </Trackpoint>
          <Trackpoint>
            <Time>2021-07-18T10:42:23.000Z</Time>
            <Position>
              <LatitudeDegrees>42.71606558002531528472900390625</LatitudeDegrees>
              <LongitudeDegrees>-0.2162785828113555908203125</LongitudeDegrees>
            </Position>
            <AltitudeMeters>1857.199951171875</AltitudeMeters>
            <DistanceMeters>NAN</DistanceMeters>
          </Trackpoint>
          <Trackpoint>
            <Time>2021-07-18T10:42:31.000Z</Time>
            <Position>
              <LatitudeDegrees>42.7160810865461826324462890625</LatitudeDegrees>
              <LongitudeDegrees>-0.216364748775959014892578125</LongitudeDegrees>
            </Position>
            <AltitudeMeters>1855.5999755859375</AltitudeMeters>
            <DistanceMeters>NAN</DistanceMeters>
          </Trackpoint>
          <Trackpoint>
            <Time>2021-07-18T10:42:38.000Z</Time>
            <Position>
              <LatitudeDegrees>42.7161005325615406036376953125</LatitudeDegrees>
              <LongitudeDegrees>-0.21642333827912807464599609375</LongitudeDegrees>
            </Position>
            <AltitudeMeters>1854</AltitudeMeters>
            <DistanceMeters>NAN</DistanceMeters>
          </Trackpoint>
          <Trackpoint>
            <Time>2021-07-18T10:42:46.000Z</Time>
            <Position>
              <LatitudeDegrees>42.71612358279526233673095703125</LatitudeDegrees>
              <LongitudeDegrees>-0.2164755575358867645263671875</LongitudeDegrees>
            </Position>
            <AltitudeMeters>1852</AltitudeMeters>
            <DistanceMeters>NAN</DistanceMeters>
          </Trackpoint>
          <Trackpoint>
            <Time>2021-07-18T10:42:52.000Z</Time>
            <Position>
              <LatitudeDegrees>42.7161498181521892547607421875</LatitudeDegrees>
              <LongitudeDegrees>-0.21652023307979106903076171875</LongitudeDegrees>
            </Position>
            <AltitudeMeters>1850.199951171875</AltitudeMeters>
            <DistanceMeters>NAN</DistanceMeters>
          </Trackpoint>
          <Trackpoint>
            <Time>2021-07-18T10:42:56.000Z</Time>
            <Position>
              <LatitudeDegrees>42.7161605469882488250732421875</LatitudeDegrees>
              <LongitudeDegrees>-0.2165496535599231719970703125</LongitudeDegrees>
            </Position>
            <AltitudeMeters>1849.199951171875</AltitudeMeters>
            <DistanceMeters>NAN</DistanceMeters>
          </Trackpoint>
          <Trackpoint>
            <Time>2021-07-18T10:43:04.000Z</Time>
            <Position>
              <LatitudeDegrees>42.71619617007672786712646484375</LatitudeDegrees>
              <LongitudeDegrees>-0.2166066505014896392822265625</LongitudeDegrees>
            </Position>
            <AltitudeMeters>1847.4000244140625</AltitudeMeters>
            <DistanceMeters>NAN</DistanceMeters>
          </Trackpoint>
          <Trackpoint>
            <Time>2021-07-18T10:43:07.000Z</Time>
            <Position>
              <LatitudeDegrees>42.71621192805469036102294921875</LatitudeDegrees>
              <LongitudeDegrees>-0.21664110012352466583251953125</LongitudeDegrees>
            </Position>
            <AltitudeMeters>1846.800048828125</AltitudeMeters>
            <DistanceMeters>NAN</DistanceMeters>
          </Trackpoint>
          <Trackpoint>
            <Time>2021-07-18T10:43:14.000Z</Time>
            <Position>
              <LatitudeDegrees>42.71622651256620883941650390625</LatitudeDegrees>
              <LongitudeDegrees>-0.21671636961400508880615234375</LongitudeDegrees>
            </Position>
            <AltitudeMeters>1845.800048828125</AltitudeMeters>
            <DistanceMeters>NAN</DistanceMeters>
          </Trackpoint>
          <Trackpoint>
            <Time>2021-07-18T10:43:23.000Z</Time>
            <Position>
              <LatitudeDegrees>42.7162420190870761871337890625</LatitudeDegrees>
              <LongitudeDegrees>-0.2168078161776065826416015625</LongitudeDegrees>
            </Position>
            <AltitudeMeters>1844.5999755859375</AltitudeMeters>
            <DistanceMeters>NAN</DistanceMeters>
          </Trackpoint>
          <Trackpoint>
            <Time>2021-07-18T10:43:32.000Z</Time>
            <Position>
              <LatitudeDegrees>42.7162478864192962646484375</LatitudeDegrees>
              <LongitudeDegrees>-0.2169142663478851318359375</LongitudeDegrees>
            </Position>
            <AltitudeMeters>1843.800048828125</AltitudeMeters>
            <DistanceMeters>NAN</DistanceMeters>
          </Trackpoint>
          <Trackpoint>
            <Time>2021-07-18T10:43:40.000Z</Time>
            <Position>
              <LatitudeDegrees>42.71625769324600696563720703125</LatitudeDegrees>
              <LongitudeDegrees>-0.21698526106774806976318359375</LongitudeDegrees>
            </Position>
            <AltitudeMeters>1843.199951171875</AltitudeMeters>
            <DistanceMeters>NAN</DistanceMeters>
          </Trackpoint>
          <Trackpoint>
            <Time>2021-07-18T10:43:47.000Z</Time>
            <Position>
              <LatitudeDegrees>42.71624159999191761016845703125</LatitudeDegrees>
              <LongitudeDegrees>-0.21706472150981426239013671875</LongitudeDegrees>
            </Position>
            <AltitudeMeters>1842.800048828125</AltitudeMeters>
            <DistanceMeters>NAN</DistanceMeters>
          </Trackpoint>
          <Trackpoint>
            <Time>2021-07-18T10:43:55.000Z</Time>
            <Position>
              <LatitudeDegrees>42.71621008403599262237548828125</LatitudeDegrees>
              <LongitudeDegrees>-0.21712859161198139190673828125</LongitudeDegrees>
            </Position>
            <AltitudeMeters>1842.5999755859375</AltitudeMeters>
            <DistanceMeters>NAN</DistanceMeters>
          </Trackpoint>
          <Trackpoint>
            <Time>2021-07-18T10:44:01.000Z</Time>
            <Position>
              <LatitudeDegrees>42.7162121795117855072021484375</LatitudeDegrees>
              <LongitudeDegrees>-0.217174105346202850341796875</LongitudeDegrees>
            </Position>
            <AltitudeMeters>1842</AltitudeMeters>
            <DistanceMeters>NAN</DistanceMeters>
          </Trackpoint>
          <Trackpoint>
            <Time>2021-07-18T10:44:07.000Z</Time>
            <Position>
              <LatitudeDegrees>42.71622852422297000885009765625</LatitudeDegrees>
              <LongitudeDegrees>-0.2172034420073032379150390625</LongitudeDegrees>
            </Position>
            <AltitudeMeters>1841.5999755859375</AltitudeMeters>
            <DistanceMeters>NAN</DistanceMeters>
          </Trackpoint>
          <Trackpoint>
            <Time>2021-07-18T10:44:18.000Z</Time>
            <Position>
              <LatitudeDegrees>42.71620505489408969879150390625</LatitudeDegrees>
              <LongitudeDegrees>-0.21729237399995326995849609375</LongitudeDegrees>
            </Position>
            <AltitudeMeters>1841</AltitudeMeters>
            <DistanceMeters>NAN</DistanceMeters>
          </Trackpoint>
          <Trackpoint>
            <Time>2021-07-18T10:44:28.000Z</Time>
            <Position>
              <LatitudeDegrees>42.71621293388307094573974609375</LatitudeDegrees>
              <LongitudeDegrees>-0.217384994029998779296875</LongitudeDegrees>
            </Position>
            <AltitudeMeters>1839.800048828125</AltitudeMeters>
            <DistanceMeters>NAN</DistanceMeters>
          </Trackpoint>
          <Trackpoint>
            <Time>2021-07-18T10:44:32.000Z</Time>
            <Position>
              <LatitudeDegrees>42.7162215672433376312255859375</LatitudeDegrees>
              <LongitudeDegrees>-0.217430256307125091552734375</LongitudeDegrees>
            </Position>
            <AltitudeMeters>1839.4000244140625</AltitudeMeters>
            <DistanceMeters>NAN</DistanceMeters>
          </Trackpoint>
          <Trackpoint>
            <Time>2021-07-18T10:44:35.000Z</Time>
            <Position>
              <LatitudeDegrees>42.7162299491465091705322265625</LatitudeDegrees>
              <LongitudeDegrees>-0.21745808422565460205078125</LongitudeDegrees>
            </Position>
            <AltitudeMeters>1839</AltitudeMeters>
            <DistanceMeters>NAN</DistanceMeters>
          </Trackpoint>
          <Trackpoint>
            <Time>2021-07-18T10:44:40.000Z</Time>
            <Position>
              <LatitudeDegrees>42.716218046844005584716796875</LatitudeDegrees>
              <LongitudeDegrees>-0.217504017055034637451171875</LongitudeDegrees>
            </Position>
            <AltitudeMeters>1838.5999755859375</AltitudeMeters>
            <DistanceMeters>NAN</DistanceMeters>
          </Trackpoint>
          <Trackpoint>
            <Time>2021-07-18T10:44:44.000Z</Time>
            <Position>
              <LatitudeDegrees>42.716223411262035369873046875</LatitudeDegrees>
              <LongitudeDegrees>-0.21755942143499851226806640625</LongitudeDegrees>
            </Position>
            <AltitudeMeters>1838</AltitudeMeters>
            <DistanceMeters>NAN</DistanceMeters>
          </Trackpoint>
          <Trackpoint>
            <Time>2021-07-18T10:44:53.000Z</Time>
            <Position>
              <LatitudeDegrees>42.716212011873722076416015625</LatitudeDegrees>
              <LongitudeDegrees>-0.2176493592560291290283203125</LongitudeDegrees>
            </Position>
            <AltitudeMeters>1837</AltitudeMeters>
            <DistanceMeters>NAN</DistanceMeters>
          </Trackpoint>
          <Trackpoint>
            <Time>2021-07-18T10:45:05.000Z</Time>
            <Position>
              <LatitudeDegrees>42.71620606072247028350830078125</LatitudeDegrees>
              <LongitudeDegrees>-0.21774549968540668487548828125</LongitudeDegrees>
            </Position>
            <AltitudeMeters>1836</AltitudeMeters>
            <DistanceMeters>NAN</DistanceMeters>
          </Trackpoint>
          <Trackpoint>
            <Time>2021-07-18T10:45:13.000Z</Time>
            <Position>
              <LatitudeDegrees>42.7161873690783977508544921875</LatitudeDegrees>
              <LongitudeDegrees>-0.21781205199658870697021484375</LongitudeDegrees>
            </Position>
            <AltitudeMeters>1835.199951171875</AltitudeMeters>
            <DistanceMeters>NAN</DistanceMeters>
          </Trackpoint>
          <Trackpoint>
            <Time>2021-07-18T10:45:20.000Z</Time>
            <Position>
              <LatitudeDegrees>42.716198265552520751953125</LatitudeDegrees>
              <LongitudeDegrees>-0.2178770117461681365966796875</LongitudeDegrees>
            </Position>
            <AltitudeMeters>1834.199951171875</AltitudeMeters>
            <DistanceMeters>NAN</DistanceMeters>
          </Trackpoint>
          <Trackpoint>
            <Time>2021-07-18T10:45:27.000Z</Time>
            <Position>
              <LatitudeDegrees>42.7162198908627033233642578125</LatitudeDegrees>
              <LongitudeDegrees>-0.21795186214148998260498046875</LongitudeDegrees>
            </Position>
            <AltitudeMeters>1833</AltitudeMeters>
            <DistanceMeters>NAN</DistanceMeters>
          </Trackpoint>
          <Trackpoint>
            <Time>2021-07-18T10:45:32.000Z</Time>
            <Position>
              <LatitudeDegrees>42.716231457889080047607421875</LatitudeDegrees>
              <LongitudeDegrees>-0.21799444220960140228271484375</LongitudeDegrees>
            </Position>
            <AltitudeMeters>1833</AltitudeMeters>
            <DistanceMeters>NAN</DistanceMeters>
          </Trackpoint>
          <Trackpoint>
            <Time>2021-07-18T10:45:39.000Z</Time>
            <Position>
              <LatitudeDegrees>42.716246880590915679931640625</LatitudeDegrees>
              <LongitudeDegrees>-0.2180419676005840301513671875</LongitudeDegrees>
            </Position>
            <AltitudeMeters>1833.199951171875</AltitudeMeters>
            <DistanceMeters>NAN</DistanceMeters>
          </Trackpoint>
          <Trackpoint>
            <Time>2021-07-18T10:45:44.000Z</Time>
            <Position>
              <LatitudeDegrees>42.71625333465635776519775390625</LatitudeDegrees>
              <LongitudeDegrees>-0.218074657022953033447265625</LongitudeDegrees>
            </Position>
            <AltitudeMeters>1833.4000244140625</AltitudeMeters>
            <DistanceMeters>NAN</DistanceMeters>
          </Trackpoint>
          <Trackpoint>
            <Time>2021-07-18T10:45:47.000Z</Time>
            <Position>
              <LatitudeDegrees>42.71626641042530536651611328125</LatitudeDegrees>
              <LongitudeDegrees>-0.218098796904087066650390625</LongitudeDegrees>
            </Position>
            <AltitudeMeters>1833.5999755859375</AltitudeMeters>
            <DistanceMeters>NAN</DistanceMeters>
          </Trackpoint>
          <Trackpoint>
            <Time>2021-07-18T10:45:55.000Z</Time>
            <Position>
              <LatitudeDegrees>42.7162889577448368072509765625</LatitudeDegrees>
              <LongitudeDegrees>-0.21814615465700626373291015625</LongitudeDegrees>
            </Position>
            <AltitudeMeters>1833.5999755859375</AltitudeMeters>
            <DistanceMeters>NAN</DistanceMeters>
          </Trackpoint>
          <Trackpoint>
            <Time>2021-07-18T10:46:02.000Z</Time>
            <Position>
              <LatitudeDegrees>42.71631955169141292572021484375</LatitudeDegrees>
              <LongitudeDegrees>-0.218205749988555908203125</LongitudeDegrees>
            </Position>
            <AltitudeMeters>1832</AltitudeMeters>
            <DistanceMeters>NAN</DistanceMeters>
          </Trackpoint>
          <Trackpoint>
            <Time>2021-07-18T10:46:04.000Z</Time>
            <Position>
              <LatitudeDegrees>42.7163318730890750885009765625</LatitudeDegrees>
              <LongitudeDegrees>-0.2182186581194400787353515625</LongitudeDegrees>
            </Position>
            <AltitudeMeters>1831.4000244140625</AltitudeMeters>
            <DistanceMeters>NAN</DistanceMeters>
          </Trackpoint>
          <Trackpoint>
            <Time>2021-07-18T10:46:12.000Z</Time>
            <Position>
              <LatitudeDegrees>42.71637889556586742401123046875</LatitudeDegrees>
              <LongitudeDegrees>-0.21826199255883693695068359375</LongitudeDegrees>
            </Position>
            <AltitudeMeters>1829.800048828125</AltitudeMeters>
            <DistanceMeters>NAN</DistanceMeters>
          </Trackpoint>
          <Trackpoint>
            <Time>2021-07-18T10:46:19.000Z</Time>
            <Position>
              <LatitudeDegrees>42.71643723361194133758544921875</LatitudeDegrees>
              <LongitudeDegrees>-0.2182971127331256866455078125</LongitudeDegrees>
            </Position>
            <AltitudeMeters>1828.199951171875</AltitudeMeters>
            <DistanceMeters>NAN</DistanceMeters>
          </Trackpoint>
          <Trackpoint>
            <Time>2021-07-18T10:46:26.000Z</Time>
            <Position>
              <LatitudeDegrees>42.7164562605321407318115234375</LatitudeDegrees>
              <LongitudeDegrees>-0.21837213076651096343994140625</LongitudeDegrees>
            </Position>
            <AltitudeMeters>1827.5999755859375</AltitudeMeters>
            <DistanceMeters>NAN</DistanceMeters>
          </Trackpoint>
          <Trackpoint>
            <Time>2021-07-18T10:46:33.000Z</Time>
            <Position>
              <LatitudeDegrees>42.716468833386898040771484375</LatitudeDegrees>
              <LongitudeDegrees>-0.21843977272510528564453125</LongitudeDegrees>
            </Position>
            <AltitudeMeters>1827.4000244140625</AltitudeMeters>
            <DistanceMeters>NAN</DistanceMeters>
          </Trackpoint>
          <Trackpoint>
            <Time>2021-07-18T10:46:44.000Z</Time>
            <Position>
              <LatitudeDegrees>42.71649607457220554351806640625</LatitudeDegrees>
              <LongitudeDegrees>-0.218546725809574127197265625</LongitudeDegrees>
            </Position>
            <AltitudeMeters>1826.199951171875</AltitudeMeters>
            <DistanceMeters>NAN</DistanceMeters>
          </Trackpoint>
          <Trackpoint>
            <Time>2021-07-18T10:46:50.000Z</Time>
            <Position>
              <LatitudeDegrees>42.71648718975484371185302734375</LatitudeDegrees>
              <LongitudeDegrees>-0.21857614628970623016357421875</LongitudeDegrees>
            </Position>
            <AltitudeMeters>1826</AltitudeMeters>
            <DistanceMeters>NAN</DistanceMeters>
          </Trackpoint>
          <Trackpoint>
            <Time>2021-07-18T10:46:52.000Z</Time>
            <Position>
              <LatitudeDegrees>42.7164861001074314117431640625</LatitudeDegrees>
              <LongitudeDegrees>-0.2185810916125774383544921875</LongitudeDegrees>
            </Position>
            <AltitudeMeters>1826</AltitudeMeters>
            <DistanceMeters>NAN</DistanceMeters>
          </Trackpoint>
          <Trackpoint>
            <Time>2021-07-18T10:47:00.000Z</Time>
            <Position>
              <LatitudeDegrees>42.7164812386035919189453125</LatitudeDegrees>
              <LongitudeDegrees>-0.218645296990871429443359375</LongitudeDegrees>
            </Position>
            <AltitudeMeters>1825.4000244140625</AltitudeMeters>
            <DistanceMeters>NAN</DistanceMeters>
          </Trackpoint>
          <Trackpoint>
            <Time>2021-07-18T10:47:03.000Z</Time>
            <Position>
              <LatitudeDegrees>42.716481573879718780517578125</LatitudeDegrees>
              <LongitudeDegrees>-0.218669436872005462646484375</LongitudeDegrees>
            </Position>
            <AltitudeMeters>1825</AltitudeMeters>
            <DistanceMeters>NAN</DistanceMeters>
          </Trackpoint>
          <Trackpoint>
            <Time>2021-07-18T10:47:12.000Z</Time>
            <Position>
              <LatitudeDegrees>42.7164974994957447052001953125</LatitudeDegrees>
              <LongitudeDegrees>-0.218736492097377777099609375</LongitudeDegrees>
            </Position>
            <AltitudeMeters>1824.199951171875</AltitudeMeters>
            <DistanceMeters>NAN</DistanceMeters>
          </Trackpoint>
          <Trackpoint>
            <Time>2021-07-18T10:47:20.000Z</Time>
            <Position>
              <LatitudeDegrees>42.71653689444065093994140625</LatitudeDegrees>
              <LongitudeDegrees>-0.21878351457417011260986328125</LongitudeDegrees>
            </Position>
            <AltitudeMeters>1822.199951171875</AltitudeMeters>
            <DistanceMeters>NAN</DistanceMeters>
          </Trackpoint>
          <Trackpoint>
            <Time>2021-07-18T10:47:26.000Z</Time>
            <Position>
              <LatitudeDegrees>42.71654150448739528656005859375</LatitudeDegrees>
              <LongitudeDegrees>-0.21880061365664005279541015625</LongitudeDegrees>
            </Position>
            <AltitudeMeters>1821.5999755859375</AltitudeMeters>
            <DistanceMeters>NAN</DistanceMeters>
          </Trackpoint>
          <Trackpoint>
            <Time>2021-07-18T10:47:35.000Z</Time>
            <Position>
              <LatitudeDegrees>42.716558016836643218994140625</LatitudeDegrees>
              <LongitudeDegrees>-0.218836404383182525634765625</LongitudeDegrees>
            </Position>
            <AltitudeMeters>1821</AltitudeMeters>
            <DistanceMeters>NAN</DistanceMeters>
          </Trackpoint>
          <Trackpoint>
            <Time>2021-07-18T10:47:47.000Z</Time>
            <Position>
              <LatitudeDegrees>42.71657017059624195098876953125</LatitudeDegrees>
              <LongitudeDegrees>-0.21888728253543376922607421875</LongitudeDegrees>
            </Position>
            <AltitudeMeters>1820.800048828125</AltitudeMeters>
            <DistanceMeters>NAN</DistanceMeters>
          </Trackpoint>
          <Trackpoint>
            <Time>2021-07-18T10:47:56.000Z</Time>
            <Position>
              <LatitudeDegrees>42.7165917120873928070068359375</LatitudeDegrees>
              <LongitudeDegrees>-0.21893355064094066619873046875</LongitudeDegrees>
            </Position>
            <AltitudeMeters>1820.4000244140625</AltitudeMeters>
            <DistanceMeters>NAN</DistanceMeters>
          </Trackpoint>
          <Trackpoint>
            <Time>2021-07-18T10:48:04.000Z</Time>
            <Position>
              <LatitudeDegrees>42.716623060405254364013671875</LatitudeDegrees>
              <LongitudeDegrees>-0.218972526490688323974609375</LongitudeDegrees>
            </Position>
            <AltitudeMeters>1818</AltitudeMeters>
            <DistanceMeters>NAN</DistanceMeters>
          </Trackpoint>
          <Trackpoint>
            <Time>2021-07-18T10:48:14.000Z</Time>
            <Position>
              <LatitudeDegrees>42.7166386507451534271240234375</LatitudeDegrees>
              <LongitudeDegrees>-0.2190226502716541290283203125</LongitudeDegrees>
            </Position>
            <AltitudeMeters>1815.800048828125</AltitudeMeters>
            <DistanceMeters>NAN</DistanceMeters>
          </Trackpoint>
          <Trackpoint>
            <Time>2021-07-18T10:48:19.000Z</Time>
            <Position>
              <LatitudeDegrees>42.7166480384767055511474609375</LatitudeDegrees>
              <LongitudeDegrees>-0.219057686626911163330078125</LongitudeDegrees>
            </Position>
            <AltitudeMeters>1814.4000244140625</AltitudeMeters>
            <DistanceMeters>NAN</DistanceMeters>
          </Trackpoint>
          <Trackpoint>
            <Time>2021-07-18T10:48:23.000Z</Time>
            <Position>
              <LatitudeDegrees>42.71664175204932689666748046875</LatitudeDegrees>
              <LongitudeDegrees>-0.21907143294811248779296875</LongitudeDegrees>
            </Position>
            <AltitudeMeters>1814.4000244140625</AltitudeMeters>
            <DistanceMeters>NAN</DistanceMeters>
          </Trackpoint>
          <Trackpoint>
            <Time>2021-07-18T10:48:27.000Z</Time>
            <Position>
              <LatitudeDegrees>42.7166272513568401336669921875</LatitudeDegrees>
              <LongitudeDegrees>-0.219095908105373382568359375</LongitudeDegrees>
            </Position>
            <AltitudeMeters>1814.5999755859375</AltitudeMeters>
            <DistanceMeters>NAN</DistanceMeters>
          </Trackpoint>
          <Trackpoint>
            <Time>2021-07-18T10:48:32.000Z</Time>
            <Position>
              <LatitudeDegrees>42.71662767045199871063232421875</LatitudeDegrees>
              <LongitudeDegrees>-0.2191316150128841400146484375</LongitudeDegrees>
            </Position>
            <AltitudeMeters>1814.4000244140625</AltitudeMeters>
            <DistanceMeters>NAN</DistanceMeters>
          </Trackpoint>
          <Trackpoint>
            <Time>2021-07-18T10:48:37.000Z</Time>
            <Position>
              <LatitudeDegrees>42.7166493795812129974365234375</LatitudeDegrees>
              <LongitudeDegrees>-0.219178386032581329345703125</LongitudeDegrees>
            </Position>
            <AltitudeMeters>1812.5999755859375</AltitudeMeters>
            <DistanceMeters>NAN</DistanceMeters>
          </Trackpoint>
          <Trackpoint>
            <Time>2021-07-18T10:48:38.000Z</Time>
            <Position>
              <LatitudeDegrees>42.71664896048605442047119140625</LatitudeDegrees>
              <LongitudeDegrees>-0.21918601356446743011474609375</LongitudeDegrees>
            </Position>
            <AltitudeMeters>1812.5999755859375</AltitudeMeters>
            <DistanceMeters>NAN</DistanceMeters>
          </Trackpoint>
          <Trackpoint>
            <Time>2021-07-18T10:48:39.000Z</Time>
            <Position>
              <LatitudeDegrees>42.71664912812411785125732421875</LatitudeDegrees>
              <LongitudeDegrees>-0.219193138182163238525390625</LongitudeDegrees>
            </Position>
            <AltitudeMeters>1812.4000244140625</AltitudeMeters>
            <DistanceMeters>NAN</DistanceMeters>
          </Trackpoint>
          <Trackpoint>
            <Time>2021-07-18T10:48:44.000Z</Time>
            <Position>
              <LatitudeDegrees>42.7166636288166046142578125</LatitudeDegrees>
              <LongitudeDegrees>-0.2192456088960170745849609375</LongitudeDegrees>
            </Position>
            <AltitudeMeters>1810.199951171875</AltitudeMeters>
            <DistanceMeters>NAN</DistanceMeters>
          </Trackpoint>
          <Trackpoint>
            <Time>2021-07-18T10:48:51.000Z</Time>
            <Position>
              <LatitudeDegrees>42.716668657958507537841796875</LatitudeDegrees>
              <LongitudeDegrees>-0.2193389832973480224609375</LongitudeDegrees>
            </Position>
            <AltitudeMeters>1807.800048828125</AltitudeMeters>
            <DistanceMeters>NAN</DistanceMeters>
          </Trackpoint>
          <Trackpoint>
            <Time>2021-07-18T10:48:59.000Z</Time>
            <Position>
              <LatitudeDegrees>42.7166792191565036773681640625</LatitudeDegrees>
              <LongitudeDegrees>-0.21945205517113208770751953125</LongitudeDegrees>
            </Position>
            <AltitudeMeters>1808.199951171875</AltitudeMeters>
            <DistanceMeters>NAN</DistanceMeters>
          </Trackpoint>
          <Trackpoint>
            <Time>2021-07-18T10:49:08.000Z</Time>
            <Position>
              <LatitudeDegrees>42.71668097935616970062255859375</LatitudeDegrees>
              <LongitudeDegrees>-0.21958951838314533233642578125</LongitudeDegrees>
            </Position>
            <AltitudeMeters>1810</AltitudeMeters>
            <DistanceMeters>NAN</DistanceMeters>
          </Trackpoint>
          <Trackpoint>
            <Time>2021-07-18T10:49:12.000Z</Time>
            <Position>
              <LatitudeDegrees>42.71667410619556903839111328125</LatitudeDegrees>
              <LongitudeDegrees>-0.21965020336210727691650390625</LongitudeDegrees>
            </Position>
            <AltitudeMeters>1811.5999755859375</AltitudeMeters>
            <DistanceMeters>NAN</DistanceMeters>
          </Trackpoint>
          <Trackpoint>
            <Time>2021-07-18T10:49:15.000Z</Time>
            <Position>
              <LatitudeDegrees>42.71667125634849071502685546875</LatitudeDegrees>
              <LongitudeDegrees>-0.21970015950500965118408203125</LongitudeDegrees>
            </Position>
            <AltitudeMeters>1813.199951171875</AltitudeMeters>
            <DistanceMeters>NAN</DistanceMeters>
          </Trackpoint>
          <Trackpoint>
            <Time>2021-07-18T10:49:22.000Z</Time>
            <Position>
              <LatitudeDegrees>42.716670669615268707275390625</LatitudeDegrees>
              <LongitudeDegrees>-0.21978984586894512176513671875</LongitudeDegrees>
            </Position>
            <AltitudeMeters>1815.800048828125</AltitudeMeters>
            <DistanceMeters>NAN</DistanceMeters>
          </Trackpoint>
          <Trackpoint>
            <Time>2021-07-18T10:49:27.000Z</Time>
            <Position>
              <LatitudeDegrees>42.71667695604264736175537109375</LatitudeDegrees>
              <LongitudeDegrees>-0.21982253529131412506103515625</LongitudeDegrees>
            </Position>
            <AltitudeMeters>1816.199951171875</AltitudeMeters>
            <DistanceMeters>NAN</DistanceMeters>
          </Trackpoint>
          <Trackpoint>
            <Time>2021-07-18T10:49:28.000Z</Time>
            <Position>
              <LatitudeDegrees>42.7166792191565036773681640625</LatitudeDegrees>
              <LongitudeDegrees>-0.2198293246328830718994140625</LongitudeDegrees>
            </Position>
            <AltitudeMeters>1816.199951171875</AltitudeMeters>
            <DistanceMeters>NAN</DistanceMeters>
          </Trackpoint>
          <Trackpoint>
            <Time>2021-07-18T10:49:31.000Z</Time>
            <Position>
              <LatitudeDegrees>42.71668986417353153228759765625</LatitudeDegrees>
              <LongitudeDegrees>-0.2198621816933155059814453125</LongitudeDegrees>
            </Position>
            <AltitudeMeters>1816.4000244140625</AltitudeMeters>
            <DistanceMeters>NAN</DistanceMeters>
          </Trackpoint>
          <Trackpoint>
            <Time>2021-07-18T10:49:35.000Z</Time>
            <Position>
              <LatitudeDegrees>42.71670059300959110260009765625</LatitudeDegrees>
              <LongitudeDegrees>-0.21989294327795505523681640625</LongitudeDegrees>
            </Position>
            <AltitudeMeters>1816.4000244140625</AltitudeMeters>
            <DistanceMeters>NAN</DistanceMeters>
          </Trackpoint>
          <Trackpoint>
            <Time>2021-07-18T10:49:36.000Z</Time>
            <Position>
              <LatitudeDegrees>42.7167036943137645721435546875</LatitudeDegrees>
              <LongitudeDegrees>-0.21989881061017513275146484375</LongitudeDegrees>
            </Position>
            <AltitudeMeters>1816.199951171875</AltitudeMeters>
            <DistanceMeters>NAN</DistanceMeters>
          </Trackpoint>
          <Trackpoint>
            <Time>2021-07-18T10:49:44.000Z</Time>
            <Position>
              <LatitudeDegrees>42.71670931018888950347900390625</LatitudeDegrees>
              <LongitudeDegrees>-0.21995765157043933868408203125</LongitudeDegrees>
            </Position>
            <AltitudeMeters>1817</AltitudeMeters>
            <DistanceMeters>NAN</DistanceMeters>
          </Trackpoint>
          <Trackpoint>
            <Time>2021-07-18T10:49:51.000Z</Time>
            <Position>
              <LatitudeDegrees>42.71673060022294521331787109375</LatitudeDegrees>
              <LongitudeDegrees>-0.22000257857143878936767578125</LongitudeDegrees>
            </Position>
            <AltitudeMeters>1816.4000244140625</AltitudeMeters>
            <DistanceMeters>NAN</DistanceMeters>
          </Trackpoint>
          <Trackpoint>
            <Time>2021-07-18T10:49:54.000Z</Time>
            <Position>
              <LatitudeDegrees>42.71672758273780345916748046875</LatitudeDegrees>
              <LongitudeDegrees>-0.2200026623904705047607421875</LongitudeDegrees>
            </Position>
            <AltitudeMeters>1816.5999755859375</AltitudeMeters>
            <DistanceMeters>NAN</DistanceMeters>
          </Trackpoint>
          <Trackpoint>
            <Time>2021-07-18T10:49:57.000Z</Time>
            <Position>
              <LatitudeDegrees>42.71672322414815425872802734375</LatitudeDegrees>
              <LongitudeDegrees>-0.21999821998178958892822265625</LongitudeDegrees>
            </Position>
            <AltitudeMeters>1817</AltitudeMeters>
            <DistanceMeters>NAN</DistanceMeters>
          </Trackpoint>
          <Trackpoint>
            <Time>2021-07-18T10:50:00.000Z</Time>
            <Position>
              <LatitudeDegrees>42.71671936847269535064697265625</LatitudeDegrees>
              <LongitudeDegrees>-0.219995789229869842529296875</LongitudeDegrees>
            </Position>
            <AltitudeMeters>1817.199951171875</AltitudeMeters>
            <DistanceMeters>NAN</DistanceMeters>
          </Trackpoint>
          <Trackpoint>
            <Time>2021-07-18T10:50:03.000Z</Time>
            <Position>
              <LatitudeDegrees>42.71671936847269535064697265625</LatitudeDegrees>
              <LongitudeDegrees>-0.219995789229869842529296875</LongitudeDegrees>
            </Position>
            <AltitudeMeters>1817.199951171875</AltitudeMeters>
            <DistanceMeters>NAN</DistanceMeters>
          </Trackpoint>
          <Trackpoint>
            <Time>2021-07-18T10:50:07.000Z</Time>
            <Position>
              <LatitudeDegrees>42.71671936847269535064697265625</LatitudeDegrees>
              <LongitudeDegrees>-0.219995789229869842529296875</LongitudeDegrees>
            </Position>
            <AltitudeMeters>1817.199951171875</AltitudeMeters>
            <DistanceMeters>NAN</DistanceMeters>
          </Trackpoint>
          <Trackpoint>
            <Time>2021-07-18T10:50:13.000Z</Time>
            <Position>
              <LatitudeDegrees>42.71671936847269535064697265625</LatitudeDegrees>
              <LongitudeDegrees>-0.219995789229869842529296875</LongitudeDegrees>
            </Position>
            <AltitudeMeters>1817.199951171875</AltitudeMeters>
            <DistanceMeters>NAN</DistanceMeters>
          </Trackpoint>
          <Trackpoint>
            <Time>2021-07-18T10:50:19.000Z</Time>
            <Position>
              <LatitudeDegrees>42.716718614101409912109375</LatitudeDegrees>
              <LongitudeDegrees>-0.21999520249664783477783203125</LongitudeDegrees>
            </Position>
            <AltitudeMeters>1817.199951171875</AltitudeMeters>
            <DistanceMeters>NAN</DistanceMeters>
          </Trackpoint>
          <Trackpoint>
            <Time>2021-07-18T10:50:23.000Z</Time>
            <Position>
              <LatitudeDegrees>42.71671794354915618896484375</LatitudeDegrees>
              <LongitudeDegrees>-0.21998941898345947265625</LongitudeDegrees>
            </Position>
            <AltitudeMeters>1817</AltitudeMeters>
            <DistanceMeters>NAN</DistanceMeters>
          </Trackpoint>
          <Trackpoint>
            <Time>2021-07-18T10:50:26.000Z</Time>
            <Position>
              <LatitudeDegrees>42.71672070957720279693603515625</LatitudeDegrees>
              <LongitudeDegrees>-0.21999369375407695770263671875</LongitudeDegrees>
            </Position>
            <AltitudeMeters>1817</AltitudeMeters>
            <DistanceMeters>NAN</DistanceMeters>
          </Trackpoint>
          <Trackpoint>
            <Time>2021-07-18T10:50:29.000Z</Time>
            <Position>
              <LatitudeDegrees>42.7167387306690216064453125</LatitudeDegrees>
              <LongitudeDegrees>-0.22005488164722919464111328125</LongitudeDegrees>
            </Position>
            <AltitudeMeters>1816.800048828125</AltitudeMeters>
            <DistanceMeters>NAN</DistanceMeters>
          </Trackpoint>
          <Trackpoint>
            <Time>2021-07-18T10:50:38.000Z</Time>
            <Position>
              <LatitudeDegrees>42.716795392334461212158203125</LatitudeDegrees>
              <LongitudeDegrees>-0.220169126987457275390625</LongitudeDegrees>
            </Position>
            <AltitudeMeters>1813.5999755859375</AltitudeMeters>
            <DistanceMeters>NAN</DistanceMeters>
          </Trackpoint>
          <Trackpoint>
            <Time>2021-07-18T10:50:45.000Z</Time>
            <Position>
              <LatitudeDegrees>42.71678256802260875701904296875</LatitudeDegrees>
              <LongitudeDegrees>-0.2201731503009796142578125</LongitudeDegrees>
            </Position>
            <AltitudeMeters>1814.800048828125</AltitudeMeters>
            <DistanceMeters>NAN</DistanceMeters>
          </Trackpoint>
          <Trackpoint>
            <Time>2021-07-18T10:50:47.000Z</Time>
            <Position>
              <LatitudeDegrees>42.71677016280591487884521484375</LatitudeDegrees>
              <LongitudeDegrees>-0.220164768397808074951171875</LongitudeDegrees>
            </Position>
            <AltitudeMeters>1816</AltitudeMeters>
            <DistanceMeters>NAN</DistanceMeters>
          </Trackpoint>
          <Trackpoint>
            <Time>2021-07-18T10:50:49.000Z</Time>
            <Position>
              <LatitudeDegrees>42.7167885191738605499267578125</LatitudeDegrees>
              <LongitudeDegrees>-0.2201830409467220306396484375</LongitudeDegrees>
            </Position>
            <AltitudeMeters>1814.4000244140625</AltitudeMeters>
            <DistanceMeters>NAN</DistanceMeters>
          </Trackpoint>
          <Trackpoint>
            <Time>2021-07-18T10:50:50.000Z</Time>
            <Position>
              <LatitudeDegrees>42.71678877063095569610595703125</LatitudeDegrees>
              <LongitudeDegrees>-0.220189578831195831298828125</LongitudeDegrees>
            </Position>
            <AltitudeMeters>1814.4000244140625</AltitudeMeters>
            <DistanceMeters>NAN</DistanceMeters>
          </Trackpoint>
          <Trackpoint>
            <Time>2021-07-18T10:50:51.000Z</Time>
            <Position>
              <LatitudeDegrees>42.71679011173546314239501953125</LatitudeDegrees>
              <LongitudeDegrees>-0.2201865613460540771484375</LongitudeDegrees>
            </Position>
            <AltitudeMeters>1814.199951171875</AltitudeMeters>
            <DistanceMeters>NAN</DistanceMeters>
          </Trackpoint>
          <Trackpoint>
            <Time>2021-07-18T10:50:52.000Z</Time>
            <Position>
              <LatitudeDegrees>42.71679111756384372711181640625</LatitudeDegrees>
              <LongitudeDegrees>-0.2201947756111621856689453125</LongitudeDegrees>
            </Position>
            <AltitudeMeters>1814.199951171875</AltitudeMeters>
            <DistanceMeters>NAN</DistanceMeters>
          </Trackpoint>
          <Trackpoint>
            <Time>2021-07-18T10:50:56.000Z</Time>
            <Position>
              <LatitudeDegrees>42.7168052829802036285400390625</LatitudeDegrees>
              <LongitudeDegrees>-0.2202363498508930206298828125</LongitudeDegrees>
            </Position>
            <AltitudeMeters>1812.5999755859375</AltitudeMeters>
            <DistanceMeters>NAN</DistanceMeters>
          </Trackpoint>
          <Trackpoint>
            <Time>2021-07-18T10:51:02.000Z</Time>
            <Position>
              <LatitudeDegrees>42.71682514809072017669677734375</LatitudeDegrees>
              <LongitudeDegrees>-0.22030667401850223541259765625</LongitudeDegrees>
            </Position>
            <AltitudeMeters>1810</AltitudeMeters>
            <DistanceMeters>NAN</DistanceMeters>
          </Trackpoint>
          <Trackpoint>
            <Time>2021-07-18T10:51:07.000Z</Time>
            <Position>
              <LatitudeDegrees>42.7168394811451435089111328125</LatitudeDegrees>
              <LongitudeDegrees>-0.22036970593035221099853515625</LongitudeDegrees>
            </Position>
            <AltitudeMeters>1808</AltitudeMeters>
            <DistanceMeters>NAN</DistanceMeters>
          </Trackpoint>
          <Trackpoint>
            <Time>2021-07-18T10:51:15.000Z</Time>
            <Position>
              <LatitudeDegrees>42.71686806343495845794677734375</LatitudeDegrees>
              <LongitudeDegrees>-0.22047699429094791412353515625</LongitudeDegrees>
            </Position>
            <AltitudeMeters>1806.199951171875</AltitudeMeters>
            <DistanceMeters>NAN</DistanceMeters>
          </Trackpoint>
          <Trackpoint>
            <Time>2021-07-18T10:51:17.000Z</Time>
            <Position>
              <LatitudeDegrees>42.71686638705432415008544921875</LatitudeDegrees>
              <LongitudeDegrees>-0.2205069176852703094482421875</LongitudeDegrees>
            </Position>
            <AltitudeMeters>1806.5999755859375</AltitudeMeters>
            <DistanceMeters>NAN</DistanceMeters>
          </Trackpoint>
          <Trackpoint>
            <Time>2021-07-18T10:51:22.000Z</Time>
            <Position>
              <LatitudeDegrees>42.71688331849873065948486328125</LatitudeDegrees>
              <LongitudeDegrees>-0.22058092989027500152587890625</LongitudeDegrees>
            </Position>
            <AltitudeMeters>1805.5999755859375</AltitudeMeters>
            <DistanceMeters>NAN</DistanceMeters>
          </Trackpoint>
          <Trackpoint>
            <Time>2021-07-18T10:51:25.000Z</Time>
            <Position>
              <LatitudeDegrees>42.71689555607736110687255859375</LatitudeDegrees>
              <LongitudeDegrees>-0.22062820382416248321533203125</LongitudeDegrees>
            </Position>
            <AltitudeMeters>1804.5999755859375</AltitudeMeters>
            <DistanceMeters>NAN</DistanceMeters>
          </Trackpoint>
          <Trackpoint>
            <Time>2021-07-18T10:51:32.000Z</Time>
            <Position>
              <LatitudeDegrees>42.71691852249205112457275390625</LatitudeDegrees>
              <LongitudeDegrees>-0.2207271941006183624267578125</LongitudeDegrees>
            </Position>
            <AltitudeMeters>1802.4000244140625</AltitudeMeters>
            <DistanceMeters>NAN</DistanceMeters>
          </Trackpoint>
          <Trackpoint>
            <Time>2021-07-18T10:51:34.000Z</Time>
            <Position>
              <LatitudeDegrees>42.7169098891317844390869140625</LatitudeDegrees>
              <LongitudeDegrees>-0.22075410000979900360107421875</LongitudeDegrees>
            </Position>
            <AltitudeMeters>1803.199951171875</AltitudeMeters>
            <DistanceMeters>NAN</DistanceMeters>
          </Trackpoint>
          <Trackpoint>
            <Time>2021-07-18T10:51:42.000Z</Time>
            <Position>
              <LatitudeDegrees>42.71691600792109966278076171875</LatitudeDegrees>
              <LongitudeDegrees>-0.22084915079176425933837890625</LongitudeDegrees>
            </Position>
            <AltitudeMeters>1802</AltitudeMeters>
            <DistanceMeters>NAN</DistanceMeters>
          </Trackpoint>
          <Trackpoint>
            <Time>2021-07-18T10:51:44.000Z</Time>
            <Position>
              <LatitudeDegrees>42.7169229649007320404052734375</LatitudeDegrees>
              <LongitudeDegrees>-0.22086448967456817626953125</LongitudeDegrees>
            </Position>
            <AltitudeMeters>1801.4000244140625</AltitudeMeters>
            <DistanceMeters>NAN</DistanceMeters>
          </Trackpoint>
          <Trackpoint>
            <Time>2021-07-18T10:51:45.000Z</Time>
            <Position>
              <LatitudeDegrees>42.71692405454814434051513671875</LatitudeDegrees>
              <LongitudeDegrees>-0.22086792625486850738525390625</LongitudeDegrees>
            </Position>
            <AltitudeMeters>1801.4000244140625</AltitudeMeters>
            <DistanceMeters>NAN</DistanceMeters>
          </Trackpoint>
          <Trackpoint>
            <Time>2021-07-18T10:51:48.000Z</Time>
            <Position>
              <LatitudeDegrees>42.716925479471683502197265625</LatitudeDegrees>
              <LongitudeDegrees>-0.2209025435149669647216796875</LongitudeDegrees>
            </Position>
            <AltitudeMeters>1801.4000244140625</AltitudeMeters>
            <DistanceMeters>NAN</DistanceMeters>
          </Trackpoint>
          <Trackpoint>
            <Time>2021-07-18T10:51:57.000Z</Time>
            <Position>
              <LatitudeDegrees>42.71691617555916309356689453125</LatitudeDegrees>
              <LongitudeDegrees>-0.22101108916103839874267578125</LongitudeDegrees>
            </Position>
            <AltitudeMeters>1802.5999755859375</AltitudeMeters>
            <DistanceMeters>NAN</DistanceMeters>
          </Trackpoint>
          <Trackpoint>
            <Time>2021-07-18T10:52:06.000Z</Time>
            <Position>
              <LatitudeDegrees>42.71695255301892757415771484375</LatitudeDegrees>
              <LongitudeDegrees>-0.22112868726253509521484375</LongitudeDegrees>
            </Position>
            <AltitudeMeters>1799.5999755859375</AltitudeMeters>
            <DistanceMeters>NAN</DistanceMeters>
          </Trackpoint>
          <Trackpoint>
            <Time>2021-07-18T10:52:09.000Z</Time>
            <Position>
              <LatitudeDegrees>42.71696336567401885986328125</LatitudeDegrees>
              <LongitudeDegrees>-0.2211749553680419921875</LongitudeDegrees>
            </Position>
            <AltitudeMeters>1799.4000244140625</AltitudeMeters>
            <DistanceMeters>NAN</DistanceMeters>
          </Trackpoint>
          <Trackpoint>
            <Time>2021-07-18T10:52:13.000Z</Time>
            <Position>
              <LatitudeDegrees>42.71698708645999431610107421875</LatitudeDegrees>
              <LongitudeDegrees>-0.22121778689324855804443359375</LongitudeDegrees>
            </Position>
            <AltitudeMeters>1798.199951171875</AltitudeMeters>
            <DistanceMeters>NAN</DistanceMeters>
          </Trackpoint>
          <Trackpoint>
            <Time>2021-07-18T10:52:19.000Z</Time>
            <Position>
              <LatitudeDegrees>42.71701424382627010345458984375</LatitudeDegrees>
              <LongitudeDegrees>-0.2212822437286376953125</LongitudeDegrees>
            </Position>
            <AltitudeMeters>1797.199951171875</AltitudeMeters>
            <DistanceMeters>NAN</DistanceMeters>
          </Trackpoint>
          <Trackpoint>
            <Time>2021-07-18T10:52:26.000Z</Time>
            <Position>
              <LatitudeDegrees>42.71705187857151031494140625</LatitudeDegrees>
              <LongitudeDegrees>-0.2213694155216217041015625</LongitudeDegrees>
            </Position>
            <AltitudeMeters>1796</AltitudeMeters>
            <DistanceMeters>NAN</DistanceMeters>
          </Trackpoint>
          <Trackpoint>
            <Time>2021-07-18T10:52:36.000Z</Time>
            <Position>
              <LatitudeDegrees>42.717081047594547271728515625</LatitudeDegrees>
              <LongitudeDegrees>-0.221495814621448516845703125</LongitudeDegrees>
            </Position>
            <AltitudeMeters>1795.800048828125</AltitudeMeters>
            <DistanceMeters>NAN</DistanceMeters>
          </Trackpoint>
          <Trackpoint>
            <Time>2021-07-18T10:52:46.000Z</Time>
            <Position>
              <LatitudeDegrees>42.71707358770072460174560546875</LatitudeDegrees>
              <LongitudeDegrees>-0.22160670720040798187255859375</LongitudeDegrees>
            </Position>
            <AltitudeMeters>1797.199951171875</AltitudeMeters>
            <DistanceMeters>NAN</DistanceMeters>
          </Trackpoint>
          <Trackpoint>
            <Time>2021-07-18T10:52:51.000Z</Time>
            <Position>
              <LatitudeDegrees>42.71705950610339641571044921875</LatitudeDegrees>
              <LongitudeDegrees>-0.22166110575199127197265625</LongitudeDegrees>
            </Position>
            <AltitudeMeters>1798.4000244140625</AltitudeMeters>
            <DistanceMeters>NAN</DistanceMeters>
          </Trackpoint>
          <Trackpoint>
            <Time>2021-07-18T10:52:54.000Z</Time>
            <Position>
              <LatitudeDegrees>42.717042155563831329345703125</LatitudeDegrees>
              <LongitudeDegrees>-0.22170360200107097625732421875</LongitudeDegrees>
            </Position>
            <AltitudeMeters>1799.5999755859375</AltitudeMeters>
            <DistanceMeters>NAN</DistanceMeters>
          </Trackpoint>
          <Trackpoint>
            <Time>2021-07-18T10:53:03.000Z</Time>
            <Position>
              <LatitudeDegrees>42.7170128189027309417724609375</LatitudeDegrees>
              <LongitudeDegrees>-0.221821367740631103515625</LongitudeDegrees>
            </Position>
            <AltitudeMeters>1802.199951171875</AltitudeMeters>
            <DistanceMeters>NAN</DistanceMeters>
          </Trackpoint>
          <Trackpoint>
            <Time>2021-07-18T10:53:11.000Z</Time>
            <Position>
              <LatitudeDegrees>42.71703653968870639801025390625</LatitudeDegrees>
              <LongitudeDegrees>-0.22194835357367992401123046875</LongitudeDegrees>
            </Position>
            <AltitudeMeters>1801.5999755859375</AltitudeMeters>
            <DistanceMeters>NAN</DistanceMeters>
          </Trackpoint>
          <Trackpoint>
            <Time>2021-07-18T10:53:18.000Z</Time>
            <Position>
              <LatitudeDegrees>42.7170486934483051300048828125</LatitudeDegrees>
              <LongitudeDegrees>-0.22205061279237270355224609375</LongitudeDegrees>
            </Position>
            <AltitudeMeters>1802</AltitudeMeters>
            <DistanceMeters>NAN</DistanceMeters>
          </Trackpoint>
          <Trackpoint>
            <Time>2021-07-18T10:53:19.000Z</Time>
            <Position>
              <LatitudeDegrees>42.71705028600990772247314453125</LatitudeDegrees>
              <LongitudeDegrees>-0.22206704132258892059326171875</LongitudeDegrees>
            </Position>
            <AltitudeMeters>1802</AltitudeMeters>
            <DistanceMeters>NAN</DistanceMeters>
          </Trackpoint>
          <Trackpoint>
            <Time>2021-07-18T10:53:28.000Z</Time>
            <Position>
              <LatitudeDegrees>42.717078030109405517578125</LatitudeDegrees>
              <LongitudeDegrees>-0.222203917801380157470703125</LongitudeDegrees>
            </Position>
            <AltitudeMeters>1801.4000244140625</AltitudeMeters>
            <DistanceMeters>NAN</DistanceMeters>
          </Trackpoint>
          <Trackpoint>
            <Time>2021-07-18T10:53:31.000Z</Time>
            <Position>
              <LatitudeDegrees>42.71708071231842041015625</LatitudeDegrees>
              <LongitudeDegrees>-0.2222513593733310699462890625</LongitudeDegrees>
            </Position>
            <AltitudeMeters>1801.5999755859375</AltitudeMeters>
            <DistanceMeters>NAN</DistanceMeters>
          </Trackpoint>
          <Trackpoint>
            <Time>2021-07-18T10:53:34.000Z</Time>
            <Position>
              <LatitudeDegrees>42.7170838974416255950927734375</LatitudeDegrees>
              <LongitudeDegrees>-0.2222920954227447509765625</LongitudeDegrees>
            </Position>
            <AltitudeMeters>1801.800048828125</AltitudeMeters>
            <DistanceMeters>NAN</DistanceMeters>
          </Trackpoint>
          <Trackpoint>
            <Time>2021-07-18T10:53:35.000Z</Time>
            <Position>
              <LatitudeDegrees>42.71708465181291103363037109375</LatitudeDegrees>
              <LongitudeDegrees>-0.22230491973459720611572265625</LongitudeDegrees>
            </Position>
            <AltitudeMeters>1802</AltitudeMeters>
            <DistanceMeters>NAN</DistanceMeters>
          </Trackpoint>
          <Trackpoint>
            <Time>2021-07-18T10:53:38.000Z</Time>
            <Position>
              <LatitudeDegrees>42.717097140848636627197265625</LatitudeDegrees>
              <LongitudeDegrees>-0.22235521115362644195556640625</LongitudeDegrees>
            </Position>
            <AltitudeMeters>1801.4000244140625</AltitudeMeters>
            <DistanceMeters>NAN</DistanceMeters>
          </Trackpoint>
          <Trackpoint>
            <Time>2021-07-18T10:53:42.000Z</Time>
            <Position>
              <LatitudeDegrees>42.71708766929805278778076171875</LatitudeDegrees>
              <LongitudeDegrees>-0.22242260165512561798095703125</LongitudeDegrees>
            </Position>
            <AltitudeMeters>1802.4000244140625</AltitudeMeters>
            <DistanceMeters>NAN</DistanceMeters>
          </Trackpoint>
          <Trackpoint>
            <Time>2021-07-18T10:53:44.000Z</Time>
            <Position>
              <LatitudeDegrees>42.71709186024963855743408203125</LatitudeDegrees>
              <LongitudeDegrees>-0.2224468253552913665771484375</LongitudeDegrees>
            </Position>
            <AltitudeMeters>1801.5999755859375</AltitudeMeters>
            <DistanceMeters>NAN</DistanceMeters>
          </Trackpoint>
          <Trackpoint>
            <Time>2021-07-18T10:53:49.000Z</Time>
            <Position>
              <LatitudeDegrees>42.71710686385631561279296875</LatitudeDegrees>
              <LongitudeDegrees>-0.22250373847782611846923828125</LongitudeDegrees>
            </Position>
            <AltitudeMeters>1799.4000244140625</AltitudeMeters>
            <DistanceMeters>NAN</DistanceMeters>
          </Trackpoint>
          <Trackpoint>
            <Time>2021-07-18T10:53:51.000Z</Time>
            <Position>
              <LatitudeDegrees>42.71710543893277645111083984375</LatitudeDegrees>
              <LongitudeDegrees>-0.2225202508270740509033203125</LongitudeDegrees>
            </Position>
            <AltitudeMeters>1799.199951171875</AltitudeMeters>
            <DistanceMeters>NAN</DistanceMeters>
          </Trackpoint>
          <Trackpoint>
            <Time>2021-07-18T10:53:56.000Z</Time>
            <Position>
              <LatitudeDegrees>42.717109210789203643798828125</LatitudeDegrees>
              <LongitudeDegrees>-0.22257171571254730224609375</LongitudeDegrees>
            </Position>
            <AltitudeMeters>1798</AltitudeMeters>
            <DistanceMeters>NAN</DistanceMeters>
          </Trackpoint>
          <Trackpoint>
            <Time>2021-07-18T10:54:05.000Z</Time>
            <Position>
              <LatitudeDegrees>42.71710845641791820526123046875</LatitudeDegrees>
              <LongitudeDegrees>-0.2226909063756465911865234375</LongitudeDegrees>
            </Position>
            <AltitudeMeters>1795.5999755859375</AltitudeMeters>
            <DistanceMeters>NAN</DistanceMeters>
          </Trackpoint>
          <Trackpoint>
            <Time>2021-07-18T10:54:10.000Z</Time>
            <Position>
              <LatitudeDegrees>42.717100493609905242919921875</LatitudeDegrees>
              <LongitudeDegrees>-0.2227505855262279510498046875</LongitudeDegrees>
            </Position>
            <AltitudeMeters>1795.4000244140625</AltitudeMeters>
            <DistanceMeters>NAN</DistanceMeters>
          </Trackpoint>
          <Trackpoint>
            <Time>2021-07-18T10:54:12.000Z</Time>
            <Position>
              <LatitudeDegrees>42.71710661239922046661376953125</LatitudeDegrees>
              <LongitudeDegrees>-0.2227829396724700927734375</LongitudeDegrees>
            </Position>
            <AltitudeMeters>1794.4000244140625</AltitudeMeters>
            <DistanceMeters>NAN</DistanceMeters>
          </Trackpoint>
          <Trackpoint>
            <Time>2021-07-18T10:54:15.000Z</Time>
            <Position>
              <LatitudeDegrees>42.71710418164730072021484375</LatitudeDegrees>
              <LongitudeDegrees>-0.22282241843640804290771484375</LongitudeDegrees>
            </Position>
            <AltitudeMeters>1794</AltitudeMeters>
            <DistanceMeters>NAN</DistanceMeters>
          </Trackpoint>
          <Trackpoint>
            <Time>2021-07-18T10:54:20.000Z</Time>
            <Position>
              <LatitudeDegrees>42.71711834706366062164306640625</LatitudeDegrees>
              <LongitudeDegrees>-0.222872793674468994140625</LongitudeDegrees>
            </Position>
            <AltitudeMeters>1792</AltitudeMeters>
            <DistanceMeters>NAN</DistanceMeters>
          </Trackpoint>
          <Trackpoint>
            <Time>2021-07-18T10:54:30.000Z</Time>
            <Position>
              <LatitudeDegrees>42.71712027490139007568359375</LatitudeDegrees>
              <LongitudeDegrees>-0.22297329269349575042724609375</LongitudeDegrees>
            </Position>
            <AltitudeMeters>1790.199951171875</AltitudeMeters>
            <DistanceMeters>NAN</DistanceMeters>
          </Trackpoint>
          <Trackpoint>
            <Time>2021-07-18T10:54:34.000Z</Time>
            <Position>
              <LatitudeDegrees>42.71711633540689945220947265625</LatitudeDegrees>
              <LongitudeDegrees>-0.22303196601569652557373046875</LongitudeDegrees>
            </Position>
            <AltitudeMeters>1789.199951171875</AltitudeMeters>
            <DistanceMeters>NAN</DistanceMeters>
          </Trackpoint>
          <Trackpoint>
            <Time>2021-07-18T10:54:37.000Z</Time>
            <Position>
              <LatitudeDegrees>42.71710644476115703582763671875</LatitudeDegrees>
              <LongitudeDegrees>-0.22308493964374065399169921875</LongitudeDegrees>
            </Position>
            <AltitudeMeters>1789</AltitudeMeters>
            <DistanceMeters>NAN</DistanceMeters>
          </Trackpoint>
          <Trackpoint>
            <Time>2021-07-18T10:54:40.000Z</Time>
            <Position>
              <LatitudeDegrees>42.7171003259718418121337890625</LatitudeDegrees>
              <LongitudeDegrees>-0.22312165237963199615478515625</LongitudeDegrees>
            </Position>
            <AltitudeMeters>1788.5999755859375</AltitudeMeters>
            <DistanceMeters>NAN</DistanceMeters>
          </Trackpoint>
          <Trackpoint>
            <Time>2021-07-18T10:54:44.000Z</Time>
            <Position>
              <LatitudeDegrees>42.7170859090983867645263671875</LatitudeDegrees>
              <LongitudeDegrees>-0.22316272370517253875732421875</LongitudeDegrees>
            </Position>
            <AltitudeMeters>1789</AltitudeMeters>
            <DistanceMeters>NAN</DistanceMeters>
          </Trackpoint>
          <Trackpoint>
            <Time>2021-07-18T10:54:46.000Z</Time>
            <Position>
              <LatitudeDegrees>42.7170859090983867645263671875</LatitudeDegrees>
              <LongitudeDegrees>-0.22318066097795963287353515625</LongitudeDegrees>
            </Position>
            <AltitudeMeters>1788.800048828125</AltitudeMeters>
            <DistanceMeters>NAN</DistanceMeters>
          </Trackpoint>
          <Trackpoint>
            <Time>2021-07-18T10:54:49.000Z</Time>
            <Position>
              <LatitudeDegrees>42.7170815505087375640869140625</LatitudeDegrees>
              <LongitudeDegrees>-0.22320681251585483551025390625</LongitudeDegrees>
            </Position>
            <AltitudeMeters>1789.4000244140625</AltitudeMeters>
            <DistanceMeters>NAN</DistanceMeters>
          </Trackpoint>
          <Trackpoint>
            <Time>2021-07-18T10:54:52.000Z</Time>
            <Position>
              <LatitudeDegrees>42.71708498708903789520263671875</LatitudeDegrees>
              <LongitudeDegrees>-0.2232496440410614013671875</LongitudeDegrees>
            </Position>
            <AltitudeMeters>1789.800048828125</AltitudeMeters>
            <DistanceMeters>NAN</DistanceMeters>
          </Trackpoint>
          <Trackpoint>
            <Time>2021-07-18T10:54:56.000Z</Time>
            <Position>
              <LatitudeDegrees>42.71708272397518157958984375</LatitudeDegrees>
              <LongitudeDegrees>-0.22330555133521556854248046875</LongitudeDegrees>
            </Position>
            <AltitudeMeters>1789.800048828125</AltitudeMeters>
            <DistanceMeters>NAN</DistanceMeters>
          </Trackpoint>
          <Trackpoint>
            <Time>2021-07-18T10:54:58.000Z</Time>
            <Position>
              <LatitudeDegrees>42.7170849032700061798095703125</LatitudeDegrees>
              <LongitudeDegrees>-0.2233316190540790557861328125</LongitudeDegrees>
            </Position>
            <AltitudeMeters>1789.5999755859375</AltitudeMeters>
            <DistanceMeters>NAN</DistanceMeters>
          </Trackpoint>
          <Trackpoint>
            <Time>2021-07-18T10:55:05.000Z</Time>
            <Position>
              <LatitudeDegrees>42.71710007451474666595458984375</LatitudeDegrees>
              <LongitudeDegrees>-0.2234224788844585418701171875</LongitudeDegrees>
            </Position>
            <AltitudeMeters>1788.5999755859375</AltitudeMeters>
            <DistanceMeters>NAN</DistanceMeters>
          </Trackpoint>
          <Trackpoint>
            <Time>2021-07-18T10:55:10.000Z</Time>
            <Position>
              <LatitudeDegrees>42.71710292436182498931884765625</LatitudeDegrees>
              <LongitudeDegrees>-0.2234888635575771331787109375</LongitudeDegrees>
            </Position>
            <AltitudeMeters>1789</AltitudeMeters>
            <DistanceMeters>NAN</DistanceMeters>
          </Trackpoint>
          <Trackpoint>
            <Time>2021-07-18T10:55:13.000Z</Time>
            <Position>
              <LatitudeDegrees>42.7171060256659984588623046875</LatitudeDegrees>
              <LongitudeDegrees>-0.2235307730734348297119140625</LongitudeDegrees>
            </Position>
            <AltitudeMeters>1789.4000244140625</AltitudeMeters>
            <DistanceMeters>NAN</DistanceMeters>
          </Trackpoint>
          <Trackpoint>
            <Time>2021-07-18T10:55:15.000Z</Time>
            <Position>
              <LatitudeDegrees>42.71711382083594799041748046875</LatitudeDegrees>
              <LongitudeDegrees>-0.22355533204972743988037109375</LongitudeDegrees>
            </Position>
            <AltitudeMeters>1789.4000244140625</AltitudeMeters>
            <DistanceMeters>NAN</DistanceMeters>
          </Trackpoint>
          <Trackpoint>
            <Time>2021-07-18T10:55:24.000Z</Time>
            <Position>
              <LatitudeDegrees>42.717144750058650970458984375</LatitudeDegrees>
              <LongitudeDegrees>-0.2236732654273509979248046875</LongitudeDegrees>
            </Position>
            <AltitudeMeters>1790</AltitudeMeters>
            <DistanceMeters>NAN</DistanceMeters>
          </Trackpoint>
          <Trackpoint>
            <Time>2021-07-18T10:55:27.000Z</Time>
            <Position>
              <LatitudeDegrees>42.7171442471444606781005859375</LatitudeDegrees>
              <LongitudeDegrees>-0.2237044461071491241455078125</LongitudeDegrees>
            </Position>
            <AltitudeMeters>1790.4000244140625</AltitudeMeters>
            <DistanceMeters>NAN</DistanceMeters>
          </Trackpoint>
          <Trackpoint>
            <Time>2021-07-18T10:55:31.000Z</Time>
            <Position>
              <LatitudeDegrees>42.71714064292609691619873046875</LatitudeDegrees>
              <LongitudeDegrees>-0.223742164671421051025390625</LongitudeDegrees>
            </Position>
            <AltitudeMeters>1790.800048828125</AltitudeMeters>
            <DistanceMeters>NAN</DistanceMeters>
          </Trackpoint>
          <Trackpoint>
            <Time>2021-07-18T10:55:38.000Z</Time>
            <Position>
              <LatitudeDegrees>42.71712069399654865264892578125</LatitudeDegrees>
              <LongitudeDegrees>-0.22378583438694477081298828125</LongitudeDegrees>
            </Position>
            <AltitudeMeters>1792.199951171875</AltitudeMeters>
            <DistanceMeters>NAN</DistanceMeters>
          </Trackpoint>
          <Trackpoint>
            <Time>2021-07-18T10:55:40.000Z</Time>
            <Position>
              <LatitudeDegrees>42.7171160839498043060302734375</LatitudeDegrees>
              <LongitudeDegrees>-0.22378784604370594024658203125</LongitudeDegrees>
            </Position>
            <AltitudeMeters>1792.4000244140625</AltitudeMeters>
            <DistanceMeters>NAN</DistanceMeters>
          </Trackpoint>
          <Trackpoint>
            <Time>2021-07-18T10:55:47.000Z</Time>
            <Position>
              <LatitudeDegrees>42.71712253801524639129638671875</LatitudeDegrees>
              <LongitudeDegrees>-0.22382003255188465118408203125</LongitudeDegrees>
            </Position>
            <AltitudeMeters>1792.4000244140625</AltitudeMeters>
            <DistanceMeters>NAN</DistanceMeters>
          </Trackpoint>
          <Trackpoint>
            <Time>2021-07-18T10:55:56.000Z</Time>
            <Position>
              <LatitudeDegrees>42.71711717359721660614013671875</LatitudeDegrees>
              <LongitudeDegrees>-0.2239103056490421295166015625</LongitudeDegrees>
            </Position>
            <AltitudeMeters>1793.199951171875</AltitudeMeters>
            <DistanceMeters>NAN</DistanceMeters>
          </Trackpoint>
          <Trackpoint>
            <Time>2021-07-18T10:55:58.000Z</Time>
            <Position>
              <LatitudeDegrees>42.71711449138820171356201171875</LatitudeDegrees>
              <LongitudeDegrees>-0.22393519990146160125732421875</LongitudeDegrees>
            </Position>
            <AltitudeMeters>1793.5999755859375</AltitudeMeters>
            <DistanceMeters>NAN</DistanceMeters>
          </Trackpoint>
          <Trackpoint>
            <Time>2021-07-18T10:56:00.000Z</Time>
            <Position>
              <LatitudeDegrees>42.71711180917918682098388671875</LatitudeDegrees>
              <LongitudeDegrees>-0.223961435258388519287109375</LongitudeDegrees>
            </Position>
            <AltitudeMeters>1793.800048828125</AltitudeMeters>
            <DistanceMeters>NAN</DistanceMeters>
          </Trackpoint>
          <Trackpoint>
            <Time>2021-07-18T10:56:06.000Z</Time>
            <Position>
              <LatitudeDegrees>42.7170942910015583038330078125</LatitudeDegrees>
              <LongitudeDegrees>-0.224042236804962158203125</LongitudeDegrees>
            </Position>
            <AltitudeMeters>1795</AltitudeMeters>
            <DistanceMeters>NAN</DistanceMeters>
          </Trackpoint>
          <Trackpoint>
            <Time>2021-07-18T10:56:10.000Z</Time>
            <Position>
              <LatitudeDegrees>42.7170815505087375640869140625</LatitudeDegrees>
              <LongitudeDegrees>-0.2240784466266632080078125</LongitudeDegrees>
            </Position>
            <AltitudeMeters>1795.5999755859375</AltitudeMeters>
            <DistanceMeters>NAN</DistanceMeters>
          </Trackpoint>
          <Trackpoint>
            <Time>2021-07-18T10:56:11.000Z</Time>
            <Position>
              <LatitudeDegrees>42.7170815505087375640869140625</LatitudeDegrees>
              <LongitudeDegrees>-0.22408640943467617034912109375</LongitudeDegrees>
            </Position>
            <AltitudeMeters>1795.5999755859375</AltitudeMeters>
            <DistanceMeters>NAN</DistanceMeters>
          </Trackpoint>
          <Trackpoint>
            <Time>2021-07-18T10:56:15.000Z</Time>
            <Position>
              <LatitudeDegrees>42.71709571592509746551513671875</LatitudeDegrees>
              <LongitudeDegrees>-0.22411641664803028106689453125</LongitudeDegrees>
            </Position>
            <AltitudeMeters>1795</AltitudeMeters>
            <DistanceMeters>NAN</DistanceMeters>
          </Trackpoint>
          <Trackpoint>
            <Time>2021-07-18T10:56:20.000Z</Time>
            <Position>
              <LatitudeDegrees>42.71711432375013828277587890625</LatitudeDegrees>
              <LongitudeDegrees>-0.22417039610445499420166015625</LongitudeDegrees>
            </Position>
            <AltitudeMeters>1794</AltitudeMeters>
            <DistanceMeters>NAN</DistanceMeters>
          </Trackpoint>
          <Trackpoint>
            <Time>2021-07-18T10:56:24.000Z</Time>
            <Position>
              <LatitudeDegrees>42.7171249687671661376953125</LatitudeDegrees>
              <LongitudeDegrees>-0.224235020577907562255859375</LongitudeDegrees>
            </Position>
            <AltitudeMeters>1793.199951171875</AltitudeMeters>
            <DistanceMeters>NAN</DistanceMeters>
          </Trackpoint>
          <Trackpoint>
            <Time>2021-07-18T10:56:29.000Z</Time>
            <Position>
              <LatitudeDegrees>42.7171504497528076171875</LatitudeDegrees>
              <LongitudeDegrees>-0.22430333308875560760498046875</LongitudeDegrees>
            </Position>
            <AltitudeMeters>1792</AltitudeMeters>
            <DistanceMeters>NAN</DistanceMeters>
          </Trackpoint>
          <Trackpoint>
            <Time>2021-07-18T10:56:34.000Z</Time>
            <Position>
              <LatitudeDegrees>42.7171646989881992340087890625</LatitudeDegrees>
              <LongitudeDegrees>-0.22437742911279201507568359375</LongitudeDegrees>
            </Position>
            <AltitudeMeters>1791</AltitudeMeters>
            <DistanceMeters>NAN</DistanceMeters>
          </Trackpoint>
          <Trackpoint>
            <Time>2021-07-18T10:56:35.000Z</Time>
            <Position>
              <LatitudeDegrees>42.7171678841114044189453125</LatitudeDegrees>
              <LongitudeDegrees>-0.22439167834818363189697265625</LongitudeDegrees>
            </Position>
            <AltitudeMeters>1790.5999755859375</AltitudeMeters>
            <DistanceMeters>NAN</DistanceMeters>
          </Trackpoint>
          <Trackpoint>
            <Time>2021-07-18T10:56:43.000Z</Time>
            <Position>
              <LatitudeDegrees>42.71722597070038318634033203125</LatitudeDegrees>
              <LongitudeDegrees>-0.2244987152516841888427734375</LongitudeDegrees>
            </Position>
            <AltitudeMeters>1787.199951171875</AltitudeMeters>
            <DistanceMeters>NAN</DistanceMeters>
          </Trackpoint>
          <Trackpoint>
            <Time>2021-07-18T10:56:45.000Z</Time>
            <Position>
              <LatitudeDegrees>42.71724105812609195709228515625</LatitudeDegrees>
              <LongitudeDegrees>-0.22452394478023052215576171875</LongitudeDegrees>
            </Position>
            <AltitudeMeters>1786.5999755859375</AltitudeMeters>
            <DistanceMeters>NAN</DistanceMeters>
          </Trackpoint>
          <Trackpoint>
            <Time>2021-07-18T10:56:56.000Z</Time>
            <Position>
              <LatitudeDegrees>42.7173249609768390655517578125</LatitudeDegrees>
              <LongitudeDegrees>-0.224648751318454742431640625</LongitudeDegrees>
            </Position>
            <AltitudeMeters>1784.4000244140625</AltitudeMeters>
            <DistanceMeters>NAN</DistanceMeters>
          </Trackpoint>
          <Trackpoint>
            <Time>2021-07-18T10:57:01.000Z</Time>
            <Position>
              <LatitudeDegrees>42.7173625119030475616455078125</LatitudeDegrees>
              <LongitudeDegrees>-0.22469175048172473907470703125</LongitudeDegrees>
            </Position>
            <AltitudeMeters>1784</AltitudeMeters>
            <DistanceMeters>NAN</DistanceMeters>
          </Trackpoint>
          <Trackpoint>
            <Time>2021-07-18T10:57:07.000Z</Time>
            <Position>
              <LatitudeDegrees>42.71741322241723537445068359375</LatitudeDegrees>
              <LongitudeDegrees>-0.224759392440319061279296875</LongitudeDegrees>
            </Position>
            <AltitudeMeters>1783.5999755859375</AltitudeMeters>
            <DistanceMeters>NAN</DistanceMeters>
          </Trackpoint>
          <Trackpoint>
            <Time>2021-07-18T10:57:19.000Z</Time>
            <Position>
              <LatitudeDegrees>42.71750458516180515289306640625</LatitudeDegrees>
              <LongitudeDegrees>-0.22489492781460285186767578125</LongitudeDegrees>
            </Position>
            <AltitudeMeters>1785.4000244140625</AltitudeMeters>
            <DistanceMeters>NAN</DistanceMeters>
          </Trackpoint>
          <Trackpoint>
            <Time>2021-07-18T10:57:28.000Z</Time>
            <Position>
              <LatitudeDegrees>42.7175656892359256744384765625</LatitudeDegrees>
              <LongitudeDegrees>-0.22497740574181079864501953125</LongitudeDegrees>
            </Position>
            <AltitudeMeters>1785.800048828125</AltitudeMeters>
            <DistanceMeters>NAN</DistanceMeters>
          </Trackpoint>
          <Trackpoint>
            <Time>2021-07-18T10:57:31.000Z</Time>
            <Position>
              <LatitudeDegrees>42.7175831235945224761962890625</LatitudeDegrees>
              <LongitudeDegrees>-0.22499375045299530029296875</LongitudeDegrees>
            </Position>
            <AltitudeMeters>1785.800048828125</AltitudeMeters>
            <DistanceMeters>NAN</DistanceMeters>
          </Trackpoint>
          <Trackpoint>
            <Time>2021-07-18T10:57:34.000Z</Time>
            <Position>
              <LatitudeDegrees>42.71758505143225193023681640625</LatitudeDegrees>
              <LongitudeDegrees>-0.22500556893646717071533203125</LongitudeDegrees>
            </Position>
            <AltitudeMeters>1785.800048828125</AltitudeMeters>
            <DistanceMeters>NAN</DistanceMeters>
          </Trackpoint>
          <Trackpoint>
            <Time>2021-07-18T10:57:36.000Z</Time>
            <Position>
              <LatitudeDegrees>42.71758027374744415283203125</LatitudeDegrees>
              <LongitudeDegrees>-0.22500791586935520172119140625</LongitudeDegrees>
            </Position>
            <AltitudeMeters>1785.800048828125</AltitudeMeters>
            <DistanceMeters>NAN</DistanceMeters>
          </Trackpoint>
          <Trackpoint>
            <Time>2021-07-18T10:57:41.000Z</Time>
            <Position>
              <LatitudeDegrees>42.717566192150115966796875</LatitudeDegrees>
              <LongitudeDegrees>-0.22502317093312740325927734375</LongitudeDegrees>
            </Position>
            <AltitudeMeters>1785.5999755859375</AltitudeMeters>
            <DistanceMeters>NAN</DistanceMeters>
          </Trackpoint>
          <Trackpoint>
            <Time>2021-07-18T10:57:48.000Z</Time>
            <Position>
              <LatitudeDegrees>42.7175509370863437652587890625</LatitudeDegrees>
              <LongitudeDegrees>-0.22508251480758190155029296875</LongitudeDegrees>
            </Position>
            <AltitudeMeters>1785.4000244140625</AltitudeMeters>
            <DistanceMeters>NAN</DistanceMeters>
          </Trackpoint>
          <Trackpoint>
            <Time>2021-07-18T10:57:54.000Z</Time>
            <Position>
              <LatitudeDegrees>42.71754138171672821044921875</LatitudeDegrees>
              <LongitudeDegrees>-0.22513666190207004547119140625</LongitudeDegrees>
            </Position>
            <AltitudeMeters>1785.199951171875</AltitudeMeters>
            <DistanceMeters>NAN</DistanceMeters>
          </Trackpoint>
          <Trackpoint>
            <Time>2021-07-18T10:57:55.000Z</Time>
            <Position>
              <LatitudeDegrees>42.717535682022571563720703125</LatitudeDegrees>
              <LongitudeDegrees>-0.22513884119689464569091796875</LongitudeDegrees>
            </Position>
            <AltitudeMeters>1785.199951171875</AltitudeMeters>
            <DistanceMeters>NAN</DistanceMeters>
          </Trackpoint>
          <Trackpoint>
            <Time>2021-07-18T10:58:01.000Z</Time>
            <Position>
              <LatitudeDegrees>42.717513553798198699951171875</LatitudeDegrees>
              <LongitudeDegrees>-0.22514797747135162353515625</LongitudeDegrees>
            </Position>
            <AltitudeMeters>1785</AltitudeMeters>
            <DistanceMeters>NAN</DistanceMeters>
          </Trackpoint>
          <Trackpoint>
            <Time>2021-07-18T10:58:08.000Z</Time>
            <Position>
              <LatitudeDegrees>42.717512547969818115234375</LatitudeDegrees>
              <LongitudeDegrees>-0.22514554671943187713623046875</LongitudeDegrees>
            </Position>
            <AltitudeMeters>1785</AltitudeMeters>
            <DistanceMeters>NAN</DistanceMeters>
          </Trackpoint>
          <Trackpoint>
            <Time>2021-07-18T10:58:19.000Z</Time>
            <Position>
              <LatitudeDegrees>42.71751078777015209197998046875</LatitudeDegrees>
              <LongitudeDegrees>-0.22515292279422283172607421875</LongitudeDegrees>
            </Position>
            <AltitudeMeters>1785</AltitudeMeters>
            <DistanceMeters>NAN</DistanceMeters>
          </Trackpoint>
          <Trackpoint>
            <Time>2021-07-18T10:58:29.000Z</Time>
            <Position>
              <LatitudeDegrees>42.717503495514392852783203125</LatitudeDegrees>
              <LongitudeDegrees>-0.22515107877552509307861328125</LongitudeDegrees>
            </Position>
            <AltitudeMeters>1785</AltitudeMeters>
            <DistanceMeters>NAN</DistanceMeters>
          </Trackpoint>
          <Trackpoint>
            <Time>2021-07-18T10:58:34.000Z</Time>
            <Position>
              <LatitudeDegrees>42.71748245693743228912353515625</LatitudeDegrees>
              <LongitudeDegrees>-0.225152671337127685546875</LongitudeDegrees>
            </Position>
            <AltitudeMeters>1784.800048828125</AltitudeMeters>
            <DistanceMeters>NAN</DistanceMeters>
          </Trackpoint>
          <Trackpoint>
            <Time>2021-07-18T10:58:49.000Z</Time>
            <Position>
              <LatitudeDegrees>42.71746418438851833343505859375</LatitudeDegrees>
              <LongitudeDegrees>-0.22522483952343463897705078125</LongitudeDegrees>
            </Position>
            <AltitudeMeters>1784.199951171875</AltitudeMeters>
            <DistanceMeters>NAN</DistanceMeters>
          </Trackpoint>
          <Trackpoint>
            <Time>2021-07-18T10:59:08.000Z</Time>
            <Position>
              <LatitudeDegrees>42.71748103201389312744140625</LatitudeDegrees>
              <LongitudeDegrees>-0.2253291942179203033447265625</LongitudeDegrees>
            </Position>
            <AltitudeMeters>1781.199951171875</AltitudeMeters>
            <DistanceMeters>NAN</DistanceMeters>
          </Trackpoint>
          <Trackpoint>
            <Time>2021-07-18T10:59:32.000Z</Time>
            <Position>
              <LatitudeDegrees>42.7174909226596355438232421875</LatitudeDegrees>
              <LongitudeDegrees>-0.22542734630405902862548828125</LongitudeDegrees>
            </Position>
            <AltitudeMeters>1777.5999755859375</AltitudeMeters>
            <DistanceMeters>NAN</DistanceMeters>
          </Trackpoint>
          <Trackpoint>
            <Time>2021-07-18T10:59:42.000Z</Time>
            <Position>
              <LatitudeDegrees>42.7175036631524562835693359375</LatitudeDegrees>
              <LongitudeDegrees>-0.22545618005096912384033203125</LongitudeDegrees>
            </Position>
            <AltitudeMeters>1776.4000244140625</AltitudeMeters>
            <DistanceMeters>NAN</DistanceMeters>
          </Trackpoint>
          <Trackpoint>
            <Time>2021-07-18T10:59:53.000Z</Time>
            <Position>
              <LatitudeDegrees>42.71750207059085369110107421875</LatitudeDegrees>
              <LongitudeDegrees>-0.22549356333911418914794921875</LongitudeDegrees>
            </Position>
            <AltitudeMeters>1775</AltitudeMeters>
            <DistanceMeters>NAN</DistanceMeters>
          </Trackpoint>
          <Trackpoint>
            <Time>2021-07-18T11:00:33.000Z</Time>
            <Position>
              <LatitudeDegrees>42.71745127625763416290283203125</LatitudeDegrees>
              <LongitudeDegrees>-0.2255913801491260528564453125</LongitudeDegrees>
            </Position>
            <AltitudeMeters>1771.4000244140625</AltitudeMeters>
            <DistanceMeters>NAN</DistanceMeters>
          </Trackpoint>
          <Trackpoint>
            <Time>2021-07-18T11:00:35.000Z</Time>
            <Position>
              <LatitudeDegrees>42.717449180781841278076171875</LatitudeDegrees>
              <LongitudeDegrees>-0.22560085169970989227294921875</LongitudeDegrees>
            </Position>
            <AltitudeMeters>1771.199951171875</AltitudeMeters>
            <DistanceMeters>NAN</DistanceMeters>
          </Trackpoint>
          <Trackpoint>
            <Time>2021-07-18T11:01:03.000Z</Time>
            <Position>
              <LatitudeDegrees>42.71737483330070972442626953125</LatitudeDegrees>
              <LongitudeDegrees>-0.225692130625247955322265625</LongitudeDegrees>
            </Position>
            <AltitudeMeters>1768.199951171875</AltitudeMeters>
            <DistanceMeters>NAN</DistanceMeters>
          </Trackpoint>
          <Trackpoint>
            <Time>2021-07-18T11:01:18.000Z</Time>
            <Position>
              <LatitudeDegrees>42.71734298206865787506103515625</LatitudeDegrees>
              <LongitudeDegrees>-0.22574183531105518341064453125</LongitudeDegrees>
            </Position>
            <AltitudeMeters>1766.5999755859375</AltitudeMeters>
            <DistanceMeters>NAN</DistanceMeters>
          </Trackpoint>
          <Trackpoint>
            <Time>2021-07-18T11:01:21.000Z</Time>
            <Position>
              <LatitudeDegrees>42.71731113083660602569580078125</LatitudeDegrees>
              <LongitudeDegrees>-0.22578324191272258758544921875</LongitudeDegrees>
            </Position>
            <AltitudeMeters>1765.4000244140625</AltitudeMeters>
            <DistanceMeters>NAN</DistanceMeters>
          </Trackpoint>
          <Trackpoint>
            <Time>2021-07-18T11:01:28.000Z</Time>
            <Position>
              <LatitudeDegrees>42.71724767982959747314453125</LatitudeDegrees>
              <LongitudeDegrees>-0.2258126623928546905517578125</LongitudeDegrees>
            </Position>
            <AltitudeMeters>1765.4000244140625</AltitudeMeters>
            <DistanceMeters>NAN</DistanceMeters>
          </Trackpoint>
          <Trackpoint>
            <Time>2021-07-18T11:01:30.000Z</Time>
            <Position>
              <LatitudeDegrees>42.71724256686866283416748046875</LatitudeDegrees>
              <LongitudeDegrees>-0.2258116565644741058349609375</LongitudeDegrees>
            </Position>
            <AltitudeMeters>1765.4000244140625</AltitudeMeters>
            <DistanceMeters>NAN</DistanceMeters>
          </Trackpoint>
          <Trackpoint>
            <Time>2021-07-18T11:01:36.000Z</Time>
            <Position>
              <LatitudeDegrees>42.71719965152442455291748046875</LatitudeDegrees>
              <LongitudeDegrees>-0.22581760771572589874267578125</LongitudeDegrees>
            </Position>
            <AltitudeMeters>1766.5999755859375</AltitudeMeters>
            <DistanceMeters>NAN</DistanceMeters>
          </Trackpoint>
          <Trackpoint>
            <Time>2021-07-18T11:01:37.000Z</Time>
            <Position>
              <LatitudeDegrees>42.71719143725931644439697265625</LatitudeDegrees>
              <LongitudeDegrees>-0.22582481615245342254638671875</LongitudeDegrees>
            </Position>
            <AltitudeMeters>1766.5999755859375</AltitudeMeters>
            <DistanceMeters>NAN</DistanceMeters>
          </Trackpoint>
          <Trackpoint>
            <Time>2021-07-18T11:01:47.000Z</Time>
            <Position>
              <LatitudeDegrees>42.7171419002115726470947265625</LatitudeDegrees>
              <LongitudeDegrees>-0.22589036263525485992431640625</LongitudeDegrees>
            </Position>
            <AltitudeMeters>1765.800048828125</AltitudeMeters>
            <DistanceMeters>NAN</DistanceMeters>
          </Trackpoint>
          <Trackpoint>
            <Time>2021-07-18T11:01:51.000Z</Time>
            <Position>
              <LatitudeDegrees>42.7171194367110729217529296875</LatitudeDegrees>
              <LongitudeDegrees>-0.225895978510379791259765625</LongitudeDegrees>
            </Position>
            <AltitudeMeters>1766.199951171875</AltitudeMeters>
            <DistanceMeters>NAN</DistanceMeters>
          </Trackpoint>
          <Trackpoint>
            <Time>2021-07-18T11:01:54.000Z</Time>
            <Position>
              <LatitudeDegrees>42.717099823057651519775390625</LatitudeDegrees>
              <LongitudeDegrees>-0.22590109147131443023681640625</LongitudeDegrees>
            </Position>
            <AltitudeMeters>1766.800048828125</AltitudeMeters>
            <DistanceMeters>NAN</DistanceMeters>
          </Trackpoint>
          <Trackpoint>
            <Time>2021-07-18T11:01:59.000Z</Time>
            <Position>
              <LatitudeDegrees>42.71708079613745212554931640625</LatitudeDegrees>
              <LongitudeDegrees>-0.2259474433958530426025390625</LongitudeDegrees>
            </Position>
            <AltitudeMeters>1765.5999755859375</AltitudeMeters>
            <DistanceMeters>NAN</DistanceMeters>
          </Trackpoint>
          <Trackpoint>
            <Time>2021-07-18T11:02:00.000Z</Time>
            <Position>
              <LatitudeDegrees>42.7170822210609912872314453125</LatitudeDegrees>
              <LongitudeDegrees>-0.22595339454710483551025390625</LongitudeDegrees>
            </Position>
            <AltitudeMeters>1765.4000244140625</AltitudeMeters>
            <DistanceMeters>NAN</DistanceMeters>
          </Trackpoint>
          <Trackpoint>
            <Time>2021-07-18T11:02:05.000Z</Time>
            <Position>
              <LatitudeDegrees>42.717072665691375732421875</LatitudeDegrees>
              <LongitudeDegrees>-0.22599698044359683990478515625</LongitudeDegrees>
            </Position>
            <AltitudeMeters>1764.4000244140625</AltitudeMeters>
            <DistanceMeters>NAN</DistanceMeters>
          </Trackpoint>
          <Trackpoint>
            <Time>2021-07-18T11:02:08.000Z</Time>
            <Position>
              <LatitudeDegrees>42.71706554107367992401123046875</LatitudeDegrees>
              <LongitudeDegrees>-0.22603821940720081329345703125</LongitudeDegrees>
            </Position>
            <AltitudeMeters>1763.5999755859375</AltitudeMeters>
            <DistanceMeters>NAN</DistanceMeters>
          </Trackpoint>
          <Trackpoint>
            <Time>2021-07-18T11:02:09.000Z</Time>
            <Position>
              <LatitudeDegrees>42.7170604281127452850341796875</LatitudeDegrees>
              <LongitudeDegrees>-0.2260554023087024688720703125</LongitudeDegrees>
            </Position>
            <AltitudeMeters>1762.5999755859375</AltitudeMeters>
            <DistanceMeters>NAN</DistanceMeters>
          </Trackpoint>
          <Trackpoint>
            <Time>2021-07-18T11:02:16.000Z</Time>
            <Position>
              <LatitudeDegrees>42.71707157604396343231201171875</LatitudeDegrees>
              <LongitudeDegrees>-0.2261412329971790313720703125</LongitudeDegrees>
            </Position>
            <AltitudeMeters>1757.4000244140625</AltitudeMeters>
            <DistanceMeters>NAN</DistanceMeters>
          </Trackpoint>
          <Trackpoint>
            <Time>2021-07-18T11:02:17.000Z</Time>
            <Position>
              <LatitudeDegrees>42.71706797182559967041015625</LatitudeDegrees>
              <LongitudeDegrees>-0.22615053690969944000244140625</LongitudeDegrees>
            </Position>
            <AltitudeMeters>1757</AltitudeMeters>
            <DistanceMeters>NAN</DistanceMeters>
          </Trackpoint>
          <Trackpoint>
            <Time>2021-07-18T11:02:23.000Z</Time>
            <Position>
              <LatitudeDegrees>42.7170617692172527313232421875</LatitudeDegrees>
              <LongitudeDegrees>-0.22621457464993000030517578125</LongitudeDegrees>
            </Position>
            <AltitudeMeters>1753.4000244140625</AltitudeMeters>
            <DistanceMeters>NAN</DistanceMeters>
          </Trackpoint>
          <Trackpoint>
            <Time>2021-07-18T11:02:31.000Z</Time>
            <Position>
              <LatitudeDegrees>42.71705414168536663055419921875</LatitudeDegrees>
              <LongitudeDegrees>-0.22630409337580204010009765625</LongitudeDegrees>
            </Position>
            <AltitudeMeters>1748.800048828125</AltitudeMeters>
            <DistanceMeters>NAN</DistanceMeters>
          </Trackpoint>
          <Trackpoint>
            <Time>2021-07-18T11:02:37.000Z</Time>
            <Position>
              <LatitudeDegrees>42.71703368984162807464599609375</LatitudeDegrees>
              <LongitudeDegrees>-0.2263717353343963623046875</LongitudeDegrees>
            </Position>
            <AltitudeMeters>1747.5999755859375</AltitudeMeters>
            <DistanceMeters>NAN</DistanceMeters>
          </Trackpoint>
          <Trackpoint>
            <Time>2021-07-18T11:02:47.000Z</Time>
            <Position>
              <LatitudeDegrees>42.717007957398891448974609375</LatitudeDegrees>
              <LongitudeDegrees>-0.2264657802879810333251953125</LongitudeDegrees>
            </Position>
            <AltitudeMeters>1746.199951171875</AltitudeMeters>
            <DistanceMeters>NAN</DistanceMeters>
          </Trackpoint>
          <Trackpoint>
            <Time>2021-07-18T11:02:50.000Z</Time>
            <Position>
              <LatitudeDegrees>42.71700100041925907135009765625</LatitudeDegrees>
              <LongitudeDegrees>-0.22649620659649372100830078125</LongitudeDegrees>
            </Position>
            <AltitudeMeters>1745.800048828125</AltitudeMeters>
            <DistanceMeters>NAN</DistanceMeters>
          </Trackpoint>
          <Trackpoint>
            <Time>2021-07-18T11:02:53.000Z</Time>
            <Position>
              <LatitudeDegrees>42.7169997431337833404541015625</LatitudeDegrees>
              <LongitudeDegrees>-0.22651322185993194580078125</LongitudeDegrees>
            </Position>
            <AltitudeMeters>1745.5999755859375</AltitudeMeters>
            <DistanceMeters>NAN</DistanceMeters>
          </Trackpoint>
          <Trackpoint>
            <Time>2021-07-18T11:02:57.000Z</Time>
            <Position>
              <LatitudeDegrees>42.7169863320887088775634765625</LatitudeDegrees>
              <LongitudeDegrees>-0.22655672393739223480224609375</LongitudeDegrees>
            </Position>
            <AltitudeMeters>1745.199951171875</AltitudeMeters>
            <DistanceMeters>NAN</DistanceMeters>
          </Trackpoint>
          <Trackpoint>
            <Time>2021-07-18T11:03:00.000Z</Time>
            <Position>
              <LatitudeDegrees>42.71696696989238262176513671875</LatitudeDegrees>
              <LongitudeDegrees>-0.22658606059849262237548828125</LongitudeDegrees>
            </Position>
            <AltitudeMeters>1745.4000244140625</AltitudeMeters>
            <DistanceMeters>NAN</DistanceMeters>
          </Trackpoint>
          <Trackpoint>
            <Time>2021-07-18T11:03:08.000Z</Time>
            <Position>
              <LatitudeDegrees>42.7169559895992279052734375</LatitudeDegrees>
              <LongitudeDegrees>-0.22665395401418209075927734375</LongitudeDegrees>
            </Position>
            <AltitudeMeters>1745.199951171875</AltitudeMeters>
            <DistanceMeters>NAN</DistanceMeters>
          </Trackpoint>
          <Trackpoint>
            <Time>2021-07-18T11:03:11.000Z</Time>
            <Position>
              <LatitudeDegrees>42.71696261130273342132568359375</LatitudeDegrees>
              <LongitudeDegrees>-0.22668463177978992462158203125</LongitudeDegrees>
            </Position>
            <AltitudeMeters>1744.800048828125</AltitudeMeters>
            <DistanceMeters>NAN</DistanceMeters>
          </Trackpoint>
          <Trackpoint>
            <Time>2021-07-18T11:03:14.000Z</Time>
            <Position>
              <LatitudeDegrees>42.71695255301892757415771484375</LatitudeDegrees>
              <LongitudeDegrees>-0.22669150494039058685302734375</LongitudeDegrees>
            </Position>
            <AltitudeMeters>1745.199951171875</AltitudeMeters>
            <DistanceMeters>NAN</DistanceMeters>
          </Trackpoint>
          <Trackpoint>
            <Time>2021-07-18T11:03:15.000Z</Time>
            <Position>
              <LatitudeDegrees>42.7169544808566570281982421875</LatitudeDegrees>
              <LongitudeDegrees>-0.22669619880616664886474609375</LongitudeDegrees>
            </Position>
            <AltitudeMeters>1745</AltitudeMeters>
            <DistanceMeters>NAN</DistanceMeters>
          </Trackpoint>
          <Trackpoint>
            <Time>2021-07-18T11:03:17.000Z</Time>
            <Position>
              <LatitudeDegrees>42.71695666015148162841796875</LatitudeDegrees>
              <LongitudeDegrees>-0.22669871337711811065673828125</LongitudeDegrees>
            </Position>
            <AltitudeMeters>1745</AltitudeMeters>
            <DistanceMeters>NAN</DistanceMeters>
          </Trackpoint>
          <Trackpoint>
            <Time>2021-07-18T11:03:27.000Z</Time>
            <Position>
              <LatitudeDegrees>42.716970741748809814453125</LatitudeDegrees>
              <LongitudeDegrees>-0.22673316299915313720703125</LongitudeDegrees>
            </Position>
            <AltitudeMeters>1744.4000244140625</AltitudeMeters>
            <DistanceMeters>NAN</DistanceMeters>
          </Trackpoint>
          <Trackpoint>
            <Time>2021-07-18T11:03:34.000Z</Time>
            <Position>
              <LatitudeDegrees>42.7169694006443023681640625</LatitudeDegrees>
              <LongitudeDegrees>-0.22676643915474414825439453125</LongitudeDegrees>
            </Position>
            <AltitudeMeters>1744.4000244140625</AltitudeMeters>
            <DistanceMeters>NAN</DistanceMeters>
          </Trackpoint>
          <Trackpoint>
            <Time>2021-07-18T11:03:41.000Z</Time>
            <Position>
              <LatitudeDegrees>42.71696797572076320648193359375</LatitudeDegrees>
              <LongitudeDegrees>-0.22681220434606075286865234375</LongitudeDegrees>
            </Position>
            <AltitudeMeters>1744.199951171875</AltitudeMeters>
            <DistanceMeters>NAN</DistanceMeters>
          </Trackpoint>
          <Trackpoint>
            <Time>2021-07-18T11:03:47.000Z</Time>
            <Position>
              <LatitudeDegrees>42.71694618277251720428466796875</LatitudeDegrees>
              <LongitudeDegrees>-0.22684858180582523345947265625</LongitudeDegrees>
            </Position>
            <AltitudeMeters>1744.800048828125</AltitudeMeters>
            <DistanceMeters>NAN</DistanceMeters>
          </Trackpoint>
          <Trackpoint>
            <Time>2021-07-18T11:03:49.000Z</Time>
            <Position>
              <LatitudeDegrees>42.716939561069011688232421875</LatitudeDegrees>
              <LongitudeDegrees>-0.226865597069263458251953125</LongitudeDegrees>
            </Position>
            <AltitudeMeters>1744.800048828125</AltitudeMeters>
            <DistanceMeters>NAN</DistanceMeters>
          </Trackpoint>
          <Trackpoint>
            <Time>2021-07-18T11:03:56.000Z</Time>
            <Position>
              <LatitudeDegrees>42.71689890883862972259521484375</LatitudeDegrees>
              <LongitudeDegrees>-0.226911865174770355224609375</LongitudeDegrees>
            </Position>
            <AltitudeMeters>1745.5999755859375</AltitudeMeters>
            <DistanceMeters>NAN</DistanceMeters>
          </Trackpoint>
          <Trackpoint>
            <Time>2021-07-18T11:04:01.000Z</Time>
            <Position>
              <LatitudeDegrees>42.7168857492506504058837890625</LatitudeDegrees>
              <LongitudeDegrees>-0.22693441249430179595947265625</LongitudeDegrees>
            </Position>
            <AltitudeMeters>1745.800048828125</AltitudeMeters>
            <DistanceMeters>NAN</DistanceMeters>
          </Trackpoint>
          <Trackpoint>
            <Time>2021-07-18T11:04:05.000Z</Time>
            <Position>
              <LatitudeDegrees>42.71686756052076816558837890625</LatitudeDegrees>
              <LongitudeDegrees>-0.2269583009183406829833984375</LongitudeDegrees>
            </Position>
            <AltitudeMeters>1746</AltitudeMeters>
            <DistanceMeters>NAN</DistanceMeters>
          </Trackpoint>
          <Trackpoint>
            <Time>2021-07-18T11:04:12.000Z</Time>
            <Position>
              <LatitudeDegrees>42.71686068736016750335693359375</LatitudeDegrees>
              <LongitudeDegrees>-0.22697732783854007720947265625</LongitudeDegrees>
            </Position>
            <AltitudeMeters>1746</AltitudeMeters>
            <DistanceMeters>NAN</DistanceMeters>
          </Trackpoint>
          <Trackpoint>
            <Time>2021-07-18T11:04:20.000Z</Time>
            <Position>
              <LatitudeDegrees>42.71684995852410793304443359375</LatitudeDegrees>
              <LongitudeDegrees>-0.22701756097376346588134765625</LongitudeDegrees>
            </Position>
            <AltitudeMeters>1745.800048828125</AltitudeMeters>
            <DistanceMeters>NAN</DistanceMeters>
          </Trackpoint>
          <Trackpoint>
            <Time>2021-07-18T11:04:29.000Z</Time>
            <Position>
              <LatitudeDegrees>42.716828919947147369384765625</LatitudeDegrees>
              <LongitudeDegrees>-0.2271061576902866363525390625</LongitudeDegrees>
            </Position>
            <AltitudeMeters>1744.5999755859375</AltitudeMeters>
            <DistanceMeters>NAN</DistanceMeters>
          </Trackpoint>
          <Trackpoint>
            <Time>2021-07-18T11:04:36.000Z</Time>
            <Position>
              <LatitudeDegrees>42.71683202125132083892822265625</LatitudeDegrees>
              <LongitudeDegrees>-0.22711110301315784454345703125</LongitudeDegrees>
            </Position>
            <AltitudeMeters>1744.4000244140625</AltitudeMeters>
            <DistanceMeters>NAN</DistanceMeters>
          </Trackpoint>
          <Trackpoint>
            <Time>2021-07-18T11:04:47.000Z</Time>
            <Position>
              <LatitudeDegrees>42.71683068014681339263916015625</LatitudeDegrees>
              <LongitudeDegrees>-0.2271554432809352874755859375</LongitudeDegrees>
            </Position>
            <AltitudeMeters>1743.4000244140625</AltitudeMeters>
            <DistanceMeters>NAN</DistanceMeters>
          </Trackpoint>
          <Trackpoint>
            <Time>2021-07-18T11:04:55.000Z</Time>
            <Position>
              <LatitudeDegrees>42.71683537401258945465087890625</LatitudeDegrees>
              <LongitudeDegrees>-0.22719542495906352996826171875</LongitudeDegrees>
            </Position>
            <AltitudeMeters>1742.4000244140625</AltitudeMeters>
            <DistanceMeters>NAN</DistanceMeters>
          </Trackpoint>
          <Trackpoint>
            <Time>2021-07-18T11:04:56.000Z</Time>
            <Position>
              <LatitudeDegrees>42.71683596074581146240234375</LatitudeDegrees>
              <LongitudeDegrees>-0.227201543748378753662109375</LongitudeDegrees>
            </Position>
            <AltitudeMeters>1742.199951171875</AltitudeMeters>
            <DistanceMeters>NAN</DistanceMeters>
          </Trackpoint>
          <Trackpoint>
            <Time>2021-07-18T11:05:04.000Z</Time>
            <Position>
              <LatitudeDegrees>42.7168465219438076019287109375</LatitudeDegrees>
              <LongitudeDegrees>-0.22725678049027919769287109375</LongitudeDegrees>
            </Position>
            <AltitudeMeters>1740.800048828125</AltitudeMeters>
            <DistanceMeters>NAN</DistanceMeters>
          </Trackpoint>
          <Trackpoint>
            <Time>2021-07-18T11:05:06.000Z</Time>
            <Position>
              <LatitudeDegrees>42.716849036514759063720703125</LatitudeDegrees>
              <LongitudeDegrees>-0.2272697724401950836181640625</LongitudeDegrees>
            </Position>
            <AltitudeMeters>1740.5999755859375</AltitudeMeters>
            <DistanceMeters>NAN</DistanceMeters>
          </Trackpoint>
          <Trackpoint>
            <Time>2021-07-18T11:05:15.000Z</Time>
            <Position>
              <LatitudeDegrees>42.71687426604330539703369140625</LatitudeDegrees>
              <LongitudeDegrees>-0.2273131906986236572265625</LongitudeDegrees>
            </Position>
            <AltitudeMeters>1738.199951171875</AltitudeMeters>
            <DistanceMeters>NAN</DistanceMeters>
          </Trackpoint>
          <Trackpoint>
            <Time>2021-07-18T11:05:22.000Z</Time>
            <Position>
              <LatitudeDegrees>42.71688650362193584442138671875</LatitudeDegrees>
              <LongitudeDegrees>-0.22736172191798686981201171875</LongitudeDegrees>
            </Position>
            <AltitudeMeters>1736.199951171875</AltitudeMeters>
            <DistanceMeters>NAN</DistanceMeters>
          </Trackpoint>
          <Trackpoint>
            <Time>2021-07-18T11:05:26.000Z</Time>
            <Position>
              <LatitudeDegrees>42.71689874120056629180908203125</LatitudeDegrees>
              <LongitudeDegrees>-0.2273909747600555419921875</LongitudeDegrees>
            </Position>
            <AltitudeMeters>1734.5999755859375</AltitudeMeters>
            <DistanceMeters>NAN</DistanceMeters>
          </Trackpoint>
          <Trackpoint>
            <Time>2021-07-18T11:05:33.000Z</Time>
            <Position>
              <LatitudeDegrees>42.7168978191912174224853515625</LatitudeDegrees>
              <LongitudeDegrees>-0.22744889371097087860107421875</LongitudeDegrees>
            </Position>
            <AltitudeMeters>1733.199951171875</AltitudeMeters>
            <DistanceMeters>NAN</DistanceMeters>
          </Trackpoint>
          <Trackpoint>
            <Time>2021-07-18T11:05:43.000Z</Time>
            <Position>
              <LatitudeDegrees>42.71690980531275272369384765625</LatitudeDegrees>
              <LongitudeDegrees>-0.227525420486927032470703125</LongitudeDegrees>
            </Position>
            <AltitudeMeters>1731</AltitudeMeters>
            <DistanceMeters>NAN</DistanceMeters>
          </Trackpoint>
          <Trackpoint>
            <Time>2021-07-18T11:05:51.000Z</Time>
            <Position>
              <LatitudeDegrees>42.716918103396892547607421875</LatitudeDegrees>
              <LongitudeDegrees>-0.2276109158992767333984375</LongitudeDegrees>
            </Position>
            <AltitudeMeters>1729.4000244140625</AltitudeMeters>
            <DistanceMeters>NAN</DistanceMeters>
          </Trackpoint>
          <Trackpoint>
            <Time>2021-07-18T11:05:53.000Z</Time>
            <Position>
              <LatitudeDegrees>42.71691718138754367828369140625</LatitudeDegrees>
              <LongitudeDegrees>-0.22763279266655445098876953125</LongitudeDegrees>
            </Position>
            <AltitudeMeters>1729</AltitudeMeters>
            <DistanceMeters>NAN</DistanceMeters>
          </Trackpoint>
          <Trackpoint>
            <Time>2021-07-18T11:06:01.000Z</Time>
            <Position>
              <LatitudeDegrees>42.7169504575431346893310546875</LatitudeDegrees>
              <LongitudeDegrees>-0.22768811322748661041259765625</LongitudeDegrees>
            </Position>
            <AltitudeMeters>1726.800048828125</AltitudeMeters>
            <DistanceMeters>NAN</DistanceMeters>
          </Trackpoint>
          <Trackpoint>
            <Time>2021-07-18T11:06:06.000Z</Time>
            <Position>
              <LatitudeDegrees>42.7169846557080745697021484375</LatitudeDegrees>
              <LongitudeDegrees>-0.2276959083974361419677734375</LongitudeDegrees>
            </Position>
            <AltitudeMeters>1725</AltitudeMeters>
            <DistanceMeters>NAN</DistanceMeters>
          </Trackpoint>
          <Trackpoint>
            <Time>2021-07-18T11:06:07.000Z</Time>
            <Position>
              <LatitudeDegrees>42.71699278615415096282958984375</LatitudeDegrees>
              <LongitudeDegrees>-0.22769196890294551849365234375</LongitudeDegrees>
            </Position>
            <AltitudeMeters>1724.800048828125</AltitudeMeters>
            <DistanceMeters>NAN</DistanceMeters>
          </Trackpoint>
          <Trackpoint>
            <Time>2021-07-18T11:06:11.000Z</Time>
            <Position>
              <LatitudeDegrees>42.7170339412987232208251953125</LatitudeDegrees>
              <LongitudeDegrees>-0.22768341936171054840087890625</LongitudeDegrees>
            </Position>
            <AltitudeMeters>1722.800048828125</AltitudeMeters>
            <DistanceMeters>NAN</DistanceMeters>
          </Trackpoint>
          <Trackpoint>
            <Time>2021-07-18T11:06:13.000Z</Time>
            <Position>
              <LatitudeDegrees>42.71705766208469867706298828125</LatitudeDegrees>
              <LongitudeDegrees>-0.2276694215834140777587890625</LongitudeDegrees>
            </Position>
            <AltitudeMeters>1721.800048828125</AltitudeMeters>
            <DistanceMeters>NAN</DistanceMeters>
          </Trackpoint>
          <Trackpoint>
            <Time>2021-07-18T11:06:20.000Z</Time>
            <Position>
              <LatitudeDegrees>42.7170766890048980712890625</LatitudeDegrees>
              <LongitudeDegrees>-0.22762541659176349639892578125</LongitudeDegrees>
            </Position>
            <AltitudeMeters>1722</AltitudeMeters>
            <DistanceMeters>NAN</DistanceMeters>
          </Trackpoint>
          <Trackpoint>
            <Time>2021-07-18T11:06:28.000Z</Time>
            <Position>
              <LatitudeDegrees>42.717076353728771209716796875</LatitudeDegrees>
              <LongitudeDegrees>-0.22753405384719371795654296875</LongitudeDegrees>
            </Position>
            <AltitudeMeters>1723.4000244140625</AltitudeMeters>
            <DistanceMeters>NAN</DistanceMeters>
          </Trackpoint>
          <Trackpoint>
            <Time>2021-07-18T11:06:29.000Z</Time>
            <Position>
              <LatitudeDegrees>42.7170738391578197479248046875</LatitudeDegrees>
              <LongitudeDegrees>-0.2275309525430202484130859375</LongitudeDegrees>
            </Position>
            <AltitudeMeters>1723.4000244140625</AltitudeMeters>
            <DistanceMeters>NAN</DistanceMeters>
          </Trackpoint>
          <Trackpoint>
            <Time>2021-07-18T11:06:35.000Z</Time>
            <Position>
              <LatitudeDegrees>42.71708632819354534149169921875</LatitudeDegrees>
              <LongitudeDegrees>-0.22751678712666034698486328125</LongitudeDegrees>
            </Position>
            <AltitudeMeters>1723.199951171875</AltitudeMeters>
            <DistanceMeters>NAN</DistanceMeters>
          </Trackpoint>
          <Trackpoint>
            <Time>2021-07-18T11:06:41.000Z</Time>
            <Position>
              <LatitudeDegrees>42.717089094221591949462890625</LatitudeDegrees>
              <LongitudeDegrees>-0.22750136442482471466064453125</LongitudeDegrees>
            </Position>
            <AltitudeMeters>1723.199951171875</AltitudeMeters>
            <DistanceMeters>NAN</DistanceMeters>
          </Trackpoint>
          <Trackpoint>
            <Time>2021-07-18T11:06:48.000Z</Time>
            <Position>
              <LatitudeDegrees>42.7171315066516399383544921875</LatitudeDegrees>
              <LongitudeDegrees>-0.2274595387279987335205078125</LongitudeDegrees>
            </Position>
            <AltitudeMeters>1722</AltitudeMeters>
            <DistanceMeters>NAN</DistanceMeters>
          </Trackpoint>
          <Trackpoint>
            <Time>2021-07-18T11:06:56.000Z</Time>
            <Position>
              <LatitudeDegrees>42.71713636815547943115234375</LatitudeDegrees>
              <LongitudeDegrees>-0.22739625535905361175537109375</LongitudeDegrees>
            </Position>
            <AltitudeMeters>1723</AltitudeMeters>
            <DistanceMeters>NAN</DistanceMeters>
          </Trackpoint>
          <Trackpoint>
            <Time>2021-07-18T11:07:01.000Z</Time>
            <Position>
              <LatitudeDegrees>42.71715271286666393280029296875</LatitudeDegrees>
              <LongitudeDegrees>-0.22739575244486331939697265625</LongitudeDegrees>
            </Position>
            <AltitudeMeters>1722.4000244140625</AltitudeMeters>
            <DistanceMeters>NAN</DistanceMeters>
          </Trackpoint>
          <Trackpoint>
            <Time>2021-07-18T11:07:06.000Z</Time>
            <Position>
              <LatitudeDegrees>42.71716721355915069580078125</LatitudeDegrees>
              <LongitudeDegrees>-0.227374546229839324951171875</LongitudeDegrees>
            </Position>
            <AltitudeMeters>1722.199951171875</AltitudeMeters>
            <DistanceMeters>NAN</DistanceMeters>
          </Trackpoint>
          <Trackpoint>
            <Time>2021-07-18T11:07:08.000Z</Time>
            <Position>
              <LatitudeDegrees>42.71717718802392482757568359375</LatitudeDegrees>
              <LongitudeDegrees>-0.2273562736809253692626953125</LongitudeDegrees>
            </Position>
            <AltitudeMeters>1722.199951171875</AltitudeMeters>
            <DistanceMeters>NAN</DistanceMeters>
          </Trackpoint>
          <Trackpoint>
            <Time>2021-07-18T11:07:15.000Z</Time>
            <Position>
              <LatitudeDegrees>42.7171999029815196990966796875</LatitudeDegrees>
              <LongitudeDegrees>-0.227290727198123931884765625</LongitudeDegrees>
            </Position>
            <AltitudeMeters>1723</AltitudeMeters>
            <DistanceMeters>NAN</DistanceMeters>
          </Trackpoint>
          <Trackpoint>
            <Time>2021-07-18T11:07:17.000Z</Time>
            <Position>
              <LatitudeDegrees>42.71721012890338897705078125</LatitudeDegrees>
              <LongitudeDegrees>-0.227278657257556915283203125</LongitudeDegrees>
            </Position>
            <AltitudeMeters>1722.800048828125</AltitudeMeters>
            <DistanceMeters>NAN</DistanceMeters>
          </Trackpoint>
          <Trackpoint>
            <Time>2021-07-18T11:07:24.000Z</Time>
            <Position>
              <LatitudeDegrees>42.71724139340221881866455078125</LatitudeDegrees>
              <LongitudeDegrees>-0.22720213048160076141357421875</LongitudeDegrees>
            </Position>
            <AltitudeMeters>1723.4000244140625</AltitudeMeters>
            <DistanceMeters>NAN</DistanceMeters>
          </Trackpoint>
          <Trackpoint>
            <Time>2021-07-18T11:07:27.000Z</Time>
            <Position>
              <LatitudeDegrees>42.717261426150798797607421875</LatitudeDegrees>
              <LongitudeDegrees>-0.22718570195138454437255859375</LongitudeDegrees>
            </Position>
            <AltitudeMeters>1723</AltitudeMeters>
            <DistanceMeters>NAN</DistanceMeters>
          </Trackpoint>
          <Trackpoint>
            <Time>2021-07-18T11:07:30.000Z</Time>
            <Position>
              <LatitudeDegrees>42.71727592684328556060791015625</LatitudeDegrees>
              <LongitudeDegrees>-0.2271658368408679962158203125</LongitudeDegrees>
            </Position>
            <AltitudeMeters>1722.800048828125</AltitudeMeters>
            <DistanceMeters>NAN</DistanceMeters>
          </Trackpoint>
          <Trackpoint>
            <Time>2021-07-18T11:07:37.000Z</Time>
            <Position>
              <LatitudeDegrees>42.71729788742959499359130859375</LatitudeDegrees>
              <LongitudeDegrees>-0.2271281182765960693359375</LongitudeDegrees>
            </Position>
            <AltitudeMeters>1722.800048828125</AltitudeMeters>
            <DistanceMeters>NAN</DistanceMeters>
          </Trackpoint>
          <Trackpoint>
            <Time>2021-07-18T11:07:44.000Z</Time>
            <Position>
              <LatitudeDegrees>42.71731833927333354949951171875</LatitudeDegrees>
              <LongitudeDegrees>-0.22712409496307373046875</LongitudeDegrees>
            </Position>
            <AltitudeMeters>1722.4000244140625</AltitudeMeters>
            <DistanceMeters>NAN</DistanceMeters>
          </Trackpoint>
          <Trackpoint>
            <Time>2021-07-18T11:07:46.000Z</Time>
            <Position>
              <LatitudeDegrees>42.717322446405887603759765625</LatitudeDegrees>
              <LongitudeDegrees>-0.227129459381103515625</LongitudeDegrees>
            </Position>
            <AltitudeMeters>1722.199951171875</AltitudeMeters>
            <DistanceMeters>NAN</DistanceMeters>
          </Trackpoint>
          <Trackpoint>
            <Time>2021-07-18T11:07:50.000Z</Time>
            <Position>
              <LatitudeDegrees>42.71734415553510189056396484375</LatitudeDegrees>
              <LongitudeDegrees>-0.22713541053235530853271484375</LongitudeDegrees>
            </Position>
            <AltitudeMeters>1721.5999755859375</AltitudeMeters>
            <DistanceMeters>NAN</DistanceMeters>
          </Trackpoint>
          <Trackpoint>
            <Time>2021-07-18T11:07:54.000Z</Time>
            <Position>
              <LatitudeDegrees>42.71734734065830707550048828125</LatitudeDegrees>
              <LongitudeDegrees>-0.2271333150565624237060546875</LongitudeDegrees>
            </Position>
            <AltitudeMeters>1721.5999755859375</AltitudeMeters>
            <DistanceMeters>NAN</DistanceMeters>
          </Trackpoint>
          <Trackpoint>
            <Time>2021-07-18T11:07:57.000Z</Time>
            <Position>
              <LatitudeDegrees>42.71734734065830707550048828125</LatitudeDegrees>
              <LongitudeDegrees>-0.2271333150565624237060546875</LongitudeDegrees>
            </Position>
            <AltitudeMeters>1721.5999755859375</AltitudeMeters>
            <DistanceMeters>NAN</DistanceMeters>
          </Trackpoint>
          <Trackpoint>
            <Time>2021-07-18T11:08:01.000Z</Time>
            <Position>
              <LatitudeDegrees>42.71734734065830707550048828125</LatitudeDegrees>
              <LongitudeDegrees>-0.2271333150565624237060546875</LongitudeDegrees>
            </Position>
            <AltitudeMeters>1721.5999755859375</AltitudeMeters>
            <DistanceMeters>NAN</DistanceMeters>
          </Trackpoint>
          <Trackpoint>
            <Time>2021-07-18T11:08:13.000Z</Time>
            <Position>
              <LatitudeDegrees>42.71737935952842235565185546875</LatitudeDegrees>
              <LongitudeDegrees>-0.22722979076206684112548828125</LongitudeDegrees>
            </Position>
            <AltitudeMeters>1718.4000244140625</AltitudeMeters>
            <DistanceMeters>NAN</DistanceMeters>
          </Trackpoint>
          <Trackpoint>
            <Time>2021-07-18T11:08:15.000Z</Time>
            <Position>
              <LatitudeDegrees>42.7173905074596405029296875</LatitudeDegrees>
              <LongitudeDegrees>-0.22726030088961124420166015625</LongitudeDegrees>
            </Position>
            <AltitudeMeters>1717.4000244140625</AltitudeMeters>
            <DistanceMeters>NAN</DistanceMeters>
          </Trackpoint>
          <Trackpoint>
            <Time>2021-07-18T11:08:17.000Z</Time>
            <Position>
              <LatitudeDegrees>42.71739117801189422607421875</LatitudeDegrees>
              <LongitudeDegrees>-0.2272935770452022552490234375</LongitudeDegrees>
            </Position>
            <AltitudeMeters>1716.5999755859375</AltitudeMeters>
            <DistanceMeters>NAN</DistanceMeters>
          </Trackpoint>
          <Trackpoint>
            <Time>2021-07-18T11:08:21.000Z</Time>
            <Position>
              <LatitudeDegrees>42.71738774143159389495849609375</LatitudeDegrees>
              <LongitudeDegrees>-0.2273358218371868133544921875</LongitudeDegrees>
            </Position>
            <AltitudeMeters>1715.5999755859375</AltitudeMeters>
            <DistanceMeters>NAN</DistanceMeters>
          </Trackpoint>
          <Trackpoint>
            <Time>2021-07-18T11:08:23.000Z</Time>
            <Position>
              <LatitudeDegrees>42.71738581359386444091796875</LatitudeDegrees>
              <LongitudeDegrees>-0.22735132835805416107177734375</LongitudeDegrees>
            </Position>
            <AltitudeMeters>1715.4000244140625</AltitudeMeters>
            <DistanceMeters>NAN</DistanceMeters>
          </Trackpoint>
          <Trackpoint>
            <Time>2021-07-18T11:08:25.000Z</Time>
            <Position>
              <LatitudeDegrees>42.7173851430416107177734375</LatitudeDegrees>
              <LongitudeDegrees>-0.2273646555840969085693359375</LongitudeDegrees>
            </Position>
            <AltitudeMeters>1715</AltitudeMeters>
            <DistanceMeters>NAN</DistanceMeters>
          </Trackpoint>
          <Trackpoint>
            <Time>2021-07-18T11:08:26.000Z</Time>
            <Position>
              <LatitudeDegrees>42.71738489158451557159423828125</LatitudeDegrees>
              <LongitudeDegrees>-0.2273700200021266937255859375</LongitudeDegrees>
            </Position>
            <AltitudeMeters>1715</AltitudeMeters>
            <DistanceMeters>NAN</DistanceMeters>
          </Trackpoint>
          <Trackpoint>
            <Time>2021-07-18T11:08:29.000Z</Time>
            <Position>
              <LatitudeDegrees>42.71737952716648578643798828125</LatitudeDegrees>
              <LongitudeDegrees>-0.22739491425454616546630859375</LongitudeDegrees>
            </Position>
            <AltitudeMeters>1714.5999755859375</AltitudeMeters>
            <DistanceMeters>NAN</DistanceMeters>
          </Trackpoint>
          <Trackpoint>
            <Time>2021-07-18T11:08:30.000Z</Time>
            <Position>
              <LatitudeDegrees>42.71737701259553432464599609375</LatitudeDegrees>
              <LongitudeDegrees>-0.2274038828909397125244140625</LongitudeDegrees>
            </Position>
            <AltitudeMeters>1714.4000244140625</AltitudeMeters>
            <DistanceMeters>NAN</DistanceMeters>
          </Trackpoint>
          <Trackpoint>
            <Time>2021-07-18T11:08:33.000Z</Time>
            <Position>
              <LatitudeDegrees>42.717375420033931732177734375</LatitudeDegrees>
              <LongitudeDegrees>-0.2274293638765811920166015625</LongitudeDegrees>
            </Position>
            <AltitudeMeters>1713.800048828125</AltitudeMeters>
            <DistanceMeters>NAN</DistanceMeters>
          </Trackpoint>
          <Trackpoint>
            <Time>2021-07-18T11:08:34.000Z</Time>
            <Position>
              <LatitudeDegrees>42.71737650968134403228759765625</LatitudeDegrees>
              <LongitudeDegrees>-0.22743313573300838470458984375</LongitudeDegrees>
            </Position>
            <AltitudeMeters>1713.800048828125</AltitudeMeters>
            <DistanceMeters>NAN</DistanceMeters>
          </Trackpoint>
          <Trackpoint>
            <Time>2021-07-18T11:08:36.000Z</Time>
            <Position>
              <LatitudeDegrees>42.7173836342990398406982421875</LatitudeDegrees>
              <LongitudeDegrees>-0.227444954216480255126953125</LongitudeDegrees>
            </Position>
            <AltitudeMeters>1713.199951171875</AltitudeMeters>
            <DistanceMeters>NAN</DistanceMeters>
          </Trackpoint>
          <Trackpoint>
            <Time>2021-07-18T11:08:40.000Z</Time>
            <Position>
              <LatitudeDegrees>42.71738170646131038665771484375</LatitudeDegrees>
              <LongitudeDegrees>-0.22746247239410877227783203125</LongitudeDegrees>
            </Position>
            <AltitudeMeters>1712.800048828125</AltitudeMeters>
            <DistanceMeters>NAN</DistanceMeters>
          </Trackpoint>
          <Trackpoint>
            <Time>2021-07-18T11:08:45.000Z</Time>
            <Position>
              <LatitudeDegrees>42.71739578805863857269287109375</LatitudeDegrees>
              <LongitudeDegrees>-0.22749147377908229827880859375</LongitudeDegrees>
            </Position>
            <AltitudeMeters>1711.5999755859375</AltitudeMeters>
            <DistanceMeters>NAN</DistanceMeters>
          </Trackpoint>
          <Trackpoint>
            <Time>2021-07-18T11:08:54.000Z</Time>
            <Position>
              <LatitudeDegrees>42.71738405339419841766357421875</LatitudeDegrees>
              <LongitudeDegrees>-0.22755836136639118194580078125</LongitudeDegrees>
            </Position>
            <AltitudeMeters>1710</AltitudeMeters>
            <DistanceMeters>NAN</DistanceMeters>
          </Trackpoint>
          <Trackpoint>
            <Time>2021-07-18T11:09:00.000Z</Time>
            <Position>
              <LatitudeDegrees>42.71738975308835506439208984375</LatitudeDegrees>
              <LongitudeDegrees>-0.22760043852031230926513671875</LongitudeDegrees>
            </Position>
            <AltitudeMeters>1708.5999755859375</AltitudeMeters>
            <DistanceMeters>NAN</DistanceMeters>
          </Trackpoint>
          <Trackpoint>
            <Time>2021-07-18T11:09:03.000Z</Time>
            <Position>
              <LatitudeDegrees>42.71739075891673564910888671875</LatitudeDegrees>
              <LongitudeDegrees>-0.22761468775570392608642578125</LongitudeDegrees>
            </Position>
            <AltitudeMeters>1708.199951171875</AltitudeMeters>
            <DistanceMeters>NAN</DistanceMeters>
          </Trackpoint>
          <Trackpoint>
            <Time>2021-07-18T11:09:06.000Z</Time>
            <Position>
              <LatitudeDegrees>42.717398218810558319091796875</LatitudeDegrees>
              <LongitudeDegrees>-0.2276379056274890899658203125</LongitudeDegrees>
            </Position>
            <AltitudeMeters>1707.4000244140625</AltitudeMeters>
            <DistanceMeters>NAN</DistanceMeters>
          </Trackpoint>
          <Trackpoint>
            <Time>2021-07-18T11:09:10.000Z</Time>
            <Position>
              <LatitudeDegrees>42.717407606542110443115234375</LatitudeDegrees>
              <LongitudeDegrees>-0.227658860385417938232421875</LongitudeDegrees>
            </Position>
            <AltitudeMeters>1706.5999755859375</AltitudeMeters>
            <DistanceMeters>NAN</DistanceMeters>
          </Trackpoint>
          <Trackpoint>
            <Time>2021-07-18T11:09:12.000Z</Time>
            <Position>
              <LatitudeDegrees>42.71741791628301143646240234375</LatitudeDegrees>
              <LongitudeDegrees>-0.227668918669223785400390625</LongitudeDegrees>
            </Position>
            <AltitudeMeters>1706</AltitudeMeters>
            <DistanceMeters>NAN</DistanceMeters>
          </Trackpoint>
          <Trackpoint>
            <Time>2021-07-18T11:09:20.000Z</Time>
            <Position>
              <LatitudeDegrees>42.7174429781734943389892578125</LatitudeDegrees>
              <LongitudeDegrees>-0.22774343378841876983642578125</LongitudeDegrees>
            </Position>
            <AltitudeMeters>1703.5999755859375</AltitudeMeters>
            <DistanceMeters>NAN</DistanceMeters>
          </Trackpoint>
          <Trackpoint>
            <Time>2021-07-18T11:09:29.000Z</Time>
            <Position>
              <LatitudeDegrees>42.71747826598584651947021484375</LatitudeDegrees>
              <LongitudeDegrees>-0.22779825143516063690185546875</LongitudeDegrees>
            </Position>
            <AltitudeMeters>1701.5999755859375</AltitudeMeters>
            <DistanceMeters>NAN</DistanceMeters>
          </Trackpoint>
          <Trackpoint>
            <Time>2021-07-18T11:09:31.000Z</Time>
            <Position>
              <LatitudeDegrees>42.7174771763384342193603515625</LatitudeDegrees>
              <LongitudeDegrees>-0.22781132720410823822021484375</LongitudeDegrees>
            </Position>
            <AltitudeMeters>1701.199951171875</AltitudeMeters>
            <DistanceMeters>NAN</DistanceMeters>
          </Trackpoint>
          <Trackpoint>
            <Time>2021-07-18T11:09:38.000Z</Time>
            <Position>
              <LatitudeDegrees>42.71747306920588016510009765625</LatitudeDegrees>
              <LongitudeDegrees>-0.227871425449848175048828125</LongitudeDegrees>
            </Position>
            <AltitudeMeters>1699.4000244140625</AltitudeMeters>
            <DistanceMeters>NAN</DistanceMeters>
          </Trackpoint>
          <Trackpoint>
            <Time>2021-07-18T11:09:48.000Z</Time>
            <Position>
              <LatitudeDegrees>42.71747843362390995025634765625</LatitudeDegrees>
              <LongitudeDegrees>-0.2279513888061046600341796875</LongitudeDegrees>
            </Position>
            <AltitudeMeters>1696.5999755859375</AltitudeMeters>
            <DistanceMeters>NAN</DistanceMeters>
          </Trackpoint>
          <Trackpoint>
            <Time>2021-07-18T11:09:55.000Z</Time>
            <Position>
              <LatitudeDegrees>42.71748011000454425811767578125</LatitudeDegrees>
              <LongitudeDegrees>-0.227943845093250274658203125</LongitudeDegrees>
            </Position>
            <AltitudeMeters>1696.800048828125</AltitudeMeters>
            <DistanceMeters>NAN</DistanceMeters>
          </Trackpoint>
          <Trackpoint>
            <Time>2021-07-18T11:10:10.000Z</Time>
            <Position>
              <LatitudeDegrees>42.7174889110028743743896484375</LatitudeDegrees>
              <LongitudeDegrees>-0.22798709571361541748046875</LongitudeDegrees>
            </Position>
            <AltitudeMeters>1695.199951171875</AltitudeMeters>
            <DistanceMeters>NAN</DistanceMeters>
          </Trackpoint>
          <Trackpoint>
            <Time>2021-07-18T11:10:11.000Z</Time>
            <Position>
              <LatitudeDegrees>42.71749184466898441314697265625</LatitudeDegrees>
              <LongitudeDegrees>-0.22801383398473262786865234375</LongitudeDegrees>
            </Position>
            <AltitudeMeters>1694.800048828125</AltitudeMeters>
            <DistanceMeters>NAN</DistanceMeters>
          </Trackpoint>
          <Trackpoint>
            <Time>2021-07-18T11:10:17.000Z</Time>
            <Position>
              <LatitudeDegrees>42.71750525571405887603759765625</LatitudeDegrees>
              <LongitudeDegrees>-0.22813168354332447052001953125</LongitudeDegrees>
            </Position>
            <AltitudeMeters>1692.199951171875</AltitudeMeters>
            <DistanceMeters>NAN</DistanceMeters>
          </Trackpoint>
          <Trackpoint>
            <Time>2021-07-18T11:10:19.000Z</Time>
            <Position>
              <LatitudeDegrees>42.717512212693691253662109375</LatitudeDegrees>
              <LongitudeDegrees>-0.228150375187397003173828125</LongitudeDegrees>
            </Position>
            <AltitudeMeters>1691.4000244140625</AltitudeMeters>
            <DistanceMeters>NAN</DistanceMeters>
          </Trackpoint>
          <Trackpoint>
            <Time>2021-07-18T11:10:21.000Z</Time>
            <Position>
              <LatitudeDegrees>42.71751799620687961578369140625</LatitudeDegrees>
              <LongitudeDegrees>-0.22815884090960025787353515625</LongitudeDegrees>
            </Position>
            <AltitudeMeters>1691</AltitudeMeters>
            <DistanceMeters>NAN</DistanceMeters>
          </Trackpoint>
          <Trackpoint>
            <Time>2021-07-18T11:10:26.000Z</Time>
            <Position>
              <LatitudeDegrees>42.71752369590103626251220703125</LatitudeDegrees>
              <LongitudeDegrees>-0.22819454781711101531982421875</LongitudeDegrees>
            </Position>
            <AltitudeMeters>1690</AltitudeMeters>
            <DistanceMeters>NAN</DistanceMeters>
          </Trackpoint>
          <Trackpoint>
            <Time>2021-07-18T11:10:36.000Z</Time>
            <Position>
              <LatitudeDegrees>42.71754515357315540313720703125</LatitudeDegrees>
              <LongitudeDegrees>-0.228247940540313720703125</LongitudeDegrees>
            </Position>
            <AltitudeMeters>1687.800048828125</AltitudeMeters>
            <DistanceMeters>NAN</DistanceMeters>
          </Trackpoint>
          <Trackpoint>
            <Time>2021-07-18T11:10:43.000Z</Time>
            <Position>
              <LatitudeDegrees>42.7175650186836719512939453125</LatitudeDegrees>
              <LongitudeDegrees>-0.22831021808087825775146484375</LongitudeDegrees>
            </Position>
            <AltitudeMeters>1686.4000244140625</AltitudeMeters>
            <DistanceMeters>NAN</DistanceMeters>
          </Trackpoint>
          <Trackpoint>
            <Time>2021-07-18T11:10:47.000Z</Time>
            <Position>
              <LatitudeDegrees>42.71759795956313610076904296875</LatitudeDegrees>
              <LongitudeDegrees>-0.22833653725683689117431640625</LongitudeDegrees>
            </Position>
            <AltitudeMeters>1686.199951171875</AltitudeMeters>
            <DistanceMeters>NAN</DistanceMeters>
          </Trackpoint>
          <Trackpoint>
            <Time>2021-07-18T11:10:49.000Z</Time>
            <Position>
              <LatitudeDegrees>42.7176104485988616943359375</LatitudeDegrees>
              <LongitudeDegrees>-0.22835028357803821563720703125</LongitudeDegrees>
            </Position>
            <AltitudeMeters>1686</AltitudeMeters>
            <DistanceMeters>NAN</DistanceMeters>
          </Trackpoint>
          <Trackpoint>
            <Time>2021-07-18T11:10:51.000Z</Time>
            <Position>
              <LatitudeDegrees>42.717626877129077911376953125</LatitudeDegrees>
              <LongitudeDegrees>-0.22837241180241107940673828125</LongitudeDegrees>
            </Position>
            <AltitudeMeters>1685.800048828125</AltitudeMeters>
            <DistanceMeters>NAN</DistanceMeters>
          </Trackpoint>
          <Trackpoint>
            <Time>2021-07-18T11:10:57.000Z</Time>
            <Position>
              <LatitudeDegrees>42.71766769699752330780029296875</LatitudeDegrees>
              <LongitudeDegrees>-0.22845648229122161865234375</LongitudeDegrees>
            </Position>
            <AltitudeMeters>1684.4000244140625</AltitudeMeters>
            <DistanceMeters>NAN</DistanceMeters>
          </Trackpoint>
          <Trackpoint>
            <Time>2021-07-18T11:11:04.000Z</Time>
            <Position>
              <LatitudeDegrees>42.7176924236118793487548828125</LatitudeDegrees>
              <LongitudeDegrees>-0.22854072041809558868408203125</LongitudeDegrees>
            </Position>
            <AltitudeMeters>1681.4000244140625</AltitudeMeters>
            <DistanceMeters>NAN</DistanceMeters>
          </Trackpoint>
          <Trackpoint>
            <Time>2021-07-18T11:11:11.000Z</Time>
            <Position>
              <LatitudeDegrees>42.71770767867565155029296875</LatitudeDegrees>
              <LongitudeDegrees>-0.22859604097902774810791015625</LongitudeDegrees>
            </Position>
            <AltitudeMeters>1679.800048828125</AltitudeMeters>
            <DistanceMeters>NAN</DistanceMeters>
          </Trackpoint>
          <Trackpoint>
            <Time>2021-07-18T11:11:19.000Z</Time>
            <Position>
              <LatitudeDegrees>42.71769921295344829559326171875</LatitudeDegrees>
              <LongitudeDegrees>-0.22869561798870563507080078125</LongitudeDegrees>
            </Position>
            <AltitudeMeters>1677.5999755859375</AltitudeMeters>
            <DistanceMeters>NAN</DistanceMeters>
          </Trackpoint>
          <Trackpoint>
            <Time>2021-07-18T11:11:29.000Z</Time>
            <Position>
              <LatitudeDegrees>42.717712037265300750732421875</LatitudeDegrees>
              <LongitudeDegrees>-0.22878882475197315216064453125</LongitudeDegrees>
            </Position>
            <AltitudeMeters>1675.800048828125</AltitudeMeters>
            <DistanceMeters>NAN</DistanceMeters>
          </Trackpoint>
          <Trackpoint>
            <Time>2021-07-18T11:11:35.000Z</Time>
            <Position>
              <LatitudeDegrees>42.71771698258817195892333984375</LatitudeDegrees>
              <LongitudeDegrees>-0.22883157245814800262451171875</LongitudeDegrees>
            </Position>
            <AltitudeMeters>1675</AltitudeMeters>
            <DistanceMeters>NAN</DistanceMeters>
          </Trackpoint>
          <Trackpoint>
            <Time>2021-07-18T11:11:40.000Z</Time>
            <Position>
              <LatitudeDegrees>42.71771731786429882049560546875</LatitudeDegrees>
              <LongitudeDegrees>-0.228868536651134490966796875</LongitudeDegrees>
            </Position>
            <AltitudeMeters>1674.199951171875</AltitudeMeters>
            <DistanceMeters>NAN</DistanceMeters>
          </Trackpoint>
          <Trackpoint>
            <Time>2021-07-18T11:11:49.000Z</Time>
            <Position>
              <LatitudeDegrees>42.7177135460078716278076171875</LatitudeDegrees>
              <LongitudeDegrees>-0.22892243228852748870849609375</LongitudeDegrees>
            </Position>
            <AltitudeMeters>1673</AltitudeMeters>
            <DistanceMeters>NAN</DistanceMeters>
          </Trackpoint>
          <Trackpoint>
            <Time>2021-07-18T11:11:57.000Z</Time>
            <Position>
              <LatitudeDegrees>42.71769887767732143402099609375</LatitudeDegrees>
              <LongitudeDegrees>-0.22896920330822467803955078125</LongitudeDegrees>
            </Position>
            <AltitudeMeters>1672</AltitudeMeters>
            <DistanceMeters>NAN</DistanceMeters>
          </Trackpoint>
          <Trackpoint>
            <Time>2021-07-18T11:12:09.000Z</Time>
            <Position>
              <LatitudeDegrees>42.717684544622898101806640625</LatitudeDegrees>
              <LongitudeDegrees>-0.22905729711055755615234375</LongitudeDegrees>
            </Position>
            <AltitudeMeters>1669.800048828125</AltitudeMeters>
            <DistanceMeters>NAN</DistanceMeters>
          </Trackpoint>
          <Trackpoint>
            <Time>2021-07-18T11:12:17.000Z</Time>
            <Position>
              <LatitudeDegrees>42.717687897384166717529296875</LatitudeDegrees>
              <LongitudeDegrees>-0.22913265042006969451904296875</LongitudeDegrees>
            </Position>
            <AltitudeMeters>1668.199951171875</AltitudeMeters>
            <DistanceMeters>NAN</DistanceMeters>
          </Trackpoint>
          <Trackpoint>
            <Time>2021-07-18T11:12:24.000Z</Time>
            <Position>
              <LatitudeDegrees>42.71768362261354923248291015625</LatitudeDegrees>
              <LongitudeDegrees>-0.229186378419399261474609375</LongitudeDegrees>
            </Position>
            <AltitudeMeters>1667.4000244140625</AltitudeMeters>
            <DistanceMeters>NAN</DistanceMeters>
          </Trackpoint>
          <Trackpoint>
            <Time>2021-07-18T11:12:26.000Z</Time>
            <Position>
              <LatitudeDegrees>42.71768261678516864776611328125</LatitudeDegrees>
              <LongitudeDegrees>-0.22920289076864719390869140625</LongitudeDegrees>
            </Position>
            <AltitudeMeters>1667.199951171875</AltitudeMeters>
            <DistanceMeters>NAN</DistanceMeters>
          </Trackpoint>
          <Trackpoint>
            <Time>2021-07-18T11:12:38.000Z</Time>
            <Position>
              <LatitudeDegrees>42.71770273335278034210205078125</LatitudeDegrees>
              <LongitudeDegrees>-0.22931856103241443634033203125</LongitudeDegrees>
            </Position>
            <AltitudeMeters>1663.800048828125</AltitudeMeters>
            <DistanceMeters>NAN</DistanceMeters>
          </Trackpoint>
          <Trackpoint>
            <Time>2021-07-18T11:12:43.000Z</Time>
            <Position>
              <LatitudeDegrees>42.71767507307231426239013671875</LatitudeDegrees>
              <LongitudeDegrees>-0.22935896180570125579833984375</LongitudeDegrees>
            </Position>
            <AltitudeMeters>1663.5999755859375</AltitudeMeters>
            <DistanceMeters>NAN</DistanceMeters>
          </Trackpoint>
          <Trackpoint>
            <Time>2021-07-18T11:12:48.000Z</Time>
            <Position>
              <LatitudeDegrees>42.71766987629234790802001953125</LatitudeDegrees>
              <LongitudeDegrees>-0.22939852438867092132568359375</LongitudeDegrees>
            </Position>
            <AltitudeMeters>1663</AltitudeMeters>
            <DistanceMeters>NAN</DistanceMeters>
          </Trackpoint>
          <Trackpoint>
            <Time>2021-07-18T11:12:55.000Z</Time>
            <Position>
              <LatitudeDegrees>42.7176615782082080841064453125</LatitudeDegrees>
              <LongitudeDegrees>-0.22945560514926910400390625</LongitudeDegrees>
            </Position>
            <AltitudeMeters>1662.199951171875</AltitudeMeters>
            <DistanceMeters>NAN</DistanceMeters>
          </Trackpoint>
          <Trackpoint>
            <Time>2021-07-18T11:12:57.000Z</Time>
            <Position>
              <LatitudeDegrees>42.7176560461521148681640625</LatitudeDegrees>
              <LongitudeDegrees>-0.22946189157664775848388671875</LongitudeDegrees>
            </Position>
            <AltitudeMeters>1662.199951171875</AltitudeMeters>
            <DistanceMeters>NAN</DistanceMeters>
          </Trackpoint>
          <Trackpoint>
            <Time>2021-07-18T11:13:00.000Z</Time>
            <Position>
              <LatitudeDegrees>42.71765696816146373748779296875</LatitudeDegrees>
              <LongitudeDegrees>-0.22948016412556171417236328125</LongitudeDegrees>
            </Position>
            <AltitudeMeters>1661.800048828125</AltitudeMeters>
            <DistanceMeters>NAN</DistanceMeters>
          </Trackpoint>
          <Trackpoint>
            <Time>2021-07-18T11:13:05.000Z</Time>
            <Position>
              <LatitudeDegrees>42.7176588959991931915283203125</LatitudeDegrees>
              <LongitudeDegrees>-0.22951595485210418701171875</LongitudeDegrees>
            </Position>
            <AltitudeMeters>1661.199951171875</AltitudeMeters>
            <DistanceMeters>NAN</DistanceMeters>
          </Trackpoint>
          <Trackpoint>
            <Time>2021-07-18T11:13:07.000Z</Time>
            <Position>
              <LatitudeDegrees>42.71766970865428447723388671875</LatitudeDegrees>
              <LongitudeDegrees>-0.2295204810798168182373046875</LongitudeDegrees>
            </Position>
            <AltitudeMeters>1660.800048828125</AltitudeMeters>
            <DistanceMeters>NAN</DistanceMeters>
          </Trackpoint>
          <Trackpoint>
            <Time>2021-07-18T11:13:15.000Z</Time>
            <Position>
              <LatitudeDegrees>42.71764330565929412841796875</LatitudeDegrees>
              <LongitudeDegrees>-0.22956146858632564544677734375</LongitudeDegrees>
            </Position>
            <AltitudeMeters>1660.800048828125</AltitudeMeters>
            <DistanceMeters>NAN</DistanceMeters>
          </Trackpoint>
          <Trackpoint>
            <Time>2021-07-18T11:13:17.000Z</Time>
            <Position>
              <LatitudeDegrees>42.717639617621898651123046875</LatitudeDegrees>
              <LongitudeDegrees>-0.229567252099514007568359375</LongitudeDegrees>
            </Position>
            <AltitudeMeters>1660.800048828125</AltitudeMeters>
            <DistanceMeters>NAN</DistanceMeters>
          </Trackpoint>
          <Trackpoint>
            <Time>2021-07-18T11:13:26.000Z</Time>
            <Position>
              <LatitudeDegrees>42.7176089398562908172607421875</LatitudeDegrees>
              <LongitudeDegrees>-0.2295929007232189178466796875</LongitudeDegrees>
            </Position>
            <AltitudeMeters>1661.4000244140625</AltitudeMeters>
            <DistanceMeters>NAN</DistanceMeters>
          </Trackpoint>
          <Trackpoint>
            <Time>2021-07-18T11:13:34.000Z</Time>
            <Position>
              <LatitudeDegrees>42.7175750769674777984619140625</LatitudeDegrees>
              <LongitudeDegrees>-0.22969440557062625885009765625</LongitudeDegrees>
            </Position>
            <AltitudeMeters>1660.199951171875</AltitudeMeters>
            <DistanceMeters>NAN</DistanceMeters>
          </Trackpoint>
          <Trackpoint>
            <Time>2021-07-18T11:13:37.000Z</Time>
            <Position>
              <LatitudeDegrees>42.7175646834075450897216796875</LatitudeDegrees>
              <LongitudeDegrees>-0.2297270111739635467529296875</LongitudeDegrees>
            </Position>
            <AltitudeMeters>1659.800048828125</AltitudeMeters>
            <DistanceMeters>NAN</DistanceMeters>
          </Trackpoint>
          <Trackpoint>
            <Time>2021-07-18T11:13:41.000Z</Time>
            <Position>
              <LatitudeDegrees>42.7175796031951904296875</LatitudeDegrees>
              <LongitudeDegrees>-0.22977906279265880584716796875</LongitudeDegrees>
            </Position>
            <AltitudeMeters>1658</AltitudeMeters>
            <DistanceMeters>NAN</DistanceMeters>
          </Trackpoint>
          <Trackpoint>
            <Time>2021-07-18T11:13:48.000Z</Time>
            <Position>
              <LatitudeDegrees>42.71761757321655750274658203125</LatitudeDegrees>
              <LongitudeDegrees>-0.22983916103839874267578125</LongitudeDegrees>
            </Position>
            <AltitudeMeters>1655.199951171875</AltitudeMeters>
            <DistanceMeters>NAN</DistanceMeters>
          </Trackpoint>
          <Trackpoint>
            <Time>2021-07-18T11:13:49.000Z</Time>
            <Position>
              <LatitudeDegrees>42.71762059070169925689697265625</LatitudeDegrees>
              <LongitudeDegrees>-0.22984913550317287445068359375</LongitudeDegrees>
            </Position>
            <AltitudeMeters>1654.800048828125</AltitudeMeters>
            <DistanceMeters>NAN</DistanceMeters>
          </Trackpoint>
          <Trackpoint>
            <Time>2021-07-18T11:13:51.000Z</Time>
            <Position>
              <LatitudeDegrees>42.7176176570355892181396484375</LatitudeDegrees>
              <LongitudeDegrees>-0.22985852323472499847412109375</LongitudeDegrees>
            </Position>
            <AltitudeMeters>1654.5999755859375</AltitudeMeters>
            <DistanceMeters>NAN</DistanceMeters>
          </Trackpoint>
          <Trackpoint>
            <Time>2021-07-18T11:13:52.000Z</Time>
            <Position>
              <LatitudeDegrees>42.717616818845272064208984375</LatitudeDegrees>
              <LongitudeDegrees>-0.229864977300167083740234375</LongitudeDegrees>
            </Position>
            <AltitudeMeters>1654.4000244140625</AltitudeMeters>
            <DistanceMeters>NAN</DistanceMeters>
          </Trackpoint>
          <Trackpoint>
            <Time>2021-07-18T11:13:55.000Z</Time>
            <Position>
              <LatitudeDegrees>42.71761757321655750274658203125</LatitudeDegrees>
              <LongitudeDegrees>-0.229884423315525054931640625</LongitudeDegrees>
            </Position>
            <AltitudeMeters>1654</AltitudeMeters>
            <DistanceMeters>NAN</DistanceMeters>
          </Trackpoint>
          <Trackpoint>
            <Time>2021-07-18T11:14:03.000Z</Time>
            <Position>
              <LatitudeDegrees>42.71761405281722545623779296875</LatitudeDegrees>
              <LongitudeDegrees>-0.22992691956460475921630859375</LongitudeDegrees>
            </Position>
            <AltitudeMeters>1653.199951171875</AltitudeMeters>
            <DistanceMeters>NAN</DistanceMeters>
          </Trackpoint>
          <Trackpoint>
            <Time>2021-07-18T11:14:09.000Z</Time>
            <Position>
              <LatitudeDegrees>42.71761438809335231781005859375</LatitudeDegrees>
              <LongitudeDegrees>-0.22997486405074596405029296875</LongitudeDegrees>
            </Position>
            <AltitudeMeters>1652.800048828125</AltitudeMeters>
            <DistanceMeters>NAN</DistanceMeters>
          </Trackpoint>
          <Trackpoint>
            <Time>2021-07-18T11:14:18.000Z</Time>
            <Position>
              <LatitudeDegrees>42.7176538668572902679443359375</LatitudeDegrees>
              <LongitudeDegrees>-0.2300197072327136993408203125</LongitudeDegrees>
            </Position>
            <AltitudeMeters>1651</AltitudeMeters>
            <DistanceMeters>NAN</DistanceMeters>
          </Trackpoint>
          <Trackpoint>
            <Time>2021-07-18T11:14:24.000Z</Time>
            <Position>
              <LatitudeDegrees>42.71770390681922435760498046875</LatitudeDegrees>
              <LongitudeDegrees>-0.23004611022770404815673828125</LongitudeDegrees>
            </Position>
            <AltitudeMeters>1649</AltitudeMeters>
            <DistanceMeters>NAN</DistanceMeters>
          </Trackpoint>
          <Trackpoint>
            <Time>2021-07-18T11:14:25.000Z</Time>
            <Position>
              <LatitudeDegrees>42.717712707817554473876953125</LatitudeDegrees>
              <LongitudeDegrees>-0.230047702789306640625</LongitudeDegrees>
            </Position>
            <AltitudeMeters>1648.800048828125</AltitudeMeters>
            <DistanceMeters>NAN</DistanceMeters>
          </Trackpoint>
          <Trackpoint>
            <Time>2021-07-18T11:14:28.000Z</Time>
            <Position>
              <LatitudeDegrees>42.717726118862628936767578125</LatitudeDegrees>
              <LongitudeDegrees>-0.2300411649048328399658203125</LongitudeDegrees>
            </Position>
            <AltitudeMeters>1648.4000244140625</AltitudeMeters>
            <DistanceMeters>NAN</DistanceMeters>
          </Trackpoint>
          <Trackpoint>
            <Time>2021-07-18T11:14:29.000Z</Time>
            <Position>
              <LatitudeDegrees>42.71773223765194416046142578125</LatitudeDegrees>
              <LongitudeDegrees>-0.23003630340099334716796875</LongitudeDegrees>
            </Position>
            <AltitudeMeters>1648.199951171875</AltitudeMeters>
            <DistanceMeters>NAN</DistanceMeters>
          </Trackpoint>
          <Trackpoint>
            <Time>2021-07-18T11:14:38.000Z</Time>
            <Position>
              <LatitudeDegrees>42.7177445590496063232421875</LatitudeDegrees>
              <LongitudeDegrees>-0.2300971560180187225341796875</LongitudeDegrees>
            </Position>
            <AltitudeMeters>1646.800048828125</AltitudeMeters>
            <DistanceMeters>NAN</DistanceMeters>
          </Trackpoint>
          <Trackpoint>
            <Time>2021-07-18T11:14:48.000Z</Time>
            <Position>
              <LatitudeDegrees>42.71777213551104068756103515625</LatitudeDegrees>
              <LongitudeDegrees>-0.2301377244293689727783203125</LongitudeDegrees>
            </Position>
            <AltitudeMeters>1645.4000244140625</AltitudeMeters>
            <DistanceMeters>NAN</DistanceMeters>
          </Trackpoint>
          <Trackpoint>
            <Time>2021-07-18T11:14:57.000Z</Time>
            <Position>
              <LatitudeDegrees>42.71780817769467830657958984375</LatitudeDegrees>
              <LongitudeDegrees>-0.23017846047878265380859375</LongitudeDegrees>
            </Position>
            <AltitudeMeters>1643.4000244140625</AltitudeMeters>
            <DistanceMeters>NAN</DistanceMeters>
          </Trackpoint>
          <Trackpoint>
            <Time>2021-07-18T11:15:02.000Z</Time>
            <Position>
              <LatitudeDegrees>42.7178231813013553619384765625</LatitudeDegrees>
              <LongitudeDegrees>-0.2302336134016513824462890625</LongitudeDegrees>
            </Position>
            <AltitudeMeters>1642.4000244140625</AltitudeMeters>
            <DistanceMeters>NAN</DistanceMeters>
          </Trackpoint>
          <Trackpoint>
            <Time>2021-07-18T11:15:05.000Z</Time>
            <Position>
              <LatitudeDegrees>42.7178330719470977783203125</LatitudeDegrees>
              <LongitudeDegrees>-0.23026831448078155517578125</LongitudeDegrees>
            </Position>
            <AltitudeMeters>1641.5999755859375</AltitudeMeters>
            <DistanceMeters>NAN</DistanceMeters>
          </Trackpoint>
          <Trackpoint>
            <Time>2021-07-18T11:15:13.000Z</Time>
            <Position>
              <LatitudeDegrees>42.71784841082990169525146484375</LatitudeDegrees>
              <LongitudeDegrees>-0.2303432486951351165771484375</LongitudeDegrees>
            </Position>
            <AltitudeMeters>1640.4000244140625</AltitudeMeters>
            <DistanceMeters>NAN</DistanceMeters>
          </Trackpoint>
          <Trackpoint>
            <Time>2021-07-18T11:15:21.000Z</Time>
            <Position>
              <LatitudeDegrees>42.71786249242722988128662109375</LatitudeDegrees>
              <LongitudeDegrees>-0.23038557730615139007568359375</LongitudeDegrees>
            </Position>
            <AltitudeMeters>1639.800048828125</AltitudeMeters>
            <DistanceMeters>NAN</DistanceMeters>
          </Trackpoint>
          <Trackpoint>
            <Time>2021-07-18T11:15:24.000Z</Time>
            <Position>
              <LatitudeDegrees>42.7178838662803173065185546875</LatitudeDegrees>
              <LongitudeDegrees>-0.23039345629513263702392578125</LongitudeDegrees>
            </Position>
            <AltitudeMeters>1639.4000244140625</AltitudeMeters>
            <DistanceMeters>NAN</DistanceMeters>
          </Trackpoint>
          <Trackpoint>
            <Time>2021-07-18T11:15:30.000Z</Time>
            <Position>
              <LatitudeDegrees>42.717896439135074615478515625</LatitudeDegrees>
              <LongitudeDegrees>-0.23043997585773468017578125</LongitudeDegrees>
            </Position>
            <AltitudeMeters>1638.800048828125</AltitudeMeters>
            <DistanceMeters>NAN</DistanceMeters>
          </Trackpoint>
          <Trackpoint>
            <Time>2021-07-18T11:15:37.000Z</Time>
            <Position>
              <LatitudeDegrees>42.71788604557514190673828125</LatitudeDegrees>
              <LongitudeDegrees>-0.23051583208143711090087890625</LongitudeDegrees>
            </Position>
            <AltitudeMeters>1638.4000244140625</AltitudeMeters>
            <DistanceMeters>NAN</DistanceMeters>
          </Trackpoint>
          <Trackpoint>
            <Time>2021-07-18T11:15:44.000Z</Time>
            <Position>
              <LatitudeDegrees>42.717873640358448028564453125</LatitudeDegrees>
              <LongitudeDegrees>-0.23056377656757831573486328125</LongitudeDegrees>
            </Position>
            <AltitudeMeters>1638.4000244140625</AltitudeMeters>
            <DistanceMeters>NAN</DistanceMeters>
          </Trackpoint>
          <Trackpoint>
            <Time>2021-07-18T11:15:50.000Z</Time>
            <Position>
              <LatitudeDegrees>42.7178751491010189056396484375</LatitudeDegrees>
              <LongitudeDegrees>-0.23060048930346965789794921875</LongitudeDegrees>
            </Position>
            <AltitudeMeters>1638.199951171875</AltitudeMeters>
            <DistanceMeters>NAN</DistanceMeters>
          </Trackpoint>
          <Trackpoint>
            <Time>2021-07-18T11:15:52.000Z</Time>
            <Position>
              <LatitudeDegrees>42.71788462065160274505615234375</LatitudeDegrees>
              <LongitudeDegrees>-0.23061976768076419830322265625</LongitudeDegrees>
            </Position>
            <AltitudeMeters>1638</AltitudeMeters>
            <DistanceMeters>NAN</DistanceMeters>
          </Trackpoint>
          <Trackpoint>
            <Time>2021-07-18T11:15:56.000Z</Time>
            <Position>
              <LatitudeDegrees>42.71790222264826297760009765625</LatitudeDegrees>
              <LongitudeDegrees>-0.23063887841999530792236328125</LongitudeDegrees>
            </Position>
            <AltitudeMeters>1637.800048828125</AltitudeMeters>
            <DistanceMeters>NAN</DistanceMeters>
          </Trackpoint>
          <Trackpoint>
            <Time>2021-07-18T11:16:02.000Z</Time>
            <Position>
              <LatitudeDegrees>42.71793809719383716583251953125</LatitudeDegrees>
              <LongitudeDegrees>-0.2306671254336833953857421875</LongitudeDegrees>
            </Position>
            <AltitudeMeters>1637.199951171875</AltitudeMeters>
            <DistanceMeters>NAN</DistanceMeters>
          </Trackpoint>
          <Trackpoint>
            <Time>2021-07-18T11:16:04.000Z</Time>
            <Position>
              <LatitudeDegrees>42.7179532684385776519775390625</LatitudeDegrees>
              <LongitudeDegrees>-0.23067827336490154266357421875</LongitudeDegrees>
            </Position>
            <AltitudeMeters>1636.5999755859375</AltitudeMeters>
            <DistanceMeters>NAN</DistanceMeters>
          </Trackpoint>
          <Trackpoint>
            <Time>2021-07-18T11:16:07.000Z</Time>
            <Position>
              <LatitudeDegrees>42.71796743385493755340576171875</LatitudeDegrees>
              <LongitudeDegrees>-0.23069419898092746734619140625</LongitudeDegrees>
            </Position>
            <AltitudeMeters>1636.199951171875</AltitudeMeters>
            <DistanceMeters>NAN</DistanceMeters>
          </Trackpoint>
          <Trackpoint>
            <Time>2021-07-18T11:16:10.000Z</Time>
            <Position>
              <LatitudeDegrees>42.71797564812004566192626953125</LatitudeDegrees>
              <LongitudeDegrees>-0.23071490228176116943359375</LongitudeDegrees>
            </Position>
            <AltitudeMeters>1635.5999755859375</AltitudeMeters>
            <DistanceMeters>NAN</DistanceMeters>
          </Trackpoint>
          <Trackpoint>
            <Time>2021-07-18T11:16:13.000Z</Time>
            <Position>
              <LatitudeDegrees>42.71799023263156414031982421875</LatitudeDegrees>
              <LongitudeDegrees>-0.23072906769812107086181640625</LongitudeDegrees>
            </Position>
            <AltitudeMeters>1635.199951171875</AltitudeMeters>
            <DistanceMeters>NAN</DistanceMeters>
          </Trackpoint>
          <Trackpoint>
            <Time>2021-07-18T11:16:16.000Z</Time>
            <Position>
              <LatitudeDegrees>42.71800615824759006500244140625</LatitudeDegrees>
              <LongitudeDegrees>-0.2307449094951152801513671875</LongitudeDegrees>
            </Position>
            <AltitudeMeters>1634.5999755859375</AltitudeMeters>
            <DistanceMeters>NAN</DistanceMeters>
          </Trackpoint>
          <Trackpoint>
            <Time>2021-07-18T11:16:22.000Z</Time>
            <Position>
              <LatitudeDegrees>42.71804337389767169952392578125</LatitudeDegrees>
              <LongitudeDegrees>-0.23079746402800083160400390625</LongitudeDegrees>
            </Position>
            <AltitudeMeters>1632.800048828125</AltitudeMeters>
            <DistanceMeters>NAN</DistanceMeters>
          </Trackpoint>
          <Trackpoint>
            <Time>2021-07-18T11:16:30.000Z</Time>
            <Position>
              <LatitudeDegrees>42.71809802390635013580322265625</LatitudeDegrees>
              <LongitudeDegrees>-0.230823867022991180419921875</LongitudeDegrees>
            </Position>
            <AltitudeMeters>1631.4000244140625</AltitudeMeters>
            <DistanceMeters>NAN</DistanceMeters>
          </Trackpoint>
          <Trackpoint>
            <Time>2021-07-18T11:16:32.000Z</Time>
            <Position>
              <LatitudeDegrees>42.71810707636177539825439453125</LatitudeDegrees>
              <LongitudeDegrees>-0.2308287285268306732177734375</LongitudeDegrees>
            </Position>
            <AltitudeMeters>1631.199951171875</AltitudeMeters>
            <DistanceMeters>NAN</DistanceMeters>
          </Trackpoint>
          <Trackpoint>
            <Time>2021-07-18T11:16:35.000Z</Time>
            <Position>
              <LatitudeDegrees>42.7181095071136951446533203125</LatitudeDegrees>
              <LongitudeDegrees>-0.2308320812880992889404296875</LongitudeDegrees>
            </Position>
            <AltitudeMeters>1631</AltitudeMeters>
            <DistanceMeters>NAN</DistanceMeters>
          </Trackpoint>
          <Trackpoint>
            <Time>2021-07-18T11:16:41.000Z</Time>
            <Position>
              <LatitudeDegrees>42.7181225828826427459716796875</LatitudeDegrees>
              <LongitudeDegrees>-0.23084909655153751373291015625</LongitudeDegrees>
            </Position>
            <AltitudeMeters>1630.5999755859375</AltitudeMeters>
            <DistanceMeters>NAN</DistanceMeters>
          </Trackpoint>
          <Trackpoint>
            <Time>2021-07-18T11:16:48.000Z</Time>
            <Position>
              <LatitudeDegrees>42.71818972192704677581787109375</LatitudeDegrees>
              <LongitudeDegrees>-0.2308857254683971405029296875</LongitudeDegrees>
            </Position>
            <AltitudeMeters>1630.199951171875</AltitudeMeters>
            <DistanceMeters>NAN</DistanceMeters>
          </Trackpoint>
          <Trackpoint>
            <Time>2021-07-18T11:16:55.000Z</Time>
            <Position>
              <LatitudeDegrees>42.7182570286095142364501953125</LatitudeDegrees>
              <LongitudeDegrees>-0.23096141405403614044189453125</LongitudeDegrees>
            </Position>
            <AltitudeMeters>1628.800048828125</AltitudeMeters>
            <DistanceMeters>NAN</DistanceMeters>
          </Trackpoint>
          <Trackpoint>
            <Time>2021-07-18T11:17:00.000Z</Time>
            <Position>
              <LatitudeDegrees>42.718292735517024993896484375</LatitudeDegrees>
              <LongitudeDegrees>-0.2310181595385074615478515625</LongitudeDegrees>
            </Position>
            <AltitudeMeters>1627.5999755859375</AltitudeMeters>
            <DistanceMeters>NAN</DistanceMeters>
          </Trackpoint>
          <Trackpoint>
            <Time>2021-07-18T11:17:02.000Z</Time>
            <Position>
              <LatitudeDegrees>42.7182982675731182098388671875</LatitudeDegrees>
              <LongitudeDegrees>-0.231039114296436309814453125</LongitudeDegrees>
            </Position>
            <AltitudeMeters>1627.199951171875</AltitudeMeters>
            <DistanceMeters>NAN</DistanceMeters>
          </Trackpoint>
          <Trackpoint>
            <Time>2021-07-18T11:17:07.000Z</Time>
            <Position>
              <LatitudeDegrees>42.71829281933605670928955078125</LatitudeDegrees>
              <LongitudeDegrees>-0.23110491223633289337158203125</LongitudeDegrees>
            </Position>
            <AltitudeMeters>1625.800048828125</AltitudeMeters>
            <DistanceMeters>NAN</DistanceMeters>
          </Trackpoint>
          <Trackpoint>
            <Time>2021-07-18T11:17:11.000Z</Time>
            <Position>
              <LatitudeDegrees>42.71830220706760883331298828125</LatitudeDegrees>
              <LongitudeDegrees>-0.2311603166162967681884765625</LongitudeDegrees>
            </Position>
            <AltitudeMeters>1624.800048828125</AltitudeMeters>
            <DistanceMeters>NAN</DistanceMeters>
          </Trackpoint>
          <Trackpoint>
            <Time>2021-07-18T11:17:22.000Z</Time>
            <Position>
              <LatitudeDegrees>42.718311510980129241943359375</LatitudeDegrees>
              <LongitudeDegrees>-0.23130775429308414459228515625</LongitudeDegrees>
            </Position>
            <AltitudeMeters>1622.199951171875</AltitudeMeters>
            <DistanceMeters>NAN</DistanceMeters>
          </Trackpoint>
          <Trackpoint>
            <Time>2021-07-18T11:17:30.000Z</Time>
            <Position>
              <LatitudeDegrees>42.718305476009845733642578125</LatitudeDegrees>
              <LongitudeDegrees>-0.2314077503979206085205078125</LongitudeDegrees>
            </Position>
            <AltitudeMeters>1620.4000244140625</AltitudeMeters>
            <DistanceMeters>NAN</DistanceMeters>
          </Trackpoint>
          <Trackpoint>
            <Time>2021-07-18T11:17:31.000Z</Time>
            <Position>
              <LatitudeDegrees>42.71831025369465351104736328125</LatitudeDegrees>
              <LongitudeDegrees>-0.23142225109040737152099609375</LongitudeDegrees>
            </Position>
            <AltitudeMeters>1620</AltitudeMeters>
            <DistanceMeters>NAN</DistanceMeters>
          </Trackpoint>
          <Trackpoint>
            <Time>2021-07-18T11:17:41.000Z</Time>
            <Position>
              <LatitudeDegrees>42.718334980309009552001953125</LatitudeDegrees>
              <LongitudeDegrees>-0.23150791414082050323486328125</LongitudeDegrees>
            </Position>
            <AltitudeMeters>1618.5999755859375</AltitudeMeters>
            <DistanceMeters>NAN</DistanceMeters>
          </Trackpoint>
          <Trackpoint>
            <Time>2021-07-18T11:17:48.000Z</Time>
            <Position>
              <LatitudeDegrees>42.71836490370333194732666015625</LatitudeDegrees>
              <LongitudeDegrees>-0.23157044313848018646240234375</LongitudeDegrees>
            </Position>
            <AltitudeMeters>1617.4000244140625</AltitudeMeters>
            <DistanceMeters>NAN</DistanceMeters>
          </Trackpoint>
          <Trackpoint>
            <Time>2021-07-18T11:17:58.000Z</Time>
            <Position>
              <LatitudeDegrees>42.7183569408953189849853515625</LatitudeDegrees>
              <LongitudeDegrees>-0.23168460465967655181884765625</LongitudeDegrees>
            </Position>
            <AltitudeMeters>1615.800048828125</AltitudeMeters>
            <DistanceMeters>NAN</DistanceMeters>
          </Trackpoint>
          <Trackpoint>
            <Time>2021-07-18T11:18:08.000Z</Time>
            <Position>
              <LatitudeDegrees>42.71834780462086200714111328125</LatitudeDegrees>
              <LongitudeDegrees>-0.23177462629973888397216796875</LongitudeDegrees>
            </Position>
            <AltitudeMeters>1614.5999755859375</AltitudeMeters>
            <DistanceMeters>NAN</DistanceMeters>
          </Trackpoint>
          <Trackpoint>
            <Time>2021-07-18T11:18:11.000Z</Time>
            <Position>
              <LatitudeDegrees>42.718349061906337738037109375</LatitudeDegrees>
              <LongitudeDegrees>-0.23179122246801853179931640625</LongitudeDegrees>
            </Position>
            <AltitudeMeters>1614.199951171875</AltitudeMeters>
            <DistanceMeters>NAN</DistanceMeters>
          </Trackpoint>
          <Trackpoint>
            <Time>2021-07-18T11:18:17.000Z</Time>
            <Position>
              <LatitudeDegrees>42.71836289204657077789306640625</LatitudeDegrees>
              <LongitudeDegrees>-0.231818966567516326904296875</LongitudeDegrees>
            </Position>
            <AltitudeMeters>1613.800048828125</AltitudeMeters>
            <DistanceMeters>NAN</DistanceMeters>
          </Trackpoint>
          <Trackpoint>
            <Time>2021-07-18T11:18:19.000Z</Time>
            <Position>
              <LatitudeDegrees>42.71836825646460056304931640625</LatitudeDegrees>
              <LongitudeDegrees>-0.2318194694817066192626953125</LongitudeDegrees>
            </Position>
            <AltitudeMeters>1613.800048828125</AltitudeMeters>
            <DistanceMeters>NAN</DistanceMeters>
          </Trackpoint>
          <Trackpoint>
            <Time>2021-07-18T11:18:22.000Z</Time>
            <Position>
              <LatitudeDegrees>42.71837647072970867156982421875</LatitudeDegrees>
              <LongitudeDegrees>-0.231837742030620574951171875</LongitudeDegrees>
            </Position>
            <AltitudeMeters>1613.5999755859375</AltitudeMeters>
            <DistanceMeters>NAN</DistanceMeters>
          </Trackpoint>
          <Trackpoint>
            <Time>2021-07-18T11:18:27.000Z</Time>
            <Position>
              <LatitudeDegrees>42.7183844335377216339111328125</LatitudeDegrees>
              <LongitudeDegrees>-0.23188509978353977203369140625</LongitudeDegrees>
            </Position>
            <AltitudeMeters>1612.800048828125</AltitudeMeters>
            <DistanceMeters>NAN</DistanceMeters>
          </Trackpoint>
          <Trackpoint>
            <Time>2021-07-18T11:18:34.000Z</Time>
            <Position>
              <LatitudeDegrees>42.71839055232703685760498046875</LatitudeDegrees>
              <LongitudeDegrees>-0.231945030391216278076171875</LongitudeDegrees>
            </Position>
            <AltitudeMeters>1611.4000244140625</AltitudeMeters>
            <DistanceMeters>NAN</DistanceMeters>
          </Trackpoint>
          <Trackpoint>
            <Time>2021-07-18T11:18:41.000Z</Time>
            <Position>
              <LatitudeDegrees>42.718392647802829742431640625</LatitudeDegrees>
              <LongitudeDegrees>-0.2320266701281070709228515625</LongitudeDegrees>
            </Position>
            <AltitudeMeters>1609.5999755859375</AltitudeMeters>
            <DistanceMeters>NAN</DistanceMeters>
          </Trackpoint>
          <Trackpoint>
            <Time>2021-07-18T11:18:50.000Z</Time>
            <Position>
              <LatitudeDegrees>42.718433551490306854248046875</LatitudeDegrees>
              <LongitudeDegrees>-0.23211359046399593353271484375</LongitudeDegrees>
            </Position>
            <AltitudeMeters>1607.4000244140625</AltitudeMeters>
            <DistanceMeters>NAN</DistanceMeters>
          </Trackpoint>
          <Trackpoint>
            <Time>2021-07-18T11:18:56.000Z</Time>
            <Position>
              <LatitudeDegrees>42.71844084374606609344482421875</LatitudeDegrees>
              <LongitudeDegrees>-0.2321383170783519744873046875</LongitudeDegrees>
            </Position>
            <AltitudeMeters>1606.800048828125</AltitudeMeters>
            <DistanceMeters>NAN</DistanceMeters>
          </Trackpoint>
          <Trackpoint>
            <Time>2021-07-18T11:19:04.000Z</Time>
            <Position>
              <LatitudeDegrees>42.7184353955090045928955078125</LatitudeDegrees>
              <LongitudeDegrees>-0.23220227099955081939697265625</LongitudeDegrees>
            </Position>
            <AltitudeMeters>1605.4000244140625</AltitudeMeters>
            <DistanceMeters>NAN</DistanceMeters>
          </Trackpoint>
          <Trackpoint>
            <Time>2021-07-18T11:19:08.000Z</Time>
            <Position>
              <LatitudeDegrees>42.71843061782419681549072265625</LatitudeDegrees>
              <LongitudeDegrees>-0.23223630152642726898193359375</LongitudeDegrees>
            </Position>
            <AltitudeMeters>1604.5999755859375</AltitudeMeters>
            <DistanceMeters>NAN</DistanceMeters>
          </Trackpoint>
          <Trackpoint>
            <Time>2021-07-18T11:19:17.000Z</Time>
            <Position>
              <LatitudeDegrees>42.71844067610800266265869140625</LatitudeDegrees>
              <LongitudeDegrees>-0.23231945000588893890380859375</LongitudeDegrees>
            </Position>
            <AltitudeMeters>1602.4000244140625</AltitudeMeters>
            <DistanceMeters>NAN</DistanceMeters>
          </Trackpoint>
          <Trackpoint>
            <Time>2021-07-18T11:19:19.000Z</Time>
            <Position>
              <LatitudeDegrees>42.71844469942152500152587890625</LatitudeDegrees>
              <LongitudeDegrees>-0.23233923129737377166748046875</LongitudeDegrees>
            </Position>
            <AltitudeMeters>1601.800048828125</AltitudeMeters>
            <DistanceMeters>NAN</DistanceMeters>
          </Trackpoint>
          <Trackpoint>
            <Time>2021-07-18T11:19:24.000Z</Time>
            <Position>
              <LatitudeDegrees>42.71845542825758457183837890625</LatitudeDegrees>
              <LongitudeDegrees>-0.23240645416080951690673828125</LongitudeDegrees>
            </Position>
            <AltitudeMeters>1600</AltitudeMeters>
            <DistanceMeters>NAN</DistanceMeters>
          </Trackpoint>
          <Trackpoint>
            <Time>2021-07-18T11:19:25.000Z</Time>
            <Position>
              <LatitudeDegrees>42.71845425479114055633544921875</LatitudeDegrees>
              <LongitudeDegrees>-0.23240980692207813262939453125</LongitudeDegrees>
            </Position>
            <AltitudeMeters>1600</AltitudeMeters>
            <DistanceMeters>NAN</DistanceMeters>
          </Trackpoint>
          <Trackpoint>
            <Time>2021-07-18T11:19:33.000Z</Time>
            <Position>
              <LatitudeDegrees>42.71845626644790172576904296875</LatitudeDegrees>
              <LongitudeDegrees>-0.2324699051678180694580078125</LongitudeDegrees>
            </Position>
            <AltitudeMeters>1598.5999755859375</AltitudeMeters>
            <DistanceMeters>NAN</DistanceMeters>
          </Trackpoint>
          <Trackpoint>
            <Time>2021-07-18T11:19:36.000Z</Time>
            <Position>
              <LatitudeDegrees>42.7184592001140117645263671875</LatitudeDegrees>
              <LongitudeDegrees>-0.2324883453547954559326171875</LongitudeDegrees>
            </Position>
            <AltitudeMeters>1598.199951171875</AltitudeMeters>
            <DistanceMeters>NAN</DistanceMeters>
          </Trackpoint>
          <Trackpoint>
            <Time>2021-07-18T11:19:44.000Z</Time>
            <Position>
              <LatitudeDegrees>42.71845174022018909454345703125</LatitudeDegrees>
              <LongitudeDegrees>-0.232563279569149017333984375</LongitudeDegrees>
            </Position>
            <AltitudeMeters>1596.5999755859375</AltitudeMeters>
            <DistanceMeters>NAN</DistanceMeters>
          </Trackpoint>
          <Trackpoint>
            <Time>2021-07-18T11:19:53.000Z</Time>
            <Position>
              <LatitudeDegrees>42.71848308853805065155029296875</LatitudeDegrees>
              <LongitudeDegrees>-0.23266109637916088104248046875</LongitudeDegrees>
            </Position>
            <AltitudeMeters>1594.199951171875</AltitudeMeters>
            <DistanceMeters>NAN</DistanceMeters>
          </Trackpoint>
          <Trackpoint>
            <Time>2021-07-18T11:19:58.000Z</Time>
            <Position>
              <LatitudeDegrees>42.7184955775737762451171875</LatitudeDegrees>
              <LongitudeDegrees>-0.2327180095016956329345703125</LongitudeDegrees>
            </Position>
            <AltitudeMeters>1593</AltitudeMeters>
            <DistanceMeters>NAN</DistanceMeters>
          </Trackpoint>
          <Trackpoint>
            <Time>2021-07-18T11:20:00.000Z</Time>
            <Position>
              <LatitudeDegrees>42.71849532611668109893798828125</LatitudeDegrees>
              <LongitudeDegrees>-0.2327406406402587890625</LongitudeDegrees>
            </Position>
            <AltitudeMeters>1592.4000244140625</AltitudeMeters>
            <DistanceMeters>NAN</DistanceMeters>
          </Trackpoint>
          <Trackpoint>
            <Time>2021-07-18T11:20:06.000Z</Time>
            <Position>
              <LatitudeDegrees>42.7184928953647613525390625</LatitudeDegrees>
              <LongitudeDegrees>-0.23277140222489833831787109375</LongitudeDegrees>
            </Position>
            <AltitudeMeters>1591.5999755859375</AltitudeMeters>
            <DistanceMeters>NAN</DistanceMeters>
          </Trackpoint>
          <Trackpoint>
            <Time>2021-07-18T11:20:13.000Z</Time>
            <Position>
              <LatitudeDegrees>42.71849482320249080657958984375</LatitudeDegrees>
              <LongitudeDegrees>-0.23284348659217357635498046875</LongitudeDegrees>
            </Position>
            <AltitudeMeters>1589.800048828125</AltitudeMeters>
            <DistanceMeters>NAN</DistanceMeters>
          </Trackpoint>
          <Trackpoint>
            <Time>2021-07-18T11:20:21.000Z</Time>
            <Position>
              <LatitudeDegrees>42.718510664999485015869140625</LatitudeDegrees>
              <LongitudeDegrees>-0.23289076052606105804443359375</LongitudeDegrees>
            </Position>
            <AltitudeMeters>1588.5999755859375</AltitudeMeters>
            <DistanceMeters>NAN</DistanceMeters>
          </Trackpoint>
          <Trackpoint>
            <Time>2021-07-18T11:20:32.000Z</Time>
            <Position>
              <LatitudeDegrees>42.7185168676078319549560546875</LatitudeDegrees>
              <LongitudeDegrees>-0.2329721488058567047119140625</LongitudeDegrees>
            </Position>
            <AltitudeMeters>1587.199951171875</AltitudeMeters>
            <DistanceMeters>NAN</DistanceMeters>
          </Trackpoint>
          <Trackpoint>
            <Time>2021-07-18T11:20:40.000Z</Time>
            <Position>
              <LatitudeDegrees>42.71852214820683002471923828125</LatitudeDegrees>
              <LongitudeDegrees>-0.233013890683650970458984375</LongitudeDegrees>
            </Position>
            <AltitudeMeters>1586.199951171875</AltitudeMeters>
            <DistanceMeters>NAN</DistanceMeters>
          </Trackpoint>
          <Trackpoint>
            <Time>2021-07-18T11:20:49.000Z</Time>
            <Position>
              <LatitudeDegrees>42.7185237407684326171875</LatitudeDegrees>
              <LongitudeDegrees>-0.23304716683924198150634765625</LongitudeDegrees>
            </Position>
            <AltitudeMeters>1585.4000244140625</AltitudeMeters>
            <DistanceMeters>NAN</DistanceMeters>
          </Trackpoint>
          <Trackpoint>
            <Time>2021-07-18T11:20:59.000Z</Time>
            <Position>
              <LatitudeDegrees>42.7185148559510707855224609375</LatitudeDegrees>
              <LongitudeDegrees>-0.23311036638915538787841796875</LongitudeDegrees>
            </Position>
            <AltitudeMeters>1583.800048828125</AltitudeMeters>
            <DistanceMeters>NAN</DistanceMeters>
          </Trackpoint>
          <Trackpoint>
            <Time>2021-07-18T11:21:11.000Z</Time>
            <Position>
              <LatitudeDegrees>42.71848627366125583648681640625</LatitudeDegrees>
              <LongitudeDegrees>-0.23319418542087078094482421875</LongitudeDegrees>
            </Position>
            <AltitudeMeters>1581.5999755859375</AltitudeMeters>
            <DistanceMeters>NAN</DistanceMeters>
          </Trackpoint>
          <Trackpoint>
            <Time>2021-07-18T11:21:15.000Z</Time>
            <Position>
              <LatitudeDegrees>42.71848929114639759063720703125</LatitudeDegrees>
              <LongitudeDegrees>-0.233220420777797698974609375</LongitudeDegrees>
            </Position>
            <AltitudeMeters>1581</AltitudeMeters>
            <DistanceMeters>NAN</DistanceMeters>
          </Trackpoint>
          <Trackpoint>
            <Time>2021-07-18T11:21:22.000Z</Time>
            <Position>
              <LatitudeDegrees>42.718507982790470123291015625</LatitudeDegrees>
              <LongitudeDegrees>-0.2332685329020023345947265625</LongitudeDegrees>
            </Position>
            <AltitudeMeters>1579.800048828125</AltitudeMeters>
            <DistanceMeters>NAN</DistanceMeters>
          </Trackpoint>
          <Trackpoint>
            <Time>2021-07-18T11:21:31.000Z</Time>
            <Position>
              <LatitudeDegrees>42.71850823424756526947021484375</LatitudeDegrees>
              <LongitudeDegrees>-0.2333288826048374176025390625</LongitudeDegrees>
            </Position>
            <AltitudeMeters>1578</AltitudeMeters>
            <DistanceMeters>NAN</DistanceMeters>
          </Trackpoint>
          <Trackpoint>
            <Time>2021-07-18T11:21:36.000Z</Time>
            <Position>
              <LatitudeDegrees>42.71851376630365848541259765625</LatitudeDegrees>
              <LongitudeDegrees>-0.2333629131317138671875</LongitudeDegrees>
            </Position>
            <AltitudeMeters>1577</AltitudeMeters>
            <DistanceMeters>NAN</DistanceMeters>
          </Trackpoint>
          <Trackpoint>
            <Time>2021-07-18T11:21:37.000Z</Time>
            <Position>
              <LatitudeDegrees>42.7185182087123394012451171875</LatitudeDegrees>
              <LongitudeDegrees>-0.23336769081652164459228515625</LongitudeDegrees>
            </Position>
            <AltitudeMeters>1576.800048828125</AltitudeMeters>
            <DistanceMeters>NAN</DistanceMeters>
          </Trackpoint>
          <Trackpoint>
            <Time>2021-07-18T11:21:39.000Z</Time>
            <Position>
              <LatitudeDegrees>42.71852985955774784088134765625</LatitudeDegrees>
              <LongitudeDegrees>-0.2333803474903106689453125</LongitudeDegrees>
            </Position>
            <AltitudeMeters>1576.5999755859375</AltitudeMeters>
            <DistanceMeters>NAN</DistanceMeters>
          </Trackpoint>
          <Trackpoint>
            <Time>2021-07-18T11:21:40.000Z</Time>
            <Position>
              <LatitudeDegrees>42.71853379905223846435546875</LatitudeDegrees>
              <LongitudeDegrees>-0.23338898085057735443115234375</LongitudeDegrees>
            </Position>
            <AltitudeMeters>1576.199951171875</AltitudeMeters>
            <DistanceMeters>NAN</DistanceMeters>
          </Trackpoint>
          <Trackpoint>
            <Time>2021-07-18T11:21:47.000Z</Time>
            <Position>
              <LatitudeDegrees>42.7185678295791149139404296875</LatitudeDegrees>
              <LongitudeDegrees>-0.23341043852269649505615234375</LongitudeDegrees>
            </Position>
            <AltitudeMeters>1575.5999755859375</AltitudeMeters>
            <DistanceMeters>NAN</DistanceMeters>
          </Trackpoint>
          <Trackpoint>
            <Time>2021-07-18T11:21:53.000Z</Time>
            <Position>
              <LatitudeDegrees>42.718598842620849609375</LatitudeDegrees>
              <LongitudeDegrees>-0.23346039466559886932373046875</LongitudeDegrees>
            </Position>
            <AltitudeMeters>1574.199951171875</AltitudeMeters>
            <DistanceMeters>NAN</DistanceMeters>
          </Trackpoint>
          <Trackpoint>
            <Time>2021-07-18T11:21:59.000Z</Time>
            <Position>
              <LatitudeDegrees>42.71860621869564056396484375</LatitudeDegrees>
              <LongitudeDegrees>-0.23348570801317691802978515625</LongitudeDegrees>
            </Position>
            <AltitudeMeters>1573.4000244140625</AltitudeMeters>
            <DistanceMeters>NAN</DistanceMeters>
          </Trackpoint>
          <Trackpoint>
            <Time>2021-07-18T11:22:00.000Z</Time>
            <Position>
              <LatitudeDegrees>42.7186053805053234100341796875</LatitudeDegrees>
              <LongitudeDegrees>-0.233483612537384033203125</LongitudeDegrees>
            </Position>
            <AltitudeMeters>1573.5999755859375</AltitudeMeters>
            <DistanceMeters>NAN</DistanceMeters>
          </Trackpoint>
          <Trackpoint>
            <Time>2021-07-18T11:22:06.000Z</Time>
            <Position>
              <LatitudeDegrees>42.71858744323253631591796875</LatitudeDegrees>
              <LongitudeDegrees>-0.23346341215074062347412109375</LongitudeDegrees>
            </Position>
            <AltitudeMeters>1574.199951171875</AltitudeMeters>
            <DistanceMeters>NAN</DistanceMeters>
          </Trackpoint>
          <Trackpoint>
            <Time>2021-07-18T11:22:12.000Z</Time>
            <Position>
              <LatitudeDegrees>42.71858744323253631591796875</LatitudeDegrees>
              <LongitudeDegrees>-0.23346341215074062347412109375</LongitudeDegrees>
            </Position>
            <AltitudeMeters>1574.199951171875</AltitudeMeters>
            <DistanceMeters>NAN</DistanceMeters>
          </Trackpoint>
          <Trackpoint>
            <Time>2021-07-18T11:22:14.000Z</Time>
            <Position>
              <LatitudeDegrees>42.71858744323253631591796875</LatitudeDegrees>
              <LongitudeDegrees>-0.23346341215074062347412109375</LongitudeDegrees>
            </Position>
            <AltitudeMeters>1574.199951171875</AltitudeMeters>
            <DistanceMeters>NAN</DistanceMeters>
          </Trackpoint>
          <Trackpoint>
            <Time>2021-07-18T11:22:23.000Z</Time>
            <Position>
              <LatitudeDegrees>42.718587778508663177490234375</LatitudeDegrees>
              <LongitudeDegrees>-0.23347481153905391693115234375</LongitudeDegrees>
            </Position>
            <AltitudeMeters>1573.800048828125</AltitudeMeters>
            <DistanceMeters>NAN</DistanceMeters>
          </Trackpoint>
          <Trackpoint>
            <Time>2021-07-18T11:22:28.000Z</Time>
            <Position>
              <LatitudeDegrees>42.718587778508663177490234375</LatitudeDegrees>
              <LongitudeDegrees>-0.23347615264356136322021484375</LongitudeDegrees>
            </Position>
            <AltitudeMeters>1573.800048828125</AltitudeMeters>
            <DistanceMeters>NAN</DistanceMeters>
          </Trackpoint>
          <Trackpoint>
            <Time>2021-07-18T11:22:40.000Z</Time>
            <Position>
              <LatitudeDegrees>42.7185881137847900390625</LatitudeDegrees>
              <LongitudeDegrees>-0.23347623646259307861328125</LongitudeDegrees>
            </Position>
            <AltitudeMeters>1573.800048828125</AltitudeMeters>
            <DistanceMeters>NAN</DistanceMeters>
          </Trackpoint>
          <Trackpoint>
            <Time>2021-07-18T11:22:47.000Z</Time>
            <Position>
              <LatitudeDegrees>42.7185882814228534698486328125</LatitudeDegrees>
              <LongitudeDegrees>-0.233474560081958770751953125</LongitudeDegrees>
            </Position>
            <AltitudeMeters>1573.800048828125</AltitudeMeters>
            <DistanceMeters>NAN</DistanceMeters>
          </Trackpoint>
          <Trackpoint>
            <Time>2021-07-18T11:22:48.000Z</Time>
            <Position>
              <LatitudeDegrees>42.71858836524188518524169921875</LatitudeDegrees>
              <LongitudeDegrees>-0.23347279988229274749755859375</LongitudeDegrees>
            </Position>
            <AltitudeMeters>1573.800048828125</AltitudeMeters>
            <DistanceMeters>NAN</DistanceMeters>
          </Trackpoint>
          <Trackpoint>
            <Time>2021-07-18T11:22:51.000Z</Time>
            <Position>
              <LatitudeDegrees>42.71858886815607547760009765625</LatitudeDegrees>
              <LongitudeDegrees>-0.2334723807871341705322265625</LongitudeDegrees>
            </Position>
            <AltitudeMeters>1573.800048828125</AltitudeMeters>
            <DistanceMeters>NAN</DistanceMeters>
          </Trackpoint>
          <Trackpoint>
            <Time>2021-07-18T11:23:07.000Z</Time>
            <Position>
              <LatitudeDegrees>42.71858719177544116973876953125</LatitudeDegrees>
              <LongitudeDegrees>-0.23347129113972187042236328125</LongitudeDegrees>
            </Position>
            <AltitudeMeters>1573.800048828125</AltitudeMeters>
            <DistanceMeters>NAN</DistanceMeters>
          </Trackpoint>
          <Trackpoint>
            <Time>2021-07-18T11:23:16.000Z</Time>
            <Position>
              <LatitudeDegrees>42.71858300082385540008544921875</LatitudeDegrees>
              <LongitudeDegrees>-0.2334713749587535858154296875</LongitudeDegrees>
            </Position>
            <AltitudeMeters>1573.800048828125</AltitudeMeters>
            <DistanceMeters>NAN</DistanceMeters>
          </Trackpoint>
          <Trackpoint>
            <Time>2021-07-18T11:23:22.000Z</Time>
            <Position>
              <LatitudeDegrees>42.718593813478946685791015625</LatitudeDegrees>
              <LongitudeDegrees>-0.2335159666836261749267578125</LongitudeDegrees>
            </Position>
            <AltitudeMeters>1572.5999755859375</AltitudeMeters>
            <DistanceMeters>NAN</DistanceMeters>
          </Trackpoint>
          <Trackpoint>
            <Time>2021-07-18T11:23:29.000Z</Time>
            <Position>
              <LatitudeDegrees>42.718621306121349334716796875</LatitudeDegrees>
              <LongitudeDegrees>-0.2335659228265285491943359375</LongitudeDegrees>
            </Position>
            <AltitudeMeters>1571.4000244140625</AltitudeMeters>
            <DistanceMeters>NAN</DistanceMeters>
          </Trackpoint>
          <Trackpoint>
            <Time>2021-07-18T11:23:33.000Z</Time>
            <Position>
              <LatitudeDegrees>42.7186377346515655517578125</LatitudeDegrees>
              <LongitudeDegrees>-0.23356701247394084930419921875</LongitudeDegrees>
            </Position>
            <AltitudeMeters>1571.4000244140625</AltitudeMeters>
            <DistanceMeters>NAN</DistanceMeters>
          </Trackpoint>
          <Trackpoint>
            <Time>2021-07-18T11:23:37.000Z</Time>
            <Position>
              <LatitudeDegrees>42.71866262890398502349853515625</LatitudeDegrees>
              <LongitudeDegrees>-0.23358461447060108184814453125</LongitudeDegrees>
            </Position>
            <AltitudeMeters>1571</AltitudeMeters>
            <DistanceMeters>NAN</DistanceMeters>
          </Trackpoint>
          <Trackpoint>
            <Time>2021-07-18T11:23:43.000Z</Time>
            <Position>
              <LatitudeDegrees>42.7186699211597442626953125</LatitudeDegrees>
              <LongitudeDegrees>-0.23365502245724201202392578125</LongitudeDegrees>
            </Position>
            <AltitudeMeters>1569.4000244140625</AltitudeMeters>
            <DistanceMeters>NAN</DistanceMeters>
          </Trackpoint>
          <Trackpoint>
            <Time>2021-07-18T11:23:44.000Z</Time>
            <Position>
              <LatitudeDegrees>42.7186674065887928009033203125</LatitudeDegrees>
              <LongitudeDegrees>-0.2336685173213481903076171875</LongitudeDegrees>
            </Position>
            <AltitudeMeters>1569.199951171875</AltitudeMeters>
            <DistanceMeters>NAN</DistanceMeters>
          </Trackpoint>
          <Trackpoint>
            <Time>2021-07-18T11:23:48.000Z</Time>
            <Position>
              <LatitudeDegrees>42.71865257062017917633056640625</LatitudeDegrees>
              <LongitudeDegrees>-0.2337050624191761016845703125</LongitudeDegrees>
            </Position>
            <AltitudeMeters>1568.4000244140625</AltitudeMeters>
            <DistanceMeters>NAN</DistanceMeters>
          </Trackpoint>
          <Trackpoint>
            <Time>2021-07-18T11:23:52.000Z</Time>
            <Position>
              <LatitudeDegrees>42.71863362751901149749755859375</LatitudeDegrees>
              <LongitudeDegrees>-0.23371629416942596435546875</LongitudeDegrees>
            </Position>
            <AltitudeMeters>1568.199951171875</AltitudeMeters>
            <DistanceMeters>NAN</DistanceMeters>
          </Trackpoint>
          <Trackpoint>
            <Time>2021-07-18T11:23:59.000Z</Time>
            <Position>
              <LatitudeDegrees>42.71864854730665683746337890625</LatitudeDegrees>
              <LongitudeDegrees>-0.23376264609396457672119140625</LongitudeDegrees>
            </Position>
            <AltitudeMeters>1567.199951171875</AltitudeMeters>
            <DistanceMeters>NAN</DistanceMeters>
          </Trackpoint>
          <Trackpoint>
            <Time>2021-07-18T11:24:01.000Z</Time>
            <Position>
              <LatitudeDegrees>42.71865190006792545318603515625</LatitudeDegrees>
              <LongitudeDegrees>-0.2337687648832798004150390625</LongitudeDegrees>
            </Position>
            <AltitudeMeters>1567</AltitudeMeters>
            <DistanceMeters>NAN</DistanceMeters>
          </Trackpoint>
          <Trackpoint>
            <Time>2021-07-18T11:24:05.000Z</Time>
            <Position>
              <LatitudeDegrees>42.7186633832752704620361328125</LatitudeDegrees>
              <LongitudeDegrees>-0.23378871381282806396484375</LongitudeDegrees>
            </Position>
            <AltitudeMeters>1566.5999755859375</AltitudeMeters>
            <DistanceMeters>NAN</DistanceMeters>
          </Trackpoint>
          <Trackpoint>
            <Time>2021-07-18T11:24:10.000Z</Time>
            <Position>
              <LatitudeDegrees>42.7186848409473896026611328125</LatitudeDegrees>
              <LongitudeDegrees>-0.23381419479846954345703125</LongitudeDegrees>
            </Position>
            <AltitudeMeters>1566</AltitudeMeters>
            <DistanceMeters>NAN</DistanceMeters>
          </Trackpoint>
          <Trackpoint>
            <Time>2021-07-18T11:24:12.000Z</Time>
            <Position>
              <LatitudeDegrees>42.71869246847927570343017578125</LatitudeDegrees>
              <LongitudeDegrees>-0.23381888866424560546875</LongitudeDegrees>
            </Position>
            <AltitudeMeters>1566</AltitudeMeters>
            <DistanceMeters>NAN</DistanceMeters>
          </Trackpoint>
          <Trackpoint>
            <Time>2021-07-18T11:24:14.000Z</Time>
            <Position>
              <LatitudeDegrees>42.71869850344955921173095703125</LatitudeDegrees>
              <LongitudeDegrees>-0.23382450453937053680419921875</LongitudeDegrees>
            </Position>
            <AltitudeMeters>1566</AltitudeMeters>
            <DistanceMeters>NAN</DistanceMeters>
          </Trackpoint>
          <Trackpoint>
            <Time>2021-07-18T11:24:20.000Z</Time>
            <Position>
              <LatitudeDegrees>42.71871308796107769012451171875</LatitudeDegrees>
              <LongitudeDegrees>-0.23384914733469486236572265625</LongitudeDegrees>
            </Position>
            <AltitudeMeters>1565.800048828125</AltitudeMeters>
            <DistanceMeters>NAN</DistanceMeters>
          </Trackpoint>
          <Trackpoint>
            <Time>2021-07-18T11:24:26.000Z</Time>
            <Position>
              <LatitudeDegrees>42.71870118565857410430908203125</LatitudeDegrees>
              <LongitudeDegrees>-0.23390715010464191436767578125</LongitudeDegrees>
            </Position>
            <AltitudeMeters>1565.199951171875</AltitudeMeters>
            <DistanceMeters>NAN</DistanceMeters>
          </Trackpoint>
          <Trackpoint>
            <Time>2021-07-18T11:24:35.000Z</Time>
            <Position>
              <LatitudeDegrees>42.718676626682281494140625</LatitudeDegrees>
              <LongitudeDegrees>-0.23396062664687633514404296875</LongitudeDegrees>
            </Position>
            <AltitudeMeters>1564.4000244140625</AltitudeMeters>
            <DistanceMeters>NAN</DistanceMeters>
          </Trackpoint>
          <Trackpoint>
            <Time>2021-07-18T11:24:36.000Z</Time>
            <Position>
              <LatitudeDegrees>42.71866925060749053955078125</LatitudeDegrees>
              <LongitudeDegrees>-0.2339712716639041900634765625</LongitudeDegrees>
            </Position>
            <AltitudeMeters>1564.199951171875</AltitudeMeters>
            <DistanceMeters>NAN</DistanceMeters>
          </Trackpoint>
          <Trackpoint>
            <Time>2021-07-18T11:24:40.000Z</Time>
            <Position>
              <LatitudeDegrees>42.718660868704319000244140625</LatitudeDegrees>
              <LongitudeDegrees>-0.23400069214403629302978515625</LongitudeDegrees>
            </Position>
            <AltitudeMeters>1564</AltitudeMeters>
            <DistanceMeters>NAN</DistanceMeters>
          </Trackpoint>
          <Trackpoint>
            <Time>2021-07-18T11:24:41.000Z</Time>
            <Position>
              <LatitudeDegrees>42.71866011433303356170654296875</LatitudeDegrees>
              <LongitudeDegrees>-0.234011001884937286376953125</LongitudeDegrees>
            </Position>
            <AltitudeMeters>1563.800048828125</AltitudeMeters>
            <DistanceMeters>NAN</DistanceMeters>
          </Trackpoint>
          <Trackpoint>
            <Time>2021-07-18T11:24:48.000Z</Time>
            <Position>
              <LatitudeDegrees>42.7186228148639202117919921875</LatitudeDegrees>
              <LongitudeDegrees>-0.23409138433635234832763671875</LongitudeDegrees>
            </Position>
            <AltitudeMeters>1562.5999755859375</AltitudeMeters>
            <DistanceMeters>NAN</DistanceMeters>
          </Trackpoint>
          <Trackpoint>
            <Time>2021-07-18T11:24:57.000Z</Time>
            <Position>
              <LatitudeDegrees>42.718569338321685791015625</LatitudeDegrees>
              <LongitudeDegrees>-0.23420386947691440582275390625</LongitudeDegrees>
            </Position>
            <AltitudeMeters>1560.199951171875</AltitudeMeters>
            <DistanceMeters>NAN</DistanceMeters>
          </Trackpoint>
          <Trackpoint>
            <Time>2021-07-18T11:25:08.000Z</Time>
            <Position>
              <LatitudeDegrees>42.71854645572602748870849609375</LatitudeDegrees>
              <LongitudeDegrees>-0.23436069488525390625</LongitudeDegrees>
            </Position>
            <AltitudeMeters>1557.800048828125</AltitudeMeters>
            <DistanceMeters>NAN</DistanceMeters>
          </Trackpoint>
          <Trackpoint>
            <Time>2021-07-18T11:25:12.000Z</Time>
            <Position>
              <LatitudeDegrees>42.7185326255857944488525390625</LatitudeDegrees>
              <LongitudeDegrees>-0.2344183623790740966796875</LongitudeDegrees>
            </Position>
            <AltitudeMeters>1556.199951171875</AltitudeMeters>
            <DistanceMeters>NAN</DistanceMeters>
          </Trackpoint>
          <Trackpoint>
            <Time>2021-07-18T11:25:21.000Z</Time>
            <Position>
              <LatitudeDegrees>42.71851041354238986968994140625</LatitudeDegrees>
              <LongitudeDegrees>-0.23451936431229114532470703125</LongitudeDegrees>
            </Position>
            <AltitudeMeters>1553.5999755859375</AltitudeMeters>
            <DistanceMeters>NAN</DistanceMeters>
          </Trackpoint>
          <Trackpoint>
            <Time>2021-07-18T11:25:26.000Z</Time>
            <Position>
              <LatitudeDegrees>42.7184980921447277069091796875</LatitudeDegrees>
              <LongitudeDegrees>-0.23455389775335788726806640625</LongitudeDegrees>
            </Position>
            <AltitudeMeters>1552.4000244140625</AltitudeMeters>
            <DistanceMeters>NAN</DistanceMeters>
          </Trackpoint>
          <Trackpoint>
            <Time>2021-07-18T11:25:29.000Z</Time>
            <Position>
              <LatitudeDegrees>42.71849012933671474456787109375</LatitudeDegrees>
              <LongitudeDegrees>-0.23457032628357410430908203125</LongitudeDegrees>
            </Position>
            <AltitudeMeters>1552</AltitudeMeters>
            <DistanceMeters>NAN</DistanceMeters>
          </Trackpoint>
          <Trackpoint>
            <Time>2021-07-18T11:25:38.000Z</Time>
            <Position>
              <LatitudeDegrees>42.718467079102993011474609375</LatitudeDegrees>
              <LongitudeDegrees>-0.23462556302547454833984375</LongitudeDegrees>
            </Position>
            <AltitudeMeters>1550.199951171875</AltitudeMeters>
            <DistanceMeters>NAN</DistanceMeters>
          </Trackpoint>
          <Trackpoint>
            <Time>2021-07-18T11:25:44.000Z</Time>
            <Position>
              <LatitudeDegrees>42.7184514887630939483642578125</LatitudeDegrees>
              <LongitudeDegrees>-0.2346559055149555206298828125</LongitudeDegrees>
            </Position>
            <AltitudeMeters>1549.199951171875</AltitudeMeters>
            <DistanceMeters>NAN</DistanceMeters>
          </Trackpoint>
          <Trackpoint>
            <Time>2021-07-18T11:25:47.000Z</Time>
            <Position>
              <LatitudeDegrees>42.7184447832405567169189453125</LatitudeDegrees>
              <LongitudeDegrees>-0.23466940037906169891357421875</LongitudeDegrees>
            </Position>
            <AltitudeMeters>1548.800048828125</AltitudeMeters>
            <DistanceMeters>NAN</DistanceMeters>
          </Trackpoint>
          <Trackpoint>
            <Time>2021-07-18T11:25:56.000Z</Time>
            <Position>
              <LatitudeDegrees>42.71843380294740200042724609375</LatitudeDegrees>
              <LongitudeDegrees>-0.23469337262213230133056640625</LongitudeDegrees>
            </Position>
            <AltitudeMeters>1548.199951171875</AltitudeMeters>
            <DistanceMeters>NAN</DistanceMeters>
          </Trackpoint>
          <Trackpoint>
            <Time>2021-07-18T11:25:59.000Z</Time>
            <Position>
              <LatitudeDegrees>42.71842374466359615325927734375</LatitudeDegrees>
              <LongitudeDegrees>-0.2347035147249698638916015625</LongitudeDegrees>
            </Position>
            <AltitudeMeters>1547.800048828125</AltitudeMeters>
            <DistanceMeters>NAN</DistanceMeters>
          </Trackpoint>
          <Trackpoint>
            <Time>2021-07-18T11:26:06.000Z</Time>
            <Position>
              <LatitudeDegrees>42.7183847688138484954833984375</LatitudeDegrees>
              <LongitudeDegrees>-0.23472036235034465789794921875</LongitudeDegrees>
            </Position>
            <AltitudeMeters>1547.199951171875</AltitudeMeters>
            <DistanceMeters>NAN</DistanceMeters>
          </Trackpoint>
          <Trackpoint>
            <Time>2021-07-18T11:26:12.000Z</Time>
            <Position>
              <LatitudeDegrees>42.71835409104824066162109375</LatitudeDegrees>
              <LongitudeDegrees>-0.234739221632480621337890625</LongitudeDegrees>
            </Position>
            <AltitudeMeters>1546.800048828125</AltitudeMeters>
            <DistanceMeters>NAN</DistanceMeters>
          </Trackpoint>
          <Trackpoint>
            <Time>2021-07-18T11:26:18.000Z</Time>
            <Position>
              <LatitudeDegrees>42.71832869388163089752197265625</LatitudeDegrees>
              <LongitudeDegrees>-0.23478222079575061798095703125</LongitudeDegrees>
            </Position>
            <AltitudeMeters>1545.5999755859375</AltitudeMeters>
            <DistanceMeters>NAN</DistanceMeters>
          </Trackpoint>
          <Trackpoint>
            <Time>2021-07-18T11:26:23.000Z</Time>
            <Position>
              <LatitudeDegrees>42.71833389066159725189208984375</LatitudeDegrees>
              <LongitudeDegrees>-0.23479647003114223480224609375</LongitudeDegrees>
            </Position>
            <AltitudeMeters>1545.199951171875</AltitudeMeters>
            <DistanceMeters>NAN</DistanceMeters>
          </Trackpoint>
          <Trackpoint>
            <Time>2021-07-18T11:26:30.000Z</Time>
            <Position>
              <LatitudeDegrees>42.718332298099994659423828125</LatitudeDegrees>
              <LongitudeDegrees>-0.23484525270760059356689453125</LongitudeDegrees>
            </Position>
            <AltitudeMeters>1544</AltitudeMeters>
            <DistanceMeters>NAN</DistanceMeters>
          </Trackpoint>
          <Trackpoint>
            <Time>2021-07-18T11:26:36.000Z</Time>
            <Position>
              <LatitudeDegrees>42.71827203221619129180908203125</LatitudeDegrees>
              <LongitudeDegrees>-0.23488246835768222808837890625</LongitudeDegrees>
            </Position>
            <AltitudeMeters>1543.199951171875</AltitudeMeters>
            <DistanceMeters>NAN</DistanceMeters>
          </Trackpoint>
          <Trackpoint>
            <Time>2021-07-18T11:26:37.000Z</Time>
            <Position>
              <LatitudeDegrees>42.7182607166469097137451171875</LatitudeDegrees>
              <LongitudeDegrees>-0.23489001207053661346435546875</LongitudeDegrees>
            </Position>
            <AltitudeMeters>1543</AltitudeMeters>
            <DistanceMeters>NAN</DistanceMeters>
          </Trackpoint>
          <Trackpoint>
            <Time>2021-07-18T11:26:45.000Z</Time>
            <Position>
              <LatitudeDegrees>42.7181698568165302276611328125</LatitudeDegrees>
              <LongitudeDegrees>-0.2349331788718700408935546875</LongitudeDegrees>
            </Position>
            <AltitudeMeters>1541.800048828125</AltitudeMeters>
            <DistanceMeters>NAN</DistanceMeters>
          </Trackpoint>
          <Trackpoint>
            <Time>2021-07-18T11:26:52.000Z</Time>
            <Position>
              <LatitudeDegrees>42.71812585182487964630126953125</LatitudeDegrees>
              <LongitudeDegrees>-0.23493980057537555694580078125</LongitudeDegrees>
            </Position>
            <AltitudeMeters>1541.800048828125</AltitudeMeters>
            <DistanceMeters>NAN</DistanceMeters>
          </Trackpoint>
          <Trackpoint>
            <Time>2021-07-18T11:26:54.000Z</Time>
            <Position>
              <LatitudeDegrees>42.71811378188431262969970703125</LatitudeDegrees>
              <LongitudeDegrees>-0.234934352338314056396484375</LongitudeDegrees>
            </Position>
            <AltitudeMeters>1541.800048828125</AltitudeMeters>
            <DistanceMeters>NAN</DistanceMeters>
          </Trackpoint>
          <Trackpoint>
            <Time>2021-07-18T11:26:56.000Z</Time>
            <Position>
              <LatitudeDegrees>42.7180927433073520660400390625</LatitudeDegrees>
              <LongitudeDegrees>-0.23492571897804737091064453125</LongitudeDegrees>
            </Position>
            <AltitudeMeters>1541.800048828125</AltitudeMeters>
            <DistanceMeters>NAN</DistanceMeters>
          </Trackpoint>
          <Trackpoint>
            <Time>2021-07-18T11:26:58.000Z</Time>
            <Position>
              <LatitudeDegrees>42.718065083026885986328125</LatitudeDegrees>
              <LongitudeDegrees>-0.23491146974265575408935546875</LongitudeDegrees>
            </Position>
            <AltitudeMeters>1541.800048828125</AltitudeMeters>
            <DistanceMeters>NAN</DistanceMeters>
          </Trackpoint>
          <Trackpoint>
            <Time>2021-07-18T11:27:05.000Z</Time>
            <Position>
              <LatitudeDegrees>42.7179874666035175323486328125</LatitudeDegrees>
              <LongitudeDegrees>-0.2348905988037586212158203125</LongitudeDegrees>
            </Position>
            <AltitudeMeters>1541.5999755859375</AltitudeMeters>
            <DistanceMeters>NAN</DistanceMeters>
          </Trackpoint>
          <Trackpoint>
            <Time>2021-07-18T11:27:09.000Z</Time>
            <Position>
              <LatitudeDegrees>42.7179401926696300506591796875</LatitudeDegrees>
              <LongitudeDegrees>-0.2348959632217884063720703125</LongitudeDegrees>
            </Position>
            <AltitudeMeters>1541.199951171875</AltitudeMeters>
            <DistanceMeters>NAN</DistanceMeters>
          </Trackpoint>
          <Trackpoint>
            <Time>2021-07-18T11:27:14.000Z</Time>
            <Position>
              <LatitudeDegrees>42.71789870224893093109130859375</LatitudeDegrees>
              <LongitudeDegrees>-0.23492739535868167877197265625</LongitudeDegrees>
            </Position>
            <AltitudeMeters>1540.4000244140625</AltitudeMeters>
            <DistanceMeters>NAN</DistanceMeters>
          </Trackpoint>
          <Trackpoint>
            <Time>2021-07-18T11:27:15.000Z</Time>
            <Position>
              <LatitudeDegrees>42.71789568476378917694091796875</LatitudeDegrees>
              <LongitudeDegrees>-0.23493711836636066436767578125</LongitudeDegrees>
            </Position>
            <AltitudeMeters>1540.199951171875</AltitudeMeters>
            <DistanceMeters>NAN</DistanceMeters>
          </Trackpoint>
          <Trackpoint>
            <Time>2021-07-18T11:27:23.000Z</Time>
            <Position>
              <LatitudeDegrees>42.71782980300486087799072265625</LatitudeDegrees>
              <LongitudeDegrees>-0.23500886745750904083251953125</LongitudeDegrees>
            </Position>
            <AltitudeMeters>1539</AltitudeMeters>
            <DistanceMeters>NAN</DistanceMeters>
          </Trackpoint>
          <Trackpoint>
            <Time>2021-07-18T11:27:31.000Z</Time>
            <Position>
              <LatitudeDegrees>42.7177873067557811737060546875</LatitudeDegrees>
              <LongitudeDegrees>-0.2350126393139362335205078125</LongitudeDegrees>
            </Position>
            <AltitudeMeters>1538.4000244140625</AltitudeMeters>
            <DistanceMeters>NAN</DistanceMeters>
          </Trackpoint>
          <Trackpoint>
            <Time>2021-07-18T11:27:32.000Z</Time>
            <Position>
              <LatitudeDegrees>42.71777867339551448822021484375</LatitudeDegrees>
              <LongitudeDegrees>-0.23501180112361907958984375</LongitudeDegrees>
            </Position>
            <AltitudeMeters>1538.199951171875</AltitudeMeters>
            <DistanceMeters>NAN</DistanceMeters>
          </Trackpoint>
          <Trackpoint>
            <Time>2021-07-18T11:27:36.000Z</Time>
            <Position>
              <LatitudeDegrees>42.7177655138075351715087890625</LatitudeDegrees>
              <LongitudeDegrees>-0.2350367791950702667236328125</LongitudeDegrees>
            </Position>
            <AltitudeMeters>1537.800048828125</AltitudeMeters>
            <DistanceMeters>NAN</DistanceMeters>
          </Trackpoint>
          <Trackpoint>
            <Time>2021-07-18T11:27:40.000Z</Time>
            <Position>
              <LatitudeDegrees>42.717723436653614044189453125</LatitudeDegrees>
              <LongitudeDegrees>-0.23506284691393375396728515625</LongitudeDegrees>
            </Position>
            <AltitudeMeters>1536.800048828125</AltitudeMeters>
            <DistanceMeters>NAN</DistanceMeters>
          </Trackpoint>
          <Trackpoint>
            <Time>2021-07-18T11:27:47.000Z</Time>
            <Position>
              <LatitudeDegrees>42.7177011407911777496337890625</LatitudeDegrees>
              <LongitudeDegrees>-0.235079191625118255615234375</LongitudeDegrees>
            </Position>
            <AltitudeMeters>1536.4000244140625</AltitudeMeters>
            <DistanceMeters>NAN</DistanceMeters>
          </Trackpoint>
          <Trackpoint>
            <Time>2021-07-18T11:27:50.000Z</Time>
            <Position>
              <LatitudeDegrees>42.71769871003925800323486328125</LatitudeDegrees>
              <LongitudeDegrees>-0.2350760065019130706787109375</LongitudeDegrees>
            </Position>
            <AltitudeMeters>1536.4000244140625</AltitudeMeters>
            <DistanceMeters>NAN</DistanceMeters>
          </Trackpoint>
          <Trackpoint>
            <Time>2021-07-18T11:27:53.000Z</Time>
            <Position>
              <LatitudeDegrees>42.71767457015812397003173828125</LatitudeDegrees>
              <LongitudeDegrees>-0.23509788326919078826904296875</LongitudeDegrees>
            </Position>
            <AltitudeMeters>1535.800048828125</AltitudeMeters>
            <DistanceMeters>NAN</DistanceMeters>
          </Trackpoint>
          <Trackpoint>
            <Time>2021-07-18T11:28:01.000Z</Time>
            <Position>
              <LatitudeDegrees>42.7176340855658054351806640625</LatitudeDegrees>
              <LongitudeDegrees>-0.2351962029933929443359375</LongitudeDegrees>
            </Position>
            <AltitudeMeters>1534.199951171875</AltitudeMeters>
            <DistanceMeters>NAN</DistanceMeters>
          </Trackpoint>
          <Trackpoint>
            <Time>2021-07-18T11:28:03.000Z</Time>
            <Position>
              <LatitudeDegrees>42.7176307328045368194580078125</LatitudeDegrees>
              <LongitudeDegrees>-0.23520852439105510711669921875</LongitudeDegrees>
            </Position>
            <AltitudeMeters>1534</AltitudeMeters>
            <DistanceMeters>NAN</DistanceMeters>
          </Trackpoint>
          <Trackpoint>
            <Time>2021-07-18T11:28:07.000Z</Time>
            <Position>
              <LatitudeDegrees>42.7176116220653057098388671875</LatitudeDegrees>
              <LongitudeDegrees>-0.23523383773863315582275390625</LongitudeDegrees>
            </Position>
            <AltitudeMeters>1533.4000244140625</AltitudeMeters>
            <DistanceMeters>NAN</DistanceMeters>
          </Trackpoint>
          <Trackpoint>
            <Time>2021-07-18T11:28:18.000Z</Time>
            <Position>
              <LatitudeDegrees>42.71753543056547641754150390625</LatitudeDegrees>
              <LongitudeDegrees>-0.2352895773947238922119140625</LongitudeDegrees>
            </Position>
            <AltitudeMeters>1531.199951171875</AltitudeMeters>
            <DistanceMeters>NAN</DistanceMeters>
          </Trackpoint>
          <Trackpoint>
            <Time>2021-07-18T11:28:21.000Z</Time>
            <Position>
              <LatitudeDegrees>42.71752369590103626251220703125</LatitudeDegrees>
              <LongitudeDegrees>-0.23531966842710971832275390625</LongitudeDegrees>
            </Position>
            <AltitudeMeters>1530.4000244140625</AltitudeMeters>
            <DistanceMeters>NAN</DistanceMeters>
          </Trackpoint>
          <Trackpoint>
            <Time>2021-07-18T11:28:23.000Z</Time>
            <Position>
              <LatitudeDegrees>42.7175080217421054840087890625</LatitudeDegrees>
              <LongitudeDegrees>-0.235333330929279327392578125</LongitudeDegrees>
            </Position>
            <AltitudeMeters>1529.800048828125</AltitudeMeters>
            <DistanceMeters>NAN</DistanceMeters>
          </Trackpoint>
          <Trackpoint>
            <Time>2021-07-18T11:28:25.000Z</Time>
            <Position>
              <LatitudeDegrees>42.71750408224761486053466796875</LatitudeDegrees>
              <LongitudeDegrees>-0.235350430011749267578125</LongitudeDegrees>
            </Position>
            <AltitudeMeters>1529.4000244140625</AltitudeMeters>
            <DistanceMeters>NAN</DistanceMeters>
          </Trackpoint>
          <Trackpoint>
            <Time>2021-07-18T11:28:28.000Z</Time>
            <Position>
              <LatitudeDegrees>42.71751497872173786163330078125</LatitudeDegrees>
              <LongitudeDegrees>-0.235372222959995269775390625</LongitudeDegrees>
            </Position>
            <AltitudeMeters>1529.5999755859375</AltitudeMeters>
            <DistanceMeters>NAN</DistanceMeters>
          </Trackpoint>
          <Trackpoint>
            <Time>2021-07-18T11:28:35.000Z</Time>
            <Position>
              <LatitudeDegrees>42.7174892462790012359619140625</LatitudeDegrees>
              <LongitudeDegrees>-0.23542108945548534393310546875</LongitudeDegrees>
            </Position>
            <AltitudeMeters>1528</AltitudeMeters>
            <DistanceMeters>NAN</DistanceMeters>
          </Trackpoint>
          <Trackpoint>
            <Time>2021-07-18T11:28:37.000Z</Time>
            <Position>
              <LatitudeDegrees>42.71747088991105556488037109375</LatitudeDegrees>
              <LongitudeDegrees>-0.23543835617601871490478515625</LongitudeDegrees>
            </Position>
            <AltitudeMeters>1527.199951171875</AltitudeMeters>
            <DistanceMeters>NAN</DistanceMeters>
          </Trackpoint>
          <Trackpoint>
            <Time>2021-07-18T11:28:40.000Z</Time>
            <Position>
              <LatitudeDegrees>42.717448174953460693359375</LatitudeDegrees>
              <LongitudeDegrees>-0.235447324812412261962890625</LongitudeDegrees>
            </Position>
            <AltitudeMeters>1526.4000244140625</AltitudeMeters>
            <DistanceMeters>NAN</DistanceMeters>
          </Trackpoint>
          <Trackpoint>
            <Time>2021-07-18T11:28:46.000Z</Time>
            <Position>
              <LatitudeDegrees>42.717420347034931182861328125</LatitudeDegrees>
              <LongitudeDegrees>-0.23545302450656890869140625</LongitudeDegrees>
            </Position>
            <AltitudeMeters>1525.199951171875</AltitudeMeters>
            <DistanceMeters>NAN</DistanceMeters>
          </Trackpoint>
          <Trackpoint>
            <Time>2021-07-18T11:28:48.000Z</Time>
            <Position>
              <LatitudeDegrees>42.71740836091339588165283203125</LatitudeDegrees>
              <LongitudeDegrees>-0.2354555390775203704833984375</LongitudeDegrees>
            </Position>
            <AltitudeMeters>1524.800048828125</AltitudeMeters>
            <DistanceMeters>NAN</DistanceMeters>
          </Trackpoint>
          <Trackpoint>
            <Time>2021-07-18T11:29:00.000Z</Time>
            <Position>
              <LatitudeDegrees>42.717345915734767913818359375</LatitudeDegrees>
              <LongitudeDegrees>-0.2354220114648342132568359375</LongitudeDegrees>
            </Position>
            <AltitudeMeters>1523</AltitudeMeters>
            <DistanceMeters>NAN</DistanceMeters>
          </Trackpoint>
          <Trackpoint>
            <Time>2021-07-18T11:29:09.000Z</Time>
            <Position>
              <LatitudeDegrees>42.71730073727667331695556640625</LatitudeDegrees>
              <LongitudeDegrees>-0.235415138304233551025390625</LongitudeDegrees>
            </Position>
            <AltitudeMeters>1521.5999755859375</AltitudeMeters>
            <DistanceMeters>NAN</DistanceMeters>
          </Trackpoint>
          <Trackpoint>
            <Time>2021-07-18T11:29:16.000Z</Time>
            <Position>
              <LatitudeDegrees>42.71728162653744220733642578125</LatitudeDegrees>
              <LongitudeDegrees>-0.2354295551776885986328125</LongitudeDegrees>
            </Position>
            <AltitudeMeters>1520.800048828125</AltitudeMeters>
            <DistanceMeters>NAN</DistanceMeters>
          </Trackpoint>
          <Trackpoint>
            <Time>2021-07-18T11:29:23.000Z</Time>
            <Position>
              <LatitudeDegrees>42.71723468787968158721923828125</LatitudeDegrees>
              <LongitudeDegrees>-0.23541052825748920440673828125</LongitudeDegrees>
            </Position>
            <AltitudeMeters>1519</AltitudeMeters>
            <DistanceMeters>NAN</DistanceMeters>
          </Trackpoint>
          <Trackpoint>
            <Time>2021-07-18T11:29:30.000Z</Time>
            <Position>
              <LatitudeDegrees>42.7171754278242588043212890625</LatitudeDegrees>
              <LongitudeDegrees>-0.2353972010314464569091796875</LongitudeDegrees>
            </Position>
            <AltitudeMeters>1516.5999755859375</AltitudeMeters>
            <DistanceMeters>NAN</DistanceMeters>
          </Trackpoint>
          <Trackpoint>
            <Time>2021-07-18T11:29:38.000Z</Time>
            <Position>
              <LatitudeDegrees>42.7171358652412891387939453125</LatitudeDegrees>
              <LongitudeDegrees>-0.2354666031897068023681640625</LongitudeDegrees>
            </Position>
            <AltitudeMeters>1513.800048828125</AltitudeMeters>
            <DistanceMeters>NAN</DistanceMeters>
          </Trackpoint>
          <Trackpoint>
            <Time>2021-07-18T11:29:45.000Z</Time>
            <Position>
              <LatitudeDegrees>42.7171053551137447357177734375</LatitudeDegrees>
              <LongitudeDegrees>-0.23551463149487972259521484375</LongitudeDegrees>
            </Position>
            <AltitudeMeters>1511.5999755859375</AltitudeMeters>
            <DistanceMeters>NAN</DistanceMeters>
          </Trackpoint>
          <Trackpoint>
            <Time>2021-07-18T11:29:47.000Z</Time>
            <Position>
              <LatitudeDegrees>42.71709722466766834259033203125</LatitudeDegrees>
              <LongitudeDegrees>-0.23552318103611469268798828125</LongitudeDegrees>
            </Position>
            <AltitudeMeters>1511.199951171875</AltitudeMeters>
            <DistanceMeters>NAN</DistanceMeters>
          </Trackpoint>
          <Trackpoint>
            <Time>2021-07-18T11:29:48.000Z</Time>
            <Position>
              <LatitudeDegrees>42.71709269843995571136474609375</LatitudeDegrees>
              <LongitudeDegrees>-0.23552334867417812347412109375</LongitudeDegrees>
            </Position>
            <AltitudeMeters>1511</AltitudeMeters>
            <DistanceMeters>NAN</DistanceMeters>
          </Trackpoint>
          <Trackpoint>
            <Time>2021-07-18T11:29:57.000Z</Time>
            <Position>
              <LatitudeDegrees>42.7170346118509769439697265625</LatitudeDegrees>
              <LongitudeDegrees>-0.23547406308352947235107421875</LongitudeDegrees>
            </Position>
            <AltitudeMeters>1509.4000244140625</AltitudeMeters>
            <DistanceMeters>NAN</DistanceMeters>
          </Trackpoint>
          <Trackpoint>
            <Time>2021-07-18T11:30:04.000Z</Time>
            <Position>
              <LatitudeDegrees>42.7169973962008953094482421875</LatitudeDegrees>
              <LongitudeDegrees>-0.2353945188224315643310546875</LongitudeDegrees>
            </Position>
            <AltitudeMeters>1509.5999755859375</AltitudeMeters>
            <DistanceMeters>NAN</DistanceMeters>
          </Trackpoint>
          <Trackpoint>
            <Time>2021-07-18T11:30:09.000Z</Time>
            <Position>
              <LatitudeDegrees>42.716959007084369659423828125</LatitudeDegrees>
              <LongitudeDegrees>-0.235368870198726654052734375</LongitudeDegrees>
            </Position>
            <AltitudeMeters>1508.800048828125</AltitudeMeters>
            <DistanceMeters>NAN</DistanceMeters>
          </Trackpoint>
          <Trackpoint>
            <Time>2021-07-18T11:30:12.000Z</Time>
            <Position>
              <LatitudeDegrees>42.71694433875381946563720703125</LatitudeDegrees>
              <LongitudeDegrees>-0.23534749634563922882080078125</LongitudeDegrees>
            </Position>
            <AltitudeMeters>1508.800048828125</AltitudeMeters>
            <DistanceMeters>NAN</DistanceMeters>
          </Trackpoint>
          <Trackpoint>
            <Time>2021-07-18T11:30:19.000Z</Time>
            <Position>
              <LatitudeDegrees>42.7169092185795307159423828125</LatitudeDegrees>
              <LongitudeDegrees>-0.2352573908865451812744140625</LongitudeDegrees>
            </Position>
            <AltitudeMeters>1509.800048828125</AltitudeMeters>
            <DistanceMeters>NAN</DistanceMeters>
          </Trackpoint>
          <Trackpoint>
            <Time>2021-07-18T11:30:23.000Z</Time>
            <Position>
              <LatitudeDegrees>42.716887257993221282958984375</LatitudeDegrees>
              <LongitudeDegrees>-0.23521321825683116912841796875</LongitudeDegrees>
            </Position>
            <AltitudeMeters>1510.800048828125</AltitudeMeters>
            <DistanceMeters>NAN</DistanceMeters>
          </Trackpoint>
          <Trackpoint>
            <Time>2021-07-18T11:30:28.000Z</Time>
            <Position>
              <LatitudeDegrees>42.7168686501681804656982421875</LatitudeDegrees>
              <LongitudeDegrees>-0.23515001870691776275634765625</LongitudeDegrees>
            </Position>
            <AltitudeMeters>1512.5999755859375</AltitudeMeters>
            <DistanceMeters>NAN</DistanceMeters>
          </Trackpoint>
          <Trackpoint>
            <Time>2021-07-18T11:30:37.000Z</Time>
            <Position>
              <LatitudeDegrees>42.71675909869372844696044921875</LatitudeDegrees>
              <LongitudeDegrees>-0.23510509170591831207275390625</LongitudeDegrees>
            </Position>
            <AltitudeMeters>1511.800048828125</AltitudeMeters>
            <DistanceMeters>NAN</DistanceMeters>
          </Trackpoint>
          <Trackpoint>
            <Time>2021-07-18T11:30:46.000Z</Time>
            <Position>
              <LatitudeDegrees>42.71668047644197940826416015625</LatitudeDegrees>
              <LongitudeDegrees>-0.2350807003676891326904296875</LongitudeDegrees>
            </Position>
            <AltitudeMeters>1511.5999755859375</AltitudeMeters>
            <DistanceMeters>NAN</DistanceMeters>
          </Trackpoint>
          <Trackpoint>
            <Time>2021-07-18T11:30:52.000Z</Time>
            <Position>
              <LatitudeDegrees>42.71659791469573974609375</LatitudeDegrees>
              <LongitudeDegrees>-0.235081873834133148193359375</LongitudeDegrees>
            </Position>
            <AltitudeMeters>1510</AltitudeMeters>
            <DistanceMeters>NAN</DistanceMeters>
          </Trackpoint>
          <Trackpoint>
            <Time>2021-07-18T11:31:00.000Z</Time>
            <Position>
              <LatitudeDegrees>42.71654670126736164093017578125</LatitudeDegrees>
              <LongitudeDegrees>-0.23510576225817203521728515625</LongitudeDegrees>
            </Position>
            <AltitudeMeters>1508</AltitudeMeters>
            <DistanceMeters>NAN</DistanceMeters>
          </Trackpoint>
          <Trackpoint>
            <Time>2021-07-18T11:31:04.000Z</Time>
            <Position>
              <LatitudeDegrees>42.71653077565133571624755859375</LatitudeDegrees>
              <LongitudeDegrees>-0.23511531762778759002685546875</LongitudeDegrees>
            </Position>
            <AltitudeMeters>1507.4000244140625</AltitudeMeters>
            <DistanceMeters>NAN</DistanceMeters>
          </Trackpoint>
          <Trackpoint>
            <Time>2021-07-18T11:31:06.000Z</Time>
            <Position>
              <LatitudeDegrees>42.71652407012879848480224609375</LatitudeDegrees>
              <LongitudeDegrees>-0.2351162396371364593505859375</LongitudeDegrees>
            </Position>
            <AltitudeMeters>1507.199951171875</AltitudeMeters>
            <DistanceMeters>NAN</DistanceMeters>
          </Trackpoint>
          <Trackpoint>
            <Time>2021-07-18T11:31:12.000Z</Time>
            <Position>
              <LatitudeDegrees>42.7165236510336399078369140625</LatitudeDegrees>
              <LongitudeDegrees>-0.23510567843914031982421875</LongitudeDegrees>
            </Position>
            <AltitudeMeters>1507.800048828125</AltitudeMeters>
            <DistanceMeters>NAN</DistanceMeters>
          </Trackpoint>
          <Trackpoint>
            <Time>2021-07-18T11:31:17.000Z</Time>
            <Position>
              <LatitudeDegrees>42.7165229804813861846923828125</LatitudeDegrees>
              <LongitudeDegrees>-0.2351024933159351348876953125</LongitudeDegrees>
            </Position>
            <AltitudeMeters>1508</AltitudeMeters>
            <DistanceMeters>NAN</DistanceMeters>
          </Trackpoint>
          <Trackpoint>
            <Time>2021-07-18T11:31:21.000Z</Time>
            <Position>
              <LatitudeDegrees>42.71652339957654476165771484375</LatitudeDegrees>
              <LongitudeDegrees>-0.2351024933159351348876953125</LongitudeDegrees>
            </Position>
            <AltitudeMeters>1508</AltitudeMeters>
            <DistanceMeters>NAN</DistanceMeters>
          </Trackpoint>
          <Trackpoint>
            <Time>2021-07-18T11:31:23.000Z</Time>
            <Position>
              <LatitudeDegrees>42.71652407012879848480224609375</LatitudeDegrees>
              <LongitudeDegrees>-0.23510391823947429656982421875</LongitudeDegrees>
            </Position>
            <AltitudeMeters>1508</AltitudeMeters>
            <DistanceMeters>NAN</DistanceMeters>
          </Trackpoint>
          <Trackpoint>
            <Time>2021-07-18T11:31:30.000Z</Time>
            <Position>
              <LatitudeDegrees>42.716474868357181549072265625</LatitudeDegrees>
              <LongitudeDegrees>-0.235118083655834197998046875</LongitudeDegrees>
            </Position>
            <AltitudeMeters>1506.800048828125</AltitudeMeters>
            <DistanceMeters>NAN</DistanceMeters>
          </Trackpoint>
          <Trackpoint>
            <Time>2021-07-18T11:31:35.000Z</Time>
            <Position>
              <LatitudeDegrees>42.71642046980559825897216796875</LatitudeDegrees>
              <LongitudeDegrees>-0.23514297790825366973876953125</LongitudeDegrees>
            </Position>
            <AltitudeMeters>1505.199951171875</AltitudeMeters>
            <DistanceMeters>NAN</DistanceMeters>
          </Trackpoint>
          <Trackpoint>
            <Time>2021-07-18T11:31:37.000Z</Time>
            <Position>
              <LatitudeDegrees>42.71642801351845264434814453125</LatitudeDegrees>
              <LongitudeDegrees>-0.2351658605039119720458984375</LongitudeDegrees>
            </Position>
            <AltitudeMeters>1504</AltitudeMeters>
            <DistanceMeters>NAN</DistanceMeters>
          </Trackpoint>
          <Trackpoint>
            <Time>2021-07-18T11:31:43.000Z</Time>
            <Position>
              <LatitudeDegrees>42.71646355278789997100830078125</LatitudeDegrees>
              <LongitudeDegrees>-0.235200561583042144775390625</LongitudeDegrees>
            </Position>
            <AltitudeMeters>1502.4000244140625</AltitudeMeters>
            <DistanceMeters>NAN</DistanceMeters>
          </Trackpoint>
          <Trackpoint>
            <Time>2021-07-18T11:31:45.000Z</Time>
            <Position>
              <LatitudeDegrees>42.71648383699357509613037109375</LatitudeDegrees>
              <LongitudeDegrees>-0.235206596553325653076171875</LongitudeDegrees>
            </Position>
            <AltitudeMeters>1502.5999755859375</AltitudeMeters>
            <DistanceMeters>NAN</DistanceMeters>
          </Trackpoint>
          <Trackpoint>
            <Time>2021-07-18T11:31:48.000Z</Time>
            <Position>
              <LatitudeDegrees>42.71652339957654476165771484375</LatitudeDegrees>
              <LongitudeDegrees>-0.23520894348621368408203125</LongitudeDegrees>
            </Position>
            <AltitudeMeters>1503.199951171875</AltitudeMeters>
            <DistanceMeters>NAN</DistanceMeters>
          </Trackpoint>
          <Trackpoint>
            <Time>2021-07-18T11:31:51.000Z</Time>
            <Position>
              <LatitudeDegrees>42.71654762327671051025390625</LatitudeDegrees>
              <LongitudeDegrees>-0.2352218516170978546142578125</LongitudeDegrees>
            </Position>
            <AltitudeMeters>1503.199951171875</AltitudeMeters>
            <DistanceMeters>NAN</DistanceMeters>
          </Trackpoint>
          <Trackpoint>
            <Time>2021-07-18T11:31:55.000Z</Time>
            <Position>
              <LatitudeDegrees>42.71659531630575656890869140625</LatitudeDegrees>
              <LongitudeDegrees>-0.23524917662143707275390625</LongitudeDegrees>
            </Position>
            <AltitudeMeters>1503</AltitudeMeters>
            <DistanceMeters>NAN</DistanceMeters>
          </Trackpoint>
          <Trackpoint>
            <Time>2021-07-18T11:32:00.000Z</Time>
            <Position>
              <LatitudeDegrees>42.716638483107089996337890625</LatitudeDegrees>
              <LongitudeDegrees>-0.2353008091449737548828125</LongitudeDegrees>
            </Position>
            <AltitudeMeters>1502</AltitudeMeters>
            <DistanceMeters>NAN</DistanceMeters>
          </Trackpoint>
          <Trackpoint>
            <Time>2021-07-18T11:32:10.000Z</Time>
            <Position>
              <LatitudeDegrees>42.71670562215149402618408203125</LatitudeDegrees>
              <LongitudeDegrees>-0.235438607633113861083984375</LongitudeDegrees>
            </Position>
            <AltitudeMeters>1499</AltitudeMeters>
            <DistanceMeters>NAN</DistanceMeters>
          </Trackpoint>
          <Trackpoint>
            <Time>2021-07-18T11:32:11.000Z</Time>
            <Position>
              <LatitudeDegrees>42.71670947782695293426513671875</LatitudeDegrees>
              <LongitudeDegrees>-0.2354478277266025543212890625</LongitudeDegrees>
            </Position>
            <AltitudeMeters>1498.800048828125</AltitudeMeters>
            <DistanceMeters>NAN</DistanceMeters>
          </Trackpoint>
          <Trackpoint>
            <Time>2021-07-18T11:32:17.000Z</Time>
            <Position>
              <LatitudeDegrees>42.71674501709640026092529296875</LatitudeDegrees>
              <LongitudeDegrees>-0.23554866202175617218017578125</LongitudeDegrees>
            </Position>
            <AltitudeMeters>1497.4000244140625</AltitudeMeters>
            <DistanceMeters>NAN</DistanceMeters>
          </Trackpoint>
          <Trackpoint>
            <Time>2021-07-18T11:32:25.000Z</Time>
            <Position>
              <LatitudeDegrees>42.71680067293345928192138671875</LatitudeDegrees>
              <LongitudeDegrees>-0.23566466756165027618408203125</LongitudeDegrees>
            </Position>
            <AltitudeMeters>1497.4000244140625</AltitudeMeters>
            <DistanceMeters>NAN</DistanceMeters>
          </Trackpoint>
          <Trackpoint>
            <Time>2021-07-18T11:32:31.000Z</Time>
            <Position>
              <LatitudeDegrees>42.71683193743228912353515625</LatitudeDegrees>
              <LongitudeDegrees>-0.23575988598167896270751953125</LongitudeDegrees>
            </Position>
            <AltitudeMeters>1496.4000244140625</AltitudeMeters>
            <DistanceMeters>NAN</DistanceMeters>
          </Trackpoint>
          <Trackpoint>
            <Time>2021-07-18T11:32:34.000Z</Time>
            <Position>
              <LatitudeDegrees>42.7168502099812030792236328125</LatitudeDegrees>
              <LongitudeDegrees>-0.23581570945680141448974609375</LongitudeDegrees>
            </Position>
            <AltitudeMeters>1496.800048828125</AltitudeMeters>
            <DistanceMeters>NAN</DistanceMeters>
          </Trackpoint>
          <Trackpoint>
            <Time>2021-07-18T11:32:46.000Z</Time>
            <Position>
              <LatitudeDegrees>42.71691751666367053985595703125</LatitudeDegrees>
              <LongitudeDegrees>-0.23601536639034748077392578125</LongitudeDegrees>
            </Position>
            <AltitudeMeters>1496.4000244140625</AltitudeMeters>
            <DistanceMeters>NAN</DistanceMeters>
          </Trackpoint>
          <Trackpoint>
            <Time>2021-07-18T11:32:48.000Z</Time>
            <Position>
              <LatitudeDegrees>42.71692958660423755645751953125</LatitudeDegrees>
              <LongitudeDegrees>-0.23603984154760837554931640625</LongitudeDegrees>
            </Position>
            <AltitudeMeters>1496.4000244140625</AltitudeMeters>
            <DistanceMeters>NAN</DistanceMeters>
          </Trackpoint>
          <Trackpoint>
            <Time>2021-07-18T11:32:57.000Z</Time>
            <Position>
              <LatitudeDegrees>42.7169819734990596771240234375</LatitudeDegrees>
              <LongitudeDegrees>-0.23615500889718532562255859375</LongitudeDegrees>
            </Position>
            <AltitudeMeters>1496.4000244140625</AltitudeMeters>
            <DistanceMeters>NAN</DistanceMeters>
          </Trackpoint>
          <Trackpoint>
            <Time>2021-07-18T11:33:02.000Z</Time>
            <Position>
              <LatitudeDegrees>42.71699898876249790191650390625</LatitudeDegrees>
              <LongitudeDegrees>-0.2362464554607868194580078125</LongitudeDegrees>
            </Position>
            <AltitudeMeters>1495.5999755859375</AltitudeMeters>
            <DistanceMeters>NAN</DistanceMeters>
          </Trackpoint>
          <Trackpoint>
            <Time>2021-07-18T11:33:05.000Z</Time>
            <Position>
              <LatitudeDegrees>42.71700485609471797943115234375</LatitudeDegrees>
              <LongitudeDegrees>-0.2362905442714691162109375</LongitudeDegrees>
            </Position>
            <AltitudeMeters>1495.199951171875</AltitudeMeters>
            <DistanceMeters>NAN</DistanceMeters>
          </Trackpoint>
          <Trackpoint>
            <Time>2021-07-18T11:33:16.000Z</Time>
            <Position>
              <LatitudeDegrees>42.7170289121568202972412109375</LatitudeDegrees>
              <LongitudeDegrees>-0.23646044544875621795654296875</LongitudeDegrees>
            </Position>
            <AltitudeMeters>1494.5999755859375</AltitudeMeters>
            <DistanceMeters>NAN</DistanceMeters>
          </Trackpoint>
          <Trackpoint>
            <Time>2021-07-18T11:33:21.000Z</Time>
            <Position>
              <LatitudeDegrees>42.7170525491237640380859375</LatitudeDegrees>
              <LongitudeDegrees>-0.236556418240070343017578125</LongitudeDegrees>
            </Position>
            <AltitudeMeters>1494.4000244140625</AltitudeMeters>
            <DistanceMeters>NAN</DistanceMeters>
          </Trackpoint>
          <Trackpoint>
            <Time>2021-07-18T11:33:27.000Z</Time>
            <Position>
              <LatitudeDegrees>42.71706998348236083984375</LatitudeDegrees>
              <LongitudeDegrees>-0.236636884510517120361328125</LongitudeDegrees>
            </Position>
            <AltitudeMeters>1493.800048828125</AltitudeMeters>
            <DistanceMeters>NAN</DistanceMeters>
          </Trackpoint>
          <Trackpoint>
            <Time>2021-07-18T11:33:35.000Z</Time>
            <Position>
              <LatitudeDegrees>42.717125974595546722412109375</LatitudeDegrees>
              <LongitudeDegrees>-0.2367631159722805023193359375</LongitudeDegrees>
            </Position>
            <AltitudeMeters>1494.199951171875</AltitudeMeters>
            <DistanceMeters>NAN</DistanceMeters>
          </Trackpoint>
          <Trackpoint>
            <Time>2021-07-18T11:33:41.000Z</Time>
            <Position>
              <LatitudeDegrees>42.7171811275184154510498046875</LatitudeDegrees>
              <LongitudeDegrees>-0.23681768216192722320556640625</LongitudeDegrees>
            </Position>
            <AltitudeMeters>1493.199951171875</AltitudeMeters>
            <DistanceMeters>NAN</DistanceMeters>
          </Trackpoint>
          <Trackpoint>
            <Time>2021-07-18T11:33:43.000Z</Time>
            <Position>
              <LatitudeDegrees>42.7171955443918704986572265625</LatitudeDegrees>
              <LongitudeDegrees>-0.23683276958763599395751953125</LongitudeDegrees>
            </Position>
            <AltitudeMeters>1492.800048828125</AltitudeMeters>
            <DistanceMeters>NAN</DistanceMeters>
          </Trackpoint>
          <Trackpoint>
            <Time>2021-07-18T11:33:45.000Z</Time>
            <Position>
              <LatitudeDegrees>42.71721356548368930816650390625</LatitudeDegrees>
              <LongitudeDegrees>-0.2368341945111751556396484375</LongitudeDegrees>
            </Position>
            <AltitudeMeters>1492.800048828125</AltitudeMeters>
            <DistanceMeters>NAN</DistanceMeters>
          </Trackpoint>
          <Trackpoint>
            <Time>2021-07-18T11:33:53.000Z</Time>
            <Position>
              <LatitudeDegrees>42.71730601787567138671875</LatitudeDegrees>
              <LongitudeDegrees>-0.2368355356156826019287109375</LongitudeDegrees>
            </Position>
            <AltitudeMeters>1492.800048828125</AltitudeMeters>
            <DistanceMeters>NAN</DistanceMeters>
          </Trackpoint>
          <Trackpoint>
            <Time>2021-07-18T11:33:54.000Z</Time>
            <Position>
              <LatitudeDegrees>42.71731766872107982635498046875</LatitudeDegrees>
              <LongitudeDegrees>-0.23683612234890460968017578125</LongitudeDegrees>
            </Position>
            <AltitudeMeters>1492.800048828125</AltitudeMeters>
            <DistanceMeters>NAN</DistanceMeters>
          </Trackpoint>
          <Trackpoint>
            <Time>2021-07-18T11:34:03.000Z</Time>
            <Position>
              <LatitudeDegrees>42.71739310584962368011474609375</LatitudeDegrees>
              <LongitudeDegrees>-0.236830003559589385986328125</LongitudeDegrees>
            </Position>
            <AltitudeMeters>1492.5999755859375</AltitudeMeters>
            <DistanceMeters>NAN</DistanceMeters>
          </Trackpoint>
          <Trackpoint>
            <Time>2021-07-18T11:34:09.000Z</Time>
            <Position>
              <LatitudeDegrees>42.71746762096881866455078125</LatitudeDegrees>
              <LongitudeDegrees>-0.2368425764143466949462890625</LongitudeDegrees>
            </Position>
            <AltitudeMeters>1491.5999755859375</AltitudeMeters>
            <DistanceMeters>NAN</DistanceMeters>
          </Trackpoint>
          <Trackpoint>
            <Time>2021-07-18T11:34:11.000Z</Time>
            <Position>
              <LatitudeDegrees>42.71748748607933521270751953125</LatitudeDegrees>
              <LongitudeDegrees>-0.23683444596827030181884765625</LongitudeDegrees>
            </Position>
            <AltitudeMeters>1491.800048828125</AltitudeMeters>
            <DistanceMeters>NAN</DistanceMeters>
          </Trackpoint>
          <Trackpoint>
            <Time>2021-07-18T11:34:13.000Z</Time>
            <Position>
              <LatitudeDegrees>42.7175056748092174530029296875</LatitudeDegrees>
              <LongitudeDegrees>-0.23683997802436351776123046875</LongitudeDegrees>
            </Position>
            <AltitudeMeters>1491.4000244140625</AltitudeMeters>
            <DistanceMeters>NAN</DistanceMeters>
          </Trackpoint>
          <Trackpoint>
            <Time>2021-07-18T11:34:17.000Z</Time>
            <Position>
              <LatitudeDegrees>42.7175449021160602569580078125</LatitudeDegrees>
              <LongitudeDegrees>-0.23685020394623279571533203125</LongitudeDegrees>
            </Position>
            <AltitudeMeters>1490.800048828125</AltitudeMeters>
            <DistanceMeters>NAN</DistanceMeters>
          </Trackpoint>
          <Trackpoint>
            <Time>2021-07-18T11:34:21.000Z</Time>
            <Position>
              <LatitudeDegrees>42.7175807766616344451904296875</LatitudeDegrees>
              <LongitudeDegrees>-0.23686252534389495849609375</LongitudeDegrees>
            </Position>
            <AltitudeMeters>1490.4000244140625</AltitudeMeters>
            <DistanceMeters>NAN</DistanceMeters>
          </Trackpoint>
          <Trackpoint>
            <Time>2021-07-18T11:34:25.000Z</Time>
            <Position>
              <LatitudeDegrees>42.717598713934421539306640625</LatitudeDegrees>
              <LongitudeDegrees>-0.236897729337215423583984375</LongitudeDegrees>
            </Position>
            <AltitudeMeters>1489.800048828125</AltitudeMeters>
            <DistanceMeters>NAN</DistanceMeters>
          </Trackpoint>
          <Trackpoint>
            <Time>2021-07-18T11:34:26.000Z</Time>
            <Position>
              <LatitudeDegrees>42.717603407800197601318359375</LatitudeDegrees>
              <LongitudeDegrees>-0.23690116591751575469970703125</LongitudeDegrees>
            </Position>
            <AltitudeMeters>1489.800048828125</AltitudeMeters>
            <DistanceMeters>NAN</DistanceMeters>
          </Trackpoint>
          <Trackpoint>
            <Time>2021-07-18T11:34:30.000Z</Time>
            <Position>
              <LatitudeDegrees>42.717635594308376312255859375</LatitudeDegrees>
              <LongitudeDegrees>-0.2369342744350433349609375</LongitudeDegrees>
            </Position>
            <AltitudeMeters>1489.4000244140625</AltitudeMeters>
            <DistanceMeters>NAN</DistanceMeters>
          </Trackpoint>
          <Trackpoint>
            <Time>2021-07-18T11:34:39.000Z</Time>
            <Position>
              <LatitudeDegrees>42.71772444248199462890625</LatitudeDegrees>
              <LongitudeDegrees>-0.23702538572251796722412109375</LongitudeDegrees>
            </Position>
            <AltitudeMeters>1488.199951171875</AltitudeMeters>
            <DistanceMeters>NAN</DistanceMeters>
          </Trackpoint>
          <Trackpoint>
            <Time>2021-07-18T11:34:49.000Z</Time>
            <Position>
              <LatitudeDegrees>42.71783399395644664764404296875</LatitudeDegrees>
              <LongitudeDegrees>-0.23711876012384891510009765625</LongitudeDegrees>
            </Position>
            <AltitudeMeters>1486.5999755859375</AltitudeMeters>
            <DistanceMeters>NAN</DistanceMeters>
          </Trackpoint>
          <Trackpoint>
            <Time>2021-07-18T11:34:55.000Z</Time>
            <Position>
              <LatitudeDegrees>42.71789099089801311492919921875</LatitudeDegrees>
              <LongitudeDegrees>-0.23720291443169116973876953125</LongitudeDegrees>
            </Position>
            <AltitudeMeters>1485.800048828125</AltitudeMeters>
            <DistanceMeters>NAN</DistanceMeters>
          </Trackpoint>
          <Trackpoint>
            <Time>2021-07-18T11:34:56.000Z</Time>
            <Position>
              <LatitudeDegrees>42.7178979478776454925537109375</LatitudeDegrees>
              <LongitudeDegrees>-0.2372147329151630401611328125</LongitudeDegrees>
            </Position>
            <AltitudeMeters>1485.5999755859375</AltitudeMeters>
            <DistanceMeters>NAN</DistanceMeters>
          </Trackpoint>
          <Trackpoint>
            <Time>2021-07-18T11:34:57.000Z</Time>
            <Position>
              <LatitudeDegrees>42.717903815209865570068359375</LatitudeDegrees>
              <LongitudeDegrees>-0.2372217737138271331787109375</LongitudeDegrees>
            </Position>
            <AltitudeMeters>1485.5999755859375</AltitudeMeters>
            <DistanceMeters>NAN</DistanceMeters>
          </Trackpoint>
          <Trackpoint>
            <Time>2021-07-18T11:35:00.000Z</Time>
            <Position>
              <LatitudeDegrees>42.717920579016208648681640625</LatitudeDegrees>
              <LongitudeDegrees>-0.23725924082100391387939453125</LongitudeDegrees>
            </Position>
            <AltitudeMeters>1485.199951171875</AltitudeMeters>
            <DistanceMeters>NAN</DistanceMeters>
          </Trackpoint>
          <Trackpoint>
            <Time>2021-07-18T11:35:07.000Z</Time>
            <Position>
              <LatitudeDegrees>42.71797455847263336181640625</LatitudeDegrees>
              <LongitudeDegrees>-0.237349011003971099853515625</LongitudeDegrees>
            </Position>
            <AltitudeMeters>1484</AltitudeMeters>
            <DistanceMeters>NAN</DistanceMeters>
          </Trackpoint>
          <Trackpoint>
            <Time>2021-07-18T11:35:13.000Z</Time>
            <Position>
              <LatitudeDegrees>42.71802510134875774383544921875</LatitudeDegrees>
              <LongitudeDegrees>-0.23742235265672206878662109375</LongitudeDegrees>
            </Position>
            <AltitudeMeters>1482.4000244140625</AltitudeMeters>
            <DistanceMeters>NAN</DistanceMeters>
          </Trackpoint>
          <Trackpoint>
            <Time>2021-07-18T11:35:14.000Z</Time>
            <Position>
              <LatitudeDegrees>42.718023844063282012939453125</LatitudeDegrees>
              <LongitudeDegrees>-0.237431824207305908203125</LongitudeDegrees>
            </Position>
            <AltitudeMeters>1482.4000244140625</AltitudeMeters>
            <DistanceMeters>NAN</DistanceMeters>
          </Trackpoint>
          <Trackpoint>
            <Time>2021-07-18T11:35:17.000Z</Time>
            <Position>
              <LatitudeDegrees>42.718037255108356475830078125</LatitudeDegrees>
              <LongitudeDegrees>-0.23745931684970855712890625</LongitudeDegrees>
            </Position>
            <AltitudeMeters>1482.5999755859375</AltitudeMeters>
            <DistanceMeters>NAN</DistanceMeters>
          </Trackpoint>
          <Trackpoint>
            <Time>2021-07-18T11:35:22.000Z</Time>
            <Position>
              <LatitudeDegrees>42.71807782351970672607421875</LatitudeDegrees>
              <LongitudeDegrees>-0.23752100765705108642578125</LongitudeDegrees>
            </Position>
            <AltitudeMeters>1481.800048828125</AltitudeMeters>
            <DistanceMeters>NAN</DistanceMeters>
          </Trackpoint>
          <Trackpoint>
            <Time>2021-07-18T11:35:27.000Z</Time>
            <Position>
              <LatitudeDegrees>42.71812534891068935394287109375</LatitudeDegrees>
              <LongitudeDegrees>-0.23759988136589527130126953125</LongitudeDegrees>
            </Position>
            <AltitudeMeters>1479.199951171875</AltitudeMeters>
            <DistanceMeters>NAN</DistanceMeters>
          </Trackpoint>
          <Trackpoint>
            <Time>2021-07-18T11:35:32.000Z</Time>
            <Position>
              <LatitudeDegrees>42.7181725390255451202392578125</LatitudeDegrees>
              <LongitudeDegrees>-0.23764279671013355255126953125</LongitudeDegrees>
            </Position>
            <AltitudeMeters>1478.4000244140625</AltitudeMeters>
            <DistanceMeters>NAN</DistanceMeters>
          </Trackpoint>
          <Trackpoint>
            <Time>2021-07-18T11:35:37.000Z</Time>
            <Position>
              <LatitudeDegrees>42.71823096089065074920654296875</LatitudeDegrees>
              <LongitudeDegrees>-0.237680263817310333251953125</LongitudeDegrees>
            </Position>
            <AltitudeMeters>1476.800048828125</AltitudeMeters>
            <DistanceMeters>NAN</DistanceMeters>
          </Trackpoint>
          <Trackpoint>
            <Time>2021-07-18T11:35:39.000Z</Time>
            <Position>
              <LatitudeDegrees>42.7182546816766262054443359375</LatitudeDegrees>
              <LongitudeDegrees>-0.23769929073750972747802734375</LongitudeDegrees>
            </Position>
            <AltitudeMeters>1476.199951171875</AltitudeMeters>
            <DistanceMeters>NAN</DistanceMeters>
          </Trackpoint>
          <Trackpoint>
            <Time>2021-07-18T11:35:41.000Z</Time>
            <Position>
              <LatitudeDegrees>42.71827789954841136932373046875</LatitudeDegrees>
              <LongitudeDegrees>-0.23771571926772594451904296875</LongitudeDegrees>
            </Position>
            <AltitudeMeters>1475.800048828125</AltitudeMeters>
            <DistanceMeters>NAN</DistanceMeters>
          </Trackpoint>
          <Trackpoint>
            <Time>2021-07-18T11:35:42.000Z</Time>
            <Position>
              <LatitudeDegrees>42.7182892151176929473876953125</LatitudeDegrees>
              <LongitudeDegrees>-0.2377228438854217529296875</LongitudeDegrees>
            </Position>
            <AltitudeMeters>1475.5999755859375</AltitudeMeters>
            <DistanceMeters>NAN</DistanceMeters>
          </Trackpoint>
          <Trackpoint>
            <Time>2021-07-18T11:35:48.000Z</Time>
            <Position>
              <LatitudeDegrees>42.71835434250533580780029296875</LatitudeDegrees>
              <LongitudeDegrees>-0.23774438537657260894775390625</LongitudeDegrees>
            </Position>
            <AltitudeMeters>1475.199951171875</AltitudeMeters>
            <DistanceMeters>NAN</DistanceMeters>
          </Trackpoint>
          <Trackpoint>
            <Time>2021-07-18T11:35:50.000Z</Time>
            <Position>
              <LatitudeDegrees>42.718371860682964324951171875</LatitudeDegrees>
              <LongitudeDegrees>-0.23774941451847553253173828125</LongitudeDegrees>
            </Position>
            <AltitudeMeters>1474.800048828125</AltitudeMeters>
            <DistanceMeters>NAN</DistanceMeters>
          </Trackpoint>
          <Trackpoint>
            <Time>2021-07-18T11:35:59.000Z</Time>
            <Position>
              <LatitudeDegrees>42.71847546100616455078125</LatitudeDegrees>
              <LongitudeDegrees>-0.237753354012966156005859375</LongitudeDegrees>
            </Position>
            <AltitudeMeters>1473.800048828125</AltitudeMeters>
            <DistanceMeters>NAN</DistanceMeters>
          </Trackpoint>
          <Trackpoint>
            <Time>2021-07-18T11:36:07.000Z</Time>
            <Position>
              <LatitudeDegrees>42.718573026359081268310546875</LatitudeDegrees>
              <LongitudeDegrees>-0.2377776615321636199951171875</LongitudeDegrees>
            </Position>
            <AltitudeMeters>1473</AltitudeMeters>
            <DistanceMeters>NAN</DistanceMeters>
          </Trackpoint>
          <Trackpoint>
            <Time>2021-07-18T11:36:16.000Z</Time>
            <Position>
              <LatitudeDegrees>42.718676626682281494140625</LatitudeDegrees>
              <LongitudeDegrees>-0.23777070455253124237060546875</LongitudeDegrees>
            </Position>
            <AltitudeMeters>1472</AltitudeMeters>
            <DistanceMeters>NAN</DistanceMeters>
          </Trackpoint>
          <Trackpoint>
            <Time>2021-07-18T11:36:25.000Z</Time>
            <Position>
              <LatitudeDegrees>42.718785591423511505126953125</LatitudeDegrees>
              <LongitudeDegrees>-0.23772460408508777618408203125</LongitudeDegrees>
            </Position>
            <AltitudeMeters>1471.800048828125</AltitudeMeters>
            <DistanceMeters>NAN</DistanceMeters>
          </Trackpoint>
          <Trackpoint>
            <Time>2021-07-18T11:36:33.000Z</Time>
            <Position>
              <LatitudeDegrees>42.71888927556574344635009765625</LatitudeDegrees>
              <LongitudeDegrees>-0.237658135592937469482421875</LongitudeDegrees>
            </Position>
            <AltitudeMeters>1471.800048828125</AltitudeMeters>
            <DistanceMeters>NAN</DistanceMeters>
          </Trackpoint>
          <Trackpoint>
            <Time>2021-07-18T11:36:34.000Z</Time>
            <Position>
              <LatitudeDegrees>42.71890251897275447845458984375</LatitudeDegrees>
              <LongitudeDegrees>-0.23765243589878082275390625</LongitudeDegrees>
            </Position>
            <AltitudeMeters>1471.800048828125</AltitudeMeters>
            <DistanceMeters>NAN</DistanceMeters>
          </Trackpoint>
          <Trackpoint>
            <Time>2021-07-18T11:36:39.000Z</Time>
            <Position>
              <LatitudeDegrees>42.7189470268785953521728515625</LatitudeDegrees>
              <LongitudeDegrees>-0.237599797546863555908203125</LongitudeDegrees>
            </Position>
            <AltitudeMeters>1471.800048828125</AltitudeMeters>
            <DistanceMeters>NAN</DistanceMeters>
          </Trackpoint>
          <Trackpoint>
            <Time>2021-07-18T11:36:42.000Z</Time>
            <Position>
              <LatitudeDegrees>42.71896420978009700775146484375</LatitudeDegrees>
              <LongitudeDegrees>-0.2375644259154796600341796875</LongitudeDegrees>
            </Position>
            <AltitudeMeters>1472.199951171875</AltitudeMeters>
            <DistanceMeters>NAN</DistanceMeters>
          </Trackpoint>
          <Trackpoint>
            <Time>2021-07-18T11:36:46.000Z</Time>
            <Position>
              <LatitudeDegrees>42.71898315288126468658447265625</LatitudeDegrees>
              <LongitudeDegrees>-0.23750600405037403106689453125</LongitudeDegrees>
            </Position>
            <AltitudeMeters>1473</AltitudeMeters>
            <DistanceMeters>NAN</DistanceMeters>
          </Trackpoint>
          <Trackpoint>
            <Time>2021-07-18T11:36:47.000Z</Time>
            <Position>
              <LatitudeDegrees>42.7189966477453708648681640625</LatitudeDegrees>
              <LongitudeDegrees>-0.23749561049044132232666015625</LongitudeDegrees>
            </Position>
            <AltitudeMeters>1473.4000244140625</AltitudeMeters>
            <DistanceMeters>NAN</DistanceMeters>
          </Trackpoint>
          <Trackpoint>
            <Time>2021-07-18T11:36:50.000Z</Time>
            <Position>
              <LatitudeDegrees>42.71902606822550296783447265625</LatitudeDegrees>
              <LongitudeDegrees>-0.23745772428810596466064453125</LongitudeDegrees>
            </Position>
            <AltitudeMeters>1474.199951171875</AltitudeMeters>
            <DistanceMeters>NAN</DistanceMeters>
          </Trackpoint>
          <Trackpoint>
            <Time>2021-07-18T11:36:53.000Z</Time>
            <Position>
              <LatitudeDegrees>42.7190754376351833343505859375</LatitudeDegrees>
              <LongitudeDegrees>-0.23743878118693828582763671875</LongitudeDegrees>
            </Position>
            <AltitudeMeters>1475.199951171875</AltitudeMeters>
            <DistanceMeters>NAN</DistanceMeters>
          </Trackpoint>
          <Trackpoint>
            <Time>2021-07-18T11:37:03.000Z</Time>
            <Position>
              <LatitudeDegrees>42.71916948258876800537109375</LatitudeDegrees>
              <LongitudeDegrees>-0.23747499100863933563232421875</LongitudeDegrees>
            </Position>
            <AltitudeMeters>1476.5999755859375</AltitudeMeters>
            <DistanceMeters>NAN</DistanceMeters>
          </Trackpoint>
          <Trackpoint>
            <Time>2021-07-18T11:37:09.000Z</Time>
            <Position>
              <LatitudeDegrees>42.71923762746155261993408203125</LatitudeDegrees>
              <LongitudeDegrees>-0.2375511825084686279296875</LongitudeDegrees>
            </Position>
            <AltitudeMeters>1477.199951171875</AltitudeMeters>
            <DistanceMeters>NAN</DistanceMeters>
          </Trackpoint>
          <Trackpoint>
            <Time>2021-07-18T11:37:12.000Z</Time>
            <Position>
              <LatitudeDegrees>42.71924793720245361328125</LatitudeDegrees>
              <LongitudeDegrees>-0.2376046590507030487060546875</LongitudeDegrees>
            </Position>
            <AltitudeMeters>1477.199951171875</AltitudeMeters>
            <DistanceMeters>NAN</DistanceMeters>
          </Trackpoint>
          <Trackpoint>
            <Time>2021-07-18T11:37:16.000Z</Time>
            <Position>
              <LatitudeDegrees>42.71924056112766265869140625</LatitudeDegrees>
              <LongitudeDegrees>-0.2376787550747394561767578125</LongitudeDegrees>
            </Position>
            <AltitudeMeters>1476</AltitudeMeters>
            <DistanceMeters>NAN</DistanceMeters>
          </Trackpoint>
          <Trackpoint>
            <Time>2021-07-18T11:37:18.000Z</Time>
            <Position>
              <LatitudeDegrees>42.71921642124652862548828125</LatitudeDegrees>
              <LongitudeDegrees>-0.237718485295772552490234375</LongitudeDegrees>
            </Position>
            <AltitudeMeters>1474.800048828125</AltitudeMeters>
            <DistanceMeters>NAN</DistanceMeters>
          </Trackpoint>
          <Trackpoint>
            <Time>2021-07-18T11:37:26.000Z</Time>
            <Position>
              <LatitudeDegrees>42.7191686443984508514404296875</LatitudeDegrees>
              <LongitudeDegrees>-0.23785754106938838958740234375</LongitudeDegrees>
            </Position>
            <AltitudeMeters>1473.5999755859375</AltitudeMeters>
            <DistanceMeters>NAN</DistanceMeters>
          </Trackpoint>
          <Trackpoint>
            <Time>2021-07-18T11:37:28.000Z</Time>
            <Position>
              <LatitudeDegrees>42.719156742095947265625</LatitudeDegrees>
              <LongitudeDegrees>-0.2378904819488525390625</LongitudeDegrees>
            </Position>
            <AltitudeMeters>1473.4000244140625</AltitudeMeters>
            <DistanceMeters>NAN</DistanceMeters>
          </Trackpoint>
          <Trackpoint>
            <Time>2021-07-18T11:37:30.000Z</Time>
            <Position>
              <LatitudeDegrees>42.71915129385888576507568359375</LatitudeDegrees>
              <LongitudeDegrees>-0.23792979307472705841064453125</LongitudeDegrees>
            </Position>
            <AltitudeMeters>1473</AltitudeMeters>
            <DistanceMeters>NAN</DistanceMeters>
          </Trackpoint>
          <Trackpoint>
            <Time>2021-07-18T11:37:32.000Z</Time>
            <Position>
              <LatitudeDegrees>42.7191525511443614959716796875</LatitudeDegrees>
              <LongitudeDegrees>-0.23797371424734592437744140625</LongitudeDegrees>
            </Position>
            <AltitudeMeters>1473</AltitudeMeters>
            <DistanceMeters>NAN</DistanceMeters>
          </Trackpoint>
          <Trackpoint>
            <Time>2021-07-18T11:37:34.000Z</Time>
            <Position>
              <LatitudeDegrees>42.71914425306022167205810546875</LatitudeDegrees>
              <LongitudeDegrees>-0.238008163869380950927734375</LongitudeDegrees>
            </Position>
            <AltitudeMeters>1472.5999755859375</AltitudeMeters>
            <DistanceMeters>NAN</DistanceMeters>
          </Trackpoint>
          <Trackpoint>
            <Time>2021-07-18T11:37:43.000Z</Time>
            <Position>
              <LatitudeDegrees>42.719114162027835845947265625</LatitudeDegrees>
              <LongitudeDegrees>-0.23812676779925823211669921875</LongitudeDegrees>
            </Position>
            <AltitudeMeters>1471</AltitudeMeters>
            <DistanceMeters>NAN</DistanceMeters>
          </Trackpoint>
          <Trackpoint>
            <Time>2021-07-18T11:37:50.000Z</Time>
            <Position>
              <LatitudeDegrees>42.71911273710429668426513671875</LatitudeDegrees>
              <LongitudeDegrees>-0.23823573254048824310302734375</LongitudeDegrees>
            </Position>
            <AltitudeMeters>1470.199951171875</AltitudeMeters>
            <DistanceMeters>NAN</DistanceMeters>
          </Trackpoint>
          <Trackpoint>
            <Time>2021-07-18T11:37:53.000Z</Time>
            <Position>
              <LatitudeDegrees>42.719112150371074676513671875</LatitudeDegrees>
              <LongitudeDegrees>-0.238270349800586700439453125</LongitudeDegrees>
            </Position>
            <AltitudeMeters>1469.800048828125</AltitudeMeters>
            <DistanceMeters>NAN</DistanceMeters>
          </Trackpoint>
          <Trackpoint>
            <Time>2021-07-18T11:37:59.000Z</Time>
            <Position>
              <LatitudeDegrees>42.71909463219344615936279296875</LatitudeDegrees>
              <LongitudeDegrees>-0.23836079053580760955810546875</LongitudeDegrees>
            </Position>
            <AltitudeMeters>1468.800048828125</AltitudeMeters>
            <DistanceMeters>NAN</DistanceMeters>
          </Trackpoint>
          <Trackpoint>
            <Time>2021-07-18T11:38:04.000Z</Time>
            <Position>
              <LatitudeDegrees>42.71909748204052448272705078125</LatitudeDegrees>
              <LongitudeDegrees>-0.23844142444431781768798828125</LongitudeDegrees>
            </Position>
            <AltitudeMeters>1468</AltitudeMeters>
            <DistanceMeters>NAN</DistanceMeters>
          </Trackpoint>
          <Trackpoint>
            <Time>2021-07-18T11:38:07.000Z</Time>
            <Position>
              <LatitudeDegrees>42.71910100243985652923583984375</LatitudeDegrees>
              <LongitudeDegrees>-0.2384391613304615020751953125</LongitudeDegrees>
            </Position>
            <AltitudeMeters>1468</AltitudeMeters>
            <DistanceMeters>NAN</DistanceMeters>
          </Trackpoint>
          <Trackpoint>
            <Time>2021-07-18T11:38:10.000Z</Time>
            <Position>
              <LatitudeDegrees>42.71910821087658405303955078125</LatitudeDegrees>
              <LongitudeDegrees>-0.238431282341480255126953125</LongitudeDegrees>
            </Position>
            <AltitudeMeters>1468.199951171875</AltitudeMeters>
            <DistanceMeters>NAN</DistanceMeters>
          </Trackpoint>
          <Trackpoint>
            <Time>2021-07-18T11:38:19.000Z</Time>
            <Position>
              <LatitudeDegrees>42.71911541931331157684326171875</LatitudeDegrees>
              <LongitudeDegrees>-0.23842851631343364715576171875</LongitudeDegrees>
            </Position>
            <AltitudeMeters>1468.4000244140625</AltitudeMeters>
            <DistanceMeters>NAN</DistanceMeters>
          </Trackpoint>
          <Trackpoint>
            <Time>2021-07-18T11:38:23.000Z</Time>
            <Position>
              <LatitudeDegrees>42.7191592566668987274169921875</LatitudeDegrees>
              <LongitudeDegrees>-0.2384797297418117523193359375</LongitudeDegrees>
            </Position>
            <AltitudeMeters>1468.199951171875</AltitudeMeters>
            <DistanceMeters>NAN</DistanceMeters>
          </Trackpoint>
          <Trackpoint>
            <Time>2021-07-18T11:38:25.000Z</Time>
            <Position>
              <LatitudeDegrees>42.7191833965480327606201171875</LatitudeDegrees>
              <LongitudeDegrees>-0.23851074278354644775390625</LongitudeDegrees>
            </Position>
            <AltitudeMeters>1468</AltitudeMeters>
            <DistanceMeters>NAN</DistanceMeters>
          </Trackpoint>
          <Trackpoint>
            <Time>2021-07-18T11:38:28.000Z</Time>
            <Position>
              <LatitudeDegrees>42.71920812316238880157470703125</LatitudeDegrees>
              <LongitudeDegrees>-0.23856212384998798370361328125</LongitudeDegrees>
            </Position>
            <AltitudeMeters>1467.5999755859375</AltitudeMeters>
            <DistanceMeters>NAN</DistanceMeters>
          </Trackpoint>
          <Trackpoint>
            <Time>2021-07-18T11:38:32.000Z</Time>
            <Position>
              <LatitudeDegrees>42.719245590269565582275390625</LatitudeDegrees>
              <LongitudeDegrees>-0.23861040361225605010986328125</LongitudeDegrees>
            </Position>
            <AltitudeMeters>1468</AltitudeMeters>
            <DistanceMeters>NAN</DistanceMeters>
          </Trackpoint>
          <Trackpoint>
            <Time>2021-07-18T11:38:41.000Z</Time>
            <Position>
              <LatitudeDegrees>42.719320356845855712890625</LatitudeDegrees>
              <LongitudeDegrees>-0.23870763368904590606689453125</LongitudeDegrees>
            </Position>
            <AltitudeMeters>1469.4000244140625</AltitudeMeters>
            <DistanceMeters>NAN</DistanceMeters>
          </Trackpoint>
          <Trackpoint>
            <Time>2021-07-18T11:38:50.000Z</Time>
            <Position>
              <LatitudeDegrees>42.71940945647656917572021484375</LatitudeDegrees>
              <LongitudeDegrees>-0.238845013082027435302734375</LongitudeDegrees>
            </Position>
            <AltitudeMeters>1470</AltitudeMeters>
            <DistanceMeters>NAN</DistanceMeters>
          </Trackpoint>
          <Trackpoint>
            <Time>2021-07-18T11:38:58.000Z</Time>
            <Position>
              <LatitudeDegrees>42.7194442413747310638427734375</LatitudeDegrees>
              <LongitudeDegrees>-0.23895800113677978515625</LongitudeDegrees>
            </Position>
            <AltitudeMeters>1470</AltitudeMeters>
            <DistanceMeters>NAN</DistanceMeters>
          </Trackpoint>
          <Trackpoint>
            <Time>2021-07-18T11:39:06.000Z</Time>
            <Position>
              <LatitudeDegrees>42.71949159912765026092529296875</LatitudeDegrees>
              <LongitudeDegrees>-0.23907937109470367431640625</LongitudeDegrees>
            </Position>
            <AltitudeMeters>1470</AltitudeMeters>
            <DistanceMeters>NAN</DistanceMeters>
          </Trackpoint>
          <Trackpoint>
            <Time>2021-07-18T11:39:09.000Z</Time>
            <Position>
              <LatitudeDegrees>42.7195112966001033782958984375</LatitudeDegrees>
              <LongitudeDegrees>-0.239136032760143280029296875</LongitudeDegrees>
            </Position>
            <AltitudeMeters>1469.800048828125</AltitudeMeters>
            <DistanceMeters>NAN</DistanceMeters>
          </Trackpoint>
          <Trackpoint>
            <Time>2021-07-18T11:39:20.000Z</Time>
            <Position>
              <LatitudeDegrees>42.71958564408123493194580078125</LatitudeDegrees>
              <LongitudeDegrees>-0.23931582458317279815673828125</LongitudeDegrees>
            </Position>
            <AltitudeMeters>1470.800048828125</AltitudeMeters>
            <DistanceMeters>NAN</DistanceMeters>
          </Trackpoint>
          <Trackpoint>
            <Time>2021-07-18T11:39:30.000Z</Time>
            <Position>
              <LatitudeDegrees>42.719635181128978729248046875</LatitudeDegrees>
              <LongitudeDegrees>-0.23947357200086116790771484375</LongitudeDegrees>
            </Position>
            <AltitudeMeters>1471</AltitudeMeters>
            <DistanceMeters>NAN</DistanceMeters>
          </Trackpoint>
          <Trackpoint>
            <Time>2021-07-18T11:39:43.000Z</Time>
            <Position>
              <LatitudeDegrees>42.71972293965518474578857421875</LatitudeDegrees>
              <LongitudeDegrees>-0.2396835386753082275390625</LongitudeDegrees>
            </Position>
            <AltitudeMeters>1472.4000244140625</AltitudeMeters>
            <DistanceMeters>NAN</DistanceMeters>
          </Trackpoint>
          <Trackpoint>
            <Time>2021-07-18T11:39:51.000Z</Time>
            <Position>
              <LatitudeDegrees>42.719740457832813262939453125</LatitudeDegrees>
              <LongitudeDegrees>-0.2398070879280567169189453125</LongitudeDegrees>
            </Position>
            <AltitudeMeters>1472</AltitudeMeters>
            <DistanceMeters>NAN</DistanceMeters>
          </Trackpoint>
          <Trackpoint>
            <Time>2021-07-18T11:40:04.000Z</Time>
            <Position>
              <LatitudeDegrees>42.71977188996970653533935546875</LatitudeDegrees>
              <LongitudeDegrees>-0.24004228413105010986328125</LongitudeDegrees>
            </Position>
            <AltitudeMeters>1471.199951171875</AltitudeMeters>
            <DistanceMeters>NAN</DistanceMeters>
          </Trackpoint>
          <Trackpoint>
            <Time>2021-07-18T11:40:15.000Z</Time>
            <Position>
              <LatitudeDegrees>42.7198137156665325164794921875</LatitudeDegrees>
              <LongitudeDegrees>-0.24024085141718387603759765625</LongitudeDegrees>
            </Position>
            <AltitudeMeters>1471.199951171875</AltitudeMeters>
            <DistanceMeters>NAN</DistanceMeters>
          </Trackpoint>
          <Trackpoint>
            <Time>2021-07-18T11:40:23.000Z</Time>
            <Position>
              <LatitudeDegrees>42.71981321275234222412109375</LatitudeDegrees>
              <LongitudeDegrees>-0.2403581142425537109375</LongitudeDegrees>
            </Position>
            <AltitudeMeters>1469.800048828125</AltitudeMeters>
            <DistanceMeters>NAN</DistanceMeters>
          </Trackpoint>
          <Trackpoint>
            <Time>2021-07-18T11:40:24.000Z</Time>
            <Position>
              <LatitudeDegrees>42.7198170684278011322021484375</LatitudeDegrees>
              <LongitudeDegrees>-0.24037697352468967437744140625</LongitudeDegrees>
            </Position>
            <AltitudeMeters>1469.800048828125</AltitudeMeters>
            <DistanceMeters>NAN</DistanceMeters>
          </Trackpoint>
          <Trackpoint>
            <Time>2021-07-18T11:40:31.000Z</Time>
            <Position>
              <LatitudeDegrees>42.719843387603759765625</LatitudeDegrees>
              <LongitudeDegrees>-0.2405074797570705413818359375</LongitudeDegrees>
            </Position>
            <AltitudeMeters>1469.800048828125</AltitudeMeters>
            <DistanceMeters>NAN</DistanceMeters>
          </Trackpoint>
          <Trackpoint>
            <Time>2021-07-18T11:40:35.000Z</Time>
            <Position>
              <LatitudeDegrees>42.7198529429733753204345703125</LatitudeDegrees>
              <LongitudeDegrees>-0.24059423245489597320556640625</LongitudeDegrees>
            </Position>
            <AltitudeMeters>1469.800048828125</AltitudeMeters>
            <DistanceMeters>NAN</DistanceMeters>
          </Trackpoint>
          <Trackpoint>
            <Time>2021-07-18T11:40:39.000Z</Time>
            <Position>
              <LatitudeDegrees>42.7198683656752109527587890625</LatitudeDegrees>
              <LongitudeDegrees>-0.240671597421169281005859375</LongitudeDegrees>
            </Position>
            <AltitudeMeters>1470</AltitudeMeters>
            <DistanceMeters>NAN</DistanceMeters>
          </Trackpoint>
          <Trackpoint>
            <Time>2021-07-18T11:40:47.000Z</Time>
            <Position>
              <LatitudeDegrees>42.71991924382746219635009765625</LatitudeDegrees>
              <LongitudeDegrees>-0.24078383110463619232177734375</LongitudeDegrees>
            </Position>
            <AltitudeMeters>1470.4000244140625</AltitudeMeters>
            <DistanceMeters>NAN</DistanceMeters>
          </Trackpoint>
          <Trackpoint>
            <Time>2021-07-18T11:40:58.000Z</Time>
            <Position>
              <LatitudeDegrees>42.71997959353029727935791015625</LatitudeDegrees>
              <LongitudeDegrees>-0.2409629523754119873046875</LongitudeDegrees>
            </Position>
            <AltitudeMeters>1469.4000244140625</AltitudeMeters>
            <DistanceMeters>NAN</DistanceMeters>
          </Trackpoint>
          <Trackpoint>
            <Time>2021-07-18T11:41:12.000Z</Time>
            <Position>
              <LatitudeDegrees>42.72006995044648647308349609375</LatitudeDegrees>
              <LongitudeDegrees>-0.24117845110595226287841796875</LongitudeDegrees>
            </Position>
            <AltitudeMeters>1468.199951171875</AltitudeMeters>
            <DistanceMeters>NAN</DistanceMeters>
          </Trackpoint>
          <Trackpoint>
            <Time>2021-07-18T11:41:22.000Z</Time>
            <Position>
              <LatitudeDegrees>42.72018310613930225372314453125</LatitudeDegrees>
              <LongitudeDegrees>-0.24128858931362628936767578125</LongitudeDegrees>
            </Position>
            <AltitudeMeters>1470.199951171875</AltitudeMeters>
            <DistanceMeters>NAN</DistanceMeters>
          </Trackpoint>
          <Trackpoint>
            <Time>2021-07-18T11:41:36.000Z</Time>
            <Position>
              <LatitudeDegrees>42.72033498622477054595947265625</LatitudeDegrees>
              <LongitudeDegrees>-0.24145019240677356719970703125</LongitudeDegrees>
            </Position>
            <AltitudeMeters>1474</AltitudeMeters>
            <DistanceMeters>NAN</DistanceMeters>
          </Trackpoint>
          <Trackpoint>
            <Time>2021-07-18T11:41:49.000Z</Time>
            <Position>
              <LatitudeDegrees>42.72044529207050800323486328125</LatitudeDegrees>
              <LongitudeDegrees>-0.2416222728788852691650390625</LongitudeDegrees>
            </Position>
            <AltitudeMeters>1474.5999755859375</AltitudeMeters>
            <DistanceMeters>NAN</DistanceMeters>
          </Trackpoint>
          <Trackpoint>
            <Time>2021-07-18T11:41:54.000Z</Time>
            <Position>
              <LatitudeDegrees>42.72045719437301158905029296875</LatitudeDegrees>
              <LongitudeDegrees>-0.2416898310184478759765625</LongitudeDegrees>
            </Position>
            <AltitudeMeters>1472.800048828125</AltitudeMeters>
            <DistanceMeters>NAN</DistanceMeters>
          </Trackpoint>
          <Trackpoint>
            <Time>2021-07-18T11:41:58.000Z</Time>
            <Position>
              <LatitudeDegrees>42.7204550988972187042236328125</LatitudeDegrees>
              <LongitudeDegrees>-0.241742469370365142822265625</LongitudeDegrees>
            </Position>
            <AltitudeMeters>1471</AltitudeMeters>
            <DistanceMeters>NAN</DistanceMeters>
          </Trackpoint>
          <Trackpoint>
            <Time>2021-07-18T11:42:11.000Z</Time>
            <Position>
              <LatitudeDegrees>42.7204326353967189788818359375</LatitudeDegrees>
              <LongitudeDegrees>-0.24192787706851959228515625</LongitudeDegrees>
            </Position>
            <AltitudeMeters>1464.800048828125</AltitudeMeters>
            <DistanceMeters>NAN</DistanceMeters>
          </Trackpoint>
          <Trackpoint>
            <Time>2021-07-18T11:42:16.000Z</Time>
            <Position>
              <LatitudeDegrees>42.72043950855731964111328125</LatitudeDegrees>
              <LongitudeDegrees>-0.2420007996261119842529296875</LongitudeDegrees>
            </Position>
            <AltitudeMeters>1463</AltitudeMeters>
            <DistanceMeters>NAN</DistanceMeters>
          </Trackpoint>
          <Trackpoint>
            <Time>2021-07-18T11:42:19.000Z</Time>
            <Position>
              <LatitudeDegrees>42.7204455435276031494140625</LatitudeDegrees>
              <LongitudeDegrees>-0.2420465648174285888671875</LongitudeDegrees>
            </Position>
            <AltitudeMeters>1461.800048828125</AltitudeMeters>
            <DistanceMeters>NAN</DistanceMeters>
          </Trackpoint>
          <Trackpoint>
            <Time>2021-07-18T11:42:22.000Z</Time>
            <Position>
              <LatitudeDegrees>42.72045803256332874298095703125</LatitudeDegrees>
              <LongitudeDegrees>-0.24208051152527332305908203125</LongitudeDegrees>
            </Position>
            <AltitudeMeters>1461.4000244140625</AltitudeMeters>
            <DistanceMeters>NAN</DistanceMeters>
          </Trackpoint>
          <Trackpoint>
            <Time>2021-07-18T11:42:33.000Z</Time>
            <Position>
              <LatitudeDegrees>42.7205218188464641571044921875</LatitudeDegrees>
              <LongitudeDegrees>-0.24222082458436489105224609375</LongitudeDegrees>
            </Position>
            <AltitudeMeters>1461.199951171875</AltitudeMeters>
            <DistanceMeters>NAN</DistanceMeters>
          </Trackpoint>
          <Trackpoint>
            <Time>2021-07-18T11:42:43.000Z</Time>
            <Position>
              <LatitudeDegrees>42.7205831743776798248291015625</LatitudeDegrees>
              <LongitudeDegrees>-0.2423592098057270050048828125</LongitudeDegrees>
            </Position>
            <AltitudeMeters>1459.199951171875</AltitudeMeters>
            <DistanceMeters>NAN</DistanceMeters>
          </Trackpoint>
          <Trackpoint>
            <Time>2021-07-18T11:42:46.000Z</Time>
            <Position>
              <LatitudeDegrees>42.7205992676317691802978515625</LatitudeDegrees>
              <LongitudeDegrees>-0.24240170605480670928955078125</LongitudeDegrees>
            </Position>
            <AltitudeMeters>1458.4000244140625</AltitudeMeters>
            <DistanceMeters>NAN</DistanceMeters>
          </Trackpoint>
          <Trackpoint>
            <Time>2021-07-18T11:42:55.000Z</Time>
            <Position>
              <LatitudeDegrees>42.72066883742809295654296875</LatitudeDegrees>
              <LongitudeDegrees>-0.24253346957266330718994140625</LongitudeDegrees>
            </Position>
            <AltitudeMeters>1459.199951171875</AltitudeMeters>
            <DistanceMeters>NAN</DistanceMeters>
          </Trackpoint>
          <Trackpoint>
            <Time>2021-07-18T11:42:56.000Z</Time>
            <Position>
              <LatitudeDegrees>42.72067747078835964202880859375</LatitudeDegrees>
              <LongitudeDegrees>-0.24254302494227886199951171875</LongitudeDegrees>
            </Position>
            <AltitudeMeters>1459.4000244140625</AltitudeMeters>
            <DistanceMeters>NAN</DistanceMeters>
          </Trackpoint>
          <Trackpoint>
            <Time>2021-07-18T11:42:59.000Z</Time>
            <Position>
              <LatitudeDegrees>42.7206968329846858978271484375</LatitudeDegrees>
              <LongitudeDegrees>-0.2425855211913585662841796875</LongitudeDegrees>
            </Position>
            <AltitudeMeters>1459.800048828125</AltitudeMeters>
            <DistanceMeters>NAN</DistanceMeters>
          </Trackpoint>
          <Trackpoint>
            <Time>2021-07-18T11:43:07.000Z</Time>
            <Position>
              <LatitudeDegrees>42.7207432687282562255859375</LatitudeDegrees>
              <LongitudeDegrees>-0.24272717535495758056640625</LongitudeDegrees>
            </Position>
            <AltitudeMeters>1459</AltitudeMeters>
            <DistanceMeters>NAN</DistanceMeters>
          </Trackpoint>
          <Trackpoint>
            <Time>2021-07-18T11:43:17.000Z</Time>
            <Position>
              <LatitudeDegrees>42.72078819572925567626953125</LatitudeDegrees>
              <LongitudeDegrees>-0.24287779815495014190673828125</LongitudeDegrees>
            </Position>
            <AltitudeMeters>1458</AltitudeMeters>
            <DistanceMeters>NAN</DistanceMeters>
          </Trackpoint>
          <Trackpoint>
            <Time>2021-07-18T11:43:19.000Z</Time>
            <Position>
              <LatitudeDegrees>42.7207967452704906463623046875</LatitudeDegrees>
              <LongitudeDegrees>-0.24291484616696834564208984375</LongitudeDegrees>
            </Position>
            <AltitudeMeters>1457.5999755859375</AltitudeMeters>
            <DistanceMeters>NAN</DistanceMeters>
          </Trackpoint>
          <Trackpoint>
            <Time>2021-07-18T11:43:30.000Z</Time>
            <Position>
              <LatitudeDegrees>42.72083287127315998077392578125</LatitudeDegrees>
              <LongitudeDegrees>-0.2430867590010166168212890625</LongitudeDegrees>
            </Position>
            <AltitudeMeters>1455.5999755859375</AltitudeMeters>
            <DistanceMeters>NAN</DistanceMeters>
          </Trackpoint>
          <Trackpoint>
            <Time>2021-07-18T11:43:40.000Z</Time>
            <Position>
              <LatitudeDegrees>42.72093362174928188323974609375</LatitudeDegrees>
              <LongitudeDegrees>-0.2432067878544330596923828125</LongitudeDegrees>
            </Position>
            <AltitudeMeters>1457.5999755859375</AltitudeMeters>
            <DistanceMeters>NAN</DistanceMeters>
          </Trackpoint>
          <Trackpoint>
            <Time>2021-07-18T11:43:49.000Z</Time>
            <Position>
              <LatitudeDegrees>42.72100218571722507476806640625</LatitudeDegrees>
              <LongitudeDegrees>-0.24329622276127338409423828125</LongitudeDegrees>
            </Position>
            <AltitudeMeters>1461.199951171875</AltitudeMeters>
            <DistanceMeters>NAN</DistanceMeters>
          </Trackpoint>
          <Trackpoint>
            <Time>2021-07-18T11:43:58.000Z</Time>
            <Position>
              <LatitudeDegrees>42.72103219293057918548583984375</LatitudeDegrees>
              <LongitudeDegrees>-0.243440978229045867919921875</LongitudeDegrees>
            </Position>
            <AltitudeMeters>1462.5999755859375</AltitudeMeters>
            <DistanceMeters>NAN</DistanceMeters>
          </Trackpoint>
          <Trackpoint>
            <Time>2021-07-18T11:44:08.000Z</Time>
            <Position>
              <LatitudeDegrees>42.7209744416177272796630859375</LatitudeDegrees>
              <LongitudeDegrees>-0.2435947023332118988037109375</LongitudeDegrees>
            </Position>
            <AltitudeMeters>1458.800048828125</AltitudeMeters>
            <DistanceMeters>NAN</DistanceMeters>
          </Trackpoint>
          <Trackpoint>
            <Time>2021-07-18T11:44:17.000Z</Time>
            <Position>
              <LatitudeDegrees>42.72095910273492336273193359375</LatitudeDegrees>
              <LongitudeDegrees>-0.24374448694288730621337890625</LongitudeDegrees>
            </Position>
            <AltitudeMeters>1459.4000244140625</AltitudeMeters>
            <DistanceMeters>NAN</DistanceMeters>
          </Trackpoint>
          <Trackpoint>
            <Time>2021-07-18T11:44:28.000Z</Time>
            <Position>
              <LatitudeDegrees>42.72095306776463985443115234375</LatitudeDegrees>
              <LongitudeDegrees>-0.24393877945840358734130859375</LongitudeDegrees>
            </Position>
            <AltitudeMeters>1458.5999755859375</AltitudeMeters>
            <DistanceMeters>NAN</DistanceMeters>
          </Trackpoint>
          <Trackpoint>
            <Time>2021-07-18T11:44:39.000Z</Time>
            <Position>
              <LatitudeDegrees>42.72097234614193439483642578125</LatitudeDegrees>
              <LongitudeDegrees>-0.24412821047008037567138671875</LongitudeDegrees>
            </Position>
            <AltitudeMeters>1458.4000244140625</AltitudeMeters>
            <DistanceMeters>NAN</DistanceMeters>
          </Trackpoint>
          <Trackpoint>
            <Time>2021-07-18T11:44:45.000Z</Time>
            <Position>
              <LatitudeDegrees>42.72095055319368839263916015625</LatitudeDegrees>
              <LongitudeDegrees>-0.24422653019428253173828125</LongitudeDegrees>
            </Position>
            <AltitudeMeters>1456</AltitudeMeters>
            <DistanceMeters>NAN</DistanceMeters>
          </Trackpoint>
          <Trackpoint>
            <Time>2021-07-18T11:44:47.000Z</Time>
            <Position>
              <LatitudeDegrees>42.72095239721238613128662109375</LatitudeDegrees>
              <LongitudeDegrees>-0.24426114745438098907470703125</LongitudeDegrees>
            </Position>
            <AltitudeMeters>1455.5999755859375</AltitudeMeters>
            <DistanceMeters>NAN</DistanceMeters>
          </Trackpoint>
          <Trackpoint>
            <Time>2021-07-18T11:44:55.000Z</Time>
            <Position>
              <LatitudeDegrees>42.72094736807048320770263671875</LatitudeDegrees>
              <LongitudeDegrees>-0.2444144524633884429931640625</LongitudeDegrees>
            </Position>
            <AltitudeMeters>1453.5999755859375</AltitudeMeters>
            <DistanceMeters>NAN</DistanceMeters>
          </Trackpoint>
          <Trackpoint>
            <Time>2021-07-18T11:45:04.000Z</Time>
            <Position>
              <LatitudeDegrees>42.7209632098674774169921875</LatitudeDegrees>
              <LongitudeDegrees>-0.24456641636788845062255859375</LongitudeDegrees>
            </Position>
            <AltitudeMeters>1453.800048828125</AltitudeMeters>
            <DistanceMeters>NAN</DistanceMeters>
          </Trackpoint>
          <Trackpoint>
            <Time>2021-07-18T11:45:12.000Z</Time>
            <Position>
              <LatitudeDegrees>42.721030600368976593017578125</LatitudeDegrees>
              <LongitudeDegrees>-0.244660712778568267822265625</LongitudeDegrees>
            </Position>
            <AltitudeMeters>1455.4000244140625</AltitudeMeters>
            <DistanceMeters>NAN</DistanceMeters>
          </Trackpoint>
          <Trackpoint>
            <Time>2021-07-18T11:45:18.000Z</Time>
            <Position>
              <LatitudeDegrees>42.7210844121873378753662109375</LatitudeDegrees>
              <LongitudeDegrees>-0.2447151951491832733154296875</LongitudeDegrees>
            </Position>
            <AltitudeMeters>1458</AltitudeMeters>
            <DistanceMeters>NAN</DistanceMeters>
          </Trackpoint>
          <Trackpoint>
            <Time>2021-07-18T11:45:21.000Z</Time>
            <Position>
              <LatitudeDegrees>42.72112322039902210235595703125</LatitudeDegrees>
              <LongitudeDegrees>-0.2447497285902500152587890625</LongitudeDegrees>
            </Position>
            <AltitudeMeters>1459.5999755859375</AltitudeMeters>
            <DistanceMeters>NAN</DistanceMeters>
          </Trackpoint>
          <Trackpoint>
            <Time>2021-07-18T11:45:25.000Z</Time>
            <Position>
              <LatitudeDegrees>42.7211563289165496826171875</LatitudeDegrees>
              <LongitudeDegrees>-0.2447809092700481414794921875</LongitudeDegrees>
            </Position>
            <AltitudeMeters>1460.800048828125</AltitudeMeters>
            <DistanceMeters>NAN</DistanceMeters>
          </Trackpoint>
          <Trackpoint>
            <Time>2021-07-18T11:45:28.000Z</Time>
            <Position>
              <LatitudeDegrees>42.72117577493190765380859375</LatitudeDegrees>
              <LongitudeDegrees>-0.24481527507305145263671875</LongitudeDegrees>
            </Position>
            <AltitudeMeters>1461.5999755859375</AltitudeMeters>
            <DistanceMeters>NAN</DistanceMeters>
          </Trackpoint>
          <Trackpoint>
            <Time>2021-07-18T11:45:31.000Z</Time>
            <Position>
              <LatitudeDegrees>42.7211799658834934234619140625</LatitudeDegrees>
              <LongitudeDegrees>-0.24487839080393314361572265625</LongitudeDegrees>
            </Position>
            <AltitudeMeters>1462</AltitudeMeters>
            <DistanceMeters>NAN</DistanceMeters>
          </Trackpoint>
          <Trackpoint>
            <Time>2021-07-18T11:45:38.000Z</Time>
            <Position>
              <LatitudeDegrees>42.72118289954960346221923828125</LatitudeDegrees>
              <LongitudeDegrees>-0.2450157701969146728515625</LongitudeDegrees>
            </Position>
            <AltitudeMeters>1463.199951171875</AltitudeMeters>
            <DistanceMeters>NAN</DistanceMeters>
          </Trackpoint>
          <Trackpoint>
            <Time>2021-07-18T11:45:45.000Z</Time>
            <Position>
              <LatitudeDegrees>42.72110746242105960845947265625</LatitudeDegrees>
              <LongitudeDegrees>-0.24508542381227016448974609375</LongitudeDegrees>
            </Position>
            <AltitudeMeters>1461.199951171875</AltitudeMeters>
            <DistanceMeters>NAN</DistanceMeters>
          </Trackpoint>
          <Trackpoint>
            <Time>2021-07-18T11:45:55.000Z</Time>
            <Position>
              <LatitudeDegrees>42.72101408801972866058349609375</LatitudeDegrees>
              <LongitudeDegrees>-0.24517796002328395843505859375</LongitudeDegrees>
            </Position>
            <AltitudeMeters>1458.4000244140625</AltitudeMeters>
            <DistanceMeters>NAN</DistanceMeters>
          </Trackpoint>
          <Trackpoint>
            <Time>2021-07-18T11:46:03.000Z</Time>
            <Position>
              <LatitudeDegrees>42.7209268324077129364013671875</LatitudeDegrees>
              <LongitudeDegrees>-0.24525708518922328948974609375</LongitudeDegrees>
            </Position>
            <AltitudeMeters>1455.4000244140625</AltitudeMeters>
            <DistanceMeters>NAN</DistanceMeters>
          </Trackpoint>
          <Trackpoint>
            <Time>2021-07-18T11:46:10.000Z</Time>
            <Position>
              <LatitudeDegrees>42.72088064812123775482177734375</LatitudeDegrees>
              <LongitudeDegrees>-0.24535314179956912994384765625</LongitudeDegrees>
            </Position>
            <AltitudeMeters>1454</AltitudeMeters>
            <DistanceMeters>NAN</DistanceMeters>
          </Trackpoint>
          <Trackpoint>
            <Time>2021-07-18T11:46:12.000Z</Time>
            <Position>
              <LatitudeDegrees>42.7208788879215717315673828125</LatitudeDegrees>
              <LongitudeDegrees>-0.24538616649806499481201171875</LongitudeDegrees>
            </Position>
            <AltitudeMeters>1454</AltitudeMeters>
            <DistanceMeters>NAN</DistanceMeters>
          </Trackpoint>
          <Trackpoint>
            <Time>2021-07-18T11:46:22.000Z</Time>
            <Position>
              <LatitudeDegrees>42.72092138417065143585205078125</LatitudeDegrees>
              <LongitudeDegrees>-0.24557308293879032135009765625</LongitudeDegrees>
            </Position>
            <AltitudeMeters>1454.4000244140625</AltitudeMeters>
            <DistanceMeters>NAN</DistanceMeters>
          </Trackpoint>
          <Trackpoint>
            <Time>2021-07-18T11:46:29.000Z</Time>
            <Position>
              <LatitudeDegrees>42.72095574997365474700927734375</LatitudeDegrees>
              <LongitudeDegrees>-0.2456760965287685394287109375</LongitudeDegrees>
            </Position>
            <AltitudeMeters>1453.800048828125</AltitudeMeters>
            <DistanceMeters>NAN</DistanceMeters>
          </Trackpoint>
          <Trackpoint>
            <Time>2021-07-18T11:46:37.000Z</Time>
            <Position>
              <LatitudeDegrees>42.72100352682173252105712890625</LatitudeDegrees>
              <LongitudeDegrees>-0.24579755030572414398193359375</LongitudeDegrees>
            </Position>
            <AltitudeMeters>1453.199951171875</AltitudeMeters>
            <DistanceMeters>NAN</DistanceMeters>
          </Trackpoint>
          <Trackpoint>
            <Time>2021-07-18T11:46:42.000Z</Time>
            <Position>
              <LatitudeDegrees>42.72104392759501934051513671875</LatitudeDegrees>
              <LongitudeDegrees>-0.245858319103717803955078125</LongitudeDegrees>
            </Position>
            <AltitudeMeters>1453.4000244140625</AltitudeMeters>
            <DistanceMeters>NAN</DistanceMeters>
          </Trackpoint>
          <Trackpoint>
            <Time>2021-07-18T11:46:46.000Z</Time>
            <Position>
              <LatitudeDegrees>42.7210736833512783050537109375</LatitudeDegrees>
              <LongitudeDegrees>-0.24592193774878978729248046875</LongitudeDegrees>
            </Position>
            <AltitudeMeters>1453</AltitudeMeters>
            <DistanceMeters>NAN</DistanceMeters>
          </Trackpoint>
          <Trackpoint>
            <Time>2021-07-18T11:46:54.000Z</Time>
            <Position>
              <LatitudeDegrees>42.72114467807114124298095703125</LatitudeDegrees>
              <LongitudeDegrees>-0.24603023193776607513427734375</LongitudeDegrees>
            </Position>
            <AltitudeMeters>1453.199951171875</AltitudeMeters>
            <DistanceMeters>NAN</DistanceMeters>
          </Trackpoint>
          <Trackpoint>
            <Time>2021-07-18T11:47:05.000Z</Time>
            <Position>
              <LatitudeDegrees>42.72122807800769805908203125</LatitudeDegrees>
              <LongitudeDegrees>-0.2461964450776576995849609375</LongitudeDegrees>
            </Position>
            <AltitudeMeters>1452.5999755859375</AltitudeMeters>
            <DistanceMeters>NAN</DistanceMeters>
          </Trackpoint>
          <Trackpoint>
            <Time>2021-07-18T11:47:14.000Z</Time>
            <Position>
              <LatitudeDegrees>42.7213030122220516204833984375</LatitudeDegrees>
              <LongitudeDegrees>-0.246328376233577728271484375</LongitudeDegrees>
            </Position>
            <AltitudeMeters>1454</AltitudeMeters>
            <DistanceMeters>NAN</DistanceMeters>
          </Trackpoint>
          <Trackpoint>
            <Time>2021-07-18T11:47:26.000Z</Time>
            <Position>
              <LatitudeDegrees>42.721388004720211029052734375</LatitudeDegrees>
              <LongitudeDegrees>-0.24650213308632373809814453125</LongitudeDegrees>
            </Position>
            <AltitudeMeters>1456.4000244140625</AltitudeMeters>
            <DistanceMeters>NAN</DistanceMeters>
          </Trackpoint>
          <Trackpoint>
            <Time>2021-07-18T11:47:35.000Z</Time>
            <Position>
              <LatitudeDegrees>42.7214478515088558197021484375</LatitudeDegrees>
              <LongitudeDegrees>-0.24664646945893764495849609375</LongitudeDegrees>
            </Position>
            <AltitudeMeters>1458.199951171875</AltitudeMeters>
            <DistanceMeters>NAN</DistanceMeters>
          </Trackpoint>
          <Trackpoint>
            <Time>2021-07-18T11:47:43.000Z</Time>
            <Position>
              <LatitudeDegrees>42.72146956063807010650634765625</LatitudeDegrees>
              <LongitudeDegrees>-0.246789045631885528564453125</LongitudeDegrees>
            </Position>
            <AltitudeMeters>1457.199951171875</AltitudeMeters>
            <DistanceMeters>NAN</DistanceMeters>
          </Trackpoint>
          <Trackpoint>
            <Time>2021-07-18T11:47:57.000Z</Time>
            <Position>
              <LatitudeDegrees>42.72154147736728191375732421875</LatitudeDegrees>
              <LongitudeDegrees>-0.24701074697077274322509765625</LongitudeDegrees>
            </Position>
            <AltitudeMeters>1458.199951171875</AltitudeMeters>
            <DistanceMeters>NAN</DistanceMeters>
          </Trackpoint>
          <Trackpoint>
            <Time>2021-07-18T11:48:06.000Z</Time>
            <Position>
              <LatitudeDegrees>42.7216020785272121429443359375</LatitudeDegrees>
              <LongitudeDegrees>-0.24713949300348758697509765625</LongitudeDegrees>
            </Position>
            <AltitudeMeters>1459.800048828125</AltitudeMeters>
            <DistanceMeters>NAN</DistanceMeters>
          </Trackpoint>
          <Trackpoint>
            <Time>2021-07-18T11:48:12.000Z</Time>
            <Position>
              <LatitudeDegrees>42.72164960391819477081298828125</LatitudeDegrees>
              <LongitudeDegrees>-0.24721845053136348724365234375</LongitudeDegrees>
            </Position>
            <AltitudeMeters>1460.800048828125</AltitudeMeters>
            <DistanceMeters>NAN</DistanceMeters>
          </Trackpoint>
          <Trackpoint>
            <Time>2021-07-18T11:48:21.000Z</Time>
            <Position>
              <LatitudeDegrees>42.7217174135148525238037109375</LatitudeDegrees>
              <LongitudeDegrees>-0.24734459817409515380859375</LongitudeDegrees>
            </Position>
            <AltitudeMeters>1462.5999755859375</AltitudeMeters>
            <DistanceMeters>NAN</DistanceMeters>
          </Trackpoint>
          <Trackpoint>
            <Time>2021-07-18T11:48:34.000Z</Time>
            <Position>
              <LatitudeDegrees>42.72177164442837238311767578125</LatitudeDegrees>
              <LongitudeDegrees>-0.24754920043051242828369140625</LongitudeDegrees>
            </Position>
            <AltitudeMeters>1463.199951171875</AltitudeMeters>
            <DistanceMeters>NAN</DistanceMeters>
          </Trackpoint>
          <Trackpoint>
            <Time>2021-07-18T11:48:44.000Z</Time>
            <Position>
              <LatitudeDegrees>42.72178220562636852264404296875</LatitudeDegrees>
              <LongitudeDegrees>-0.24774164892733097076416015625</LongitudeDegrees>
            </Position>
            <AltitudeMeters>1461.199951171875</AltitudeMeters>
            <DistanceMeters>NAN</DistanceMeters>
          </Trackpoint>
          <Trackpoint>
            <Time>2021-07-18T11:48:53.000Z</Time>
            <Position>
              <LatitudeDegrees>42.7217920124530792236328125</LatitudeDegrees>
              <LongitudeDegrees>-0.24790341965854167938232421875</LongitudeDegrees>
            </Position>
            <AltitudeMeters>1458.5999755859375</AltitudeMeters>
            <DistanceMeters>NAN</DistanceMeters>
          </Trackpoint>
          <Trackpoint>
            <Time>2021-07-18T11:49:03.000Z</Time>
            <Position>
              <LatitudeDegrees>42.72180768661201000213623046875</LatitudeDegrees>
              <LongitudeDegrees>-0.24809637106955051422119140625</LongitudeDegrees>
            </Position>
            <AltitudeMeters>1457.4000244140625</AltitudeMeters>
            <DistanceMeters>NAN</DistanceMeters>
          </Trackpoint>
          <Trackpoint>
            <Time>2021-07-18T11:49:12.000Z</Time>
            <Position>
              <LatitudeDegrees>42.72182277403771877288818359375</LatitudeDegrees>
              <LongitudeDegrees>-0.2482345886528491973876953125</LongitudeDegrees>
            </Position>
            <AltitudeMeters>1456.800048828125</AltitudeMeters>
            <DistanceMeters>NAN</DistanceMeters>
          </Trackpoint>
          <Trackpoint>
            <Time>2021-07-18T11:49:19.000Z</Time>
            <Position>
              <LatitudeDegrees>42.72185529582202434539794921875</LatitudeDegrees>
              <LongitudeDegrees>-0.24837112985551357269287109375</LongitudeDegrees>
            </Position>
            <AltitudeMeters>1456</AltitudeMeters>
            <DistanceMeters>NAN</DistanceMeters>
          </Trackpoint>
          <Trackpoint>
            <Time>2021-07-18T11:49:20.000Z</Time>
            <Position>
              <LatitudeDegrees>42.72186317481100559234619140625</LatitudeDegrees>
              <LongitudeDegrees>-0.24838856421411037445068359375</LongitudeDegrees>
            </Position>
            <AltitudeMeters>1456</AltitudeMeters>
            <DistanceMeters>NAN</DistanceMeters>
          </Trackpoint>
          <Trackpoint>
            <Time>2021-07-18T11:49:22.000Z</Time>
            <Position>
              <LatitudeDegrees>42.72187541238963603973388671875</LatitudeDegrees>
              <LongitudeDegrees>-0.24840985424816608428955078125</LongitudeDegrees>
            </Position>
            <AltitudeMeters>1456.4000244140625</AltitudeMeters>
            <DistanceMeters>NAN</DistanceMeters>
          </Trackpoint>
          <Trackpoint>
            <Time>2021-07-18T11:49:26.000Z</Time>
            <Position>
              <LatitudeDegrees>42.721915729343891143798828125</LatitudeDegrees>
              <LongitudeDegrees>-0.248438604176044464111328125</LongitudeDegrees>
            </Position>
            <AltitudeMeters>1458</AltitudeMeters>
            <DistanceMeters>NAN</DistanceMeters>
          </Trackpoint>
          <Trackpoint>
            <Time>2021-07-18T11:49:34.000Z</Time>
            <Position>
              <LatitudeDegrees>42.72203383035957813262939453125</LatitudeDegrees>
              <LongitudeDegrees>-0.2484568767249584197998046875</LongitudeDegrees>
            </Position>
            <AltitudeMeters>1463.199951171875</AltitudeMeters>
            <DistanceMeters>NAN</DistanceMeters>
          </Trackpoint>
          <Trackpoint>
            <Time>2021-07-18T11:49:44.000Z</Time>
            <Position>
              <LatitudeDegrees>42.72215603850781917572021484375</LatitudeDegrees>
              <LongitudeDegrees>-0.24844388477504253387451171875</LongitudeDegrees>
            </Position>
            <AltitudeMeters>1467.5999755859375</AltitudeMeters>
            <DistanceMeters>NAN</DistanceMeters>
          </Trackpoint>
          <Trackpoint>
            <Time>2021-07-18T11:49:52.000Z</Time>
            <Position>
              <LatitudeDegrees>42.72225477732717990875244140625</LatitudeDegrees>
              <LongitudeDegrees>-0.24848529137670993804931640625</LongitudeDegrees>
            </Position>
            <AltitudeMeters>1470</AltitudeMeters>
            <DistanceMeters>NAN</DistanceMeters>
          </Trackpoint>
          <Trackpoint>
            <Time>2021-07-18T11:49:54.000Z</Time>
            <Position>
              <LatitudeDegrees>42.7222766540944576263427734375</LatitudeDegrees>
              <LongitudeDegrees>-0.24850188754498958587646484375</LongitudeDegrees>
            </Position>
            <AltitudeMeters>1470.4000244140625</AltitudeMeters>
            <DistanceMeters>NAN</DistanceMeters>
          </Trackpoint>
          <Trackpoint>
            <Time>2021-07-18T11:49:58.000Z</Time>
            <Position>
              <LatitudeDegrees>42.72229023277759552001953125</LatitudeDegrees>
              <LongitudeDegrees>-0.24854731746017932891845703125</LongitudeDegrees>
            </Position>
            <AltitudeMeters>1470</AltitudeMeters>
            <DistanceMeters>NAN</DistanceMeters>
          </Trackpoint>
          <Trackpoint>
            <Time>2021-07-18T11:50:06.000Z</Time>
            <Position>
              <LatitudeDegrees>42.7223131991922855377197265625</LatitudeDegrees>
              <LongitudeDegrees>-0.2486915700137615203857421875</LongitudeDegrees>
            </Position>
            <AltitudeMeters>1467.800048828125</AltitudeMeters>
            <DistanceMeters>NAN</DistanceMeters>
          </Trackpoint>
          <Trackpoint>
            <Time>2021-07-18T11:50:18.000Z</Time>
            <Position>
              <LatitudeDegrees>42.722319401800632476806640625</LatitudeDegrees>
              <LongitudeDegrees>-0.24891964159905910491943359375</LongitudeDegrees>
            </Position>
            <AltitudeMeters>1463.800048828125</AltitudeMeters>
            <DistanceMeters>NAN</DistanceMeters>
          </Trackpoint>
          <Trackpoint>
            <Time>2021-07-18T11:50:30.000Z</Time>
            <Position>
              <LatitudeDegrees>42.72229081951081752777099609375</LatitudeDegrees>
              <LongitudeDegrees>-0.2491128444671630859375</LongitudeDegrees>
            </Position>
            <AltitudeMeters>1460.4000244140625</AltitudeMeters>
            <DistanceMeters>NAN</DistanceMeters>
          </Trackpoint>
          <Trackpoint>
            <Time>2021-07-18T11:50:31.000Z</Time>
            <Position>
              <LatitudeDegrees>42.72229291498661041259765625</LatitudeDegrees>
              <LongitudeDegrees>-0.24912835098803043365478515625</LongitudeDegrees>
            </Position>
            <AltitudeMeters>1460.5999755859375</AltitudeMeters>
            <DistanceMeters>NAN</DistanceMeters>
          </Trackpoint>
          <Trackpoint>
            <Time>2021-07-18T11:50:35.000Z</Time>
            <Position>
              <LatitudeDegrees>42.72229132242500782012939453125</LatitudeDegrees>
              <LongitudeDegrees>-0.24919708259403705596923828125</LongitudeDegrees>
            </Position>
            <AltitudeMeters>1461</AltitudeMeters>
            <DistanceMeters>NAN</DistanceMeters>
          </Trackpoint>
          <Trackpoint>
            <Time>2021-07-18T11:50:42.000Z</Time>
            <Position>
              <LatitudeDegrees>42.72230255417525768280029296875</LatitudeDegrees>
              <LongitudeDegrees>-0.24932264350354671478271484375</LongitudeDegrees>
            </Position>
            <AltitudeMeters>1462.4000244140625</AltitudeMeters>
            <DistanceMeters>NAN</DistanceMeters>
          </Trackpoint>
          <Trackpoint>
            <Time>2021-07-18T11:50:52.000Z</Time>
            <Position>
              <LatitudeDegrees>42.72234496660530567169189453125</LatitudeDegrees>
              <LongitudeDegrees>-0.24950419552624225616455078125</LongitudeDegrees>
            </Position>
            <AltitudeMeters>1465.5999755859375</AltitudeMeters>
            <DistanceMeters>NAN</DistanceMeters>
          </Trackpoint>
          <Trackpoint>
            <Time>2021-07-18T11:51:03.000Z</Time>
            <Position>
              <LatitudeDegrees>42.72240162827074527740478515625</LatitudeDegrees>
              <LongitudeDegrees>-0.24969195015728473663330078125</LongitudeDegrees>
            </Position>
            <AltitudeMeters>1469.199951171875</AltitudeMeters>
            <DistanceMeters>NAN</DistanceMeters>
          </Trackpoint>
          <Trackpoint>
            <Time>2021-07-18T11:51:04.000Z</Time>
            <Position>
              <LatitudeDegrees>42.72240824997425079345703125</LatitudeDegrees>
              <LongitudeDegrees>-0.24970670230686664581298828125</LongitudeDegrees>
            </Position>
            <AltitudeMeters>1469.5999755859375</AltitudeMeters>
            <DistanceMeters>NAN</DistanceMeters>
          </Trackpoint>
          <Trackpoint>
            <Time>2021-07-18T11:51:13.000Z</Time>
            <Position>
              <LatitudeDegrees>42.72245996631681919097900390625</LatitudeDegrees>
              <LongitudeDegrees>-0.24984064511954784393310546875</LongitudeDegrees>
            </Position>
            <AltitudeMeters>1471.800048828125</AltitudeMeters>
            <DistanceMeters>NAN</DistanceMeters>
          </Trackpoint>
          <Trackpoint>
            <Time>2021-07-18T11:51:19.000Z</Time>
            <Position>
              <LatitudeDegrees>42.722506485879421234130859375</LatitudeDegrees>
              <LongitudeDegrees>-0.24995933286845684051513671875</LongitudeDegrees>
            </Position>
            <AltitudeMeters>1474</AltitudeMeters>
            <DistanceMeters>NAN</DistanceMeters>
          </Trackpoint>
          <Trackpoint>
            <Time>2021-07-18T11:51:23.000Z</Time>
            <Position>
              <LatitudeDegrees>42.7225163765251636505126953125</LatitudeDegrees>
              <LongitudeDegrees>-0.25003242306411266326904296875</LongitudeDegrees>
            </Position>
            <AltitudeMeters>1474</AltitudeMeters>
            <DistanceMeters>NAN</DistanceMeters>
          </Trackpoint>
          <Trackpoint>
            <Time>2021-07-18T11:51:26.000Z</Time>
            <Position>
              <LatitudeDegrees>42.7225401811301708221435546875</LatitudeDegrees>
              <LongitudeDegrees>-0.2500893361866474151611328125</LongitudeDegrees>
            </Position>
            <AltitudeMeters>1474.800048828125</AltitudeMeters>
            <DistanceMeters>NAN</DistanceMeters>
          </Trackpoint>
          <Trackpoint>
            <Time>2021-07-18T11:51:28.000Z</Time>
            <Position>
              <LatitudeDegrees>42.72255174815654754638671875</LatitudeDegrees>
              <LongitudeDegrees>-0.2501168288290500640869140625</LongitudeDegrees>
            </Position>
            <AltitudeMeters>1475.199951171875</AltitudeMeters>
            <DistanceMeters>NAN</DistanceMeters>
          </Trackpoint>
          <Trackpoint>
            <Time>2021-07-18T11:51:32.000Z</Time>
            <Position>
              <LatitudeDegrees>42.72255535237491130828857421875</LatitudeDegrees>
              <LongitudeDegrees>-0.2501838840544223785400390625</LongitudeDegrees>
            </Position>
            <AltitudeMeters>1474.800048828125</AltitudeMeters>
            <DistanceMeters>NAN</DistanceMeters>
          </Trackpoint>
          <Trackpoint>
            <Time>2021-07-18T11:51:35.000Z</Time>
            <Position>
              <LatitudeDegrees>42.72254244424402713775634765625</LatitudeDegrees>
              <LongitudeDegrees>-0.25024012662470340728759765625</LongitudeDegrees>
            </Position>
            <AltitudeMeters>1474</AltitudeMeters>
            <DistanceMeters>NAN</DistanceMeters>
          </Trackpoint>
          <Trackpoint>
            <Time>2021-07-18T11:51:39.000Z</Time>
            <Position>
              <LatitudeDegrees>42.72251042537391185760498046875</LatitudeDegrees>
              <LongitudeDegrees>-0.2502911724150180816650390625</LongitudeDegrees>
            </Position>
            <AltitudeMeters>1472.5999755859375</AltitudeMeters>
            <DistanceMeters>NAN</DistanceMeters>
          </Trackpoint>
          <Trackpoint>
            <Time>2021-07-18T11:51:46.000Z</Time>
            <Position>
              <LatitudeDegrees>42.722437083721160888671875</LatitudeDegrees>
              <LongitudeDegrees>-0.2503310702741146087646484375</LongitudeDegrees>
            </Position>
            <AltitudeMeters>1469.199951171875</AltitudeMeters>
            <DistanceMeters>NAN</DistanceMeters>
          </Trackpoint>
          <Trackpoint>
            <Time>2021-07-18T11:51:54.000Z</Time>
            <Position>
              <LatitudeDegrees>42.722359634935855865478515625</LatitudeDegrees>
              <LongitudeDegrees>-0.25039452128112316131591796875</LongitudeDegrees>
            </Position>
            <AltitudeMeters>1465.4000244140625</AltitudeMeters>
            <DistanceMeters>NAN</DistanceMeters>
          </Trackpoint>
          <Trackpoint>
            <Time>2021-07-18T11:51:55.000Z</Time>
            <Position>
              <LatitudeDegrees>42.7223507501184940338134765625</LatitudeDegrees>
              <LongitudeDegrees>-0.25040843524038791656494140625</LongitudeDegrees>
            </Position>
            <AltitudeMeters>1465</AltitudeMeters>
            <DistanceMeters>NAN</DistanceMeters>
          </Trackpoint>
          <Trackpoint>
            <Time>2021-07-18T11:52:02.000Z</Time>
            <Position>
              <LatitudeDegrees>42.72225662134587764739990234375</LatitudeDegrees>
              <LongitudeDegrees>-0.250453613698482513427734375</LongitudeDegrees>
            </Position>
            <AltitudeMeters>1460.5999755859375</AltitudeMeters>
            <DistanceMeters>NAN</DistanceMeters>
          </Trackpoint>
          <Trackpoint>
            <Time>2021-07-18T11:52:03.000Z</Time>
            <Position>
              <LatitudeDegrees>42.72224388085305690765380859375</LatitudeDegrees>
              <LongitudeDegrees>-0.250463671982288360595703125</LongitudeDegrees>
            </Position>
            <AltitudeMeters>1459.800048828125</AltitudeMeters>
            <DistanceMeters>NAN</DistanceMeters>
          </Trackpoint>
          <Trackpoint>
            <Time>2021-07-18T11:52:10.000Z</Time>
            <Position>
              <LatitudeDegrees>42.72218369878828525543212890625</LatitudeDegrees>
              <LongitudeDegrees>-0.25054070167243480682373046875</LongitudeDegrees>
            </Position>
            <AltitudeMeters>1458</AltitudeMeters>
            <DistanceMeters>NAN</DistanceMeters>
          </Trackpoint>
          <Trackpoint>
            <Time>2021-07-18T11:52:14.000Z</Time>
            <Position>
              <LatitudeDegrees>42.722153104841709136962890625</LatitudeDegrees>
              <LongitudeDegrees>-0.25059669278562068939208984375</LongitudeDegrees>
            </Position>
            <AltitudeMeters>1457.4000244140625</AltitudeMeters>
            <DistanceMeters>NAN</DistanceMeters>
          </Trackpoint>
          <Trackpoint>
            <Time>2021-07-18T11:52:18.000Z</Time>
            <Position>
              <LatitudeDegrees>42.7221194095909595489501953125</LatitudeDegrees>
              <LongitudeDegrees>-0.25064430199563503265380859375</LongitudeDegrees>
            </Position>
            <AltitudeMeters>1456.5999755859375</AltitudeMeters>
            <DistanceMeters>NAN</DistanceMeters>
          </Trackpoint>
          <Trackpoint>
            <Time>2021-07-18T11:52:20.000Z</Time>
            <Position>
              <LatitudeDegrees>42.72210809402167797088623046875</LatitudeDegrees>
              <LongitudeDegrees>-0.25067900307476520538330078125</LongitudeDegrees>
            </Position>
            <AltitudeMeters>1456.4000244140625</AltitudeMeters>
            <DistanceMeters>NAN</DistanceMeters>
          </Trackpoint>
          <Trackpoint>
            <Time>2021-07-18T11:52:31.000Z</Time>
            <Position>
              <LatitudeDegrees>42.72205914370715618133544921875</LatitudeDegrees>
              <LongitudeDegrees>-0.25088570080697536468505859375</LongitudeDegrees>
            </Position>
            <AltitudeMeters>1457.4000244140625</AltitudeMeters>
            <DistanceMeters>NAN</DistanceMeters>
          </Trackpoint>
          <Trackpoint>
            <Time>2021-07-18T11:52:33.000Z</Time>
            <Position>
              <LatitudeDegrees>42.72205545566976070404052734375</LatitudeDegrees>
              <LongitudeDegrees>-0.2509164623916149139404296875</LongitudeDegrees>
            </Position>
            <AltitudeMeters>1457.800048828125</AltitudeMeters>
            <DistanceMeters>NAN</DistanceMeters>
          </Trackpoint>
          <Trackpoint>
            <Time>2021-07-18T11:52:41.000Z</Time>
            <Position>
              <LatitudeDegrees>42.72206626832485198974609375</LatitudeDegrees>
              <LongitudeDegrees>-0.2510448731482028961181640625</LongitudeDegrees>
            </Position>
            <AltitudeMeters>1460.5999755859375</AltitudeMeters>
            <DistanceMeters>NAN</DistanceMeters>
          </Trackpoint>
          <Trackpoint>
            <Time>2021-07-18T11:52:51.000Z</Time>
            <Position>
              <LatitudeDegrees>42.7221147157251834869384765625</LatitudeDegrees>
              <LongitudeDegrees>-0.2512534148991107940673828125</LongitudeDegrees>
            </Position>
            <AltitudeMeters>1465.4000244140625</AltitudeMeters>
            <DistanceMeters>NAN</DistanceMeters>
          </Trackpoint>
          <Trackpoint>
            <Time>2021-07-18T11:53:01.000Z</Time>
            <Position>
              <LatitudeDegrees>42.72216391749680042266845703125</LatitudeDegrees>
              <LongitudeDegrees>-0.25144443847239017486572265625</LongitudeDegrees>
            </Position>
            <AltitudeMeters>1465</AltitudeMeters>
            <DistanceMeters>NAN</DistanceMeters>
          </Trackpoint>
          <Trackpoint>
            <Time>2021-07-18T11:53:13.000Z</Time>
            <Position>
              <LatitudeDegrees>42.7222012169659137725830078125</LatitudeDegrees>
              <LongitudeDegrees>-0.25168952532112598419189453125</LongitudeDegrees>
            </Position>
            <AltitudeMeters>1463.800048828125</AltitudeMeters>
            <DistanceMeters>NAN</DistanceMeters>
          </Trackpoint>
          <Trackpoint>
            <Time>2021-07-18T11:53:23.000Z</Time>
            <Position>
              <LatitudeDegrees>42.72222057916224002838134765625</LatitudeDegrees>
              <LongitudeDegrees>-0.2518931217491626739501953125</LongitudeDegrees>
            </Position>
            <AltitudeMeters>1462.800048828125</AltitudeMeters>
            <DistanceMeters>NAN</DistanceMeters>
          </Trackpoint>
          <Trackpoint>
            <Time>2021-07-18T11:53:31.000Z</Time>
            <Position>
              <LatitudeDegrees>42.7222531847655773162841796875</LatitudeDegrees>
              <LongitudeDegrees>-0.25206394493579864501953125</LongitudeDegrees>
            </Position>
            <AltitudeMeters>1463.800048828125</AltitudeMeters>
            <DistanceMeters>NAN</DistanceMeters>
          </Trackpoint>
          <Trackpoint>
            <Time>2021-07-18T11:53:41.000Z</Time>
            <Position>
              <LatitudeDegrees>42.72229735739529132843017578125</LatitudeDegrees>
              <LongitudeDegrees>-0.25223468430340290069580078125</LongitudeDegrees>
            </Position>
            <AltitudeMeters>1465.800048828125</AltitudeMeters>
            <DistanceMeters>NAN</DistanceMeters>
          </Trackpoint>
          <Trackpoint>
            <Time>2021-07-18T11:53:54.000Z</Time>
            <Position>
              <LatitudeDegrees>42.7223883010447025299072265625</LatitudeDegrees>
              <LongitudeDegrees>-0.2523819543421268463134765625</LongitudeDegrees>
            </Position>
            <AltitudeMeters>1469.199951171875</AltitudeMeters>
            <DistanceMeters>NAN</DistanceMeters>
          </Trackpoint>
          <Trackpoint>
            <Time>2021-07-18T11:53:55.000Z</Time>
            <Position>
              <LatitudeDegrees>42.72238947451114654541015625</LatitudeDegrees>
              <LongitudeDegrees>-0.25238136760890483856201171875</LongitudeDegrees>
            </Position>
            <AltitudeMeters>1469.199951171875</AltitudeMeters>
            <DistanceMeters>NAN</DistanceMeters>
          </Trackpoint>
          <Trackpoint>
            <Time>2021-07-18T11:54:02.000Z</Time>
            <Position>
              <LatitudeDegrees>42.72240498103201389312744140625</LatitudeDegrees>
              <LongitudeDegrees>-0.25237935595214366912841796875</LongitudeDegrees>
            </Position>
            <AltitudeMeters>1469.800048828125</AltitudeMeters>
            <DistanceMeters>NAN</DistanceMeters>
          </Trackpoint>
          <Trackpoint>
            <Time>2021-07-18T11:54:27.000Z</Time>
            <Position>
              <LatitudeDegrees>42.72238888777792453765869140625</LatitudeDegrees>
              <LongitudeDegrees>-0.2523569762706756591796875</LongitudeDegrees>
            </Position>
            <AltitudeMeters>1469.199951171875</AltitudeMeters>
            <DistanceMeters>NAN</DistanceMeters>
          </Trackpoint>
          <Trackpoint>
            <Time>2021-07-18T11:54:30.000Z</Time>
            <Position>
              <LatitudeDegrees>42.722388468682765960693359375</LatitudeDegrees>
              <LongitudeDegrees>-0.252355635166168212890625</LongitudeDegrees>
            </Position>
            <AltitudeMeters>1469.199951171875</AltitudeMeters>
            <DistanceMeters>NAN</DistanceMeters>
          </Trackpoint>
          <Trackpoint>
            <Time>2021-07-18T11:54:34.000Z</Time>
            <Position>
              <LatitudeDegrees>42.722388468682765960693359375</LatitudeDegrees>
              <LongitudeDegrees>-0.25235387496650218963623046875</LongitudeDegrees>
            </Position>
            <AltitudeMeters>1469.199951171875</AltitudeMeters>
            <DistanceMeters>NAN</DistanceMeters>
          </Trackpoint>
          <Trackpoint>
            <Time>2021-07-18T11:54:35.000Z</Time>
            <Position>
              <LatitudeDegrees>42.722388468682765960693359375</LatitudeDegrees>
              <LongitudeDegrees>-0.252352617681026458740234375</LongitudeDegrees>
            </Position>
            <AltitudeMeters>1469.199951171875</AltitudeMeters>
            <DistanceMeters>NAN</DistanceMeters>
          </Trackpoint>
          <Trackpoint>
            <Time>2021-07-18T11:54:39.000Z</Time>
            <Position>
              <LatitudeDegrees>42.72239073179662227630615234375</LatitudeDegrees>
              <LongitudeDegrees>-0.25234767235815525054931640625</LongitudeDegrees>
            </Position>
            <AltitudeMeters>1469.199951171875</AltitudeMeters>
            <DistanceMeters>NAN</DistanceMeters>
          </Trackpoint>
          <Trackpoint>
            <Time>2021-07-18T11:54:41.000Z</Time>
            <Position>
              <LatitudeDegrees>42.7223913185298442840576171875</LatitudeDegrees>
              <LongitudeDegrees>-0.25234783999621868133544921875</LongitudeDegrees>
            </Position>
            <AltitudeMeters>1469.199951171875</AltitudeMeters>
            <DistanceMeters>NAN</DistanceMeters>
          </Trackpoint>
          <Trackpoint>
            <Time>2021-07-18T11:54:43.000Z</Time>
            <Position>
              <LatitudeDegrees>42.7223923243582248687744140625</LatitudeDegrees>
              <LongitudeDegrees>-0.2523480914533138275146484375</LongitudeDegrees>
            </Position>
            <AltitudeMeters>1469.199951171875</AltitudeMeters>
            <DistanceMeters>NAN</DistanceMeters>
          </Trackpoint>
          <Trackpoint>
            <Time>2021-07-18T11:54:50.000Z</Time>
            <Position>
              <LatitudeDegrees>42.7224623970687389373779296875</LatitudeDegrees>
              <LongitudeDegrees>-0.25235907174646854400634765625</LongitudeDegrees>
            </Position>
            <AltitudeMeters>1471.5999755859375</AltitudeMeters>
            <DistanceMeters>NAN</DistanceMeters>
          </Trackpoint>
          <Trackpoint>
            <Time>2021-07-18T11:54:58.000Z</Time>
            <Position>
              <LatitudeDegrees>42.72259407676756381988525390625</LatitudeDegrees>
              <LongitudeDegrees>-0.25239846669137477874755859375</LongitudeDegrees>
            </Position>
            <AltitudeMeters>1475.800048828125</AltitudeMeters>
            <DistanceMeters>NAN</DistanceMeters>
          </Trackpoint>
          <Trackpoint>
            <Time>2021-07-18T11:55:07.000Z</Time>
            <Position>
              <LatitudeDegrees>42.72268124856054782867431640625</LatitudeDegrees>
              <LongitudeDegrees>-0.25251732207834720611572265625</LongitudeDegrees>
            </Position>
            <AltitudeMeters>1477.4000244140625</AltitudeMeters>
            <DistanceMeters>NAN</DistanceMeters>
          </Trackpoint>
          <Trackpoint>
            <Time>2021-07-18T11:55:12.000Z</Time>
            <Position>
              <LatitudeDegrees>42.72270170040428638458251953125</LatitudeDegrees>
              <LongitudeDegrees>-0.25260382331907749176025390625</LongitudeDegrees>
            </Position>
            <AltitudeMeters>1477.5999755859375</AltitudeMeters>
            <DistanceMeters>NAN</DistanceMeters>
          </Trackpoint>
          <Trackpoint>
            <Time>2021-07-18T11:55:18.000Z</Time>
            <Position>
              <LatitudeDegrees>42.72273656912147998809814453125</LatitudeDegrees>
              <LongitudeDegrees>-0.25270122103393077850341796875</LongitudeDegrees>
            </Position>
            <AltitudeMeters>1478.5999755859375</AltitudeMeters>
            <DistanceMeters>NAN</DistanceMeters>
          </Trackpoint>
          <Trackpoint>
            <Time>2021-07-18T11:55:20.000Z</Time>
            <Position>
              <LatitudeDegrees>42.7227495610713958740234375</LatitudeDegrees>
              <LongitudeDegrees>-0.2527323178946971893310546875</LongitudeDegrees>
            </Position>
            <AltitudeMeters>1478.800048828125</AltitudeMeters>
            <DistanceMeters>NAN</DistanceMeters>
          </Trackpoint>
          <Trackpoint>
            <Time>2021-07-18T11:55:29.000Z</Time>
            <Position>
              <LatitudeDegrees>42.722765319049358367919921875</LatitudeDegrees>
              <LongitudeDegrees>-0.2528727985918521881103515625</LongitudeDegrees>
            </Position>
            <AltitudeMeters>1478.199951171875</AltitudeMeters>
            <DistanceMeters>NAN</DistanceMeters>
          </Trackpoint>
          <Trackpoint>
            <Time>2021-07-18T11:55:31.000Z</Time>
            <Position>
              <LatitudeDegrees>42.722775042057037353515625</LatitudeDegrees>
              <LongitudeDegrees>-0.25289769284427165985107421875</LongitudeDegrees>
            </Position>
            <AltitudeMeters>1478.4000244140625</AltitudeMeters>
            <DistanceMeters>NAN</DistanceMeters>
          </Trackpoint>
          <Trackpoint>
            <Time>2021-07-18T11:55:36.000Z</Time>
            <Position>
              <LatitudeDegrees>42.72278266958892345428466796875</LatitudeDegrees>
              <LongitudeDegrees>-0.2529797516763210296630859375</LongitudeDegrees>
            </Position>
            <AltitudeMeters>1478</AltitudeMeters>
            <DistanceMeters>NAN</DistanceMeters>
          </Trackpoint>
          <Trackpoint>
            <Time>2021-07-18T11:55:40.000Z</Time>
            <Position>
              <LatitudeDegrees>42.72278954274952411651611328125</LatitudeDegrees>
              <LongitudeDegrees>-0.25304018519818782806396484375</LongitudeDegrees>
            </Position>
            <AltitudeMeters>1477.800048828125</AltitudeMeters>
            <DistanceMeters>NAN</DistanceMeters>
          </Trackpoint>
          <Trackpoint>
            <Time>2021-07-18T11:55:46.000Z</Time>
            <Position>
              <LatitudeDegrees>42.72280194796621799468994140625</LatitudeDegrees>
              <LongitudeDegrees>-0.2531473897397518157958984375</LongitudeDegrees>
            </Position>
            <AltitudeMeters>1477.4000244140625</AltitudeMeters>
            <DistanceMeters>NAN</DistanceMeters>
          </Trackpoint>
          <Trackpoint>
            <Time>2021-07-18T11:55:49.000Z</Time>
            <Position>
              <LatitudeDegrees>42.7228070609271526336669921875</LatitudeDegrees>
              <LongitudeDegrees>-0.2532023750245571136474609375</LongitudeDegrees>
            </Position>
            <AltitudeMeters>1477.199951171875</AltitudeMeters>
            <DistanceMeters>NAN</DistanceMeters>
          </Trackpoint>
          <Trackpoint>
            <Time>2021-07-18T11:56:02.000Z</Time>
            <Position>
              <LatitudeDegrees>42.72286615334451198577880859375</LatitudeDegrees>
              <LongitudeDegrees>-0.2534246630966663360595703125</LongitudeDegrees>
            </Position>
            <AltitudeMeters>1477.5999755859375</AltitudeMeters>
            <DistanceMeters>NAN</DistanceMeters>
          </Trackpoint>
          <Trackpoint>
            <Time>2021-07-18T11:56:10.000Z</Time>
            <Position>
              <LatitudeDegrees>42.7229019440710544586181640625</LatitudeDegrees>
              <LongitudeDegrees>-0.25354729034006595611572265625</LongitudeDegrees>
            </Position>
            <AltitudeMeters>1478.199951171875</AltitudeMeters>
            <DistanceMeters>NAN</DistanceMeters>
          </Trackpoint>
          <Trackpoint>
            <Time>2021-07-18T11:56:18.000Z</Time>
            <Position>
              <LatitudeDegrees>42.72292164154350757598876953125</LatitudeDegrees>
              <LongitudeDegrees>-0.253678970038890838623046875</LongitudeDegrees>
            </Position>
            <AltitudeMeters>1478.4000244140625</AltitudeMeters>
            <DistanceMeters>NAN</DistanceMeters>
          </Trackpoint>
          <Trackpoint>
            <Time>2021-07-18T11:56:20.000Z</Time>
            <Position>
              <LatitudeDegrees>42.722927592694759368896484375</LatitudeDegrees>
              <LongitudeDegrees>-0.25370218791067600250244140625</LongitudeDegrees>
            </Position>
            <AltitudeMeters>1478.5999755859375</AltitudeMeters>
            <DistanceMeters>NAN</DistanceMeters>
          </Trackpoint>
          <Trackpoint>
            <Time>2021-07-18T11:56:21.000Z</Time>
            <Position>
              <LatitudeDegrees>42.72292901761829853057861328125</LatitudeDegrees>
              <LongitudeDegrees>-0.2537156827747821807861328125</LongitudeDegrees>
            </Position>
            <AltitudeMeters>1478.5999755859375</AltitudeMeters>
            <DistanceMeters>NAN</DistanceMeters>
          </Trackpoint>
          <Trackpoint>
            <Time>2021-07-18T11:56:24.000Z</Time>
            <Position>
              <LatitudeDegrees>42.72293840534985065460205078125</LatitudeDegrees>
              <LongitudeDegrees>-0.25375801138579845428466796875</LongitudeDegrees>
            </Position>
            <AltitudeMeters>1479</AltitudeMeters>
            <DistanceMeters>NAN</DistanceMeters>
          </Trackpoint>
          <Trackpoint>
            <Time>2021-07-18T11:56:31.000Z</Time>
            <Position>
              <LatitudeDegrees>42.72294393740594387054443359375</LatitudeDegrees>
              <LongitudeDegrees>-0.253873765468597412109375</LongitudeDegrees>
            </Position>
            <AltitudeMeters>1479.5999755859375</AltitudeMeters>
            <DistanceMeters>NAN</DistanceMeters>
          </Trackpoint>
          <Trackpoint>
            <Time>2021-07-18T11:56:33.000Z</Time>
            <Position>
              <LatitudeDegrees>42.722945027053356170654296875</LatitudeDegrees>
              <LongitudeDegrees>-0.253917686641216278076171875</LongitudeDegrees>
            </Position>
            <AltitudeMeters>1480</AltitudeMeters>
            <DistanceMeters>NAN</DistanceMeters>
          </Trackpoint>
          <Trackpoint>
            <Time>2021-07-18T11:56:37.000Z</Time>
            <Position>
              <LatitudeDegrees>42.72294938564300537109375</LatitudeDegrees>
              <LongitudeDegrees>-0.2539725042879581451416015625</LongitudeDegrees>
            </Position>
            <AltitudeMeters>1480.199951171875</AltitudeMeters>
            <DistanceMeters>NAN</DistanceMeters>
          </Trackpoint>
          <Trackpoint>
            <Time>2021-07-18T11:56:40.000Z</Time>
            <Position>
              <LatitudeDegrees>42.72295600734651088714599609375</LatitudeDegrees>
              <LongitudeDegrees>-0.253984741866588592529296875</LongitudeDegrees>
            </Position>
            <AltitudeMeters>1480.5999755859375</AltitudeMeters>
            <DistanceMeters>NAN</DistanceMeters>
          </Trackpoint>
          <Trackpoint>
            <Time>2021-07-18T11:56:43.000Z</Time>
            <Position>
              <LatitudeDegrees>42.722950391471385955810546875</LatitudeDegrees>
              <LongitudeDegrees>-0.2539882622659206390380859375</LongitudeDegrees>
            </Position>
            <AltitudeMeters>1480.4000244140625</AltitudeMeters>
            <DistanceMeters>NAN</DistanceMeters>
          </Trackpoint>
          <Trackpoint>
            <Time>2021-07-18T11:56:47.000Z</Time>
            <Position>
              <LatitudeDegrees>42.722937650978565216064453125</LatitudeDegrees>
              <LongitudeDegrees>-0.25399203412234783172607421875</LongitudeDegrees>
            </Position>
            <AltitudeMeters>1479.800048828125</AltitudeMeters>
            <DistanceMeters>NAN</DistanceMeters>
          </Trackpoint>
          <Trackpoint>
            <Time>2021-07-18T11:56:54.000Z</Time>
            <Position>
              <LatitudeDegrees>42.7229378186166286468505859375</LatitudeDegrees>
              <LongitudeDegrees>-0.25410602800548076629638671875</LongitudeDegrees>
            </Position>
            <AltitudeMeters>1480.199951171875</AltitudeMeters>
            <DistanceMeters>NAN</DistanceMeters>
          </Trackpoint>
          <Trackpoint>
            <Time>2021-07-18T11:57:00.000Z</Time>
            <Position>
              <LatitudeDegrees>42.7229239046573638916015625</LatitudeDegrees>
              <LongitudeDegrees>-0.25420677848160266876220703125</LongitudeDegrees>
            </Position>
            <AltitudeMeters>1479.199951171875</AltitudeMeters>
            <DistanceMeters>NAN</DistanceMeters>
          </Trackpoint>
          <Trackpoint>
            <Time>2021-07-18T11:57:07.000Z</Time>
            <Position>
              <LatitudeDegrees>42.72291074506938457489013671875</LatitudeDegrees>
              <LongitudeDegrees>-0.25436536408960819244384765625</LongitudeDegrees>
            </Position>
            <AltitudeMeters>1478.5999755859375</AltitudeMeters>
            <DistanceMeters>NAN</DistanceMeters>
          </Trackpoint>
          <Trackpoint>
            <Time>2021-07-18T11:57:21.000Z</Time>
            <Position>
              <LatitudeDegrees>42.72289104759693145751953125</LatitudeDegrees>
              <LongitudeDegrees>-0.254578180611133575439453125</LongitudeDegrees>
            </Position>
            <AltitudeMeters>1476.800048828125</AltitudeMeters>
            <DistanceMeters>NAN</DistanceMeters>
          </Trackpoint>
          <Trackpoint>
            <Time>2021-07-18T11:57:33.000Z</Time>
            <Position>
              <LatitudeDegrees>42.72283983416855335235595703125</LatitudeDegrees>
              <LongitudeDegrees>-0.254760570824146270751953125</LongitudeDegrees>
            </Position>
            <AltitudeMeters>1474</AltitudeMeters>
            <DistanceMeters>NAN</DistanceMeters>
          </Trackpoint>
          <Trackpoint>
            <Time>2021-07-18T11:57:45.000Z</Time>
            <Position>
              <LatitudeDegrees>42.7227802388370037078857421875</LatitudeDegrees>
              <LongitudeDegrees>-0.2549267001450061798095703125</LongitudeDegrees>
            </Position>
            <AltitudeMeters>1471</AltitudeMeters>
            <DistanceMeters>NAN</DistanceMeters>
          </Trackpoint>
          <Trackpoint>
            <Time>2021-07-18T11:57:57.000Z</Time>
            <Position>
              <LatitudeDegrees>42.7227403409779071807861328125</LatitudeDegrees>
              <LongitudeDegrees>-0.2551265247166156768798828125</LongitudeDegrees>
            </Position>
            <AltitudeMeters>1470</AltitudeMeters>
            <DistanceMeters>NAN</DistanceMeters>
          </Trackpoint>
          <Trackpoint>
            <Time>2021-07-18T11:58:03.000Z</Time>
            <Position>
              <LatitudeDegrees>42.72275961935520172119140625</LatitudeDegrees>
              <LongitudeDegrees>-0.25522149167954921722412109375</LongitudeDegrees>
            </Position>
            <AltitudeMeters>1471.5999755859375</AltitudeMeters>
            <DistanceMeters>NAN</DistanceMeters>
          </Trackpoint>
          <Trackpoint>
            <Time>2021-07-18T11:58:05.000Z</Time>
            <Position>
              <LatitudeDegrees>42.72275961935520172119140625</LatitudeDegrees>
              <LongitudeDegrees>-0.25524848140776157379150390625</LongitudeDegrees>
            </Position>
            <AltitudeMeters>1471.5999755859375</AltitudeMeters>
            <DistanceMeters>NAN</DistanceMeters>
          </Trackpoint>
          <Trackpoint>
            <Time>2021-07-18T11:58:07.000Z</Time>
            <Position>
              <LatitudeDegrees>42.722755260765552520751953125</LatitudeDegrees>
              <LongitudeDegrees>-0.2552562765777111053466796875</LongitudeDegrees>
            </Position>
            <AltitudeMeters>1471.199951171875</AltitudeMeters>
            <DistanceMeters>NAN</DistanceMeters>
          </Trackpoint>
          <Trackpoint>
            <Time>2021-07-18T11:58:10.000Z</Time>
            <Position>
              <LatitudeDegrees>42.72276272065937519073486328125</LatitudeDegrees>
              <LongitudeDegrees>-0.25525636039674282073974609375</LongitudeDegrees>
            </Position>
            <AltitudeMeters>1471.5999755859375</AltitudeMeters>
            <DistanceMeters>NAN</DistanceMeters>
          </Trackpoint>
          <Trackpoint>
            <Time>2021-07-18T11:58:19.000Z</Time>
            <Position>
              <LatitudeDegrees>42.7227544225752353668212890625</LatitudeDegrees>
              <LongitudeDegrees>-0.255261473357677459716796875</LongitudeDegrees>
            </Position>
            <AltitudeMeters>1471.199951171875</AltitudeMeters>
            <DistanceMeters>NAN</DistanceMeters>
          </Trackpoint>
          <Trackpoint>
            <Time>2021-07-18T11:58:24.000Z</Time>
            <Position>
              <LatitudeDegrees>42.7227544225752353668212890625</LatitudeDegrees>
              <LongitudeDegrees>-0.255261473357677459716796875</LongitudeDegrees>
            </Position>
            <AltitudeMeters>1471.199951171875</AltitudeMeters>
            <DistanceMeters>NAN</DistanceMeters>
          </Trackpoint>
          <Trackpoint>
            <Time>2021-07-18T11:58:29.000Z</Time>
            <Position>
              <LatitudeDegrees>42.7227544225752353668212890625</LatitudeDegrees>
              <LongitudeDegrees>-0.255261473357677459716796875</LongitudeDegrees>
            </Position>
            <AltitudeMeters>1471.199951171875</AltitudeMeters>
            <DistanceMeters>NAN</DistanceMeters>
          </Trackpoint>
          <Trackpoint>
            <Time>2021-07-18T11:58:32.000Z</Time>
            <Position>
              <LatitudeDegrees>42.7227544225752353668212890625</LatitudeDegrees>
              <LongitudeDegrees>-0.2552602998912334442138671875</LongitudeDegrees>
            </Position>
            <AltitudeMeters>1471.199951171875</AltitudeMeters>
            <DistanceMeters>NAN</DistanceMeters>
          </Trackpoint>
          <Trackpoint>
            <Time>2021-07-18T11:58:37.000Z</Time>
            <Position>
              <LatitudeDegrees>42.7227571047842502593994140625</LatitudeDegrees>
              <LongitudeDegrees>-0.2552602998912334442138671875</LongitudeDegrees>
            </Position>
            <AltitudeMeters>1471.4000244140625</AltitudeMeters>
            <DistanceMeters>NAN</DistanceMeters>
          </Trackpoint>
          <Trackpoint>
            <Time>2021-07-18T11:58:40.000Z</Time>
            <Position>
              <LatitudeDegrees>42.72276288829743862152099609375</LatitudeDegrees>
              <LongitudeDegrees>-0.25526021607220172882080078125</LongitudeDegrees>
            </Position>
            <AltitudeMeters>1471.5999755859375</AltitudeMeters>
            <DistanceMeters>NAN</DistanceMeters>
          </Trackpoint>
          <Trackpoint>
            <Time>2021-07-18T11:58:52.000Z</Time>
            <Position>
              <LatitudeDegrees>42.72282357327640056610107421875</LatitudeDegrees>
              <LongitudeDegrees>-0.25531268678605556488037109375</LongitudeDegrees>
            </Position>
            <AltitudeMeters>1475.5999755859375</AltitudeMeters>
            <DistanceMeters>NAN</DistanceMeters>
          </Trackpoint>
          <Trackpoint>
            <Time>2021-07-18T11:58:55.000Z</Time>
            <Position>
              <LatitudeDegrees>42.7228219807147979736328125</LatitudeDegrees>
              <LongitudeDegrees>-0.255328528583049774169921875</LongitudeDegrees>
            </Position>
            <AltitudeMeters>1475.800048828125</AltitudeMeters>
            <DistanceMeters>NAN</DistanceMeters>
          </Trackpoint>
          <Trackpoint>
            <Time>2021-07-18T11:58:58.000Z</Time>
            <Position>
              <LatitudeDegrees>42.72281485609710216522216796875</LatitudeDegrees>
              <LongitudeDegrees>-0.25533330626785755157470703125</LongitudeDegrees>
            </Position>
            <AltitudeMeters>1475.199951171875</AltitudeMeters>
            <DistanceMeters>NAN</DistanceMeters>
          </Trackpoint>
          <Trackpoint>
            <Time>2021-07-18T11:59:04.000Z</Time>
            <Position>
              <LatitudeDegrees>42.72284218110144138336181640625</LatitudeDegrees>
              <LongitudeDegrees>-0.2553407661616802215576171875</LongitudeDegrees>
            </Position>
            <AltitudeMeters>1477</AltitudeMeters>
            <DistanceMeters>NAN</DistanceMeters>
          </Trackpoint>
          <Trackpoint>
            <Time>2021-07-18T11:59:10.000Z</Time>
            <Position>
              <LatitudeDegrees>42.72289934568107128143310546875</LatitudeDegrees>
              <LongitudeDegrees>-0.25539868511259555816650390625</LongitudeDegrees>
            </Position>
            <AltitudeMeters>1480</AltitudeMeters>
            <DistanceMeters>NAN</DistanceMeters>
          </Trackpoint>
          <Trackpoint>
            <Time>2021-07-18T11:59:12.000Z</Time>
            <Position>
              <LatitudeDegrees>42.72292315028607845306396484375</LatitudeDegrees>
              <LongitudeDegrees>-0.255417041480541229248046875</LongitudeDegrees>
            </Position>
            <AltitudeMeters>1481</AltitudeMeters>
            <DistanceMeters>NAN</DistanceMeters>
          </Trackpoint>
          <Trackpoint>
            <Time>2021-07-18T11:59:16.000Z</Time>
            <Position>
              <LatitudeDegrees>42.72296003066003322601318359375</LatitudeDegrees>
              <LongitudeDegrees>-0.25544662959873676300048828125</LongitudeDegrees>
            </Position>
            <AltitudeMeters>1481.800048828125</AltitudeMeters>
            <DistanceMeters>NAN</DistanceMeters>
          </Trackpoint>
          <Trackpoint>
            <Time>2021-07-18T11:59:19.000Z</Time>
            <Position>
              <LatitudeDegrees>42.72298802621662616729736328125</LatitudeDegrees>
              <LongitudeDegrees>-0.25545425713062286376953125</LongitudeDegrees>
            </Position>
            <AltitudeMeters>1482.5999755859375</AltitudeMeters>
            <DistanceMeters>NAN</DistanceMeters>
          </Trackpoint>
          <Trackpoint>
            <Time>2021-07-18T11:59:21.000Z</Time>
            <Position>
              <LatitudeDegrees>42.7230129204690456390380859375</LatitudeDegrees>
              <LongitudeDegrees>-0.255465991795063018798828125</LongitudeDegrees>
            </Position>
            <AltitudeMeters>1483.199951171875</AltitudeMeters>
            <DistanceMeters>NAN</DistanceMeters>
          </Trackpoint>
          <Trackpoint>
            <Time>2021-07-18T11:59:33.000Z</Time>
            <Position>
              <LatitudeDegrees>42.72313990630209445953369140625</LatitudeDegrees>
              <LongitudeDegrees>-0.25552458129823207855224609375</LongitudeDegrees>
            </Position>
            <AltitudeMeters>1485.199951171875</AltitudeMeters>
            <DistanceMeters>NAN</DistanceMeters>
          </Trackpoint>
          <Trackpoint>
            <Time>2021-07-18T11:59:41.000Z</Time>
            <Position>
              <LatitudeDegrees>42.72320897318422794342041015625</LatitudeDegrees>
              <LongitudeDegrees>-0.25555257685482501983642578125</LongitudeDegrees>
            </Position>
            <AltitudeMeters>1484.5999755859375</AltitudeMeters>
            <DistanceMeters>NAN</DistanceMeters>
          </Trackpoint>
          <Trackpoint>
            <Time>2021-07-18T11:59:48.000Z</Time>
            <Position>
              <LatitudeDegrees>42.72329933010041713714599609375</LatitudeDegrees>
              <LongitudeDegrees>-0.25557889603078365325927734375</LongitudeDegrees>
            </Position>
            <AltitudeMeters>1484</AltitudeMeters>
            <DistanceMeters>NAN</DistanceMeters>
          </Trackpoint>
          <Trackpoint>
            <Time>2021-07-18T11:59:49.000Z</Time>
            <Position>
              <LatitudeDegrees>42.72330570034682750701904296875</LatitudeDegrees>
              <LongitudeDegrees>-0.25558568537235260009765625</LongitudeDegrees>
            </Position>
            <AltitudeMeters>1483.800048828125</AltitudeMeters>
            <DistanceMeters>NAN</DistanceMeters>
          </Trackpoint>
          <Trackpoint>
            <Time>2021-07-18T11:59:56.000Z</Time>
            <Position>
              <LatitudeDegrees>42.723409719765186309814453125</LatitudeDegrees>
              <LongitudeDegrees>-0.25562952272593975067138671875</LongitudeDegrees>
            </Position>
            <AltitudeMeters>1483.199951171875</AltitudeMeters>
            <DistanceMeters>NAN</DistanceMeters>
          </Trackpoint>
          <Trackpoint>
            <Time>2021-07-18T12:00:05.000Z</Time>
            <Position>
              <LatitudeDegrees>42.7234953828155994415283203125</LatitudeDegrees>
              <LongitudeDegrees>-0.255726836621761322021484375</LongitudeDegrees>
            </Position>
            <AltitudeMeters>1482.199951171875</AltitudeMeters>
            <DistanceMeters>NAN</DistanceMeters>
          </Trackpoint>
          <Trackpoint>
            <Time>2021-07-18T12:00:14.000Z</Time>
            <Position>
              <LatitudeDegrees>42.7235765196382999420166015625</LatitudeDegrees>
              <LongitudeDegrees>-0.25581903755664825439453125</LongitudeDegrees>
            </Position>
            <AltitudeMeters>1481.5999755859375</AltitudeMeters>
            <DistanceMeters>NAN</DistanceMeters>
          </Trackpoint>
          <Trackpoint>
            <Time>2021-07-18T12:00:25.000Z</Time>
            <Position>
              <LatitudeDegrees>42.723660506308078765869140625</LatitudeDegrees>
              <LongitudeDegrees>-0.2559637092053890228271484375</LongitudeDegrees>
            </Position>
            <AltitudeMeters>1481.5999755859375</AltitudeMeters>
            <DistanceMeters>NAN</DistanceMeters>
          </Trackpoint>
          <Trackpoint>
            <Time>2021-07-18T12:00:33.000Z</Time>
            <Position>
              <LatitudeDegrees>42.72370434366166591644287109375</LatitudeDegrees>
              <LongitudeDegrees>-0.2560766972601413726806640625</LongitudeDegrees>
            </Position>
            <AltitudeMeters>1482.199951171875</AltitudeMeters>
            <DistanceMeters>NAN</DistanceMeters>
          </Trackpoint>
          <Trackpoint>
            <Time>2021-07-18T12:00:34.000Z</Time>
            <Position>
              <LatitudeDegrees>42.72370836697518825531005859375</LatitudeDegrees>
              <LongitudeDegrees>-0.256094299256801605224609375</LongitudeDegrees>
            </Position>
            <AltitudeMeters>1482.199951171875</AltitudeMeters>
            <DistanceMeters>NAN</DistanceMeters>
          </Trackpoint>
          <Trackpoint>
            <Time>2021-07-18T12:00:44.000Z</Time>
            <Position>
              <LatitudeDegrees>42.7237706445157527923583984375</LatitudeDegrees>
              <LongitudeDegrees>-0.2562540583312511444091796875</LongitudeDegrees>
            </Position>
            <AltitudeMeters>1484</AltitudeMeters>
            <DistanceMeters>NAN</DistanceMeters>
          </Trackpoint>
          <Trackpoint>
            <Time>2021-07-18T12:00:52.000Z</Time>
            <Position>
              <LatitudeDegrees>42.723817415535449981689453125</LatitudeDegrees>
              <LongitudeDegrees>-0.25637584738433361053466796875</LongitudeDegrees>
            </Position>
            <AltitudeMeters>1485</AltitudeMeters>
            <DistanceMeters>NAN</DistanceMeters>
          </Trackpoint>
          <Trackpoint>
            <Time>2021-07-18T12:00:53.000Z</Time>
            <Position>
              <LatitudeDegrees>42.7238246239721775054931640625</LatitudeDegrees>
              <LongitudeDegrees>-0.256385989487171173095703125</LongitudeDegrees>
            </Position>
            <AltitudeMeters>1485.199951171875</AltitudeMeters>
            <DistanceMeters>NAN</DistanceMeters>
          </Trackpoint>
          <Trackpoint>
            <Time>2021-07-18T12:01:01.000Z</Time>
            <Position>
              <LatitudeDegrees>42.7238655276596546173095703125</LatitudeDegrees>
              <LongitudeDegrees>-0.256499312818050384521484375</LongitudeDegrees>
            </Position>
            <AltitudeMeters>1485.199951171875</AltitudeMeters>
            <DistanceMeters>NAN</DistanceMeters>
          </Trackpoint>
          <Trackpoint>
            <Time>2021-07-18T12:01:02.000Z</Time>
            <Position>
              <LatitudeDegrees>42.72387231700122356414794921875</LatitudeDegrees>
              <LongitudeDegrees>-0.25651372969150543212890625</LongitudeDegrees>
            </Position>
            <AltitudeMeters>1485.199951171875</AltitudeMeters>
            <DistanceMeters>NAN</DistanceMeters>
          </Trackpoint>
          <Trackpoint>
            <Time>2021-07-18T12:01:03.000Z</Time>
            <Position>
              <LatitudeDegrees>42.7238755859434604644775390625</LatitudeDegrees>
              <LongitudeDegrees>-0.25653024204075336456298828125</LongitudeDegrees>
            </Position>
            <AltitudeMeters>1485</AltitudeMeters>
            <DistanceMeters>NAN</DistanceMeters>
          </Trackpoint>
          <Trackpoint>
            <Time>2021-07-18T12:01:08.000Z</Time>
            <Position>
              <LatitudeDegrees>42.7239082753658294677734375</LatitudeDegrees>
              <LongitudeDegrees>-0.2565980516374111175537109375</LongitudeDegrees>
            </Position>
            <AltitudeMeters>1485.199951171875</AltitudeMeters>
            <DistanceMeters>NAN</DistanceMeters>
          </Trackpoint>
          <Trackpoint>
            <Time>2021-07-18T12:01:10.000Z</Time>
            <Position>
              <LatitudeDegrees>42.72392311133444309234619140625</LatitudeDegrees>
              <LongitudeDegrees>-0.25662311352789402008056640625</LongitudeDegrees>
            </Position>
            <AltitudeMeters>1485.199951171875</AltitudeMeters>
            <DistanceMeters>NAN</DistanceMeters>
          </Trackpoint>
          <Trackpoint>
            <Time>2021-07-18T12:01:16.000Z</Time>
            <Position>
              <LatitudeDegrees>42.72393719293177127838134765625</LatitudeDegrees>
              <LongitudeDegrees>-0.25670374743640422821044921875</LongitudeDegrees>
            </Position>
            <AltitudeMeters>1484.4000244140625</AltitudeMeters>
            <DistanceMeters>NAN</DistanceMeters>
          </Trackpoint>
          <Trackpoint>
            <Time>2021-07-18T12:01:25.000Z</Time>
            <Position>
              <LatitudeDegrees>42.7239526994526386260986328125</LatitudeDegrees>
              <LongitudeDegrees>-0.25686903856694698333740234375</LongitudeDegrees>
            </Position>
            <AltitudeMeters>1482.199951171875</AltitudeMeters>
            <DistanceMeters>NAN</DistanceMeters>
          </Trackpoint>
          <Trackpoint>
            <Time>2021-07-18T12:01:34.000Z</Time>
            <Position>
              <LatitudeDegrees>42.72392093203961849212646484375</LatitudeDegrees>
              <LongitudeDegrees>-0.257011614739894866943359375</LongitudeDegrees>
            </Position>
            <AltitudeMeters>1478.4000244140625</AltitudeMeters>
            <DistanceMeters>NAN</DistanceMeters>
          </Trackpoint>
          <Trackpoint>
            <Time>2021-07-18T12:01:39.000Z</Time>
            <Position>
              <LatitudeDegrees>42.72390701808035373687744140625</LatitudeDegrees>
              <LongitudeDegrees>-0.25710540823638439178466796875</LongitudeDegrees>
            </Position>
            <AltitudeMeters>1476.4000244140625</AltitudeMeters>
            <DistanceMeters>NAN</DistanceMeters>
          </Trackpoint>
          <Trackpoint>
            <Time>2021-07-18T12:01:46.000Z</Time>
            <Position>
              <LatitudeDegrees>42.7238913439214229583740234375</LatitudeDegrees>
              <LongitudeDegrees>-0.25720573961734771728515625</LongitudeDegrees>
            </Position>
            <AltitudeMeters>1474.5999755859375</AltitudeMeters>
            <DistanceMeters>NAN</DistanceMeters>
          </Trackpoint>
          <Trackpoint>
            <Time>2021-07-18T12:01:51.000Z</Time>
            <Position>
              <LatitudeDegrees>42.72385454736649990081787109375</LatitudeDegrees>
              <LongitudeDegrees>-0.25729198940098285675048828125</LongitudeDegrees>
            </Position>
            <AltitudeMeters>1472.199951171875</AltitudeMeters>
            <DistanceMeters>NAN</DistanceMeters>
          </Trackpoint>
          <Trackpoint>
            <Time>2021-07-18T12:01:56.000Z</Time>
            <Position>
              <LatitudeDegrees>42.72383124567568302154541015625</LatitudeDegrees>
              <LongitudeDegrees>-0.2573738805949687957763671875</LongitudeDegrees>
            </Position>
            <AltitudeMeters>1470.800048828125</AltitudeMeters>
            <DistanceMeters>NAN</DistanceMeters>
          </Trackpoint>
          <Trackpoint>
            <Time>2021-07-18T12:02:05.000Z</Time>
            <Position>
              <LatitudeDegrees>42.7238413877785205841064453125</LatitudeDegrees>
              <LongitudeDegrees>-0.25750254280865192413330078125</LongitudeDegrees>
            </Position>
            <AltitudeMeters>1470.800048828125</AltitudeMeters>
            <DistanceMeters>NAN</DistanceMeters>
          </Trackpoint>
          <Trackpoint>
            <Time>2021-07-18T12:02:14.000Z</Time>
            <Position>
              <LatitudeDegrees>42.7237917669117450714111328125</LatitudeDegrees>
              <LongitudeDegrees>-0.25764964520931243896484375</LongitudeDegrees>
            </Position>
            <AltitudeMeters>1467.800048828125</AltitudeMeters>
            <DistanceMeters>NAN</DistanceMeters>
          </Trackpoint>
          <Trackpoint>
            <Time>2021-07-18T12:02:18.000Z</Time>
            <Position>
              <LatitudeDegrees>42.72378313355147838592529296875</LatitudeDegrees>
              <LongitudeDegrees>-0.25766883976757526397705078125</LongitudeDegrees>
            </Position>
            <AltitudeMeters>1467.4000244140625</AltitudeMeters>
            <DistanceMeters>NAN</DistanceMeters>
          </Trackpoint>
          <Trackpoint>
            <Time>2021-07-18T12:02:20.000Z</Time>
            <Position>
              <LatitudeDegrees>42.72377550601959228515625</LatitudeDegrees>
              <LongitudeDegrees>-0.2576702646911144256591796875</LongitudeDegrees>
            </Position>
            <AltitudeMeters>1466.800048828125</AltitudeMeters>
            <DistanceMeters>NAN</DistanceMeters>
          </Trackpoint>
          <Trackpoint>
            <Time>2021-07-18T12:02:26.000Z</Time>
            <Position>
              <LatitudeDegrees>42.72378422319889068603515625</LatitudeDegrees>
              <LongitudeDegrees>-0.25765626691281795501708984375</LongitudeDegrees>
            </Position>
            <AltitudeMeters>1467.4000244140625</AltitudeMeters>
            <DistanceMeters>NAN</DistanceMeters>
          </Trackpoint>
          <Trackpoint>
            <Time>2021-07-18T12:02:31.000Z</Time>
            <Position>
              <LatitudeDegrees>42.72374675609171390533447265625</LatitudeDegrees>
              <LongitudeDegrees>-0.2577319554984569549560546875</LongitudeDegrees>
            </Position>
            <AltitudeMeters>1465.4000244140625</AltitudeMeters>
            <DistanceMeters>NAN</DistanceMeters>
          </Trackpoint>
          <Trackpoint>
            <Time>2021-07-18T12:02:43.000Z</Time>
            <Position>
              <LatitudeDegrees>42.7236908487975597381591796875</LatitudeDegrees>
              <LongitudeDegrees>-0.257886685431003570556640625</LongitudeDegrees>
            </Position>
            <AltitudeMeters>1462.5999755859375</AltitudeMeters>
            <DistanceMeters>NAN</DistanceMeters>
          </Trackpoint>
          <Trackpoint>
            <Time>2021-07-18T12:02:45.000Z</Time>
            <Position>
              <LatitudeDegrees>42.7236774377524852752685546875</LatitudeDegrees>
              <LongitudeDegrees>-0.2579130046069622039794921875</LongitudeDegrees>
            </Position>
            <AltitudeMeters>1462</AltitudeMeters>
            <DistanceMeters>NAN</DistanceMeters>
          </Trackpoint>
          <Trackpoint>
            <Time>2021-07-18T12:02:51.000Z</Time>
            <Position>
              <LatitudeDegrees>42.72365572862327098846435546875</LatitudeDegrees>
              <LongitudeDegrees>-0.25800461880862712860107421875</LongitudeDegrees>
            </Position>
            <AltitudeMeters>1461</AltitudeMeters>
            <DistanceMeters>NAN</DistanceMeters>
          </Trackpoint>
          <Trackpoint>
            <Time>2021-07-18T12:02:59.000Z</Time>
            <Position>
              <LatitudeDegrees>42.72366126067936420440673828125</LatitudeDegrees>
              <LongitudeDegrees>-0.2581238932907581329345703125</LongitudeDegrees>
            </Position>
            <AltitudeMeters>1460.4000244140625</AltitudeMeters>
            <DistanceMeters>NAN</DistanceMeters>
          </Trackpoint>
          <Trackpoint>
            <Time>2021-07-18T12:03:02.000Z</Time>
            <Position>
              <LatitudeDegrees>42.723669223487377166748046875</LatitudeDegrees>
              <LongitudeDegrees>-0.2581651322543621063232421875</LongitudeDegrees>
            </Position>
            <AltitudeMeters>1460.5999755859375</AltitudeMeters>
            <DistanceMeters>NAN</DistanceMeters>
          </Trackpoint>
          <Trackpoint>
            <Time>2021-07-18T12:03:11.000Z</Time>
            <Position>
              <LatitudeDegrees>42.7237072773277759552001953125</LatitudeDegrees>
              <LongitudeDegrees>-0.25827837176620960235595703125</LongitudeDegrees>
            </Position>
            <AltitudeMeters>1461.800048828125</AltitudeMeters>
            <DistanceMeters>NAN</DistanceMeters>
          </Trackpoint>
          <Trackpoint>
            <Time>2021-07-18T12:03:19.000Z</Time>
            <Position>
              <LatitudeDegrees>42.7237066067755222320556640625</LatitudeDegrees>
              <LongitudeDegrees>-0.2584018371999263763427734375</LongitudeDegrees>
            </Position>
            <AltitudeMeters>1460.4000244140625</AltitudeMeters>
            <DistanceMeters>NAN</DistanceMeters>
          </Trackpoint>
          <Trackpoint>
            <Time>2021-07-18T12:03:29.000Z</Time>
            <Position>
              <LatitudeDegrees>42.72371842525899410247802734375</LatitudeDegrees>
              <LongitudeDegrees>-0.25856486521661281585693359375</LongitudeDegrees>
            </Position>
            <AltitudeMeters>1459.199951171875</AltitudeMeters>
            <DistanceMeters>NAN</DistanceMeters>
          </Trackpoint>
          <Trackpoint>
            <Time>2021-07-18T12:03:40.000Z</Time>
            <Position>
              <LatitudeDegrees>42.72372881881892681121826171875</LatitudeDegrees>
              <LongitudeDegrees>-0.25875865481793880462646484375</LongitudeDegrees>
            </Position>
            <AltitudeMeters>1458.199951171875</AltitudeMeters>
            <DistanceMeters>NAN</DistanceMeters>
          </Trackpoint>
          <Trackpoint>
            <Time>2021-07-18T12:03:49.000Z</Time>
            <Position>
              <LatitudeDegrees>42.7237387932837009429931640625</LatitudeDegrees>
              <LongitudeDegrees>-0.25890215300023555755615234375</LongitudeDegrees>
            </Position>
            <AltitudeMeters>1457.199951171875</AltitudeMeters>
            <DistanceMeters>NAN</DistanceMeters>
          </Trackpoint>
          <Trackpoint>
            <Time>2021-07-18T12:03:54.000Z</Time>
            <Position>
              <LatitudeDegrees>42.723732255399227142333984375</LatitudeDegrees>
              <LongitudeDegrees>-0.258985720574855804443359375</LongitudeDegrees>
            </Position>
            <AltitudeMeters>1456</AltitudeMeters>
            <DistanceMeters>NAN</DistanceMeters>
          </Trackpoint>
          <Trackpoint>
            <Time>2021-07-18T12:03:59.000Z</Time>
            <Position>
              <LatitudeDegrees>42.7237339317798614501953125</LatitudeDegrees>
              <LongitudeDegrees>-0.2590777538716793060302734375</LongitudeDegrees>
            </Position>
            <AltitudeMeters>1455.4000244140625</AltitudeMeters>
            <DistanceMeters>NAN</DistanceMeters>
          </Trackpoint>
          <Trackpoint>
            <Time>2021-07-18T12:04:00.000Z</Time>
            <Position>
              <LatitudeDegrees>42.72373368032276630401611328125</LatitudeDegrees>
              <LongitudeDegrees>-0.25909745134413242340087890625</LongitudeDegrees>
            </Position>
            <AltitudeMeters>1455.4000244140625</AltitudeMeters>
            <DistanceMeters>NAN</DistanceMeters>
          </Trackpoint>
          <Trackpoint>
            <Time>2021-07-18T12:04:10.000Z</Time>
            <Position>
              <LatitudeDegrees>42.72371716797351837158203125</LatitudeDegrees>
              <LongitudeDegrees>-0.25927313603460788726806640625</LongitudeDegrees>
            </Position>
            <AltitudeMeters>1452.5999755859375</AltitudeMeters>
            <DistanceMeters>NAN</DistanceMeters>
          </Trackpoint>
          <Trackpoint>
            <Time>2021-07-18T12:04:14.000Z</Time>
            <Position>
              <LatitudeDegrees>42.723708786070346832275390625</LatitudeDegrees>
              <LongitudeDegrees>-0.25934974662959575653076171875</LongitudeDegrees>
            </Position>
            <AltitudeMeters>1451.4000244140625</AltitudeMeters>
            <DistanceMeters>NAN</DistanceMeters>
          </Trackpoint>
          <Trackpoint>
            <Time>2021-07-18T12:04:17.000Z</Time>
            <Position>
              <LatitudeDegrees>42.723704762756824493408203125</LatitudeDegrees>
              <LongitudeDegrees>-0.2593952603638172149658203125</LongitudeDegrees>
            </Position>
            <AltitudeMeters>1451</AltitudeMeters>
            <DistanceMeters>NAN</DistanceMeters>
          </Trackpoint>
          <Trackpoint>
            <Time>2021-07-18T12:04:28.000Z</Time>
            <Position>
              <LatitudeDegrees>42.72367416881024837493896484375</LatitudeDegrees>
              <LongitudeDegrees>-0.2595595456659793853759765625</LongitudeDegrees>
            </Position>
            <AltitudeMeters>1448.4000244140625</AltitudeMeters>
            <DistanceMeters>NAN</DistanceMeters>
          </Trackpoint>
          <Trackpoint>
            <Time>2021-07-18T12:04:39.000Z</Time>
            <Position>
              <LatitudeDegrees>42.72364349104464054107666015625</LatitudeDegrees>
              <LongitudeDegrees>-0.25971737690269947052001953125</LongitudeDegrees>
            </Position>
            <AltitudeMeters>1446</AltitudeMeters>
            <DistanceMeters>NAN</DistanceMeters>
          </Trackpoint>
          <Trackpoint>
            <Time>2021-07-18T12:04:49.000Z</Time>
            <Position>
              <LatitudeDegrees>42.72360174916684627532958984375</LatitudeDegrees>
              <LongitudeDegrees>-0.2598736993968486785888671875</LongitudeDegrees>
            </Position>
            <AltitudeMeters>1442</AltitudeMeters>
            <DistanceMeters>NAN</DistanceMeters>
          </Trackpoint>
          <Trackpoint>
            <Time>2021-07-18T12:04:52.000Z</Time>
            <Position>
              <LatitudeDegrees>42.72359336726367473602294921875</LatitudeDegrees>
              <LongitudeDegrees>-0.2599186263978481292724609375</LongitudeDegrees>
            </Position>
            <AltitudeMeters>1441</AltitudeMeters>
            <DistanceMeters>NAN</DistanceMeters>
          </Trackpoint>
          <Trackpoint>
            <Time>2021-07-18T12:04:56.000Z</Time>
            <Position>
              <LatitudeDegrees>42.72357308305799961090087890625</LatitudeDegrees>
              <LongitudeDegrees>-0.2599886991083621978759765625</LongitudeDegrees>
            </Position>
            <AltitudeMeters>1439.800048828125</AltitudeMeters>
            <DistanceMeters>NAN</DistanceMeters>
          </Trackpoint>
          <Trackpoint>
            <Time>2021-07-18T12:05:06.000Z</Time>
            <Position>
              <LatitudeDegrees>42.72351943887770175933837890625</LatitudeDegrees>
              <LongitudeDegrees>-0.26016999967396259307861328125</LongitudeDegrees>
            </Position>
            <AltitudeMeters>1435.800048828125</AltitudeMeters>
            <DistanceMeters>NAN</DistanceMeters>
          </Trackpoint>
          <Trackpoint>
            <Time>2021-07-18T12:05:16.000Z</Time>
            <Position>
              <LatitudeDegrees>42.723488844931125640869140625</LatitudeDegrees>
              <LongitudeDegrees>-0.26032540015876293182373046875</LongitudeDegrees>
            </Position>
            <AltitudeMeters>1434.4000244140625</AltitudeMeters>
            <DistanceMeters>NAN</DistanceMeters>
          </Trackpoint>
          <Trackpoint>
            <Time>2021-07-18T12:05:23.000Z</Time>
            <Position>
              <LatitudeDegrees>42.7234548144042491912841796875</LatitudeDegrees>
              <LongitudeDegrees>-0.26045196689665317535400390625</LongitudeDegrees>
            </Position>
            <AltitudeMeters>1433.199951171875</AltitudeMeters>
            <DistanceMeters>NAN</DistanceMeters>
          </Trackpoint>
          <Trackpoint>
            <Time>2021-07-18T12:05:32.000Z</Time>
            <Position>
              <LatitudeDegrees>42.723441906273365020751953125</LatitudeDegrees>
              <LongitudeDegrees>-0.26058976538479328155517578125</LongitudeDegrees>
            </Position>
            <AltitudeMeters>1432</AltitudeMeters>
            <DistanceMeters>NAN</DistanceMeters>
          </Trackpoint>
          <Trackpoint>
            <Time>2021-07-18T12:05:39.000Z</Time>
            <Position>
              <LatitudeDegrees>42.72341533564031124114990234375</LatitudeDegrees>
              <LongitudeDegrees>-0.26069437153637409210205078125</LongitudeDegrees>
            </Position>
            <AltitudeMeters>1430.800048828125</AltitudeMeters>
            <DistanceMeters>NAN</DistanceMeters>
          </Trackpoint>
          <Trackpoint>
            <Time>2021-07-18T12:05:50.000Z</Time>
            <Position>
              <LatitudeDegrees>42.72342841140925884246826171875</LatitudeDegrees>
              <LongitudeDegrees>-0.26086167432367801666259765625</LongitudeDegrees>
            </Position>
            <AltitudeMeters>1429.5999755859375</AltitudeMeters>
            <DistanceMeters>NAN</DistanceMeters>
          </Trackpoint>
          <Trackpoint>
            <Time>2021-07-18T12:05:57.000Z</Time>
            <Position>
              <LatitudeDegrees>42.7234762720763683319091796875</LatitudeDegrees>
              <LongitudeDegrees>-0.26095655746757984161376953125</LongitudeDegrees>
            </Position>
            <AltitudeMeters>1429.5999755859375</AltitudeMeters>
            <DistanceMeters>NAN</DistanceMeters>
          </Trackpoint>
          <Trackpoint>
            <Time>2021-07-18T12:06:01.000Z</Time>
            <Position>
              <LatitudeDegrees>42.7234967239201068878173828125</LatitudeDegrees>
              <LongitudeDegrees>-0.26100642979145050048828125</LongitudeDegrees>
            </Position>
            <AltitudeMeters>1429</AltitudeMeters>
            <DistanceMeters>NAN</DistanceMeters>
          </Trackpoint>
          <Trackpoint>
            <Time>2021-07-18T12:06:09.000Z</Time>
            <Position>
              <LatitudeDegrees>42.7235329337418079376220703125</LatitudeDegrees>
              <LongitudeDegrees>-0.26112821884453296661376953125</LongitudeDegrees>
            </Position>
            <AltitudeMeters>1427.199951171875</AltitudeMeters>
            <DistanceMeters>NAN</DistanceMeters>
          </Trackpoint>
          <Trackpoint>
            <Time>2021-07-18T12:06:14.000Z</Time>
            <Position>
              <LatitudeDegrees>42.72355078719556331634521484375</LatitudeDegrees>
              <LongitudeDegrees>-0.26119644753634929656982421875</LongitudeDegrees>
            </Position>
            <AltitudeMeters>1426.4000244140625</AltitudeMeters>
            <DistanceMeters>NAN</DistanceMeters>
          </Trackpoint>
          <Trackpoint>
            <Time>2021-07-18T12:06:17.000Z</Time>
            <Position>
              <LatitudeDegrees>42.72356285713613033294677734375</LatitudeDegrees>
              <LongitudeDegrees>-0.26123802177608013153076171875</LongitudeDegrees>
            </Position>
            <AltitudeMeters>1426.199951171875</AltitudeMeters>
            <DistanceMeters>NAN</DistanceMeters>
          </Trackpoint>
          <Trackpoint>
            <Time>2021-07-18T12:06:26.000Z</Time>
            <Position>
              <LatitudeDegrees>42.7235624380409717559814453125</LatitudeDegrees>
              <LongitudeDegrees>-0.26139132678508758544921875</LongitudeDegrees>
            </Position>
            <AltitudeMeters>1424.4000244140625</AltitudeMeters>
            <DistanceMeters>NAN</DistanceMeters>
          </Trackpoint>
          <Trackpoint>
            <Time>2021-07-18T12:06:28.000Z</Time>
            <Position>
              <LatitudeDegrees>42.7235496975481510162353515625</LatitudeDegrees>
              <LongitudeDegrees>-0.26142577640712261199951171875</LongitudeDegrees>
            </Position>
            <AltitudeMeters>1424</AltitudeMeters>
            <DistanceMeters>NAN</DistanceMeters>
          </Trackpoint>
          <Trackpoint>
            <Time>2021-07-18T12:06:37.000Z</Time>
            <Position>
              <LatitudeDegrees>42.723445929586887359619140625</LatitudeDegrees>
              <LongitudeDegrees>-0.26147539727389812469482421875</LongitudeDegrees>
            </Position>
            <AltitudeMeters>1422.800048828125</AltitudeMeters>
            <DistanceMeters>NAN</DistanceMeters>
          </Trackpoint>
          <Trackpoint>
            <Time>2021-07-18T12:06:48.000Z</Time>
            <Position>
              <LatitudeDegrees>42.7233103103935718536376953125</LatitudeDegrees>
              <LongitudeDegrees>-0.26141001842916011810302734375</LongitudeDegrees>
            </Position>
            <AltitudeMeters>1422.4000244140625</AltitudeMeters>
            <DistanceMeters>NAN</DistanceMeters>
          </Trackpoint>
          <Trackpoint>
            <Time>2021-07-18T12:06:59.000Z</Time>
            <Position>
              <LatitudeDegrees>42.72318835370242595672607421875</LatitudeDegrees>
              <LongitudeDegrees>-0.2613128721714019775390625</LongitudeDegrees>
            </Position>
            <AltitudeMeters>1421.199951171875</AltitudeMeters>
            <DistanceMeters>NAN</DistanceMeters>
          </Trackpoint>
          <Trackpoint>
            <Time>2021-07-18T12:07:06.000Z</Time>
            <Position>
              <LatitudeDegrees>42.72311375476419925689697265625</LatitudeDegrees>
              <LongitudeDegrees>-0.26135268621146678924560546875</LongitudeDegrees>
            </Position>
            <AltitudeMeters>1419.800048828125</AltitudeMeters>
            <DistanceMeters>NAN</DistanceMeters>
          </Trackpoint>
          <Trackpoint>
            <Time>2021-07-18T12:07:16.000Z</Time>
            <Position>
              <LatitudeDegrees>42.72301702760159969329833984375</LatitudeDegrees>
              <LongitudeDegrees>-0.261474810540676116943359375</LongitudeDegrees>
            </Position>
            <AltitudeMeters>1418</AltitudeMeters>
            <DistanceMeters>NAN</DistanceMeters>
          </Trackpoint>
          <Trackpoint>
            <Time>2021-07-18T12:07:26.000Z</Time>
            <Position>
              <LatitudeDegrees>42.72297780029475688934326171875</LatitudeDegrees>
              <LongitudeDegrees>-0.26163817383348941802978515625</LongitudeDegrees>
            </Position>
            <AltitudeMeters>1416.800048828125</AltitudeMeters>
            <DistanceMeters>NAN</DistanceMeters>
          </Trackpoint>
          <Trackpoint>
            <Time>2021-07-18T12:07:33.000Z</Time>
            <Position>
              <LatitudeDegrees>42.72299230098724365234375</LatitudeDegrees>
              <LongitudeDegrees>-0.2617753855884075164794921875</LongitudeDegrees>
            </Position>
            <AltitudeMeters>1416.199951171875</AltitudeMeters>
            <DistanceMeters>NAN</DistanceMeters>
          </Trackpoint>
          <Trackpoint>
            <Time>2021-07-18T12:07:43.000Z</Time>
            <Position>
              <LatitudeDegrees>42.72305390797555446624755859375</LatitudeDegrees>
              <LongitudeDegrees>-0.2619431912899017333984375</LongitudeDegrees>
            </Position>
            <AltitudeMeters>1414.800048828125</AltitudeMeters>
            <DistanceMeters>NAN</DistanceMeters>
          </Trackpoint>
          <Trackpoint>
            <Time>2021-07-18T12:07:53.000Z</Time>
            <Position>
              <LatitudeDegrees>42.7231054566800594329833984375</LatitudeDegrees>
              <LongitudeDegrees>-0.262072943150997161865234375</LongitudeDegrees>
            </Position>
            <AltitudeMeters>1414.4000244140625</AltitudeMeters>
            <DistanceMeters>NAN</DistanceMeters>
          </Trackpoint>
          <Trackpoint>
            <Time>2021-07-18T12:08:04.000Z</Time>
            <Position>
              <LatitudeDegrees>42.723167650401592254638671875</LatitudeDegrees>
              <LongitudeDegrees>-0.26224787347018718719482421875</LongitudeDegrees>
            </Position>
            <AltitudeMeters>1414</AltitudeMeters>
            <DistanceMeters>NAN</DistanceMeters>
          </Trackpoint>
          <Trackpoint>
            <Time>2021-07-18T12:08:15.000Z</Time>
            <Position>
              <LatitudeDegrees>42.72320612333714962005615234375</LatitudeDegrees>
              <LongitudeDegrees>-0.2624251507222652435302734375</LongitudeDegrees>
            </Position>
            <AltitudeMeters>1413</AltitudeMeters>
            <DistanceMeters>NAN</DistanceMeters>
          </Trackpoint>
          <Trackpoint>
            <Time>2021-07-18T12:08:16.000Z</Time>
            <Position>
              <LatitudeDegrees>42.72321014665067195892333984375</LatitudeDegrees>
              <LongitudeDegrees>-0.26243738830089569091796875</LongitudeDegrees>
            </Position>
            <AltitudeMeters>1413</AltitudeMeters>
            <DistanceMeters>NAN</DistanceMeters>
          </Trackpoint>
          <Trackpoint>
            <Time>2021-07-18T12:08:22.000Z</Time>
            <Position>
              <LatitudeDegrees>42.72321400232613086700439453125</LatitudeDegrees>
              <LongitudeDegrees>-0.2625334449112415313720703125</LongitudeDegrees>
            </Position>
            <AltitudeMeters>1411.199951171875</AltitudeMeters>
            <DistanceMeters>NAN</DistanceMeters>
          </Trackpoint>
          <Trackpoint>
            <Time>2021-07-18T12:08:31.000Z</Time>
            <Position>
              <LatitudeDegrees>42.723162285983562469482421875</LatitudeDegrees>
              <LongitudeDegrees>-0.26267702691256999969482421875</LongitudeDegrees>
            </Position>
            <AltitudeMeters>1408.5999755859375</AltitudeMeters>
            <DistanceMeters>NAN</DistanceMeters>
          </Trackpoint>
          <Trackpoint>
            <Time>2021-07-18T12:08:43.000Z</Time>
            <Position>
              <LatitudeDegrees>42.72307352162897586822509765625</LatitudeDegrees>
              <LongitudeDegrees>-0.26286427862942218780517578125</LongitudeDegrees>
            </Position>
            <AltitudeMeters>1405.5999755859375</AltitudeMeters>
            <DistanceMeters>NAN</DistanceMeters>
          </Trackpoint>
          <Trackpoint>
            <Time>2021-07-18T12:08:54.000Z</Time>
            <Position>
              <LatitudeDegrees>42.72297746501863002777099609375</LatitudeDegrees>
              <LongitudeDegrees>-0.2630269713699817657470703125</LongitudeDegrees>
            </Position>
            <AltitudeMeters>1403.800048828125</AltitudeMeters>
            <DistanceMeters>NAN</DistanceMeters>
          </Trackpoint>
          <Trackpoint>
            <Time>2021-07-18T12:09:05.000Z</Time>
            <Position>
              <LatitudeDegrees>42.72287453524768352508544921875</LatitudeDegrees>
              <LongitudeDegrees>-0.26316435076296329498291015625</LongitudeDegrees>
            </Position>
            <AltitudeMeters>1403.4000244140625</AltitudeMeters>
            <DistanceMeters>NAN</DistanceMeters>
          </Trackpoint>
          <Trackpoint>
            <Time>2021-07-18T12:09:10.000Z</Time>
            <Position>
              <LatitudeDegrees>42.72283195517957210540771484375</LatitudeDegrees>
              <LongitudeDegrees>-0.26322034187614917755126953125</LongitudeDegrees>
            </Position>
            <AltitudeMeters>1403.4000244140625</AltitudeMeters>
            <DistanceMeters>NAN</DistanceMeters>
          </Trackpoint>
          <Trackpoint>
            <Time>2021-07-18T12:09:16.000Z</Time>
            <Position>
              <LatitudeDegrees>42.72276389412581920623779296875</LatitudeDegrees>
              <LongitudeDegrees>-0.26329779066145420074462890625</LongitudeDegrees>
            </Position>
            <AltitudeMeters>1403</AltitudeMeters>
            <DistanceMeters>NAN</DistanceMeters>
          </Trackpoint>
          <Trackpoint>
            <Time>2021-07-18T12:09:27.000Z</Time>
            <Position>
              <LatitudeDegrees>42.72266783751547336578369140625</LatitudeDegrees>
              <LongitudeDegrees>-0.2634145505726337432861328125</LongitudeDegrees>
            </Position>
            <AltitudeMeters>1402.5999755859375</AltitudeMeters>
            <DistanceMeters>NAN</DistanceMeters>
          </Trackpoint>
          <Trackpoint>
            <Time>2021-07-18T12:09:39.000Z</Time>
            <Position>
              <LatitudeDegrees>42.72257194854319095611572265625</LatitudeDegrees>
              <LongitudeDegrees>-0.26355461217463016510009765625</LongitudeDegrees>
            </Position>
            <AltitudeMeters>1401.800048828125</AltitudeMeters>
            <DistanceMeters>NAN</DistanceMeters>
          </Trackpoint>
          <Trackpoint>
            <Time>2021-07-18T12:09:47.000Z</Time>
            <Position>
              <LatitudeDegrees>42.72253758274018764495849609375</LatitudeDegrees>
              <LongitudeDegrees>-0.26368352584540843963623046875</LongitudeDegrees>
            </Position>
            <AltitudeMeters>1400.5999755859375</AltitudeMeters>
            <DistanceMeters>NAN</DistanceMeters>
          </Trackpoint>
          <Trackpoint>
            <Time>2021-07-18T12:09:50.000Z</Time>
            <Position>
              <LatitudeDegrees>42.7225183881819248199462890625</LatitudeDegrees>
              <LongitudeDegrees>-0.26371680200099945068359375</LongitudeDegrees>
            </Position>
            <AltitudeMeters>1400.4000244140625</AltitudeMeters>
            <DistanceMeters>NAN</DistanceMeters>
          </Trackpoint>
          <Trackpoint>
            <Time>2021-07-18T12:10:01.000Z</Time>
            <Position>
              <LatitudeDegrees>42.72247991524636745452880859375</LatitudeDegrees>
              <LongitudeDegrees>-0.263860635459423065185546875</LongitudeDegrees>
            </Position>
            <AltitudeMeters>1399</AltitudeMeters>
            <DistanceMeters>NAN</DistanceMeters>
          </Trackpoint>
          <Trackpoint>
            <Time>2021-07-18T12:10:07.000Z</Time>
            <Position>
              <LatitudeDegrees>42.72247991524636745452880859375</LatitudeDegrees>
              <LongitudeDegrees>-0.263955853879451751708984375</LongitudeDegrees>
            </Position>
            <AltitudeMeters>1397.800048828125</AltitudeMeters>
            <DistanceMeters>NAN</DistanceMeters>
          </Trackpoint>
          <Trackpoint>
            <Time>2021-07-18T12:10:10.000Z</Time>
            <Position>
              <LatitudeDegrees>42.72249265573918819427490234375</LatitudeDegrees>
              <LongitudeDegrees>-0.2640079893171787261962890625</LongitudeDegrees>
            </Position>
            <AltitudeMeters>1396.5999755859375</AltitudeMeters>
            <DistanceMeters>NAN</DistanceMeters>
          </Trackpoint>
          <Trackpoint>
            <Time>2021-07-18T12:10:12.000Z</Time>
            <Position>
              <LatitudeDegrees>42.72250489331781864166259765625</LatitudeDegrees>
              <LongitudeDegrees>-0.26402668096125125885009765625</LongitudeDegrees>
            </Position>
            <AltitudeMeters>1396.199951171875</AltitudeMeters>
            <DistanceMeters>NAN</DistanceMeters>
          </Trackpoint>
          <Trackpoint>
            <Time>2021-07-18T12:10:20.000Z</Time>
            <Position>
              <LatitudeDegrees>42.722601033747196197509765625</LatitudeDegrees>
              <LongitudeDegrees>-0.26403053663671016693115234375</LongitudeDegrees>
            </Position>
            <AltitudeMeters>1394.800048828125</AltitudeMeters>
            <DistanceMeters>NAN</DistanceMeters>
          </Trackpoint>
          <Trackpoint>
            <Time>2021-07-18T12:10:30.000Z</Time>
            <Position>
              <LatitudeDegrees>42.72272047586739063262939453125</LatitudeDegrees>
              <LongitudeDegrees>-0.2639892138540744781494140625</LongitudeDegrees>
            </Position>
            <AltitudeMeters>1393.800048828125</AltitudeMeters>
            <DistanceMeters>NAN</DistanceMeters>
          </Trackpoint>
          <Trackpoint>
            <Time>2021-07-18T12:10:32.000Z</Time>
            <Position>
              <LatitudeDegrees>42.72274411283433437347412109375</LatitudeDegrees>
              <LongitudeDegrees>-0.2639808319509029388427734375</LongitudeDegrees>
            </Position>
            <AltitudeMeters>1393.5999755859375</AltitudeMeters>
            <DistanceMeters>NAN</DistanceMeters>
          </Trackpoint>
          <Trackpoint>
            <Time>2021-07-18T12:10:42.000Z</Time>
            <Position>
              <LatitudeDegrees>42.72285777144134044647216796875</LatitudeDegrees>
              <LongitudeDegrees>-0.26392400264739990234375</LongitudeDegrees>
            </Position>
            <AltitudeMeters>1392.4000244140625</AltitudeMeters>
            <DistanceMeters>NAN</DistanceMeters>
          </Trackpoint>
          <Trackpoint>
            <Time>2021-07-18T12:10:50.000Z</Time>
            <Position>
              <LatitudeDegrees>42.7229465357959270477294921875</LatitudeDegrees>
              <LongitudeDegrees>-0.26384093798696994781494140625</LongitudeDegrees>
            </Position>
            <AltitudeMeters>1391.5999755859375</AltitudeMeters>
            <DistanceMeters>NAN</DistanceMeters>
          </Trackpoint>
          <Trackpoint>
            <Time>2021-07-18T12:10:53.000Z</Time>
            <Position>
              <LatitudeDegrees>42.7229938097298145294189453125</LatitudeDegrees>
              <LongitudeDegrees>-0.2638153731822967529296875</LongitudeDegrees>
            </Position>
            <AltitudeMeters>1390.5999755859375</AltitudeMeters>
            <DistanceMeters>NAN</DistanceMeters>
          </Trackpoint>
          <Trackpoint>
            <Time>2021-07-18T12:11:00.000Z</Time>
            <Position>
              <LatitudeDegrees>42.723081819713115692138671875</LatitudeDegrees>
              <LongitudeDegrees>-0.26376105844974517822265625</LongitudeDegrees>
            </Position>
            <AltitudeMeters>1388.4000244140625</AltitudeMeters>
            <DistanceMeters>NAN</DistanceMeters>
          </Trackpoint>
          <Trackpoint>
            <Time>2021-07-18T12:11:02.000Z</Time>
            <Position>
              <LatitudeDegrees>42.7230982482433319091796875</LatitudeDegrees>
              <LongitudeDegrees>-0.26375074870884418487548828125</LongitudeDegrees>
            </Position>
            <AltitudeMeters>1388</AltitudeMeters>
            <DistanceMeters>NAN</DistanceMeters>
          </Trackpoint>
          <Trackpoint>
            <Time>2021-07-18T12:11:05.000Z</Time>
            <Position>
              <LatitudeDegrees>42.7231158502399921417236328125</LatitudeDegrees>
              <LongitudeDegrees>-0.263726525008678436279296875</LongitudeDegrees>
            </Position>
            <AltitudeMeters>1387.800048828125</AltitudeMeters>
            <DistanceMeters>NAN</DistanceMeters>
          </Trackpoint>
          <Trackpoint>
            <Time>2021-07-18T12:11:10.000Z</Time>
            <Position>
              <LatitudeDegrees>42.72316169925034046173095703125</LatitudeDegrees>
              <LongitudeDegrees>-0.263664163649082183837890625</LongitudeDegrees>
            </Position>
            <AltitudeMeters>1388</AltitudeMeters>
            <DistanceMeters>NAN</DistanceMeters>
          </Trackpoint>
          <Trackpoint>
            <Time>2021-07-18T12:11:17.000Z</Time>
            <Position>
              <LatitudeDegrees>42.72323193959891796112060546875</LatitudeDegrees>
              <LongitudeDegrees>-0.26357087306678295135498046875</LongitudeDegrees>
            </Position>
            <AltitudeMeters>1388</AltitudeMeters>
            <DistanceMeters>NAN</DistanceMeters>
          </Trackpoint>
          <Trackpoint>
            <Time>2021-07-18T12:11:22.000Z</Time>
            <Position>
              <LatitudeDegrees>42.723272927105426788330078125</LatitudeDegrees>
              <LongitudeDegrees>-0.2635308913886547088623046875</LongitudeDegrees>
            </Position>
            <AltitudeMeters>1388</AltitudeMeters>
            <DistanceMeters>NAN</DistanceMeters>
          </Trackpoint>
          <Trackpoint>
            <Time>2021-07-18T12:11:31.000Z</Time>
            <Position>
              <LatitudeDegrees>42.7233844064176082611083984375</LatitudeDegrees>
              <LongitudeDegrees>-0.26344045065343379974365234375</LongitudeDegrees>
            </Position>
            <AltitudeMeters>1387.199951171875</AltitudeMeters>
            <DistanceMeters>NAN</DistanceMeters>
          </Trackpoint>
          <Trackpoint>
            <Time>2021-07-18T12:11:40.000Z</Time>
            <Position>
              <LatitudeDegrees>42.72347685880959033966064453125</LatitudeDegrees>
              <LongitudeDegrees>-0.26333391666412353515625</LongitudeDegrees>
            </Position>
            <AltitudeMeters>1387.4000244140625</AltitudeMeters>
            <DistanceMeters>NAN</DistanceMeters>
          </Trackpoint>
          <Trackpoint>
            <Time>2021-07-18T12:11:51.000Z</Time>
            <Position>
              <LatitudeDegrees>42.7236060239374637603759765625</LatitudeDegrees>
              <LongitudeDegrees>-0.2632226049900054931640625</LongitudeDegrees>
            </Position>
            <AltitudeMeters>1387.5999755859375</AltitudeMeters>
            <DistanceMeters>NAN</DistanceMeters>
          </Trackpoint>
          <Trackpoint>
            <Time>2021-07-18T12:11:59.000Z</Time>
            <Position>
              <LatitudeDegrees>42.72366042248904705047607421875</LatitudeDegrees>
              <LongitudeDegrees>-0.26310064829885959625244140625</LongitudeDegrees>
            </Position>
            <AltitudeMeters>1390</AltitudeMeters>
            <DistanceMeters>NAN</DistanceMeters>
          </Trackpoint>
          <Trackpoint>
            <Time>2021-07-18T12:12:07.000Z</Time>
            <Position>
              <LatitudeDegrees>42.723724879324436187744140625</LatitudeDegrees>
              <LongitudeDegrees>-0.26301900856196880340576171875</LongitudeDegrees>
            </Position>
            <AltitudeMeters>1390.199951171875</AltitudeMeters>
            <DistanceMeters>NAN</DistanceMeters>
          </Trackpoint>
          <Trackpoint>
            <Time>2021-07-18T12:12:09.000Z</Time>
            <Position>
              <LatitudeDegrees>42.72372395731508731842041015625</LatitudeDegrees>
              <LongitudeDegrees>-0.26300392113626003265380859375</LongitudeDegrees>
            </Position>
            <AltitudeMeters>1390.5999755859375</AltitudeMeters>
            <DistanceMeters>NAN</DistanceMeters>
          </Trackpoint>
          <Trackpoint>
            <Time>2021-07-18T12:12:13.000Z</Time>
            <Position>
              <LatitudeDegrees>42.7237622626125812530517578125</LatitudeDegrees>
              <LongitudeDegrees>-0.26297785341739654541015625</LongitudeDegrees>
            </Position>
            <AltitudeMeters>1390</AltitudeMeters>
            <DistanceMeters>NAN</DistanceMeters>
          </Trackpoint>
          <Trackpoint>
            <Time>2021-07-18T12:12:18.000Z</Time>
            <Position>
              <LatitudeDegrees>42.72381900809705257415771484375</LatitudeDegrees>
              <LongitudeDegrees>-0.26293619535863399505615234375</LongitudeDegrees>
            </Position>
            <AltitudeMeters>1389.199951171875</AltitudeMeters>
            <DistanceMeters>NAN</DistanceMeters>
          </Trackpoint>
          <Trackpoint>
            <Time>2021-07-18T12:12:25.000Z</Time>
            <Position>
              <LatitudeDegrees>42.72390584461390972137451171875</LatitudeDegrees>
              <LongitudeDegrees>-0.2628878317773342132568359375</LongitudeDegrees>
            </Position>
            <AltitudeMeters>1387.4000244140625</AltitudeMeters>
            <DistanceMeters>NAN</DistanceMeters>
          </Trackpoint>
          <Trackpoint>
            <Time>2021-07-18T12:12:35.000Z</Time>
            <Position>
              <LatitudeDegrees>42.7240182459354400634765625</LatitudeDegrees>
              <LongitudeDegrees>-0.2628023363649845123291015625</LongitudeDegrees>
            </Position>
            <AltitudeMeters>1386.800048828125</AltitudeMeters>
            <DistanceMeters>NAN</DistanceMeters>
          </Trackpoint>
          <Trackpoint>
            <Time>2021-07-18T12:12:38.000Z</Time>
            <Position>
              <LatitudeDegrees>42.72403911687433719635009765625</LatitudeDegrees>
              <LongitudeDegrees>-0.26276730000972747802734375</LongitudeDegrees>
            </Position>
            <AltitudeMeters>1387.4000244140625</AltitudeMeters>
            <DistanceMeters>NAN</DistanceMeters>
          </Trackpoint>
          <Trackpoint>
            <Time>2021-07-18T12:12:42.000Z</Time>
            <Position>
              <LatitudeDegrees>42.724076248705387115478515625</LatitudeDegrees>
              <LongitudeDegrees>-0.26273268274962902069091796875</LongitudeDegrees>
            </Position>
            <AltitudeMeters>1387.5999755859375</AltitudeMeters>
            <DistanceMeters>NAN</DistanceMeters>
          </Trackpoint>
          <Trackpoint>
            <Time>2021-07-18T12:12:51.000Z</Time>
            <Position>
              <LatitudeDegrees>42.7241577208042144775390625</LatitudeDegrees>
              <LongitudeDegrees>-0.26273469440639019012451171875</LongitudeDegrees>
            </Position>
            <AltitudeMeters>1385.199951171875</AltitudeMeters>
            <DistanceMeters>NAN</DistanceMeters>
          </Trackpoint>
          <Trackpoint>
            <Time>2021-07-18T12:12:58.000Z</Time>
            <Position>
              <LatitudeDegrees>42.724132575094699859619140625</LatitudeDegrees>
              <LongitudeDegrees>-0.2628237940371036529541015625</LongitudeDegrees>
            </Position>
            <AltitudeMeters>1382.800048828125</AltitudeMeters>
            <DistanceMeters>NAN</DistanceMeters>
          </Trackpoint>
          <Trackpoint>
            <Time>2021-07-18T12:13:07.000Z</Time>
            <Position>
              <LatitudeDegrees>42.72406174801290035247802734375</LatitudeDegrees>
              <LongitudeDegrees>-0.26290141046047210693359375</LongitudeDegrees>
            </Position>
            <AltitudeMeters>1382.199951171875</AltitudeMeters>
            <DistanceMeters>NAN</DistanceMeters>
          </Trackpoint>
          <Trackpoint>
            <Time>2021-07-18T12:13:09.000Z</Time>
            <Position>
              <LatitudeDegrees>42.7240415476262569427490234375</LatitudeDegrees>
              <LongitudeDegrees>-0.26291205547749996185302734375</LongitudeDegrees>
            </Position>
            <AltitudeMeters>1382.199951171875</AltitudeMeters>
            <DistanceMeters>NAN</DistanceMeters>
          </Trackpoint>
          <Trackpoint>
            <Time>2021-07-18T12:13:14.000Z</Time>
            <Position>
              <LatitudeDegrees>42.72402034141123294830322265625</LatitudeDegrees>
              <LongitudeDegrees>-0.26295312680304050445556640625</LongitudeDegrees>
            </Position>
            <AltitudeMeters>1381.5999755859375</AltitudeMeters>
            <DistanceMeters>NAN</DistanceMeters>
          </Trackpoint>
          <Trackpoint>
            <Time>2021-07-18T12:13:19.000Z</Time>
            <Position>
              <LatitudeDegrees>42.72396720014512538909912109375</LatitudeDegrees>
              <LongitudeDegrees>-0.26296419091522693634033203125</LongitudeDegrees>
            </Position>
            <AltitudeMeters>1382.4000244140625</AltitudeMeters>
            <DistanceMeters>NAN</DistanceMeters>
          </Trackpoint>
          <Trackpoint>
            <Time>2021-07-18T12:13:23.000Z</Time>
            <Position>
              <LatitudeDegrees>42.7239396236836910247802734375</LatitudeDegrees>
              <LongitudeDegrees>-0.26304381899535655975341796875</LongitudeDegrees>
            </Position>
            <AltitudeMeters>1380.4000244140625</AltitudeMeters>
            <DistanceMeters>NAN</DistanceMeters>
          </Trackpoint>
          <Trackpoint>
            <Time>2021-07-18T12:13:26.000Z</Time>
            <Position>
              <LatitudeDegrees>42.72391607053577899932861328125</LatitudeDegrees>
              <LongitudeDegrees>-0.2630563080310821533203125</LongitudeDegrees>
            </Position>
            <AltitudeMeters>1381.199951171875</AltitudeMeters>
            <DistanceMeters>NAN</DistanceMeters>
          </Trackpoint>
          <Trackpoint>
            <Time>2021-07-18T12:13:27.000Z</Time>
            <Position>
              <LatitudeDegrees>42.72391472943127155303955078125</LatitudeDegrees>
              <LongitudeDegrees>-0.263076089322566986083984375</LongitudeDegrees>
            </Position>
            <AltitudeMeters>1380.4000244140625</AltitudeMeters>
            <DistanceMeters>NAN</DistanceMeters>
          </Trackpoint>
          <Trackpoint>
            <Time>2021-07-18T12:13:29.000Z</Time>
            <Position>
              <LatitudeDegrees>42.72389226593077182769775390625</LatitudeDegrees>
              <LongitudeDegrees>-0.26308220811188220977783203125</LongitudeDegrees>
            </Position>
            <AltitudeMeters>1381.4000244140625</AltitudeMeters>
            <DistanceMeters>NAN</DistanceMeters>
          </Trackpoint>
          <Trackpoint>
            <Time>2021-07-18T12:13:30.000Z</Time>
            <Position>
              <LatitudeDegrees>42.7238707244396209716796875</LatitudeDegrees>
              <LongitudeDegrees>-0.2630866505205631256103515625</LongitudeDegrees>
            </Position>
            <AltitudeMeters>1382.199951171875</AltitudeMeters>
            <DistanceMeters>NAN</DistanceMeters>
          </Trackpoint>
          <Trackpoint>
            <Time>2021-07-18T12:13:33.000Z</Time>
            <Position>
              <LatitudeDegrees>42.72384029813110828399658203125</LatitudeDegrees>
              <LongitudeDegrees>-0.26311389170587062835693359375</LongitudeDegrees>
            </Position>
            <AltitudeMeters>1382.5999755859375</AltitudeMeters>
            <DistanceMeters>NAN</DistanceMeters>
          </Trackpoint>
          <Trackpoint>
            <Time>2021-07-18T12:13:39.000Z</Time>
            <Position>
              <LatitudeDegrees>42.72380710579454898834228515625</LatitudeDegrees>
              <LongitudeDegrees>-0.2631743252277374267578125</LongitudeDegrees>
            </Position>
            <AltitudeMeters>1382</AltitudeMeters>
            <DistanceMeters>NAN</DistanceMeters>
          </Trackpoint>
          <Trackpoint>
            <Time>2021-07-18T12:13:47.000Z</Time>
            <Position>
              <LatitudeDegrees>42.72379805333912372589111328125</LatitudeDegrees>
              <LongitudeDegrees>-0.26330064050853252410888671875</LongitudeDegrees>
            </Position>
            <AltitudeMeters>1377.4000244140625</AltitudeMeters>
            <DistanceMeters>NAN</DistanceMeters>
          </Trackpoint>
          <Trackpoint>
            <Time>2021-07-18T12:13:48.000Z</Time>
            <Position>
              <LatitudeDegrees>42.7237994782626628875732421875</LatitudeDegrees>
              <LongitudeDegrees>-0.2633183263242244720458984375</LongitudeDegrees>
            </Position>
            <AltitudeMeters>1376.5999755859375</AltitudeMeters>
            <DistanceMeters>NAN</DistanceMeters>
          </Trackpoint>
          <Trackpoint>
            <Time>2021-07-18T12:13:53.000Z</Time>
            <Position>
              <LatitudeDegrees>42.72378983907401561737060546875</LatitudeDegrees>
              <LongitudeDegrees>-0.263383872807025909423828125</LongitudeDegrees>
            </Position>
            <AltitudeMeters>1374.5999755859375</AltitudeMeters>
            <DistanceMeters>NAN</DistanceMeters>
          </Trackpoint>
          <Trackpoint>
            <Time>2021-07-18T12:13:56.000Z</Time>
            <Position>
              <LatitudeDegrees>42.72380031645298004150390625</LatitudeDegrees>
              <LongitudeDegrees>-0.263410694897174835205078125</LongitudeDegrees>
            </Position>
            <AltitudeMeters>1373</AltitudeMeters>
            <DistanceMeters>NAN</DistanceMeters>
          </Trackpoint>
          <Trackpoint>
            <Time>2021-07-18T12:13:59.000Z</Time>
            <Position>
              <LatitudeDegrees>42.7238009870052337646484375</LatitudeDegrees>
              <LongitudeDegrees>-0.26349191553890705108642578125</LongitudeDegrees>
            </Position>
            <AltitudeMeters>1370.199951171875</AltitudeMeters>
            <DistanceMeters>NAN</DistanceMeters>
          </Trackpoint>
          <Trackpoint>
            <Time>2021-07-18T12:14:06.000Z</Time>
            <Position>
              <LatitudeDegrees>42.7236851491034030914306640625</LatitudeDegrees>
              <LongitudeDegrees>-0.26369425468146800994873046875</LongitudeDegrees>
            </Position>
            <AltitudeMeters>1367.5999755859375</AltitudeMeters>
            <DistanceMeters>NAN</DistanceMeters>
          </Trackpoint>
          <Trackpoint>
            <Time>2021-07-18T12:14:07.000Z</Time>
            <Position>
              <LatitudeDegrees>42.72367693483829498291015625</LatitudeDegrees>
              <LongitudeDegrees>-0.26371068321168422698974609375</LongitudeDegrees>
            </Position>
            <AltitudeMeters>1367.199951171875</AltitudeMeters>
            <DistanceMeters>NAN</DistanceMeters>
          </Trackpoint>
          <Trackpoint>
            <Time>2021-07-18T12:14:08.000Z</Time>
            <Position>
              <LatitudeDegrees>42.723664529621601104736328125</LatitudeDegrees>
              <LongitudeDegrees>-0.263708420097827911376953125</LongitudeDegrees>
            </Position>
            <AltitudeMeters>1368</AltitudeMeters>
            <DistanceMeters>NAN</DistanceMeters>
          </Trackpoint>
          <Trackpoint>
            <Time>2021-07-18T12:14:13.000Z</Time>
            <Position>
              <LatitudeDegrees>42.72364147938787937164306640625</LatitudeDegrees>
              <LongitudeDegrees>-0.26380858384072780609130859375</LongitudeDegrees>
            </Position>
            <AltitudeMeters>1365</AltitudeMeters>
            <DistanceMeters>NAN</DistanceMeters>
          </Trackpoint>
          <Trackpoint>
            <Time>2021-07-18T12:14:22.000Z</Time>
            <Position>
              <LatitudeDegrees>42.72360610775649547576904296875</LatitudeDegrees>
              <LongitudeDegrees>-0.26393665932118892669677734375</LongitudeDegrees>
            </Position>
            <AltitudeMeters>1363</AltitudeMeters>
            <DistanceMeters>NAN</DistanceMeters>
          </Trackpoint>
          <Trackpoint>
            <Time>2021-07-18T12:14:28.000Z</Time>
            <Position>
              <LatitudeDegrees>42.723586075007915496826171875</LatitudeDegrees>
              <LongitudeDegrees>-0.26400036178529262542724609375</LongitudeDegrees>
            </Position>
            <AltitudeMeters>1362.4000244140625</AltitudeMeters>
            <DistanceMeters>NAN</DistanceMeters>
          </Trackpoint>
          <Trackpoint>
            <Time>2021-07-18T12:14:30.000Z</Time>
            <Position>
              <LatitudeDegrees>42.7235728316009044647216796875</LatitudeDegrees>
              <LongitudeDegrees>-0.26401863433420658111572265625</LongitudeDegrees>
            </Position>
            <AltitudeMeters>1362.4000244140625</AltitudeMeters>
            <DistanceMeters>NAN</DistanceMeters>
          </Trackpoint>
          <Trackpoint>
            <Time>2021-07-18T12:14:33.000Z</Time>
            <Position>
              <LatitudeDegrees>42.72354994900524616241455078125</LatitudeDegrees>
              <LongitudeDegrees>-0.26404662989079952239990234375</LongitudeDegrees>
            </Position>
            <AltitudeMeters>1362.5999755859375</AltitudeMeters>
            <DistanceMeters>NAN</DistanceMeters>
          </Trackpoint>
          <Trackpoint>
            <Time>2021-07-18T12:14:37.000Z</Time>
            <Position>
              <LatitudeDegrees>42.723510302603244781494140625</LatitudeDegrees>
              <LongitudeDegrees>-0.264086611568927764892578125</LongitudeDegrees>
            </Position>
            <AltitudeMeters>1363.4000244140625</AltitudeMeters>
            <DistanceMeters>NAN</DistanceMeters>
          </Trackpoint>
          <Trackpoint>
            <Time>2021-07-18T12:14:39.000Z</Time>
            <Position>
              <LatitudeDegrees>42.72350602783262729644775390625</LatitudeDegrees>
              <LongitudeDegrees>-0.26412374339997768402099609375</LongitudeDegrees>
            </Position>
            <AltitudeMeters>1362.5999755859375</AltitudeMeters>
            <DistanceMeters>NAN</DistanceMeters>
          </Trackpoint>
          <Trackpoint>
            <Time>2021-07-18T12:14:41.000Z</Time>
            <Position>
              <LatitudeDegrees>42.72349680773913860321044921875</LatitudeDegrees>
              <LongitudeDegrees>-0.26415509171783924102783203125</LongitudeDegrees>
            </Position>
            <AltitudeMeters>1362.199951171875</AltitudeMeters>
            <DistanceMeters>NAN</DistanceMeters>
          </Trackpoint>
          <Trackpoint>
            <Time>2021-07-18T12:14:44.000Z</Time>
            <Position>
              <LatitudeDegrees>42.72346881218254566192626953125</LatitudeDegrees>
              <LongitudeDegrees>-0.26419649831950664520263671875</LongitudeDegrees>
            </Position>
            <AltitudeMeters>1362.4000244140625</AltitudeMeters>
            <DistanceMeters>NAN</DistanceMeters>
          </Trackpoint>
          <Trackpoint>
            <Time>2021-07-18T12:14:46.000Z</Time>
            <Position>
              <LatitudeDegrees>42.72344986908137798309326171875</LatitudeDegrees>
              <LongitudeDegrees>-0.2642161957919597625732421875</LongitudeDegrees>
            </Position>
            <AltitudeMeters>1362.800048828125</AltitudeMeters>
            <DistanceMeters>NAN</DistanceMeters>
          </Trackpoint>
          <Trackpoint>
            <Time>2021-07-18T12:14:50.000Z</Time>
            <Position>
              <LatitudeDegrees>42.7234209515154361724853515625</LatitudeDegrees>
              <LongitudeDegrees>-0.26427864097058773040771484375</LongitudeDegrees>
            </Position>
            <AltitudeMeters>1362.4000244140625</AltitudeMeters>
            <DistanceMeters>NAN</DistanceMeters>
          </Trackpoint>
          <Trackpoint>
            <Time>2021-07-18T12:14:55.000Z</Time>
            <Position>
              <LatitudeDegrees>42.72339396178722381591796875</LatitudeDegrees>
              <LongitudeDegrees>-0.2643563412129878997802734375</LongitudeDegrees>
            </Position>
            <AltitudeMeters>1361.5999755859375</AltitudeMeters>
            <DistanceMeters>NAN</DistanceMeters>
          </Trackpoint>
          <Trackpoint>
            <Time>2021-07-18T12:15:01.000Z</Time>
            <Position>
              <LatitudeDegrees>42.7233646251261234283447265625</LatitudeDegrees>
              <LongitudeDegrees>-0.2644401602447032928466796875</LongitudeDegrees>
            </Position>
            <AltitudeMeters>1360.199951171875</AltitudeMeters>
            <DistanceMeters>NAN</DistanceMeters>
          </Trackpoint>
          <Trackpoint>
            <Time>2021-07-18T12:15:02.000Z</Time>
            <Position>
              <LatitudeDegrees>42.72336889989674091339111328125</LatitudeDegrees>
              <LongitudeDegrees>-0.26444376446306705474853515625</LongitudeDegrees>
            </Position>
            <AltitudeMeters>1360</AltitudeMeters>
            <DistanceMeters>NAN</DistanceMeters>
          </Trackpoint>
          <Trackpoint>
            <Time>2021-07-18T12:15:07.000Z</Time>
            <Position>
              <LatitudeDegrees>42.72338750772178173065185546875</LatitudeDegrees>
              <LongitudeDegrees>-0.26450444944202899932861328125</LongitudeDegrees>
            </Position>
            <AltitudeMeters>1358</AltitudeMeters>
            <DistanceMeters>NAN</DistanceMeters>
          </Trackpoint>
          <Trackpoint>
            <Time>2021-07-18T12:15:08.000Z</Time>
            <Position>
              <LatitudeDegrees>42.7234004996716976165771484375</LatitudeDegrees>
              <LongitudeDegrees>-0.26449137367308139801025390625</LongitudeDegrees>
            </Position>
            <AltitudeMeters>1358</AltitudeMeters>
            <DistanceMeters>NAN</DistanceMeters>
          </Trackpoint>
          <Trackpoint>
            <Time>2021-07-18T12:15:10.000Z</Time>
            <Position>
              <LatitudeDegrees>42.723415754735469818115234375</LatitudeDegrees>
              <LongitudeDegrees>-0.26447586715221405029296875</LongitudeDegrees>
            </Position>
            <AltitudeMeters>1357.5999755859375</AltitudeMeters>
            <DistanceMeters>NAN</DistanceMeters>
          </Trackpoint>
          <Trackpoint>
            <Time>2021-07-18T12:15:17.000Z</Time>
            <Position>
              <LatitudeDegrees>42.7235084585845470428466796875</LatitudeDegrees>
              <LongitudeDegrees>-0.2643907070159912109375</LongitudeDegrees>
            </Position>
            <AltitudeMeters>1355.800048828125</AltitudeMeters>
            <DistanceMeters>NAN</DistanceMeters>
          </Trackpoint>
          <Trackpoint>
            <Time>2021-07-18T12:15:23.000Z</Time>
            <Position>
              <LatitudeDegrees>42.72356067784130573272705078125</LatitudeDegrees>
              <LongitudeDegrees>-0.2643020264804363250732421875</LongitudeDegrees>
            </Position>
            <AltitudeMeters>1355.800048828125</AltitudeMeters>
            <DistanceMeters>NAN</DistanceMeters>
          </Trackpoint>
          <Trackpoint>
            <Time>2021-07-18T12:15:24.000Z</Time>
            <Position>
              <LatitudeDegrees>42.72357274778187274932861328125</LatitudeDegrees>
              <LongitudeDegrees>-0.26429087854921817779541015625</LongitudeDegrees>
            </Position>
            <AltitudeMeters>1355.5999755859375</AltitudeMeters>
            <DistanceMeters>NAN</DistanceMeters>
          </Trackpoint>
          <Trackpoint>
            <Time>2021-07-18T12:15:26.000Z</Time>
            <Position>
              <LatitudeDegrees>42.7235979773104190826416015625</LatitudeDegrees>
              <LongitudeDegrees>-0.2642748691141605377197265625</LongitudeDegrees>
            </Position>
            <AltitudeMeters>1354.800048828125</AltitudeMeters>
            <DistanceMeters>NAN</DistanceMeters>
          </Trackpoint>
          <Trackpoint>
            <Time>2021-07-18T12:15:31.000Z</Time>
            <Position>
              <LatitudeDegrees>42.72366209886968135833740234375</LatitudeDegrees>
              <LongitudeDegrees>-0.26422449387609958648681640625</LongitudeDegrees>
            </Position>
            <AltitudeMeters>1353.4000244140625</AltitudeMeters>
            <DistanceMeters>NAN</DistanceMeters>
          </Trackpoint>
          <Trackpoint>
            <Time>2021-07-18T12:15:35.000Z</Time>
            <Position>
              <LatitudeDegrees>42.72371021099388599395751953125</LatitudeDegrees>
              <LongitudeDegrees>-0.264169089496135711669921875</LongitudeDegrees>
            </Position>
            <AltitudeMeters>1353.199951171875</AltitudeMeters>
            <DistanceMeters>NAN</DistanceMeters>
          </Trackpoint>
          <Trackpoint>
            <Time>2021-07-18T12:15:39.000Z</Time>
            <Position>
              <LatitudeDegrees>42.72377022542059421539306640625</LatitudeDegrees>
              <LongitudeDegrees>-0.26412307284772396087646484375</LongitudeDegrees>
            </Position>
            <AltitudeMeters>1352.5999755859375</AltitudeMeters>
            <DistanceMeters>NAN</DistanceMeters>
          </Trackpoint>
          <Trackpoint>
            <Time>2021-07-18T12:15:42.000Z</Time>
            <Position>
              <LatitudeDegrees>42.723808027803897857666015625</LatitudeDegrees>
              <LongitudeDegrees>-0.2640914730727672576904296875</LongitudeDegrees>
            </Position>
            <AltitudeMeters>1352.4000244140625</AltitudeMeters>
            <DistanceMeters>NAN</DistanceMeters>
          </Trackpoint>
          <Trackpoint>
            <Time>2021-07-18T12:15:45.000Z</Time>
            <Position>
              <LatitudeDegrees>42.7238333411514759063720703125</LatitudeDegrees>
              <LongitudeDegrees>-0.26406347751617431640625</LongitudeDegrees>
            </Position>
            <AltitudeMeters>1352.4000244140625</AltitudeMeters>
            <DistanceMeters>NAN</DistanceMeters>
          </Trackpoint>
          <Trackpoint>
            <Time>2021-07-18T12:15:47.000Z</Time>
            <Position>
              <LatitudeDegrees>42.72385354153811931610107421875</LatitudeDegrees>
              <LongitudeDegrees>-0.2640384994447231292724609375</LongitudeDegrees>
            </Position>
            <AltitudeMeters>1352.4000244140625</AltitudeMeters>
            <DistanceMeters>NAN</DistanceMeters>
          </Trackpoint>
          <Trackpoint>
            <Time>2021-07-18T12:15:59.000Z</Time>
            <Position>
              <LatitudeDegrees>42.72397340275347232818603515625</LatitudeDegrees>
              <LongitudeDegrees>-0.263933055102825164794921875</LongitudeDegrees>
            </Position>
            <AltitudeMeters>1351.5999755859375</AltitudeMeters>
            <DistanceMeters>NAN</DistanceMeters>
          </Trackpoint>
          <Trackpoint>
            <Time>2021-07-18T12:16:07.000Z</Time>
            <Position>
              <LatitudeDegrees>42.72404515184462070465087890625</LatitudeDegrees>
              <LongitudeDegrees>-0.2638530917465686798095703125</LongitudeDegrees>
            </Position>
            <AltitudeMeters>1351.800048828125</AltitudeMeters>
            <DistanceMeters>NAN</DistanceMeters>
          </Trackpoint>
          <Trackpoint>
            <Time>2021-07-18T12:16:13.000Z</Time>
            <Position>
              <LatitudeDegrees>42.72410877048969268798828125</LatitudeDegrees>
              <LongitudeDegrees>-0.26377237401902675628662109375</LongitudeDegrees>
            </Position>
            <AltitudeMeters>1352.5999755859375</AltitudeMeters>
            <DistanceMeters>NAN</DistanceMeters>
          </Trackpoint>
          <Trackpoint>
            <Time>2021-07-18T12:16:15.000Z</Time>
            <Position>
              <LatitudeDegrees>42.7241335809230804443359375</LatitudeDegrees>
              <LongitudeDegrees>-0.26375024579465389251708984375</LongitudeDegrees>
            </Position>
            <AltitudeMeters>1352.800048828125</AltitudeMeters>
            <DistanceMeters>NAN</DistanceMeters>
          </Trackpoint>
          <Trackpoint>
            <Time>2021-07-18T12:16:21.000Z</Time>
            <Position>
              <LatitudeDegrees>42.72421211935579776763916015625</LatitudeDegrees>
              <LongitudeDegrees>-0.2636743895709514617919921875</LongitudeDegrees>
            </Position>
            <AltitudeMeters>1353.199951171875</AltitudeMeters>
            <DistanceMeters>NAN</DistanceMeters>
          </Trackpoint>
          <Trackpoint>
            <Time>2021-07-18T12:16:22.000Z</Time>
            <Position>
              <LatitudeDegrees>42.7242272906005382537841796875</LatitudeDegrees>
              <LongitudeDegrees>-0.2636586315929889678955078125</LongitudeDegrees>
            </Position>
            <AltitudeMeters>1353.4000244140625</AltitudeMeters>
            <DistanceMeters>NAN</DistanceMeters>
          </Trackpoint>
          <Trackpoint>
            <Time>2021-07-18T12:16:27.000Z</Time>
            <Position>
              <LatitudeDegrees>42.72426165640354156494140625</LatitudeDegrees>
              <LongitudeDegrees>-0.263605825603008270263671875</LongitudeDegrees>
            </Position>
            <AltitudeMeters>1354.4000244140625</AltitudeMeters>
            <DistanceMeters>NAN</DistanceMeters>
          </Trackpoint>
          <Trackpoint>
            <Time>2021-07-18T12:16:31.000Z</Time>
            <Position>
              <LatitudeDegrees>42.7242956869304180145263671875</LatitudeDegrees>
              <LongitudeDegrees>-0.26360507123172283172607421875</LongitudeDegrees>
            </Position>
            <AltitudeMeters>1353.800048828125</AltitudeMeters>
            <DistanceMeters>NAN</DistanceMeters>
          </Trackpoint>
          <Trackpoint>
            <Time>2021-07-18T12:16:34.000Z</Time>
            <Position>
              <LatitudeDegrees>42.724298201501369476318359375</LatitudeDegrees>
              <LongitudeDegrees>-0.26362166740000247955322265625</LongitudeDegrees>
            </Position>
            <AltitudeMeters>1353.199951171875</AltitudeMeters>
            <DistanceMeters>NAN</DistanceMeters>
          </Trackpoint>
          <Trackpoint>
            <Time>2021-07-18T12:16:41.000Z</Time>
            <Position>
              <LatitudeDegrees>42.72429359145462512969970703125</LatitudeDegrees>
              <LongitudeDegrees>-0.263717807829380035400390625</LongitudeDegrees>
            </Position>
            <AltitudeMeters>1350.199951171875</AltitudeMeters>
            <DistanceMeters>NAN</DistanceMeters>
          </Trackpoint>
          <Trackpoint>
            <Time>2021-07-18T12:16:45.000Z</Time>
            <Position>
              <LatitudeDegrees>42.72430733777582645416259765625</LatitudeDegrees>
              <LongitudeDegrees>-0.2637525089085102081298828125</LongitudeDegrees>
            </Position>
            <AltitudeMeters>1348.800048828125</AltitudeMeters>
            <DistanceMeters>NAN</DistanceMeters>
          </Trackpoint>
          <Trackpoint>
            <Time>2021-07-18T12:16:48.000Z</Time>
            <Position>
              <LatitudeDegrees>42.72428420372307300567626953125</LatitudeDegrees>
              <LongitudeDegrees>-0.2637927420437335968017578125</LongitudeDegrees>
            </Position>
            <AltitudeMeters>1348</AltitudeMeters>
            <DistanceMeters>NAN</DistanceMeters>
          </Trackpoint>
          <Trackpoint>
            <Time>2021-07-18T12:16:55.000Z</Time>
            <Position>
              <LatitudeDegrees>42.7242685295641422271728515625</LatitudeDegrees>
              <LongitudeDegrees>-0.2638752199709415435791015625</LongitudeDegrees>
            </Position>
            <AltitudeMeters>1346</AltitudeMeters>
            <DistanceMeters>NAN</DistanceMeters>
          </Trackpoint>
          <Trackpoint>
            <Time>2021-07-18T12:16:59.000Z</Time>
            <Position>
              <LatitudeDegrees>42.7242266200482845306396484375</LatitudeDegrees>
              <LongitudeDegrees>-0.26391168124973773956298828125</LongitudeDegrees>
            </Position>
            <AltitudeMeters>1346.199951171875</AltitudeMeters>
            <DistanceMeters>NAN</DistanceMeters>
          </Trackpoint>
          <Trackpoint>
            <Time>2021-07-18T12:17:01.000Z</Time>
            <Position>
              <LatitudeDegrees>42.7241987921297550201416015625</LatitudeDegrees>
              <LongitudeDegrees>-0.26393448002636432647705078125</LongitudeDegrees>
            </Position>
            <AltitudeMeters>1346.199951171875</AltitudeMeters>
            <DistanceMeters>NAN</DistanceMeters>
          </Trackpoint>
          <Trackpoint>
            <Time>2021-07-18T12:17:06.000Z</Time>
            <Position>
              <LatitudeDegrees>42.7241565473377704620361328125</LatitudeDegrees>
              <LongitudeDegrees>-0.2640219032764434814453125</LongitudeDegrees>
            </Position>
            <AltitudeMeters>1345.199951171875</AltitudeMeters>
            <DistanceMeters>NAN</DistanceMeters>
          </Trackpoint>
          <Trackpoint>
            <Time>2021-07-18T12:17:08.000Z</Time>
            <Position>
              <LatitudeDegrees>42.7241421304643154144287109375</LatitudeDegrees>
              <LongitudeDegrees>-0.26405920274555683135986328125</LongitudeDegrees>
            </Position>
            <AltitudeMeters>1344.800048828125</AltitudeMeters>
            <DistanceMeters>NAN</DistanceMeters>
          </Trackpoint>
          <Trackpoint>
            <Time>2021-07-18T12:17:13.000Z</Time>
            <Position>
              <LatitudeDegrees>42.724110782146453857421875</LatitudeDegrees>
              <LongitudeDegrees>-0.26413246057927608489990234375</LongitudeDegrees>
            </Position>
            <AltitudeMeters>1343.800048828125</AltitudeMeters>
            <DistanceMeters>NAN</DistanceMeters>
          </Trackpoint>
          <Trackpoint>
            <Time>2021-07-18T12:17:17.000Z</Time>
            <Position>
              <LatitudeDegrees>42.72409158758819103240966796875</LatitudeDegrees>
              <LongitudeDegrees>-0.2641987614333629608154296875</LongitudeDegrees>
            </Position>
            <AltitudeMeters>1342.5999755859375</AltitudeMeters>
            <DistanceMeters>NAN</DistanceMeters>
          </Trackpoint>
          <Trackpoint>
            <Time>2021-07-18T12:17:25.000Z</Time>
            <Position>
              <LatitudeDegrees>42.72403894923627376556396484375</LatitudeDegrees>
              <LongitudeDegrees>-0.26433764956891536712646484375</LongitudeDegrees>
            </Position>
            <AltitudeMeters>1340.4000244140625</AltitudeMeters>
            <DistanceMeters>NAN</DistanceMeters>
          </Trackpoint>
          <Trackpoint>
            <Time>2021-07-18T12:17:27.000Z</Time>
            <Position>
              <LatitudeDegrees>42.72402587346732616424560546875</LatitudeDegrees>
              <LongitudeDegrees>-0.2643727697432041168212890625</LongitudeDegrees>
            </Position>
            <AltitudeMeters>1339.800048828125</AltitudeMeters>
            <DistanceMeters>NAN</DistanceMeters>
          </Trackpoint>
          <Trackpoint>
            <Time>2021-07-18T12:17:33.000Z</Time>
            <Position>
              <LatitudeDegrees>42.72395730949938297271728515625</LatitudeDegrees>
              <LongitudeDegrees>-0.26449154131114482879638671875</LongitudeDegrees>
            </Position>
            <AltitudeMeters>1338.800048828125</AltitudeMeters>
            <DistanceMeters>NAN</DistanceMeters>
          </Trackpoint>
          <Trackpoint>
            <Time>2021-07-18T12:17:37.000Z</Time>
            <Position>
              <LatitudeDegrees>42.7239154838025569915771484375</LatitudeDegrees>
              <LongitudeDegrees>-0.264543257653713226318359375</LongitudeDegrees>
            </Position>
            <AltitudeMeters>1339</AltitudeMeters>
            <DistanceMeters>NAN</DistanceMeters>
          </Trackpoint>
          <Trackpoint>
            <Time>2021-07-18T12:17:41.000Z</Time>
            <Position>
              <LatitudeDegrees>42.72387784905731678009033203125</LatitudeDegrees>
              <LongitudeDegrees>-0.2645960636436939239501953125</LongitudeDegrees>
            </Position>
            <AltitudeMeters>1339</AltitudeMeters>
            <DistanceMeters>NAN</DistanceMeters>
          </Trackpoint>
          <Trackpoint>
            <Time>2021-07-18T12:17:45.000Z</Time>
            <Position>
              <LatitudeDegrees>42.72384725511074066162109375</LatitudeDegrees>
              <LongitudeDegrees>-0.26464979164302349090576171875</LongitudeDegrees>
            </Position>
            <AltitudeMeters>1338.800048828125</AltitudeMeters>
            <DistanceMeters>NAN</DistanceMeters>
          </Trackpoint>
          <Trackpoint>
            <Time>2021-07-18T12:17:48.000Z</Time>
            <Position>
              <LatitudeDegrees>42.72383786737918853759765625</LatitudeDegrees>
              <LongitudeDegrees>-0.264701507985591888427734375</LongitudeDegrees>
            </Position>
            <AltitudeMeters>1337.800048828125</AltitudeMeters>
            <DistanceMeters>NAN</DistanceMeters>
          </Trackpoint>
          <Trackpoint>
            <Time>2021-07-18T12:17:51.000Z</Time>
            <Position>
              <LatitudeDegrees>42.72384013049304485321044921875</LatitudeDegrees>
              <LongitudeDegrees>-0.264739058911800384521484375</LongitudeDegrees>
            </Position>
            <AltitudeMeters>1337</AltitudeMeters>
            <DistanceMeters>NAN</DistanceMeters>
          </Trackpoint>
          <Trackpoint>
            <Time>2021-07-18T12:17:53.000Z</Time>
            <Position>
              <LatitudeDegrees>42.72386292926967144012451171875</LatitudeDegrees>
              <LongitudeDegrees>-0.26474970392882823944091796875</LongitudeDegrees>
            </Position>
            <AltitudeMeters>1336.199951171875</AltitudeMeters>
            <DistanceMeters>NAN</DistanceMeters>
          </Trackpoint>
          <Trackpoint>
            <Time>2021-07-18T12:17:59.000Z</Time>
            <Position>
              <LatitudeDegrees>42.72393266670405864715576171875</LatitudeDegrees>
              <LongitudeDegrees>-0.26472254656255245208740234375</LongitudeDegrees>
            </Position>
            <AltitudeMeters>1335.199951171875</AltitudeMeters>
            <DistanceMeters>NAN</DistanceMeters>
          </Trackpoint>
          <Trackpoint>
            <Time>2021-07-18T12:18:01.000Z</Time>
            <Position>
              <LatitudeDegrees>42.7239469997584819793701171875</LatitudeDegrees>
              <LongitudeDegrees>-0.2646993286907672882080078125</LongitudeDegrees>
            </Position>
            <AltitudeMeters>1335.4000244140625</AltitudeMeters>
            <DistanceMeters>NAN</DistanceMeters>
          </Trackpoint>
          <Trackpoint>
            <Time>2021-07-18T12:18:08.000Z</Time>
            <Position>
              <LatitudeDegrees>42.7240316569805145263671875</LatitudeDegrees>
              <LongitudeDegrees>-0.26464794762432575225830078125</LongitudeDegrees>
            </Position>
            <AltitudeMeters>1335</AltitudeMeters>
            <DistanceMeters>NAN</DistanceMeters>
          </Trackpoint>
          <Trackpoint>
            <Time>2021-07-18T12:18:10.000Z</Time>
            <Position>
              <LatitudeDegrees>42.7240569703280925750732421875</LatitudeDegrees>
              <LongitudeDegrees>-0.264641828835010528564453125</LongitudeDegrees>
            </Position>
            <AltitudeMeters>1334.5999755859375</AltitudeMeters>
            <DistanceMeters>NAN</DistanceMeters>
          </Trackpoint>
          <Trackpoint>
            <Time>2021-07-18T12:18:14.000Z</Time>
            <Position>
              <LatitudeDegrees>42.72412377409636974334716796875</LatitudeDegrees>
              <LongitudeDegrees>-0.26463302783668041229248046875</LongitudeDegrees>
            </Position>
            <AltitudeMeters>1333.800048828125</AltitudeMeters>
            <DistanceMeters>NAN</DistanceMeters>
          </Trackpoint>
          <Trackpoint>
            <Time>2021-07-18T12:18:20.000Z</Time>
            <Position>
              <LatitudeDegrees>42.72421010769903659820556640625</LatitudeDegrees>
              <LongitudeDegrees>-0.26458583772182464599609375</LongitudeDegrees>
            </Position>
            <AltitudeMeters>1333.199951171875</AltitudeMeters>
            <DistanceMeters>NAN</DistanceMeters>
          </Trackpoint>
          <Trackpoint>
            <Time>2021-07-18T12:18:27.000Z</Time>
            <Position>
              <LatitudeDegrees>42.7242946811020374298095703125</LatitudeDegrees>
              <LongitudeDegrees>-0.26455893181264400482177734375</LongitudeDegrees>
            </Position>
            <AltitudeMeters>1332.199951171875</AltitudeMeters>
            <DistanceMeters>NAN</DistanceMeters>
          </Trackpoint>
          <Trackpoint>
            <Time>2021-07-18T12:18:33.000Z</Time>
            <Position>
              <LatitudeDegrees>42.72436215542256832122802734375</LatitudeDegrees>
              <LongitudeDegrees>-0.2645293436944484710693359375</LongitudeDegrees>
            </Position>
            <AltitudeMeters>1331.4000244140625</AltitudeMeters>
            <DistanceMeters>NAN</DistanceMeters>
          </Trackpoint>
          <Trackpoint>
            <Time>2021-07-18T12:18:41.000Z</Time>
            <Position>
              <LatitudeDegrees>42.72444882430136203765869140625</LatitudeDegrees>
              <LongitudeDegrees>-0.2644790522754192352294921875</LongitudeDegrees>
            </Position>
            <AltitudeMeters>1330.5999755859375</AltitudeMeters>
            <DistanceMeters>NAN</DistanceMeters>
          </Trackpoint>
          <Trackpoint>
            <Time>2021-07-18T12:18:43.000Z</Time>
            <Position>
              <LatitudeDegrees>42.7244683541357517242431640625</LatitudeDegrees>
              <LongitudeDegrees>-0.26446488685905933380126953125</LongitudeDegrees>
            </Position>
            <AltitudeMeters>1330.4000244140625</AltitudeMeters>
            <DistanceMeters>NAN</DistanceMeters>
          </Trackpoint>
          <Trackpoint>
            <Time>2021-07-18T12:18:46.000Z</Time>
            <Position>
              <LatitudeDegrees>42.72449961863458156585693359375</LatitudeDegrees>
              <LongitudeDegrees>-0.26444242335855960845947265625</LongitudeDegrees>
            </Position>
            <AltitudeMeters>1330.199951171875</AltitudeMeters>
            <DistanceMeters>NAN</DistanceMeters>
          </Trackpoint>
          <Trackpoint>
            <Time>2021-07-18T12:18:51.000Z</Time>
            <Position>
              <LatitudeDegrees>42.72454236634075641632080078125</LatitudeDegrees>
              <LongitudeDegrees>-0.264414846897125244140625</LongitudeDegrees>
            </Position>
            <AltitudeMeters>1329.4000244140625</AltitudeMeters>
            <DistanceMeters>NAN</DistanceMeters>
          </Trackpoint>
          <Trackpoint>
            <Time>2021-07-18T12:18:52.000Z</Time>
            <Position>
              <LatitudeDegrees>42.724544964730739593505859375</LatitudeDegrees>
              <LongitudeDegrees>-0.26441861875355243682861328125</LongitudeDegrees>
            </Position>
            <AltitudeMeters>1329.4000244140625</AltitudeMeters>
            <DistanceMeters>NAN</DistanceMeters>
          </Trackpoint>
          <Trackpoint>
            <Time>2021-07-18T12:18:53.000Z</Time>
            <Position>
              <LatitudeDegrees>42.72455175407230854034423828125</LatitudeDegrees>
              <LongitudeDegrees>-0.264422558248043060302734375</LongitudeDegrees>
            </Position>
            <AltitudeMeters>1329</AltitudeMeters>
            <DistanceMeters>NAN</DistanceMeters>
          </Trackpoint>
          <Trackpoint>
            <Time>2021-07-18T12:18:55.000Z</Time>
            <Position>
              <LatitudeDegrees>42.7245533466339111328125</LatitudeDegrees>
              <LongitudeDegrees>-0.26440923102200031280517578125</LongitudeDegrees>
            </Position>
            <AltitudeMeters>1329.199951171875</AltitudeMeters>
            <DistanceMeters>NAN</DistanceMeters>
          </Trackpoint>
          <Trackpoint>
            <Time>2021-07-18T12:18:57.000Z</Time>
            <Position>
              <LatitudeDegrees>42.72456952370703220367431640625</LatitudeDegrees>
              <LongitudeDegrees>-0.26441258378326892852783203125</LongitudeDegrees>
            </Position>
            <AltitudeMeters>1328.800048828125</AltitudeMeters>
            <DistanceMeters>NAN</DistanceMeters>
          </Trackpoint>
          <Trackpoint>
            <Time>2021-07-18T12:19:04.000Z</Time>
            <Position>
              <LatitudeDegrees>42.72464496083557605743408203125</LatitudeDegrees>
              <LongitudeDegrees>-0.26439229957759380340576171875</LongitudeDegrees>
            </Position>
            <AltitudeMeters>1326.800048828125</AltitudeMeters>
            <DistanceMeters>NAN</DistanceMeters>
          </Trackpoint>
          <Trackpoint>
            <Time>2021-07-18T12:19:05.000Z</Time>
            <Position>
              <LatitudeDegrees>42.7246554382145404815673828125</LatitudeDegrees>
              <LongitudeDegrees>-0.26440403424203395843505859375</LongitudeDegrees>
            </Position>
            <AltitudeMeters>1326.4000244140625</AltitudeMeters>
            <DistanceMeters>NAN</DistanceMeters>
          </Trackpoint>
          <Trackpoint>
            <Time>2021-07-18T12:19:09.000Z</Time>
            <Position>
              <LatitudeDegrees>42.724708579480648040771484375</LatitudeDegrees>
              <LongitudeDegrees>-0.26440219022333621978759765625</LongitudeDegrees>
            </Position>
            <AltitudeMeters>1324.800048828125</AltitudeMeters>
            <DistanceMeters>NAN</DistanceMeters>
          </Trackpoint>
          <Trackpoint>
            <Time>2021-07-18T12:19:12.000Z</Time>
            <Position>
              <LatitudeDegrees>42.72473950870335102081298828125</LatitudeDegrees>
              <LongitudeDegrees>-0.264393724501132965087890625</LongitudeDegrees>
            </Position>
            <AltitudeMeters>1324</AltitudeMeters>
            <DistanceMeters>NAN</DistanceMeters>
          </Trackpoint>
          <Trackpoint>
            <Time>2021-07-18T12:19:18.000Z</Time>
            <Position>
              <LatitudeDegrees>42.7247898839414119720458984375</LatitudeDegrees>
              <LongitudeDegrees>-0.2644049562513828277587890625</LongitudeDegrees>
            </Position>
            <AltitudeMeters>1322</AltitudeMeters>
            <DistanceMeters>NAN</DistanceMeters>
          </Trackpoint>
          <Trackpoint>
            <Time>2021-07-18T12:19:20.000Z</Time>
            <Position>
              <LatitudeDegrees>42.72481259889900684356689453125</LatitudeDegrees>
              <LongitudeDegrees>-0.26441811583936214447021484375</LongitudeDegrees>
            </Position>
            <AltitudeMeters>1321</AltitudeMeters>
            <DistanceMeters>NAN</DistanceMeters>
          </Trackpoint>
          <Trackpoint>
            <Time>2021-07-18T12:19:21.000Z</Time>
            <Position>
              <LatitudeDegrees>42.72482089698314666748046875</LatitudeDegrees>
              <LongitudeDegrees>-0.264422558248043060302734375</LongitudeDegrees>
            </Position>
            <AltitudeMeters>1320.5999755859375</AltitudeMeters>
            <DistanceMeters>NAN</DistanceMeters>
          </Trackpoint>
          <Trackpoint>
            <Time>2021-07-18T12:19:23.000Z</Time>
            <Position>
              <LatitudeDegrees>42.72483355365693569183349609375</LatitudeDegrees>
              <LongitudeDegrees>-0.2644237317144870758056640625</LongitudeDegrees>
            </Position>
            <AltitudeMeters>1320.199951171875</AltitudeMeters>
            <DistanceMeters>NAN</DistanceMeters>
          </Trackpoint>
          <Trackpoint>
            <Time>2021-07-18T12:19:26.000Z</Time>
            <Position>
              <LatitudeDegrees>42.72486540488898754119873046875</LatitudeDegrees>
              <LongitudeDegrees>-0.26440235786139965057373046875</LongitudeDegrees>
            </Position>
            <AltitudeMeters>1320</AltitudeMeters>
            <DistanceMeters>NAN</DistanceMeters>
          </Trackpoint>
          <Trackpoint>
            <Time>2021-07-18T12:19:28.000Z</Time>
            <Position>
              <LatitudeDegrees>42.724893987178802490234375</LatitudeDegrees>
              <LongitudeDegrees>-0.264398753643035888671875</LongitudeDegrees>
            </Position>
            <AltitudeMeters>1319.199951171875</AltitudeMeters>
            <DistanceMeters>NAN</DistanceMeters>
          </Trackpoint>
          <Trackpoint>
            <Time>2021-07-18T12:19:32.000Z</Time>
            <Position>
              <LatitudeDegrees>42.72495425306260585784912109375</LatitudeDegrees>
              <LongitudeDegrees>-0.26440478861331939697265625</LongitudeDegrees>
            </Position>
            <AltitudeMeters>1317.199951171875</AltitudeMeters>
            <DistanceMeters>NAN</DistanceMeters>
          </Trackpoint>
          <Trackpoint>
            <Time>2021-07-18T12:19:35.000Z</Time>
            <Position>
              <LatitudeDegrees>42.72498945705592632293701171875</LatitudeDegrees>
              <LongitudeDegrees>-0.26439967565238475799560546875</LongitudeDegrees>
            </Position>
            <AltitudeMeters>1316.4000244140625</AltitudeMeters>
            <DistanceMeters>NAN</DistanceMeters>
          </Trackpoint>
          <Trackpoint>
            <Time>2021-07-18T12:19:40.000Z</Time>
            <Position>
              <LatitudeDegrees>42.725068666040897369384765625</LatitudeDegrees>
              <LongitudeDegrees>-0.26439816690981388092041015625</LongitudeDegrees>
            </Position>
            <AltitudeMeters>1314.199951171875</AltitudeMeters>
            <DistanceMeters>NAN</DistanceMeters>
          </Trackpoint>
          <Trackpoint>
            <Time>2021-07-18T12:19:45.000Z</Time>
            <Position>
              <LatitudeDegrees>42.7251415885984897613525390625</LatitudeDegrees>
              <LongitudeDegrees>-0.26439481414854526519775390625</LongitudeDegrees>
            </Position>
            <AltitudeMeters>1313.800048828125</AltitudeMeters>
            <DistanceMeters>NAN</DistanceMeters>
          </Trackpoint>
          <Trackpoint>
            <Time>2021-07-18T12:19:49.000Z</Time>
            <Position>
              <LatitudeDegrees>42.7251858450472354888916015625</LatitudeDegrees>
              <LongitudeDegrees>-0.26440143585205078125</LongitudeDegrees>
            </Position>
            <AltitudeMeters>1313.4000244140625</AltitudeMeters>
            <DistanceMeters>NAN</DistanceMeters>
          </Trackpoint>
          <Trackpoint>
            <Time>2021-07-18T12:19:54.000Z</Time>
            <Position>
              <LatitudeDegrees>42.725240997970104217529296875</LatitudeDegrees>
              <LongitudeDegrees>-0.2644187025725841522216796875</LongitudeDegrees>
            </Position>
            <AltitudeMeters>1312.199951171875</AltitudeMeters>
            <DistanceMeters>NAN</DistanceMeters>
          </Trackpoint>
          <Trackpoint>
            <Time>2021-07-18T12:20:03.000Z</Time>
            <Position>
              <LatitudeDegrees>42.7253876812756061553955078125</LatitudeDegrees>
              <LongitudeDegrees>-0.2644066326320171356201171875</LongitudeDegrees>
            </Position>
            <AltitudeMeters>1312</AltitudeMeters>
            <DistanceMeters>NAN</DistanceMeters>
          </Trackpoint>
          <Trackpoint>
            <Time>2021-07-18T12:20:11.000Z</Time>
            <Position>
              <LatitudeDegrees>42.72549253888428211212158203125</LatitudeDegrees>
              <LongitudeDegrees>-0.26442448608577251434326171875</LongitudeDegrees>
            </Position>
            <AltitudeMeters>1311.800048828125</AltitudeMeters>
            <DistanceMeters>NAN</DistanceMeters>
          </Trackpoint>
          <Trackpoint>
            <Time>2021-07-18T12:20:15.000Z</Time>
            <Position>
              <LatitudeDegrees>42.7255395613610744476318359375</LatitudeDegrees>
              <LongitudeDegrees>-0.26440939866006374359130859375</LongitudeDegrees>
            </Position>
            <AltitudeMeters>1312.5999755859375</AltitudeMeters>
            <DistanceMeters>NAN</DistanceMeters>
          </Trackpoint>
          <Trackpoint>
            <Time>2021-07-18T12:20:17.000Z</Time>
            <Position>
              <LatitudeDegrees>42.7255546487867832183837890625</LatitudeDegrees>
              <LongitudeDegrees>-0.264422558248043060302734375</LongitudeDegrees>
            </Position>
            <AltitudeMeters>1312</AltitudeMeters>
            <DistanceMeters>NAN</DistanceMeters>
          </Trackpoint>
          <Trackpoint>
            <Time>2021-07-18T12:20:19.000Z</Time>
            <Position>
              <LatitudeDegrees>42.72556898184120655059814453125</LatitudeDegrees>
              <LongitudeDegrees>-0.26443320326507091522216796875</LongitudeDegrees>
            </Position>
            <AltitudeMeters>1311.5999755859375</AltitudeMeters>
            <DistanceMeters>NAN</DistanceMeters>
          </Trackpoint>
          <Trackpoint>
            <Time>2021-07-18T12:20:23.000Z</Time>
            <Position>
              <LatitudeDegrees>42.72561290301382541656494140625</LatitudeDegrees>
              <LongitudeDegrees>-0.26442415080964565277099609375</LongitudeDegrees>
            </Position>
            <AltitudeMeters>1312</AltitudeMeters>
            <DistanceMeters>NAN</DistanceMeters>
          </Trackpoint>
          <Trackpoint>
            <Time>2021-07-18T12:20:33.000Z</Time>
            <Position>
              <LatitudeDegrees>42.725723795592784881591796875</LatitudeDegrees>
              <LongitudeDegrees>-0.264495648443698883056640625</LongitudeDegrees>
            </Position>
            <AltitudeMeters>1308.5999755859375</AltitudeMeters>
            <DistanceMeters>NAN</DistanceMeters>
          </Trackpoint>
          <Trackpoint>
            <Time>2021-07-18T12:20:41.000Z</Time>
            <Position>
              <LatitudeDegrees>42.72582597099244594573974609375</LatitudeDegrees>
              <LongitudeDegrees>-0.2644964866340160369873046875</LongitudeDegrees>
            </Position>
            <AltitudeMeters>1308.5999755859375</AltitudeMeters>
            <DistanceMeters>NAN</DistanceMeters>
          </Trackpoint>
          <Trackpoint>
            <Time>2021-07-18T12:20:47.000Z</Time>
            <Position>
              <LatitudeDegrees>42.7258805371820926666259765625</LatitudeDegrees>
              <LongitudeDegrees>-0.264516770839691162109375</LongitudeDegrees>
            </Position>
            <AltitudeMeters>1307.5999755859375</AltitudeMeters>
            <DistanceMeters>NAN</DistanceMeters>
          </Trackpoint>
          <Trackpoint>
            <Time>2021-07-18T12:20:53.000Z</Time>
            <Position>
              <LatitudeDegrees>42.7259596623480319976806640625</LatitudeDegrees>
              <LongitudeDegrees>-0.26451836340129375457763671875</LongitudeDegrees>
            </Position>
            <AltitudeMeters>1308</AltitudeMeters>
            <DistanceMeters>NAN</DistanceMeters>
          </Trackpoint>
          <Trackpoint>
            <Time>2021-07-18T12:20:55.000Z</Time>
            <Position>
              <LatitudeDegrees>42.7260009013116359710693359375</LatitudeDegrees>
              <LongitudeDegrees>-0.264523141086101531982421875</LongitudeDegrees>
            </Position>
            <AltitudeMeters>1308</AltitudeMeters>
            <DistanceMeters>NAN</DistanceMeters>
          </Trackpoint>
          <Trackpoint>
            <Time>2021-07-18T12:20:59.000Z</Time>
            <Position>
              <LatitudeDegrees>42.72605697624385356903076171875</LatitudeDegrees>
              <LongitudeDegrees>-0.264566056430339813232421875</LongitudeDegrees>
            </Position>
            <AltitudeMeters>1306.4000244140625</AltitudeMeters>
            <DistanceMeters>NAN</DistanceMeters>
          </Trackpoint>
          <Trackpoint>
            <Time>2021-07-18T12:21:00.000Z</Time>
            <Position>
              <LatitudeDegrees>42.7260706387460231781005859375</LatitudeDegrees>
              <LongitudeDegrees>-0.26457200758159160614013671875</LongitudeDegrees>
            </Position>
            <AltitudeMeters>1306.199951171875</AltitudeMeters>
            <DistanceMeters>NAN</DistanceMeters>
          </Trackpoint>
          <Trackpoint>
            <Time>2021-07-18T12:21:03.000Z</Time>
            <Position>
              <LatitudeDegrees>42.7261236123740673065185546875</LatitudeDegrees>
              <LongitudeDegrees>-0.26456546969711780548095703125</LongitudeDegrees>
            </Position>
            <AltitudeMeters>1307</AltitudeMeters>
            <DistanceMeters>NAN</DistanceMeters>
          </Trackpoint>
          <Trackpoint>
            <Time>2021-07-18T12:21:05.000Z</Time>
            <Position>
              <LatitudeDegrees>42.72613861598074436187744140625</LatitudeDegrees>
              <LongitudeDegrees>-0.2645903639495372772216796875</LongitudeDegrees>
            </Position>
            <AltitudeMeters>1305.800048828125</AltitudeMeters>
            <DistanceMeters>NAN</DistanceMeters>
          </Trackpoint>
          <Trackpoint>
            <Time>2021-07-18T12:21:12.000Z</Time>
            <Position>
              <LatitudeDegrees>42.72620550356805324554443359375</LatitudeDegrees>
              <LongitudeDegrees>-0.2646460197865962982177734375</LongitudeDegrees>
            </Position>
            <AltitudeMeters>1304.4000244140625</AltitudeMeters>
            <DistanceMeters>NAN</DistanceMeters>
          </Trackpoint>
          <Trackpoint>
            <Time>2021-07-18T12:21:20.000Z</Time>
            <Position>
              <LatitudeDegrees>42.72628345526754856109619140625</LatitudeDegrees>
              <LongitudeDegrees>-0.2647140808403491973876953125</LongitudeDegrees>
            </Position>
            <AltitudeMeters>1303.800048828125</AltitudeMeters>
            <DistanceMeters>NAN</DistanceMeters>
          </Trackpoint>
          <Trackpoint>
            <Time>2021-07-18T12:21:31.000Z</Time>
            <Position>
              <LatitudeDegrees>42.72637800313532352447509765625</LatitudeDegrees>
              <LongitudeDegrees>-0.264806784689426422119140625</LongitudeDegrees>
            </Position>
            <AltitudeMeters>1302.5999755859375</AltitudeMeters>
            <DistanceMeters>NAN</DistanceMeters>
          </Trackpoint>
          <Trackpoint>
            <Time>2021-07-18T12:21:38.000Z</Time>
            <Position>
              <LatitudeDegrees>42.72644723765552043914794921875</LatitudeDegrees>
              <LongitudeDegrees>-0.26485900394618511199951171875</LongitudeDegrees>
            </Position>
            <AltitudeMeters>1302.199951171875</AltitudeMeters>
            <DistanceMeters>NAN</DistanceMeters>
          </Trackpoint>
          <Trackpoint>
            <Time>2021-07-18T12:21:46.000Z</Time>
            <Position>
              <LatitudeDegrees>42.7265269495546817779541015625</LatitudeDegrees>
              <LongitudeDegrees>-0.26492304168641567230224609375</LongitudeDegrees>
            </Position>
            <AltitudeMeters>1302.800048828125</AltitudeMeters>
            <DistanceMeters>NAN</DistanceMeters>
          </Trackpoint>
          <Trackpoint>
            <Time>2021-07-18T12:21:47.000Z</Time>
            <Position>
              <LatitudeDegrees>42.72653860040009021759033203125</LatitudeDegrees>
              <LongitudeDegrees>-0.26492689736187458038330078125</LongitudeDegrees>
            </Position>
            <AltitudeMeters>1303.199951171875</AltitudeMeters>
            <DistanceMeters>NAN</DistanceMeters>
          </Trackpoint>
          <Trackpoint>
            <Time>2021-07-18T12:21:48.000Z</Time>
            <Position>
              <LatitudeDegrees>42.72655217908322811126708984375</LatitudeDegrees>
              <LongitudeDegrees>-0.26493008248507976531982421875</LongitudeDegrees>
            </Position>
            <AltitudeMeters>1303.5999755859375</AltitudeMeters>
            <DistanceMeters>NAN</DistanceMeters>
          </Trackpoint>
          <Trackpoint>
            <Time>2021-07-18T12:21:49.000Z</Time>
            <Position>
              <LatitudeDegrees>42.726567685604095458984375</LatitudeDegrees>
              <LongitudeDegrees>-0.26493662036955356597900390625</LongitudeDegrees>
            </Position>
            <AltitudeMeters>1304</AltitudeMeters>
            <DistanceMeters>NAN</DistanceMeters>
          </Trackpoint>
          <Trackpoint>
            <Time>2021-07-18T12:21:51.000Z</Time>
            <Position>
              <LatitudeDegrees>42.72660096175968647003173828125</LatitudeDegrees>
              <LongitudeDegrees>-0.264948941767215728759765625</LongitudeDegrees>
            </Position>
            <AltitudeMeters>1304.800048828125</AltitudeMeters>
            <DistanceMeters>NAN</DistanceMeters>
          </Trackpoint>
          <Trackpoint>
            <Time>2021-07-18T12:21:58.000Z</Time>
            <Position>
              <LatitudeDegrees>42.7266741357743740081787109375</LatitudeDegrees>
              <LongitudeDegrees>-0.26501859538257122039794921875</LongitudeDegrees>
            </Position>
            <AltitudeMeters>1304.5999755859375</AltitudeMeters>
            <DistanceMeters>NAN</DistanceMeters>
          </Trackpoint>
          <Trackpoint>
            <Time>2021-07-18T12:22:02.000Z</Time>
            <Position>
              <LatitudeDegrees>42.72667723707854747772216796875</LatitudeDegrees>
              <LongitudeDegrees>-0.26508766226470470428466796875</LongitudeDegrees>
            </Position>
            <AltitudeMeters>1300.5999755859375</AltitudeMeters>
            <DistanceMeters>NAN</DistanceMeters>
          </Trackpoint>
          <Trackpoint>
            <Time>2021-07-18T12:22:04.000Z</Time>
            <Position>
              <LatitudeDegrees>42.726665250957012176513671875</LatitudeDegrees>
              <LongitudeDegrees>-0.265109539031982421875</LongitudeDegrees>
            </Position>
            <AltitudeMeters>1299</AltitudeMeters>
            <DistanceMeters>NAN</DistanceMeters>
          </Trackpoint>
          <Trackpoint>
            <Time>2021-07-18T12:22:05.000Z</Time>
            <Position>
              <LatitudeDegrees>42.7266530133783817291259765625</LatitudeDegrees>
              <LongitudeDegrees>-0.2651180885732173919677734375</LongitudeDegrees>
            </Position>
            <AltitudeMeters>1298.199951171875</AltitudeMeters>
            <DistanceMeters>NAN</DistanceMeters>
          </Trackpoint>
          <Trackpoint>
            <Time>2021-07-18T12:22:11.000Z</Time>
            <Position>
              <LatitudeDegrees>42.72655737586319446563720703125</LatitudeDegrees>
              <LongitudeDegrees>-0.26512303389608860015869140625</LongitudeDegrees>
            </Position>
            <AltitudeMeters>1295.199951171875</AltitudeMeters>
            <DistanceMeters>NAN</DistanceMeters>
          </Trackpoint>
          <Trackpoint>
            <Time>2021-07-18T12:22:18.000Z</Time>
            <Position>
              <LatitudeDegrees>42.726486213505268096923828125</LatitudeDegrees>
              <LongitudeDegrees>-0.26508514769375324249267578125</LongitudeDegrees>
            </Position>
            <AltitudeMeters>1294</AltitudeMeters>
            <DistanceMeters>NAN</DistanceMeters>
          </Trackpoint>
          <Trackpoint>
            <Time>2021-07-18T12:22:19.000Z</Time>
            <Position>
              <LatitudeDegrees>42.726475484669208526611328125</LatitudeDegrees>
              <LongitudeDegrees>-0.2650738321244716644287109375</LongitudeDegrees>
            </Position>
            <AltitudeMeters>1294</AltitudeMeters>
            <DistanceMeters>NAN</DistanceMeters>
          </Trackpoint>
          <Trackpoint>
            <Time>2021-07-18T12:22:24.000Z</Time>
            <Position>
              <LatitudeDegrees>42.7264129556715488433837890625</LatitudeDegrees>
              <LongitudeDegrees>-0.26504726149141788482666015625</LongitudeDegrees>
            </Position>
            <AltitudeMeters>1293.5999755859375</AltitudeMeters>
            <DistanceMeters>NAN</DistanceMeters>
          </Trackpoint>
          <Trackpoint>
            <Time>2021-07-18T12:22:26.000Z</Time>
            <Position>
              <LatitudeDegrees>42.72639711387455463409423828125</LatitudeDegrees>
              <LongitudeDegrees>-0.26504910551011562347412109375</LongitudeDegrees>
            </Position>
            <AltitudeMeters>1293.199951171875</AltitudeMeters>
            <DistanceMeters>NAN</DistanceMeters>
          </Trackpoint>
          <Trackpoint>
            <Time>2021-07-18T12:22:29.000Z</Time>
            <Position>
              <LatitudeDegrees>42.72636224515736103057861328125</LatitudeDegrees>
              <LongitudeDegrees>-0.26504323817789554595947265625</LongitudeDegrees>
            </Position>
            <AltitudeMeters>1293</AltitudeMeters>
            <DistanceMeters>NAN</DistanceMeters>
          </Trackpoint>
          <Trackpoint>
            <Time>2021-07-18T12:22:37.000Z</Time>
            <Position>
              <LatitudeDegrees>42.72628538310527801513671875</LatitudeDegrees>
              <LongitudeDegrees>-0.26500199921429157257080078125</LongitudeDegrees>
            </Position>
            <AltitudeMeters>1292.5999755859375</AltitudeMeters>
            <DistanceMeters>NAN</DistanceMeters>
          </Trackpoint>
          <Trackpoint>
            <Time>2021-07-18T12:22:42.000Z</Time>
            <Position>
              <LatitudeDegrees>42.72623517550528049468994140625</LatitudeDegrees>
              <LongitudeDegrees>-0.26497232727706432342529296875</LongitudeDegrees>
            </Position>
            <AltitudeMeters>1292.4000244140625</AltitudeMeters>
            <DistanceMeters>NAN</DistanceMeters>
          </Trackpoint>
          <Trackpoint>
            <Time>2021-07-18T12:22:43.000Z</Time>
            <Position>
              <LatitudeDegrees>42.72622101008892059326171875</LatitudeDegrees>
              <LongitudeDegrees>-0.2649725787341594696044921875</LongitudeDegrees>
            </Position>
            <AltitudeMeters>1292</AltitudeMeters>
            <DistanceMeters>NAN</DistanceMeters>
          </Trackpoint>
          <Trackpoint>
            <Time>2021-07-18T12:22:47.000Z</Time>
            <Position>
              <LatitudeDegrees>42.72617298178374767303466796875</LatitudeDegrees>
              <LongitudeDegrees>-0.2649578265845775604248046875</LongitudeDegrees>
            </Position>
            <AltitudeMeters>1291.199951171875</AltitudeMeters>
            <DistanceMeters>NAN</DistanceMeters>
          </Trackpoint>
          <Trackpoint>
            <Time>2021-07-18T12:22:49.000Z</Time>
            <Position>
              <LatitudeDegrees>42.7261531166732311248779296875</LatitudeDegrees>
              <LongitudeDegrees>-0.26494684629142284393310546875</LongitudeDegrees>
            </Position>
            <AltitudeMeters>1291.4000244140625</AltitudeMeters>
            <DistanceMeters>NAN</DistanceMeters>
          </Trackpoint>
          <Trackpoint>
            <Time>2021-07-18T12:22:51.000Z</Time>
            <Position>
              <LatitudeDegrees>42.72613677196204662322998046875</LatitudeDegrees>
              <LongitudeDegrees>-0.2649363689124584197998046875</LongitudeDegrees>
            </Position>
            <AltitudeMeters>1291.5999755859375</AltitudeMeters>
            <DistanceMeters>NAN</DistanceMeters>
          </Trackpoint>
          <Trackpoint>
            <Time>2021-07-18T12:22:57.000Z</Time>
            <Position>
              <LatitudeDegrees>42.72606368176639080047607421875</LatitudeDegrees>
              <LongitudeDegrees>-0.2649246342480182647705078125</LongitudeDegrees>
            </Position>
            <AltitudeMeters>1291.5999755859375</AltitudeMeters>
            <DistanceMeters>NAN</DistanceMeters>
          </Trackpoint>
          <Trackpoint>
            <Time>2021-07-18T12:22:58.000Z</Time>
            <Position>
              <LatitudeDegrees>42.72604675032198429107666015625</LatitudeDegrees>
              <LongitudeDegrees>-0.264930166304111480712890625</LongitudeDegrees>
            </Position>
            <AltitudeMeters>1291.199951171875</AltitudeMeters>
            <DistanceMeters>NAN</DistanceMeters>
          </Trackpoint>
          <Trackpoint>
            <Time>2021-07-18T12:23:01.000Z</Time>
            <Position>
              <LatitudeDegrees>42.7260084450244903564453125</LatitudeDegrees>
              <LongitudeDegrees>-0.2649786137044429779052734375</LongitudeDegrees>
            </Position>
            <AltitudeMeters>1289</AltitudeMeters>
            <DistanceMeters>NAN</DistanceMeters>
          </Trackpoint>
          <Trackpoint>
            <Time>2021-07-18T12:23:05.000Z</Time>
            <Position>
              <LatitudeDegrees>42.726001739501953125</LatitudeDegrees>
              <LongitudeDegrees>-0.26503510773181915283203125</LongitudeDegrees>
            </Position>
            <AltitudeMeters>1286.800048828125</AltitudeMeters>
            <DistanceMeters>NAN</DistanceMeters>
          </Trackpoint>
          <Trackpoint>
            <Time>2021-07-18T12:23:07.000Z</Time>
            <Position>
              <LatitudeDegrees>42.72601741366088390350341796875</LatitudeDegrees>
              <LongitudeDegrees>-0.26505966670811176300048828125</LongitudeDegrees>
            </Position>
            <AltitudeMeters>1286</AltitudeMeters>
            <DistanceMeters>NAN</DistanceMeters>
          </Trackpoint>
          <Trackpoint>
            <Time>2021-07-18T12:23:10.000Z</Time>
            <Position>
              <LatitudeDegrees>42.726049683988094329833984375</LatitudeDegrees>
              <LongitudeDegrees>-0.2650859020650386810302734375</LongitudeDegrees>
            </Position>
            <AltitudeMeters>1285.4000244140625</AltitudeMeters>
            <DistanceMeters>NAN</DistanceMeters>
          </Trackpoint>
          <Trackpoint>
            <Time>2021-07-18T12:23:11.000Z</Time>
            <Position>
              <LatitudeDegrees>42.72605529986321926116943359375</LatitudeDegrees>
              <LongitudeDegrees>-0.26510375551879405975341796875</LongitudeDegrees>
            </Position>
            <AltitudeMeters>1284.800048828125</AltitudeMeters>
            <DistanceMeters>NAN</DistanceMeters>
          </Trackpoint>
          <Trackpoint>
            <Time>2021-07-18T12:23:13.000Z</Time>
            <Position>
              <LatitudeDegrees>42.72607223130762577056884765625</LatitudeDegrees>
              <LongitudeDegrees>-0.26513108052313327789306640625</LongitudeDegrees>
            </Position>
            <AltitudeMeters>1284.199951171875</AltitudeMeters>
            <DistanceMeters>NAN</DistanceMeters>
          </Trackpoint>
          <Trackpoint>
            <Time>2021-07-18T12:23:15.000Z</Time>
            <Position>
              <LatitudeDegrees>42.7261128835380077362060546875</LatitudeDegrees>
              <LongitudeDegrees>-0.26512102223932743072509765625</LongitudeDegrees>
            </Position>
            <AltitudeMeters>1285</AltitudeMeters>
            <DistanceMeters>NAN</DistanceMeters>
          </Trackpoint>
          <Trackpoint>
            <Time>2021-07-18T12:23:21.000Z</Time>
            <Position>
              <LatitudeDegrees>42.72613727487623691558837890625</LatitudeDegrees>
              <LongitudeDegrees>-0.265135355293750762939453125</LongitudeDegrees>
            </Position>
            <AltitudeMeters>1285</AltitudeMeters>
            <DistanceMeters>NAN</DistanceMeters>
          </Trackpoint>
          <Trackpoint>
            <Time>2021-07-18T12:23:32.000Z</Time>
            <Position>
              <LatitudeDegrees>42.72615185938775539398193359375</LatitudeDegrees>
              <LongitudeDegrees>-0.26513175107538700103759765625</LongitudeDegrees>
            </Position>
            <AltitudeMeters>1285.4000244140625</AltitudeMeters>
            <DistanceMeters>NAN</DistanceMeters>
          </Trackpoint>
          <Trackpoint>
            <Time>2021-07-18T12:23:37.000Z</Time>
            <Position>
              <LatitudeDegrees>42.726163007318973541259765625</LatitudeDegrees>
              <LongitudeDegrees>-0.26513711549341678619384765625</LongitudeDegrees>
            </Position>
            <AltitudeMeters>1285.199951171875</AltitudeMeters>
            <DistanceMeters>NAN</DistanceMeters>
          </Trackpoint>
          <Trackpoint>
            <Time>2021-07-18T12:23:39.000Z</Time>
            <Position>
              <LatitudeDegrees>42.726177759468555450439453125</LatitudeDegrees>
              <LongitudeDegrees>-0.2651304937899112701416015625</LongitudeDegrees>
            </Position>
            <AltitudeMeters>1285.800048828125</AltitudeMeters>
            <DistanceMeters>NAN</DistanceMeters>
          </Trackpoint>
          <Trackpoint>
            <Time>2021-07-18T12:23:47.000Z</Time>
            <Position>
              <LatitudeDegrees>42.72624121047556400299072265625</LatitudeDegrees>
              <LongitudeDegrees>-0.265152789652347564697265625</LongitudeDegrees>
            </Position>
            <AltitudeMeters>1286.5999755859375</AltitudeMeters>
            <DistanceMeters>NAN</DistanceMeters>
          </Trackpoint>
          <Trackpoint>
            <Time>2021-07-18T12:23:53.000Z</Time>
            <Position>
              <LatitudeDegrees>42.72628446109592914581298828125</LatitudeDegrees>
              <LongitudeDegrees>-0.265184976160526275634765625</LongitudeDegrees>
            </Position>
            <AltitudeMeters>1285.800048828125</AltitudeMeters>
            <DistanceMeters>NAN</DistanceMeters>
          </Trackpoint>
          <Trackpoint>
            <Time>2021-07-18T12:23:54.000Z</Time>
            <Position>
              <LatitudeDegrees>42.72629267536103725433349609375</LatitudeDegrees>
              <LongitudeDegrees>-0.2651945315301418304443359375</LongitudeDegrees>
            </Position>
            <AltitudeMeters>1285.4000244140625</AltitudeMeters>
            <DistanceMeters>NAN</DistanceMeters>
          </Trackpoint>
          <Trackpoint>
            <Time>2021-07-18T12:23:55.000Z</Time>
            <Position>
              <LatitudeDegrees>42.7262999676167964935302734375</LatitudeDegrees>
              <LongitudeDegrees>-0.2651992253959178924560546875</LongitudeDegrees>
            </Position>
            <AltitudeMeters>1285.4000244140625</AltitudeMeters>
            <DistanceMeters>NAN</DistanceMeters>
          </Trackpoint>
          <Trackpoint>
            <Time>2021-07-18T12:23:59.000Z</Time>
            <Position>
              <LatitudeDegrees>42.72632519714534282684326171875</LatitudeDegrees>
              <LongitudeDegrees>-0.26520333252847194671630859375</LongitudeDegrees>
            </Position>
            <AltitudeMeters>1285.5999755859375</AltitudeMeters>
            <DistanceMeters>NAN</DistanceMeters>
          </Trackpoint>
          <Trackpoint>
            <Time>2021-07-18T12:24:02.000Z</Time>
            <Position>
              <LatitudeDegrees>42.72635134868323802947998046875</LatitudeDegrees>
              <LongitudeDegrees>-0.2652193419635295867919921875</LongitudeDegrees>
            </Position>
            <AltitudeMeters>1285.199951171875</AltitudeMeters>
            <DistanceMeters>NAN</DistanceMeters>
          </Trackpoint>
          <Trackpoint>
            <Time>2021-07-18T12:24:03.000Z</Time>
            <Position>
              <LatitudeDegrees>42.72636450827121734619140625</LatitudeDegrees>
              <LongitudeDegrees>-0.2652304060757160186767578125</LongitudeDegrees>
            </Position>
            <AltitudeMeters>1285</AltitudeMeters>
            <DistanceMeters>NAN</DistanceMeters>
          </Trackpoint>
          <Trackpoint>
            <Time>2021-07-18T12:24:04.000Z</Time>
            <Position>
              <LatitudeDegrees>42.72637465037405490875244140625</LatitudeDegrees>
              <LongitudeDegrees>-0.26524105109274387359619140625</LongitudeDegrees>
            </Position>
            <AltitudeMeters>1284.800048828125</AltitudeMeters>
            <DistanceMeters>NAN</DistanceMeters>
          </Trackpoint>
          <Trackpoint>
            <Time>2021-07-18T12:24:07.000Z</Time>
            <Position>
              <LatitudeDegrees>42.72640499286353588104248046875</LatitudeDegrees>
              <LongitudeDegrees>-0.26526887901127338409423828125</LongitudeDegrees>
            </Position>
            <AltitudeMeters>1284</AltitudeMeters>
            <DistanceMeters>NAN</DistanceMeters>
          </Trackpoint>
          <Trackpoint>
            <Time>2021-07-18T12:24:09.000Z</Time>
            <Position>
              <LatitudeDegrees>42.72641857154667377471923828125</LatitudeDegrees>
              <LongitudeDegrees>-0.26528857648372650146484375</LongitudeDegrees>
            </Position>
            <AltitudeMeters>1283.4000244140625</AltitudeMeters>
            <DistanceMeters>NAN</DistanceMeters>
          </Trackpoint>
          <Trackpoint>
            <Time>2021-07-18T12:24:10.000Z</Time>
            <Position>
              <LatitudeDegrees>42.72643047384917736053466796875</LatitudeDegrees>
              <LongitudeDegrees>-0.26529796421527862548828125</LongitudeDegrees>
            </Position>
            <AltitudeMeters>1283</AltitudeMeters>
            <DistanceMeters>NAN</DistanceMeters>
          </Trackpoint>
          <Trackpoint>
            <Time>2021-07-18T12:24:11.000Z</Time>
            <Position>
              <LatitudeDegrees>42.72643634118139743804931640625</LatitudeDegrees>
              <LongitudeDegrees>-0.2653108723461627960205078125</LongitudeDegrees>
            </Position>
            <AltitudeMeters>1282.5999755859375</AltitudeMeters>
            <DistanceMeters>NAN</DistanceMeters>
          </Trackpoint>
          <Trackpoint>
            <Time>2021-07-18T12:24:13.000Z</Time>
            <Position>
              <LatitudeDegrees>42.72645159624516963958740234375</LatitudeDegrees>
              <LongitudeDegrees>-0.26533149182796478271484375</LongitudeDegrees>
            </Position>
            <AltitudeMeters>1281.800048828125</AltitudeMeters>
            <DistanceMeters>NAN</DistanceMeters>
          </Trackpoint>
          <Trackpoint>
            <Time>2021-07-18T12:24:18.000Z</Time>
            <Position>
              <LatitudeDegrees>42.72649132646620273590087890625</LatitudeDegrees>
              <LongitudeDegrees>-0.26535806246101856231689453125</LongitudeDegrees>
            </Position>
            <AltitudeMeters>1281.800048828125</AltitudeMeters>
            <DistanceMeters>NAN</DistanceMeters>
          </Trackpoint>
          <Trackpoint>
            <Time>2021-07-18T12:24:20.000Z</Time>
            <Position>
              <LatitudeDegrees>42.726499624550342559814453125</LatitudeDegrees>
              <LongitudeDegrees>-0.265373401343822479248046875</LongitudeDegrees>
            </Position>
            <AltitudeMeters>1281.4000244140625</AltitudeMeters>
            <DistanceMeters>NAN</DistanceMeters>
          </Trackpoint>
          <Trackpoint>
            <Time>2021-07-18T12:24:25.000Z</Time>
            <Position>
              <LatitudeDegrees>42.72649534977972507476806640625</LatitudeDegrees>
              <LongitudeDegrees>-0.26544749736785888671875</LongitudeDegrees>
            </Position>
            <AltitudeMeters>1278</AltitudeMeters>
            <DistanceMeters>NAN</DistanceMeters>
          </Trackpoint>
          <Trackpoint>
            <Time>2021-07-18T12:24:26.000Z</Time>
            <Position>
              <LatitudeDegrees>42.72648897953331470489501953125</LatitudeDegrees>
              <LongitudeDegrees>-0.265457890927791595458984375</LongitudeDegrees>
            </Position>
            <AltitudeMeters>1277.4000244140625</AltitudeMeters>
            <DistanceMeters>NAN</DistanceMeters>
          </Trackpoint>
          <Trackpoint>
            <Time>2021-07-18T12:24:30.000Z</Time>
            <Position>
              <LatitudeDegrees>42.72644556127488613128662109375</LatitudeDegrees>
              <LongitudeDegrees>-0.265493430197238922119140625</LongitudeDegrees>
            </Position>
            <AltitudeMeters>1274.800048828125</AltitudeMeters>
            <DistanceMeters>NAN</DistanceMeters>
          </Trackpoint>
          <Trackpoint>
            <Time>2021-07-18T12:24:39.000Z</Time>
            <Position>
              <LatitudeDegrees>42.72635051049292087554931640625</LatitudeDegrees>
              <LongitudeDegrees>-0.26547406800091266632080078125</LongitudeDegrees>
            </Position>
            <AltitudeMeters>1274.5999755859375</AltitudeMeters>
            <DistanceMeters>NAN</DistanceMeters>
          </Trackpoint>
          <Trackpoint>
            <Time>2021-07-18T12:24:43.000Z</Time>
            <Position>
              <LatitudeDegrees>42.726308517158031463623046875</LatitudeDegrees>
              <LongitudeDegrees>-0.26544791646301746368408203125</LongitudeDegrees>
            </Position>
            <AltitudeMeters>1275.199951171875</AltitudeMeters>
            <DistanceMeters>NAN</DistanceMeters>
          </Trackpoint>
          <Trackpoint>
            <Time>2021-07-18T12:24:46.000Z</Time>
            <Position>
              <LatitudeDegrees>42.7262707985937595367431640625</LatitudeDegrees>
              <LongitudeDegrees>-0.265426374971866607666015625</LongitudeDegrees>
            </Position>
            <AltitudeMeters>1275.800048828125</AltitudeMeters>
            <DistanceMeters>NAN</DistanceMeters>
          </Trackpoint>
          <Trackpoint>
            <Time>2021-07-18T12:24:51.000Z</Time>
            <Position>
              <LatitudeDegrees>42.72619913332164287567138671875</LatitudeDegrees>
              <LongitudeDegrees>-0.2654184959828853607177734375</LongitudeDegrees>
            </Position>
            <AltitudeMeters>1275.199951171875</AltitudeMeters>
            <DistanceMeters>NAN</DistanceMeters>
          </Trackpoint>
          <Trackpoint>
            <Time>2021-07-18T12:24:53.000Z</Time>
            <Position>
              <LatitudeDegrees>42.726156972348690032958984375</LatitudeDegrees>
              <LongitudeDegrees>-0.2654027380049228668212890625</LongitudeDegrees>
            </Position>
            <AltitudeMeters>1275.199951171875</AltitudeMeters>
            <DistanceMeters>NAN</DistanceMeters>
          </Trackpoint>
          <Trackpoint>
            <Time>2021-07-18T12:24:54.000Z</Time>
            <Position>
              <LatitudeDegrees>42.72614683024585247039794921875</LatitudeDegrees>
              <LongitudeDegrees>-0.26539896614849567413330078125</LongitudeDegrees>
            </Position>
            <AltitudeMeters>1275.199951171875</AltitudeMeters>
            <DistanceMeters>NAN</DistanceMeters>
          </Trackpoint>
          <Trackpoint>
            <Time>2021-07-18T12:25:00.000Z</Time>
            <Position>
              <LatitudeDegrees>42.72610441781580448150634765625</LatitudeDegrees>
              <LongitudeDegrees>-0.26537314988672733306884765625</LongitudeDegrees>
            </Position>
            <AltitudeMeters>1275.5999755859375</AltitudeMeters>
            <DistanceMeters>NAN</DistanceMeters>
          </Trackpoint>
          <Trackpoint>
            <Time>2021-07-18T12:25:05.000Z</Time>
            <Position>
              <LatitudeDegrees>42.72605747915804386138916015625</LatitudeDegrees>
              <LongitudeDegrees>-0.265376083552837371826171875</LongitudeDegrees>
            </Position>
            <AltitudeMeters>1274.800048828125</AltitudeMeters>
            <DistanceMeters>NAN</DistanceMeters>
          </Trackpoint>
          <Trackpoint>
            <Time>2021-07-18T12:25:06.000Z</Time>
            <Position>
              <LatitudeDegrees>42.72604792378842830657958984375</LatitudeDegrees>
              <LongitudeDegrees>-0.26537834666669368743896484375</LongitudeDegrees>
            </Position>
            <AltitudeMeters>1274.5999755859375</AltitudeMeters>
            <DistanceMeters>NAN</DistanceMeters>
          </Trackpoint>
          <Trackpoint>
            <Time>2021-07-18T12:25:10.000Z</Time>
            <Position>
              <LatitudeDegrees>42.72601456381380558013916015625</LatitudeDegrees>
              <LongitudeDegrees>-0.26540927588939666748046875</LongitudeDegrees>
            </Position>
            <AltitudeMeters>1273</AltitudeMeters>
            <DistanceMeters>NAN</DistanceMeters>
          </Trackpoint>
          <Trackpoint>
            <Time>2021-07-18T12:25:13.000Z</Time>
            <Position>
              <LatitudeDegrees>42.7259965427219867706298828125</LatitudeDegrees>
              <LongitudeDegrees>-0.2654292248189449310302734375</LongitudeDegrees>
            </Position>
            <AltitudeMeters>1271.800048828125</AltitudeMeters>
            <DistanceMeters>NAN</DistanceMeters>
          </Trackpoint>
          <Trackpoint>
            <Time>2021-07-18T12:25:15.000Z</Time>
            <Position>
              <LatitudeDegrees>42.72599377669394016265869140625</LatitudeDegrees>
              <LongitudeDegrees>-0.265466608107089996337890625</LongitudeDegrees>
            </Position>
            <AltitudeMeters>1270.4000244140625</AltitudeMeters>
            <DistanceMeters>NAN</DistanceMeters>
          </Trackpoint>
          <Trackpoint>
            <Time>2021-07-18T12:25:16.000Z</Time>
            <Position>
              <LatitudeDegrees>42.7259958721697330474853515625</LatitudeDegrees>
              <LongitudeDegrees>-0.26548177935183048248291015625</LongitudeDegrees>
            </Position>
            <AltitudeMeters>1269.800048828125</AltitudeMeters>
            <DistanceMeters>NAN</DistanceMeters>
          </Trackpoint>
          <Trackpoint>
            <Time>2021-07-18T12:25:19.000Z</Time>
            <Position>
              <LatitudeDegrees>42.72600551135838031768798828125</LatitudeDegrees>
              <LongitudeDegrees>-0.2655284665524959564208984375</LongitudeDegrees>
            </Position>
            <AltitudeMeters>1268.4000244140625</AltitudeMeters>
            <DistanceMeters>NAN</DistanceMeters>
          </Trackpoint>
          <Trackpoint>
            <Time>2021-07-18T12:25:20.000Z</Time>
            <Position>
              <LatitudeDegrees>42.7260126359760761260986328125</LatitudeDegrees>
              <LongitudeDegrees>-0.26554129086434841156005859375</LongitudeDegrees>
            </Position>
            <AltitudeMeters>1268</AltitudeMeters>
            <DistanceMeters>NAN</DistanceMeters>
          </Trackpoint>
          <Trackpoint>
            <Time>2021-07-18T12:25:21.000Z</Time>
            <Position>
              <LatitudeDegrees>42.7260200120508670806884765625</LatitudeDegrees>
              <LongitudeDegrees>-0.26555545628070831298828125</LongitudeDegrees>
            </Position>
            <AltitudeMeters>1267.5999755859375</AltitudeMeters>
            <DistanceMeters>NAN</DistanceMeters>
          </Trackpoint>
          <Trackpoint>
            <Time>2021-07-18T12:25:24.000Z</Time>
            <Position>
              <LatitudeDegrees>42.7260379493236541748046875</LatitudeDegrees>
              <LongitudeDegrees>-0.26558361947536468505859375</LongitudeDegrees>
            </Position>
            <AltitudeMeters>1267</AltitudeMeters>
            <DistanceMeters>NAN</DistanceMeters>
          </Trackpoint>
          <Trackpoint>
            <Time>2021-07-18T12:25:25.000Z</Time>
            <Position>
              <LatitudeDegrees>42.726051025092601776123046875</LatitudeDegrees>
              <LongitudeDegrees>-0.26559325866401195526123046875</LongitudeDegrees>
            </Position>
            <AltitudeMeters>1267</AltitudeMeters>
            <DistanceMeters>NAN</DistanceMeters>
          </Trackpoint>
          <Trackpoint>
            <Time>2021-07-18T12:25:31.000Z</Time>
            <Position>
              <LatitudeDegrees>42.72612738423049449920654296875</LatitudeDegrees>
              <LongitudeDegrees>-0.2656196616590023040771484375</LongitudeDegrees>
            </Position>
            <AltitudeMeters>1266.800048828125</AltitudeMeters>
            <DistanceMeters>NAN</DistanceMeters>
          </Trackpoint>
          <Trackpoint>
            <Time>2021-07-18T12:25:33.000Z</Time>
            <Position>
              <LatitudeDegrees>42.7261467464268207550048828125</LatitudeDegrees>
              <LongitudeDegrees>-0.26562460698187351226806640625</LongitudeDegrees>
            </Position>
            <AltitudeMeters>1266.800048828125</AltitudeMeters>
            <DistanceMeters>NAN</DistanceMeters>
          </Trackpoint>
          <Trackpoint>
            <Time>2021-07-18T12:25:35.000Z</Time>
            <Position>
              <LatitudeDegrees>42.72616610862314701080322265625</LatitudeDegrees>
              <LongitudeDegrees>-0.26562678627669811248779296875</LongitudeDegrees>
            </Position>
            <AltitudeMeters>1267</AltitudeMeters>
            <DistanceMeters>NAN</DistanceMeters>
          </Trackpoint>
          <Trackpoint>
            <Time>2021-07-18T12:25:38.000Z</Time>
            <Position>
              <LatitudeDegrees>42.7261906675994396209716796875</LatitudeDegrees>
              <LongitudeDegrees>-0.2656459808349609375</LongitudeDegrees>
            </Position>
            <AltitudeMeters>1266.5999755859375</AltitudeMeters>
            <DistanceMeters>NAN</DistanceMeters>
          </Trackpoint>
          <Trackpoint>
            <Time>2021-07-18T12:25:39.000Z</Time>
            <Position>
              <LatitudeDegrees>42.7262015640735626220703125</LatitudeDegrees>
              <LongitudeDegrees>-0.26564941741526126861572265625</LongitudeDegrees>
            </Position>
            <AltitudeMeters>1266.5999755859375</AltitudeMeters>
            <DistanceMeters>NAN</DistanceMeters>
          </Trackpoint>
          <Trackpoint>
            <Time>2021-07-18T12:25:44.000Z</Time>
            <Position>
              <LatitudeDegrees>42.72624456323683261871337890625</LatitudeDegrees>
              <LongitudeDegrees>-0.265673808753490447998046875</LongitudeDegrees>
            </Position>
            <AltitudeMeters>1266.199951171875</AltitudeMeters>
            <DistanceMeters>NAN</DistanceMeters>
          </Trackpoint>
          <Trackpoint>
            <Time>2021-07-18T12:25:50.000Z</Time>
            <Position>
              <LatitudeDegrees>42.72631430067121982574462890625</LatitudeDegrees>
              <LongitudeDegrees>-0.26570088230073451995849609375</LongitudeDegrees>
            </Position>
            <AltitudeMeters>1265.5999755859375</AltitudeMeters>
            <DistanceMeters>NAN</DistanceMeters>
          </Trackpoint>
          <Trackpoint>
            <Time>2021-07-18T12:25:51.000Z</Time>
            <Position>
              <LatitudeDegrees>42.72632922045886516571044921875</LatitudeDegrees>
              <LongitudeDegrees>-0.2657075040042400360107421875</LongitudeDegrees>
            </Position>
            <AltitudeMeters>1265.5999755859375</AltitudeMeters>
            <DistanceMeters>NAN</DistanceMeters>
          </Trackpoint>
          <Trackpoint>
            <Time>2021-07-18T12:25:53.000Z</Time>
            <Position>
              <LatitudeDegrees>42.72636224515736103057861328125</LatitudeDegrees>
              <LongitudeDegrees>-0.26573055423796176910400390625</LongitudeDegrees>
            </Position>
            <AltitudeMeters>1264.800048828125</AltitudeMeters>
            <DistanceMeters>NAN</DistanceMeters>
          </Trackpoint>
          <Trackpoint>
            <Time>2021-07-18T12:25:55.000Z</Time>
            <Position>
              <LatitudeDegrees>42.72639761678874492645263671875</LatitudeDegrees>
              <LongitudeDegrees>-0.2657323144376277923583984375</LongitudeDegrees>
            </Position>
            <AltitudeMeters>1265</AltitudeMeters>
            <DistanceMeters>NAN</DistanceMeters>
          </Trackpoint>
          <Trackpoint>
            <Time>2021-07-18T12:25:56.000Z</Time>
            <Position>
              <LatitudeDegrees>42.7264079265296459197998046875</LatitudeDegrees>
              <LongitudeDegrees>-0.26574446819722652435302734375</LongitudeDegrees>
            </Position>
            <AltitudeMeters>1264.5999755859375</AltitudeMeters>
            <DistanceMeters>NAN</DistanceMeters>
          </Trackpoint>
          <Trackpoint>
            <Time>2021-07-18T12:25:57.000Z</Time>
            <Position>
              <LatitudeDegrees>42.72641521878540515899658203125</LatitudeDegrees>
              <LongitudeDegrees>-0.2657594718039035797119140625</LongitudeDegrees>
            </Position>
            <AltitudeMeters>1264</AltitudeMeters>
            <DistanceMeters>NAN</DistanceMeters>
          </Trackpoint>
          <Trackpoint>
            <Time>2021-07-18T12:26:01.000Z</Time>
            <Position>
              <LatitudeDegrees>42.72644774056971073150634765625</LatitudeDegrees>
              <LongitudeDegrees>-0.265794508159160614013671875</LongitudeDegrees>
            </Position>
            <AltitudeMeters>1263</AltitudeMeters>
            <DistanceMeters>NAN</DistanceMeters>
          </Trackpoint>
          <Trackpoint>
            <Time>2021-07-18T12:26:02.000Z</Time>
            <Position>
              <LatitudeDegrees>42.72645436227321624755859375</LatitudeDegrees>
              <LongitudeDegrees>-0.26580012403428554534912109375</LongitudeDegrees>
            </Position>
            <AltitudeMeters>1262.800048828125</AltitudeMeters>
            <DistanceMeters>NAN</DistanceMeters>
          </Trackpoint>
          <Trackpoint>
            <Time>2021-07-18T12:26:04.000Z</Time>
            <Position>
              <LatitudeDegrees>42.72647422738373279571533203125</LatitudeDegrees>
              <LongitudeDegrees>-0.26581227779388427734375</LongitudeDegrees>
            </Position>
            <AltitudeMeters>1262.4000244140625</AltitudeMeters>
            <DistanceMeters>NAN</DistanceMeters>
          </Trackpoint>
          <Trackpoint>
            <Time>2021-07-18T12:26:07.000Z</Time>
            <Position>
              <LatitudeDegrees>42.7264964394271373748779296875</LatitudeDegrees>
              <LongitudeDegrees>-0.2658318914473056793212890625</LongitudeDegrees>
            </Position>
            <AltitudeMeters>1261.800048828125</AltitudeMeters>
            <DistanceMeters>NAN</DistanceMeters>
          </Trackpoint>
          <Trackpoint>
            <Time>2021-07-18T12:26:08.000Z</Time>
            <Position>
              <LatitudeDegrees>42.72650532424449920654296875</LatitudeDegrees>
              <LongitudeDegrees>-0.26583432219922542572021484375</LongitudeDegrees>
            </Position>
            <AltitudeMeters>1261.800048828125</AltitudeMeters>
            <DistanceMeters>NAN</DistanceMeters>
          </Trackpoint>
          <Trackpoint>
            <Time>2021-07-18T12:26:10.000Z</Time>
            <Position>
              <LatitudeDegrees>42.7265222556889057159423828125</LatitudeDegrees>
              <LongitudeDegrees>-0.265850834548473358154296875</LongitudeDegrees>
            </Position>
            <AltitudeMeters>1261.199951171875</AltitudeMeters>
            <DistanceMeters>NAN</DistanceMeters>
          </Trackpoint>
          <Trackpoint>
            <Time>2021-07-18T12:26:13.000Z</Time>
            <Position>
              <LatitudeDegrees>42.7265588007867336273193359375</LatitudeDegrees>
              <LongitudeDegrees>-0.2658654190599918365478515625</LongitudeDegrees>
            </Position>
            <AltitudeMeters>1261</AltitudeMeters>
            <DistanceMeters>NAN</DistanceMeters>
          </Trackpoint>
          <Trackpoint>
            <Time>2021-07-18T12:26:16.000Z</Time>
            <Position>
              <LatitudeDegrees>42.72659677080810070037841796875</LatitudeDegrees>
              <LongitudeDegrees>-0.26586533524096012115478515625</LongitudeDegrees>
            </Position>
            <AltitudeMeters>1261.199951171875</AltitudeMeters>
            <DistanceMeters>NAN</DistanceMeters>
          </Trackpoint>
          <Trackpoint>
            <Time>2021-07-18T12:26:20.000Z</Time>
            <Position>
              <LatitudeDegrees>42.7266436256468296051025390625</LatitudeDegrees>
              <LongitudeDegrees>-0.26587874628603458404541015625</LongitudeDegrees>
            </Position>
            <AltitudeMeters>1261</AltitudeMeters>
            <DistanceMeters>NAN</DistanceMeters>
          </Trackpoint>
          <Trackpoint>
            <Time>2021-07-18T12:26:21.000Z</Time>
            <Position>
              <LatitudeDegrees>42.72665686905384063720703125</LatitudeDegrees>
              <LongitudeDegrees>-0.2658788301050662994384765625</LongitudeDegrees>
            </Position>
            <AltitudeMeters>1261</AltitudeMeters>
            <DistanceMeters>NAN</DistanceMeters>
          </Trackpoint>
          <Trackpoint>
            <Time>2021-07-18T12:26:30.000Z</Time>
            <Position>
              <LatitudeDegrees>42.726750075817108154296875</LatitudeDegrees>
              <LongitudeDegrees>-0.2659079991281032562255859375</LongitudeDegrees>
            </Position>
            <AltitudeMeters>1261</AltitudeMeters>
            <DistanceMeters>NAN</DistanceMeters>
          </Trackpoint>
          <Trackpoint>
            <Time>2021-07-18T12:26:33.000Z</Time>
            <Position>
              <LatitudeDegrees>42.726795673370361328125</LatitudeDegrees>
              <LongitudeDegrees>-0.26592350564897060394287109375</LongitudeDegrees>
            </Position>
            <AltitudeMeters>1261.5999755859375</AltitudeMeters>
            <DistanceMeters>NAN</DistanceMeters>
          </Trackpoint>
          <Trackpoint>
            <Time>2021-07-18T12:26:36.000Z</Time>
            <Position>
              <LatitudeDegrees>42.726826854050159454345703125</LatitudeDegrees>
              <LongitudeDegrees>-0.2659556083381175994873046875</LongitudeDegrees>
            </Position>
            <AltitudeMeters>1261.199951171875</AltitudeMeters>
            <DistanceMeters>NAN</DistanceMeters>
          </Trackpoint>
          <Trackpoint>
            <Time>2021-07-18T12:26:38.000Z</Time>
            <Position>
              <LatitudeDegrees>42.72685275413095951080322265625</LatitudeDegrees>
              <LongitudeDegrees>-0.2659784071147441864013671875</LongitudeDegrees>
            </Position>
            <AltitudeMeters>1261.5999755859375</AltitudeMeters>
            <DistanceMeters>NAN</DistanceMeters>
          </Trackpoint>
          <Trackpoint>
            <Time>2021-07-18T12:26:42.000Z</Time>
            <Position>
              <LatitudeDegrees>42.7269188873469829559326171875</LatitudeDegrees>
              <LongitudeDegrees>-0.26602610014379024505615234375</LongitudeDegrees>
            </Position>
            <AltitudeMeters>1263</AltitudeMeters>
            <DistanceMeters>NAN</DistanceMeters>
          </Trackpoint>
          <Trackpoint>
            <Time>2021-07-18T12:26:47.000Z</Time>
            <Position>
              <LatitudeDegrees>42.7269789017736911773681640625</LatitudeDegrees>
              <LongitudeDegrees>-0.26606935076415538787841796875</LongitudeDegrees>
            </Position>
            <AltitudeMeters>1263.800048828125</AltitudeMeters>
            <DistanceMeters>NAN</DistanceMeters>
          </Trackpoint>
          <Trackpoint>
            <Time>2021-07-18T12:26:49.000Z</Time>
            <Position>
              <LatitudeDegrees>42.72699239663779735565185546875</LatitudeDegrees>
              <LongitudeDegrees>-0.2661064825952053070068359375</LongitudeDegrees>
            </Position>
            <AltitudeMeters>1262.4000244140625</AltitudeMeters>
            <DistanceMeters>NAN</DistanceMeters>
          </Trackpoint>
          <Trackpoint>
            <Time>2021-07-18T12:26:54.000Z</Time>
            <Position>
              <LatitudeDegrees>42.72703648544847965240478515625</LatitudeDegrees>
              <LongitudeDegrees>-0.26617906987667083740234375</LongitudeDegrees>
            </Position>
            <AltitudeMeters>1260.199951171875</AltitudeMeters>
            <DistanceMeters>NAN</DistanceMeters>
          </Trackpoint>
          <Trackpoint>
            <Time>2021-07-18T12:26:55.000Z</Time>
            <Position>
              <LatitudeDegrees>42.727050147950649261474609375</LatitudeDegrees>
              <LongitudeDegrees>-0.266194827854633331298828125</LongitudeDegrees>
            </Position>
            <AltitudeMeters>1260.199951171875</AltitudeMeters>
            <DistanceMeters>NAN</DistanceMeters>
          </Trackpoint>
          <Trackpoint>
            <Time>2021-07-18T12:27:02.000Z</Time>
            <Position>
              <LatitudeDegrees>42.7271068096160888671875</LatitudeDegrees>
              <LongitudeDegrees>-0.2662747912108898162841796875</LongitudeDegrees>
            </Position>
            <AltitudeMeters>1257.800048828125</AltitudeMeters>
            <DistanceMeters>NAN</DistanceMeters>
          </Trackpoint>
          <Trackpoint>
            <Time>2021-07-18T12:27:04.000Z</Time>
            <Position>
              <LatitudeDegrees>42.7271361462771892547607421875</LatitudeDegrees>
              <LongitudeDegrees>-0.266281329095363616943359375</LongitudeDegrees>
            </Position>
            <AltitudeMeters>1258.199951171875</AltitudeMeters>
            <DistanceMeters>NAN</DistanceMeters>
          </Trackpoint>
          <Trackpoint>
            <Time>2021-07-18T12:27:10.000Z</Time>
            <Position>
              <LatitudeDegrees>42.72720546461641788482666015625</LatitudeDegrees>
              <LongitudeDegrees>-0.26634125970304012298583984375</LongitudeDegrees>
            </Position>
            <AltitudeMeters>1256.5999755859375</AltitudeMeters>
            <DistanceMeters>NAN</DistanceMeters>
          </Trackpoint>
          <Trackpoint>
            <Time>2021-07-18T12:27:14.000Z</Time>
            <Position>
              <LatitudeDegrees>42.7272384054958820343017578125</LatitudeDegrees>
              <LongitudeDegrees>-0.26638803072273731231689453125</LongitudeDegrees>
            </Position>
            <AltitudeMeters>1255.5999755859375</AltitudeMeters>
            <DistanceMeters>NAN</DistanceMeters>
          </Trackpoint>
          <Trackpoint>
            <Time>2021-07-18T12:27:23.000Z</Time>
            <Position>
              <LatitudeDegrees>42.72732063196599483489990234375</LatitudeDegrees>
              <LongitudeDegrees>-0.26646514423191547393798828125</LongitudeDegrees>
            </Position>
            <AltitudeMeters>1255.4000244140625</AltitudeMeters>
            <DistanceMeters>NAN</DistanceMeters>
          </Trackpoint>
          <Trackpoint>
            <Time>2021-07-18T12:27:32.000Z</Time>
            <Position>
              <LatitudeDegrees>42.7273979969322681427001953125</LatitudeDegrees>
              <LongitudeDegrees>-0.26657729409635066986083984375</LongitudeDegrees>
            </Position>
            <AltitudeMeters>1255</AltitudeMeters>
            <DistanceMeters>NAN</DistanceMeters>
          </Trackpoint>
          <Trackpoint>
            <Time>2021-07-18T12:27:33.000Z</Time>
            <Position>
              <LatitudeDegrees>42.7273959852755069732666015625</LatitudeDegrees>
              <LongitudeDegrees>-0.26659606955945491790771484375</LongitudeDegrees>
            </Position>
            <AltitudeMeters>1253.800048828125</AltitudeMeters>
            <DistanceMeters>NAN</DistanceMeters>
          </Trackpoint>
          <Trackpoint>
            <Time>2021-07-18T12:27:38.000Z</Time>
            <Position>
              <LatitudeDegrees>42.7274275012314319610595703125</LatitudeDegrees>
              <LongitudeDegrees>-0.26666563935577869415283203125</LongitudeDegrees>
            </Position>
            <AltitudeMeters>1253.800048828125</AltitudeMeters>
            <DistanceMeters>NAN</DistanceMeters>
          </Trackpoint>
          <Trackpoint>
            <Time>2021-07-18T12:27:45.000Z</Time>
            <Position>
              <LatitudeDegrees>42.7274761162698268890380859375</LatitudeDegrees>
              <LongitudeDegrees>-0.266766138374805450439453125</LongitudeDegrees>
            </Position>
            <AltitudeMeters>1250.800048828125</AltitudeMeters>
            <DistanceMeters>NAN</DistanceMeters>
          </Trackpoint>
          <Trackpoint>
            <Time>2021-07-18T12:27:49.000Z</Time>
            <Position>
              <LatitudeDegrees>42.72750134579837322235107421875</LatitudeDegrees>
              <LongitudeDegrees>-0.26680377312004566192626953125</LongitudeDegrees>
            </Position>
            <AltitudeMeters>1248.4000244140625</AltitudeMeters>
            <DistanceMeters>NAN</DistanceMeters>
          </Trackpoint>
          <Trackpoint>
            <Time>2021-07-18T12:27:58.000Z</Time>
            <Position>
              <LatitudeDegrees>42.72756404243409633636474609375</LatitudeDegrees>
              <LongitudeDegrees>-0.266942493617534637451171875</LongitudeDegrees>
            </Position>
            <AltitudeMeters>1242.199951171875</AltitudeMeters>
            <DistanceMeters>NAN</DistanceMeters>
          </Trackpoint>
          <Trackpoint>
            <Time>2021-07-18T12:28:00.000Z</Time>
            <Position>
              <LatitudeDegrees>42.727589271962642669677734375</LatitudeDegrees>
              <LongitudeDegrees>-0.26695230044424533843994140625</LongitudeDegrees>
            </Position>
            <AltitudeMeters>1243.4000244140625</AltitudeMeters>
            <DistanceMeters>NAN</DistanceMeters>
          </Trackpoint>
          <Trackpoint>
            <Time>2021-07-18T12:28:08.000Z</Time>
            <Position>
              <LatitudeDegrees>42.727674432098865509033203125</LatitudeDegrees>
              <LongitudeDegrees>-0.26699303649365901947021484375</LongitudeDegrees>
            </Position>
            <AltitudeMeters>1246.800048828125</AltitudeMeters>
            <DistanceMeters>NAN</DistanceMeters>
          </Trackpoint>
          <Trackpoint>
            <Time>2021-07-18T12:28:14.000Z</Time>
            <Position>
              <LatitudeDegrees>42.727722041308879852294921875</LatitudeDegrees>
              <LongitudeDegrees>-0.26705204509198665618896484375</LongitudeDegrees>
            </Position>
            <AltitudeMeters>1246.4000244140625</AltitudeMeters>
            <DistanceMeters>NAN</DistanceMeters>
          </Trackpoint>
          <Trackpoint>
            <Time>2021-07-18T12:28:15.000Z</Time>
            <Position>
              <LatitudeDegrees>42.727728746831417083740234375</LatitudeDegrees>
              <LongitudeDegrees>-0.26706109754741191864013671875</LongitudeDegrees>
            </Position>
            <AltitudeMeters>1246.199951171875</AltitudeMeters>
            <DistanceMeters>NAN</DistanceMeters>
          </Trackpoint>
          <Trackpoint>
            <Time>2021-07-18T12:28:19.000Z</Time>
            <Position>
              <LatitudeDegrees>42.72776487283408641815185546875</LatitudeDegrees>
              <LongitudeDegrees>-0.2670828066766262054443359375</LongitudeDegrees>
            </Position>
            <AltitudeMeters>1246.199951171875</AltitudeMeters>
            <DistanceMeters>NAN</DistanceMeters>
          </Trackpoint>
          <Trackpoint>
            <Time>2021-07-18T12:28:25.000Z</Time>
            <Position>
              <LatitudeDegrees>42.727806530892848968505859375</LatitudeDegrees>
              <LongitudeDegrees>-0.26713167317211627960205078125</LongitudeDegrees>
            </Position>
            <AltitudeMeters>1245.199951171875</AltitudeMeters>
            <DistanceMeters>NAN</DistanceMeters>
          </Trackpoint>
          <Trackpoint>
            <Time>2021-07-18T12:28:33.000Z</Time>
            <Position>
              <LatitudeDegrees>42.7278341911733150482177734375</LatitudeDegrees>
              <LongitudeDegrees>-0.26723963208496570587158203125</LongitudeDegrees>
            </Position>
            <AltitudeMeters>1242.199951171875</AltitudeMeters>
            <DistanceMeters>NAN</DistanceMeters>
          </Trackpoint>
          <Trackpoint>
            <Time>2021-07-18T12:28:35.000Z</Time>
            <Position>
              <LatitudeDegrees>42.7278422378003597259521484375</LatitudeDegrees>
              <LongitudeDegrees>-0.26727466844022274017333984375</LongitudeDegrees>
            </Position>
            <AltitudeMeters>1241.199951171875</AltitudeMeters>
            <DistanceMeters>NAN</DistanceMeters>
          </Trackpoint>
          <Trackpoint>
            <Time>2021-07-18T12:28:41.000Z</Time>
            <Position>
              <LatitudeDegrees>42.7278657071292400360107421875</LatitudeDegrees>
              <LongitudeDegrees>-0.26739235036075115203857421875</LongitudeDegrees>
            </Position>
            <AltitudeMeters>1238.4000244140625</AltitudeMeters>
            <DistanceMeters>NAN</DistanceMeters>
          </Trackpoint>
          <Trackpoint>
            <Time>2021-07-18T12:28:47.000Z</Time>
            <Position>
              <LatitudeDegrees>42.7278992347419261932373046875</LatitudeDegrees>
              <LongitudeDegrees>-0.26747860014438629150390625</LongitudeDegrees>
            </Position>
            <AltitudeMeters>1237.5999755859375</AltitudeMeters>
            <DistanceMeters>NAN</DistanceMeters>
          </Trackpoint>
          <Trackpoint>
            <Time>2021-07-18T12:28:50.000Z</Time>
            <Position>
              <LatitudeDegrees>42.727890349924564361572265625</LatitudeDegrees>
              <LongitudeDegrees>-0.26750885881483554840087890625</LongitudeDegrees>
            </Position>
            <AltitudeMeters>1236.800048828125</AltitudeMeters>
            <DistanceMeters>NAN</DistanceMeters>
          </Trackpoint>
          <Trackpoint>
            <Time>2021-07-18T12:28:51.000Z</Time>
            <Position>
              <LatitudeDegrees>42.727889679372310638427734375</LatitudeDegrees>
              <LongitudeDegrees>-0.26752830483019351959228515625</LongitudeDegrees>
            </Position>
            <AltitudeMeters>1236.5999755859375</AltitudeMeters>
            <DistanceMeters>NAN</DistanceMeters>
          </Trackpoint>
          <Trackpoint>
            <Time>2021-07-18T12:28:54.000Z</Time>
            <Position>
              <LatitudeDegrees>42.72791021503508090972900390625</LatitudeDegrees>
              <LongitudeDegrees>-0.2675716392695903778076171875</LongitudeDegrees>
            </Position>
            <AltitudeMeters>1236.800048828125</AltitudeMeters>
            <DistanceMeters>NAN</DistanceMeters>
          </Trackpoint>
          <Trackpoint>
            <Time>2021-07-18T12:28:57.000Z</Time>
            <Position>
              <LatitudeDegrees>42.7279548905789852142333984375</LatitudeDegrees>
              <LongitudeDegrees>-0.26760340668261051177978515625</LongitudeDegrees>
            </Position>
            <AltitudeMeters>1238</AltitudeMeters>
            <DistanceMeters>NAN</DistanceMeters>
          </Trackpoint>
          <Trackpoint>
            <Time>2021-07-18T12:28:59.000Z</Time>
            <Position>
              <LatitudeDegrees>42.7279699780046939849853515625</LatitudeDegrees>
              <LongitudeDegrees>-0.2676309831440448760986328125</LongitudeDegrees>
            </Position>
            <AltitudeMeters>1237.4000244140625</AltitudeMeters>
            <DistanceMeters>NAN</DistanceMeters>
          </Trackpoint>
          <Trackpoint>
            <Time>2021-07-18T12:29:04.000Z</Time>
            <Position>
              <LatitudeDegrees>42.72800057195127010345458984375</LatitudeDegrees>
              <LongitudeDegrees>-0.26768202893435955047607421875</LongitudeDegrees>
            </Position>
            <AltitudeMeters>1236.4000244140625</AltitudeMeters>
            <DistanceMeters>NAN</DistanceMeters>
          </Trackpoint>
          <Trackpoint>
            <Time>2021-07-18T12:29:06.000Z</Time>
            <Position>
              <LatitudeDegrees>42.72800643928349018096923828125</LatitudeDegrees>
              <LongitudeDegrees>-0.2677077613770961761474609375</LongitudeDegrees>
            </Position>
            <AltitudeMeters>1235.800048828125</AltitudeMeters>
            <DistanceMeters>NAN</DistanceMeters>
          </Trackpoint>
          <Trackpoint>
            <Time>2021-07-18T12:29:07.000Z</Time>
            <Position>
              <LatitudeDegrees>42.72801046259701251983642578125</LatitudeDegrees>
              <LongitudeDegrees>-0.26771907694637775421142578125</LongitudeDegrees>
            </Position>
            <AltitudeMeters>1235.5999755859375</AltitudeMeters>
            <DistanceMeters>NAN</DistanceMeters>
          </Trackpoint>
          <Trackpoint>
            <Time>2021-07-18T12:29:14.000Z</Time>
            <Position>
              <LatitudeDegrees>42.72805304266512393951416015625</LatitudeDegrees>
              <LongitudeDegrees>-0.2678029797971248626708984375</LongitudeDegrees>
            </Position>
            <AltitudeMeters>1235.5999755859375</AltitudeMeters>
            <DistanceMeters>NAN</DistanceMeters>
          </Trackpoint>
          <Trackpoint>
            <Time>2021-07-18T12:29:17.000Z</Time>
            <Position>
              <LatitudeDegrees>42.72806645371019840240478515625</LatitudeDegrees>
              <LongitudeDegrees>-0.26784966699779033660888671875</LongitudeDegrees>
            </Position>
            <AltitudeMeters>1235</AltitudeMeters>
            <DistanceMeters>NAN</DistanceMeters>
          </Trackpoint>
          <Trackpoint>
            <Time>2021-07-18T12:29:21.000Z</Time>
            <Position>
              <LatitudeDegrees>42.72809243761003017425537109375</LatitudeDegrees>
              <LongitudeDegrees>-0.2679042331874370574951171875</LongitudeDegrees>
            </Position>
            <AltitudeMeters>1234.800048828125</AltitudeMeters>
            <DistanceMeters>NAN</DistanceMeters>
          </Trackpoint>
          <Trackpoint>
            <Time>2021-07-18T12:29:29.000Z</Time>
            <Position>
              <LatitudeDegrees>42.72808170877397060394287109375</LatitudeDegrees>
              <LongitudeDegrees>-0.26804982684552669525146484375</LongitudeDegrees>
            </Position>
            <AltitudeMeters>1232.800048828125</AltitudeMeters>
            <DistanceMeters>NAN</DistanceMeters>
          </Trackpoint>
          <Trackpoint>
            <Time>2021-07-18T12:29:37.000Z</Time>
            <Position>
              <LatitudeDegrees>42.7280829660594463348388671875</LatitudeDegrees>
              <LongitudeDegrees>-0.2681846916675567626953125</LongitudeDegrees>
            </Position>
            <AltitudeMeters>1230.800048828125</AltitudeMeters>
            <DistanceMeters>NAN</DistanceMeters>
          </Trackpoint>
          <Trackpoint>
            <Time>2021-07-18T12:29:43.000Z</Time>
            <Position>
              <LatitudeDegrees>42.72808958776295185089111328125</LatitudeDegrees>
              <LongitudeDegrees>-0.26821780018508434295654296875</LongitudeDegrees>
            </Position>
            <AltitudeMeters>1230.4000244140625</AltitudeMeters>
            <DistanceMeters>NAN</DistanceMeters>
          </Trackpoint>
          <Trackpoint>
            <Time>2021-07-18T12:29:45.000Z</Time>
            <Position>
              <LatitudeDegrees>42.728096880018711090087890625</LatitudeDegrees>
              <LongitudeDegrees>-0.26821394450962543487548828125</LongitudeDegrees>
            </Position>
            <AltitudeMeters>1230.5999755859375</AltitudeMeters>
            <DistanceMeters>NAN</DistanceMeters>
          </Trackpoint>
          <Trackpoint>
            <Time>2021-07-18T12:29:47.000Z</Time>
            <Position>
              <LatitudeDegrees>42.72809897549450397491455078125</LatitudeDegrees>
              <LongitudeDegrees>-0.26821411214768886566162109375</LongitudeDegrees>
            </Position>
            <AltitudeMeters>1230.5999755859375</AltitudeMeters>
            <DistanceMeters>NAN</DistanceMeters>
          </Trackpoint>
          <Trackpoint>
            <Time>2021-07-18T12:29:50.000Z</Time>
            <Position>
              <LatitudeDegrees>42.72810450755059719085693359375</LatitudeDegrees>
              <LongitudeDegrees>-0.26821495033800601959228515625</LongitudeDegrees>
            </Position>
            <AltitudeMeters>1230.5999755859375</AltitudeMeters>
            <DistanceMeters>NAN</DistanceMeters>
          </Trackpoint>
          <Trackpoint>
            <Time>2021-07-18T12:29:55.000Z</Time>
            <Position>
              <LatitudeDegrees>42.728080786764621734619140625</LatitudeDegrees>
              <LongitudeDegrees>-0.26821830309927463531494140625</LongitudeDegrees>
            </Position>
            <AltitudeMeters>1230.4000244140625</AltitudeMeters>
            <DistanceMeters>NAN</DistanceMeters>
          </Trackpoint>
          <Trackpoint>
            <Time>2021-07-18T12:29:58.000Z</Time>
            <Position>
              <LatitudeDegrees>42.72807651199400424957275390625</LatitudeDegrees>
              <LongitudeDegrees>-0.268209166824817657470703125</LongitudeDegrees>
            </Position>
            <AltitudeMeters>1230.4000244140625</AltitudeMeters>
            <DistanceMeters>NAN</DistanceMeters>
          </Trackpoint>
          <Trackpoint>
            <Time>2021-07-18T12:30:05.000Z</Time>
            <Position>
              <LatitudeDegrees>42.72802990861237049102783203125</LatitudeDegrees>
              <LongitudeDegrees>-0.268257446587085723876953125</LongitudeDegrees>
            </Position>
            <AltitudeMeters>1229.199951171875</AltitudeMeters>
            <DistanceMeters>NAN</DistanceMeters>
          </Trackpoint>
          <Trackpoint>
            <Time>2021-07-18T12:30:06.000Z</Time>
            <Position>
              <LatitudeDegrees>42.72802320308983325958251953125</LatitudeDegrees>
              <LongitudeDegrees>-0.268266834318637847900390625</LongitudeDegrees>
            </Position>
            <AltitudeMeters>1229</AltitudeMeters>
            <DistanceMeters>NAN</DistanceMeters>
          </Trackpoint>
          <Trackpoint>
            <Time>2021-07-18T12:30:10.000Z</Time>
            <Position>
              <LatitudeDegrees>42.72802722640335559844970703125</LatitudeDegrees>
              <LongitudeDegrees>-0.26826038025319576263427734375</LongitudeDegrees>
            </Position>
            <AltitudeMeters>1229.199951171875</AltitudeMeters>
            <DistanceMeters>NAN</DistanceMeters>
          </Trackpoint>
          <Trackpoint>
            <Time>2021-07-18T12:30:14.000Z</Time>
            <Position>
              <LatitudeDegrees>42.728039883077144622802734375</LatitudeDegrees>
              <LongitudeDegrees>-0.26825107634067535400390625</LongitudeDegrees>
            </Position>
            <AltitudeMeters>1229.4000244140625</AltitudeMeters>
            <DistanceMeters>NAN</DistanceMeters>
          </Trackpoint>
          <Trackpoint>
            <Time>2021-07-18T12:30:16.000Z</Time>
            <Position>
              <LatitudeDegrees>42.7280313335359096527099609375</LatitudeDegrees>
              <LongitudeDegrees>-0.26824780739843845367431640625</LongitudeDegrees>
            </Position>
            <AltitudeMeters>1229.4000244140625</AltitudeMeters>
            <DistanceMeters>NAN</DistanceMeters>
          </Trackpoint>
          <Trackpoint>
            <Time>2021-07-18T12:30:18.000Z</Time>
            <Position>
              <LatitudeDegrees>42.72803527303040027618408203125</LatitudeDegrees>
              <LongitudeDegrees>-0.268239341676235198974609375</LongitudeDegrees>
            </Position>
            <AltitudeMeters>1229.5999755859375</AltitudeMeters>
            <DistanceMeters>NAN</DistanceMeters>
          </Trackpoint>
          <Trackpoint>
            <Time>2021-07-18T12:30:19.000Z</Time>
            <Position>
              <LatitudeDegrees>42.72803544066846370697021484375</LatitudeDegrees>
              <LongitudeDegrees>-0.2682442031800746917724609375</LongitudeDegrees>
            </Position>
            <AltitudeMeters>1229.4000244140625</AltitudeMeters>
            <DistanceMeters>NAN</DistanceMeters>
          </Trackpoint>
          <Trackpoint>
            <Time>2021-07-18T12:30:20.000Z</Time>
            <Position>
              <LatitudeDegrees>42.7280350215733051300048828125</LatitudeDegrees>
              <LongitudeDegrees>-0.2682463824748992919921875</LongitudeDegrees>
            </Position>
            <AltitudeMeters>1229.4000244140625</AltitudeMeters>
            <DistanceMeters>NAN</DistanceMeters>
          </Trackpoint>
          <Trackpoint>
            <Time>2021-07-18T12:30:21.000Z</Time>
            <Position>
              <LatitudeDegrees>42.72802990861237049102783203125</LatitudeDegrees>
              <LongitudeDegrees>-0.2682502381503582000732421875</LongitudeDegrees>
            </Position>
            <AltitudeMeters>1229.4000244140625</AltitudeMeters>
            <DistanceMeters>NAN</DistanceMeters>
          </Trackpoint>
          <Trackpoint>
            <Time>2021-07-18T12:30:22.000Z</Time>
            <Position>
              <LatitudeDegrees>42.728028483688831329345703125</LatitudeDegrees>
              <LongitudeDegrees>-0.2682517468929290771484375</LongitudeDegrees>
            </Position>
            <AltitudeMeters>1229.199951171875</AltitudeMeters>
            <DistanceMeters>NAN</DistanceMeters>
          </Trackpoint>
          <Trackpoint>
            <Time>2021-07-18T12:30:23.000Z</Time>
            <Position>
              <LatitudeDegrees>42.72802689112722873687744140625</LatitudeDegrees>
              <LongitudeDegrees>-0.268255770206451416015625</LongitudeDegrees>
            </Position>
            <AltitudeMeters>1229.199951171875</AltitudeMeters>
            <DistanceMeters>NAN</DistanceMeters>
          </Trackpoint>
          <Trackpoint>
            <Time>2021-07-18T12:30:25.000Z</Time>
            <Position>
              <LatitudeDegrees>42.7280286513268947601318359375</LatitudeDegrees>
              <LongitudeDegrees>-0.26825736276805400848388671875</LongitudeDegrees>
            </Position>
            <AltitudeMeters>1229.199951171875</AltitudeMeters>
            <DistanceMeters>NAN</DistanceMeters>
          </Trackpoint>
          <Trackpoint>
            <Time>2021-07-18T12:30:29.000Z</Time>
            <Position>
              <LatitudeDegrees>42.7280286513268947601318359375</LatitudeDegrees>
              <LongitudeDegrees>-0.26825736276805400848388671875</LongitudeDegrees>
            </Position>
            <AltitudeMeters>1229.199951171875</AltitudeMeters>
            <DistanceMeters>NAN</DistanceMeters>
          </Trackpoint>
          <Trackpoint>
            <Time>2021-07-18T12:30:37.000Z</Time>
            <Position>
              <LatitudeDegrees>42.7280286513268947601318359375</LatitudeDegrees>
              <LongitudeDegrees>-0.2682517468929290771484375</LongitudeDegrees>
            </Position>
            <AltitudeMeters>1229.199951171875</AltitudeMeters>
            <DistanceMeters>NAN</DistanceMeters>
          </Trackpoint>
          <Trackpoint>
            <Time>2021-07-18T12:30:39.000Z</Time>
            <Position>
              <LatitudeDegrees>42.728028483688831329345703125</LatitudeDegrees>
              <LongitudeDegrees>-0.2682517468929290771484375</LongitudeDegrees>
            </Position>
            <AltitudeMeters>1229.199951171875</AltitudeMeters>
            <DistanceMeters>NAN</DistanceMeters>
          </Trackpoint>
          <Trackpoint>
            <Time>2021-07-18T12:30:42.000Z</Time>
            <Position>
              <LatitudeDegrees>42.728028483688831329345703125</LatitudeDegrees>
              <LongitudeDegrees>-0.2682517468929290771484375</LongitudeDegrees>
            </Position>
            <AltitudeMeters>1229.199951171875</AltitudeMeters>
            <DistanceMeters>NAN</DistanceMeters>
          </Trackpoint>
          <Trackpoint>
            <Time>2021-07-18T12:30:50.000Z</Time>
            <Position>
              <LatitudeDegrees>42.728028483688831329345703125</LatitudeDegrees>
              <LongitudeDegrees>-0.2682495675981044769287109375</LongitudeDegrees>
            </Position>
            <AltitudeMeters>1229.4000244140625</AltitudeMeters>
            <DistanceMeters>NAN</DistanceMeters>
          </Trackpoint>
          <Trackpoint>
            <Time>2021-07-18T12:30:56.000Z</Time>
            <Position>
              <LatitudeDegrees>42.72803795523941516876220703125</LatitudeDegrees>
              <LongitudeDegrees>-0.26823992840945720672607421875</LongitudeDegrees>
            </Position>
            <AltitudeMeters>1229.5999755859375</AltitudeMeters>
            <DistanceMeters>NAN</DistanceMeters>
          </Trackpoint>
          <Trackpoint>
            <Time>2021-07-18T12:31:28.000Z</Time>
            <Position>
              <LatitudeDegrees>42.72806997410953044891357421875</LatitudeDegrees>
              <LongitudeDegrees>-0.268272869288921356201171875</LongitudeDegrees>
            </Position>
            <AltitudeMeters>1229.4000244140625</AltitudeMeters>
            <DistanceMeters>NAN</DistanceMeters>
          </Trackpoint>
          <Trackpoint>
            <Time>2021-07-18T12:31:29.000Z</Time>
            <Position>
              <LatitudeDegrees>42.72807651199400424957275390625</LatitudeDegrees>
              <LongitudeDegrees>-0.26829910464584827423095703125</LongitudeDegrees>
            </Position>
            <AltitudeMeters>1229.5999755859375</AltitudeMeters>
            <DistanceMeters>NAN</DistanceMeters>
          </Trackpoint>
          <Trackpoint>
            <Time>2021-07-18T12:31:31.000Z</Time>
            <Position>
              <LatitudeDegrees>42.728097550570964813232421875</LatitudeDegrees>
              <LongitudeDegrees>-0.26833732612431049346923828125</LongitudeDegrees>
            </Position>
            <AltitudeMeters>1229.5999755859375</AltitudeMeters>
            <DistanceMeters>NAN</DistanceMeters>
          </Trackpoint>
          <Trackpoint>
            <Time>2021-07-18T12:31:37.000Z</Time>
            <Position>
              <LatitudeDegrees>42.7281520329415798187255859375</LatitudeDegrees>
              <LongitudeDegrees>-0.2684448659420013427734375</LongitudeDegrees>
            </Position>
            <AltitudeMeters>1229.5999755859375</AltitudeMeters>
            <DistanceMeters>NAN</DistanceMeters>
          </Trackpoint>
          <Trackpoint>
            <Time>2021-07-18T12:31:38.000Z</Time>
            <Position>
              <LatitudeDegrees>42.72815865464508533477783203125</LatitudeDegrees>
              <LongitudeDegrees>-0.268459618091583251953125</LongitudeDegrees>
            </Position>
            <AltitudeMeters>1229.5999755859375</AltitudeMeters>
            <DistanceMeters>NAN</DistanceMeters>
          </Trackpoint>
          <Trackpoint>
            <Time>2021-07-18T12:31:43.000Z</Time>
            <Position>
              <LatitudeDegrees>42.72818966768682003021240234375</LatitudeDegrees>
              <LongitudeDegrees>-0.268537066876888275146484375</LongitudeDegrees>
            </Position>
            <AltitudeMeters>1229.199951171875</AltitudeMeters>
            <DistanceMeters>NAN</DistanceMeters>
          </Trackpoint>
          <Trackpoint>
            <Time>2021-07-18T12:31:47.000Z</Time>
            <Position>
              <LatitudeDegrees>42.72819972597062587738037109375</LatitudeDegrees>
              <LongitudeDegrees>-0.268561206758022308349609375</LongitudeDegrees>
            </Position>
            <AltitudeMeters>1229</AltitudeMeters>
            <DistanceMeters>NAN</DistanceMeters>
          </Trackpoint>
          <Trackpoint>
            <Time>2021-07-18T12:31:50.000Z</Time>
            <Position>
              <LatitudeDegrees>42.72819151170551776885986328125</LatitudeDegrees>
              <LongitudeDegrees>-0.2685288526117801666259765625</LongitudeDegrees>
            </Position>
            <AltitudeMeters>1229.199951171875</AltitudeMeters>
            <DistanceMeters>NAN</DistanceMeters>
          </Trackpoint>
          <Trackpoint>
            <Time>2021-07-18T12:31:53.000Z</Time>
            <Position>
              <LatitudeDegrees>42.72817860357463359832763671875</LatitudeDegrees>
              <LongitudeDegrees>-0.26849138550460338592529296875</LongitudeDegrees>
            </Position>
            <AltitudeMeters>1229.5999755859375</AltitudeMeters>
            <DistanceMeters>NAN</DistanceMeters>
          </Trackpoint>
          <Trackpoint>
            <Time>2021-07-18T12:32:01.000Z</Time>
            <Position>
              <LatitudeDegrees>42.72812395356595516204833984375</LatitudeDegrees>
              <LongitudeDegrees>-0.26836532168090343475341796875</LongitudeDegrees>
            </Position>
            <AltitudeMeters>1229.5999755859375</AltitudeMeters>
            <DistanceMeters>NAN</DistanceMeters>
          </Trackpoint>
          <Trackpoint>
            <Time>2021-07-18T12:32:04.000Z</Time>
            <Position>
              <LatitudeDegrees>42.72810668684542179107666015625</LatitudeDegrees>
              <LongitudeDegrees>-0.26833313517272472381591796875</LongitudeDegrees>
            </Position>
            <AltitudeMeters>1229.5999755859375</AltitudeMeters>
            <DistanceMeters>NAN</DistanceMeters>
          </Trackpoint>
          <Trackpoint>
            <Time>2021-07-18T12:32:06.000Z</Time>
            <Position>
              <LatitudeDegrees>42.72809864021837711334228515625</LatitudeDegrees>
              <LongitudeDegrees>-0.26831368915736675262451171875</LongitudeDegrees>
            </Position>
            <AltitudeMeters>1229.5999755859375</AltitudeMeters>
            <DistanceMeters>NAN</DistanceMeters>
          </Trackpoint>
          <Trackpoint>
            <Time>2021-07-18T12:32:13.000Z</Time>
            <Position>
              <LatitudeDegrees>42.72808992303907871246337890625</LatitudeDegrees>
              <LongitudeDegrees>-0.26824839413166046142578125</LongitudeDegrees>
            </Position>
            <AltitudeMeters>1230</AltitudeMeters>
            <DistanceMeters>NAN</DistanceMeters>
          </Trackpoint>
          <Trackpoint>
            <Time>2021-07-18T12:32:20.000Z</Time>
            <Position>
              <LatitudeDegrees>42.728094197809696197509765625</LatitudeDegrees>
              <LongitudeDegrees>-0.26825903914868831634521484375</LongitudeDegrees>
            </Position>
            <AltitudeMeters>1229.800048828125</AltitudeMeters>
            <DistanceMeters>NAN</DistanceMeters>
          </Trackpoint>
          <Trackpoint>
            <Time>2021-07-18T12:32:25.000Z</Time>
            <Position>
              <LatitudeDegrees>42.728083133697509765625</LatitudeDegrees>
              <LongitudeDegrees>-0.26822852902114391326904296875</LongitudeDegrees>
            </Position>
            <AltitudeMeters>1230.199951171875</AltitudeMeters>
            <DistanceMeters>NAN</DistanceMeters>
          </Trackpoint>
          <Trackpoint>
            <Time>2021-07-18T12:32:30.000Z</Time>
            <Position>
              <LatitudeDegrees>42.72808154113590717315673828125</LatitudeDegrees>
              <LongitudeDegrees>-0.2682203985750675201416015625</LongitudeDegrees>
            </Position>
            <AltitudeMeters>1230.199951171875</AltitudeMeters>
            <DistanceMeters>NAN</DistanceMeters>
          </Trackpoint>
          <Trackpoint>
            <Time>2021-07-18T12:32:33.000Z</Time>
            <Position>
              <LatitudeDegrees>42.72808942012488842010498046875</LatitudeDegrees>
              <LongitudeDegrees>-0.26824043132364749908447265625</LongitudeDegrees>
            </Position>
            <AltitudeMeters>1230</AltitudeMeters>
            <DistanceMeters>NAN</DistanceMeters>
          </Trackpoint>
          <Trackpoint>
            <Time>2021-07-18T12:32:36.000Z</Time>
            <Position>
              <LatitudeDegrees>42.72809109650552272796630859375</LatitudeDegrees>
              <LongitudeDegrees>-0.268252752721309661865234375</LongitudeDegrees>
            </Position>
            <AltitudeMeters>1230</AltitudeMeters>
            <DistanceMeters>NAN</DistanceMeters>
          </Trackpoint>
          <Trackpoint>
            <Time>2021-07-18T12:32:41.000Z</Time>
            <Position>
              <LatitudeDegrees>42.72810048423707485198974609375</LatitudeDegrees>
              <LongitudeDegrees>-0.26826742105185985565185546875</LongitudeDegrees>
            </Position>
            <AltitudeMeters>1229.800048828125</AltitudeMeters>
            <DistanceMeters>NAN</DistanceMeters>
          </Trackpoint>
          <Trackpoint>
            <Time>2021-07-18T12:33:04.000Z</Time>
            <Position>
              <LatitudeDegrees>42.72809612564742565155029296875</LatitudeDegrees>
              <LongitudeDegrees>-0.2682817541062831878662109375</LongitudeDegrees>
            </Position>
            <AltitudeMeters>1229.800048828125</AltitudeMeters>
            <DistanceMeters>NAN</DistanceMeters>
          </Trackpoint>
          <Trackpoint>
            <Time>2021-07-18T12:33:13.000Z</Time>
            <Position>
              <LatitudeDegrees>42.7280843071639537811279296875</LatitudeDegrees>
              <LongitudeDegrees>-0.26827597059309482574462890625</LongitudeDegrees>
            </Position>
            <AltitudeMeters>1229.5999755859375</AltitudeMeters>
            <DistanceMeters>NAN</DistanceMeters>
          </Trackpoint>
          <Trackpoint>
            <Time>2021-07-18T12:33:27.000Z</Time>
            <Position>
              <LatitudeDegrees>42.728062011301517486572265625</LatitudeDegrees>
              <LongitudeDegrees>-0.26822836138308048248291015625</LongitudeDegrees>
            </Position>
            <AltitudeMeters>1230</AltitudeMeters>
            <DistanceMeters>NAN</DistanceMeters>
          </Trackpoint>
          <Trackpoint>
            <Time>2021-07-18T12:33:29.000Z</Time>
            <Position>
              <LatitudeDegrees>42.728060670197010040283203125</LatitudeDegrees>
              <LongitudeDegrees>-0.268226601183414459228515625</LongitudeDegrees>
            </Position>
            <AltitudeMeters>1230</AltitudeMeters>
            <DistanceMeters>NAN</DistanceMeters>
          </Trackpoint>
          <Trackpoint>
            <Time>2021-07-18T12:33:32.000Z</Time>
            <Position>
              <LatitudeDegrees>42.72805907763540744781494140625</LatitudeDegrees>
              <LongitudeDegrees>-0.26822081767022609710693359375</LongitudeDegrees>
            </Position>
            <AltitudeMeters>1230</AltitudeMeters>
            <DistanceMeters>NAN</DistanceMeters>
          </Trackpoint>
          <Trackpoint>
            <Time>2021-07-18T12:33:37.000Z</Time>
            <Position>
              <LatitudeDegrees>42.72805639542639255523681640625</LatitudeDegrees>
              <LongitudeDegrees>-0.26821981184184551239013671875</LongitudeDegrees>
            </Position>
            <AltitudeMeters>1230</AltitudeMeters>
            <DistanceMeters>NAN</DistanceMeters>
          </Trackpoint>
          <Trackpoint>
            <Time>2021-07-18T12:33:42.000Z</Time>
            <Position>
              <LatitudeDegrees>42.7280554734170436859130859375</LatitudeDegrees>
              <LongitudeDegrees>-0.26821629144251346588134765625</LongitudeDegrees>
            </Position>
            <AltitudeMeters>1230</AltitudeMeters>
            <DistanceMeters>NAN</DistanceMeters>
          </Trackpoint>
          <Trackpoint>
            <Time>2021-07-18T12:33:46.000Z</Time>
            <Position>
              <LatitudeDegrees>42.7280541323125362396240234375</LatitudeDegrees>
              <LongitudeDegrees>-0.2682140283286571502685546875</LongitudeDegrees>
            </Position>
            <AltitudeMeters>1230</AltitudeMeters>
            <DistanceMeters>NAN</DistanceMeters>
          </Trackpoint>
          <Trackpoint>
            <Time>2021-07-18T12:33:50.000Z</Time>
            <Position>
              <LatitudeDegrees>42.7280501089990139007568359375</LatitudeDegrees>
              <LongitudeDegrees>-0.26821260340511798858642578125</LongitudeDegrees>
            </Position>
            <AltitudeMeters>1230</AltitudeMeters>
            <DistanceMeters>NAN</DistanceMeters>
          </Trackpoint>
          <Trackpoint>
            <Time>2021-07-18T12:33:56.000Z</Time>
            <Position>
              <LatitudeDegrees>42.72804901935160160064697265625</LatitudeDegrees>
              <LongitudeDegrees>-0.26821059174835681915283203125</LongitudeDegrees>
            </Position>
            <AltitudeMeters>1230</AltitudeMeters>
            <DistanceMeters>NAN</DistanceMeters>
          </Trackpoint>
          <Trackpoint>
            <Time>2021-07-18T12:34:24.000Z</Time>
            <Position>
              <LatitudeDegrees>42.72805832326412200927734375</LatitudeDegrees>
              <LongitudeDegrees>-0.2682160399854183197021484375</LongitudeDegrees>
            </Position>
            <AltitudeMeters>1230.199951171875</AltitudeMeters>
            <DistanceMeters>NAN</DistanceMeters>
          </Trackpoint>
          <Trackpoint>
            <Time>2021-07-18T12:34:31.000Z</Time>
            <Position>
              <LatitudeDegrees>42.7280769310891628265380859375</LatitudeDegrees>
              <LongitudeDegrees>-0.26821696199476718902587890625</LongitudeDegrees>
            </Position>
            <AltitudeMeters>1230.199951171875</AltitudeMeters>
            <DistanceMeters>NAN</DistanceMeters>
          </Trackpoint>
          <Trackpoint>
            <Time>2021-07-18T12:34:47.000Z</Time>
            <Position>
              <LatitudeDegrees>42.7280903421342372894287109375</LatitudeDegrees>
              <LongitudeDegrees>-0.26821696199476718902587890625</LongitudeDegrees>
            </Position>
            <AltitudeMeters>1230.4000244140625</AltitudeMeters>
            <DistanceMeters>NAN</DistanceMeters>
          </Trackpoint>
          <Trackpoint>
            <Time>2021-07-18T12:34:49.000Z</Time>
            <Position>
              <LatitudeDegrees>42.7280910126864910125732421875</LatitudeDegrees>
              <LongitudeDegrees>-0.26821763254702091217041015625</LongitudeDegrees>
            </Position>
            <AltitudeMeters>1230.4000244140625</AltitudeMeters>
            <DistanceMeters>NAN</DistanceMeters>
          </Trackpoint>
          <Trackpoint>
            <Time>2021-07-18T12:34:56.000Z</Time>
            <Position>
              <LatitudeDegrees>42.7280923537909984588623046875</LatitudeDegrees>
              <LongitudeDegrees>-0.2682193927466869354248046875</LongitudeDegrees>
            </Position>
            <AltitudeMeters>1230.4000244140625</AltitudeMeters>
            <DistanceMeters>NAN</DistanceMeters>
          </Trackpoint>
          <Trackpoint>
            <Time>2021-07-18T12:34:58.000Z</Time>
            <Position>
              <LatitudeDegrees>42.72809260524809360504150390625</LatitudeDegrees>
              <LongitudeDegrees>-0.2682195603847503662109375</LongitudeDegrees>
            </Position>
            <AltitudeMeters>1230.4000244140625</AltitudeMeters>
            <DistanceMeters>NAN</DistanceMeters>
          </Trackpoint>
          <Trackpoint>
            <Time>2021-07-18T12:35:03.000Z</Time>
            <Position>
              <LatitudeDegrees>42.72809411399066448211669921875</LatitudeDegrees>
              <LongitudeDegrees>-0.268227271735668182373046875</LongitudeDegrees>
            </Position>
            <AltitudeMeters>1230.4000244140625</AltitudeMeters>
            <DistanceMeters>NAN</DistanceMeters>
          </Trackpoint>
          <Trackpoint>
            <Time>2021-07-18T12:35:11.000Z</Time>
            <Position>
              <LatitudeDegrees>42.72809713147580623626708984375</LatitudeDegrees>
              <LongitudeDegrees>-0.26823674328625202178955078125</LongitudeDegrees>
            </Position>
            <AltitudeMeters>1230.199951171875</AltitudeMeters>
            <DistanceMeters>NAN</DistanceMeters>
          </Trackpoint>
          <Trackpoint>
            <Time>2021-07-18T12:35:47.000Z</Time>
            <Position>
              <LatitudeDegrees>42.72810366936028003692626953125</LatitudeDegrees>
              <LongitudeDegrees>-0.2682120166718959808349609375</LongitudeDegrees>
            </Position>
            <AltitudeMeters>1230.5999755859375</AltitudeMeters>
            <DistanceMeters>NAN</DistanceMeters>
          </Trackpoint>
          <Trackpoint>
            <Time>2021-07-18T12:35:52.000Z</Time>
            <Position>
              <LatitudeDegrees>42.7280940301716327667236328125</LatitudeDegrees>
              <LongitudeDegrees>-0.268175639212131500244140625</LongitudeDegrees>
            </Position>
            <AltitudeMeters>1231</AltitudeMeters>
            <DistanceMeters>NAN</DistanceMeters>
          </Trackpoint>
          <Trackpoint>
            <Time>2021-07-18T12:35:57.000Z</Time>
            <Position>
              <LatitudeDegrees>42.7280866540968418121337890625</LatitudeDegrees>
              <LongitudeDegrees>-0.26817941106855869293212890625</LongitudeDegrees>
            </Position>
            <AltitudeMeters>1231</AltitudeMeters>
            <DistanceMeters>NAN</DistanceMeters>
          </Trackpoint>
          <Trackpoint>
            <Time>2021-07-18T12:36:02.000Z</Time>
            <Position>
              <LatitudeDegrees>42.72817223332822322845458984375</LatitudeDegrees>
              <LongitudeDegrees>-0.2682559378445148468017578125</LongitudeDegrees>
            </Position>
            <AltitudeMeters>1230.5999755859375</AltitudeMeters>
            <DistanceMeters>NAN</DistanceMeters>
          </Trackpoint>
          <Trackpoint>
            <Time>2021-07-18T12:36:03.000Z</Time>
            <Position>
              <LatitudeDegrees>42.72819989360868930816650390625</LatitudeDegrees>
              <LongitudeDegrees>-0.26828887872397899627685546875</LongitudeDegrees>
            </Position>
            <AltitudeMeters>1230.5999755859375</AltitudeMeters>
            <DistanceMeters>NAN</DistanceMeters>
          </Trackpoint>
          <Trackpoint>
            <Time>2021-07-18T12:36:07.000Z</Time>
            <Position>
              <LatitudeDegrees>42.72834666073322296142578125</LatitudeDegrees>
              <LongitudeDegrees>-0.2684068121016025543212890625</LongitudeDegrees>
            </Position>
            <AltitudeMeters>1230.5999755859375</AltitudeMeters>
            <DistanceMeters>NAN</DistanceMeters>
          </Trackpoint>
          <Trackpoint>
            <Time>2021-07-18T12:36:08.000Z</Time>
            <Position>
              <LatitudeDegrees>42.7283934317529201507568359375</LatitudeDegrees>
              <LongitudeDegrees>-0.26843656785786151885986328125</LongitudeDegrees>
            </Position>
            <AltitudeMeters>1230.199951171875</AltitudeMeters>
            <DistanceMeters>NAN</DistanceMeters>
          </Trackpoint>
          <Trackpoint>
            <Time>2021-07-18T12:36:09.000Z</Time>
            <Position>
              <LatitudeDegrees>42.72844615392386913299560546875</LatitudeDegrees>
              <LongitudeDegrees>-0.268467329442501068115234375</LongitudeDegrees>
            </Position>
            <AltitudeMeters>1230.4000244140625</AltitudeMeters>
            <DistanceMeters>NAN</DistanceMeters>
          </Trackpoint>
          <Trackpoint>
            <Time>2021-07-18T12:36:11.000Z</Time>
            <Position>
              <LatitudeDegrees>42.7285587228834629058837890625</LatitudeDegrees>
              <LongitudeDegrees>-0.2685073949396610260009765625</LongitudeDegrees>
            </Position>
            <AltitudeMeters>1229.800048828125</AltitudeMeters>
            <DistanceMeters>NAN</DistanceMeters>
          </Trackpoint>
          <Trackpoint>
            <Time>2021-07-18T12:36:13.000Z</Time>
            <Position>
              <LatitudeDegrees>42.7286774106323719024658203125</LatitudeDegrees>
              <LongitudeDegrees>-0.268523991107940673828125</LongitudeDegrees>
            </Position>
            <AltitudeMeters>1229.5999755859375</AltitudeMeters>
            <DistanceMeters>NAN</DistanceMeters>
          </Trackpoint>
          <Trackpoint>
            <Time>2021-07-18T12:36:16.000Z</Time>
            <Position>
              <LatitudeDegrees>42.7288162149488925933837890625</LatitudeDegrees>
              <LongitudeDegrees>-0.2685177884995937347412109375</LongitudeDegrees>
            </Position>
            <AltitudeMeters>1230</AltitudeMeters>
            <DistanceMeters>NAN</DistanceMeters>
          </Trackpoint>
          <Trackpoint>
            <Time>2021-07-18T12:36:17.000Z</Time>
            <Position>
              <LatitudeDegrees>42.72883038036525249481201171875</LatitudeDegrees>
              <LongitudeDegrees>-0.26850714348256587982177734375</LongitudeDegrees>
            </Position>
            <AltitudeMeters>1230.199951171875</AltitudeMeters>
            <DistanceMeters>NAN</DistanceMeters>
          </Trackpoint>
          <Trackpoint>
            <Time>2021-07-18T12:36:20.000Z</Time>
            <Position>
              <LatitudeDegrees>42.72879366762936115264892578125</LatitudeDegrees>
              <LongitudeDegrees>-0.26848719455301761627197265625</LongitudeDegrees>
            </Position>
            <AltitudeMeters>1231</AltitudeMeters>
            <DistanceMeters>NAN</DistanceMeters>
          </Trackpoint>
          <Trackpoint>
            <Time>2021-07-18T12:36:24.000Z</Time>
            <Position>
              <LatitudeDegrees>42.7287967689335346221923828125</LatitudeDegrees>
              <LongitudeDegrees>-0.26851200498640537261962890625</LongitudeDegrees>
            </Position>
            <AltitudeMeters>1230.199951171875</AltitudeMeters>
            <DistanceMeters>NAN</DistanceMeters>
          </Trackpoint>
          <Trackpoint>
            <Time>2021-07-18T12:36:28.000Z</Time>
            <Position>
              <LatitudeDegrees>42.72890917025506496429443359375</LatitudeDegrees>
              <LongitudeDegrees>-0.26850580237805843353271484375</LongitudeDegrees>
            </Position>
            <AltitudeMeters>1230.4000244140625</AltitudeMeters>
            <DistanceMeters>NAN</DistanceMeters>
          </Trackpoint>
          <Trackpoint>
            <Time>2021-07-18T12:36:32.000Z</Time>
            <Position>
              <LatitudeDegrees>42.7290837652981281280517578125</LatitudeDegrees>
              <LongitudeDegrees>-0.26848467998206615447998046875</LongitudeDegrees>
            </Position>
            <AltitudeMeters>1230.5999755859375</AltitudeMeters>
            <DistanceMeters>NAN</DistanceMeters>
          </Trackpoint>
          <Trackpoint>
            <Time>2021-07-18T12:36:35.000Z</Time>
            <Position>
              <LatitudeDegrees>42.72922265343368053436279296875</LatitudeDegrees>
              <LongitudeDegrees>-0.26846967637538909912109375</LongitudeDegrees>
            </Position>
            <AltitudeMeters>1231</AltitudeMeters>
            <DistanceMeters>NAN</DistanceMeters>
          </Trackpoint>
          <Trackpoint>
            <Time>2021-07-18T12:36:37.000Z</Time>
            <Position>
              <LatitudeDegrees>42.72932558320462703704833984375</LatitudeDegrees>
              <LongitudeDegrees>-0.26844411157071590423583984375</LongitudeDegrees>
            </Position>
            <AltitudeMeters>1231</AltitudeMeters>
            <DistanceMeters>NAN</DistanceMeters>
          </Trackpoint>
          <Trackpoint>
            <Time>2021-07-18T12:36:38.000Z</Time>
            <Position>
              <LatitudeDegrees>42.72937637753784656524658203125</LatitudeDegrees>
              <LongitudeDegrees>-0.2684218995273113250732421875</LongitudeDegrees>
            </Position>
            <AltitudeMeters>1231.199951171875</AltitudeMeters>
            <DistanceMeters>NAN</DistanceMeters>
          </Trackpoint>
          <Trackpoint>
            <Time>2021-07-18T12:36:41.000Z</Time>
            <Position>
              <LatitudeDegrees>42.72954703308641910552978515625</LatitudeDegrees>
              <LongitudeDegrees>-0.26833732612431049346923828125</LongitudeDegrees>
            </Position>
            <AltitudeMeters>1232.800048828125</AltitudeMeters>
            <DistanceMeters>NAN</DistanceMeters>
          </Trackpoint>
          <Trackpoint>
            <Time>2021-07-18T12:36:42.000Z</Time>
            <Position>
              <LatitudeDegrees>42.72960654459893703460693359375</LatitudeDegrees>
              <LongitudeDegrees>-0.268323160707950592041015625</LongitudeDegrees>
            </Position>
            <AltitudeMeters>1233</AltitudeMeters>
            <DistanceMeters>NAN</DistanceMeters>
          </Trackpoint>
          <Trackpoint>
            <Time>2021-07-18T12:36:43.000Z</Time>
            <Position>
              <LatitudeDegrees>42.72966253571212291717529296875</LatitudeDegrees>
              <LongitudeDegrees>-0.2683162875473499298095703125</LongitudeDegrees>
            </Position>
            <AltitudeMeters>1233.199951171875</AltitudeMeters>
            <DistanceMeters>NAN</DistanceMeters>
          </Trackpoint>
          <Trackpoint>
            <Time>2021-07-18T12:36:44.000Z</Time>
            <Position>
              <LatitudeDegrees>42.72971458733081817626953125</LatitudeDegrees>
              <LongitudeDegrees>-0.26832123287022113800048828125</LongitudeDegrees>
            </Position>
            <AltitudeMeters>1233</AltitudeMeters>
            <DistanceMeters>NAN</DistanceMeters>
          </Trackpoint>
          <Trackpoint>
            <Time>2021-07-18T12:36:46.000Z</Time>
            <Position>
              <LatitudeDegrees>42.7297891862690448760986328125</LatitudeDegrees>
              <LongitudeDegrees>-0.2683934010565280914306640625</LongitudeDegrees>
            </Position>
            <AltitudeMeters>1234.5999755859375</AltitudeMeters>
            <DistanceMeters>NAN</DistanceMeters>
          </Trackpoint>
          <Trackpoint>
            <Time>2021-07-18T12:36:48.000Z</Time>
            <Position>
              <LatitudeDegrees>42.72981693036854267120361328125</LatitudeDegrees>
              <LongitudeDegrees>-0.268508903682231903076171875</LongitudeDegrees>
            </Position>
            <AltitudeMeters>1235.4000244140625</AltitudeMeters>
            <DistanceMeters>NAN</DistanceMeters>
          </Trackpoint>
          <Trackpoint>
            <Time>2021-07-18T12:36:49.000Z</Time>
            <Position>
              <LatitudeDegrees>42.72981642745435237884521484375</LatitudeDegrees>
              <LongitudeDegrees>-0.2685687504708766937255859375</LongitudeDegrees>
            </Position>
            <AltitudeMeters>1236.5999755859375</AltitudeMeters>
            <DistanceMeters>NAN</DistanceMeters>
          </Trackpoint>
          <Trackpoint>
            <Time>2021-07-18T12:36:50.000Z</Time>
            <Position>
              <LatitudeDegrees>42.72980175912380218505859375</LatitudeDegrees>
              <LongitudeDegrees>-0.2686327882111072540283203125</LongitudeDegrees>
            </Position>
            <AltitudeMeters>1236.800048828125</AltitudeMeters>
            <DistanceMeters>NAN</DistanceMeters>
          </Trackpoint>
          <Trackpoint>
            <Time>2021-07-18T12:36:52.000Z</Time>
            <Position>
              <LatitudeDegrees>42.72975842468440532684326171875</LatitudeDegrees>
              <LongitudeDegrees>-0.26875474490225315093994140625</LongitudeDegrees>
            </Position>
            <AltitudeMeters>1237</AltitudeMeters>
            <DistanceMeters>NAN</DistanceMeters>
          </Trackpoint>
          <Trackpoint>
            <Time>2021-07-18T12:36:54.000Z</Time>
            <Position>
              <LatitudeDegrees>42.729745768010616302490234375</LatitudeDegrees>
              <LongitudeDegrees>-0.2689006738364696502685546875</LongitudeDegrees>
            </Position>
            <AltitudeMeters>1237.800048828125</AltitudeMeters>
            <DistanceMeters>NAN</DistanceMeters>
          </Trackpoint>
          <Trackpoint>
            <Time>2021-07-18T12:36:56.000Z</Time>
            <Position>
              <LatitudeDegrees>42.7297365479171276092529296875</LatitudeDegrees>
              <LongitudeDegrees>-0.26907585561275482177734375</LongitudeDegrees>
            </Position>
            <AltitudeMeters>1238.5999755859375</AltitudeMeters>
            <DistanceMeters>NAN</DistanceMeters>
          </Trackpoint>
          <Trackpoint>
            <Time>2021-07-18T12:36:59.000Z</Time>
            <Position>
              <LatitudeDegrees>42.7296849153935909271240234375</LatitudeDegrees>
              <LongitudeDegrees>-0.26940383948385715484619140625</LongitudeDegrees>
            </Position>
            <AltitudeMeters>1240</AltitudeMeters>
            <DistanceMeters>NAN</DistanceMeters>
          </Trackpoint>
          <Trackpoint>
            <Time>2021-07-18T12:37:00.000Z</Time>
            <Position>
              <LatitudeDegrees>42.72965968586504459381103515625</LatitudeDegrees>
              <LongitudeDegrees>-0.26952219195663928985595703125</LongitudeDegrees>
            </Position>
            <AltitudeMeters>1240</AltitudeMeters>
            <DistanceMeters>NAN</DistanceMeters>
          </Trackpoint>
          <Trackpoint>
            <Time>2021-07-18T12:37:02.000Z</Time>
            <Position>
              <LatitudeDegrees>42.72959816269576549530029296875</LatitudeDegrees>
              <LongitudeDegrees>-0.26976845227181911468505859375</LongitudeDegrees>
            </Position>
            <AltitudeMeters>1243.4000244140625</AltitudeMeters>
            <DistanceMeters>NAN</DistanceMeters>
          </Trackpoint>
          <Trackpoint>
            <Time>2021-07-18T12:37:04.000Z</Time>
            <Position>
              <LatitudeDegrees>42.72955005057156085968017578125</LatitudeDegrees>
              <LongitudeDegrees>-0.27001990936696529388427734375</LongitudeDegrees>
            </Position>
            <AltitudeMeters>1247.800048828125</AltitudeMeters>
            <DistanceMeters>NAN</DistanceMeters>
          </Trackpoint>
          <Trackpoint>
            <Time>2021-07-18T12:37:05.000Z</Time>
            <Position>
              <LatitudeDegrees>42.72952540777623653411865234375</LatitudeDegrees>
              <LongitudeDegrees>-0.2701643295586109161376953125</LongitudeDegrees>
            </Position>
            <AltitudeMeters>1248.4000244140625</AltitudeMeters>
            <DistanceMeters>NAN</DistanceMeters>
          </Trackpoint>
          <Trackpoint>
            <Time>2021-07-18T12:37:08.000Z</Time>
            <Position>
              <LatitudeDegrees>42.72948450408875942230224609375</LatitudeDegrees>
              <LongitudeDegrees>-0.27047596871852874755859375</LongitudeDegrees>
            </Position>
            <AltitudeMeters>1257</AltitudeMeters>
            <DistanceMeters>NAN</DistanceMeters>
          </Trackpoint>
          <Trackpoint>
            <Time>2021-07-18T12:37:09.000Z</Time>
            <Position>
              <LatitudeDegrees>42.72948266007006168365478515625</LatitudeDegrees>
              <LongitudeDegrees>-0.27059658430516719818115234375</LongitudeDegrees>
            </Position>
            <AltitudeMeters>1259.199951171875</AltitudeMeters>
            <DistanceMeters>NAN</DistanceMeters>
          </Trackpoint>
          <Trackpoint>
            <Time>2021-07-18T12:37:11.000Z</Time>
            <Position>
              <LatitudeDegrees>42.72947587072849273681640625</LatitudeDegrees>
              <LongitudeDegrees>-0.27084820903837680816650390625</LongitudeDegrees>
            </Position>
            <AltitudeMeters>1260.5999755859375</AltitudeMeters>
            <DistanceMeters>NAN</DistanceMeters>
          </Trackpoint>
          <Trackpoint>
            <Time>2021-07-18T12:37:12.000Z</Time>
            <Position>
              <LatitudeDegrees>42.7294609509408473968505859375</LatitudeDegrees>
              <LongitudeDegrees>-0.27096706442534923553466796875</LongitudeDegrees>
            </Position>
            <AltitudeMeters>1259</AltitudeMeters>
            <DistanceMeters>NAN</DistanceMeters>
          </Trackpoint>
          <Trackpoint>
            <Time>2021-07-18T12:37:13.000Z</Time>
            <Position>
              <LatitudeDegrees>42.72944209165871143341064453125</LatitudeDegrees>
              <LongitudeDegrees>-0.2710749395191669464111328125</LongitudeDegrees>
            </Position>
            <AltitudeMeters>1257.4000244140625</AltitudeMeters>
            <DistanceMeters>NAN</DistanceMeters>
          </Trackpoint>
          <Trackpoint>
            <Time>2021-07-18T12:37:15.000Z</Time>
            <Position>
              <LatitudeDegrees>42.7294163592159748077392578125</LatitudeDegrees>
              <LongitudeDegrees>-0.2712719142436981201171875</LongitudeDegrees>
            </Position>
            <AltitudeMeters>1257</AltitudeMeters>
            <DistanceMeters>NAN</DistanceMeters>
          </Trackpoint>
          <Trackpoint>
            <Time>2021-07-18T12:37:17.000Z</Time>
            <Position>
              <LatitudeDegrees>42.72940169088542461395263671875</LatitudeDegrees>
              <LongitudeDegrees>-0.2714631892740726470947265625</LongitudeDegrees>
            </Position>
            <AltitudeMeters>1258.800048828125</AltitudeMeters>
            <DistanceMeters>NAN</DistanceMeters>
          </Trackpoint>
          <Trackpoint>
            <Time>2021-07-18T12:37:20.000Z</Time>
            <Position>
              <LatitudeDegrees>42.7293509803712368011474609375</LatitudeDegrees>
              <LongitudeDegrees>-0.2717850543558597564697265625</LongitudeDegrees>
            </Position>
            <AltitudeMeters>1256</AltitudeMeters>
            <DistanceMeters>NAN</DistanceMeters>
          </Trackpoint>
          <Trackpoint>
            <Time>2021-07-18T12:37:21.000Z</Time>
            <Position>
              <LatitudeDegrees>42.729319296777248382568359375</LatitudeDegrees>
              <LongitudeDegrees>-0.2718853019177913665771484375</LongitudeDegrees>
            </Position>
            <AltitudeMeters>1254.4000244140625</AltitudeMeters>
            <DistanceMeters>NAN</DistanceMeters>
          </Trackpoint>
          <Trackpoint>
            <Time>2021-07-18T12:37:22.000Z</Time>
            <Position>
              <LatitudeDegrees>42.7292695082724094390869140625</LatitudeDegrees>
              <LongitudeDegrees>-0.2719821967184543609619140625</LongitudeDegrees>
            </Position>
            <AltitudeMeters>1251.5999755859375</AltitudeMeters>
            <DistanceMeters>NAN</DistanceMeters>
          </Trackpoint>
          <Trackpoint>
            <Time>2021-07-18T12:37:24.000Z</Time>
            <Position>
              <LatitudeDegrees>42.7291434444487094879150390625</LatitudeDegrees>
              <LongitudeDegrees>-0.27213089168071746826171875</LongitudeDegrees>
            </Position>
            <AltitudeMeters>1246.199951171875</AltitudeMeters>
            <DistanceMeters>NAN</DistanceMeters>
          </Trackpoint>
          <Trackpoint>
            <Time>2021-07-18T12:37:25.000Z</Time>
            <Position>
              <LatitudeDegrees>42.72908292710781097412109375</LatitudeDegrees>
              <LongitudeDegrees>-0.2722091786563396453857421875</LongitudeDegrees>
            </Position>
            <AltitudeMeters>1244.4000244140625</AltitudeMeters>
            <DistanceMeters>NAN</DistanceMeters>
          </Trackpoint>
          <Trackpoint>
            <Time>2021-07-18T12:37:27.000Z</Time>
            <Position>
              <LatitudeDegrees>42.729037664830684661865234375</LatitudeDegrees>
              <LongitudeDegrees>-0.272318981587886810302734375</LongitudeDegrees>
            </Position>
            <AltitudeMeters>1243.4000244140625</AltitudeMeters>
            <DistanceMeters>NAN</DistanceMeters>
          </Trackpoint>
          <Trackpoint>
            <Time>2021-07-18T12:37:29.000Z</Time>
            <Position>
              <LatitudeDegrees>42.729036323726177215576171875</LatitudeDegrees>
              <LongitudeDegrees>-0.27241964824497699737548828125</LongitudeDegrees>
            </Position>
            <AltitudeMeters>1243</AltitudeMeters>
            <DistanceMeters>NAN</DistanceMeters>
          </Trackpoint>
          <Trackpoint>
            <Time>2021-07-18T12:37:30.000Z</Time>
            <Position>
              <LatitudeDegrees>42.72904110141098499298095703125</LatitudeDegrees>
              <LongitudeDegrees>-0.27245552279055118560791015625</LongitudeDegrees>
            </Position>
            <AltitudeMeters>1243</AltitudeMeters>
            <DistanceMeters>NAN</DistanceMeters>
          </Trackpoint>
          <Trackpoint>
            <Time>2021-07-18T12:37:33.000Z</Time>
            <Position>
              <LatitudeDegrees>42.7290380001068115234375</LatitudeDegrees>
              <LongitudeDegrees>-0.272588543593883514404296875</LongitudeDegrees>
            </Position>
            <AltitudeMeters>1243.4000244140625</AltitudeMeters>
            <DistanceMeters>NAN</DistanceMeters>
          </Trackpoint>
          <Trackpoint>
            <Time>2021-07-18T12:37:34.000Z</Time>
            <Position>
              <LatitudeDegrees>42.72900916635990142822265625</LatitudeDegrees>
              <LongitudeDegrees>-0.27265417389571666717529296875</LongitudeDegrees>
            </Position>
            <AltitudeMeters>1243</AltitudeMeters>
            <DistanceMeters>NAN</DistanceMeters>
          </Trackpoint>
          <Trackpoint>
            <Time>2021-07-18T12:37:37.000Z</Time>
            <Position>
              <LatitudeDegrees>42.72884245030581951141357421875</LatitudeDegrees>
              <LongitudeDegrees>-0.272927843034267425537109375</LongitudeDegrees>
            </Position>
            <AltitudeMeters>1242</AltitudeMeters>
            <DistanceMeters>NAN</DistanceMeters>
          </Trackpoint>
          <Trackpoint>
            <Time>2021-07-18T12:37:39.000Z</Time>
            <Position>
              <LatitudeDegrees>42.72871051914989948272705078125</LatitudeDegrees>
              <LongitudeDegrees>-0.27315524406731128692626953125</LongitudeDegrees>
            </Position>
            <AltitudeMeters>1241.5999755859375</AltitudeMeters>
            <DistanceMeters>NAN</DistanceMeters>
          </Trackpoint>
          <Trackpoint>
            <Time>2021-07-18T12:37:41.000Z</Time>
            <Position>
              <LatitudeDegrees>42.72860725410282611846923828125</LatitudeDegrees>
              <LongitudeDegrees>-0.27341340668499469757080078125</LongitudeDegrees>
            </Position>
            <AltitudeMeters>1240.800048828125</AltitudeMeters>
            <DistanceMeters>NAN</DistanceMeters>
          </Trackpoint>
          <Trackpoint>
            <Time>2021-07-18T12:37:42.000Z</Time>
            <Position>
              <LatitudeDegrees>42.72857154719531536102294921875</LatitudeDegrees>
              <LongitudeDegrees>-0.273556821048259735107421875</LongitudeDegrees>
            </Position>
            <AltitudeMeters>1240.4000244140625</AltitudeMeters>
            <DistanceMeters>NAN</DistanceMeters>
          </Trackpoint>
          <Trackpoint>
            <Time>2021-07-18T12:37:44.000Z</Time>
            <Position>
              <LatitudeDegrees>42.72853416390717029571533203125</LatitudeDegrees>
              <LongitudeDegrees>-0.27385882101953029632568359375</LongitudeDegrees>
            </Position>
            <AltitudeMeters>1239.199951171875</AltitudeMeters>
            <DistanceMeters>NAN</DistanceMeters>
          </Trackpoint>
          <Trackpoint>
            <Time>2021-07-18T12:37:45.000Z</Time>
            <Position>
              <LatitudeDegrees>42.72852905094623565673828125</LatitudeDegrees>
              <LongitudeDegrees>-0.2740126289427280426025390625</LongitudeDegrees>
            </Position>
            <AltitudeMeters>1239.800048828125</AltitudeMeters>
            <DistanceMeters>NAN</DistanceMeters>
          </Trackpoint>
          <Trackpoint>
            <Time>2021-07-18T12:37:46.000Z</Time>
            <Position>
              <LatitudeDegrees>42.72852930240333080291748046875</LatitudeDegrees>
              <LongitudeDegrees>-0.2741641737520694732666015625</LongitudeDegrees>
            </Position>
            <AltitudeMeters>1240.5999755859375</AltitudeMeters>
            <DistanceMeters>NAN</DistanceMeters>
          </Trackpoint>
          <Trackpoint>
            <Time>2021-07-18T12:37:48.000Z</Time>
            <Position>
              <LatitudeDegrees>42.72852812893688678741455078125</LatitudeDegrees>
              <LongitudeDegrees>-0.274470783770084381103515625</LongitudeDegrees>
            </Position>
            <AltitudeMeters>1243.199951171875</AltitudeMeters>
            <DistanceMeters>NAN</DistanceMeters>
          </Trackpoint>
          <Trackpoint>
            <Time>2021-07-18T12:37:49.000Z</Time>
            <Position>
              <LatitudeDegrees>42.72851438261568546295166015625</LatitudeDegrees>
              <LongitudeDegrees>-0.27462291531264781951904296875</LongitudeDegrees>
            </Position>
            <AltitudeMeters>1244.800048828125</AltitudeMeters>
            <DistanceMeters>NAN</DistanceMeters>
          </Trackpoint>
          <Trackpoint>
            <Time>2021-07-18T12:37:50.000Z</Time>
            <Position>
              <LatitudeDegrees>42.7284732274711132049560546875</LatitudeDegrees>
              <LongitudeDegrees>-0.2747871167957782745361328125</LongitudeDegrees>
            </Position>
            <AltitudeMeters>1247.199951171875</AltitudeMeters>
            <DistanceMeters>NAN</DistanceMeters>
          </Trackpoint>
          <Trackpoint>
            <Time>2021-07-18T12:37:51.000Z</Time>
            <Position>
              <LatitudeDegrees>42.72842285223305225372314453125</LatitudeDegrees>
              <LongitudeDegrees>-0.27488074265420436859130859375</LongitudeDegrees>
            </Position>
            <AltitudeMeters>1248.199951171875</AltitudeMeters>
            <DistanceMeters>NAN</DistanceMeters>
          </Trackpoint>
          <Trackpoint>
            <Time>2021-07-18T12:37:52.000Z</Time>
            <Position>
              <LatitudeDegrees>42.7283303998410701751708984375</LatitudeDegrees>
              <LongitudeDegrees>-0.27500915341079235076904296875</LongitudeDegrees>
            </Position>
            <AltitudeMeters>1249.5999755859375</AltitudeMeters>
            <DistanceMeters>NAN</DistanceMeters>
          </Trackpoint>
          <Trackpoint>
            <Time>2021-07-18T12:37:54.000Z</Time>
            <Position>
              <LatitudeDegrees>42.7281604148447513580322265625</LatitudeDegrees>
              <LongitudeDegrees>-0.27518902905285358428955078125</LongitudeDegrees>
            </Position>
            <AltitudeMeters>1251</AltitudeMeters>
            <DistanceMeters>NAN</DistanceMeters>
          </Trackpoint>
          <Trackpoint>
            <Time>2021-07-18T12:37:56.000Z</Time>
            <Position>
              <LatitudeDegrees>42.7279555611312389373779296875</LatitudeDegrees>
              <LongitudeDegrees>-0.275361947715282440185546875</LongitudeDegrees>
            </Position>
            <AltitudeMeters>1249</AltitudeMeters>
            <DistanceMeters>NAN</DistanceMeters>
          </Trackpoint>
          <Trackpoint>
            <Time>2021-07-18T12:37:57.000Z</Time>
            <Position>
              <LatitudeDegrees>42.72784776985645294189453125</LatitudeDegrees>
              <LongitudeDegrees>-0.27544316835701465606689453125</LongitudeDegrees>
            </Position>
            <AltitudeMeters>1247.199951171875</AltitudeMeters>
            <DistanceMeters>NAN</DistanceMeters>
          </Trackpoint>
          <Trackpoint>
            <Time>2021-07-18T12:37:58.000Z</Time>
            <Position>
              <LatitudeDegrees>42.727736122906208038330078125</LatitudeDegrees>
              <LongitudeDegrees>-0.27551994659006595611572265625</LongitudeDegrees>
            </Position>
            <AltitudeMeters>1246.4000244140625</AltitudeMeters>
            <DistanceMeters>NAN</DistanceMeters>
          </Trackpoint>
          <Trackpoint>
            <Time>2021-07-18T12:37:59.000Z</Time>
            <Position>
              <LatitudeDegrees>42.727622799575328826904296875</LatitudeDegrees>
              <LongitudeDegrees>-0.27558784000575542449951171875</LongitudeDegrees>
            </Position>
            <AltitudeMeters>1245.4000244140625</AltitudeMeters>
            <DistanceMeters>NAN</DistanceMeters>
          </Trackpoint>
        </Track>
      </Lap>
    </Activity>
  </Activities>
</TrainingCenterDatabase>
